<?xml version="1.0" encoding="UTF-8" standalone="no" ?>
<gpx xmlns="http://www.topografix.com/GPX/1/1" xmlns:xsi="http://www.w3.org/2001/XMLSchema-instance" xsi:schemaLocation="http://www.topografix.com/GPX/1/1 http://www.topografix.com/GPX/1/1/gpx.xsd" version="1.1" creator="VisuGPX - https://www.visugpx.com">
  <metadata>
    <name>CMC Lasséran </name>
    <desc><![CDATA[
Belle journée froide et ensoleillée. Belle boucle facile pas très loin d'Auch.]]></desc>
  </metadata>
  <trk>
    <name><![CDATA[Lasséran Marche à pied]]></name>
    <trkseg>
      <trkpt lat="43.5916" lon="0.53994">
        <ele>195</ele>
        <time>2020-01-12T08:22:44.000Z</time>
      </trkpt>
      <trkpt lat="43.59162" lon="0.5399">
        <ele>195</ele>
        <time>2020-01-12T08:22:47.000Z</time>
      </trkpt>
      <trkpt lat="43.59164" lon="0.53991">
        <ele>195</ele>
        <time>2020-01-12T08:22:49.000Z</time>
      </trkpt>
      <trkpt lat="43.59162" lon="0.53995">
        <ele>195</ele>
        <time>2020-01-12T08:22:51.000Z</time>
      </trkpt>
      <trkpt lat="43.5916" lon="0.53997">
        <ele>195</ele>
        <time>2020-01-12T08:22:53.000Z</time>
      </trkpt>
      <trkpt lat="43.59159" lon="0.54">
        <ele>195</ele>
        <time>2020-01-12T08:22:55.000Z</time>
      </trkpt>
      <trkpt lat="43.59158" lon="0.54004">
        <ele>195</ele>
        <time>2020-01-12T08:22:57.000Z</time>
      </trkpt>
      <trkpt lat="43.59153" lon="0.54008">
        <ele>194</ele>
        <time>2020-01-12T08:22:59.000Z</time>
      </trkpt>
      <trkpt lat="43.59151" lon="0.54005">
        <ele>194</ele>
        <time>2020-01-12T08:23:01.000Z</time>
      </trkpt>
      <trkpt lat="43.5915" lon="0.54009">
        <ele>194</ele>
        <time>2020-01-12T08:23:03.000Z</time>
      </trkpt>
      <trkpt lat="43.59152" lon="0.54009">
        <ele>194</ele>
        <time>2020-01-12T08:23:05.000Z</time>
      </trkpt>
      <trkpt lat="43.59151" lon="0.54014">
        <ele>194</ele>
        <time>2020-01-12T08:23:07.000Z</time>
      </trkpt>
      <trkpt lat="43.59152" lon="0.54017">
        <ele>194</ele>
        <time>2020-01-12T08:23:09.000Z</time>
      </trkpt>
      <trkpt lat="43.59153" lon="0.5402">
        <ele>194</ele>
        <time>2020-01-12T08:23:11.000Z</time>
      </trkpt>
      <trkpt lat="43.59152" lon="0.54023">
        <ele>194</ele>
        <time>2020-01-12T08:23:13.000Z</time>
      </trkpt>
      <trkpt lat="43.59153" lon="0.54027">
        <ele>193</ele>
        <time>2020-01-12T08:23:15.000Z</time>
      </trkpt>
      <trkpt lat="43.59155" lon="0.54029">
        <ele>193</ele>
        <time>2020-01-12T08:23:17.000Z</time>
      </trkpt>
      <trkpt lat="43.59157" lon="0.54031">
        <ele>193</ele>
        <time>2020-01-12T08:23:19.000Z</time>
      </trkpt>
      <trkpt lat="43.59158" lon="0.54033">
        <ele>193</ele>
        <time>2020-01-12T08:23:21.000Z</time>
      </trkpt>
      <trkpt lat="43.59161" lon="0.54034">
        <ele>193</ele>
        <time>2020-01-12T08:23:23.000Z</time>
      </trkpt>
      <trkpt lat="43.59163" lon="0.54035">
        <ele>193</ele>
        <time>2020-01-12T08:23:25.000Z</time>
      </trkpt>
      <trkpt lat="43.59165" lon="0.54036">
        <ele>193</ele>
        <time>2020-01-12T08:23:27.000Z</time>
      </trkpt>
      <trkpt lat="43.59167" lon="0.54038">
        <ele>193</ele>
        <time>2020-01-12T08:23:29.000Z</time>
      </trkpt>
      <trkpt lat="43.59169" lon="0.54039">
        <ele>193</ele>
        <time>2020-01-12T08:23:31.000Z</time>
      </trkpt>
      <trkpt lat="43.59171" lon="0.5404">
        <ele>193</ele>
        <time>2020-01-12T08:23:33.000Z</time>
      </trkpt>
      <trkpt lat="43.59174" lon="0.54041">
        <ele>193</ele>
        <time>2020-01-12T08:23:35.000Z</time>
      </trkpt>
      <trkpt lat="43.59176" lon="0.54043">
        <ele>192</ele>
        <time>2020-01-12T08:23:37.000Z</time>
      </trkpt>
      <trkpt lat="43.59178" lon="0.54044">
        <ele>192</ele>
        <time>2020-01-12T08:23:39.000Z</time>
      </trkpt>
      <trkpt lat="43.5918" lon="0.54045">
        <ele>192</ele>
        <time>2020-01-12T08:23:41.000Z</time>
      </trkpt>
      <trkpt lat="43.59182" lon="0.54046">
        <ele>192</ele>
        <time>2020-01-12T08:23:43.000Z</time>
      </trkpt>
      <trkpt lat="43.59184" lon="0.54048">
        <ele>192</ele>
        <time>2020-01-12T08:23:45.000Z</time>
      </trkpt>
      <trkpt lat="43.59186" lon="0.54049">
        <ele>192</ele>
        <time>2020-01-12T08:23:47.000Z</time>
      </trkpt>
      <trkpt lat="43.59189" lon="0.54051">
        <ele>192</ele>
        <time>2020-01-12T08:23:49.000Z</time>
      </trkpt>
      <trkpt lat="43.5919" lon="0.54053">
        <ele>191</ele>
        <time>2020-01-12T08:23:51.000Z</time>
      </trkpt>
      <trkpt lat="43.59193" lon="0.54054">
        <ele>191</ele>
        <time>2020-01-12T08:23:53.000Z</time>
      </trkpt>
      <trkpt lat="43.59195" lon="0.54056">
        <ele>191</ele>
        <time>2020-01-12T08:23:55.000Z</time>
      </trkpt>
      <trkpt lat="43.59197" lon="0.54058">
        <ele>191</ele>
        <time>2020-01-12T08:23:57.000Z</time>
      </trkpt>
      <trkpt lat="43.59199" lon="0.54059">
        <ele>191</ele>
        <time>2020-01-12T08:23:59.000Z</time>
      </trkpt>
      <trkpt lat="43.592" lon="0.54061">
        <ele>190</ele>
        <time>2020-01-12T08:24:01.000Z</time>
      </trkpt>
      <trkpt lat="43.59201" lon="0.54063">
        <ele>190</ele>
        <time>2020-01-12T08:24:03.000Z</time>
      </trkpt>
      <trkpt lat="43.59203" lon="0.54064">
        <ele>190</ele>
        <time>2020-01-12T08:24:05.000Z</time>
      </trkpt>
      <trkpt lat="43.59206" lon="0.54065">
        <ele>190</ele>
        <time>2020-01-12T08:24:07.000Z</time>
      </trkpt>
      <trkpt lat="43.59209" lon="0.54067">
        <ele>190</ele>
        <time>2020-01-12T08:24:09.000Z</time>
      </trkpt>
      <trkpt lat="43.59212" lon="0.54069">
        <ele>189</ele>
        <time>2020-01-12T08:24:11.000Z</time>
      </trkpt>
      <trkpt lat="43.59215" lon="0.54071">
        <ele>189</ele>
        <time>2020-01-12T08:24:13.000Z</time>
      </trkpt>
      <trkpt lat="43.59217" lon="0.54073">
        <ele>189</ele>
        <time>2020-01-12T08:24:15.000Z</time>
      </trkpt>
      <trkpt lat="43.5922" lon="0.54074">
        <ele>188</ele>
        <time>2020-01-12T08:24:17.000Z</time>
      </trkpt>
      <trkpt lat="43.59223" lon="0.54076">
        <ele>188</ele>
        <time>2020-01-12T08:24:19.000Z</time>
      </trkpt>
      <trkpt lat="43.59225" lon="0.54078">
        <ele>188</ele>
        <time>2020-01-12T08:24:21.000Z</time>
      </trkpt>
      <trkpt lat="43.59227" lon="0.54079">
        <ele>188</ele>
        <time>2020-01-12T08:24:23.000Z</time>
      </trkpt>
      <trkpt lat="43.59229" lon="0.54081">
        <ele>187</ele>
        <time>2020-01-12T08:24:25.000Z</time>
      </trkpt>
      <trkpt lat="43.59231" lon="0.54082">
        <ele>187</ele>
        <time>2020-01-12T08:24:27.000Z</time>
      </trkpt>
      <trkpt lat="43.59233" lon="0.54083">
        <ele>187</ele>
        <time>2020-01-12T08:24:29.000Z</time>
      </trkpt>
      <trkpt lat="43.59235" lon="0.54085">
        <ele>187</ele>
        <time>2020-01-12T08:24:31.000Z</time>
      </trkpt>
      <trkpt lat="43.59236" lon="0.54086">
        <ele>187</ele>
        <time>2020-01-12T08:24:33.000Z</time>
      </trkpt>
      <trkpt lat="43.59238" lon="0.54087">
        <ele>186</ele>
        <time>2020-01-12T08:24:35.000Z</time>
      </trkpt>
      <trkpt lat="43.5924" lon="0.54089">
        <ele>186</ele>
        <time>2020-01-12T08:24:37.000Z</time>
      </trkpt>
      <trkpt lat="43.59242" lon="0.5409">
        <ele>186</ele>
        <time>2020-01-12T08:24:39.000Z</time>
      </trkpt>
      <trkpt lat="43.59244" lon="0.54091">
        <ele>186</ele>
        <time>2020-01-12T08:24:41.000Z</time>
      </trkpt>
      <trkpt lat="43.59246" lon="0.54092">
        <ele>186</ele>
        <time>2020-01-12T08:24:43.000Z</time>
      </trkpt>
      <trkpt lat="43.59248" lon="0.54093">
        <ele>185</ele>
        <time>2020-01-12T08:24:45.000Z</time>
      </trkpt>
      <trkpt lat="43.59249" lon="0.54093">
        <ele>185</ele>
        <time>2020-01-12T08:24:47.000Z</time>
      </trkpt>
      <trkpt lat="43.5925" lon="0.54094">
        <ele>185</ele>
        <time>2020-01-12T08:24:49.000Z</time>
      </trkpt>
      <trkpt lat="43.5925" lon="0.54094">
        <ele>185</ele>
        <time>2020-01-12T08:24:51.000Z</time>
      </trkpt>
      <trkpt lat="43.5925" lon="0.54094">
        <ele>185</ele>
        <time>2020-01-12T08:24:53.000Z</time>
      </trkpt>
      <trkpt lat="43.5925" lon="0.54094">
        <ele>185</ele>
        <time>2020-01-12T08:24:55.000Z</time>
      </trkpt>
      <trkpt lat="43.5925" lon="0.54094">
        <ele>185</ele>
        <time>2020-01-12T08:24:57.000Z</time>
      </trkpt>
      <trkpt lat="43.5925" lon="0.54094">
        <ele>185</ele>
        <time>2020-01-12T08:24:59.000Z</time>
      </trkpt>
      <trkpt lat="43.59254" lon="0.54097">
        <ele>185</ele>
        <time>2020-01-12T08:25:01.000Z</time>
      </trkpt>
      <trkpt lat="43.59256" lon="0.54098">
        <ele>185</ele>
        <time>2020-01-12T08:25:03.000Z</time>
      </trkpt>
      <trkpt lat="43.59258" lon="0.541">
        <ele>184</ele>
        <time>2020-01-12T08:25:05.000Z</time>
      </trkpt>
      <trkpt lat="43.59259" lon="0.541">
        <ele>184</ele>
        <time>2020-01-12T08:25:07.000Z</time>
      </trkpt>
      <trkpt lat="43.5926" lon="0.54101">
        <ele>184</ele>
        <time>2020-01-12T08:25:09.000Z</time>
      </trkpt>
      <trkpt lat="43.59261" lon="0.54102">
        <ele>184</ele>
        <time>2020-01-12T08:25:11.000Z</time>
      </trkpt>
      <trkpt lat="43.59262" lon="0.54103">
        <ele>184</ele>
        <time>2020-01-12T08:25:13.000Z</time>
      </trkpt>
      <trkpt lat="43.59262" lon="0.54104">
        <ele>184</ele>
        <time>2020-01-12T08:25:15.000Z</time>
      </trkpt>
      <trkpt lat="43.59262" lon="0.54104">
        <ele>184</ele>
        <time>2020-01-12T08:25:17.000Z</time>
      </trkpt>
      <trkpt lat="43.59261" lon="0.54104">
        <ele>184</ele>
        <time>2020-01-12T08:25:19.000Z</time>
      </trkpt>
      <trkpt lat="43.59262" lon="0.54103">
        <ele>184</ele>
        <time>2020-01-12T08:25:21.000Z</time>
      </trkpt>
      <trkpt lat="43.59262" lon="0.54103">
        <ele>184</ele>
        <time>2020-01-12T08:25:23.000Z</time>
      </trkpt>
      <trkpt lat="43.59261" lon="0.54103">
        <ele>184</ele>
        <time>2020-01-12T08:25:25.000Z</time>
      </trkpt>
      <trkpt lat="43.59261" lon="0.54103">
        <ele>184</ele>
        <time>2020-01-12T08:25:27.000Z</time>
      </trkpt>
      <trkpt lat="43.59262" lon="0.54102">
        <ele>184</ele>
        <time>2020-01-12T08:25:29.000Z</time>
      </trkpt>
      <trkpt lat="43.59264" lon="0.54101">
        <ele>184</ele>
        <time>2020-01-12T08:25:31.000Z</time>
      </trkpt>
      <trkpt lat="43.59266" lon="0.54101">
        <ele>184</ele>
        <time>2020-01-12T08:25:33.000Z</time>
      </trkpt>
      <trkpt lat="43.59268" lon="0.54102">
        <ele>183</ele>
        <time>2020-01-12T08:25:35.000Z</time>
      </trkpt>
      <trkpt lat="43.5927" lon="0.54103">
        <ele>183</ele>
        <time>2020-01-12T08:25:37.000Z</time>
      </trkpt>
      <trkpt lat="43.59272" lon="0.54104">
        <ele>183</ele>
        <time>2020-01-12T08:25:39.000Z</time>
      </trkpt>
      <trkpt lat="43.59273" lon="0.54105">
        <ele>183</ele>
        <time>2020-01-12T08:25:41.000Z</time>
      </trkpt>
      <trkpt lat="43.59275" lon="0.54105">
        <ele>183</ele>
        <time>2020-01-12T08:25:43.000Z</time>
      </trkpt>
      <trkpt lat="43.59275" lon="0.54106">
        <ele>184</ele>
        <time>2020-01-12T08:25:45.000Z</time>
      </trkpt>
      <trkpt lat="43.59275" lon="0.54105">
        <ele>184</ele>
        <time>2020-01-12T08:25:47.000Z</time>
      </trkpt>
      <trkpt lat="43.59275" lon="0.54106">
        <ele>184</ele>
        <time>2020-01-12T08:25:49.000Z</time>
      </trkpt>
      <trkpt lat="43.59275" lon="0.54106">
        <ele>183</ele>
        <time>2020-01-12T08:25:51.000Z</time>
      </trkpt>
      <trkpt lat="43.59275" lon="0.54106">
        <ele>183</ele>
        <time>2020-01-12T08:25:53.000Z</time>
      </trkpt>
      <trkpt lat="43.59275" lon="0.54106">
        <ele>183</ele>
        <time>2020-01-12T08:25:55.000Z</time>
      </trkpt>
      <trkpt lat="43.59275" lon="0.54106">
        <ele>183</ele>
        <time>2020-01-12T08:25:57.000Z</time>
      </trkpt>
      <trkpt lat="43.59274" lon="0.54106">
        <ele>183</ele>
        <time>2020-01-12T08:25:59.000Z</time>
      </trkpt>
      <trkpt lat="43.59275" lon="0.54108">
        <ele>183</ele>
        <time>2020-01-12T08:26:01.000Z</time>
      </trkpt>
      <trkpt lat="43.59276" lon="0.5411">
        <ele>183</ele>
        <time>2020-01-12T08:26:03.000Z</time>
      </trkpt>
      <trkpt lat="43.59277" lon="0.54112">
        <ele>183</ele>
        <time>2020-01-12T08:26:05.000Z</time>
      </trkpt>
      <trkpt lat="43.59278" lon="0.54113">
        <ele>183</ele>
        <time>2020-01-12T08:26:07.000Z</time>
      </trkpt>
      <trkpt lat="43.59279" lon="0.54113">
        <ele>184</ele>
        <time>2020-01-12T08:26:09.000Z</time>
      </trkpt>
      <trkpt lat="43.59279" lon="0.54113">
        <ele>184</ele>
        <time>2020-01-12T08:26:11.000Z</time>
      </trkpt>
      <trkpt lat="43.59279" lon="0.54113">
        <ele>184</ele>
        <time>2020-01-12T08:26:13.000Z</time>
      </trkpt>
      <trkpt lat="43.5928" lon="0.54114">
        <ele>184</ele>
        <time>2020-01-12T08:26:15.000Z</time>
      </trkpt>
      <trkpt lat="43.5928" lon="0.54115">
        <ele>184</ele>
        <time>2020-01-12T08:26:17.000Z</time>
      </trkpt>
      <trkpt lat="43.5928" lon="0.54116">
        <ele>184</ele>
        <time>2020-01-12T08:26:19.000Z</time>
      </trkpt>
      <trkpt lat="43.59279" lon="0.54117">
        <ele>183</ele>
        <time>2020-01-12T08:26:21.000Z</time>
      </trkpt>
      <trkpt lat="43.59278" lon="0.54117">
        <ele>183</ele>
        <time>2020-01-12T08:26:23.000Z</time>
      </trkpt>
      <trkpt lat="43.59278" lon="0.54117">
        <ele>183</ele>
        <time>2020-01-12T08:26:25.000Z</time>
      </trkpt>
      <trkpt lat="43.59279" lon="0.54116">
        <ele>183</ele>
        <time>2020-01-12T08:26:27.000Z</time>
      </trkpt>
      <trkpt lat="43.59279" lon="0.54116">
        <ele>183</ele>
        <time>2020-01-12T08:26:29.000Z</time>
      </trkpt>
      <trkpt lat="43.59279" lon="0.54116">
        <ele>183</ele>
        <time>2020-01-12T08:26:31.000Z</time>
      </trkpt>
      <trkpt lat="43.59279" lon="0.54117">
        <ele>183</ele>
        <time>2020-01-12T08:26:33.000Z</time>
      </trkpt>
      <trkpt lat="43.59279" lon="0.54118">
        <ele>183</ele>
        <time>2020-01-12T08:26:35.000Z</time>
      </trkpt>
      <trkpt lat="43.59279" lon="0.54118">
        <ele>183</ele>
        <time>2020-01-12T08:26:37.000Z</time>
      </trkpt>
      <trkpt lat="43.59279" lon="0.54118">
        <ele>183</ele>
        <time>2020-01-12T08:26:39.000Z</time>
      </trkpt>
      <trkpt lat="43.59279" lon="0.54118">
        <ele>183</ele>
        <time>2020-01-12T08:26:41.000Z</time>
      </trkpt>
      <trkpt lat="43.59279" lon="0.54118">
        <ele>183</ele>
        <time>2020-01-12T08:26:43.000Z</time>
      </trkpt>
      <trkpt lat="43.5928" lon="0.54118">
        <ele>183</ele>
        <time>2020-01-12T08:26:45.000Z</time>
      </trkpt>
      <trkpt lat="43.5928" lon="0.54118">
        <ele>183</ele>
        <time>2020-01-12T08:26:47.000Z</time>
      </trkpt>
      <trkpt lat="43.5928" lon="0.54118">
        <ele>183</ele>
        <time>2020-01-12T08:26:49.000Z</time>
      </trkpt>
      <trkpt lat="43.5928" lon="0.54118">
        <ele>183</ele>
        <time>2020-01-12T08:26:51.000Z</time>
      </trkpt>
      <trkpt lat="43.5928" lon="0.54118">
        <ele>183</ele>
        <time>2020-01-12T08:26:53.000Z</time>
      </trkpt>
      <trkpt lat="43.5928" lon="0.54117">
        <ele>183</ele>
        <time>2020-01-12T08:26:55.000Z</time>
      </trkpt>
      <trkpt lat="43.5928" lon="0.54116">
        <ele>184</ele>
        <time>2020-01-12T08:26:57.000Z</time>
      </trkpt>
      <trkpt lat="43.59282" lon="0.54116">
        <ele>184</ele>
        <time>2020-01-12T08:26:59.000Z</time>
      </trkpt>
      <trkpt lat="43.59283" lon="0.54117">
        <ele>184</ele>
        <time>2020-01-12T08:27:01.000Z</time>
      </trkpt>
      <trkpt lat="43.59285" lon="0.54116">
        <ele>184</ele>
        <time>2020-01-12T08:27:03.000Z</time>
      </trkpt>
      <trkpt lat="43.59286" lon="0.54116">
        <ele>184</ele>
        <time>2020-01-12T08:27:05.000Z</time>
      </trkpt>
      <trkpt lat="43.59288" lon="0.54116">
        <ele>184</ele>
        <time>2020-01-12T08:27:07.000Z</time>
      </trkpt>
      <trkpt lat="43.5929" lon="0.54118">
        <ele>184</ele>
        <time>2020-01-12T08:27:09.000Z</time>
      </trkpt>
      <trkpt lat="43.59292" lon="0.5412">
        <ele>184</ele>
        <time>2020-01-12T08:27:11.000Z</time>
      </trkpt>
      <trkpt lat="43.59294" lon="0.54122">
        <ele>184</ele>
        <time>2020-01-12T08:27:13.000Z</time>
      </trkpt>
      <trkpt lat="43.59295" lon="0.54123">
        <ele>184</ele>
        <time>2020-01-12T08:27:15.000Z</time>
      </trkpt>
      <trkpt lat="43.59296" lon="0.54126">
        <ele>184</ele>
        <time>2020-01-12T08:27:17.000Z</time>
      </trkpt>
      <trkpt lat="43.59298" lon="0.54128">
        <ele>184</ele>
        <time>2020-01-12T08:27:19.000Z</time>
      </trkpt>
      <trkpt lat="43.593" lon="0.5413">
        <ele>184</ele>
        <time>2020-01-12T08:27:21.000Z</time>
      </trkpt>
      <trkpt lat="43.59301" lon="0.54132">
        <ele>184</ele>
        <time>2020-01-12T08:27:23.000Z</time>
      </trkpt>
      <trkpt lat="43.59303" lon="0.54135">
        <ele>184</ele>
        <time>2020-01-12T08:27:25.000Z</time>
      </trkpt>
      <trkpt lat="43.59304" lon="0.54136">
        <ele>184</ele>
        <time>2020-01-12T08:27:27.000Z</time>
      </trkpt>
      <trkpt lat="43.59305" lon="0.54139">
        <ele>184</ele>
        <time>2020-01-12T08:27:29.000Z</time>
      </trkpt>
      <trkpt lat="43.59307" lon="0.54142">
        <ele>184</ele>
        <time>2020-01-12T08:27:31.000Z</time>
      </trkpt>
      <trkpt lat="43.59308" lon="0.54145">
        <ele>184</ele>
        <time>2020-01-12T08:27:33.000Z</time>
      </trkpt>
      <trkpt lat="43.5931" lon="0.54147">
        <ele>184</ele>
        <time>2020-01-12T08:27:35.000Z</time>
      </trkpt>
      <trkpt lat="43.59311" lon="0.54149">
        <ele>184</ele>
        <time>2020-01-12T08:27:37.000Z</time>
      </trkpt>
      <trkpt lat="43.59313" lon="0.54152">
        <ele>184</ele>
        <time>2020-01-12T08:27:39.000Z</time>
      </trkpt>
      <trkpt lat="43.59314" lon="0.54154">
        <ele>184</ele>
        <time>2020-01-12T08:27:41.000Z</time>
      </trkpt>
      <trkpt lat="43.59316" lon="0.54157">
        <ele>184</ele>
        <time>2020-01-12T08:27:43.000Z</time>
      </trkpt>
      <trkpt lat="43.59318" lon="0.5416">
        <ele>184</ele>
        <time>2020-01-12T08:27:45.000Z</time>
      </trkpt>
      <trkpt lat="43.59319" lon="0.54162">
        <ele>184</ele>
        <time>2020-01-12T08:27:47.000Z</time>
      </trkpt>
      <trkpt lat="43.59321" lon="0.54165">
        <ele>184</ele>
        <time>2020-01-12T08:27:49.000Z</time>
      </trkpt>
      <trkpt lat="43.59322" lon="0.54168">
        <ele>184</ele>
        <time>2020-01-12T08:27:51.000Z</time>
      </trkpt>
      <trkpt lat="43.59324" lon="0.5417">
        <ele>184</ele>
        <time>2020-01-12T08:27:53.000Z</time>
      </trkpt>
      <trkpt lat="43.59326" lon="0.54173">
        <ele>184</ele>
        <time>2020-01-12T08:27:55.000Z</time>
      </trkpt>
      <trkpt lat="43.59328" lon="0.54176">
        <ele>184</ele>
        <time>2020-01-12T08:27:57.000Z</time>
      </trkpt>
      <trkpt lat="43.5933" lon="0.54178">
        <ele>184</ele>
        <time>2020-01-12T08:27:59.000Z</time>
      </trkpt>
      <trkpt lat="43.59332" lon="0.54181">
        <ele>185</ele>
        <time>2020-01-12T08:28:01.000Z</time>
      </trkpt>
      <trkpt lat="43.59333" lon="0.54184">
        <ele>185</ele>
        <time>2020-01-12T08:28:03.000Z</time>
      </trkpt>
      <trkpt lat="43.59335" lon="0.54187">
        <ele>185</ele>
        <time>2020-01-12T08:28:05.000Z</time>
      </trkpt>
      <trkpt lat="43.59337" lon="0.5419">
        <ele>185</ele>
        <time>2020-01-12T08:28:07.000Z</time>
      </trkpt>
      <trkpt lat="43.59338" lon="0.54192">
        <ele>185</ele>
        <time>2020-01-12T08:28:09.000Z</time>
      </trkpt>
      <trkpt lat="43.5934" lon="0.54195">
        <ele>185</ele>
        <time>2020-01-12T08:28:11.000Z</time>
      </trkpt>
      <trkpt lat="43.59341" lon="0.54197">
        <ele>185</ele>
        <time>2020-01-12T08:28:13.000Z</time>
      </trkpt>
      <trkpt lat="43.59343" lon="0.54199">
        <ele>185</ele>
        <time>2020-01-12T08:28:15.000Z</time>
      </trkpt>
      <trkpt lat="43.59344" lon="0.54203">
        <ele>185</ele>
        <time>2020-01-12T08:28:17.000Z</time>
      </trkpt>
      <trkpt lat="43.59345" lon="0.54205">
        <ele>185</ele>
        <time>2020-01-12T08:28:19.000Z</time>
      </trkpt>
      <trkpt lat="43.59347" lon="0.54207">
        <ele>185</ele>
        <time>2020-01-12T08:28:21.000Z</time>
      </trkpt>
      <trkpt lat="43.59348" lon="0.5421">
        <ele>185</ele>
        <time>2020-01-12T08:28:23.000Z</time>
      </trkpt>
      <trkpt lat="43.59349" lon="0.54213">
        <ele>185</ele>
        <time>2020-01-12T08:28:25.000Z</time>
      </trkpt>
      <trkpt lat="43.5935" lon="0.54216">
        <ele>185</ele>
        <time>2020-01-12T08:28:27.000Z</time>
      </trkpt>
      <trkpt lat="43.5935" lon="0.5422">
        <ele>185</ele>
        <time>2020-01-12T08:28:29.000Z</time>
      </trkpt>
      <trkpt lat="43.59351" lon="0.54223">
        <ele>185</ele>
        <time>2020-01-12T08:28:31.000Z</time>
      </trkpt>
      <trkpt lat="43.59352" lon="0.54227">
        <ele>185</ele>
        <time>2020-01-12T08:28:33.000Z</time>
      </trkpt>
      <trkpt lat="43.59352" lon="0.5423">
        <ele>185</ele>
        <time>2020-01-12T08:28:35.000Z</time>
      </trkpt>
      <trkpt lat="43.59353" lon="0.54234">
        <ele>185</ele>
        <time>2020-01-12T08:28:37.000Z</time>
      </trkpt>
      <trkpt lat="43.59353" lon="0.54238">
        <ele>185</ele>
        <time>2020-01-12T08:28:39.000Z</time>
      </trkpt>
      <trkpt lat="43.59353" lon="0.54242">
        <ele>185</ele>
        <time>2020-01-12T08:28:41.000Z</time>
      </trkpt>
      <trkpt lat="43.59354" lon="0.54245">
        <ele>185</ele>
        <time>2020-01-12T08:28:43.000Z</time>
      </trkpt>
      <trkpt lat="43.59354" lon="0.54248">
        <ele>185</ele>
        <time>2020-01-12T08:28:45.000Z</time>
      </trkpt>
      <trkpt lat="43.59355" lon="0.54252">
        <ele>185</ele>
        <time>2020-01-12T08:28:47.000Z</time>
      </trkpt>
      <trkpt lat="43.59355" lon="0.54254">
        <ele>185</ele>
        <time>2020-01-12T08:28:49.000Z</time>
      </trkpt>
      <trkpt lat="43.59355" lon="0.54258">
        <ele>185</ele>
        <time>2020-01-12T08:28:51.000Z</time>
      </trkpt>
      <trkpt lat="43.59356" lon="0.54261">
        <ele>184</ele>
        <time>2020-01-12T08:28:53.000Z</time>
      </trkpt>
      <trkpt lat="43.59356" lon="0.54264">
        <ele>184</ele>
        <time>2020-01-12T08:28:55.000Z</time>
      </trkpt>
      <trkpt lat="43.59357" lon="0.54267">
        <ele>184</ele>
        <time>2020-01-12T08:28:57.000Z</time>
      </trkpt>
      <trkpt lat="43.59357" lon="0.5427">
        <ele>184</ele>
        <time>2020-01-12T08:28:59.000Z</time>
      </trkpt>
      <trkpt lat="43.59358" lon="0.54274">
        <ele>184</ele>
        <time>2020-01-12T08:29:01.000Z</time>
      </trkpt>
      <trkpt lat="43.59358" lon="0.54277">
        <ele>184</ele>
        <time>2020-01-12T08:29:03.000Z</time>
      </trkpt>
      <trkpt lat="43.59359" lon="0.5428">
        <ele>184</ele>
        <time>2020-01-12T08:29:05.000Z</time>
      </trkpt>
      <trkpt lat="43.5936" lon="0.54283">
        <ele>184</ele>
        <time>2020-01-12T08:29:07.000Z</time>
      </trkpt>
      <trkpt lat="43.59361" lon="0.54286">
        <ele>184</ele>
        <time>2020-01-12T08:29:09.000Z</time>
      </trkpt>
      <trkpt lat="43.59362" lon="0.54288">
        <ele>184</ele>
        <time>2020-01-12T08:29:11.000Z</time>
      </trkpt>
      <trkpt lat="43.59363" lon="0.54289">
        <ele>184</ele>
        <time>2020-01-12T08:29:13.000Z</time>
      </trkpt>
      <trkpt lat="43.59365" lon="0.54291">
        <ele>184</ele>
        <time>2020-01-12T08:29:15.000Z</time>
      </trkpt>
      <trkpt lat="43.59366" lon="0.54291">
        <ele>184</ele>
        <time>2020-01-12T08:29:17.000Z</time>
      </trkpt>
      <trkpt lat="43.59368" lon="0.54292">
        <ele>184</ele>
        <time>2020-01-12T08:29:19.000Z</time>
      </trkpt>
      <trkpt lat="43.5937" lon="0.54293">
        <ele>184</ele>
        <time>2020-01-12T08:29:21.000Z</time>
      </trkpt>
      <trkpt lat="43.59372" lon="0.54294">
        <ele>184</ele>
        <time>2020-01-12T08:29:23.000Z</time>
      </trkpt>
      <trkpt lat="43.59375" lon="0.54294">
        <ele>184</ele>
        <time>2020-01-12T08:29:25.000Z</time>
      </trkpt>
      <trkpt lat="43.59377" lon="0.54294">
        <ele>184</ele>
        <time>2020-01-12T08:29:27.000Z</time>
      </trkpt>
      <trkpt lat="43.59378" lon="0.54293">
        <ele>184</ele>
        <time>2020-01-12T08:29:29.000Z</time>
      </trkpt>
      <trkpt lat="43.5938" lon="0.54293">
        <ele>184</ele>
        <time>2020-01-12T08:29:31.000Z</time>
      </trkpt>
      <trkpt lat="43.59382" lon="0.54293">
        <ele>184</ele>
        <time>2020-01-12T08:29:33.000Z</time>
      </trkpt>
      <trkpt lat="43.59384" lon="0.54292">
        <ele>184</ele>
        <time>2020-01-12T08:29:35.000Z</time>
      </trkpt>
      <trkpt lat="43.59386" lon="0.54292">
        <ele>184</ele>
        <time>2020-01-12T08:29:37.000Z</time>
      </trkpt>
      <trkpt lat="43.59389" lon="0.54292">
        <ele>184</ele>
        <time>2020-01-12T08:29:39.000Z</time>
      </trkpt>
      <trkpt lat="43.59391" lon="0.54291">
        <ele>184</ele>
        <time>2020-01-12T08:29:41.000Z</time>
      </trkpt>
      <trkpt lat="43.59393" lon="0.5429">
        <ele>184</ele>
        <time>2020-01-12T08:29:43.000Z</time>
      </trkpt>
      <trkpt lat="43.59395" lon="0.54289">
        <ele>184</ele>
        <time>2020-01-12T08:29:45.000Z</time>
      </trkpt>
      <trkpt lat="43.59398" lon="0.54289">
        <ele>184</ele>
        <time>2020-01-12T08:29:47.000Z</time>
      </trkpt>
      <trkpt lat="43.594" lon="0.54287">
        <ele>184</ele>
        <time>2020-01-12T08:29:49.000Z</time>
      </trkpt>
      <trkpt lat="43.59402" lon="0.54286">
        <ele>184</ele>
        <time>2020-01-12T08:29:51.000Z</time>
      </trkpt>
      <trkpt lat="43.59405" lon="0.54286">
        <ele>184</ele>
        <time>2020-01-12T08:29:53.000Z</time>
      </trkpt>
      <trkpt lat="43.59407" lon="0.54285">
        <ele>184</ele>
        <time>2020-01-12T08:29:55.000Z</time>
      </trkpt>
      <trkpt lat="43.59409" lon="0.54284">
        <ele>184</ele>
        <time>2020-01-12T08:29:57.000Z</time>
      </trkpt>
      <trkpt lat="43.59412" lon="0.54284">
        <ele>184</ele>
        <time>2020-01-12T08:29:59.000Z</time>
      </trkpt>
      <trkpt lat="43.59415" lon="0.54283">
        <ele>184</ele>
        <time>2020-01-12T08:30:01.000Z</time>
      </trkpt>
      <trkpt lat="43.59417" lon="0.54283">
        <ele>184</ele>
        <time>2020-01-12T08:30:03.000Z</time>
      </trkpt>
      <trkpt lat="43.59419" lon="0.54282">
        <ele>184</ele>
        <time>2020-01-12T08:30:05.000Z</time>
      </trkpt>
      <trkpt lat="43.59422" lon="0.54282">
        <ele>184</ele>
        <time>2020-01-12T08:30:07.000Z</time>
      </trkpt>
      <trkpt lat="43.59424" lon="0.54281">
        <ele>184</ele>
        <time>2020-01-12T08:30:09.000Z</time>
      </trkpt>
      <trkpt lat="43.59427" lon="0.5428">
        <ele>185</ele>
        <time>2020-01-12T08:30:11.000Z</time>
      </trkpt>
      <trkpt lat="43.5943" lon="0.5428">
        <ele>185</ele>
        <time>2020-01-12T08:30:13.000Z</time>
      </trkpt>
      <trkpt lat="43.59432" lon="0.5428">
        <ele>185</ele>
        <time>2020-01-12T08:30:15.000Z</time>
      </trkpt>
      <trkpt lat="43.59435" lon="0.54279">
        <ele>185</ele>
        <time>2020-01-12T08:30:17.000Z</time>
      </trkpt>
      <trkpt lat="43.59437" lon="0.54279">
        <ele>185</ele>
        <time>2020-01-12T08:30:19.000Z</time>
      </trkpt>
      <trkpt lat="43.5944" lon="0.54279">
        <ele>185</ele>
        <time>2020-01-12T08:30:21.000Z</time>
      </trkpt>
      <trkpt lat="43.59443" lon="0.54278">
        <ele>185</ele>
        <time>2020-01-12T08:30:23.000Z</time>
      </trkpt>
      <trkpt lat="43.59446" lon="0.54278">
        <ele>185</ele>
        <time>2020-01-12T08:30:25.000Z</time>
      </trkpt>
      <trkpt lat="43.59448" lon="0.54277">
        <ele>185</ele>
        <time>2020-01-12T08:30:27.000Z</time>
      </trkpt>
      <trkpt lat="43.5945" lon="0.54276">
        <ele>185</ele>
        <time>2020-01-12T08:30:29.000Z</time>
      </trkpt>
      <trkpt lat="43.59453" lon="0.54277">
        <ele>185</ele>
        <time>2020-01-12T08:30:31.000Z</time>
      </trkpt>
      <trkpt lat="43.59455" lon="0.54276">
        <ele>185</ele>
        <time>2020-01-12T08:30:33.000Z</time>
      </trkpt>
      <trkpt lat="43.59458" lon="0.54276">
        <ele>185</ele>
        <time>2020-01-12T08:30:35.000Z</time>
      </trkpt>
      <trkpt lat="43.5946" lon="0.54275">
        <ele>185</ele>
        <time>2020-01-12T08:30:37.000Z</time>
      </trkpt>
      <trkpt lat="43.59462" lon="0.54274">
        <ele>185</ele>
        <time>2020-01-12T08:30:39.000Z</time>
      </trkpt>
      <trkpt lat="43.59464" lon="0.54275">
        <ele>185</ele>
        <time>2020-01-12T08:30:41.000Z</time>
      </trkpt>
      <trkpt lat="43.59467" lon="0.54275">
        <ele>185</ele>
        <time>2020-01-12T08:30:43.000Z</time>
      </trkpt>
      <trkpt lat="43.5947" lon="0.54277">
        <ele>184</ele>
        <time>2020-01-12T08:30:45.000Z</time>
      </trkpt>
      <trkpt lat="43.59472" lon="0.5428">
        <ele>184</ele>
        <time>2020-01-12T08:30:47.000Z</time>
      </trkpt>
      <trkpt lat="43.59473" lon="0.54283">
        <ele>184</ele>
        <time>2020-01-12T08:30:49.000Z</time>
      </trkpt>
      <trkpt lat="43.59474" lon="0.54287">
        <ele>184</ele>
        <time>2020-01-12T08:30:51.000Z</time>
      </trkpt>
      <trkpt lat="43.59475" lon="0.5429">
        <ele>184</ele>
        <time>2020-01-12T08:30:53.000Z</time>
      </trkpt>
      <trkpt lat="43.59475" lon="0.54292">
        <ele>184</ele>
        <time>2020-01-12T08:30:55.000Z</time>
      </trkpt>
      <trkpt lat="43.59476" lon="0.54293">
        <ele>184</ele>
        <time>2020-01-12T08:30:57.000Z</time>
      </trkpt>
      <trkpt lat="43.59476" lon="0.54293">
        <ele>184</ele>
        <time>2020-01-12T08:30:59.000Z</time>
      </trkpt>
      <trkpt lat="43.59476" lon="0.54294">
        <ele>184</ele>
        <time>2020-01-12T08:31:01.000Z</time>
      </trkpt>
      <trkpt lat="43.59476" lon="0.54296">
        <ele>184</ele>
        <time>2020-01-12T08:31:03.000Z</time>
      </trkpt>
      <trkpt lat="43.59476" lon="0.54297">
        <ele>184</ele>
        <time>2020-01-12T08:31:05.000Z</time>
      </trkpt>
      <trkpt lat="43.59476" lon="0.543">
        <ele>184</ele>
        <time>2020-01-12T08:31:07.000Z</time>
      </trkpt>
      <trkpt lat="43.59476" lon="0.54303">
        <ele>184</ele>
        <time>2020-01-12T08:31:09.000Z</time>
      </trkpt>
      <trkpt lat="43.59475" lon="0.54306">
        <ele>184</ele>
        <time>2020-01-12T08:31:11.000Z</time>
      </trkpt>
      <trkpt lat="43.59475" lon="0.54309">
        <ele>184</ele>
        <time>2020-01-12T08:31:13.000Z</time>
      </trkpt>
      <trkpt lat="43.59475" lon="0.54313">
        <ele>184</ele>
        <time>2020-01-12T08:31:15.000Z</time>
      </trkpt>
      <trkpt lat="43.59474" lon="0.54316">
        <ele>184</ele>
        <time>2020-01-12T08:31:17.000Z</time>
      </trkpt>
      <trkpt lat="43.59474" lon="0.54319">
        <ele>184</ele>
        <time>2020-01-12T08:31:19.000Z</time>
      </trkpt>
      <trkpt lat="43.59473" lon="0.54322">
        <ele>184</ele>
        <time>2020-01-12T08:31:21.000Z</time>
      </trkpt>
      <trkpt lat="43.59472" lon="0.54324">
        <ele>184</ele>
        <time>2020-01-12T08:31:23.000Z</time>
      </trkpt>
      <trkpt lat="43.59472" lon="0.54327">
        <ele>184</ele>
        <time>2020-01-12T08:31:25.000Z</time>
      </trkpt>
      <trkpt lat="43.59471" lon="0.5433">
        <ele>184</ele>
        <time>2020-01-12T08:31:27.000Z</time>
      </trkpt>
      <trkpt lat="43.59471" lon="0.54333">
        <ele>184</ele>
        <time>2020-01-12T08:31:29.000Z</time>
      </trkpt>
      <trkpt lat="43.5947" lon="0.54336">
        <ele>184</ele>
        <time>2020-01-12T08:31:31.000Z</time>
      </trkpt>
      <trkpt lat="43.5947" lon="0.5434">
        <ele>183</ele>
        <time>2020-01-12T08:31:33.000Z</time>
      </trkpt>
      <trkpt lat="43.5947" lon="0.54343">
        <ele>183</ele>
        <time>2020-01-12T08:31:35.000Z</time>
      </trkpt>
      <trkpt lat="43.59469" lon="0.54346">
        <ele>183</ele>
        <time>2020-01-12T08:31:37.000Z</time>
      </trkpt>
      <trkpt lat="43.59469" lon="0.54349">
        <ele>183</ele>
        <time>2020-01-12T08:31:39.000Z</time>
      </trkpt>
      <trkpt lat="43.59468" lon="0.54352">
        <ele>183</ele>
        <time>2020-01-12T08:31:41.000Z</time>
      </trkpt>
      <trkpt lat="43.59468" lon="0.54355">
        <ele>183</ele>
        <time>2020-01-12T08:31:43.000Z</time>
      </trkpt>
      <trkpt lat="43.59468" lon="0.54357">
        <ele>183</ele>
        <time>2020-01-12T08:31:45.000Z</time>
      </trkpt>
      <trkpt lat="43.59468" lon="0.5436">
        <ele>183</ele>
        <time>2020-01-12T08:31:47.000Z</time>
      </trkpt>
      <trkpt lat="43.59469" lon="0.54362">
        <ele>183</ele>
        <time>2020-01-12T08:31:49.000Z</time>
      </trkpt>
      <trkpt lat="43.5947" lon="0.54364">
        <ele>183</ele>
        <time>2020-01-12T08:31:51.000Z</time>
      </trkpt>
      <trkpt lat="43.59472" lon="0.54366">
        <ele>183</ele>
        <time>2020-01-12T08:31:53.000Z</time>
      </trkpt>
      <trkpt lat="43.59473" lon="0.54366">
        <ele>183</ele>
        <time>2020-01-12T08:31:55.000Z</time>
      </trkpt>
      <trkpt lat="43.59475" lon="0.54367">
        <ele>183</ele>
        <time>2020-01-12T08:31:57.000Z</time>
      </trkpt>
      <trkpt lat="43.59477" lon="0.54367">
        <ele>183</ele>
        <time>2020-01-12T08:31:59.000Z</time>
      </trkpt>
      <trkpt lat="43.5948" lon="0.54367">
        <ele>183</ele>
        <time>2020-01-12T08:32:01.000Z</time>
      </trkpt>
      <trkpt lat="43.59482" lon="0.54367">
        <ele>183</ele>
        <time>2020-01-12T08:32:03.000Z</time>
      </trkpt>
      <trkpt lat="43.59484" lon="0.54367">
        <ele>183</ele>
        <time>2020-01-12T08:32:05.000Z</time>
      </trkpt>
      <trkpt lat="43.59486" lon="0.54367">
        <ele>183</ele>
        <time>2020-01-12T08:32:07.000Z</time>
      </trkpt>
      <trkpt lat="43.59488" lon="0.54366">
        <ele>183</ele>
        <time>2020-01-12T08:32:09.000Z</time>
      </trkpt>
      <trkpt lat="43.5949" lon="0.54366">
        <ele>183</ele>
        <time>2020-01-12T08:32:11.000Z</time>
      </trkpt>
      <trkpt lat="43.59492" lon="0.54366">
        <ele>183</ele>
        <time>2020-01-12T08:32:13.000Z</time>
      </trkpt>
      <trkpt lat="43.59494" lon="0.54367">
        <ele>183</ele>
        <time>2020-01-12T08:32:15.000Z</time>
      </trkpt>
      <trkpt lat="43.59495" lon="0.54367">
        <ele>183</ele>
        <time>2020-01-12T08:32:17.000Z</time>
      </trkpt>
      <trkpt lat="43.59496" lon="0.54367">
        <ele>183</ele>
        <time>2020-01-12T08:32:19.000Z</time>
      </trkpt>
      <trkpt lat="43.59497" lon="0.54366">
        <ele>183</ele>
        <time>2020-01-12T08:32:21.000Z</time>
      </trkpt>
      <trkpt lat="43.59499" lon="0.54367">
        <ele>183</ele>
        <time>2020-01-12T08:32:23.000Z</time>
      </trkpt>
      <trkpt lat="43.595" lon="0.54367">
        <ele>183</ele>
        <time>2020-01-12T08:32:25.000Z</time>
      </trkpt>
      <trkpt lat="43.59502" lon="0.54368">
        <ele>183</ele>
        <time>2020-01-12T08:32:27.000Z</time>
      </trkpt>
      <trkpt lat="43.59505" lon="0.54368">
        <ele>183</ele>
        <time>2020-01-12T08:32:29.000Z</time>
      </trkpt>
      <trkpt lat="43.59507" lon="0.54368">
        <ele>183</ele>
        <time>2020-01-12T08:32:31.000Z</time>
      </trkpt>
      <trkpt lat="43.59509" lon="0.54369">
        <ele>183</ele>
        <time>2020-01-12T08:32:33.000Z</time>
      </trkpt>
      <trkpt lat="43.59512" lon="0.54369">
        <ele>183</ele>
        <time>2020-01-12T08:32:35.000Z</time>
      </trkpt>
      <trkpt lat="43.59514" lon="0.54369">
        <ele>183</ele>
        <time>2020-01-12T08:32:37.000Z</time>
      </trkpt>
      <trkpt lat="43.59516" lon="0.54369">
        <ele>183</ele>
        <time>2020-01-12T08:32:39.000Z</time>
      </trkpt>
      <trkpt lat="43.59519" lon="0.54369">
        <ele>183</ele>
        <time>2020-01-12T08:32:41.000Z</time>
      </trkpt>
      <trkpt lat="43.59521" lon="0.54369">
        <ele>183</ele>
        <time>2020-01-12T08:32:43.000Z</time>
      </trkpt>
      <trkpt lat="43.59524" lon="0.54369">
        <ele>183</ele>
        <time>2020-01-12T08:32:45.000Z</time>
      </trkpt>
      <trkpt lat="43.59527" lon="0.54369">
        <ele>183</ele>
        <time>2020-01-12T08:32:47.000Z</time>
      </trkpt>
      <trkpt lat="43.59529" lon="0.5437">
        <ele>183</ele>
        <time>2020-01-12T08:32:49.000Z</time>
      </trkpt>
      <trkpt lat="43.5953" lon="0.5437">
        <ele>183</ele>
        <time>2020-01-12T08:32:51.000Z</time>
      </trkpt>
      <trkpt lat="43.5953" lon="0.54371">
        <ele>183</ele>
        <time>2020-01-12T08:32:53.000Z</time>
      </trkpt>
      <trkpt lat="43.5953" lon="0.54371">
        <ele>183</ele>
        <time>2020-01-12T08:32:55.000Z</time>
      </trkpt>
      <trkpt lat="43.59533" lon="0.54372">
        <ele>183</ele>
        <time>2020-01-12T08:32:57.000Z</time>
      </trkpt>
      <trkpt lat="43.59534" lon="0.54372">
        <ele>183</ele>
        <time>2020-01-12T08:32:59.000Z</time>
      </trkpt>
      <trkpt lat="43.59537" lon="0.54372">
        <ele>183</ele>
        <time>2020-01-12T08:33:01.000Z</time>
      </trkpt>
      <trkpt lat="43.5954" lon="0.54373">
        <ele>182</ele>
        <time>2020-01-12T08:33:03.000Z</time>
      </trkpt>
      <trkpt lat="43.59542" lon="0.54373">
        <ele>182</ele>
        <time>2020-01-12T08:33:05.000Z</time>
      </trkpt>
      <trkpt lat="43.59545" lon="0.54374">
        <ele>182</ele>
        <time>2020-01-12T08:33:07.000Z</time>
      </trkpt>
      <trkpt lat="43.59547" lon="0.54375">
        <ele>182</ele>
        <time>2020-01-12T08:33:09.000Z</time>
      </trkpt>
      <trkpt lat="43.5955" lon="0.54376">
        <ele>182</ele>
        <time>2020-01-12T08:33:11.000Z</time>
      </trkpt>
      <trkpt lat="43.59553" lon="0.54377">
        <ele>182</ele>
        <time>2020-01-12T08:33:13.000Z</time>
      </trkpt>
      <trkpt lat="43.59556" lon="0.54378">
        <ele>182</ele>
        <time>2020-01-12T08:33:15.000Z</time>
      </trkpt>
      <trkpt lat="43.59558" lon="0.5438">
        <ele>182</ele>
        <time>2020-01-12T08:33:17.000Z</time>
      </trkpt>
      <trkpt lat="43.59561" lon="0.54382">
        <ele>182</ele>
        <time>2020-01-12T08:33:19.000Z</time>
      </trkpt>
      <trkpt lat="43.59563" lon="0.54384">
        <ele>182</ele>
        <time>2020-01-12T08:33:21.000Z</time>
      </trkpt>
      <trkpt lat="43.59566" lon="0.54385">
        <ele>182</ele>
        <time>2020-01-12T08:33:23.000Z</time>
      </trkpt>
      <trkpt lat="43.59568" lon="0.54387">
        <ele>182</ele>
        <time>2020-01-12T08:33:25.000Z</time>
      </trkpt>
      <trkpt lat="43.5957" lon="0.54388">
        <ele>182</ele>
        <time>2020-01-12T08:33:27.000Z</time>
      </trkpt>
      <trkpt lat="43.59573" lon="0.54389">
        <ele>182</ele>
        <time>2020-01-12T08:33:29.000Z</time>
      </trkpt>
      <trkpt lat="43.59575" lon="0.5439">
        <ele>181</ele>
        <time>2020-01-12T08:33:31.000Z</time>
      </trkpt>
      <trkpt lat="43.59577" lon="0.54391">
        <ele>181</ele>
        <time>2020-01-12T08:33:33.000Z</time>
      </trkpt>
      <trkpt lat="43.59579" lon="0.54393">
        <ele>181</ele>
        <time>2020-01-12T08:33:35.000Z</time>
      </trkpt>
      <trkpt lat="43.59581" lon="0.54394">
        <ele>181</ele>
        <time>2020-01-12T08:33:37.000Z</time>
      </trkpt>
      <trkpt lat="43.59583" lon="0.54395">
        <ele>181</ele>
        <time>2020-01-12T08:33:39.000Z</time>
      </trkpt>
      <trkpt lat="43.59585" lon="0.54397">
        <ele>181</ele>
        <time>2020-01-12T08:33:41.000Z</time>
      </trkpt>
      <trkpt lat="43.59587" lon="0.54399">
        <ele>181</ele>
        <time>2020-01-12T08:33:43.000Z</time>
      </trkpt>
      <trkpt lat="43.59589" lon="0.544">
        <ele>181</ele>
        <time>2020-01-12T08:33:45.000Z</time>
      </trkpt>
      <trkpt lat="43.5959" lon="0.54401">
        <ele>181</ele>
        <time>2020-01-12T08:33:47.000Z</time>
      </trkpt>
      <trkpt lat="43.59592" lon="0.54402">
        <ele>181</ele>
        <time>2020-01-12T08:33:49.000Z</time>
      </trkpt>
      <trkpt lat="43.59593" lon="0.54402">
        <ele>181</ele>
        <time>2020-01-12T08:33:51.000Z</time>
      </trkpt>
      <trkpt lat="43.59595" lon="0.54404">
        <ele>181</ele>
        <time>2020-01-12T08:33:53.000Z</time>
      </trkpt>
      <trkpt lat="43.59597" lon="0.54405">
        <ele>181</ele>
        <time>2020-01-12T08:33:55.000Z</time>
      </trkpt>
      <trkpt lat="43.59599" lon="0.54406">
        <ele>181</ele>
        <time>2020-01-12T08:33:57.000Z</time>
      </trkpt>
      <trkpt lat="43.59601" lon="0.54408">
        <ele>180</ele>
        <time>2020-01-12T08:33:59.000Z</time>
      </trkpt>
      <trkpt lat="43.59603" lon="0.54409">
        <ele>180</ele>
        <time>2020-01-12T08:34:01.000Z</time>
      </trkpt>
      <trkpt lat="43.59605" lon="0.54411">
        <ele>180</ele>
        <time>2020-01-12T08:34:03.000Z</time>
      </trkpt>
      <trkpt lat="43.59607" lon="0.54413">
        <ele>180</ele>
        <time>2020-01-12T08:34:05.000Z</time>
      </trkpt>
      <trkpt lat="43.5961" lon="0.54414">
        <ele>179</ele>
        <time>2020-01-12T08:34:07.000Z</time>
      </trkpt>
      <trkpt lat="43.59612" lon="0.54415">
        <ele>179</ele>
        <time>2020-01-12T08:34:09.000Z</time>
      </trkpt>
      <trkpt lat="43.59613" lon="0.54416">
        <ele>179</ele>
        <time>2020-01-12T08:34:11.000Z</time>
      </trkpt>
      <trkpt lat="43.59615" lon="0.54418">
        <ele>178</ele>
        <time>2020-01-12T08:34:13.000Z</time>
      </trkpt>
      <trkpt lat="43.59617" lon="0.5442">
        <ele>178</ele>
        <time>2020-01-12T08:34:15.000Z</time>
      </trkpt>
      <trkpt lat="43.59619" lon="0.5442">
        <ele>178</ele>
        <time>2020-01-12T08:34:17.000Z</time>
      </trkpt>
      <trkpt lat="43.59621" lon="0.54421">
        <ele>178</ele>
        <time>2020-01-12T08:34:19.000Z</time>
      </trkpt>
      <trkpt lat="43.59624" lon="0.54422">
        <ele>177</ele>
        <time>2020-01-12T08:34:21.000Z</time>
      </trkpt>
      <trkpt lat="43.59626" lon="0.54423">
        <ele>177</ele>
        <time>2020-01-12T08:34:23.000Z</time>
      </trkpt>
      <trkpt lat="43.59628" lon="0.54425">
        <ele>177</ele>
        <time>2020-01-12T08:34:25.000Z</time>
      </trkpt>
      <trkpt lat="43.5963" lon="0.54426">
        <ele>176</ele>
        <time>2020-01-12T08:34:27.000Z</time>
      </trkpt>
      <trkpt lat="43.59632" lon="0.54426">
        <ele>176</ele>
        <time>2020-01-12T08:34:29.000Z</time>
      </trkpt>
      <trkpt lat="43.59634" lon="0.54428">
        <ele>176</ele>
        <time>2020-01-12T08:34:31.000Z</time>
      </trkpt>
      <trkpt lat="43.59635" lon="0.54429">
        <ele>175</ele>
        <time>2020-01-12T08:34:33.000Z</time>
      </trkpt>
      <trkpt lat="43.59636" lon="0.5443">
        <ele>175</ele>
        <time>2020-01-12T08:34:35.000Z</time>
      </trkpt>
      <trkpt lat="43.59638" lon="0.54432">
        <ele>175</ele>
        <time>2020-01-12T08:34:37.000Z</time>
      </trkpt>
      <trkpt lat="43.5964" lon="0.54433">
        <ele>175</ele>
        <time>2020-01-12T08:34:39.000Z</time>
      </trkpt>
      <trkpt lat="43.59642" lon="0.54435">
        <ele>174</ele>
        <time>2020-01-12T08:34:41.000Z</time>
      </trkpt>
      <trkpt lat="43.59644" lon="0.54436">
        <ele>174</ele>
        <time>2020-01-12T08:34:43.000Z</time>
      </trkpt>
      <trkpt lat="43.59645" lon="0.54438">
        <ele>174</ele>
        <time>2020-01-12T08:34:45.000Z</time>
      </trkpt>
      <trkpt lat="43.59648" lon="0.54439">
        <ele>174</ele>
        <time>2020-01-12T08:34:47.000Z</time>
      </trkpt>
      <trkpt lat="43.5965" lon="0.5444">
        <ele>173</ele>
        <time>2020-01-12T08:34:49.000Z</time>
      </trkpt>
      <trkpt lat="43.59651" lon="0.54441">
        <ele>173</ele>
        <time>2020-01-12T08:34:51.000Z</time>
      </trkpt>
      <trkpt lat="43.59653" lon="0.54442">
        <ele>173</ele>
        <time>2020-01-12T08:34:53.000Z</time>
      </trkpt>
      <trkpt lat="43.59655" lon="0.54443">
        <ele>173</ele>
        <time>2020-01-12T08:34:55.000Z</time>
      </trkpt>
      <trkpt lat="43.59657" lon="0.54444">
        <ele>172</ele>
        <time>2020-01-12T08:34:57.000Z</time>
      </trkpt>
      <trkpt lat="43.59658" lon="0.54446">
        <ele>172</ele>
        <time>2020-01-12T08:34:59.000Z</time>
      </trkpt>
      <trkpt lat="43.5966" lon="0.54448">
        <ele>172</ele>
        <time>2020-01-12T08:35:01.000Z</time>
      </trkpt>
      <trkpt lat="43.59662" lon="0.5445">
        <ele>171</ele>
        <time>2020-01-12T08:35:03.000Z</time>
      </trkpt>
      <trkpt lat="43.59664" lon="0.54451">
        <ele>171</ele>
        <time>2020-01-12T08:35:05.000Z</time>
      </trkpt>
      <trkpt lat="43.59665" lon="0.54452">
        <ele>171</ele>
        <time>2020-01-12T08:35:07.000Z</time>
      </trkpt>
      <trkpt lat="43.59667" lon="0.54453">
        <ele>171</ele>
        <time>2020-01-12T08:35:09.000Z</time>
      </trkpt>
      <trkpt lat="43.59668" lon="0.54454">
        <ele>171</ele>
        <time>2020-01-12T08:35:11.000Z</time>
      </trkpt>
      <trkpt lat="43.5967" lon="0.54455">
        <ele>170</ele>
        <time>2020-01-12T08:35:13.000Z</time>
      </trkpt>
      <trkpt lat="43.59671" lon="0.54456">
        <ele>170</ele>
        <time>2020-01-12T08:35:15.000Z</time>
      </trkpt>
      <trkpt lat="43.59672" lon="0.54457">
        <ele>170</ele>
        <time>2020-01-12T08:35:17.000Z</time>
      </trkpt>
      <trkpt lat="43.59674" lon="0.54459">
        <ele>170</ele>
        <time>2020-01-12T08:35:19.000Z</time>
      </trkpt>
      <trkpt lat="43.59676" lon="0.5446">
        <ele>169</ele>
        <time>2020-01-12T08:35:21.000Z</time>
      </trkpt>
      <trkpt lat="43.59678" lon="0.54462">
        <ele>169</ele>
        <time>2020-01-12T08:35:23.000Z</time>
      </trkpt>
      <trkpt lat="43.59679" lon="0.54463">
        <ele>169</ele>
        <time>2020-01-12T08:35:25.000Z</time>
      </trkpt>
      <trkpt lat="43.5968" lon="0.54464">
        <ele>169</ele>
        <time>2020-01-12T08:35:27.000Z</time>
      </trkpt>
      <trkpt lat="43.59681" lon="0.54465">
        <ele>169</ele>
        <time>2020-01-12T08:35:29.000Z</time>
      </trkpt>
      <trkpt lat="43.59682" lon="0.54466">
        <ele>168</ele>
        <time>2020-01-12T08:35:31.000Z</time>
      </trkpt>
      <trkpt lat="43.59684" lon="0.54467">
        <ele>168</ele>
        <time>2020-01-12T08:35:33.000Z</time>
      </trkpt>
      <trkpt lat="43.59685" lon="0.54469">
        <ele>168</ele>
        <time>2020-01-12T08:35:35.000Z</time>
      </trkpt>
      <trkpt lat="43.59687" lon="0.54471">
        <ele>168</ele>
        <time>2020-01-12T08:35:37.000Z</time>
      </trkpt>
      <trkpt lat="43.59688" lon="0.54472">
        <ele>167</ele>
        <time>2020-01-12T08:35:39.000Z</time>
      </trkpt>
      <trkpt lat="43.59689" lon="0.54475">
        <ele>167</ele>
        <time>2020-01-12T08:35:41.000Z</time>
      </trkpt>
      <trkpt lat="43.59691" lon="0.54476">
        <ele>167</ele>
        <time>2020-01-12T08:35:43.000Z</time>
      </trkpt>
      <trkpt lat="43.59692" lon="0.54477">
        <ele>167</ele>
        <time>2020-01-12T08:35:45.000Z</time>
      </trkpt>
      <trkpt lat="43.59693" lon="0.54479">
        <ele>167</ele>
        <time>2020-01-12T08:35:47.000Z</time>
      </trkpt>
      <trkpt lat="43.59694" lon="0.5448">
        <ele>166</ele>
        <time>2020-01-12T08:35:49.000Z</time>
      </trkpt>
      <trkpt lat="43.59696" lon="0.54482">
        <ele>166</ele>
        <time>2020-01-12T08:35:51.000Z</time>
      </trkpt>
      <trkpt lat="43.59698" lon="0.54483">
        <ele>166</ele>
        <time>2020-01-12T08:35:53.000Z</time>
      </trkpt>
      <trkpt lat="43.59699" lon="0.54484">
        <ele>166</ele>
        <time>2020-01-12T08:35:55.000Z</time>
      </trkpt>
      <trkpt lat="43.597" lon="0.54485">
        <ele>166</ele>
        <time>2020-01-12T08:35:57.000Z</time>
      </trkpt>
      <trkpt lat="43.59702" lon="0.54487">
        <ele>166</ele>
        <time>2020-01-12T08:35:59.000Z</time>
      </trkpt>
      <trkpt lat="43.59703" lon="0.5449">
        <ele>165</ele>
        <time>2020-01-12T08:36:01.000Z</time>
      </trkpt>
      <trkpt lat="43.59703" lon="0.54492">
        <ele>165</ele>
        <time>2020-01-12T08:36:03.000Z</time>
      </trkpt>
      <trkpt lat="43.59705" lon="0.54494">
        <ele>165</ele>
        <time>2020-01-12T08:36:05.000Z</time>
      </trkpt>
      <trkpt lat="43.59706" lon="0.54496">
        <ele>165</ele>
        <time>2020-01-12T08:36:07.000Z</time>
      </trkpt>
      <trkpt lat="43.59707" lon="0.54498">
        <ele>164</ele>
        <time>2020-01-12T08:36:09.000Z</time>
      </trkpt>
      <trkpt lat="43.59708" lon="0.545">
        <ele>164</ele>
        <time>2020-01-12T08:36:11.000Z</time>
      </trkpt>
      <trkpt lat="43.5971" lon="0.54501">
        <ele>164</ele>
        <time>2020-01-12T08:36:13.000Z</time>
      </trkpt>
      <trkpt lat="43.59711" lon="0.54503">
        <ele>164</ele>
        <time>2020-01-12T08:36:15.000Z</time>
      </trkpt>
      <trkpt lat="43.59712" lon="0.54505">
        <ele>164</ele>
        <time>2020-01-12T08:36:17.000Z</time>
      </trkpt>
      <trkpt lat="43.59713" lon="0.54506">
        <ele>163</ele>
        <time>2020-01-12T08:36:19.000Z</time>
      </trkpt>
      <trkpt lat="43.59715" lon="0.54508">
        <ele>163</ele>
        <time>2020-01-12T08:36:21.000Z</time>
      </trkpt>
      <trkpt lat="43.59715" lon="0.5451">
        <ele>163</ele>
        <time>2020-01-12T08:36:23.000Z</time>
      </trkpt>
      <trkpt lat="43.59717" lon="0.54512">
        <ele>163</ele>
        <time>2020-01-12T08:36:25.000Z</time>
      </trkpt>
      <trkpt lat="43.59717" lon="0.54514">
        <ele>163</ele>
        <time>2020-01-12T08:36:27.000Z</time>
      </trkpt>
      <trkpt lat="43.59719" lon="0.54515">
        <ele>162</ele>
        <time>2020-01-12T08:36:29.000Z</time>
      </trkpt>
      <trkpt lat="43.5972" lon="0.54517">
        <ele>162</ele>
        <time>2020-01-12T08:36:31.000Z</time>
      </trkpt>
      <trkpt lat="43.59721" lon="0.5452">
        <ele>162</ele>
        <time>2020-01-12T08:36:33.000Z</time>
      </trkpt>
      <trkpt lat="43.59722" lon="0.54522">
        <ele>162</ele>
        <time>2020-01-12T08:36:35.000Z</time>
      </trkpt>
      <trkpt lat="43.59724" lon="0.54525">
        <ele>161</ele>
        <time>2020-01-12T08:36:37.000Z</time>
      </trkpt>
      <trkpt lat="43.59725" lon="0.54526">
        <ele>161</ele>
        <time>2020-01-12T08:36:39.000Z</time>
      </trkpt>
      <trkpt lat="43.59727" lon="0.54527">
        <ele>161</ele>
        <time>2020-01-12T08:36:41.000Z</time>
      </trkpt>
      <trkpt lat="43.59728" lon="0.54528">
        <ele>161</ele>
        <time>2020-01-12T08:36:43.000Z</time>
      </trkpt>
      <trkpt lat="43.59729" lon="0.54529">
        <ele>161</ele>
        <time>2020-01-12T08:36:45.000Z</time>
      </trkpt>
      <trkpt lat="43.5973" lon="0.54531">
        <ele>160</ele>
        <time>2020-01-12T08:36:47.000Z</time>
      </trkpt>
      <trkpt lat="43.59728" lon="0.54532">
        <ele>161</ele>
        <time>2020-01-12T08:36:49.000Z</time>
      </trkpt>
      <trkpt lat="43.59727" lon="0.54532">
        <ele>161</ele>
        <time>2020-01-12T08:36:51.000Z</time>
      </trkpt>
      <trkpt lat="43.59726" lon="0.54532">
        <ele>161</ele>
        <time>2020-01-12T08:36:53.000Z</time>
      </trkpt>
      <trkpt lat="43.59726" lon="0.54532">
        <ele>161</ele>
        <time>2020-01-12T08:36:55.000Z</time>
      </trkpt>
      <trkpt lat="43.59725" lon="0.54532">
        <ele>161</ele>
        <time>2020-01-12T08:36:57.000Z</time>
      </trkpt>
      <trkpt lat="43.59725" lon="0.54531">
        <ele>161</ele>
        <time>2020-01-12T08:36:59.000Z</time>
      </trkpt>
      <trkpt lat="43.59725" lon="0.54532">
        <ele>161</ele>
        <time>2020-01-12T08:37:01.000Z</time>
      </trkpt>
      <trkpt lat="43.59725" lon="0.54532">
        <ele>161</ele>
        <time>2020-01-12T08:37:03.000Z</time>
      </trkpt>
      <trkpt lat="43.59726" lon="0.54531">
        <ele>161</ele>
        <time>2020-01-12T08:37:05.000Z</time>
      </trkpt>
      <trkpt lat="43.59725" lon="0.54531">
        <ele>161</ele>
        <time>2020-01-12T08:37:07.000Z</time>
      </trkpt>
      <trkpt lat="43.59726" lon="0.54532">
        <ele>161</ele>
        <time>2020-01-12T08:37:09.000Z</time>
      </trkpt>
      <trkpt lat="43.59727" lon="0.54533">
        <ele>160</ele>
        <time>2020-01-12T08:37:11.000Z</time>
      </trkpt>
      <trkpt lat="43.59728" lon="0.54535">
        <ele>160</ele>
        <time>2020-01-12T08:37:13.000Z</time>
      </trkpt>
      <trkpt lat="43.5973" lon="0.54536">
        <ele>160</ele>
        <time>2020-01-12T08:37:15.000Z</time>
      </trkpt>
      <trkpt lat="43.59731" lon="0.54537">
        <ele>160</ele>
        <time>2020-01-12T08:37:17.000Z</time>
      </trkpt>
      <trkpt lat="43.59732" lon="0.54538">
        <ele>160</ele>
        <time>2020-01-12T08:37:19.000Z</time>
      </trkpt>
      <trkpt lat="43.59733" lon="0.54539">
        <ele>160</ele>
        <time>2020-01-12T08:37:21.000Z</time>
      </trkpt>
      <trkpt lat="43.59735" lon="0.5454">
        <ele>160</ele>
        <time>2020-01-12T08:37:23.000Z</time>
      </trkpt>
      <trkpt lat="43.59737" lon="0.54541">
        <ele>159</ele>
        <time>2020-01-12T08:37:25.000Z</time>
      </trkpt>
      <trkpt lat="43.59738" lon="0.54543">
        <ele>159</ele>
        <time>2020-01-12T08:37:27.000Z</time>
      </trkpt>
      <trkpt lat="43.5974" lon="0.54544">
        <ele>159</ele>
        <time>2020-01-12T08:37:29.000Z</time>
      </trkpt>
      <trkpt lat="43.5974" lon="0.54546">
        <ele>159</ele>
        <time>2020-01-12T08:37:31.000Z</time>
      </trkpt>
      <trkpt lat="43.59741" lon="0.54546">
        <ele>159</ele>
        <time>2020-01-12T08:37:33.000Z</time>
      </trkpt>
      <trkpt lat="43.59741" lon="0.54547">
        <ele>159</ele>
        <time>2020-01-12T08:37:35.000Z</time>
      </trkpt>
      <trkpt lat="43.59741" lon="0.54547">
        <ele>159</ele>
        <time>2020-01-12T08:37:37.000Z</time>
      </trkpt>
      <trkpt lat="43.59741" lon="0.54547">
        <ele>159</ele>
        <time>2020-01-12T08:37:39.000Z</time>
      </trkpt>
      <trkpt lat="43.59741" lon="0.54546">
        <ele>159</ele>
        <time>2020-01-12T08:37:41.000Z</time>
      </trkpt>
      <trkpt lat="43.59741" lon="0.54546">
        <ele>159</ele>
        <time>2020-01-12T08:37:43.000Z</time>
      </trkpt>
      <trkpt lat="43.59741" lon="0.54545">
        <ele>159</ele>
        <time>2020-01-12T08:37:45.000Z</time>
      </trkpt>
      <trkpt lat="43.59741" lon="0.54545">
        <ele>159</ele>
        <time>2020-01-12T08:37:47.000Z</time>
      </trkpt>
      <trkpt lat="43.59742" lon="0.54546">
        <ele>159</ele>
        <time>2020-01-12T08:37:49.000Z</time>
      </trkpt>
      <trkpt lat="43.59744" lon="0.54548">
        <ele>158</ele>
        <time>2020-01-12T08:37:51.000Z</time>
      </trkpt>
      <trkpt lat="43.59745" lon="0.5455">
        <ele>158</ele>
        <time>2020-01-12T08:37:53.000Z</time>
      </trkpt>
      <trkpt lat="43.59746" lon="0.54552">
        <ele>158</ele>
        <time>2020-01-12T08:37:55.000Z</time>
      </trkpt>
      <trkpt lat="43.59748" lon="0.54555">
        <ele>158</ele>
        <time>2020-01-12T08:37:57.000Z</time>
      </trkpt>
      <trkpt lat="43.5975" lon="0.54558">
        <ele>158</ele>
        <time>2020-01-12T08:37:59.000Z</time>
      </trkpt>
      <trkpt lat="43.59753" lon="0.54561">
        <ele>157</ele>
        <time>2020-01-12T08:38:01.000Z</time>
      </trkpt>
      <trkpt lat="43.59755" lon="0.54564">
        <ele>157</ele>
        <time>2020-01-12T08:38:03.000Z</time>
      </trkpt>
      <trkpt lat="43.59757" lon="0.54567">
        <ele>157</ele>
        <time>2020-01-12T08:38:05.000Z</time>
      </trkpt>
      <trkpt lat="43.5976" lon="0.54569">
        <ele>157</ele>
        <time>2020-01-12T08:38:07.000Z</time>
      </trkpt>
      <trkpt lat="43.59762" lon="0.54571">
        <ele>157</ele>
        <time>2020-01-12T08:38:09.000Z</time>
      </trkpt>
      <trkpt lat="43.59764" lon="0.54573">
        <ele>156</ele>
        <time>2020-01-12T08:38:11.000Z</time>
      </trkpt>
      <trkpt lat="43.59766" lon="0.54576">
        <ele>156</ele>
        <time>2020-01-12T08:38:13.000Z</time>
      </trkpt>
      <trkpt lat="43.59768" lon="0.54578">
        <ele>156</ele>
        <time>2020-01-12T08:38:15.000Z</time>
      </trkpt>
      <trkpt lat="43.5977" lon="0.5458">
        <ele>156</ele>
        <time>2020-01-12T08:38:17.000Z</time>
      </trkpt>
      <trkpt lat="43.59772" lon="0.54583">
        <ele>156</ele>
        <time>2020-01-12T08:38:19.000Z</time>
      </trkpt>
      <trkpt lat="43.59774" lon="0.54586">
        <ele>156</ele>
        <time>2020-01-12T08:38:21.000Z</time>
      </trkpt>
      <trkpt lat="43.59776" lon="0.54588">
        <ele>156</ele>
        <time>2020-01-12T08:38:23.000Z</time>
      </trkpt>
      <trkpt lat="43.59778" lon="0.54591">
        <ele>156</ele>
        <time>2020-01-12T08:38:25.000Z</time>
      </trkpt>
      <trkpt lat="43.5978" lon="0.54594">
        <ele>156</ele>
        <time>2020-01-12T08:38:27.000Z</time>
      </trkpt>
      <trkpt lat="43.59782" lon="0.54597">
        <ele>156</ele>
        <time>2020-01-12T08:38:29.000Z</time>
      </trkpt>
      <trkpt lat="43.59784" lon="0.54599">
        <ele>156</ele>
        <time>2020-01-12T08:38:31.000Z</time>
      </trkpt>
      <trkpt lat="43.59786" lon="0.54601">
        <ele>156</ele>
        <time>2020-01-12T08:38:33.000Z</time>
      </trkpt>
      <trkpt lat="43.59788" lon="0.54603">
        <ele>156</ele>
        <time>2020-01-12T08:38:35.000Z</time>
      </trkpt>
      <trkpt lat="43.59791" lon="0.54605">
        <ele>156</ele>
        <time>2020-01-12T08:38:37.000Z</time>
      </trkpt>
      <trkpt lat="43.59794" lon="0.54608">
        <ele>156</ele>
        <time>2020-01-12T08:38:39.000Z</time>
      </trkpt>
      <trkpt lat="43.59796" lon="0.5461">
        <ele>156</ele>
        <time>2020-01-12T08:38:41.000Z</time>
      </trkpt>
      <trkpt lat="43.59798" lon="0.54612">
        <ele>156</ele>
        <time>2020-01-12T08:38:43.000Z</time>
      </trkpt>
      <trkpt lat="43.598" lon="0.54614">
        <ele>156</ele>
        <time>2020-01-12T08:38:45.000Z</time>
      </trkpt>
      <trkpt lat="43.59802" lon="0.54616">
        <ele>156</ele>
        <time>2020-01-12T08:38:47.000Z</time>
      </trkpt>
      <trkpt lat="43.59804" lon="0.54618">
        <ele>156</ele>
        <time>2020-01-12T08:38:49.000Z</time>
      </trkpt>
      <trkpt lat="43.59806" lon="0.5462">
        <ele>156</ele>
        <time>2020-01-12T08:38:51.000Z</time>
      </trkpt>
      <trkpt lat="43.59808" lon="0.54623">
        <ele>156</ele>
        <time>2020-01-12T08:38:53.000Z</time>
      </trkpt>
      <trkpt lat="43.5981" lon="0.54625">
        <ele>156</ele>
        <time>2020-01-12T08:38:55.000Z</time>
      </trkpt>
      <trkpt lat="43.59813" lon="0.54627">
        <ele>156</ele>
        <time>2020-01-12T08:38:57.000Z</time>
      </trkpt>
      <trkpt lat="43.59816" lon="0.54629">
        <ele>156</ele>
        <time>2020-01-12T08:38:59.000Z</time>
      </trkpt>
      <trkpt lat="43.59819" lon="0.54631">
        <ele>156</ele>
        <time>2020-01-12T08:39:01.000Z</time>
      </trkpt>
      <trkpt lat="43.59821" lon="0.54634">
        <ele>156</ele>
        <time>2020-01-12T08:39:03.000Z</time>
      </trkpt>
      <trkpt lat="43.59823" lon="0.54636">
        <ele>156</ele>
        <time>2020-01-12T08:39:05.000Z</time>
      </trkpt>
      <trkpt lat="43.59825" lon="0.54638">
        <ele>156</ele>
        <time>2020-01-12T08:39:07.000Z</time>
      </trkpt>
      <trkpt lat="43.59827" lon="0.5464">
        <ele>156</ele>
        <time>2020-01-12T08:39:09.000Z</time>
      </trkpt>
      <trkpt lat="43.59829" lon="0.54642">
        <ele>156</ele>
        <time>2020-01-12T08:39:11.000Z</time>
      </trkpt>
      <trkpt lat="43.59831" lon="0.54645">
        <ele>157</ele>
        <time>2020-01-12T08:39:13.000Z</time>
      </trkpt>
      <trkpt lat="43.59832" lon="0.54647">
        <ele>157</ele>
        <time>2020-01-12T08:39:15.000Z</time>
      </trkpt>
      <trkpt lat="43.59834" lon="0.5465">
        <ele>157</ele>
        <time>2020-01-12T08:39:17.000Z</time>
      </trkpt>
      <trkpt lat="43.59837" lon="0.54653">
        <ele>157</ele>
        <time>2020-01-12T08:39:19.000Z</time>
      </trkpt>
      <trkpt lat="43.59838" lon="0.54656">
        <ele>157</ele>
        <time>2020-01-12T08:39:21.000Z</time>
      </trkpt>
      <trkpt lat="43.5984" lon="0.54659">
        <ele>157</ele>
        <time>2020-01-12T08:39:23.000Z</time>
      </trkpt>
      <trkpt lat="43.59841" lon="0.54661">
        <ele>158</ele>
        <time>2020-01-12T08:39:25.000Z</time>
      </trkpt>
      <trkpt lat="43.59843" lon="0.54664">
        <ele>158</ele>
        <time>2020-01-12T08:39:27.000Z</time>
      </trkpt>
      <trkpt lat="43.59844" lon="0.54667">
        <ele>158</ele>
        <time>2020-01-12T08:39:29.000Z</time>
      </trkpt>
      <trkpt lat="43.59846" lon="0.5467">
        <ele>158</ele>
        <time>2020-01-12T08:39:31.000Z</time>
      </trkpt>
      <trkpt lat="43.59847" lon="0.54674">
        <ele>158</ele>
        <time>2020-01-12T08:39:33.000Z</time>
      </trkpt>
      <trkpt lat="43.59848" lon="0.54676">
        <ele>158</ele>
        <time>2020-01-12T08:39:35.000Z</time>
      </trkpt>
      <trkpt lat="43.59849" lon="0.5468">
        <ele>159</ele>
        <time>2020-01-12T08:39:37.000Z</time>
      </trkpt>
      <trkpt lat="43.59851" lon="0.54683">
        <ele>159</ele>
        <time>2020-01-12T08:39:39.000Z</time>
      </trkpt>
      <trkpt lat="43.59852" lon="0.54686">
        <ele>159</ele>
        <time>2020-01-12T08:39:41.000Z</time>
      </trkpt>
      <trkpt lat="43.59853" lon="0.5469">
        <ele>159</ele>
        <time>2020-01-12T08:39:43.000Z</time>
      </trkpt>
      <trkpt lat="43.59854" lon="0.54693">
        <ele>159</ele>
        <time>2020-01-12T08:39:45.000Z</time>
      </trkpt>
      <trkpt lat="43.59855" lon="0.54696">
        <ele>159</ele>
        <time>2020-01-12T08:39:47.000Z</time>
      </trkpt>
      <trkpt lat="43.59856" lon="0.54699">
        <ele>160</ele>
        <time>2020-01-12T08:39:49.000Z</time>
      </trkpt>
      <trkpt lat="43.59857" lon="0.54703">
        <ele>160</ele>
        <time>2020-01-12T08:39:51.000Z</time>
      </trkpt>
      <trkpt lat="43.59858" lon="0.54707">
        <ele>160</ele>
        <time>2020-01-12T08:39:53.000Z</time>
      </trkpt>
      <trkpt lat="43.5986" lon="0.5471">
        <ele>160</ele>
        <time>2020-01-12T08:39:55.000Z</time>
      </trkpt>
      <trkpt lat="43.59861" lon="0.54713">
        <ele>161</ele>
        <time>2020-01-12T08:39:57.000Z</time>
      </trkpt>
      <trkpt lat="43.59863" lon="0.54716">
        <ele>161</ele>
        <time>2020-01-12T08:39:59.000Z</time>
      </trkpt>
      <trkpt lat="43.59864" lon="0.54719">
        <ele>161</ele>
        <time>2020-01-12T08:40:01.000Z</time>
      </trkpt>
      <trkpt lat="43.59866" lon="0.54722">
        <ele>162</ele>
        <time>2020-01-12T08:40:03.000Z</time>
      </trkpt>
      <trkpt lat="43.59868" lon="0.54725">
        <ele>162</ele>
        <time>2020-01-12T08:40:05.000Z</time>
      </trkpt>
      <trkpt lat="43.59869" lon="0.54728">
        <ele>162</ele>
        <time>2020-01-12T08:40:07.000Z</time>
      </trkpt>
      <trkpt lat="43.5987" lon="0.54731">
        <ele>163</ele>
        <time>2020-01-12T08:40:09.000Z</time>
      </trkpt>
      <trkpt lat="43.59872" lon="0.54734">
        <ele>163</ele>
        <time>2020-01-12T08:40:11.000Z</time>
      </trkpt>
      <trkpt lat="43.59873" lon="0.54737">
        <ele>163</ele>
        <time>2020-01-12T08:40:13.000Z</time>
      </trkpt>
      <trkpt lat="43.59875" lon="0.5474">
        <ele>164</ele>
        <time>2020-01-12T08:40:15.000Z</time>
      </trkpt>
      <trkpt lat="43.59876" lon="0.54743">
        <ele>164</ele>
        <time>2020-01-12T08:40:17.000Z</time>
      </trkpt>
      <trkpt lat="43.59877" lon="0.54746">
        <ele>164</ele>
        <time>2020-01-12T08:40:19.000Z</time>
      </trkpt>
      <trkpt lat="43.59878" lon="0.54748">
        <ele>164</ele>
        <time>2020-01-12T08:40:21.000Z</time>
      </trkpt>
      <trkpt lat="43.59879" lon="0.54751">
        <ele>164</ele>
        <time>2020-01-12T08:40:23.000Z</time>
      </trkpt>
      <trkpt lat="43.5988" lon="0.54754">
        <ele>165</ele>
        <time>2020-01-12T08:40:25.000Z</time>
      </trkpt>
      <trkpt lat="43.59881" lon="0.54756">
        <ele>165</ele>
        <time>2020-01-12T08:40:27.000Z</time>
      </trkpt>
      <trkpt lat="43.59882" lon="0.54759">
        <ele>165</ele>
        <time>2020-01-12T08:40:29.000Z</time>
      </trkpt>
      <trkpt lat="43.59883" lon="0.54761">
        <ele>165</ele>
        <time>2020-01-12T08:40:31.000Z</time>
      </trkpt>
      <trkpt lat="43.59883" lon="0.54764">
        <ele>165</ele>
        <time>2020-01-12T08:40:33.000Z</time>
      </trkpt>
      <trkpt lat="43.59884" lon="0.54766">
        <ele>166</ele>
        <time>2020-01-12T08:40:35.000Z</time>
      </trkpt>
      <trkpt lat="43.59886" lon="0.54769">
        <ele>166</ele>
        <time>2020-01-12T08:40:37.000Z</time>
      </trkpt>
      <trkpt lat="43.59887" lon="0.54772">
        <ele>166</ele>
        <time>2020-01-12T08:40:39.000Z</time>
      </trkpt>
      <trkpt lat="43.59888" lon="0.54775">
        <ele>166</ele>
        <time>2020-01-12T08:40:41.000Z</time>
      </trkpt>
      <trkpt lat="43.59889" lon="0.54778">
        <ele>167</ele>
        <time>2020-01-12T08:40:43.000Z</time>
      </trkpt>
      <trkpt lat="43.5989" lon="0.5478">
        <ele>167</ele>
        <time>2020-01-12T08:40:45.000Z</time>
      </trkpt>
      <trkpt lat="43.59891" lon="0.54783">
        <ele>167</ele>
        <time>2020-01-12T08:40:47.000Z</time>
      </trkpt>
      <trkpt lat="43.59892" lon="0.54786">
        <ele>167</ele>
        <time>2020-01-12T08:40:49.000Z</time>
      </trkpt>
      <trkpt lat="43.59893" lon="0.54788">
        <ele>168</ele>
        <time>2020-01-12T08:40:51.000Z</time>
      </trkpt>
      <trkpt lat="43.59895" lon="0.54791">
        <ele>168</ele>
        <time>2020-01-12T08:40:53.000Z</time>
      </trkpt>
      <trkpt lat="43.59896" lon="0.54794">
        <ele>168</ele>
        <time>2020-01-12T08:40:55.000Z</time>
      </trkpt>
      <trkpt lat="43.59896" lon="0.54796">
        <ele>168</ele>
        <time>2020-01-12T08:40:57.000Z</time>
      </trkpt>
      <trkpt lat="43.59897" lon="0.54799">
        <ele>168</ele>
        <time>2020-01-12T08:40:59.000Z</time>
      </trkpt>
      <trkpt lat="43.59898" lon="0.54801">
        <ele>169</ele>
        <time>2020-01-12T08:41:01.000Z</time>
      </trkpt>
      <trkpt lat="43.59899" lon="0.54804">
        <ele>169</ele>
        <time>2020-01-12T08:41:03.000Z</time>
      </trkpt>
      <trkpt lat="43.59901" lon="0.54807">
        <ele>169</ele>
        <time>2020-01-12T08:41:05.000Z</time>
      </trkpt>
      <trkpt lat="43.59902" lon="0.54809">
        <ele>169</ele>
        <time>2020-01-12T08:41:07.000Z</time>
      </trkpt>
      <trkpt lat="43.59903" lon="0.54811">
        <ele>169</ele>
        <time>2020-01-12T08:41:09.000Z</time>
      </trkpt>
      <trkpt lat="43.59904" lon="0.54814">
        <ele>170</ele>
        <time>2020-01-12T08:41:11.000Z</time>
      </trkpt>
      <trkpt lat="43.59905" lon="0.54816">
        <ele>170</ele>
        <time>2020-01-12T08:41:13.000Z</time>
      </trkpt>
      <trkpt lat="43.59906" lon="0.54818">
        <ele>170</ele>
        <time>2020-01-12T08:41:15.000Z</time>
      </trkpt>
      <trkpt lat="43.59907" lon="0.54819">
        <ele>170</ele>
        <time>2020-01-12T08:41:17.000Z</time>
      </trkpt>
      <trkpt lat="43.59908" lon="0.54821">
        <ele>171</ele>
        <time>2020-01-12T08:41:19.000Z</time>
      </trkpt>
      <trkpt lat="43.5991" lon="0.54823">
        <ele>171</ele>
        <time>2020-01-12T08:41:21.000Z</time>
      </trkpt>
      <trkpt lat="43.59911" lon="0.54825">
        <ele>171</ele>
        <time>2020-01-12T08:41:23.000Z</time>
      </trkpt>
      <trkpt lat="43.59912" lon="0.54828">
        <ele>171</ele>
        <time>2020-01-12T08:41:25.000Z</time>
      </trkpt>
      <trkpt lat="43.59913" lon="0.5483">
        <ele>171</ele>
        <time>2020-01-12T08:41:27.000Z</time>
      </trkpt>
      <trkpt lat="43.59915" lon="0.54831">
        <ele>172</ele>
        <time>2020-01-12T08:41:29.000Z</time>
      </trkpt>
      <trkpt lat="43.59916" lon="0.54832">
        <ele>172</ele>
        <time>2020-01-12T08:41:31.000Z</time>
      </trkpt>
      <trkpt lat="43.59917" lon="0.54833">
        <ele>172</ele>
        <time>2020-01-12T08:41:33.000Z</time>
      </trkpt>
      <trkpt lat="43.59918" lon="0.54833">
        <ele>172</ele>
        <time>2020-01-12T08:41:35.000Z</time>
      </trkpt>
      <trkpt lat="43.5992" lon="0.54834">
        <ele>172</ele>
        <time>2020-01-12T08:41:37.000Z</time>
      </trkpt>
      <trkpt lat="43.59921" lon="0.54834">
        <ele>173</ele>
        <time>2020-01-12T08:41:39.000Z</time>
      </trkpt>
      <trkpt lat="43.59923" lon="0.54835">
        <ele>173</ele>
        <time>2020-01-12T08:41:41.000Z</time>
      </trkpt>
      <trkpt lat="43.59923" lon="0.54836">
        <ele>173</ele>
        <time>2020-01-12T08:41:43.000Z</time>
      </trkpt>
      <trkpt lat="43.59922" lon="0.54836">
        <ele>173</ele>
        <time>2020-01-12T08:41:45.000Z</time>
      </trkpt>
      <trkpt lat="43.59923" lon="0.54836">
        <ele>173</ele>
        <time>2020-01-12T08:41:47.000Z</time>
      </trkpt>
      <trkpt lat="43.59925" lon="0.54837">
        <ele>173</ele>
        <time>2020-01-12T08:41:49.000Z</time>
      </trkpt>
      <trkpt lat="43.59927" lon="0.54838">
        <ele>173</ele>
        <time>2020-01-12T08:41:51.000Z</time>
      </trkpt>
      <trkpt lat="43.59929" lon="0.54838">
        <ele>174</ele>
        <time>2020-01-12T08:41:53.000Z</time>
      </trkpt>
      <trkpt lat="43.59931" lon="0.54839">
        <ele>174</ele>
        <time>2020-01-12T08:41:55.000Z</time>
      </trkpt>
      <trkpt lat="43.59932" lon="0.5484">
        <ele>174</ele>
        <time>2020-01-12T08:41:57.000Z</time>
      </trkpt>
      <trkpt lat="43.59935" lon="0.54842">
        <ele>174</ele>
        <time>2020-01-12T08:41:59.000Z</time>
      </trkpt>
      <trkpt lat="43.59937" lon="0.54843">
        <ele>175</ele>
        <time>2020-01-12T08:42:01.000Z</time>
      </trkpt>
      <trkpt lat="43.59939" lon="0.54845">
        <ele>175</ele>
        <time>2020-01-12T08:42:03.000Z</time>
      </trkpt>
      <trkpt lat="43.5994" lon="0.54846">
        <ele>175</ele>
        <time>2020-01-12T08:42:05.000Z</time>
      </trkpt>
      <trkpt lat="43.59942" lon="0.54847">
        <ele>175</ele>
        <time>2020-01-12T08:42:07.000Z</time>
      </trkpt>
      <trkpt lat="43.59944" lon="0.54848">
        <ele>175</ele>
        <time>2020-01-12T08:42:09.000Z</time>
      </trkpt>
      <trkpt lat="43.59945" lon="0.54849">
        <ele>175</ele>
        <time>2020-01-12T08:42:11.000Z</time>
      </trkpt>
      <trkpt lat="43.59947" lon="0.54849">
        <ele>176</ele>
        <time>2020-01-12T08:42:13.000Z</time>
      </trkpt>
      <trkpt lat="43.59948" lon="0.5485">
        <ele>176</ele>
        <time>2020-01-12T08:42:15.000Z</time>
      </trkpt>
      <trkpt lat="43.5995" lon="0.54851">
        <ele>176</ele>
        <time>2020-01-12T08:42:17.000Z</time>
      </trkpt>
      <trkpt lat="43.59951" lon="0.54852">
        <ele>176</ele>
        <time>2020-01-12T08:42:19.000Z</time>
      </trkpt>
      <trkpt lat="43.59953" lon="0.54854">
        <ele>176</ele>
        <time>2020-01-12T08:42:21.000Z</time>
      </trkpt>
      <trkpt lat="43.59954" lon="0.54855">
        <ele>176</ele>
        <time>2020-01-12T08:42:23.000Z</time>
      </trkpt>
      <trkpt lat="43.59956" lon="0.54855">
        <ele>176</ele>
        <time>2020-01-12T08:42:25.000Z</time>
      </trkpt>
      <trkpt lat="43.59958" lon="0.54856">
        <ele>177</ele>
        <time>2020-01-12T08:42:27.000Z</time>
      </trkpt>
      <trkpt lat="43.5996" lon="0.54857">
        <ele>177</ele>
        <time>2020-01-12T08:42:29.000Z</time>
      </trkpt>
      <trkpt lat="43.59962" lon="0.5486">
        <ele>177</ele>
        <time>2020-01-12T08:42:31.000Z</time>
      </trkpt>
      <trkpt lat="43.59963" lon="0.54862">
        <ele>177</ele>
        <time>2020-01-12T08:42:33.000Z</time>
      </trkpt>
      <trkpt lat="43.59965" lon="0.54863">
        <ele>177</ele>
        <time>2020-01-12T08:42:35.000Z</time>
      </trkpt>
      <trkpt lat="43.59967" lon="0.54864">
        <ele>178</ele>
        <time>2020-01-12T08:42:37.000Z</time>
      </trkpt>
      <trkpt lat="43.59969" lon="0.54866">
        <ele>178</ele>
        <time>2020-01-12T08:42:39.000Z</time>
      </trkpt>
      <trkpt lat="43.5997" lon="0.54867">
        <ele>178</ele>
        <time>2020-01-12T08:42:41.000Z</time>
      </trkpt>
      <trkpt lat="43.59971" lon="0.54868">
        <ele>178</ele>
        <time>2020-01-12T08:42:43.000Z</time>
      </trkpt>
      <trkpt lat="43.59972" lon="0.5487">
        <ele>178</ele>
        <time>2020-01-12T08:42:45.000Z</time>
      </trkpt>
      <trkpt lat="43.59973" lon="0.5487">
        <ele>178</ele>
        <time>2020-01-12T08:42:47.000Z</time>
      </trkpt>
      <trkpt lat="43.59974" lon="0.5487">
        <ele>178</ele>
        <time>2020-01-12T08:42:49.000Z</time>
      </trkpt>
      <trkpt lat="43.59976" lon="0.54871">
        <ele>178</ele>
        <time>2020-01-12T08:42:51.000Z</time>
      </trkpt>
      <trkpt lat="43.59977" lon="0.54873">
        <ele>179</ele>
        <time>2020-01-12T08:42:53.000Z</time>
      </trkpt>
      <trkpt lat="43.59979" lon="0.54875">
        <ele>179</ele>
        <time>2020-01-12T08:42:55.000Z</time>
      </trkpt>
      <trkpt lat="43.5998" lon="0.54876">
        <ele>179</ele>
        <time>2020-01-12T08:42:57.000Z</time>
      </trkpt>
      <trkpt lat="43.59981" lon="0.54877">
        <ele>179</ele>
        <time>2020-01-12T08:42:59.000Z</time>
      </trkpt>
      <trkpt lat="43.59983" lon="0.54877">
        <ele>179</ele>
        <time>2020-01-12T08:43:01.000Z</time>
      </trkpt>
      <trkpt lat="43.59984" lon="0.54879">
        <ele>179</ele>
        <time>2020-01-12T08:43:03.000Z</time>
      </trkpt>
      <trkpt lat="43.59985" lon="0.54881">
        <ele>179</ele>
        <time>2020-01-12T08:43:05.000Z</time>
      </trkpt>
      <trkpt lat="43.59986" lon="0.54882">
        <ele>180</ele>
        <time>2020-01-12T08:43:07.000Z</time>
      </trkpt>
      <trkpt lat="43.59987" lon="0.54883">
        <ele>180</ele>
        <time>2020-01-12T08:43:09.000Z</time>
      </trkpt>
      <trkpt lat="43.59988" lon="0.54884">
        <ele>180</ele>
        <time>2020-01-12T08:43:11.000Z</time>
      </trkpt>
      <trkpt lat="43.59989" lon="0.54886">
        <ele>180</ele>
        <time>2020-01-12T08:43:13.000Z</time>
      </trkpt>
      <trkpt lat="43.5999" lon="0.54887">
        <ele>180</ele>
        <time>2020-01-12T08:43:15.000Z</time>
      </trkpt>
      <trkpt lat="43.59991" lon="0.54888">
        <ele>180</ele>
        <time>2020-01-12T08:43:17.000Z</time>
      </trkpt>
      <trkpt lat="43.59993" lon="0.54889">
        <ele>180</ele>
        <time>2020-01-12T08:43:19.000Z</time>
      </trkpt>
      <trkpt lat="43.59994" lon="0.5489">
        <ele>181</ele>
        <time>2020-01-12T08:43:21.000Z</time>
      </trkpt>
      <trkpt lat="43.59995" lon="0.54891">
        <ele>181</ele>
        <time>2020-01-12T08:43:23.000Z</time>
      </trkpt>
      <trkpt lat="43.59996" lon="0.54893">
        <ele>181</ele>
        <time>2020-01-12T08:43:25.000Z</time>
      </trkpt>
      <trkpt lat="43.59997" lon="0.54893">
        <ele>181</ele>
        <time>2020-01-12T08:43:27.000Z</time>
      </trkpt>
      <trkpt lat="43.59999" lon="0.54894">
        <ele>181</ele>
        <time>2020-01-12T08:43:29.000Z</time>
      </trkpt>
      <trkpt lat="43.6" lon="0.54896">
        <ele>181</ele>
        <time>2020-01-12T08:43:31.000Z</time>
      </trkpt>
      <trkpt lat="43.60001" lon="0.54897">
        <ele>182</ele>
        <time>2020-01-12T08:43:33.000Z</time>
      </trkpt>
      <trkpt lat="43.60003" lon="0.54899">
        <ele>182</ele>
        <time>2020-01-12T08:43:35.000Z</time>
      </trkpt>
      <trkpt lat="43.60005" lon="0.549">
        <ele>182</ele>
        <time>2020-01-12T08:43:37.000Z</time>
      </trkpt>
      <trkpt lat="43.60006" lon="0.54902">
        <ele>182</ele>
        <time>2020-01-12T08:43:39.000Z</time>
      </trkpt>
      <trkpt lat="43.60008" lon="0.54903">
        <ele>183</ele>
        <time>2020-01-12T08:43:41.000Z</time>
      </trkpt>
      <trkpt lat="43.6001" lon="0.54904">
        <ele>183</ele>
        <time>2020-01-12T08:43:43.000Z</time>
      </trkpt>
      <trkpt lat="43.60012" lon="0.54905">
        <ele>183</ele>
        <time>2020-01-12T08:43:45.000Z</time>
      </trkpt>
      <trkpt lat="43.60013" lon="0.54907">
        <ele>183</ele>
        <time>2020-01-12T08:43:47.000Z</time>
      </trkpt>
      <trkpt lat="43.60014" lon="0.54909">
        <ele>183</ele>
        <time>2020-01-12T08:43:49.000Z</time>
      </trkpt>
      <trkpt lat="43.60016" lon="0.54911">
        <ele>184</ele>
        <time>2020-01-12T08:43:51.000Z</time>
      </trkpt>
      <trkpt lat="43.60017" lon="0.54912">
        <ele>184</ele>
        <time>2020-01-12T08:43:53.000Z</time>
      </trkpt>
      <trkpt lat="43.60018" lon="0.54914">
        <ele>184</ele>
        <time>2020-01-12T08:43:55.000Z</time>
      </trkpt>
      <trkpt lat="43.6002" lon="0.54915">
        <ele>184</ele>
        <time>2020-01-12T08:43:57.000Z</time>
      </trkpt>
      <trkpt lat="43.60022" lon="0.54917">
        <ele>184</ele>
        <time>2020-01-12T08:43:59.000Z</time>
      </trkpt>
      <trkpt lat="43.60023" lon="0.54918">
        <ele>185</ele>
        <time>2020-01-12T08:44:01.000Z</time>
      </trkpt>
      <trkpt lat="43.60025" lon="0.5492">
        <ele>185</ele>
        <time>2020-01-12T08:44:03.000Z</time>
      </trkpt>
      <trkpt lat="43.60025" lon="0.54922">
        <ele>185</ele>
        <time>2020-01-12T08:44:05.000Z</time>
      </trkpt>
      <trkpt lat="43.60027" lon="0.54924">
        <ele>185</ele>
        <time>2020-01-12T08:44:07.000Z</time>
      </trkpt>
      <trkpt lat="43.60028" lon="0.54926">
        <ele>185</ele>
        <time>2020-01-12T08:44:09.000Z</time>
      </trkpt>
      <trkpt lat="43.60027" lon="0.54928">
        <ele>185</ele>
        <time>2020-01-12T08:44:11.000Z</time>
      </trkpt>
      <trkpt lat="43.60027" lon="0.54929">
        <ele>185</ele>
        <time>2020-01-12T08:44:13.000Z</time>
      </trkpt>
      <trkpt lat="43.60027" lon="0.5493">
        <ele>185</ele>
        <time>2020-01-12T08:44:15.000Z</time>
      </trkpt>
      <trkpt lat="43.60027" lon="0.5493">
        <ele>185</ele>
        <time>2020-01-12T08:44:17.000Z</time>
      </trkpt>
      <trkpt lat="43.60027" lon="0.5493">
        <ele>185</ele>
        <time>2020-01-12T08:44:19.000Z</time>
      </trkpt>
      <trkpt lat="43.60027" lon="0.5493">
        <ele>185</ele>
        <time>2020-01-12T08:44:21.000Z</time>
      </trkpt>
      <trkpt lat="43.60026" lon="0.5493">
        <ele>185</ele>
        <time>2020-01-12T08:44:23.000Z</time>
      </trkpt>
      <trkpt lat="43.60026" lon="0.5493">
        <ele>185</ele>
        <time>2020-01-12T08:44:25.000Z</time>
      </trkpt>
      <trkpt lat="43.60027" lon="0.5493">
        <ele>185</ele>
        <time>2020-01-12T08:44:27.000Z</time>
      </trkpt>
      <trkpt lat="43.60028" lon="0.54931">
        <ele>186</ele>
        <time>2020-01-12T08:44:29.000Z</time>
      </trkpt>
      <trkpt lat="43.6003" lon="0.54933">
        <ele>186</ele>
        <time>2020-01-12T08:44:31.000Z</time>
      </trkpt>
      <trkpt lat="43.60029" lon="0.54933">
        <ele>186</ele>
        <time>2020-01-12T08:44:33.000Z</time>
      </trkpt>
      <trkpt lat="43.6003" lon="0.54933">
        <ele>186</ele>
        <time>2020-01-12T08:44:35.000Z</time>
      </trkpt>
      <trkpt lat="43.6003" lon="0.54934">
        <ele>186</ele>
        <time>2020-01-12T08:44:37.000Z</time>
      </trkpt>
      <trkpt lat="43.6003" lon="0.54933">
        <ele>186</ele>
        <time>2020-01-12T08:44:39.000Z</time>
      </trkpt>
      <trkpt lat="43.60029" lon="0.54933">
        <ele>186</ele>
        <time>2020-01-12T08:44:41.000Z</time>
      </trkpt>
      <trkpt lat="43.60029" lon="0.54933">
        <ele>186</ele>
        <time>2020-01-12T08:44:43.000Z</time>
      </trkpt>
      <trkpt lat="43.60029" lon="0.54933">
        <ele>186</ele>
        <time>2020-01-12T08:44:45.000Z</time>
      </trkpt>
      <trkpt lat="43.60029" lon="0.54933">
        <ele>186</ele>
        <time>2020-01-12T08:44:47.000Z</time>
      </trkpt>
      <trkpt lat="43.60028" lon="0.54932">
        <ele>186</ele>
        <time>2020-01-12T08:44:49.000Z</time>
      </trkpt>
      <trkpt lat="43.60028" lon="0.54933">
        <ele>186</ele>
        <time>2020-01-12T08:44:51.000Z</time>
      </trkpt>
      <trkpt lat="43.60028" lon="0.54933">
        <ele>186</ele>
        <time>2020-01-12T08:44:53.000Z</time>
      </trkpt>
      <trkpt lat="43.60028" lon="0.54933">
        <ele>186</ele>
        <time>2020-01-12T08:44:55.000Z</time>
      </trkpt>
      <trkpt lat="43.60027" lon="0.54933">
        <ele>186</ele>
        <time>2020-01-12T08:44:57.000Z</time>
      </trkpt>
      <trkpt lat="43.60027" lon="0.54934">
        <ele>186</ele>
        <time>2020-01-12T08:44:59.000Z</time>
      </trkpt>
      <trkpt lat="43.60027" lon="0.54934">
        <ele>186</ele>
        <time>2020-01-12T08:45:01.000Z</time>
      </trkpt>
      <trkpt lat="43.60028" lon="0.54934">
        <ele>186</ele>
        <time>2020-01-12T08:45:03.000Z</time>
      </trkpt>
      <trkpt lat="43.60028" lon="0.54934">
        <ele>186</ele>
        <time>2020-01-12T08:45:05.000Z</time>
      </trkpt>
      <trkpt lat="43.60028" lon="0.54934">
        <ele>186</ele>
        <time>2020-01-12T08:45:07.000Z</time>
      </trkpt>
      <trkpt lat="43.60029" lon="0.54934">
        <ele>186</ele>
        <time>2020-01-12T08:45:09.000Z</time>
      </trkpt>
      <trkpt lat="43.60031" lon="0.54935">
        <ele>186</ele>
        <time>2020-01-12T08:45:11.000Z</time>
      </trkpt>
      <trkpt lat="43.60032" lon="0.54937">
        <ele>186</ele>
        <time>2020-01-12T08:45:13.000Z</time>
      </trkpt>
      <trkpt lat="43.60034" lon="0.54939">
        <ele>186</ele>
        <time>2020-01-12T08:45:15.000Z</time>
      </trkpt>
      <trkpt lat="43.60036" lon="0.54942">
        <ele>186</ele>
        <time>2020-01-12T08:45:17.000Z</time>
      </trkpt>
      <trkpt lat="43.60038" lon="0.54944">
        <ele>187</ele>
        <time>2020-01-12T08:45:19.000Z</time>
      </trkpt>
      <trkpt lat="43.6004" lon="0.54946">
        <ele>187</ele>
        <time>2020-01-12T08:45:21.000Z</time>
      </trkpt>
      <trkpt lat="43.60042" lon="0.54947">
        <ele>187</ele>
        <time>2020-01-12T08:45:23.000Z</time>
      </trkpt>
      <trkpt lat="43.60044" lon="0.54949">
        <ele>187</ele>
        <time>2020-01-12T08:45:25.000Z</time>
      </trkpt>
      <trkpt lat="43.60046" lon="0.54952">
        <ele>187</ele>
        <time>2020-01-12T08:45:27.000Z</time>
      </trkpt>
      <trkpt lat="43.60048" lon="0.54955">
        <ele>187</ele>
        <time>2020-01-12T08:45:29.000Z</time>
      </trkpt>
      <trkpt lat="43.60049" lon="0.54957">
        <ele>188</ele>
        <time>2020-01-12T08:45:31.000Z</time>
      </trkpt>
      <trkpt lat="43.60051" lon="0.54959">
        <ele>188</ele>
        <time>2020-01-12T08:45:33.000Z</time>
      </trkpt>
      <trkpt lat="43.60053" lon="0.54961">
        <ele>188</ele>
        <time>2020-01-12T08:45:35.000Z</time>
      </trkpt>
      <trkpt lat="43.60055" lon="0.54963">
        <ele>188</ele>
        <time>2020-01-12T08:45:37.000Z</time>
      </trkpt>
      <trkpt lat="43.60056" lon="0.54966">
        <ele>188</ele>
        <time>2020-01-12T08:45:39.000Z</time>
      </trkpt>
      <trkpt lat="43.60058" lon="0.54968">
        <ele>188</ele>
        <time>2020-01-12T08:45:41.000Z</time>
      </trkpt>
      <trkpt lat="43.60061" lon="0.54971">
        <ele>189</ele>
        <time>2020-01-12T08:45:43.000Z</time>
      </trkpt>
      <trkpt lat="43.60063" lon="0.54974">
        <ele>189</ele>
        <time>2020-01-12T08:45:45.000Z</time>
      </trkpt>
      <trkpt lat="43.60066" lon="0.54976">
        <ele>189</ele>
        <time>2020-01-12T08:45:47.000Z</time>
      </trkpt>
      <trkpt lat="43.60068" lon="0.54979">
        <ele>189</ele>
        <time>2020-01-12T08:45:49.000Z</time>
      </trkpt>
      <trkpt lat="43.6007" lon="0.54981">
        <ele>189</ele>
        <time>2020-01-12T08:45:51.000Z</time>
      </trkpt>
      <trkpt lat="43.60072" lon="0.54983">
        <ele>189</ele>
        <time>2020-01-12T08:45:53.000Z</time>
      </trkpt>
      <trkpt lat="43.60075" lon="0.54985">
        <ele>189</ele>
        <time>2020-01-12T08:45:55.000Z</time>
      </trkpt>
      <trkpt lat="43.60077" lon="0.54986">
        <ele>189</ele>
        <time>2020-01-12T08:45:57.000Z</time>
      </trkpt>
      <trkpt lat="43.60078" lon="0.54987">
        <ele>189</ele>
        <time>2020-01-12T08:45:59.000Z</time>
      </trkpt>
      <trkpt lat="43.60081" lon="0.54988">
        <ele>189</ele>
        <time>2020-01-12T08:46:01.000Z</time>
      </trkpt>
      <trkpt lat="43.60083" lon="0.5499">
        <ele>190</ele>
        <time>2020-01-12T08:46:03.000Z</time>
      </trkpt>
      <trkpt lat="43.60085" lon="0.54992">
        <ele>190</ele>
        <time>2020-01-12T08:46:05.000Z</time>
      </trkpt>
      <trkpt lat="43.60088" lon="0.54993">
        <ele>190</ele>
        <time>2020-01-12T08:46:07.000Z</time>
      </trkpt>
      <trkpt lat="43.6009" lon="0.54994">
        <ele>190</ele>
        <time>2020-01-12T08:46:09.000Z</time>
      </trkpt>
      <trkpt lat="43.60093" lon="0.54996">
        <ele>190</ele>
        <time>2020-01-12T08:46:11.000Z</time>
      </trkpt>
      <trkpt lat="43.60095" lon="0.54998">
        <ele>190</ele>
        <time>2020-01-12T08:46:13.000Z</time>
      </trkpt>
      <trkpt lat="43.60098" lon="0.55">
        <ele>190</ele>
        <time>2020-01-12T08:46:15.000Z</time>
      </trkpt>
      <trkpt lat="43.601" lon="0.55001">
        <ele>190</ele>
        <time>2020-01-12T08:46:17.000Z</time>
      </trkpt>
      <trkpt lat="43.60103" lon="0.55003">
        <ele>190</ele>
        <time>2020-01-12T08:46:19.000Z</time>
      </trkpt>
      <trkpt lat="43.60105" lon="0.55005">
        <ele>190</ele>
        <time>2020-01-12T08:46:21.000Z</time>
      </trkpt>
      <trkpt lat="43.60108" lon="0.55005">
        <ele>190</ele>
        <time>2020-01-12T08:46:23.000Z</time>
      </trkpt>
      <trkpt lat="43.6011" lon="0.55007">
        <ele>190</ele>
        <time>2020-01-12T08:46:25.000Z</time>
      </trkpt>
      <trkpt lat="43.60112" lon="0.55009">
        <ele>190</ele>
        <time>2020-01-12T08:46:27.000Z</time>
      </trkpt>
      <trkpt lat="43.60114" lon="0.5501">
        <ele>191</ele>
        <time>2020-01-12T08:46:29.000Z</time>
      </trkpt>
      <trkpt lat="43.60116" lon="0.55012">
        <ele>191</ele>
        <time>2020-01-12T08:46:31.000Z</time>
      </trkpt>
      <trkpt lat="43.60118" lon="0.55013">
        <ele>191</ele>
        <time>2020-01-12T08:46:33.000Z</time>
      </trkpt>
      <trkpt lat="43.6012" lon="0.55014">
        <ele>191</ele>
        <time>2020-01-12T08:46:35.000Z</time>
      </trkpt>
      <trkpt lat="43.60122" lon="0.55015">
        <ele>191</ele>
        <time>2020-01-12T08:46:37.000Z</time>
      </trkpt>
      <trkpt lat="43.60125" lon="0.55016">
        <ele>191</ele>
        <time>2020-01-12T08:46:39.000Z</time>
      </trkpt>
      <trkpt lat="43.60127" lon="0.55017">
        <ele>191</ele>
        <time>2020-01-12T08:46:41.000Z</time>
      </trkpt>
      <trkpt lat="43.6013" lon="0.55018">
        <ele>191</ele>
        <time>2020-01-12T08:46:43.000Z</time>
      </trkpt>
      <trkpt lat="43.60133" lon="0.55019">
        <ele>191</ele>
        <time>2020-01-12T08:46:45.000Z</time>
      </trkpt>
      <trkpt lat="43.60135" lon="0.55019">
        <ele>191</ele>
        <time>2020-01-12T08:46:47.000Z</time>
      </trkpt>
      <trkpt lat="43.60138" lon="0.5502">
        <ele>191</ele>
        <time>2020-01-12T08:46:49.000Z</time>
      </trkpt>
      <trkpt lat="43.6014" lon="0.55021">
        <ele>191</ele>
        <time>2020-01-12T08:46:51.000Z</time>
      </trkpt>
      <trkpt lat="43.60143" lon="0.55022">
        <ele>191</ele>
        <time>2020-01-12T08:46:53.000Z</time>
      </trkpt>
      <trkpt lat="43.60145" lon="0.55023">
        <ele>191</ele>
        <time>2020-01-12T08:46:55.000Z</time>
      </trkpt>
      <trkpt lat="43.60148" lon="0.55024">
        <ele>191</ele>
        <time>2020-01-12T08:46:57.000Z</time>
      </trkpt>
      <trkpt lat="43.6015" lon="0.55025">
        <ele>191</ele>
        <time>2020-01-12T08:46:59.000Z</time>
      </trkpt>
      <trkpt lat="43.60152" lon="0.55026">
        <ele>191</ele>
        <time>2020-01-12T08:47:01.000Z</time>
      </trkpt>
      <trkpt lat="43.60155" lon="0.55027">
        <ele>191</ele>
        <time>2020-01-12T08:47:03.000Z</time>
      </trkpt>
      <trkpt lat="43.60157" lon="0.55028">
        <ele>191</ele>
        <time>2020-01-12T08:47:05.000Z</time>
      </trkpt>
      <trkpt lat="43.60159" lon="0.55028">
        <ele>191</ele>
        <time>2020-01-12T08:47:07.000Z</time>
      </trkpt>
      <trkpt lat="43.60162" lon="0.55028">
        <ele>191</ele>
        <time>2020-01-12T08:47:09.000Z</time>
      </trkpt>
      <trkpt lat="43.60165" lon="0.55029">
        <ele>191</ele>
        <time>2020-01-12T08:47:11.000Z</time>
      </trkpt>
      <trkpt lat="43.60167" lon="0.55029">
        <ele>191</ele>
        <time>2020-01-12T08:47:13.000Z</time>
      </trkpt>
      <trkpt lat="43.60169" lon="0.5503">
        <ele>191</ele>
        <time>2020-01-12T08:47:15.000Z</time>
      </trkpt>
      <trkpt lat="43.60171" lon="0.55031">
        <ele>191</ele>
        <time>2020-01-12T08:47:17.000Z</time>
      </trkpt>
      <trkpt lat="43.60174" lon="0.55032">
        <ele>191</ele>
        <time>2020-01-12T08:47:19.000Z</time>
      </trkpt>
      <trkpt lat="43.60176" lon="0.55032">
        <ele>191</ele>
        <time>2020-01-12T08:47:21.000Z</time>
      </trkpt>
      <trkpt lat="43.60178" lon="0.55034">
        <ele>191</ele>
        <time>2020-01-12T08:47:23.000Z</time>
      </trkpt>
      <trkpt lat="43.6018" lon="0.55034">
        <ele>191</ele>
        <time>2020-01-12T08:47:25.000Z</time>
      </trkpt>
      <trkpt lat="43.60182" lon="0.55036">
        <ele>191</ele>
        <time>2020-01-12T08:47:27.000Z</time>
      </trkpt>
      <trkpt lat="43.60183" lon="0.55037">
        <ele>191</ele>
        <time>2020-01-12T08:47:29.000Z</time>
      </trkpt>
      <trkpt lat="43.60185" lon="0.55037">
        <ele>192</ele>
        <time>2020-01-12T08:47:31.000Z</time>
      </trkpt>
      <trkpt lat="43.60188" lon="0.55038">
        <ele>192</ele>
        <time>2020-01-12T08:47:33.000Z</time>
      </trkpt>
      <trkpt lat="43.6019" lon="0.55038">
        <ele>192</ele>
        <time>2020-01-12T08:47:35.000Z</time>
      </trkpt>
      <trkpt lat="43.60192" lon="0.55039">
        <ele>192</ele>
        <time>2020-01-12T08:47:37.000Z</time>
      </trkpt>
      <trkpt lat="43.60194" lon="0.55039">
        <ele>192</ele>
        <time>2020-01-12T08:47:39.000Z</time>
      </trkpt>
      <trkpt lat="43.60196" lon="0.55041">
        <ele>193</ele>
        <time>2020-01-12T08:47:41.000Z</time>
      </trkpt>
      <trkpt lat="43.60197" lon="0.55042">
        <ele>193</ele>
        <time>2020-01-12T08:47:43.000Z</time>
      </trkpt>
      <trkpt lat="43.60198" lon="0.55043">
        <ele>193</ele>
        <time>2020-01-12T08:47:45.000Z</time>
      </trkpt>
      <trkpt lat="43.60198" lon="0.55043">
        <ele>193</ele>
        <time>2020-01-12T08:47:47.000Z</time>
      </trkpt>
      <trkpt lat="43.60199" lon="0.55044">
        <ele>193</ele>
        <time>2020-01-12T08:47:49.000Z</time>
      </trkpt>
      <trkpt lat="43.60199" lon="0.55044">
        <ele>193</ele>
        <time>2020-01-12T08:47:51.000Z</time>
      </trkpt>
      <trkpt lat="43.60199" lon="0.55044">
        <ele>193</ele>
        <time>2020-01-12T08:47:53.000Z</time>
      </trkpt>
      <trkpt lat="43.60199" lon="0.55044">
        <ele>193</ele>
        <time>2020-01-12T08:47:55.000Z</time>
      </trkpt>
      <trkpt lat="43.602" lon="0.55044">
        <ele>193</ele>
        <time>2020-01-12T08:47:57.000Z</time>
      </trkpt>
      <trkpt lat="43.60199" lon="0.55044">
        <ele>193</ele>
        <time>2020-01-12T08:47:59.000Z</time>
      </trkpt>
      <trkpt lat="43.60199" lon="0.55045">
        <ele>193</ele>
        <time>2020-01-12T08:48:01.000Z</time>
      </trkpt>
      <trkpt lat="43.602" lon="0.55045">
        <ele>193</ele>
        <time>2020-01-12T08:48:03.000Z</time>
      </trkpt>
      <trkpt lat="43.602" lon="0.55046">
        <ele>193</ele>
        <time>2020-01-12T08:48:05.000Z</time>
      </trkpt>
      <trkpt lat="43.602" lon="0.55048">
        <ele>193</ele>
        <time>2020-01-12T08:48:07.000Z</time>
      </trkpt>
      <trkpt lat="43.602" lon="0.55049">
        <ele>193</ele>
        <time>2020-01-12T08:48:09.000Z</time>
      </trkpt>
      <trkpt lat="43.602" lon="0.5505">
        <ele>193</ele>
        <time>2020-01-12T08:48:11.000Z</time>
      </trkpt>
      <trkpt lat="43.60199" lon="0.55051">
        <ele>193</ele>
        <time>2020-01-12T08:48:13.000Z</time>
      </trkpt>
      <trkpt lat="43.60199" lon="0.55051">
        <ele>193</ele>
        <time>2020-01-12T08:48:15.000Z</time>
      </trkpt>
      <trkpt lat="43.60199" lon="0.55049">
        <ele>193</ele>
        <time>2020-01-12T08:48:17.000Z</time>
      </trkpt>
      <trkpt lat="43.602" lon="0.55048">
        <ele>193</ele>
        <time>2020-01-12T08:48:19.000Z</time>
      </trkpt>
      <trkpt lat="43.602" lon="0.55046">
        <ele>193</ele>
        <time>2020-01-12T08:48:21.000Z</time>
      </trkpt>
      <trkpt lat="43.602" lon="0.55046">
        <ele>193</ele>
        <time>2020-01-12T08:48:23.000Z</time>
      </trkpt>
      <trkpt lat="43.602" lon="0.55047">
        <ele>193</ele>
        <time>2020-01-12T08:48:25.000Z</time>
      </trkpt>
      <trkpt lat="43.602" lon="0.55047">
        <ele>193</ele>
        <time>2020-01-12T08:48:27.000Z</time>
      </trkpt>
      <trkpt lat="43.602" lon="0.55047">
        <ele>193</ele>
        <time>2020-01-12T08:48:29.000Z</time>
      </trkpt>
      <trkpt lat="43.60199" lon="0.55046">
        <ele>193</ele>
        <time>2020-01-12T08:48:31.000Z</time>
      </trkpt>
      <trkpt lat="43.60199" lon="0.55044">
        <ele>193</ele>
        <time>2020-01-12T08:48:33.000Z</time>
      </trkpt>
      <trkpt lat="43.60199" lon="0.55043">
        <ele>193</ele>
        <time>2020-01-12T08:48:35.000Z</time>
      </trkpt>
      <trkpt lat="43.60199" lon="0.55042">
        <ele>193</ele>
        <time>2020-01-12T08:48:37.000Z</time>
      </trkpt>
      <trkpt lat="43.60199" lon="0.55042">
        <ele>193</ele>
        <time>2020-01-12T08:48:39.000Z</time>
      </trkpt>
      <trkpt lat="43.60199" lon="0.55041">
        <ele>193</ele>
        <time>2020-01-12T08:48:41.000Z</time>
      </trkpt>
      <trkpt lat="43.60199" lon="0.55041">
        <ele>193</ele>
        <time>2020-01-12T08:48:43.000Z</time>
      </trkpt>
      <trkpt lat="43.60199" lon="0.55041">
        <ele>193</ele>
        <time>2020-01-12T08:48:45.000Z</time>
      </trkpt>
      <trkpt lat="43.60199" lon="0.55041">
        <ele>193</ele>
        <time>2020-01-12T08:48:47.000Z</time>
      </trkpt>
      <trkpt lat="43.60199" lon="0.55041">
        <ele>193</ele>
        <time>2020-01-12T08:48:49.000Z</time>
      </trkpt>
      <trkpt lat="43.60199" lon="0.55042">
        <ele>193</ele>
        <time>2020-01-12T08:48:51.000Z</time>
      </trkpt>
      <trkpt lat="43.60199" lon="0.55041">
        <ele>193</ele>
        <time>2020-01-12T08:48:53.000Z</time>
      </trkpt>
      <trkpt lat="43.60199" lon="0.55041">
        <ele>193</ele>
        <time>2020-01-12T08:48:55.000Z</time>
      </trkpt>
      <trkpt lat="43.60199" lon="0.55041">
        <ele>193</ele>
        <time>2020-01-12T08:48:57.000Z</time>
      </trkpt>
      <trkpt lat="43.60199" lon="0.55041">
        <ele>193</ele>
        <time>2020-01-12T08:48:59.000Z</time>
      </trkpt>
      <trkpt lat="43.60199" lon="0.55041">
        <ele>193</ele>
        <time>2020-01-12T08:49:01.000Z</time>
      </trkpt>
      <trkpt lat="43.60199" lon="0.55042">
        <ele>193</ele>
        <time>2020-01-12T08:49:03.000Z</time>
      </trkpt>
      <trkpt lat="43.60199" lon="0.55041">
        <ele>193</ele>
        <time>2020-01-12T08:49:05.000Z</time>
      </trkpt>
      <trkpt lat="43.60199" lon="0.55041">
        <ele>193</ele>
        <time>2020-01-12T08:49:07.000Z</time>
      </trkpt>
      <trkpt lat="43.60199" lon="0.55041">
        <ele>193</ele>
        <time>2020-01-12T08:49:09.000Z</time>
      </trkpt>
      <trkpt lat="43.60199" lon="0.55041">
        <ele>193</ele>
        <time>2020-01-12T08:49:11.000Z</time>
      </trkpt>
      <trkpt lat="43.60199" lon="0.5504">
        <ele>193</ele>
        <time>2020-01-12T08:49:13.000Z</time>
      </trkpt>
      <trkpt lat="43.60199" lon="0.5504">
        <ele>193</ele>
        <time>2020-01-12T08:49:15.000Z</time>
      </trkpt>
      <trkpt lat="43.60199" lon="0.5504">
        <ele>193</ele>
        <time>2020-01-12T08:49:17.000Z</time>
      </trkpt>
      <trkpt lat="43.60199" lon="0.5504">
        <ele>193</ele>
        <time>2020-01-12T08:49:19.000Z</time>
      </trkpt>
      <trkpt lat="43.60199" lon="0.5504">
        <ele>193</ele>
        <time>2020-01-12T08:49:21.000Z</time>
      </trkpt>
      <trkpt lat="43.60199" lon="0.55039">
        <ele>193</ele>
        <time>2020-01-12T08:49:23.000Z</time>
      </trkpt>
      <trkpt lat="43.60199" lon="0.55039">
        <ele>193</ele>
        <time>2020-01-12T08:49:25.000Z</time>
      </trkpt>
      <trkpt lat="43.60199" lon="0.55039">
        <ele>193</ele>
        <time>2020-01-12T08:49:27.000Z</time>
      </trkpt>
      <trkpt lat="43.60199" lon="0.55039">
        <ele>193</ele>
        <time>2020-01-12T08:49:29.000Z</time>
      </trkpt>
      <trkpt lat="43.60199" lon="0.55039">
        <ele>193</ele>
        <time>2020-01-12T08:49:31.000Z</time>
      </trkpt>
      <trkpt lat="43.60199" lon="0.55039">
        <ele>193</ele>
        <time>2020-01-12T08:49:33.000Z</time>
      </trkpt>
      <trkpt lat="43.60199" lon="0.55039">
        <ele>193</ele>
        <time>2020-01-12T08:49:35.000Z</time>
      </trkpt>
      <trkpt lat="43.60199" lon="0.55039">
        <ele>193</ele>
        <time>2020-01-12T08:49:37.000Z</time>
      </trkpt>
      <trkpt lat="43.60198" lon="0.55039">
        <ele>193</ele>
        <time>2020-01-12T08:49:39.000Z</time>
      </trkpt>
      <trkpt lat="43.60198" lon="0.55039">
        <ele>193</ele>
        <time>2020-01-12T08:49:41.000Z</time>
      </trkpt>
      <trkpt lat="43.60197" lon="0.55039">
        <ele>193</ele>
        <time>2020-01-12T08:49:43.000Z</time>
      </trkpt>
      <trkpt lat="43.60198" lon="0.55039">
        <ele>193</ele>
        <time>2020-01-12T08:49:45.000Z</time>
      </trkpt>
      <trkpt lat="43.60198" lon="0.55039">
        <ele>193</ele>
        <time>2020-01-12T08:49:47.000Z</time>
      </trkpt>
      <trkpt lat="43.60198" lon="0.55039">
        <ele>193</ele>
        <time>2020-01-12T08:49:49.000Z</time>
      </trkpt>
      <trkpt lat="43.60198" lon="0.55039">
        <ele>193</ele>
        <time>2020-01-12T08:49:51.000Z</time>
      </trkpt>
      <trkpt lat="43.60197" lon="0.55039">
        <ele>193</ele>
        <time>2020-01-12T08:49:53.000Z</time>
      </trkpt>
      <trkpt lat="43.60198" lon="0.5504">
        <ele>193</ele>
        <time>2020-01-12T08:49:55.000Z</time>
      </trkpt>
      <trkpt lat="43.60198" lon="0.5504">
        <ele>193</ele>
        <time>2020-01-12T08:49:57.000Z</time>
      </trkpt>
      <trkpt lat="43.60198" lon="0.55039">
        <ele>193</ele>
        <time>2020-01-12T08:49:59.000Z</time>
      </trkpt>
      <trkpt lat="43.60198" lon="0.55038">
        <ele>193</ele>
        <time>2020-01-12T08:50:01.000Z</time>
      </trkpt>
      <trkpt lat="43.60199" lon="0.55038">
        <ele>193</ele>
        <time>2020-01-12T08:50:03.000Z</time>
      </trkpt>
      <trkpt lat="43.60198" lon="0.55038">
        <ele>193</ele>
        <time>2020-01-12T08:50:05.000Z</time>
      </trkpt>
      <trkpt lat="43.60198" lon="0.55037">
        <ele>193</ele>
        <time>2020-01-12T08:50:07.000Z</time>
      </trkpt>
      <trkpt lat="43.60198" lon="0.55036">
        <ele>193</ele>
        <time>2020-01-12T08:50:09.000Z</time>
      </trkpt>
      <trkpt lat="43.60198" lon="0.55036">
        <ele>193</ele>
        <time>2020-01-12T08:50:11.000Z</time>
      </trkpt>
      <trkpt lat="43.60198" lon="0.55037">
        <ele>193</ele>
        <time>2020-01-12T08:50:13.000Z</time>
      </trkpt>
      <trkpt lat="43.60198" lon="0.55037">
        <ele>193</ele>
        <time>2020-01-12T08:50:15.000Z</time>
      </trkpt>
      <trkpt lat="43.60199" lon="0.55037">
        <ele>193</ele>
        <time>2020-01-12T08:50:17.000Z</time>
      </trkpt>
      <trkpt lat="43.60199" lon="0.55038">
        <ele>193</ele>
        <time>2020-01-12T08:50:19.000Z</time>
      </trkpt>
      <trkpt lat="43.60199" lon="0.55038">
        <ele>193</ele>
        <time>2020-01-12T08:50:21.000Z</time>
      </trkpt>
      <trkpt lat="43.60199" lon="0.55038">
        <ele>193</ele>
        <time>2020-01-12T08:50:23.000Z</time>
      </trkpt>
      <trkpt lat="43.602" lon="0.55038">
        <ele>193</ele>
        <time>2020-01-12T08:50:25.000Z</time>
      </trkpt>
      <trkpt lat="43.602" lon="0.55038">
        <ele>193</ele>
        <time>2020-01-12T08:50:27.000Z</time>
      </trkpt>
      <trkpt lat="43.602" lon="0.55038">
        <ele>193</ele>
        <time>2020-01-12T08:50:29.000Z</time>
      </trkpt>
      <trkpt lat="43.602" lon="0.55038">
        <ele>193</ele>
        <time>2020-01-12T08:50:31.000Z</time>
      </trkpt>
      <trkpt lat="43.602" lon="0.55038">
        <ele>193</ele>
        <time>2020-01-12T08:50:33.000Z</time>
      </trkpt>
      <trkpt lat="43.60201" lon="0.55039">
        <ele>193</ele>
        <time>2020-01-12T08:50:35.000Z</time>
      </trkpt>
      <trkpt lat="43.60201" lon="0.5504">
        <ele>193</ele>
        <time>2020-01-12T08:50:37.000Z</time>
      </trkpt>
      <trkpt lat="43.60201" lon="0.55041">
        <ele>193</ele>
        <time>2020-01-12T08:50:39.000Z</time>
      </trkpt>
      <trkpt lat="43.60202" lon="0.55042">
        <ele>193</ele>
        <time>2020-01-12T08:50:41.000Z</time>
      </trkpt>
      <trkpt lat="43.60202" lon="0.55042">
        <ele>193</ele>
        <time>2020-01-12T08:50:43.000Z</time>
      </trkpt>
      <trkpt lat="43.60202" lon="0.55042">
        <ele>193</ele>
        <time>2020-01-12T08:50:45.000Z</time>
      </trkpt>
      <trkpt lat="43.60202" lon="0.55042">
        <ele>193</ele>
        <time>2020-01-12T08:50:47.000Z</time>
      </trkpt>
      <trkpt lat="43.60202" lon="0.55043">
        <ele>193</ele>
        <time>2020-01-12T08:50:49.000Z</time>
      </trkpt>
      <trkpt lat="43.60202" lon="0.55043">
        <ele>193</ele>
        <time>2020-01-12T08:50:51.000Z</time>
      </trkpt>
      <trkpt lat="43.60202" lon="0.55043">
        <ele>193</ele>
        <time>2020-01-12T08:50:53.000Z</time>
      </trkpt>
      <trkpt lat="43.60202" lon="0.55043">
        <ele>193</ele>
        <time>2020-01-12T08:50:55.000Z</time>
      </trkpt>
      <trkpt lat="43.60202" lon="0.55044">
        <ele>193</ele>
        <time>2020-01-12T08:50:57.000Z</time>
      </trkpt>
      <trkpt lat="43.60202" lon="0.55044">
        <ele>193</ele>
        <time>2020-01-12T08:50:59.000Z</time>
      </trkpt>
      <trkpt lat="43.60202" lon="0.55044">
        <ele>193</ele>
        <time>2020-01-12T08:51:01.000Z</time>
      </trkpt>
      <trkpt lat="43.60202" lon="0.55044">
        <ele>193</ele>
        <time>2020-01-12T08:51:03.000Z</time>
      </trkpt>
      <trkpt lat="43.60203" lon="0.55044">
        <ele>193</ele>
        <time>2020-01-12T08:51:05.000Z</time>
      </trkpt>
      <trkpt lat="43.60203" lon="0.55044">
        <ele>193</ele>
        <time>2020-01-12T08:51:07.000Z</time>
      </trkpt>
      <trkpt lat="43.60203" lon="0.55044">
        <ele>193</ele>
        <time>2020-01-12T08:51:09.000Z</time>
      </trkpt>
      <trkpt lat="43.60203" lon="0.55044">
        <ele>193</ele>
        <time>2020-01-12T08:51:11.000Z</time>
      </trkpt>
      <trkpt lat="43.60204" lon="0.55044">
        <ele>194</ele>
        <time>2020-01-12T08:51:13.000Z</time>
      </trkpt>
      <trkpt lat="43.60204" lon="0.55044">
        <ele>194</ele>
        <time>2020-01-12T08:51:15.000Z</time>
      </trkpt>
      <trkpt lat="43.60204" lon="0.55045">
        <ele>194</ele>
        <time>2020-01-12T08:51:17.000Z</time>
      </trkpt>
      <trkpt lat="43.60205" lon="0.55045">
        <ele>194</ele>
        <time>2020-01-12T08:51:19.000Z</time>
      </trkpt>
      <trkpt lat="43.60205" lon="0.55045">
        <ele>194</ele>
        <time>2020-01-12T08:51:21.000Z</time>
      </trkpt>
      <trkpt lat="43.60205" lon="0.55045">
        <ele>194</ele>
        <time>2020-01-12T08:51:23.000Z</time>
      </trkpt>
      <trkpt lat="43.60205" lon="0.55044">
        <ele>194</ele>
        <time>2020-01-12T08:51:25.000Z</time>
      </trkpt>
      <trkpt lat="43.60205" lon="0.55044">
        <ele>194</ele>
        <time>2020-01-12T08:51:27.000Z</time>
      </trkpt>
      <trkpt lat="43.60205" lon="0.55044">
        <ele>194</ele>
        <time>2020-01-12T08:51:29.000Z</time>
      </trkpt>
      <trkpt lat="43.60204" lon="0.55043">
        <ele>194</ele>
        <time>2020-01-12T08:51:31.000Z</time>
      </trkpt>
      <trkpt lat="43.60205" lon="0.55043">
        <ele>194</ele>
        <time>2020-01-12T08:51:33.000Z</time>
      </trkpt>
      <trkpt lat="43.60204" lon="0.55043">
        <ele>194</ele>
        <time>2020-01-12T08:51:35.000Z</time>
      </trkpt>
      <trkpt lat="43.60204" lon="0.55043">
        <ele>194</ele>
        <time>2020-01-12T08:51:37.000Z</time>
      </trkpt>
      <trkpt lat="43.60204" lon="0.55043">
        <ele>194</ele>
        <time>2020-01-12T08:51:39.000Z</time>
      </trkpt>
      <trkpt lat="43.60204" lon="0.55043">
        <ele>194</ele>
        <time>2020-01-12T08:51:41.000Z</time>
      </trkpt>
      <trkpt lat="43.60203" lon="0.55043">
        <ele>193</ele>
        <time>2020-01-12T08:51:43.000Z</time>
      </trkpt>
      <trkpt lat="43.60203" lon="0.55043">
        <ele>193</ele>
        <time>2020-01-12T08:51:45.000Z</time>
      </trkpt>
      <trkpt lat="43.60203" lon="0.55043">
        <ele>193</ele>
        <time>2020-01-12T08:51:47.000Z</time>
      </trkpt>
      <trkpt lat="43.60202" lon="0.55043">
        <ele>193</ele>
        <time>2020-01-12T08:51:49.000Z</time>
      </trkpt>
      <trkpt lat="43.60203" lon="0.55043">
        <ele>193</ele>
        <time>2020-01-12T08:51:51.000Z</time>
      </trkpt>
      <trkpt lat="43.60202" lon="0.55043">
        <ele>193</ele>
        <time>2020-01-12T08:51:53.000Z</time>
      </trkpt>
      <trkpt lat="43.60202" lon="0.55043">
        <ele>193</ele>
        <time>2020-01-12T08:51:55.000Z</time>
      </trkpt>
      <trkpt lat="43.60202" lon="0.55043">
        <ele>193</ele>
        <time>2020-01-12T08:51:57.000Z</time>
      </trkpt>
      <trkpt lat="43.60202" lon="0.55043">
        <ele>193</ele>
        <time>2020-01-12T08:51:59.000Z</time>
      </trkpt>
      <trkpt lat="43.60201" lon="0.55044">
        <ele>193</ele>
        <time>2020-01-12T08:52:01.000Z</time>
      </trkpt>
      <trkpt lat="43.60201" lon="0.55044">
        <ele>193</ele>
        <time>2020-01-12T08:52:03.000Z</time>
      </trkpt>
      <trkpt lat="43.60201" lon="0.55044">
        <ele>193</ele>
        <time>2020-01-12T08:52:05.000Z</time>
      </trkpt>
      <trkpt lat="43.60201" lon="0.55044">
        <ele>193</ele>
        <time>2020-01-12T08:52:07.000Z</time>
      </trkpt>
      <trkpt lat="43.60201" lon="0.55044">
        <ele>193</ele>
        <time>2020-01-12T08:52:09.000Z</time>
      </trkpt>
      <trkpt lat="43.60201" lon="0.55045">
        <ele>193</ele>
        <time>2020-01-12T08:52:11.000Z</time>
      </trkpt>
      <trkpt lat="43.60201" lon="0.55044">
        <ele>193</ele>
        <time>2020-01-12T08:52:13.000Z</time>
      </trkpt>
      <trkpt lat="43.60201" lon="0.55043">
        <ele>193</ele>
        <time>2020-01-12T08:52:15.000Z</time>
      </trkpt>
      <trkpt lat="43.602" lon="0.55044">
        <ele>193</ele>
        <time>2020-01-12T08:52:17.000Z</time>
      </trkpt>
      <trkpt lat="43.602" lon="0.55044">
        <ele>193</ele>
        <time>2020-01-12T08:52:19.000Z</time>
      </trkpt>
      <trkpt lat="43.602" lon="0.55044">
        <ele>193</ele>
        <time>2020-01-12T08:52:21.000Z</time>
      </trkpt>
      <trkpt lat="43.602" lon="0.55044">
        <ele>193</ele>
        <time>2020-01-12T08:52:23.000Z</time>
      </trkpt>
      <trkpt lat="43.602" lon="0.55044">
        <ele>193</ele>
        <time>2020-01-12T08:52:25.000Z</time>
      </trkpt>
      <trkpt lat="43.602" lon="0.55043">
        <ele>193</ele>
        <time>2020-01-12T08:52:27.000Z</time>
      </trkpt>
      <trkpt lat="43.602" lon="0.55042">
        <ele>193</ele>
        <time>2020-01-12T08:52:29.000Z</time>
      </trkpt>
      <trkpt lat="43.60199" lon="0.55042">
        <ele>193</ele>
        <time>2020-01-12T08:52:31.000Z</time>
      </trkpt>
      <trkpt lat="43.60199" lon="0.55042">
        <ele>193</ele>
        <time>2020-01-12T08:52:33.000Z</time>
      </trkpt>
      <trkpt lat="43.60199" lon="0.55042">
        <ele>193</ele>
        <time>2020-01-12T08:52:35.000Z</time>
      </trkpt>
      <trkpt lat="43.60199" lon="0.55042">
        <ele>193</ele>
        <time>2020-01-12T08:52:37.000Z</time>
      </trkpt>
      <trkpt lat="43.60199" lon="0.55042">
        <ele>193</ele>
        <time>2020-01-12T08:52:39.000Z</time>
      </trkpt>
      <trkpt lat="43.60199" lon="0.55043">
        <ele>193</ele>
        <time>2020-01-12T08:52:41.000Z</time>
      </trkpt>
      <trkpt lat="43.602" lon="0.55044">
        <ele>193</ele>
        <time>2020-01-12T08:52:43.000Z</time>
      </trkpt>
      <trkpt lat="43.60201" lon="0.55045">
        <ele>193</ele>
        <time>2020-01-12T08:52:45.000Z</time>
      </trkpt>
      <trkpt lat="43.60203" lon="0.55045">
        <ele>193</ele>
        <time>2020-01-12T08:52:47.000Z</time>
      </trkpt>
      <trkpt lat="43.60204" lon="0.55046">
        <ele>194</ele>
        <time>2020-01-12T08:52:49.000Z</time>
      </trkpt>
      <trkpt lat="43.60206" lon="0.55046">
        <ele>194</ele>
        <time>2020-01-12T08:52:51.000Z</time>
      </trkpt>
      <trkpt lat="43.60208" lon="0.55046">
        <ele>194</ele>
        <time>2020-01-12T08:52:53.000Z</time>
      </trkpt>
      <trkpt lat="43.60211" lon="0.55045">
        <ele>194</ele>
        <time>2020-01-12T08:52:55.000Z</time>
      </trkpt>
      <trkpt lat="43.60214" lon="0.55044">
        <ele>195</ele>
        <time>2020-01-12T08:52:57.000Z</time>
      </trkpt>
      <trkpt lat="43.60217" lon="0.55043">
        <ele>195</ele>
        <time>2020-01-12T08:52:59.000Z</time>
      </trkpt>
      <trkpt lat="43.60219" lon="0.55041">
        <ele>195</ele>
        <time>2020-01-12T08:53:01.000Z</time>
      </trkpt>
      <trkpt lat="43.60221" lon="0.5504">
        <ele>195</ele>
        <time>2020-01-12T08:53:03.000Z</time>
      </trkpt>
      <trkpt lat="43.60223" lon="0.55037">
        <ele>195</ele>
        <time>2020-01-12T08:53:05.000Z</time>
      </trkpt>
      <trkpt lat="43.60225" lon="0.55036">
        <ele>195</ele>
        <time>2020-01-12T08:53:07.000Z</time>
      </trkpt>
      <trkpt lat="43.60226" lon="0.55035">
        <ele>195</ele>
        <time>2020-01-12T08:53:09.000Z</time>
      </trkpt>
      <trkpt lat="43.60228" lon="0.55033">
        <ele>195</ele>
        <time>2020-01-12T08:53:11.000Z</time>
      </trkpt>
      <trkpt lat="43.6023" lon="0.55031">
        <ele>196</ele>
        <time>2020-01-12T08:53:13.000Z</time>
      </trkpt>
      <trkpt lat="43.60233" lon="0.55031">
        <ele>196</ele>
        <time>2020-01-12T08:53:15.000Z</time>
      </trkpt>
      <trkpt lat="43.60235" lon="0.5503">
        <ele>196</ele>
        <time>2020-01-12T08:53:17.000Z</time>
      </trkpt>
      <trkpt lat="43.60237" lon="0.5503">
        <ele>196</ele>
        <time>2020-01-12T08:53:19.000Z</time>
      </trkpt>
      <trkpt lat="43.60238" lon="0.5503">
        <ele>196</ele>
        <time>2020-01-12T08:53:21.000Z</time>
      </trkpt>
      <trkpt lat="43.60238" lon="0.5503">
        <ele>196</ele>
        <time>2020-01-12T08:53:23.000Z</time>
      </trkpt>
      <trkpt lat="43.60239" lon="0.5503">
        <ele>196</ele>
        <time>2020-01-12T08:53:25.000Z</time>
      </trkpt>
      <trkpt lat="43.60239" lon="0.5503">
        <ele>196</ele>
        <time>2020-01-12T08:53:27.000Z</time>
      </trkpt>
      <trkpt lat="43.6024" lon="0.5503">
        <ele>196</ele>
        <time>2020-01-12T08:53:29.000Z</time>
      </trkpt>
      <trkpt lat="43.6024" lon="0.5503">
        <ele>197</ele>
        <time>2020-01-12T08:53:31.000Z</time>
      </trkpt>
      <trkpt lat="43.60239" lon="0.5503">
        <ele>196</ele>
        <time>2020-01-12T08:53:33.000Z</time>
      </trkpt>
      <trkpt lat="43.60239" lon="0.5503">
        <ele>196</ele>
        <time>2020-01-12T08:53:35.000Z</time>
      </trkpt>
      <trkpt lat="43.60238" lon="0.5503">
        <ele>196</ele>
        <time>2020-01-12T08:53:37.000Z</time>
      </trkpt>
      <trkpt lat="43.60238" lon="0.5503">
        <ele>196</ele>
        <time>2020-01-12T08:53:39.000Z</time>
      </trkpt>
      <trkpt lat="43.60238" lon="0.5503">
        <ele>196</ele>
        <time>2020-01-12T08:53:41.000Z</time>
      </trkpt>
      <trkpt lat="43.60237" lon="0.5503">
        <ele>196</ele>
        <time>2020-01-12T08:53:43.000Z</time>
      </trkpt>
      <trkpt lat="43.60236" lon="0.5503">
        <ele>196</ele>
        <time>2020-01-12T08:53:45.000Z</time>
      </trkpt>
      <trkpt lat="43.60236" lon="0.55031">
        <ele>196</ele>
        <time>2020-01-12T08:53:47.000Z</time>
      </trkpt>
      <trkpt lat="43.60236" lon="0.5503">
        <ele>196</ele>
        <time>2020-01-12T08:53:49.000Z</time>
      </trkpt>
      <trkpt lat="43.60236" lon="0.5503">
        <ele>196</ele>
        <time>2020-01-12T08:53:51.000Z</time>
      </trkpt>
      <trkpt lat="43.60235" lon="0.55031">
        <ele>196</ele>
        <time>2020-01-12T08:53:53.000Z</time>
      </trkpt>
      <trkpt lat="43.60234" lon="0.55031">
        <ele>196</ele>
        <time>2020-01-12T08:53:55.000Z</time>
      </trkpt>
      <trkpt lat="43.60234" lon="0.55031">
        <ele>196</ele>
        <time>2020-01-12T08:53:57.000Z</time>
      </trkpt>
      <trkpt lat="43.60234" lon="0.55032">
        <ele>196</ele>
        <time>2020-01-12T08:53:59.000Z</time>
      </trkpt>
      <trkpt lat="43.60234" lon="0.55033">
        <ele>196</ele>
        <time>2020-01-12T08:54:01.000Z</time>
      </trkpt>
      <trkpt lat="43.60234" lon="0.55033">
        <ele>196</ele>
        <time>2020-01-12T08:54:03.000Z</time>
      </trkpt>
      <trkpt lat="43.60234" lon="0.55033">
        <ele>196</ele>
        <time>2020-01-12T08:54:05.000Z</time>
      </trkpt>
      <trkpt lat="43.60234" lon="0.55033">
        <ele>196</ele>
        <time>2020-01-12T08:54:07.000Z</time>
      </trkpt>
      <trkpt lat="43.60235" lon="0.55033">
        <ele>196</ele>
        <time>2020-01-12T08:54:09.000Z</time>
      </trkpt>
      <trkpt lat="43.60235" lon="0.55032">
        <ele>196</ele>
        <time>2020-01-12T08:54:11.000Z</time>
      </trkpt>
      <trkpt lat="43.60235" lon="0.55031">
        <ele>196</ele>
        <time>2020-01-12T08:54:13.000Z</time>
      </trkpt>
      <trkpt lat="43.60236" lon="0.55031">
        <ele>196</ele>
        <time>2020-01-12T08:54:15.000Z</time>
      </trkpt>
      <trkpt lat="43.60238" lon="0.55029">
        <ele>196</ele>
        <time>2020-01-12T08:54:17.000Z</time>
      </trkpt>
      <trkpt lat="43.6024" lon="0.55028">
        <ele>196</ele>
        <time>2020-01-12T08:54:19.000Z</time>
      </trkpt>
      <trkpt lat="43.6024" lon="0.55028">
        <ele>196</ele>
        <time>2020-01-12T08:54:21.000Z</time>
      </trkpt>
      <trkpt lat="43.60242" lon="0.55027">
        <ele>197</ele>
        <time>2020-01-12T08:54:23.000Z</time>
      </trkpt>
      <trkpt lat="43.60244" lon="0.55027">
        <ele>197</ele>
        <time>2020-01-12T08:54:25.000Z</time>
      </trkpt>
      <trkpt lat="43.60245" lon="0.55025">
        <ele>197</ele>
        <time>2020-01-12T08:54:27.000Z</time>
      </trkpt>
      <trkpt lat="43.60247" lon="0.55024">
        <ele>197</ele>
        <time>2020-01-12T08:54:29.000Z</time>
      </trkpt>
      <trkpt lat="43.6025" lon="0.55023">
        <ele>197</ele>
        <time>2020-01-12T08:54:31.000Z</time>
      </trkpt>
      <trkpt lat="43.60252" lon="0.55023">
        <ele>198</ele>
        <time>2020-01-12T08:54:33.000Z</time>
      </trkpt>
      <trkpt lat="43.60254" lon="0.55022">
        <ele>198</ele>
        <time>2020-01-12T08:54:35.000Z</time>
      </trkpt>
      <trkpt lat="43.60256" lon="0.55022">
        <ele>198</ele>
        <time>2020-01-12T08:54:37.000Z</time>
      </trkpt>
      <trkpt lat="43.60258" lon="0.55021">
        <ele>198</ele>
        <time>2020-01-12T08:54:39.000Z</time>
      </trkpt>
      <trkpt lat="43.6026" lon="0.5502">
        <ele>199</ele>
        <time>2020-01-12T08:54:41.000Z</time>
      </trkpt>
      <trkpt lat="43.60261" lon="0.5502">
        <ele>199</ele>
        <time>2020-01-12T08:54:43.000Z</time>
      </trkpt>
      <trkpt lat="43.60263" lon="0.55021">
        <ele>199</ele>
        <time>2020-01-12T08:54:45.000Z</time>
      </trkpt>
      <trkpt lat="43.60265" lon="0.55022">
        <ele>199</ele>
        <time>2020-01-12T08:54:47.000Z</time>
      </trkpt>
      <trkpt lat="43.60266" lon="0.55023">
        <ele>199</ele>
        <time>2020-01-12T08:54:49.000Z</time>
      </trkpt>
      <trkpt lat="43.60269" lon="0.55025">
        <ele>200</ele>
        <time>2020-01-12T08:54:51.000Z</time>
      </trkpt>
      <trkpt lat="43.60271" lon="0.55028">
        <ele>200</ele>
        <time>2020-01-12T08:54:53.000Z</time>
      </trkpt>
      <trkpt lat="43.60273" lon="0.55029">
        <ele>200</ele>
        <time>2020-01-12T08:54:55.000Z</time>
      </trkpt>
      <trkpt lat="43.60274" lon="0.55031">
        <ele>200</ele>
        <time>2020-01-12T08:54:57.000Z</time>
      </trkpt>
      <trkpt lat="43.60276" lon="0.55033">
        <ele>201</ele>
        <time>2020-01-12T08:54:59.000Z</time>
      </trkpt>
      <trkpt lat="43.60278" lon="0.55034">
        <ele>201</ele>
        <time>2020-01-12T08:55:01.000Z</time>
      </trkpt>
      <trkpt lat="43.6028" lon="0.55035">
        <ele>201</ele>
        <time>2020-01-12T08:55:03.000Z</time>
      </trkpt>
      <trkpt lat="43.60281" lon="0.55036">
        <ele>201</ele>
        <time>2020-01-12T08:55:05.000Z</time>
      </trkpt>
      <trkpt lat="43.60283" lon="0.55038">
        <ele>202</ele>
        <time>2020-01-12T08:55:07.000Z</time>
      </trkpt>
      <trkpt lat="43.60284" lon="0.55039">
        <ele>202</ele>
        <time>2020-01-12T08:55:09.000Z</time>
      </trkpt>
      <trkpt lat="43.60285" lon="0.5504">
        <ele>202</ele>
        <time>2020-01-12T08:55:11.000Z</time>
      </trkpt>
      <trkpt lat="43.60286" lon="0.55042">
        <ele>202</ele>
        <time>2020-01-12T08:55:13.000Z</time>
      </trkpt>
      <trkpt lat="43.60288" lon="0.55044">
        <ele>202</ele>
        <time>2020-01-12T08:55:15.000Z</time>
      </trkpt>
      <trkpt lat="43.60289" lon="0.55046">
        <ele>202</ele>
        <time>2020-01-12T08:55:17.000Z</time>
      </trkpt>
      <trkpt lat="43.6029" lon="0.55048">
        <ele>203</ele>
        <time>2020-01-12T08:55:19.000Z</time>
      </trkpt>
      <trkpt lat="43.60292" lon="0.55049">
        <ele>203</ele>
        <time>2020-01-12T08:55:21.000Z</time>
      </trkpt>
      <trkpt lat="43.60293" lon="0.55051">
        <ele>203</ele>
        <time>2020-01-12T08:55:23.000Z</time>
      </trkpt>
      <trkpt lat="43.60294" lon="0.55053">
        <ele>203</ele>
        <time>2020-01-12T08:55:25.000Z</time>
      </trkpt>
      <trkpt lat="43.60296" lon="0.55055">
        <ele>203</ele>
        <time>2020-01-12T08:55:27.000Z</time>
      </trkpt>
      <trkpt lat="43.60297" lon="0.55056">
        <ele>203</ele>
        <time>2020-01-12T08:55:29.000Z</time>
      </trkpt>
      <trkpt lat="43.60298" lon="0.55058">
        <ele>203</ele>
        <time>2020-01-12T08:55:31.000Z</time>
      </trkpt>
      <trkpt lat="43.60299" lon="0.55059">
        <ele>203</ele>
        <time>2020-01-12T08:55:33.000Z</time>
      </trkpt>
      <trkpt lat="43.603" lon="0.55061">
        <ele>203</ele>
        <time>2020-01-12T08:55:35.000Z</time>
      </trkpt>
      <trkpt lat="43.60301" lon="0.55064">
        <ele>203</ele>
        <time>2020-01-12T08:55:37.000Z</time>
      </trkpt>
      <trkpt lat="43.60303" lon="0.55065">
        <ele>203</ele>
        <time>2020-01-12T08:55:39.000Z</time>
      </trkpt>
      <trkpt lat="43.60305" lon="0.55066">
        <ele>204</ele>
        <time>2020-01-12T08:55:41.000Z</time>
      </trkpt>
      <trkpt lat="43.60306" lon="0.55067">
        <ele>204</ele>
        <time>2020-01-12T08:55:43.000Z</time>
      </trkpt>
      <trkpt lat="43.60307" lon="0.55069">
        <ele>204</ele>
        <time>2020-01-12T08:55:45.000Z</time>
      </trkpt>
      <trkpt lat="43.60308" lon="0.55071">
        <ele>204</ele>
        <time>2020-01-12T08:55:47.000Z</time>
      </trkpt>
      <trkpt lat="43.60309" lon="0.55072">
        <ele>204</ele>
        <time>2020-01-12T08:55:49.000Z</time>
      </trkpt>
      <trkpt lat="43.60311" lon="0.55074">
        <ele>204</ele>
        <time>2020-01-12T08:55:51.000Z</time>
      </trkpt>
      <trkpt lat="43.60312" lon="0.55075">
        <ele>204</ele>
        <time>2020-01-12T08:55:53.000Z</time>
      </trkpt>
      <trkpt lat="43.60314" lon="0.55077">
        <ele>204</ele>
        <time>2020-01-12T08:55:55.000Z</time>
      </trkpt>
      <trkpt lat="43.60315" lon="0.55079">
        <ele>204</ele>
        <time>2020-01-12T08:55:57.000Z</time>
      </trkpt>
      <trkpt lat="43.60317" lon="0.55079">
        <ele>205</ele>
        <time>2020-01-12T08:55:59.000Z</time>
      </trkpt>
      <trkpt lat="43.60318" lon="0.55079">
        <ele>205</ele>
        <time>2020-01-12T08:56:01.000Z</time>
      </trkpt>
      <trkpt lat="43.60319" lon="0.55079">
        <ele>205</ele>
        <time>2020-01-12T08:56:03.000Z</time>
      </trkpt>
      <trkpt lat="43.6032" lon="0.55078">
        <ele>205</ele>
        <time>2020-01-12T08:56:05.000Z</time>
      </trkpt>
      <trkpt lat="43.60322" lon="0.55077">
        <ele>205</ele>
        <time>2020-01-12T08:56:07.000Z</time>
      </trkpt>
      <trkpt lat="43.60323" lon="0.55076">
        <ele>205</ele>
        <time>2020-01-12T08:56:09.000Z</time>
      </trkpt>
      <trkpt lat="43.60324" lon="0.55074">
        <ele>206</ele>
        <time>2020-01-12T08:56:11.000Z</time>
      </trkpt>
      <trkpt lat="43.60325" lon="0.55072">
        <ele>206</ele>
        <time>2020-01-12T08:56:13.000Z</time>
      </trkpt>
      <trkpt lat="43.60326" lon="0.55069">
        <ele>206</ele>
        <time>2020-01-12T08:56:15.000Z</time>
      </trkpt>
      <trkpt lat="43.60327" lon="0.55067">
        <ele>206</ele>
        <time>2020-01-12T08:56:17.000Z</time>
      </trkpt>
      <trkpt lat="43.60327" lon="0.55065">
        <ele>206</ele>
        <time>2020-01-12T08:56:19.000Z</time>
      </trkpt>
      <trkpt lat="43.60328" lon="0.55063">
        <ele>207</ele>
        <time>2020-01-12T08:56:21.000Z</time>
      </trkpt>
      <trkpt lat="43.60329" lon="0.55061">
        <ele>207</ele>
        <time>2020-01-12T08:56:23.000Z</time>
      </trkpt>
      <trkpt lat="43.6033" lon="0.5506">
        <ele>207</ele>
        <time>2020-01-12T08:56:25.000Z</time>
      </trkpt>
      <trkpt lat="43.60331" lon="0.55057">
        <ele>207</ele>
        <time>2020-01-12T08:56:27.000Z</time>
      </trkpt>
      <trkpt lat="43.60331" lon="0.55054">
        <ele>207</ele>
        <time>2020-01-12T08:56:29.000Z</time>
      </trkpt>
      <trkpt lat="43.60332" lon="0.55051">
        <ele>208</ele>
        <time>2020-01-12T08:56:31.000Z</time>
      </trkpt>
      <trkpt lat="43.60332" lon="0.55048">
        <ele>208</ele>
        <time>2020-01-12T08:56:33.000Z</time>
      </trkpt>
      <trkpt lat="43.60333" lon="0.55046">
        <ele>208</ele>
        <time>2020-01-12T08:56:35.000Z</time>
      </trkpt>
      <trkpt lat="43.60333" lon="0.55043">
        <ele>208</ele>
        <time>2020-01-12T08:56:37.000Z</time>
      </trkpt>
      <trkpt lat="43.60334" lon="0.5504">
        <ele>208</ele>
        <time>2020-01-12T08:56:39.000Z</time>
      </trkpt>
      <trkpt lat="43.60335" lon="0.55037">
        <ele>208</ele>
        <time>2020-01-12T08:56:41.000Z</time>
      </trkpt>
      <trkpt lat="43.60336" lon="0.55035">
        <ele>208</ele>
        <time>2020-01-12T08:56:43.000Z</time>
      </trkpt>
      <trkpt lat="43.60337" lon="0.55032">
        <ele>208</ele>
        <time>2020-01-12T08:56:45.000Z</time>
      </trkpt>
      <trkpt lat="43.60338" lon="0.55029">
        <ele>208</ele>
        <time>2020-01-12T08:56:47.000Z</time>
      </trkpt>
      <trkpt lat="43.60339" lon="0.55027">
        <ele>209</ele>
        <time>2020-01-12T08:56:49.000Z</time>
      </trkpt>
      <trkpt lat="43.60339" lon="0.55024">
        <ele>209</ele>
        <time>2020-01-12T08:56:51.000Z</time>
      </trkpt>
      <trkpt lat="43.60341" lon="0.55021">
        <ele>209</ele>
        <time>2020-01-12T08:56:53.000Z</time>
      </trkpt>
      <trkpt lat="43.60342" lon="0.55019">
        <ele>209</ele>
        <time>2020-01-12T08:56:55.000Z</time>
      </trkpt>
      <trkpt lat="43.60344" lon="0.55017">
        <ele>210</ele>
        <time>2020-01-12T08:56:57.000Z</time>
      </trkpt>
      <trkpt lat="43.60346" lon="0.55015">
        <ele>210</ele>
        <time>2020-01-12T08:56:59.000Z</time>
      </trkpt>
      <trkpt lat="43.60348" lon="0.55014">
        <ele>210</ele>
        <time>2020-01-12T08:57:01.000Z</time>
      </trkpt>
      <trkpt lat="43.6035" lon="0.55012">
        <ele>211</ele>
        <time>2020-01-12T08:57:03.000Z</time>
      </trkpt>
      <trkpt lat="43.60352" lon="0.55011">
        <ele>211</ele>
        <time>2020-01-12T08:57:05.000Z</time>
      </trkpt>
      <trkpt lat="43.60354" lon="0.55009">
        <ele>211</ele>
        <time>2020-01-12T08:57:07.000Z</time>
      </trkpt>
      <trkpt lat="43.60356" lon="0.55007">
        <ele>211</ele>
        <time>2020-01-12T08:57:09.000Z</time>
      </trkpt>
      <trkpt lat="43.60358" lon="0.55006">
        <ele>211</ele>
        <time>2020-01-12T08:57:11.000Z</time>
      </trkpt>
      <trkpt lat="43.6036" lon="0.55005">
        <ele>211</ele>
        <time>2020-01-12T08:57:13.000Z</time>
      </trkpt>
      <trkpt lat="43.60362" lon="0.55003">
        <ele>211</ele>
        <time>2020-01-12T08:57:15.000Z</time>
      </trkpt>
      <trkpt lat="43.60364" lon="0.55002">
        <ele>211</ele>
        <time>2020-01-12T08:57:17.000Z</time>
      </trkpt>
      <trkpt lat="43.60366" lon="0.55001">
        <ele>212</ele>
        <time>2020-01-12T08:57:19.000Z</time>
      </trkpt>
      <trkpt lat="43.60367" lon="0.54999">
        <ele>212</ele>
        <time>2020-01-12T08:57:21.000Z</time>
      </trkpt>
      <trkpt lat="43.60369" lon="0.54998">
        <ele>212</ele>
        <time>2020-01-12T08:57:23.000Z</time>
      </trkpt>
      <trkpt lat="43.6037" lon="0.54996">
        <ele>212</ele>
        <time>2020-01-12T08:57:25.000Z</time>
      </trkpt>
      <trkpt lat="43.60372" lon="0.54995">
        <ele>212</ele>
        <time>2020-01-12T08:57:27.000Z</time>
      </trkpt>
      <trkpt lat="43.60373" lon="0.54993">
        <ele>212</ele>
        <time>2020-01-12T08:57:29.000Z</time>
      </trkpt>
      <trkpt lat="43.60374" lon="0.54992">
        <ele>212</ele>
        <time>2020-01-12T08:57:31.000Z</time>
      </trkpt>
      <trkpt lat="43.60375" lon="0.5499">
        <ele>212</ele>
        <time>2020-01-12T08:57:33.000Z</time>
      </trkpt>
      <trkpt lat="43.60376" lon="0.54989">
        <ele>212</ele>
        <time>2020-01-12T08:57:35.000Z</time>
      </trkpt>
      <trkpt lat="43.60377" lon="0.54987">
        <ele>212</ele>
        <time>2020-01-12T08:57:37.000Z</time>
      </trkpt>
      <trkpt lat="43.60378" lon="0.54986">
        <ele>212</ele>
        <time>2020-01-12T08:57:39.000Z</time>
      </trkpt>
      <trkpt lat="43.60379" lon="0.54985">
        <ele>212</ele>
        <time>2020-01-12T08:57:41.000Z</time>
      </trkpt>
      <trkpt lat="43.60379" lon="0.54984">
        <ele>212</ele>
        <time>2020-01-12T08:57:43.000Z</time>
      </trkpt>
      <trkpt lat="43.60379" lon="0.54983">
        <ele>212</ele>
        <time>2020-01-12T08:57:45.000Z</time>
      </trkpt>
      <trkpt lat="43.60379" lon="0.54983">
        <ele>212</ele>
        <time>2020-01-12T08:57:47.000Z</time>
      </trkpt>
      <trkpt lat="43.60379" lon="0.54983">
        <ele>212</ele>
        <time>2020-01-12T08:57:49.000Z</time>
      </trkpt>
      <trkpt lat="43.60379" lon="0.54983">
        <ele>212</ele>
        <time>2020-01-12T08:57:51.000Z</time>
      </trkpt>
      <trkpt lat="43.60379" lon="0.54982">
        <ele>212</ele>
        <time>2020-01-12T08:57:53.000Z</time>
      </trkpt>
      <trkpt lat="43.60379" lon="0.54982">
        <ele>212</ele>
        <time>2020-01-12T08:57:55.000Z</time>
      </trkpt>
      <trkpt lat="43.60379" lon="0.54981">
        <ele>212</ele>
        <time>2020-01-12T08:57:57.000Z</time>
      </trkpt>
      <trkpt lat="43.6038" lon="0.5498">
        <ele>212</ele>
        <time>2020-01-12T08:57:59.000Z</time>
      </trkpt>
      <trkpt lat="43.60382" lon="0.54979">
        <ele>212</ele>
        <time>2020-01-12T08:58:01.000Z</time>
      </trkpt>
      <trkpt lat="43.60383" lon="0.54977">
        <ele>213</ele>
        <time>2020-01-12T08:58:03.000Z</time>
      </trkpt>
      <trkpt lat="43.60385" lon="0.54976">
        <ele>213</ele>
        <time>2020-01-12T08:58:05.000Z</time>
      </trkpt>
      <trkpt lat="43.60386" lon="0.54975">
        <ele>213</ele>
        <time>2020-01-12T08:58:07.000Z</time>
      </trkpt>
      <trkpt lat="43.60387" lon="0.54975">
        <ele>213</ele>
        <time>2020-01-12T08:58:09.000Z</time>
      </trkpt>
      <trkpt lat="43.60387" lon="0.54975">
        <ele>213</ele>
        <time>2020-01-12T08:58:11.000Z</time>
      </trkpt>
      <trkpt lat="43.60387" lon="0.54975">
        <ele>213</ele>
        <time>2020-01-12T08:58:13.000Z</time>
      </trkpt>
      <trkpt lat="43.60387" lon="0.54975">
        <ele>213</ele>
        <time>2020-01-12T08:58:15.000Z</time>
      </trkpt>
      <trkpt lat="43.60387" lon="0.54975">
        <ele>213</ele>
        <time>2020-01-12T08:58:17.000Z</time>
      </trkpt>
      <trkpt lat="43.60387" lon="0.54976">
        <ele>213</ele>
        <time>2020-01-12T08:58:19.000Z</time>
      </trkpt>
      <trkpt lat="43.60387" lon="0.54976">
        <ele>213</ele>
        <time>2020-01-12T08:58:21.000Z</time>
      </trkpt>
      <trkpt lat="43.60387" lon="0.54975">
        <ele>213</ele>
        <time>2020-01-12T08:58:23.000Z</time>
      </trkpt>
      <trkpt lat="43.60387" lon="0.54975">
        <ele>213</ele>
        <time>2020-01-12T08:58:25.000Z</time>
      </trkpt>
      <trkpt lat="43.60387" lon="0.54975">
        <ele>213</ele>
        <time>2020-01-12T08:58:27.000Z</time>
      </trkpt>
      <trkpt lat="43.60386" lon="0.54976">
        <ele>213</ele>
        <time>2020-01-12T08:58:29.000Z</time>
      </trkpt>
      <trkpt lat="43.60386" lon="0.54975">
        <ele>213</ele>
        <time>2020-01-12T08:58:31.000Z</time>
      </trkpt>
      <trkpt lat="43.60386" lon="0.54975">
        <ele>213</ele>
        <time>2020-01-12T08:58:33.000Z</time>
      </trkpt>
      <trkpt lat="43.60386" lon="0.54976">
        <ele>213</ele>
        <time>2020-01-12T08:58:35.000Z</time>
      </trkpt>
      <trkpt lat="43.60386" lon="0.54976">
        <ele>213</ele>
        <time>2020-01-12T08:58:37.000Z</time>
      </trkpt>
      <trkpt lat="43.60386" lon="0.54976">
        <ele>213</ele>
        <time>2020-01-12T08:58:39.000Z</time>
      </trkpt>
      <trkpt lat="43.60386" lon="0.54976">
        <ele>213</ele>
        <time>2020-01-12T08:58:41.000Z</time>
      </trkpt>
      <trkpt lat="43.60386" lon="0.54976">
        <ele>213</ele>
        <time>2020-01-12T08:58:43.000Z</time>
      </trkpt>
      <trkpt lat="43.60386" lon="0.54976">
        <ele>213</ele>
        <time>2020-01-12T08:58:45.000Z</time>
      </trkpt>
      <trkpt lat="43.60385" lon="0.54975">
        <ele>213</ele>
        <time>2020-01-12T08:58:47.000Z</time>
      </trkpt>
      <trkpt lat="43.60385" lon="0.54973">
        <ele>213</ele>
        <time>2020-01-12T08:58:49.000Z</time>
      </trkpt>
      <trkpt lat="43.60385" lon="0.54972">
        <ele>213</ele>
        <time>2020-01-12T08:58:51.000Z</time>
      </trkpt>
      <trkpt lat="43.60385" lon="0.5497">
        <ele>213</ele>
        <time>2020-01-12T08:58:53.000Z</time>
      </trkpt>
      <trkpt lat="43.60386" lon="0.54968">
        <ele>213</ele>
        <time>2020-01-12T08:58:55.000Z</time>
      </trkpt>
      <trkpt lat="43.60386" lon="0.54966">
        <ele>213</ele>
        <time>2020-01-12T08:58:57.000Z</time>
      </trkpt>
      <trkpt lat="43.60387" lon="0.54964">
        <ele>213</ele>
        <time>2020-01-12T08:58:59.000Z</time>
      </trkpt>
      <trkpt lat="43.60387" lon="0.54963">
        <ele>213</ele>
        <time>2020-01-12T08:59:01.000Z</time>
      </trkpt>
      <trkpt lat="43.60387" lon="0.54961">
        <ele>213</ele>
        <time>2020-01-12T08:59:03.000Z</time>
      </trkpt>
      <trkpt lat="43.60387" lon="0.5496">
        <ele>213</ele>
        <time>2020-01-12T08:59:05.000Z</time>
      </trkpt>
      <trkpt lat="43.60388" lon="0.54959">
        <ele>213</ele>
        <time>2020-01-12T08:59:07.000Z</time>
      </trkpt>
      <trkpt lat="43.60388" lon="0.54958">
        <ele>213</ele>
        <time>2020-01-12T08:59:09.000Z</time>
      </trkpt>
      <trkpt lat="43.60388" lon="0.54957">
        <ele>213</ele>
        <time>2020-01-12T08:59:11.000Z</time>
      </trkpt>
      <trkpt lat="43.60389" lon="0.54956">
        <ele>213</ele>
        <time>2020-01-12T08:59:13.000Z</time>
      </trkpt>
      <trkpt lat="43.60388" lon="0.54954">
        <ele>213</ele>
        <time>2020-01-12T08:59:15.000Z</time>
      </trkpt>
      <trkpt lat="43.60387" lon="0.54951">
        <ele>213</ele>
        <time>2020-01-12T08:59:17.000Z</time>
      </trkpt>
      <trkpt lat="43.60386" lon="0.54949">
        <ele>213</ele>
        <time>2020-01-12T08:59:19.000Z</time>
      </trkpt>
      <trkpt lat="43.60385" lon="0.54946">
        <ele>213</ele>
        <time>2020-01-12T08:59:21.000Z</time>
      </trkpt>
      <trkpt lat="43.60385" lon="0.54943">
        <ele>213</ele>
        <time>2020-01-12T08:59:23.000Z</time>
      </trkpt>
      <trkpt lat="43.60384" lon="0.5494">
        <ele>213</ele>
        <time>2020-01-12T08:59:25.000Z</time>
      </trkpt>
      <trkpt lat="43.60383" lon="0.54937">
        <ele>213</ele>
        <time>2020-01-12T08:59:27.000Z</time>
      </trkpt>
      <trkpt lat="43.60382" lon="0.54935">
        <ele>213</ele>
        <time>2020-01-12T08:59:29.000Z</time>
      </trkpt>
      <trkpt lat="43.60381" lon="0.54933">
        <ele>213</ele>
        <time>2020-01-12T08:59:31.000Z</time>
      </trkpt>
      <trkpt lat="43.6038" lon="0.54932">
        <ele>213</ele>
        <time>2020-01-12T08:59:33.000Z</time>
      </trkpt>
      <trkpt lat="43.60378" lon="0.54931">
        <ele>213</ele>
        <time>2020-01-12T08:59:35.000Z</time>
      </trkpt>
      <trkpt lat="43.60376" lon="0.5493">
        <ele>213</ele>
        <time>2020-01-12T08:59:37.000Z</time>
      </trkpt>
      <trkpt lat="43.60375" lon="0.54929">
        <ele>213</ele>
        <time>2020-01-12T08:59:39.000Z</time>
      </trkpt>
      <trkpt lat="43.60373" lon="0.54929">
        <ele>213</ele>
        <time>2020-01-12T08:59:41.000Z</time>
      </trkpt>
      <trkpt lat="43.60372" lon="0.54928">
        <ele>213</ele>
        <time>2020-01-12T08:59:43.000Z</time>
      </trkpt>
      <trkpt lat="43.6037" lon="0.54927">
        <ele>213</ele>
        <time>2020-01-12T08:59:45.000Z</time>
      </trkpt>
      <trkpt lat="43.60368" lon="0.54926">
        <ele>213</ele>
        <time>2020-01-12T08:59:47.000Z</time>
      </trkpt>
      <trkpt lat="43.60367" lon="0.54925">
        <ele>213</ele>
        <time>2020-01-12T08:59:49.000Z</time>
      </trkpt>
      <trkpt lat="43.60366" lon="0.54924">
        <ele>213</ele>
        <time>2020-01-12T08:59:51.000Z</time>
      </trkpt>
      <trkpt lat="43.60364" lon="0.54923">
        <ele>213</ele>
        <time>2020-01-12T08:59:53.000Z</time>
      </trkpt>
      <trkpt lat="43.60363" lon="0.54922">
        <ele>213</ele>
        <time>2020-01-12T08:59:55.000Z</time>
      </trkpt>
      <trkpt lat="43.60362" lon="0.54921">
        <ele>213</ele>
        <time>2020-01-12T08:59:57.000Z</time>
      </trkpt>
      <trkpt lat="43.60362" lon="0.5492">
        <ele>213</ele>
        <time>2020-01-12T08:59:59.000Z</time>
      </trkpt>
      <trkpt lat="43.60362" lon="0.5492">
        <ele>213</ele>
        <time>2020-01-12T09:00:01.000Z</time>
      </trkpt>
      <trkpt lat="43.60363" lon="0.5492">
        <ele>213</ele>
        <time>2020-01-12T09:00:03.000Z</time>
      </trkpt>
      <trkpt lat="43.60363" lon="0.54919">
        <ele>213</ele>
        <time>2020-01-12T09:00:05.000Z</time>
      </trkpt>
      <trkpt lat="43.60363" lon="0.54919">
        <ele>213</ele>
        <time>2020-01-12T09:00:07.000Z</time>
      </trkpt>
      <trkpt lat="43.60363" lon="0.54919">
        <ele>213</ele>
        <time>2020-01-12T09:00:09.000Z</time>
      </trkpt>
      <trkpt lat="43.60364" lon="0.54919">
        <ele>213</ele>
        <time>2020-01-12T09:00:11.000Z</time>
      </trkpt>
      <trkpt lat="43.60364" lon="0.5492">
        <ele>213</ele>
        <time>2020-01-12T09:00:13.000Z</time>
      </trkpt>
      <trkpt lat="43.60364" lon="0.54919">
        <ele>213</ele>
        <time>2020-01-12T09:00:15.000Z</time>
      </trkpt>
      <trkpt lat="43.60363" lon="0.54917">
        <ele>213</ele>
        <time>2020-01-12T09:00:17.000Z</time>
      </trkpt>
      <trkpt lat="43.60362" lon="0.54915">
        <ele>213</ele>
        <time>2020-01-12T09:00:19.000Z</time>
      </trkpt>
      <trkpt lat="43.60361" lon="0.54913">
        <ele>213</ele>
        <time>2020-01-12T09:00:21.000Z</time>
      </trkpt>
      <trkpt lat="43.60361" lon="0.54912">
        <ele>213</ele>
        <time>2020-01-12T09:00:23.000Z</time>
      </trkpt>
      <trkpt lat="43.60361" lon="0.54911">
        <ele>213</ele>
        <time>2020-01-12T09:00:25.000Z</time>
      </trkpt>
      <trkpt lat="43.60361" lon="0.54911">
        <ele>213</ele>
        <time>2020-01-12T09:00:27.000Z</time>
      </trkpt>
      <trkpt lat="43.60361" lon="0.54911">
        <ele>213</ele>
        <time>2020-01-12T09:00:29.000Z</time>
      </trkpt>
      <trkpt lat="43.60361" lon="0.54911">
        <ele>213</ele>
        <time>2020-01-12T09:00:31.000Z</time>
      </trkpt>
      <trkpt lat="43.60361" lon="0.54912">
        <ele>213</ele>
        <time>2020-01-12T09:00:33.000Z</time>
      </trkpt>
      <trkpt lat="43.60361" lon="0.54913">
        <ele>213</ele>
        <time>2020-01-12T09:00:35.000Z</time>
      </trkpt>
      <trkpt lat="43.60361" lon="0.54913">
        <ele>213</ele>
        <time>2020-01-12T09:00:37.000Z</time>
      </trkpt>
      <trkpt lat="43.60361" lon="0.54912">
        <ele>213</ele>
        <time>2020-01-12T09:00:39.000Z</time>
      </trkpt>
      <trkpt lat="43.60361" lon="0.54912">
        <ele>213</ele>
        <time>2020-01-12T09:00:41.000Z</time>
      </trkpt>
      <trkpt lat="43.6036" lon="0.54912">
        <ele>213</ele>
        <time>2020-01-12T09:00:43.000Z</time>
      </trkpt>
      <trkpt lat="43.6036" lon="0.54913">
        <ele>213</ele>
        <time>2020-01-12T09:00:45.000Z</time>
      </trkpt>
      <trkpt lat="43.6036" lon="0.54913">
        <ele>213</ele>
        <time>2020-01-12T09:00:47.000Z</time>
      </trkpt>
      <trkpt lat="43.6036" lon="0.54913">
        <ele>213</ele>
        <time>2020-01-12T09:00:49.000Z</time>
      </trkpt>
      <trkpt lat="43.6036" lon="0.54913">
        <ele>213</ele>
        <time>2020-01-12T09:00:51.000Z</time>
      </trkpt>
      <trkpt lat="43.6036" lon="0.54913">
        <ele>213</ele>
        <time>2020-01-12T09:00:53.000Z</time>
      </trkpt>
      <trkpt lat="43.6036" lon="0.54914">
        <ele>213</ele>
        <time>2020-01-12T09:00:55.000Z</time>
      </trkpt>
      <trkpt lat="43.6036" lon="0.54914">
        <ele>213</ele>
        <time>2020-01-12T09:00:57.000Z</time>
      </trkpt>
      <trkpt lat="43.6036" lon="0.54913">
        <ele>213</ele>
        <time>2020-01-12T09:00:59.000Z</time>
      </trkpt>
      <trkpt lat="43.6036" lon="0.54913">
        <ele>213</ele>
        <time>2020-01-12T09:01:01.000Z</time>
      </trkpt>
      <trkpt lat="43.6036" lon="0.54913">
        <ele>213</ele>
        <time>2020-01-12T09:01:03.000Z</time>
      </trkpt>
      <trkpt lat="43.6036" lon="0.54914">
        <ele>213</ele>
        <time>2020-01-12T09:01:05.000Z</time>
      </trkpt>
      <trkpt lat="43.6036" lon="0.54913">
        <ele>213</ele>
        <time>2020-01-12T09:01:07.000Z</time>
      </trkpt>
      <trkpt lat="43.6036" lon="0.54913">
        <ele>213</ele>
        <time>2020-01-12T09:01:09.000Z</time>
      </trkpt>
      <trkpt lat="43.6036" lon="0.54913">
        <ele>213</ele>
        <time>2020-01-12T09:01:11.000Z</time>
      </trkpt>
      <trkpt lat="43.6036" lon="0.54912">
        <ele>213</ele>
        <time>2020-01-12T09:01:13.000Z</time>
      </trkpt>
      <trkpt lat="43.6036" lon="0.54912">
        <ele>213</ele>
        <time>2020-01-12T09:01:15.000Z</time>
      </trkpt>
      <trkpt lat="43.60359" lon="0.54912">
        <ele>213</ele>
        <time>2020-01-12T09:01:17.000Z</time>
      </trkpt>
      <trkpt lat="43.60359" lon="0.54912">
        <ele>213</ele>
        <time>2020-01-12T09:01:19.000Z</time>
      </trkpt>
      <trkpt lat="43.60359" lon="0.54912">
        <ele>213</ele>
        <time>2020-01-12T09:01:21.000Z</time>
      </trkpt>
      <trkpt lat="43.60359" lon="0.54913">
        <ele>213</ele>
        <time>2020-01-12T09:01:23.000Z</time>
      </trkpt>
      <trkpt lat="43.6036" lon="0.54912">
        <ele>213</ele>
        <time>2020-01-12T09:01:25.000Z</time>
      </trkpt>
      <trkpt lat="43.6036" lon="0.54912">
        <ele>213</ele>
        <time>2020-01-12T09:01:27.000Z</time>
      </trkpt>
      <trkpt lat="43.60361" lon="0.54911">
        <ele>213</ele>
        <time>2020-01-12T09:01:29.000Z</time>
      </trkpt>
      <trkpt lat="43.60361" lon="0.54911">
        <ele>213</ele>
        <time>2020-01-12T09:01:31.000Z</time>
      </trkpt>
      <trkpt lat="43.60361" lon="0.54911">
        <ele>213</ele>
        <time>2020-01-12T09:01:33.000Z</time>
      </trkpt>
      <trkpt lat="43.6036" lon="0.54912">
        <ele>213</ele>
        <time>2020-01-12T09:01:35.000Z</time>
      </trkpt>
      <trkpt lat="43.6036" lon="0.54913">
        <ele>213</ele>
        <time>2020-01-12T09:01:37.000Z</time>
      </trkpt>
      <trkpt lat="43.6036" lon="0.54912">
        <ele>213</ele>
        <time>2020-01-12T09:01:39.000Z</time>
      </trkpt>
      <trkpt lat="43.60361" lon="0.54911">
        <ele>213</ele>
        <time>2020-01-12T09:01:41.000Z</time>
      </trkpt>
      <trkpt lat="43.60361" lon="0.54911">
        <ele>213</ele>
        <time>2020-01-12T09:01:43.000Z</time>
      </trkpt>
      <trkpt lat="43.60361" lon="0.54911">
        <ele>213</ele>
        <time>2020-01-12T09:01:45.000Z</time>
      </trkpt>
      <trkpt lat="43.60362" lon="0.54911">
        <ele>213</ele>
        <time>2020-01-12T09:01:47.000Z</time>
      </trkpt>
      <trkpt lat="43.60361" lon="0.54911">
        <ele>213</ele>
        <time>2020-01-12T09:01:49.000Z</time>
      </trkpt>
      <trkpt lat="43.60362" lon="0.54911">
        <ele>213</ele>
        <time>2020-01-12T09:01:51.000Z</time>
      </trkpt>
      <trkpt lat="43.60363" lon="0.54912">
        <ele>213</ele>
        <time>2020-01-12T09:01:53.000Z</time>
      </trkpt>
      <trkpt lat="43.60364" lon="0.54913">
        <ele>213</ele>
        <time>2020-01-12T09:01:55.000Z</time>
      </trkpt>
      <trkpt lat="43.60364" lon="0.54913">
        <ele>213</ele>
        <time>2020-01-12T09:01:57.000Z</time>
      </trkpt>
      <trkpt lat="43.60364" lon="0.54913">
        <ele>213</ele>
        <time>2020-01-12T09:01:59.000Z</time>
      </trkpt>
      <trkpt lat="43.60364" lon="0.54914">
        <ele>213</ele>
        <time>2020-01-12T09:02:01.000Z</time>
      </trkpt>
      <trkpt lat="43.60364" lon="0.54914">
        <ele>213</ele>
        <time>2020-01-12T09:02:03.000Z</time>
      </trkpt>
      <trkpt lat="43.60363" lon="0.54914">
        <ele>213</ele>
        <time>2020-01-12T09:02:05.000Z</time>
      </trkpt>
      <trkpt lat="43.60363" lon="0.54914">
        <ele>213</ele>
        <time>2020-01-12T09:02:07.000Z</time>
      </trkpt>
      <trkpt lat="43.60363" lon="0.54915">
        <ele>213</ele>
        <time>2020-01-12T09:02:09.000Z</time>
      </trkpt>
      <trkpt lat="43.60363" lon="0.54915">
        <ele>213</ele>
        <time>2020-01-12T09:02:11.000Z</time>
      </trkpt>
      <trkpt lat="43.60362" lon="0.54915">
        <ele>213</ele>
        <time>2020-01-12T09:02:13.000Z</time>
      </trkpt>
      <trkpt lat="43.60362" lon="0.54915">
        <ele>213</ele>
        <time>2020-01-12T09:02:15.000Z</time>
      </trkpt>
      <trkpt lat="43.60362" lon="0.54916">
        <ele>213</ele>
        <time>2020-01-12T09:02:17.000Z</time>
      </trkpt>
      <trkpt lat="43.60362" lon="0.54917">
        <ele>213</ele>
        <time>2020-01-12T09:02:19.000Z</time>
      </trkpt>
      <trkpt lat="43.60362" lon="0.54917">
        <ele>213</ele>
        <time>2020-01-12T09:02:21.000Z</time>
      </trkpt>
      <trkpt lat="43.60362" lon="0.54918">
        <ele>213</ele>
        <time>2020-01-12T09:02:23.000Z</time>
      </trkpt>
      <trkpt lat="43.60363" lon="0.54917">
        <ele>213</ele>
        <time>2020-01-12T09:02:25.000Z</time>
      </trkpt>
      <trkpt lat="43.60363" lon="0.54918">
        <ele>213</ele>
        <time>2020-01-12T09:02:27.000Z</time>
      </trkpt>
      <trkpt lat="43.60363" lon="0.54918">
        <ele>213</ele>
        <time>2020-01-12T09:02:29.000Z</time>
      </trkpt>
      <trkpt lat="43.60364" lon="0.54918">
        <ele>213</ele>
        <time>2020-01-12T09:02:31.000Z</time>
      </trkpt>
      <trkpt lat="43.60366" lon="0.54918">
        <ele>213</ele>
        <time>2020-01-12T09:02:33.000Z</time>
      </trkpt>
      <trkpt lat="43.60367" lon="0.54918">
        <ele>213</ele>
        <time>2020-01-12T09:02:35.000Z</time>
      </trkpt>
      <trkpt lat="43.60369" lon="0.54919">
        <ele>213</ele>
        <time>2020-01-12T09:02:37.000Z</time>
      </trkpt>
      <trkpt lat="43.6037" lon="0.54921">
        <ele>213</ele>
        <time>2020-01-12T09:02:39.000Z</time>
      </trkpt>
      <trkpt lat="43.6037" lon="0.54922">
        <ele>213</ele>
        <time>2020-01-12T09:02:41.000Z</time>
      </trkpt>
      <trkpt lat="43.60371" lon="0.54921">
        <ele>213</ele>
        <time>2020-01-12T09:02:43.000Z</time>
      </trkpt>
      <trkpt lat="43.60371" lon="0.54922">
        <ele>213</ele>
        <time>2020-01-12T09:02:45.000Z</time>
      </trkpt>
      <trkpt lat="43.60373" lon="0.54923">
        <ele>213</ele>
        <time>2020-01-12T09:02:47.000Z</time>
      </trkpt>
      <trkpt lat="43.60374" lon="0.54925">
        <ele>213</ele>
        <time>2020-01-12T09:02:49.000Z</time>
      </trkpt>
      <trkpt lat="43.60375" lon="0.54926">
        <ele>213</ele>
        <time>2020-01-12T09:02:51.000Z</time>
      </trkpt>
      <trkpt lat="43.60377" lon="0.54926">
        <ele>213</ele>
        <time>2020-01-12T09:02:53.000Z</time>
      </trkpt>
      <trkpt lat="43.60378" lon="0.54927">
        <ele>213</ele>
        <time>2020-01-12T09:02:55.000Z</time>
      </trkpt>
      <trkpt lat="43.60379" lon="0.54928">
        <ele>213</ele>
        <time>2020-01-12T09:02:57.000Z</time>
      </trkpt>
      <trkpt lat="43.6038" lon="0.54928">
        <ele>213</ele>
        <time>2020-01-12T09:02:59.000Z</time>
      </trkpt>
      <trkpt lat="43.60382" lon="0.54928">
        <ele>213</ele>
        <time>2020-01-12T09:03:01.000Z</time>
      </trkpt>
      <trkpt lat="43.60383" lon="0.54929">
        <ele>213</ele>
        <time>2020-01-12T09:03:03.000Z</time>
      </trkpt>
      <trkpt lat="43.60385" lon="0.54932">
        <ele>213</ele>
        <time>2020-01-12T09:03:05.000Z</time>
      </trkpt>
      <trkpt lat="43.60386" lon="0.54934">
        <ele>213</ele>
        <time>2020-01-12T09:03:07.000Z</time>
      </trkpt>
      <trkpt lat="43.60387" lon="0.54937">
        <ele>213</ele>
        <time>2020-01-12T09:03:09.000Z</time>
      </trkpt>
      <trkpt lat="43.60387" lon="0.54939">
        <ele>213</ele>
        <time>2020-01-12T09:03:11.000Z</time>
      </trkpt>
      <trkpt lat="43.60388" lon="0.54941">
        <ele>213</ele>
        <time>2020-01-12T09:03:13.000Z</time>
      </trkpt>
      <trkpt lat="43.60389" lon="0.54944">
        <ele>213</ele>
        <time>2020-01-12T09:03:15.000Z</time>
      </trkpt>
      <trkpt lat="43.6039" lon="0.54946">
        <ele>213</ele>
        <time>2020-01-12T09:03:17.000Z</time>
      </trkpt>
      <trkpt lat="43.60391" lon="0.54948">
        <ele>213</ele>
        <time>2020-01-12T09:03:19.000Z</time>
      </trkpt>
      <trkpt lat="43.60393" lon="0.54948">
        <ele>213</ele>
        <time>2020-01-12T09:03:21.000Z</time>
      </trkpt>
      <trkpt lat="43.60394" lon="0.54948">
        <ele>213</ele>
        <time>2020-01-12T09:03:23.000Z</time>
      </trkpt>
      <trkpt lat="43.60395" lon="0.54947">
        <ele>213</ele>
        <time>2020-01-12T09:03:25.000Z</time>
      </trkpt>
      <trkpt lat="43.60396" lon="0.54947">
        <ele>213</ele>
        <time>2020-01-12T09:03:27.000Z</time>
      </trkpt>
      <trkpt lat="43.60396" lon="0.54948">
        <ele>213</ele>
        <time>2020-01-12T09:03:29.000Z</time>
      </trkpt>
      <trkpt lat="43.60396" lon="0.54948">
        <ele>213</ele>
        <time>2020-01-12T09:03:31.000Z</time>
      </trkpt>
      <trkpt lat="43.60396" lon="0.54949">
        <ele>213</ele>
        <time>2020-01-12T09:03:33.000Z</time>
      </trkpt>
      <trkpt lat="43.60396" lon="0.54949">
        <ele>213</ele>
        <time>2020-01-12T09:03:35.000Z</time>
      </trkpt>
      <trkpt lat="43.60396" lon="0.54948">
        <ele>213</ele>
        <time>2020-01-12T09:03:37.000Z</time>
      </trkpt>
      <trkpt lat="43.60396" lon="0.54949">
        <ele>213</ele>
        <time>2020-01-12T09:03:39.000Z</time>
      </trkpt>
      <trkpt lat="43.60395" lon="0.54948">
        <ele>213</ele>
        <time>2020-01-12T09:03:41.000Z</time>
      </trkpt>
      <trkpt lat="43.60395" lon="0.54948">
        <ele>213</ele>
        <time>2020-01-12T09:03:43.000Z</time>
      </trkpt>
      <trkpt lat="43.60395" lon="0.54948">
        <ele>213</ele>
        <time>2020-01-12T09:03:45.000Z</time>
      </trkpt>
      <trkpt lat="43.60394" lon="0.54947">
        <ele>213</ele>
        <time>2020-01-12T09:03:47.000Z</time>
      </trkpt>
      <trkpt lat="43.60394" lon="0.54947">
        <ele>213</ele>
        <time>2020-01-12T09:03:49.000Z</time>
      </trkpt>
      <trkpt lat="43.60394" lon="0.54946">
        <ele>213</ele>
        <time>2020-01-12T09:03:51.000Z</time>
      </trkpt>
      <trkpt lat="43.60394" lon="0.54943">
        <ele>213</ele>
        <time>2020-01-12T09:03:53.000Z</time>
      </trkpt>
      <trkpt lat="43.60394" lon="0.54941">
        <ele>213</ele>
        <time>2020-01-12T09:03:55.000Z</time>
      </trkpt>
      <trkpt lat="43.60395" lon="0.54939">
        <ele>213</ele>
        <time>2020-01-12T09:03:57.000Z</time>
      </trkpt>
      <trkpt lat="43.60395" lon="0.54937">
        <ele>213</ele>
        <time>2020-01-12T09:03:59.000Z</time>
      </trkpt>
      <trkpt lat="43.60395" lon="0.54935">
        <ele>213</ele>
        <time>2020-01-12T09:04:01.000Z</time>
      </trkpt>
      <trkpt lat="43.60396" lon="0.54933">
        <ele>213</ele>
        <time>2020-01-12T09:04:03.000Z</time>
      </trkpt>
      <trkpt lat="43.60396" lon="0.54931">
        <ele>213</ele>
        <time>2020-01-12T09:04:05.000Z</time>
      </trkpt>
      <trkpt lat="43.60396" lon="0.54929">
        <ele>214</ele>
        <time>2020-01-12T09:04:07.000Z</time>
      </trkpt>
      <trkpt lat="43.60396" lon="0.54928">
        <ele>214</ele>
        <time>2020-01-12T09:04:09.000Z</time>
      </trkpt>
      <trkpt lat="43.60396" lon="0.54926">
        <ele>213</ele>
        <time>2020-01-12T09:04:11.000Z</time>
      </trkpt>
      <trkpt lat="43.60396" lon="0.54924">
        <ele>213</ele>
        <time>2020-01-12T09:04:13.000Z</time>
      </trkpt>
      <trkpt lat="43.60397" lon="0.54922">
        <ele>213</ele>
        <time>2020-01-12T09:04:15.000Z</time>
      </trkpt>
      <trkpt lat="43.60396" lon="0.5492">
        <ele>213</ele>
        <time>2020-01-12T09:04:17.000Z</time>
      </trkpt>
      <trkpt lat="43.60396" lon="0.54917">
        <ele>213</ele>
        <time>2020-01-12T09:04:19.000Z</time>
      </trkpt>
      <trkpt lat="43.60396" lon="0.54914">
        <ele>213</ele>
        <time>2020-01-12T09:04:21.000Z</time>
      </trkpt>
      <trkpt lat="43.60396" lon="0.54913">
        <ele>213</ele>
        <time>2020-01-12T09:04:23.000Z</time>
      </trkpt>
      <trkpt lat="43.60396" lon="0.5491">
        <ele>213</ele>
        <time>2020-01-12T09:04:25.000Z</time>
      </trkpt>
      <trkpt lat="43.60396" lon="0.54908">
        <ele>213</ele>
        <time>2020-01-12T09:04:27.000Z</time>
      </trkpt>
      <trkpt lat="43.60396" lon="0.54905">
        <ele>213</ele>
        <time>2020-01-12T09:04:29.000Z</time>
      </trkpt>
      <trkpt lat="43.60396" lon="0.54903">
        <ele>213</ele>
        <time>2020-01-12T09:04:31.000Z</time>
      </trkpt>
      <trkpt lat="43.60396" lon="0.54901">
        <ele>213</ele>
        <time>2020-01-12T09:04:33.000Z</time>
      </trkpt>
      <trkpt lat="43.60396" lon="0.54899">
        <ele>212</ele>
        <time>2020-01-12T09:04:35.000Z</time>
      </trkpt>
      <trkpt lat="43.60397" lon="0.54896">
        <ele>212</ele>
        <time>2020-01-12T09:04:37.000Z</time>
      </trkpt>
      <trkpt lat="43.60398" lon="0.54893">
        <ele>212</ele>
        <time>2020-01-12T09:04:39.000Z</time>
      </trkpt>
      <trkpt lat="43.60398" lon="0.5489">
        <ele>212</ele>
        <time>2020-01-12T09:04:41.000Z</time>
      </trkpt>
      <trkpt lat="43.60398" lon="0.54887">
        <ele>212</ele>
        <time>2020-01-12T09:04:43.000Z</time>
      </trkpt>
      <trkpt lat="43.60398" lon="0.54884">
        <ele>212</ele>
        <time>2020-01-12T09:04:45.000Z</time>
      </trkpt>
      <trkpt lat="43.60399" lon="0.54881">
        <ele>212</ele>
        <time>2020-01-12T09:04:47.000Z</time>
      </trkpt>
      <trkpt lat="43.60399" lon="0.54879">
        <ele>212</ele>
        <time>2020-01-12T09:04:49.000Z</time>
      </trkpt>
      <trkpt lat="43.60399" lon="0.54877">
        <ele>212</ele>
        <time>2020-01-12T09:04:51.000Z</time>
      </trkpt>
      <trkpt lat="43.604" lon="0.54875">
        <ele>212</ele>
        <time>2020-01-12T09:04:53.000Z</time>
      </trkpt>
      <trkpt lat="43.604" lon="0.54873">
        <ele>211</ele>
        <time>2020-01-12T09:04:55.000Z</time>
      </trkpt>
      <trkpt lat="43.604" lon="0.54872">
        <ele>211</ele>
        <time>2020-01-12T09:04:57.000Z</time>
      </trkpt>
      <trkpt lat="43.604" lon="0.5487">
        <ele>211</ele>
        <time>2020-01-12T09:04:59.000Z</time>
      </trkpt>
      <trkpt lat="43.60401" lon="0.54868">
        <ele>211</ele>
        <time>2020-01-12T09:05:01.000Z</time>
      </trkpt>
      <trkpt lat="43.604" lon="0.54866">
        <ele>211</ele>
        <time>2020-01-12T09:05:03.000Z</time>
      </trkpt>
      <trkpt lat="43.60401" lon="0.54864">
        <ele>211</ele>
        <time>2020-01-12T09:05:05.000Z</time>
      </trkpt>
      <trkpt lat="43.60401" lon="0.54861">
        <ele>211</ele>
        <time>2020-01-12T09:05:07.000Z</time>
      </trkpt>
      <trkpt lat="43.60401" lon="0.54859">
        <ele>211</ele>
        <time>2020-01-12T09:05:09.000Z</time>
      </trkpt>
      <trkpt lat="43.60402" lon="0.54856">
        <ele>211</ele>
        <time>2020-01-12T09:05:11.000Z</time>
      </trkpt>
      <trkpt lat="43.60403" lon="0.54854">
        <ele>211</ele>
        <time>2020-01-12T09:05:13.000Z</time>
      </trkpt>
      <trkpt lat="43.60403" lon="0.54851">
        <ele>211</ele>
        <time>2020-01-12T09:05:15.000Z</time>
      </trkpt>
      <trkpt lat="43.60404" lon="0.54848">
        <ele>210</ele>
        <time>2020-01-12T09:05:17.000Z</time>
      </trkpt>
      <trkpt lat="43.60404" lon="0.54845">
        <ele>210</ele>
        <time>2020-01-12T09:05:19.000Z</time>
      </trkpt>
      <trkpt lat="43.60404" lon="0.54843">
        <ele>210</ele>
        <time>2020-01-12T09:05:21.000Z</time>
      </trkpt>
      <trkpt lat="43.60404" lon="0.5484">
        <ele>210</ele>
        <time>2020-01-12T09:05:23.000Z</time>
      </trkpt>
      <trkpt lat="43.60404" lon="0.54837">
        <ele>210</ele>
        <time>2020-01-12T09:05:25.000Z</time>
      </trkpt>
      <trkpt lat="43.60405" lon="0.54835">
        <ele>210</ele>
        <time>2020-01-12T09:05:27.000Z</time>
      </trkpt>
      <trkpt lat="43.60405" lon="0.54832">
        <ele>209</ele>
        <time>2020-01-12T09:05:29.000Z</time>
      </trkpt>
      <trkpt lat="43.60406" lon="0.54829">
        <ele>209</ele>
        <time>2020-01-12T09:05:31.000Z</time>
      </trkpt>
      <trkpt lat="43.60407" lon="0.54827">
        <ele>209</ele>
        <time>2020-01-12T09:05:33.000Z</time>
      </trkpt>
      <trkpt lat="43.60408" lon="0.54824">
        <ele>209</ele>
        <time>2020-01-12T09:05:35.000Z</time>
      </trkpt>
      <trkpt lat="43.60409" lon="0.54821">
        <ele>208</ele>
        <time>2020-01-12T09:05:37.000Z</time>
      </trkpt>
      <trkpt lat="43.60409" lon="0.54817">
        <ele>208</ele>
        <time>2020-01-12T09:05:39.000Z</time>
      </trkpt>
      <trkpt lat="43.60409" lon="0.54815">
        <ele>208</ele>
        <time>2020-01-12T09:05:41.000Z</time>
      </trkpt>
      <trkpt lat="43.6041" lon="0.54812">
        <ele>208</ele>
        <time>2020-01-12T09:05:43.000Z</time>
      </trkpt>
      <trkpt lat="43.60411" lon="0.54809">
        <ele>208</ele>
        <time>2020-01-12T09:05:45.000Z</time>
      </trkpt>
      <trkpt lat="43.60411" lon="0.54807">
        <ele>208</ele>
        <time>2020-01-12T09:05:47.000Z</time>
      </trkpt>
      <trkpt lat="43.60412" lon="0.54804">
        <ele>207</ele>
        <time>2020-01-12T09:05:49.000Z</time>
      </trkpt>
      <trkpt lat="43.60412" lon="0.54801">
        <ele>207</ele>
        <time>2020-01-12T09:05:51.000Z</time>
      </trkpt>
      <trkpt lat="43.60412" lon="0.54799">
        <ele>207</ele>
        <time>2020-01-12T09:05:53.000Z</time>
      </trkpt>
      <trkpt lat="43.60413" lon="0.54796">
        <ele>207</ele>
        <time>2020-01-12T09:05:55.000Z</time>
      </trkpt>
      <trkpt lat="43.60414" lon="0.54794">
        <ele>206</ele>
        <time>2020-01-12T09:05:57.000Z</time>
      </trkpt>
      <trkpt lat="43.60415" lon="0.54792">
        <ele>206</ele>
        <time>2020-01-12T09:05:59.000Z</time>
      </trkpt>
      <trkpt lat="43.60415" lon="0.54789">
        <ele>206</ele>
        <time>2020-01-12T09:06:01.000Z</time>
      </trkpt>
      <trkpt lat="43.60416" lon="0.54785">
        <ele>206</ele>
        <time>2020-01-12T09:06:03.000Z</time>
      </trkpt>
      <trkpt lat="43.60416" lon="0.54782">
        <ele>205</ele>
        <time>2020-01-12T09:06:05.000Z</time>
      </trkpt>
      <trkpt lat="43.60417" lon="0.54778">
        <ele>205</ele>
        <time>2020-01-12T09:06:07.000Z</time>
      </trkpt>
      <trkpt lat="43.60418" lon="0.54775">
        <ele>205</ele>
        <time>2020-01-12T09:06:09.000Z</time>
      </trkpt>
      <trkpt lat="43.60418" lon="0.54773">
        <ele>205</ele>
        <time>2020-01-12T09:06:11.000Z</time>
      </trkpt>
      <trkpt lat="43.60419" lon="0.5477">
        <ele>205</ele>
        <time>2020-01-12T09:06:13.000Z</time>
      </trkpt>
      <trkpt lat="43.60419" lon="0.54767">
        <ele>204</ele>
        <time>2020-01-12T09:06:15.000Z</time>
      </trkpt>
      <trkpt lat="43.60419" lon="0.54765">
        <ele>204</ele>
        <time>2020-01-12T09:06:17.000Z</time>
      </trkpt>
      <trkpt lat="43.60419" lon="0.54762">
        <ele>204</ele>
        <time>2020-01-12T09:06:19.000Z</time>
      </trkpt>
      <trkpt lat="43.60419" lon="0.54759">
        <ele>204</ele>
        <time>2020-01-12T09:06:21.000Z</time>
      </trkpt>
      <trkpt lat="43.60419" lon="0.54758">
        <ele>204</ele>
        <time>2020-01-12T09:06:23.000Z</time>
      </trkpt>
      <trkpt lat="43.60419" lon="0.54755">
        <ele>204</ele>
        <time>2020-01-12T09:06:25.000Z</time>
      </trkpt>
      <trkpt lat="43.60419" lon="0.54752">
        <ele>203</ele>
        <time>2020-01-12T09:06:27.000Z</time>
      </trkpt>
      <trkpt lat="43.60419" lon="0.5475">
        <ele>203</ele>
        <time>2020-01-12T09:06:29.000Z</time>
      </trkpt>
      <trkpt lat="43.60419" lon="0.54747">
        <ele>203</ele>
        <time>2020-01-12T09:06:31.000Z</time>
      </trkpt>
      <trkpt lat="43.60419" lon="0.54745">
        <ele>203</ele>
        <time>2020-01-12T09:06:33.000Z</time>
      </trkpt>
      <trkpt lat="43.60419" lon="0.54741">
        <ele>203</ele>
        <time>2020-01-12T09:06:35.000Z</time>
      </trkpt>
      <trkpt lat="43.6042" lon="0.54739">
        <ele>203</ele>
        <time>2020-01-12T09:06:37.000Z</time>
      </trkpt>
      <trkpt lat="43.60421" lon="0.54736">
        <ele>202</ele>
        <time>2020-01-12T09:06:39.000Z</time>
      </trkpt>
      <trkpt lat="43.60421" lon="0.54734">
        <ele>202</ele>
        <time>2020-01-12T09:06:41.000Z</time>
      </trkpt>
      <trkpt lat="43.60422" lon="0.54731">
        <ele>202</ele>
        <time>2020-01-12T09:06:43.000Z</time>
      </trkpt>
      <trkpt lat="43.60423" lon="0.54728">
        <ele>202</ele>
        <time>2020-01-12T09:06:45.000Z</time>
      </trkpt>
      <trkpt lat="43.60423" lon="0.54725">
        <ele>202</ele>
        <time>2020-01-12T09:06:47.000Z</time>
      </trkpt>
      <trkpt lat="43.60423" lon="0.54723">
        <ele>202</ele>
        <time>2020-01-12T09:06:49.000Z</time>
      </trkpt>
      <trkpt lat="43.60424" lon="0.5472">
        <ele>201</ele>
        <time>2020-01-12T09:06:51.000Z</time>
      </trkpt>
      <trkpt lat="43.60424" lon="0.54718">
        <ele>201</ele>
        <time>2020-01-12T09:06:53.000Z</time>
      </trkpt>
      <trkpt lat="43.60425" lon="0.54716">
        <ele>201</ele>
        <time>2020-01-12T09:06:55.000Z</time>
      </trkpt>
      <trkpt lat="43.60425" lon="0.54713">
        <ele>201</ele>
        <time>2020-01-12T09:06:57.000Z</time>
      </trkpt>
      <trkpt lat="43.60425" lon="0.54711">
        <ele>200</ele>
        <time>2020-01-12T09:06:59.000Z</time>
      </trkpt>
      <trkpt lat="43.60426" lon="0.54708">
        <ele>200</ele>
        <time>2020-01-12T09:07:01.000Z</time>
      </trkpt>
      <trkpt lat="43.60427" lon="0.54706">
        <ele>200</ele>
        <time>2020-01-12T09:07:03.000Z</time>
      </trkpt>
      <trkpt lat="43.60427" lon="0.54703">
        <ele>200</ele>
        <time>2020-01-12T09:07:05.000Z</time>
      </trkpt>
      <trkpt lat="43.60429" lon="0.54701">
        <ele>200</ele>
        <time>2020-01-12T09:07:07.000Z</time>
      </trkpt>
      <trkpt lat="43.60429" lon="0.54698">
        <ele>199</ele>
        <time>2020-01-12T09:07:09.000Z</time>
      </trkpt>
      <trkpt lat="43.6043" lon="0.54696">
        <ele>199</ele>
        <time>2020-01-12T09:07:11.000Z</time>
      </trkpt>
      <trkpt lat="43.6043" lon="0.54694">
        <ele>199</ele>
        <time>2020-01-12T09:07:13.000Z</time>
      </trkpt>
      <trkpt lat="43.6043" lon="0.54692">
        <ele>199</ele>
        <time>2020-01-12T09:07:15.000Z</time>
      </trkpt>
      <trkpt lat="43.60431" lon="0.54689">
        <ele>199</ele>
        <time>2020-01-12T09:07:17.000Z</time>
      </trkpt>
      <trkpt lat="43.60432" lon="0.54686">
        <ele>198</ele>
        <time>2020-01-12T09:07:19.000Z</time>
      </trkpt>
      <trkpt lat="43.60432" lon="0.54684">
        <ele>198</ele>
        <time>2020-01-12T09:07:21.000Z</time>
      </trkpt>
      <trkpt lat="43.60433" lon="0.5468">
        <ele>198</ele>
        <time>2020-01-12T09:07:23.000Z</time>
      </trkpt>
      <trkpt lat="43.60433" lon="0.54677">
        <ele>198</ele>
        <time>2020-01-12T09:07:25.000Z</time>
      </trkpt>
      <trkpt lat="43.60433" lon="0.54675">
        <ele>197</ele>
        <time>2020-01-12T09:07:27.000Z</time>
      </trkpt>
      <trkpt lat="43.60433" lon="0.54672">
        <ele>197</ele>
        <time>2020-01-12T09:07:29.000Z</time>
      </trkpt>
      <trkpt lat="43.60433" lon="0.5467">
        <ele>197</ele>
        <time>2020-01-12T09:07:31.000Z</time>
      </trkpt>
      <trkpt lat="43.60434" lon="0.54667">
        <ele>197</ele>
        <time>2020-01-12T09:07:33.000Z</time>
      </trkpt>
      <trkpt lat="43.60434" lon="0.54664">
        <ele>196</ele>
        <time>2020-01-12T09:07:35.000Z</time>
      </trkpt>
      <trkpt lat="43.60434" lon="0.54661">
        <ele>196</ele>
        <time>2020-01-12T09:07:37.000Z</time>
      </trkpt>
      <trkpt lat="43.60435" lon="0.54658">
        <ele>196</ele>
        <time>2020-01-12T09:07:39.000Z</time>
      </trkpt>
      <trkpt lat="43.60435" lon="0.54655">
        <ele>196</ele>
        <time>2020-01-12T09:07:41.000Z</time>
      </trkpt>
      <trkpt lat="43.60436" lon="0.54652">
        <ele>195</ele>
        <time>2020-01-12T09:07:43.000Z</time>
      </trkpt>
      <trkpt lat="43.60435" lon="0.54649">
        <ele>195</ele>
        <time>2020-01-12T09:07:45.000Z</time>
      </trkpt>
      <trkpt lat="43.60436" lon="0.54646">
        <ele>195</ele>
        <time>2020-01-12T09:07:47.000Z</time>
      </trkpt>
      <trkpt lat="43.60437" lon="0.54643">
        <ele>195</ele>
        <time>2020-01-12T09:07:49.000Z</time>
      </trkpt>
      <trkpt lat="43.60438" lon="0.5464">
        <ele>194</ele>
        <time>2020-01-12T09:07:51.000Z</time>
      </trkpt>
      <trkpt lat="43.60438" lon="0.54637">
        <ele>194</ele>
        <time>2020-01-12T09:07:53.000Z</time>
      </trkpt>
      <trkpt lat="43.60438" lon="0.54635">
        <ele>194</ele>
        <time>2020-01-12T09:07:55.000Z</time>
      </trkpt>
      <trkpt lat="43.60438" lon="0.54632">
        <ele>193</ele>
        <time>2020-01-12T09:07:57.000Z</time>
      </trkpt>
      <trkpt lat="43.60439" lon="0.54629">
        <ele>193</ele>
        <time>2020-01-12T09:07:59.000Z</time>
      </trkpt>
      <trkpt lat="43.60438" lon="0.54627">
        <ele>193</ele>
        <time>2020-01-12T09:08:01.000Z</time>
      </trkpt>
      <trkpt lat="43.60438" lon="0.54624">
        <ele>192</ele>
        <time>2020-01-12T09:08:03.000Z</time>
      </trkpt>
      <trkpt lat="43.60438" lon="0.54622">
        <ele>192</ele>
        <time>2020-01-12T09:08:05.000Z</time>
      </trkpt>
      <trkpt lat="43.60439" lon="0.5462">
        <ele>192</ele>
        <time>2020-01-12T09:08:07.000Z</time>
      </trkpt>
      <trkpt lat="43.60439" lon="0.54618">
        <ele>191</ele>
        <time>2020-01-12T09:08:09.000Z</time>
      </trkpt>
      <trkpt lat="43.60439" lon="0.54616">
        <ele>191</ele>
        <time>2020-01-12T09:08:11.000Z</time>
      </trkpt>
      <trkpt lat="43.60439" lon="0.54613">
        <ele>191</ele>
        <time>2020-01-12T09:08:13.000Z</time>
      </trkpt>
      <trkpt lat="43.60439" lon="0.54611">
        <ele>190</ele>
        <time>2020-01-12T09:08:15.000Z</time>
      </trkpt>
      <trkpt lat="43.60439" lon="0.54609">
        <ele>190</ele>
        <time>2020-01-12T09:08:17.000Z</time>
      </trkpt>
      <trkpt lat="43.60439" lon="0.54607">
        <ele>190</ele>
        <time>2020-01-12T09:08:19.000Z</time>
      </trkpt>
      <trkpt lat="43.60439" lon="0.54604">
        <ele>189</ele>
        <time>2020-01-12T09:08:21.000Z</time>
      </trkpt>
      <trkpt lat="43.60439" lon="0.54602">
        <ele>189</ele>
        <time>2020-01-12T09:08:23.000Z</time>
      </trkpt>
      <trkpt lat="43.60438" lon="0.546">
        <ele>189</ele>
        <time>2020-01-12T09:08:25.000Z</time>
      </trkpt>
      <trkpt lat="43.60438" lon="0.54597">
        <ele>188</ele>
        <time>2020-01-12T09:08:27.000Z</time>
      </trkpt>
      <trkpt lat="43.60438" lon="0.54595">
        <ele>188</ele>
        <time>2020-01-12T09:08:29.000Z</time>
      </trkpt>
      <trkpt lat="43.60437" lon="0.54593">
        <ele>188</ele>
        <time>2020-01-12T09:08:31.000Z</time>
      </trkpt>
      <trkpt lat="43.60437" lon="0.54592">
        <ele>188</ele>
        <time>2020-01-12T09:08:33.000Z</time>
      </trkpt>
      <trkpt lat="43.60437" lon="0.5459">
        <ele>188</ele>
        <time>2020-01-12T09:08:35.000Z</time>
      </trkpt>
      <trkpt lat="43.60437" lon="0.54588">
        <ele>187</ele>
        <time>2020-01-12T09:08:37.000Z</time>
      </trkpt>
      <trkpt lat="43.60436" lon="0.54586">
        <ele>187</ele>
        <time>2020-01-12T09:08:39.000Z</time>
      </trkpt>
      <trkpt lat="43.60436" lon="0.54583">
        <ele>187</ele>
        <time>2020-01-12T09:08:41.000Z</time>
      </trkpt>
      <trkpt lat="43.60437" lon="0.54581">
        <ele>186</ele>
        <time>2020-01-12T09:08:43.000Z</time>
      </trkpt>
      <trkpt lat="43.60437" lon="0.54579">
        <ele>186</ele>
        <time>2020-01-12T09:08:45.000Z</time>
      </trkpt>
      <trkpt lat="43.60437" lon="0.54576">
        <ele>185</ele>
        <time>2020-01-12T09:08:47.000Z</time>
      </trkpt>
      <trkpt lat="43.60437" lon="0.54574">
        <ele>185</ele>
        <time>2020-01-12T09:08:49.000Z</time>
      </trkpt>
      <trkpt lat="43.60437" lon="0.54571">
        <ele>185</ele>
        <time>2020-01-12T09:08:51.000Z</time>
      </trkpt>
      <trkpt lat="43.60437" lon="0.54569">
        <ele>185</ele>
        <time>2020-01-12T09:08:53.000Z</time>
      </trkpt>
      <trkpt lat="43.60437" lon="0.54567">
        <ele>184</ele>
        <time>2020-01-12T09:08:55.000Z</time>
      </trkpt>
      <trkpt lat="43.60437" lon="0.54565">
        <ele>184</ele>
        <time>2020-01-12T09:08:57.000Z</time>
      </trkpt>
      <trkpt lat="43.60437" lon="0.54563">
        <ele>184</ele>
        <time>2020-01-12T09:08:59.000Z</time>
      </trkpt>
      <trkpt lat="43.60437" lon="0.5456">
        <ele>183</ele>
        <time>2020-01-12T09:09:01.000Z</time>
      </trkpt>
      <trkpt lat="43.60437" lon="0.54558">
        <ele>183</ele>
        <time>2020-01-12T09:09:03.000Z</time>
      </trkpt>
      <trkpt lat="43.60437" lon="0.54557">
        <ele>183</ele>
        <time>2020-01-12T09:09:05.000Z</time>
      </trkpt>
      <trkpt lat="43.60437" lon="0.54554">
        <ele>182</ele>
        <time>2020-01-12T09:09:07.000Z</time>
      </trkpt>
      <trkpt lat="43.60437" lon="0.54552">
        <ele>182</ele>
        <time>2020-01-12T09:09:09.000Z</time>
      </trkpt>
      <trkpt lat="43.60436" lon="0.54549">
        <ele>182</ele>
        <time>2020-01-12T09:09:11.000Z</time>
      </trkpt>
      <trkpt lat="43.60436" lon="0.54546">
        <ele>181</ele>
        <time>2020-01-12T09:09:13.000Z</time>
      </trkpt>
      <trkpt lat="43.60435" lon="0.54544">
        <ele>181</ele>
        <time>2020-01-12T09:09:15.000Z</time>
      </trkpt>
      <trkpt lat="43.60435" lon="0.54541">
        <ele>181</ele>
        <time>2020-01-12T09:09:17.000Z</time>
      </trkpt>
      <trkpt lat="43.60437" lon="0.54539">
        <ele>180</ele>
        <time>2020-01-12T09:09:19.000Z</time>
      </trkpt>
      <trkpt lat="43.60437" lon="0.54536">
        <ele>180</ele>
        <time>2020-01-12T09:09:21.000Z</time>
      </trkpt>
      <trkpt lat="43.60438" lon="0.54534">
        <ele>180</ele>
        <time>2020-01-12T09:09:23.000Z</time>
      </trkpt>
      <trkpt lat="43.60439" lon="0.54532">
        <ele>179</ele>
        <time>2020-01-12T09:09:25.000Z</time>
      </trkpt>
      <trkpt lat="43.60441" lon="0.5453">
        <ele>179</ele>
        <time>2020-01-12T09:09:27.000Z</time>
      </trkpt>
      <trkpt lat="43.60443" lon="0.54528">
        <ele>179</ele>
        <time>2020-01-12T09:09:29.000Z</time>
      </trkpt>
      <trkpt lat="43.60444" lon="0.54527">
        <ele>179</ele>
        <time>2020-01-12T09:09:31.000Z</time>
      </trkpt>
      <trkpt lat="43.60446" lon="0.54525">
        <ele>179</ele>
        <time>2020-01-12T09:09:33.000Z</time>
      </trkpt>
      <trkpt lat="43.60448" lon="0.54524">
        <ele>178</ele>
        <time>2020-01-12T09:09:35.000Z</time>
      </trkpt>
      <trkpt lat="43.6045" lon="0.54523">
        <ele>178</ele>
        <time>2020-01-12T09:09:37.000Z</time>
      </trkpt>
      <trkpt lat="43.60452" lon="0.54522">
        <ele>178</ele>
        <time>2020-01-12T09:09:39.000Z</time>
      </trkpt>
      <trkpt lat="43.60454" lon="0.54521">
        <ele>178</ele>
        <time>2020-01-12T09:09:41.000Z</time>
      </trkpt>
      <trkpt lat="43.60456" lon="0.5452">
        <ele>178</ele>
        <time>2020-01-12T09:09:43.000Z</time>
      </trkpt>
      <trkpt lat="43.60458" lon="0.5452">
        <ele>178</ele>
        <time>2020-01-12T09:09:45.000Z</time>
      </trkpt>
      <trkpt lat="43.6046" lon="0.5452">
        <ele>178</ele>
        <time>2020-01-12T09:09:47.000Z</time>
      </trkpt>
      <trkpt lat="43.60462" lon="0.5452">
        <ele>178</ele>
        <time>2020-01-12T09:09:49.000Z</time>
      </trkpt>
      <trkpt lat="43.60465" lon="0.54519">
        <ele>178</ele>
        <time>2020-01-12T09:09:51.000Z</time>
      </trkpt>
      <trkpt lat="43.60467" lon="0.54519">
        <ele>178</ele>
        <time>2020-01-12T09:09:53.000Z</time>
      </trkpt>
      <trkpt lat="43.60469" lon="0.54519">
        <ele>178</ele>
        <time>2020-01-12T09:09:55.000Z</time>
      </trkpt>
      <trkpt lat="43.6047" lon="0.54518">
        <ele>178</ele>
        <time>2020-01-12T09:09:57.000Z</time>
      </trkpt>
      <trkpt lat="43.60472" lon="0.54518">
        <ele>178</ele>
        <time>2020-01-12T09:09:59.000Z</time>
      </trkpt>
      <trkpt lat="43.60474" lon="0.54518">
        <ele>178</ele>
        <time>2020-01-12T09:10:01.000Z</time>
      </trkpt>
      <trkpt lat="43.60476" lon="0.54518">
        <ele>178</ele>
        <time>2020-01-12T09:10:03.000Z</time>
      </trkpt>
      <trkpt lat="43.60478" lon="0.54518">
        <ele>178</ele>
        <time>2020-01-12T09:10:05.000Z</time>
      </trkpt>
      <trkpt lat="43.6048" lon="0.54518">
        <ele>178</ele>
        <time>2020-01-12T09:10:07.000Z</time>
      </trkpt>
      <trkpt lat="43.60482" lon="0.54517">
        <ele>178</ele>
        <time>2020-01-12T09:10:09.000Z</time>
      </trkpt>
      <trkpt lat="43.60483" lon="0.54516">
        <ele>178</ele>
        <time>2020-01-12T09:10:11.000Z</time>
      </trkpt>
      <trkpt lat="43.60485" lon="0.54515">
        <ele>178</ele>
        <time>2020-01-12T09:10:13.000Z</time>
      </trkpt>
      <trkpt lat="43.60486" lon="0.54514">
        <ele>178</ele>
        <time>2020-01-12T09:10:15.000Z</time>
      </trkpt>
      <trkpt lat="43.60488" lon="0.54512">
        <ele>178</ele>
        <time>2020-01-12T09:10:17.000Z</time>
      </trkpt>
      <trkpt lat="43.6049" lon="0.54511">
        <ele>178</ele>
        <time>2020-01-12T09:10:19.000Z</time>
      </trkpt>
      <trkpt lat="43.60492" lon="0.5451">
        <ele>178</ele>
        <time>2020-01-12T09:10:21.000Z</time>
      </trkpt>
      <trkpt lat="43.60493" lon="0.54508">
        <ele>178</ele>
        <time>2020-01-12T09:10:23.000Z</time>
      </trkpt>
      <trkpt lat="43.60495" lon="0.54506">
        <ele>178</ele>
        <time>2020-01-12T09:10:25.000Z</time>
      </trkpt>
      <trkpt lat="43.60497" lon="0.54505">
        <ele>177</ele>
        <time>2020-01-12T09:10:27.000Z</time>
      </trkpt>
      <trkpt lat="43.60501" lon="0.54502">
        <ele>177</ele>
        <time>2020-01-12T09:10:31.000Z</time>
      </trkpt>
      <trkpt lat="43.60503" lon="0.54501">
        <ele>177</ele>
        <time>2020-01-12T09:10:33.000Z</time>
      </trkpt>
      <trkpt lat="43.60504" lon="0.54501">
        <ele>177</ele>
        <time>2020-01-12T09:10:35.000Z</time>
      </trkpt>
      <trkpt lat="43.60506" lon="0.54499">
        <ele>177</ele>
        <time>2020-01-12T09:10:37.000Z</time>
      </trkpt>
      <trkpt lat="43.60507" lon="0.54498">
        <ele>177</ele>
        <time>2020-01-12T09:10:39.000Z</time>
      </trkpt>
      <trkpt lat="43.60509" lon="0.54497">
        <ele>177</ele>
        <time>2020-01-12T09:10:41.000Z</time>
      </trkpt>
      <trkpt lat="43.6051" lon="0.54495">
        <ele>177</ele>
        <time>2020-01-12T09:10:43.000Z</time>
      </trkpt>
      <trkpt lat="43.60512" lon="0.54494">
        <ele>177</ele>
        <time>2020-01-12T09:10:45.000Z</time>
      </trkpt>
      <trkpt lat="43.60513" lon="0.54493">
        <ele>177</ele>
        <time>2020-01-12T09:10:47.000Z</time>
      </trkpt>
      <trkpt lat="43.60515" lon="0.54491">
        <ele>177</ele>
        <time>2020-01-12T09:10:49.000Z</time>
      </trkpt>
      <trkpt lat="43.60516" lon="0.54489">
        <ele>176</ele>
        <time>2020-01-12T09:10:51.000Z</time>
      </trkpt>
      <trkpt lat="43.60517" lon="0.54488">
        <ele>176</ele>
        <time>2020-01-12T09:10:53.000Z</time>
      </trkpt>
      <trkpt lat="43.60519" lon="0.54486">
        <ele>176</ele>
        <time>2020-01-12T09:10:55.000Z</time>
      </trkpt>
      <trkpt lat="43.6052" lon="0.54485">
        <ele>176</ele>
        <time>2020-01-12T09:10:57.000Z</time>
      </trkpt>
      <trkpt lat="43.60522" lon="0.54483">
        <ele>176</ele>
        <time>2020-01-12T09:10:59.000Z</time>
      </trkpt>
      <trkpt lat="43.60523" lon="0.54481">
        <ele>176</ele>
        <time>2020-01-12T09:11:01.000Z</time>
      </trkpt>
      <trkpt lat="43.60525" lon="0.54479">
        <ele>176</ele>
        <time>2020-01-12T09:11:03.000Z</time>
      </trkpt>
      <trkpt lat="43.60526" lon="0.54477">
        <ele>176</ele>
        <time>2020-01-12T09:11:05.000Z</time>
      </trkpt>
      <trkpt lat="43.60527" lon="0.54475">
        <ele>175</ele>
        <time>2020-01-12T09:11:07.000Z</time>
      </trkpt>
      <trkpt lat="43.60529" lon="0.54472">
        <ele>175</ele>
        <time>2020-01-12T09:11:09.000Z</time>
      </trkpt>
      <trkpt lat="43.6053" lon="0.54471">
        <ele>175</ele>
        <time>2020-01-12T09:11:11.000Z</time>
      </trkpt>
      <trkpt lat="43.60531" lon="0.54468">
        <ele>175</ele>
        <time>2020-01-12T09:11:13.000Z</time>
      </trkpt>
      <trkpt lat="43.60532" lon="0.54466">
        <ele>175</ele>
        <time>2020-01-12T09:11:15.000Z</time>
      </trkpt>
      <trkpt lat="43.60534" lon="0.54465">
        <ele>175</ele>
        <time>2020-01-12T09:11:17.000Z</time>
      </trkpt>
      <trkpt lat="43.60536" lon="0.54464">
        <ele>175</ele>
        <time>2020-01-12T09:11:19.000Z</time>
      </trkpt>
      <trkpt lat="43.60538" lon="0.54463">
        <ele>175</ele>
        <time>2020-01-12T09:11:21.000Z</time>
      </trkpt>
      <trkpt lat="43.60539" lon="0.54461">
        <ele>175</ele>
        <time>2020-01-12T09:11:23.000Z</time>
      </trkpt>
      <trkpt lat="43.6054" lon="0.5446">
        <ele>175</ele>
        <time>2020-01-12T09:11:25.000Z</time>
      </trkpt>
      <trkpt lat="43.60542" lon="0.54459">
        <ele>175</ele>
        <time>2020-01-12T09:11:27.000Z</time>
      </trkpt>
      <trkpt lat="43.60544" lon="0.54457">
        <ele>175</ele>
        <time>2020-01-12T09:11:29.000Z</time>
      </trkpt>
      <trkpt lat="43.60545" lon="0.54456">
        <ele>175</ele>
        <time>2020-01-12T09:11:31.000Z</time>
      </trkpt>
      <trkpt lat="43.60547" lon="0.54455">
        <ele>175</ele>
        <time>2020-01-12T09:11:33.000Z</time>
      </trkpt>
      <trkpt lat="43.60548" lon="0.54454">
        <ele>175</ele>
        <time>2020-01-12T09:11:35.000Z</time>
      </trkpt>
      <trkpt lat="43.6055" lon="0.54453">
        <ele>175</ele>
        <time>2020-01-12T09:11:37.000Z</time>
      </trkpt>
      <trkpt lat="43.60551" lon="0.54452">
        <ele>175</ele>
        <time>2020-01-12T09:11:39.000Z</time>
      </trkpt>
      <trkpt lat="43.60552" lon="0.54451">
        <ele>175</ele>
        <time>2020-01-12T09:11:41.000Z</time>
      </trkpt>
      <trkpt lat="43.60553" lon="0.54451">
        <ele>175</ele>
        <time>2020-01-12T09:11:43.000Z</time>
      </trkpt>
      <trkpt lat="43.60553" lon="0.54451">
        <ele>175</ele>
        <time>2020-01-12T09:11:45.000Z</time>
      </trkpt>
      <trkpt lat="43.60553" lon="0.54451">
        <ele>175</ele>
        <time>2020-01-12T09:11:47.000Z</time>
      </trkpt>
      <trkpt lat="43.60553" lon="0.54451">
        <ele>175</ele>
        <time>2020-01-12T09:11:49.000Z</time>
      </trkpt>
      <trkpt lat="43.60553" lon="0.54451">
        <ele>175</ele>
        <time>2020-01-12T09:11:51.000Z</time>
      </trkpt>
      <trkpt lat="43.60553" lon="0.54451">
        <ele>175</ele>
        <time>2020-01-12T09:11:53.000Z</time>
      </trkpt>
      <trkpt lat="43.60552" lon="0.54451">
        <ele>175</ele>
        <time>2020-01-12T09:11:55.000Z</time>
      </trkpt>
      <trkpt lat="43.60552" lon="0.54451">
        <ele>175</ele>
        <time>2020-01-12T09:11:57.000Z</time>
      </trkpt>
      <trkpt lat="43.60553" lon="0.54452">
        <ele>175</ele>
        <time>2020-01-12T09:11:59.000Z</time>
      </trkpt>
      <trkpt lat="43.60553" lon="0.54451">
        <ele>175</ele>
        <time>2020-01-12T09:12:01.000Z</time>
      </trkpt>
      <trkpt lat="43.60552" lon="0.54451">
        <ele>175</ele>
        <time>2020-01-12T09:12:03.000Z</time>
      </trkpt>
      <trkpt lat="43.60552" lon="0.54451">
        <ele>175</ele>
        <time>2020-01-12T09:12:05.000Z</time>
      </trkpt>
      <trkpt lat="43.60553" lon="0.54451">
        <ele>175</ele>
        <time>2020-01-12T09:12:07.000Z</time>
      </trkpt>
      <trkpt lat="43.60553" lon="0.54451">
        <ele>175</ele>
        <time>2020-01-12T09:12:09.000Z</time>
      </trkpt>
      <trkpt lat="43.60553" lon="0.5445">
        <ele>175</ele>
        <time>2020-01-12T09:12:11.000Z</time>
      </trkpt>
      <trkpt lat="43.60553" lon="0.5445">
        <ele>175</ele>
        <time>2020-01-12T09:12:13.000Z</time>
      </trkpt>
      <trkpt lat="43.60553" lon="0.5445">
        <ele>175</ele>
        <time>2020-01-12T09:12:15.000Z</time>
      </trkpt>
      <trkpt lat="43.60553" lon="0.5445">
        <ele>175</ele>
        <time>2020-01-12T09:12:17.000Z</time>
      </trkpt>
      <trkpt lat="43.60553" lon="0.5445">
        <ele>175</ele>
        <time>2020-01-12T09:12:19.000Z</time>
      </trkpt>
      <trkpt lat="43.60553" lon="0.5445">
        <ele>175</ele>
        <time>2020-01-12T09:12:21.000Z</time>
      </trkpt>
      <trkpt lat="43.60552" lon="0.5445">
        <ele>175</ele>
        <time>2020-01-12T09:12:23.000Z</time>
      </trkpt>
      <trkpt lat="43.60552" lon="0.5445">
        <ele>175</ele>
        <time>2020-01-12T09:12:25.000Z</time>
      </trkpt>
      <trkpt lat="43.60552" lon="0.5445">
        <ele>175</ele>
        <time>2020-01-12T09:12:27.000Z</time>
      </trkpt>
      <trkpt lat="43.60552" lon="0.5445">
        <ele>175</ele>
        <time>2020-01-12T09:12:29.000Z</time>
      </trkpt>
      <trkpt lat="43.60552" lon="0.5445">
        <ele>175</ele>
        <time>2020-01-12T09:12:31.000Z</time>
      </trkpt>
      <trkpt lat="43.60552" lon="0.54449">
        <ele>175</ele>
        <time>2020-01-12T09:12:33.000Z</time>
      </trkpt>
      <trkpt lat="43.60552" lon="0.5445">
        <ele>175</ele>
        <time>2020-01-12T09:12:35.000Z</time>
      </trkpt>
      <trkpt lat="43.60552" lon="0.54451">
        <ele>175</ele>
        <time>2020-01-12T09:12:37.000Z</time>
      </trkpt>
      <trkpt lat="43.60552" lon="0.54451">
        <ele>175</ele>
        <time>2020-01-12T09:12:39.000Z</time>
      </trkpt>
      <trkpt lat="43.60552" lon="0.54451">
        <ele>175</ele>
        <time>2020-01-12T09:12:41.000Z</time>
      </trkpt>
      <trkpt lat="43.60552" lon="0.54452">
        <ele>175</ele>
        <time>2020-01-12T09:12:43.000Z</time>
      </trkpt>
      <trkpt lat="43.60552" lon="0.54452">
        <ele>175</ele>
        <time>2020-01-12T09:12:45.000Z</time>
      </trkpt>
      <trkpt lat="43.60552" lon="0.54453">
        <ele>175</ele>
        <time>2020-01-12T09:12:47.000Z</time>
      </trkpt>
      <trkpt lat="43.60552" lon="0.54453">
        <ele>175</ele>
        <time>2020-01-12T09:12:49.000Z</time>
      </trkpt>
      <trkpt lat="43.60553" lon="0.54453">
        <ele>175</ele>
        <time>2020-01-12T09:12:51.000Z</time>
      </trkpt>
      <trkpt lat="43.60554" lon="0.54452">
        <ele>175</ele>
        <time>2020-01-12T09:12:53.000Z</time>
      </trkpt>
      <trkpt lat="43.60555" lon="0.54451">
        <ele>175</ele>
        <time>2020-01-12T09:12:55.000Z</time>
      </trkpt>
      <trkpt lat="43.60557" lon="0.54449">
        <ele>175</ele>
        <time>2020-01-12T09:12:57.000Z</time>
      </trkpt>
      <trkpt lat="43.60559" lon="0.54447">
        <ele>175</ele>
        <time>2020-01-12T09:12:59.000Z</time>
      </trkpt>
      <trkpt lat="43.6056" lon="0.54444">
        <ele>175</ele>
        <time>2020-01-12T09:13:01.000Z</time>
      </trkpt>
      <trkpt lat="43.60561" lon="0.54443">
        <ele>175</ele>
        <time>2020-01-12T09:13:03.000Z</time>
      </trkpt>
      <trkpt lat="43.60562" lon="0.54442">
        <ele>175</ele>
        <time>2020-01-12T09:13:05.000Z</time>
      </trkpt>
      <trkpt lat="43.60563" lon="0.5444">
        <ele>175</ele>
        <time>2020-01-12T09:13:07.000Z</time>
      </trkpt>
      <trkpt lat="43.60564" lon="0.54439">
        <ele>176</ele>
        <time>2020-01-12T09:13:09.000Z</time>
      </trkpt>
      <trkpt lat="43.60565" lon="0.54437">
        <ele>175</ele>
        <time>2020-01-12T09:13:11.000Z</time>
      </trkpt>
      <trkpt lat="43.60566" lon="0.54437">
        <ele>176</ele>
        <time>2020-01-12T09:13:13.000Z</time>
      </trkpt>
      <trkpt lat="43.60566" lon="0.54436">
        <ele>176</ele>
        <time>2020-01-12T09:13:15.000Z</time>
      </trkpt>
      <trkpt lat="43.60566" lon="0.54437">
        <ele>176</ele>
        <time>2020-01-12T09:13:17.000Z</time>
      </trkpt>
      <trkpt lat="43.60565" lon="0.54437">
        <ele>176</ele>
        <time>2020-01-12T09:13:19.000Z</time>
      </trkpt>
      <trkpt lat="43.60565" lon="0.54437">
        <ele>175</ele>
        <time>2020-01-12T09:13:21.000Z</time>
      </trkpt>
      <trkpt lat="43.60564" lon="0.54437">
        <ele>175</ele>
        <time>2020-01-12T09:13:23.000Z</time>
      </trkpt>
      <trkpt lat="43.60564" lon="0.54437">
        <ele>175</ele>
        <time>2020-01-12T09:13:25.000Z</time>
      </trkpt>
      <trkpt lat="43.60565" lon="0.54436">
        <ele>175</ele>
        <time>2020-01-12T09:13:27.000Z</time>
      </trkpt>
      <trkpt lat="43.60565" lon="0.54435">
        <ele>175</ele>
        <time>2020-01-12T09:13:29.000Z</time>
      </trkpt>
      <trkpt lat="43.60566" lon="0.54434">
        <ele>175</ele>
        <time>2020-01-12T09:13:31.000Z</time>
      </trkpt>
      <trkpt lat="43.60566" lon="0.54434">
        <ele>175</ele>
        <time>2020-01-12T09:13:33.000Z</time>
      </trkpt>
      <trkpt lat="43.60565" lon="0.54433">
        <ele>175</ele>
        <time>2020-01-12T09:13:35.000Z</time>
      </trkpt>
      <trkpt lat="43.60565" lon="0.54433">
        <ele>175</ele>
        <time>2020-01-12T09:13:37.000Z</time>
      </trkpt>
      <trkpt lat="43.60565" lon="0.54432">
        <ele>175</ele>
        <time>2020-01-12T09:13:39.000Z</time>
      </trkpt>
      <trkpt lat="43.60565" lon="0.54432">
        <ele>175</ele>
        <time>2020-01-12T09:13:41.000Z</time>
      </trkpt>
      <trkpt lat="43.60565" lon="0.54431">
        <ele>175</ele>
        <time>2020-01-12T09:13:43.000Z</time>
      </trkpt>
      <trkpt lat="43.60564" lon="0.54431">
        <ele>175</ele>
        <time>2020-01-12T09:13:45.000Z</time>
      </trkpt>
      <trkpt lat="43.60564" lon="0.54432">
        <ele>175</ele>
        <time>2020-01-12T09:13:47.000Z</time>
      </trkpt>
      <trkpt lat="43.60564" lon="0.54432">
        <ele>175</ele>
        <time>2020-01-12T09:13:49.000Z</time>
      </trkpt>
      <trkpt lat="43.60563" lon="0.54432">
        <ele>175</ele>
        <time>2020-01-12T09:13:51.000Z</time>
      </trkpt>
      <trkpt lat="43.60563" lon="0.54432">
        <ele>175</ele>
        <time>2020-01-12T09:13:53.000Z</time>
      </trkpt>
      <trkpt lat="43.60562" lon="0.54431">
        <ele>175</ele>
        <time>2020-01-12T09:13:55.000Z</time>
      </trkpt>
      <trkpt lat="43.60562" lon="0.5443">
        <ele>175</ele>
        <time>2020-01-12T09:13:57.000Z</time>
      </trkpt>
      <trkpt lat="43.60563" lon="0.54429">
        <ele>175</ele>
        <time>2020-01-12T09:13:59.000Z</time>
      </trkpt>
      <trkpt lat="43.60562" lon="0.54426">
        <ele>175</ele>
        <time>2020-01-12T09:14:01.000Z</time>
      </trkpt>
      <trkpt lat="43.60561" lon="0.54424">
        <ele>175</ele>
        <time>2020-01-12T09:14:03.000Z</time>
      </trkpt>
      <trkpt lat="43.60561" lon="0.5442">
        <ele>175</ele>
        <time>2020-01-12T09:14:05.000Z</time>
      </trkpt>
      <trkpt lat="43.6056" lon="0.54418">
        <ele>175</ele>
        <time>2020-01-12T09:14:07.000Z</time>
      </trkpt>
      <trkpt lat="43.60559" lon="0.54415">
        <ele>175</ele>
        <time>2020-01-12T09:14:09.000Z</time>
      </trkpt>
      <trkpt lat="43.60559" lon="0.54413">
        <ele>174</ele>
        <time>2020-01-12T09:14:11.000Z</time>
      </trkpt>
      <trkpt lat="43.60558" lon="0.5441">
        <ele>174</ele>
        <time>2020-01-12T09:14:13.000Z</time>
      </trkpt>
      <trkpt lat="43.60556" lon="0.54408">
        <ele>174</ele>
        <time>2020-01-12T09:14:15.000Z</time>
      </trkpt>
      <trkpt lat="43.60556" lon="0.54406">
        <ele>174</ele>
        <time>2020-01-12T09:14:17.000Z</time>
      </trkpt>
      <trkpt lat="43.60555" lon="0.54403">
        <ele>174</ele>
        <time>2020-01-12T09:14:19.000Z</time>
      </trkpt>
      <trkpt lat="43.60554" lon="0.544">
        <ele>174</ele>
        <time>2020-01-12T09:14:21.000Z</time>
      </trkpt>
      <trkpt lat="43.60553" lon="0.54398">
        <ele>174</ele>
        <time>2020-01-12T09:14:23.000Z</time>
      </trkpt>
      <trkpt lat="43.60551" lon="0.54396">
        <ele>174</ele>
        <time>2020-01-12T09:14:25.000Z</time>
      </trkpt>
      <trkpt lat="43.60551" lon="0.54393">
        <ele>173</ele>
        <time>2020-01-12T09:14:27.000Z</time>
      </trkpt>
      <trkpt lat="43.6055" lon="0.54391">
        <ele>173</ele>
        <time>2020-01-12T09:14:29.000Z</time>
      </trkpt>
      <trkpt lat="43.60549" lon="0.5439">
        <ele>173</ele>
        <time>2020-01-12T09:14:31.000Z</time>
      </trkpt>
      <trkpt lat="43.60549" lon="0.54388">
        <ele>173</ele>
        <time>2020-01-12T09:14:33.000Z</time>
      </trkpt>
      <trkpt lat="43.60548" lon="0.54387">
        <ele>173</ele>
        <time>2020-01-12T09:14:35.000Z</time>
      </trkpt>
      <trkpt lat="43.60547" lon="0.54387">
        <ele>173</ele>
        <time>2020-01-12T09:14:37.000Z</time>
      </trkpt>
      <trkpt lat="43.60547" lon="0.54386">
        <ele>173</ele>
        <time>2020-01-12T09:14:39.000Z</time>
      </trkpt>
      <trkpt lat="43.60546" lon="0.54386">
        <ele>173</ele>
        <time>2020-01-12T09:14:41.000Z</time>
      </trkpt>
      <trkpt lat="43.60546" lon="0.54385">
        <ele>173</ele>
        <time>2020-01-12T09:14:43.000Z</time>
      </trkpt>
      <trkpt lat="43.60546" lon="0.54385">
        <ele>173</ele>
        <time>2020-01-12T09:14:45.000Z</time>
      </trkpt>
      <trkpt lat="43.60546" lon="0.54385">
        <ele>173</ele>
        <time>2020-01-12T09:14:47.000Z</time>
      </trkpt>
      <trkpt lat="43.60544" lon="0.54385">
        <ele>173</ele>
        <time>2020-01-12T09:14:49.000Z</time>
      </trkpt>
      <trkpt lat="43.60542" lon="0.54385">
        <ele>173</ele>
        <time>2020-01-12T09:14:51.000Z</time>
      </trkpt>
      <trkpt lat="43.60541" lon="0.54385">
        <ele>173</ele>
        <time>2020-01-12T09:14:53.000Z</time>
      </trkpt>
      <trkpt lat="43.6054" lon="0.54386">
        <ele>173</ele>
        <time>2020-01-12T09:14:55.000Z</time>
      </trkpt>
      <trkpt lat="43.60539" lon="0.54387">
        <ele>173</ele>
        <time>2020-01-12T09:14:57.000Z</time>
      </trkpt>
      <trkpt lat="43.60537" lon="0.54387">
        <ele>173</ele>
        <time>2020-01-12T09:14:59.000Z</time>
      </trkpt>
      <trkpt lat="43.60536" lon="0.54386">
        <ele>173</ele>
        <time>2020-01-12T09:15:01.000Z</time>
      </trkpt>
      <trkpt lat="43.60535" lon="0.54387">
        <ele>173</ele>
        <time>2020-01-12T09:15:03.000Z</time>
      </trkpt>
      <trkpt lat="43.60533" lon="0.54387">
        <ele>173</ele>
        <time>2020-01-12T09:15:05.000Z</time>
      </trkpt>
      <trkpt lat="43.60531" lon="0.54386">
        <ele>173</ele>
        <time>2020-01-12T09:15:07.000Z</time>
      </trkpt>
      <trkpt lat="43.6053" lon="0.54386">
        <ele>172</ele>
        <time>2020-01-12T09:15:09.000Z</time>
      </trkpt>
      <trkpt lat="43.60528" lon="0.54386">
        <ele>172</ele>
        <time>2020-01-12T09:15:11.000Z</time>
      </trkpt>
      <trkpt lat="43.60527" lon="0.54385">
        <ele>172</ele>
        <time>2020-01-12T09:15:13.000Z</time>
      </trkpt>
      <trkpt lat="43.60525" lon="0.54385">
        <ele>172</ele>
        <time>2020-01-12T09:15:15.000Z</time>
      </trkpt>
      <trkpt lat="43.60523" lon="0.54384">
        <ele>172</ele>
        <time>2020-01-12T09:15:17.000Z</time>
      </trkpt>
      <trkpt lat="43.60521" lon="0.54384">
        <ele>172</ele>
        <time>2020-01-12T09:15:19.000Z</time>
      </trkpt>
      <trkpt lat="43.60519" lon="0.54383">
        <ele>172</ele>
        <time>2020-01-12T09:15:21.000Z</time>
      </trkpt>
      <trkpt lat="43.60517" lon="0.54383">
        <ele>172</ele>
        <time>2020-01-12T09:15:23.000Z</time>
      </trkpt>
      <trkpt lat="43.60516" lon="0.54382">
        <ele>172</ele>
        <time>2020-01-12T09:15:25.000Z</time>
      </trkpt>
      <trkpt lat="43.60514" lon="0.54382">
        <ele>172</ele>
        <time>2020-01-12T09:15:27.000Z</time>
      </trkpt>
      <trkpt lat="43.60515" lon="0.5438">
        <ele>172</ele>
        <time>2020-01-12T09:15:29.000Z</time>
      </trkpt>
      <trkpt lat="43.60515" lon="0.54379">
        <ele>172</ele>
        <time>2020-01-12T09:15:31.000Z</time>
      </trkpt>
      <trkpt lat="43.60515" lon="0.54379">
        <ele>172</ele>
        <time>2020-01-12T09:15:33.000Z</time>
      </trkpt>
      <trkpt lat="43.60514" lon="0.54379">
        <ele>172</ele>
        <time>2020-01-12T09:15:35.000Z</time>
      </trkpt>
      <trkpt lat="43.60514" lon="0.54379">
        <ele>172</ele>
        <time>2020-01-12T09:15:37.000Z</time>
      </trkpt>
      <trkpt lat="43.60514" lon="0.54378">
        <ele>172</ele>
        <time>2020-01-12T09:15:39.000Z</time>
      </trkpt>
      <trkpt lat="43.60514" lon="0.54378">
        <ele>172</ele>
        <time>2020-01-12T09:15:41.000Z</time>
      </trkpt>
      <trkpt lat="43.60514" lon="0.54376">
        <ele>172</ele>
        <time>2020-01-12T09:15:43.000Z</time>
      </trkpt>
      <trkpt lat="43.60514" lon="0.54374">
        <ele>172</ele>
        <time>2020-01-12T09:15:45.000Z</time>
      </trkpt>
      <trkpt lat="43.60514" lon="0.54374">
        <ele>172</ele>
        <time>2020-01-12T09:15:47.000Z</time>
      </trkpt>
      <trkpt lat="43.60514" lon="0.54373">
        <ele>172</ele>
        <time>2020-01-12T09:15:49.000Z</time>
      </trkpt>
      <trkpt lat="43.60514" lon="0.54374">
        <ele>172</ele>
        <time>2020-01-12T09:15:51.000Z</time>
      </trkpt>
      <trkpt lat="43.60514" lon="0.54374">
        <ele>172</ele>
        <time>2020-01-12T09:15:53.000Z</time>
      </trkpt>
      <trkpt lat="43.60512" lon="0.54373">
        <ele>172</ele>
        <time>2020-01-12T09:15:55.000Z</time>
      </trkpt>
      <trkpt lat="43.60511" lon="0.54372">
        <ele>172</ele>
        <time>2020-01-12T09:15:57.000Z</time>
      </trkpt>
      <trkpt lat="43.60509" lon="0.54372">
        <ele>172</ele>
        <time>2020-01-12T09:15:59.000Z</time>
      </trkpt>
      <trkpt lat="43.60507" lon="0.54372">
        <ele>172</ele>
        <time>2020-01-12T09:16:01.000Z</time>
      </trkpt>
      <trkpt lat="43.60504" lon="0.54371">
        <ele>171</ele>
        <time>2020-01-12T09:16:03.000Z</time>
      </trkpt>
      <trkpt lat="43.60502" lon="0.54371">
        <ele>171</ele>
        <time>2020-01-12T09:16:05.000Z</time>
      </trkpt>
      <trkpt lat="43.605" lon="0.54371">
        <ele>171</ele>
        <time>2020-01-12T09:16:07.000Z</time>
      </trkpt>
      <trkpt lat="43.60498" lon="0.54371">
        <ele>171</ele>
        <time>2020-01-12T09:16:09.000Z</time>
      </trkpt>
      <trkpt lat="43.60496" lon="0.5437">
        <ele>171</ele>
        <time>2020-01-12T09:16:11.000Z</time>
      </trkpt>
      <trkpt lat="43.60494" lon="0.54369">
        <ele>171</ele>
        <time>2020-01-12T09:16:13.000Z</time>
      </trkpt>
      <trkpt lat="43.60492" lon="0.54369">
        <ele>171</ele>
        <time>2020-01-12T09:16:15.000Z</time>
      </trkpt>
      <trkpt lat="43.6049" lon="0.54369">
        <ele>171</ele>
        <time>2020-01-12T09:16:17.000Z</time>
      </trkpt>
      <trkpt lat="43.60487" lon="0.54368">
        <ele>171</ele>
        <time>2020-01-12T09:16:19.000Z</time>
      </trkpt>
      <trkpt lat="43.60485" lon="0.54368">
        <ele>171</ele>
        <time>2020-01-12T09:16:21.000Z</time>
      </trkpt>
      <trkpt lat="43.60482" lon="0.54367">
        <ele>171</ele>
        <time>2020-01-12T09:16:23.000Z</time>
      </trkpt>
      <trkpt lat="43.60479" lon="0.54367">
        <ele>171</ele>
        <time>2020-01-12T09:16:25.000Z</time>
      </trkpt>
      <trkpt lat="43.60477" lon="0.54366">
        <ele>171</ele>
        <time>2020-01-12T09:16:27.000Z</time>
      </trkpt>
      <trkpt lat="43.60475" lon="0.54365">
        <ele>170</ele>
        <time>2020-01-12T09:16:29.000Z</time>
      </trkpt>
      <trkpt lat="43.60472" lon="0.54365">
        <ele>170</ele>
        <time>2020-01-12T09:16:31.000Z</time>
      </trkpt>
      <trkpt lat="43.6047" lon="0.54364">
        <ele>170</ele>
        <time>2020-01-12T09:16:33.000Z</time>
      </trkpt>
      <trkpt lat="43.60467" lon="0.54364">
        <ele>170</ele>
        <time>2020-01-12T09:16:35.000Z</time>
      </trkpt>
      <trkpt lat="43.60465" lon="0.54363">
        <ele>170</ele>
        <time>2020-01-12T09:16:37.000Z</time>
      </trkpt>
      <trkpt lat="43.60463" lon="0.54362">
        <ele>170</ele>
        <time>2020-01-12T09:16:39.000Z</time>
      </trkpt>
      <trkpt lat="43.60461" lon="0.54361">
        <ele>170</ele>
        <time>2020-01-12T09:16:41.000Z</time>
      </trkpt>
      <trkpt lat="43.60459" lon="0.5436">
        <ele>170</ele>
        <time>2020-01-12T09:16:43.000Z</time>
      </trkpt>
      <trkpt lat="43.60457" lon="0.5436">
        <ele>170</ele>
        <time>2020-01-12T09:16:45.000Z</time>
      </trkpt>
      <trkpt lat="43.60455" lon="0.54358">
        <ele>170</ele>
        <time>2020-01-12T09:16:47.000Z</time>
      </trkpt>
      <trkpt lat="43.60453" lon="0.54357">
        <ele>170</ele>
        <time>2020-01-12T09:16:49.000Z</time>
      </trkpt>
      <trkpt lat="43.60451" lon="0.54357">
        <ele>170</ele>
        <time>2020-01-12T09:16:51.000Z</time>
      </trkpt>
      <trkpt lat="43.60448" lon="0.54355">
        <ele>169</ele>
        <time>2020-01-12T09:16:53.000Z</time>
      </trkpt>
      <trkpt lat="43.60447" lon="0.54354">
        <ele>169</ele>
        <time>2020-01-12T09:16:55.000Z</time>
      </trkpt>
      <trkpt lat="43.60445" lon="0.54352">
        <ele>169</ele>
        <time>2020-01-12T09:16:57.000Z</time>
      </trkpt>
      <trkpt lat="43.60444" lon="0.54349">
        <ele>169</ele>
        <time>2020-01-12T09:16:59.000Z</time>
      </trkpt>
      <trkpt lat="43.60443" lon="0.54346">
        <ele>169</ele>
        <time>2020-01-12T09:17:01.000Z</time>
      </trkpt>
      <trkpt lat="43.60442" lon="0.54342">
        <ele>169</ele>
        <time>2020-01-12T09:17:03.000Z</time>
      </trkpt>
      <trkpt lat="43.60442" lon="0.5434">
        <ele>169</ele>
        <time>2020-01-12T09:17:05.000Z</time>
      </trkpt>
      <trkpt lat="43.60442" lon="0.54338">
        <ele>169</ele>
        <time>2020-01-12T09:17:07.000Z</time>
      </trkpt>
      <trkpt lat="43.60443" lon="0.54338">
        <ele>169</ele>
        <time>2020-01-12T09:17:09.000Z</time>
      </trkpt>
      <trkpt lat="43.60443" lon="0.54338">
        <ele>169</ele>
        <time>2020-01-12T09:17:11.000Z</time>
      </trkpt>
      <trkpt lat="43.60441" lon="0.54337">
        <ele>169</ele>
        <time>2020-01-12T09:17:13.000Z</time>
      </trkpt>
      <trkpt lat="43.60441" lon="0.54334">
        <ele>169</ele>
        <time>2020-01-12T09:17:15.000Z</time>
      </trkpt>
      <trkpt lat="43.60441" lon="0.54334">
        <ele>169</ele>
        <time>2020-01-12T09:17:17.000Z</time>
      </trkpt>
      <trkpt lat="43.60441" lon="0.54334">
        <ele>169</ele>
        <time>2020-01-12T09:17:19.000Z</time>
      </trkpt>
      <trkpt lat="43.6044" lon="0.54334">
        <ele>169</ele>
        <time>2020-01-12T09:17:21.000Z</time>
      </trkpt>
      <trkpt lat="43.6044" lon="0.5433">
        <ele>169</ele>
        <time>2020-01-12T09:17:23.000Z</time>
      </trkpt>
      <trkpt lat="43.60438" lon="0.54328">
        <ele>169</ele>
        <time>2020-01-12T09:17:25.000Z</time>
      </trkpt>
      <trkpt lat="43.60436" lon="0.54324">
        <ele>169</ele>
        <time>2020-01-12T09:17:27.000Z</time>
      </trkpt>
      <trkpt lat="43.60435" lon="0.54321">
        <ele>169</ele>
        <time>2020-01-12T09:17:29.000Z</time>
      </trkpt>
      <trkpt lat="43.60433" lon="0.54318">
        <ele>169</ele>
        <time>2020-01-12T09:17:31.000Z</time>
      </trkpt>
      <trkpt lat="43.6043" lon="0.54315">
        <ele>169</ele>
        <time>2020-01-12T09:17:33.000Z</time>
      </trkpt>
      <trkpt lat="43.60428" lon="0.54313">
        <ele>169</ele>
        <time>2020-01-12T09:17:35.000Z</time>
      </trkpt>
      <trkpt lat="43.60426" lon="0.54311">
        <ele>169</ele>
        <time>2020-01-12T09:17:37.000Z</time>
      </trkpt>
      <trkpt lat="43.60424" lon="0.54309">
        <ele>169</ele>
        <time>2020-01-12T09:17:39.000Z</time>
      </trkpt>
      <trkpt lat="43.60421" lon="0.54308">
        <ele>169</ele>
        <time>2020-01-12T09:17:41.000Z</time>
      </trkpt>
      <trkpt lat="43.60418" lon="0.54307">
        <ele>169</ele>
        <time>2020-01-12T09:17:43.000Z</time>
      </trkpt>
      <trkpt lat="43.60415" lon="0.54306">
        <ele>169</ele>
        <time>2020-01-12T09:17:45.000Z</time>
      </trkpt>
      <trkpt lat="43.60413" lon="0.54305">
        <ele>169</ele>
        <time>2020-01-12T09:17:47.000Z</time>
      </trkpt>
      <trkpt lat="43.6041" lon="0.54305">
        <ele>169</ele>
        <time>2020-01-12T09:17:49.000Z</time>
      </trkpt>
      <trkpt lat="43.60407" lon="0.54305">
        <ele>169</ele>
        <time>2020-01-12T09:17:51.000Z</time>
      </trkpt>
      <trkpt lat="43.60404" lon="0.54306">
        <ele>169</ele>
        <time>2020-01-12T09:17:53.000Z</time>
      </trkpt>
      <trkpt lat="43.60401" lon="0.54306">
        <ele>169</ele>
        <time>2020-01-12T09:17:55.000Z</time>
      </trkpt>
      <trkpt lat="43.60398" lon="0.54307">
        <ele>169</ele>
        <time>2020-01-12T09:17:57.000Z</time>
      </trkpt>
      <trkpt lat="43.60396" lon="0.54307">
        <ele>169</ele>
        <time>2020-01-12T09:17:59.000Z</time>
      </trkpt>
      <trkpt lat="43.60393" lon="0.54306">
        <ele>168</ele>
        <time>2020-01-12T09:18:01.000Z</time>
      </trkpt>
      <trkpt lat="43.60391" lon="0.54306">
        <ele>168</ele>
        <time>2020-01-12T09:18:03.000Z</time>
      </trkpt>
      <trkpt lat="43.60388" lon="0.54305">
        <ele>168</ele>
        <time>2020-01-12T09:18:05.000Z</time>
      </trkpt>
      <trkpt lat="43.60386" lon="0.54304">
        <ele>168</ele>
        <time>2020-01-12T09:18:07.000Z</time>
      </trkpt>
      <trkpt lat="43.60384" lon="0.54303">
        <ele>168</ele>
        <time>2020-01-12T09:18:09.000Z</time>
      </trkpt>
      <trkpt lat="43.60381" lon="0.54303">
        <ele>168</ele>
        <time>2020-01-12T09:18:11.000Z</time>
      </trkpt>
      <trkpt lat="43.60379" lon="0.54302">
        <ele>168</ele>
        <time>2020-01-12T09:18:13.000Z</time>
      </trkpt>
      <trkpt lat="43.60377" lon="0.54301">
        <ele>168</ele>
        <time>2020-01-12T09:18:15.000Z</time>
      </trkpt>
      <trkpt lat="43.60374" lon="0.54301">
        <ele>168</ele>
        <time>2020-01-12T09:18:17.000Z</time>
      </trkpt>
      <trkpt lat="43.60371" lon="0.54301">
        <ele>168</ele>
        <time>2020-01-12T09:18:19.000Z</time>
      </trkpt>
      <trkpt lat="43.60368" lon="0.54301">
        <ele>168</ele>
        <time>2020-01-12T09:18:21.000Z</time>
      </trkpt>
      <trkpt lat="43.60366" lon="0.543">
        <ele>168</ele>
        <time>2020-01-12T09:18:23.000Z</time>
      </trkpt>
      <trkpt lat="43.60363" lon="0.54299">
        <ele>168</ele>
        <time>2020-01-12T09:18:25.000Z</time>
      </trkpt>
      <trkpt lat="43.6036" lon="0.54298">
        <ele>168</ele>
        <time>2020-01-12T09:18:27.000Z</time>
      </trkpt>
      <trkpt lat="43.60358" lon="0.54297">
        <ele>168</ele>
        <time>2020-01-12T09:18:29.000Z</time>
      </trkpt>
      <trkpt lat="43.60355" lon="0.54296">
        <ele>168</ele>
        <time>2020-01-12T09:18:31.000Z</time>
      </trkpt>
      <trkpt lat="43.60353" lon="0.54295">
        <ele>168</ele>
        <time>2020-01-12T09:18:33.000Z</time>
      </trkpt>
      <trkpt lat="43.6035" lon="0.54294">
        <ele>168</ele>
        <time>2020-01-12T09:18:35.000Z</time>
      </trkpt>
      <trkpt lat="43.60348" lon="0.54292">
        <ele>168</ele>
        <time>2020-01-12T09:18:37.000Z</time>
      </trkpt>
      <trkpt lat="43.60345" lon="0.54291">
        <ele>168</ele>
        <time>2020-01-12T09:18:39.000Z</time>
      </trkpt>
      <trkpt lat="43.60343" lon="0.5429">
        <ele>168</ele>
        <time>2020-01-12T09:18:41.000Z</time>
      </trkpt>
      <trkpt lat="43.60341" lon="0.54288">
        <ele>169</ele>
        <time>2020-01-12T09:18:43.000Z</time>
      </trkpt>
      <trkpt lat="43.60339" lon="0.54287">
        <ele>169</ele>
        <time>2020-01-12T09:18:45.000Z</time>
      </trkpt>
      <trkpt lat="43.60336" lon="0.54284">
        <ele>169</ele>
        <time>2020-01-12T09:18:47.000Z</time>
      </trkpt>
      <trkpt lat="43.60335" lon="0.54282">
        <ele>169</ele>
        <time>2020-01-12T09:18:49.000Z</time>
      </trkpt>
      <trkpt lat="43.60333" lon="0.54279">
        <ele>169</ele>
        <time>2020-01-12T09:18:51.000Z</time>
      </trkpt>
      <trkpt lat="43.60332" lon="0.54276">
        <ele>169</ele>
        <time>2020-01-12T09:18:53.000Z</time>
      </trkpt>
      <trkpt lat="43.60331" lon="0.54273">
        <ele>169</ele>
        <time>2020-01-12T09:18:55.000Z</time>
      </trkpt>
      <trkpt lat="43.60329" lon="0.54269">
        <ele>170</ele>
        <time>2020-01-12T09:18:57.000Z</time>
      </trkpt>
      <trkpt lat="43.60329" lon="0.54265">
        <ele>170</ele>
        <time>2020-01-12T09:18:59.000Z</time>
      </trkpt>
      <trkpt lat="43.60329" lon="0.54262">
        <ele>170</ele>
        <time>2020-01-12T09:19:01.000Z</time>
      </trkpt>
      <trkpt lat="43.60329" lon="0.54258">
        <ele>170</ele>
        <time>2020-01-12T09:19:03.000Z</time>
      </trkpt>
      <trkpt lat="43.60328" lon="0.54255">
        <ele>170</ele>
        <time>2020-01-12T09:19:05.000Z</time>
      </trkpt>
      <trkpt lat="43.60327" lon="0.54251">
        <ele>171</ele>
        <time>2020-01-12T09:19:07.000Z</time>
      </trkpt>
      <trkpt lat="43.60327" lon="0.54247">
        <ele>171</ele>
        <time>2020-01-12T09:19:09.000Z</time>
      </trkpt>
      <trkpt lat="43.60326" lon="0.54243">
        <ele>171</ele>
        <time>2020-01-12T09:19:11.000Z</time>
      </trkpt>
      <trkpt lat="43.60326" lon="0.5424">
        <ele>171</ele>
        <time>2020-01-12T09:19:13.000Z</time>
      </trkpt>
      <trkpt lat="43.60325" lon="0.54236">
        <ele>172</ele>
        <time>2020-01-12T09:19:15.000Z</time>
      </trkpt>
      <trkpt lat="43.60324" lon="0.54234">
        <ele>172</ele>
        <time>2020-01-12T09:19:17.000Z</time>
      </trkpt>
      <trkpt lat="43.60323" lon="0.54231">
        <ele>172</ele>
        <time>2020-01-12T09:19:19.000Z</time>
      </trkpt>
      <trkpt lat="43.60322" lon="0.54228">
        <ele>172</ele>
        <time>2020-01-12T09:19:21.000Z</time>
      </trkpt>
      <trkpt lat="43.60321" lon="0.54225">
        <ele>172</ele>
        <time>2020-01-12T09:19:23.000Z</time>
      </trkpt>
      <trkpt lat="43.60319" lon="0.54223">
        <ele>172</ele>
        <time>2020-01-12T09:19:25.000Z</time>
      </trkpt>
      <trkpt lat="43.60318" lon="0.54219">
        <ele>173</ele>
        <time>2020-01-12T09:19:27.000Z</time>
      </trkpt>
      <trkpt lat="43.60317" lon="0.54217">
        <ele>173</ele>
        <time>2020-01-12T09:19:29.000Z</time>
      </trkpt>
      <trkpt lat="43.60315" lon="0.54215">
        <ele>173</ele>
        <time>2020-01-12T09:19:31.000Z</time>
      </trkpt>
      <trkpt lat="43.60314" lon="0.54213">
        <ele>173</ele>
        <time>2020-01-12T09:19:33.000Z</time>
      </trkpt>
      <trkpt lat="43.60311" lon="0.54211">
        <ele>173</ele>
        <time>2020-01-12T09:19:35.000Z</time>
      </trkpt>
      <trkpt lat="43.60309" lon="0.54209">
        <ele>173</ele>
        <time>2020-01-12T09:19:37.000Z</time>
      </trkpt>
      <trkpt lat="43.60306" lon="0.54209">
        <ele>173</ele>
        <time>2020-01-12T09:19:39.000Z</time>
      </trkpt>
      <trkpt lat="43.60303" lon="0.54208">
        <ele>173</ele>
        <time>2020-01-12T09:19:41.000Z</time>
      </trkpt>
      <trkpt lat="43.60301" lon="0.54208">
        <ele>173</ele>
        <time>2020-01-12T09:19:43.000Z</time>
      </trkpt>
      <trkpt lat="43.60299" lon="0.54207">
        <ele>173</ele>
        <time>2020-01-12T09:19:45.000Z</time>
      </trkpt>
      <trkpt lat="43.60296" lon="0.54206">
        <ele>173</ele>
        <time>2020-01-12T09:19:47.000Z</time>
      </trkpt>
      <trkpt lat="43.60294" lon="0.54204">
        <ele>173</ele>
        <time>2020-01-12T09:19:49.000Z</time>
      </trkpt>
      <trkpt lat="43.60292" lon="0.54204">
        <ele>173</ele>
        <time>2020-01-12T09:19:51.000Z</time>
      </trkpt>
      <trkpt lat="43.60289" lon="0.54202">
        <ele>172</ele>
        <time>2020-01-12T09:19:53.000Z</time>
      </trkpt>
      <trkpt lat="43.60287" lon="0.54201">
        <ele>172</ele>
        <time>2020-01-12T09:19:55.000Z</time>
      </trkpt>
      <trkpt lat="43.60284" lon="0.542">
        <ele>172</ele>
        <time>2020-01-12T09:19:57.000Z</time>
      </trkpt>
      <trkpt lat="43.60282" lon="0.54199">
        <ele>172</ele>
        <time>2020-01-12T09:19:59.000Z</time>
      </trkpt>
      <trkpt lat="43.6028" lon="0.54198">
        <ele>172</ele>
        <time>2020-01-12T09:20:01.000Z</time>
      </trkpt>
      <trkpt lat="43.60278" lon="0.54197">
        <ele>172</ele>
        <time>2020-01-12T09:20:03.000Z</time>
      </trkpt>
      <trkpt lat="43.60275" lon="0.54197">
        <ele>172</ele>
        <time>2020-01-12T09:20:05.000Z</time>
      </trkpt>
      <trkpt lat="43.60273" lon="0.54196">
        <ele>172</ele>
        <time>2020-01-12T09:20:07.000Z</time>
      </trkpt>
      <trkpt lat="43.60271" lon="0.54195">
        <ele>172</ele>
        <time>2020-01-12T09:20:09.000Z</time>
      </trkpt>
      <trkpt lat="43.60269" lon="0.54194">
        <ele>172</ele>
        <time>2020-01-12T09:20:11.000Z</time>
      </trkpt>
      <trkpt lat="43.60266" lon="0.54193">
        <ele>172</ele>
        <time>2020-01-12T09:20:13.000Z</time>
      </trkpt>
      <trkpt lat="43.60264" lon="0.54192">
        <ele>172</ele>
        <time>2020-01-12T09:20:15.000Z</time>
      </trkpt>
      <trkpt lat="43.60263" lon="0.5419">
        <ele>172</ele>
        <time>2020-01-12T09:20:17.000Z</time>
      </trkpt>
      <trkpt lat="43.60262" lon="0.54187">
        <ele>173</ele>
        <time>2020-01-12T09:20:19.000Z</time>
      </trkpt>
      <trkpt lat="43.60261" lon="0.54187">
        <ele>173</ele>
        <time>2020-01-12T09:20:21.000Z</time>
      </trkpt>
      <trkpt lat="43.60258" lon="0.54187">
        <ele>173</ele>
        <time>2020-01-12T09:20:23.000Z</time>
      </trkpt>
      <trkpt lat="43.60255" lon="0.54185">
        <ele>173</ele>
        <time>2020-01-12T09:20:25.000Z</time>
      </trkpt>
      <trkpt lat="43.60253" lon="0.54184">
        <ele>173</ele>
        <time>2020-01-12T09:20:27.000Z</time>
      </trkpt>
      <trkpt lat="43.60251" lon="0.54183">
        <ele>173</ele>
        <time>2020-01-12T09:20:29.000Z</time>
      </trkpt>
      <trkpt lat="43.60248" lon="0.54183">
        <ele>173</ele>
        <time>2020-01-12T09:20:31.000Z</time>
      </trkpt>
      <trkpt lat="43.60246" lon="0.54182">
        <ele>173</ele>
        <time>2020-01-12T09:20:33.000Z</time>
      </trkpt>
      <trkpt lat="43.60243" lon="0.54181">
        <ele>173</ele>
        <time>2020-01-12T09:20:35.000Z</time>
      </trkpt>
      <trkpt lat="43.60241" lon="0.54181">
        <ele>173</ele>
        <time>2020-01-12T09:20:37.000Z</time>
      </trkpt>
      <trkpt lat="43.60239" lon="0.5418">
        <ele>173</ele>
        <time>2020-01-12T09:20:39.000Z</time>
      </trkpt>
      <trkpt lat="43.60237" lon="0.5418">
        <ele>174</ele>
        <time>2020-01-12T09:20:41.000Z</time>
      </trkpt>
      <trkpt lat="43.60235" lon="0.5418">
        <ele>174</ele>
        <time>2020-01-12T09:20:43.000Z</time>
      </trkpt>
      <trkpt lat="43.60232" lon="0.5418">
        <ele>174</ele>
        <time>2020-01-12T09:20:45.000Z</time>
      </trkpt>
      <trkpt lat="43.6023" lon="0.5418">
        <ele>174</ele>
        <time>2020-01-12T09:20:47.000Z</time>
      </trkpt>
      <trkpt lat="43.60227" lon="0.5418">
        <ele>174</ele>
        <time>2020-01-12T09:20:49.000Z</time>
      </trkpt>
      <trkpt lat="43.60225" lon="0.5418">
        <ele>174</ele>
        <time>2020-01-12T09:20:51.000Z</time>
      </trkpt>
      <trkpt lat="43.60223" lon="0.54181">
        <ele>173</ele>
        <time>2020-01-12T09:20:53.000Z</time>
      </trkpt>
      <trkpt lat="43.6022" lon="0.54181">
        <ele>173</ele>
        <time>2020-01-12T09:20:55.000Z</time>
      </trkpt>
      <trkpt lat="43.60218" lon="0.54181">
        <ele>173</ele>
        <time>2020-01-12T09:20:57.000Z</time>
      </trkpt>
      <trkpt lat="43.60216" lon="0.54181">
        <ele>173</ele>
        <time>2020-01-12T09:20:59.000Z</time>
      </trkpt>
      <trkpt lat="43.60213" lon="0.54181">
        <ele>173</ele>
        <time>2020-01-12T09:21:01.000Z</time>
      </trkpt>
      <trkpt lat="43.60211" lon="0.54181">
        <ele>173</ele>
        <time>2020-01-12T09:21:03.000Z</time>
      </trkpt>
      <trkpt lat="43.60209" lon="0.54182">
        <ele>173</ele>
        <time>2020-01-12T09:21:05.000Z</time>
      </trkpt>
      <trkpt lat="43.60207" lon="0.54183">
        <ele>173</ele>
        <time>2020-01-12T09:21:07.000Z</time>
      </trkpt>
      <trkpt lat="43.60204" lon="0.54183">
        <ele>173</ele>
        <time>2020-01-12T09:21:09.000Z</time>
      </trkpt>
      <trkpt lat="43.60202" lon="0.54183">
        <ele>173</ele>
        <time>2020-01-12T09:21:11.000Z</time>
      </trkpt>
      <trkpt lat="43.602" lon="0.54183">
        <ele>173</ele>
        <time>2020-01-12T09:21:13.000Z</time>
      </trkpt>
      <trkpt lat="43.60198" lon="0.54184">
        <ele>173</ele>
        <time>2020-01-12T09:21:15.000Z</time>
      </trkpt>
      <trkpt lat="43.60195" lon="0.54184">
        <ele>172</ele>
        <time>2020-01-12T09:21:17.000Z</time>
      </trkpt>
      <trkpt lat="43.60193" lon="0.54184">
        <ele>172</ele>
        <time>2020-01-12T09:21:19.000Z</time>
      </trkpt>
      <trkpt lat="43.60191" lon="0.54185">
        <ele>172</ele>
        <time>2020-01-12T09:21:21.000Z</time>
      </trkpt>
      <trkpt lat="43.60189" lon="0.54186">
        <ele>172</ele>
        <time>2020-01-12T09:21:23.000Z</time>
      </trkpt>
      <trkpt lat="43.60187" lon="0.54187">
        <ele>172</ele>
        <time>2020-01-12T09:21:25.000Z</time>
      </trkpt>
      <trkpt lat="43.60185" lon="0.54187">
        <ele>172</ele>
        <time>2020-01-12T09:21:27.000Z</time>
      </trkpt>
      <trkpt lat="43.60183" lon="0.54189">
        <ele>172</ele>
        <time>2020-01-12T09:21:29.000Z</time>
      </trkpt>
      <trkpt lat="43.60181" lon="0.54191">
        <ele>171</ele>
        <time>2020-01-12T09:21:31.000Z</time>
      </trkpt>
      <trkpt lat="43.60179" lon="0.54192">
        <ele>171</ele>
        <time>2020-01-12T09:21:33.000Z</time>
      </trkpt>
      <trkpt lat="43.60177" lon="0.54193">
        <ele>171</ele>
        <time>2020-01-12T09:21:35.000Z</time>
      </trkpt>
      <trkpt lat="43.60176" lon="0.54195">
        <ele>171</ele>
        <time>2020-01-12T09:21:37.000Z</time>
      </trkpt>
      <trkpt lat="43.60174" lon="0.54196">
        <ele>171</ele>
        <time>2020-01-12T09:21:39.000Z</time>
      </trkpt>
      <trkpt lat="43.60172" lon="0.54197">
        <ele>170</ele>
        <time>2020-01-12T09:21:41.000Z</time>
      </trkpt>
      <trkpt lat="43.6017" lon="0.542">
        <ele>170</ele>
        <time>2020-01-12T09:21:43.000Z</time>
      </trkpt>
      <trkpt lat="43.60168" lon="0.54201">
        <ele>170</ele>
        <time>2020-01-12T09:21:45.000Z</time>
      </trkpt>
      <trkpt lat="43.60166" lon="0.54203">
        <ele>170</ele>
        <time>2020-01-12T09:21:47.000Z</time>
      </trkpt>
      <trkpt lat="43.60164" lon="0.54204">
        <ele>170</ele>
        <time>2020-01-12T09:21:49.000Z</time>
      </trkpt>
      <trkpt lat="43.60162" lon="0.54205">
        <ele>170</ele>
        <time>2020-01-12T09:21:51.000Z</time>
      </trkpt>
      <trkpt lat="43.60159" lon="0.54207">
        <ele>170</ele>
        <time>2020-01-12T09:21:53.000Z</time>
      </trkpt>
      <trkpt lat="43.60157" lon="0.54208">
        <ele>170</ele>
        <time>2020-01-12T09:21:55.000Z</time>
      </trkpt>
      <trkpt lat="43.60155" lon="0.54207">
        <ele>170</ele>
        <time>2020-01-12T09:21:57.000Z</time>
      </trkpt>
      <trkpt lat="43.60153" lon="0.54208">
        <ele>170</ele>
        <time>2020-01-12T09:21:59.000Z</time>
      </trkpt>
      <trkpt lat="43.60151" lon="0.54209">
        <ele>170</ele>
        <time>2020-01-12T09:22:01.000Z</time>
      </trkpt>
      <trkpt lat="43.60148" lon="0.54209">
        <ele>169</ele>
        <time>2020-01-12T09:22:03.000Z</time>
      </trkpt>
      <trkpt lat="43.60146" lon="0.5421">
        <ele>169</ele>
        <time>2020-01-12T09:22:05.000Z</time>
      </trkpt>
      <trkpt lat="43.60144" lon="0.5421">
        <ele>169</ele>
        <time>2020-01-12T09:22:07.000Z</time>
      </trkpt>
      <trkpt lat="43.60142" lon="0.5421">
        <ele>169</ele>
        <time>2020-01-12T09:22:09.000Z</time>
      </trkpt>
      <trkpt lat="43.6014" lon="0.54209">
        <ele>169</ele>
        <time>2020-01-12T09:22:11.000Z</time>
      </trkpt>
      <trkpt lat="43.60138" lon="0.54209">
        <ele>170</ele>
        <time>2020-01-12T09:22:13.000Z</time>
      </trkpt>
      <trkpt lat="43.60136" lon="0.54208">
        <ele>170</ele>
        <time>2020-01-12T09:22:15.000Z</time>
      </trkpt>
      <trkpt lat="43.60134" lon="0.54208">
        <ele>170</ele>
        <time>2020-01-12T09:22:17.000Z</time>
      </trkpt>
      <trkpt lat="43.60131" lon="0.54207">
        <ele>170</ele>
        <time>2020-01-12T09:22:19.000Z</time>
      </trkpt>
      <trkpt lat="43.6013" lon="0.54206">
        <ele>170</ele>
        <time>2020-01-12T09:22:21.000Z</time>
      </trkpt>
      <trkpt lat="43.60128" lon="0.54205">
        <ele>170</ele>
        <time>2020-01-12T09:22:23.000Z</time>
      </trkpt>
      <trkpt lat="43.60126" lon="0.54205">
        <ele>170</ele>
        <time>2020-01-12T09:22:25.000Z</time>
      </trkpt>
      <trkpt lat="43.60124" lon="0.54205">
        <ele>170</ele>
        <time>2020-01-12T09:22:27.000Z</time>
      </trkpt>
      <trkpt lat="43.60121" lon="0.54204">
        <ele>170</ele>
        <time>2020-01-12T09:22:29.000Z</time>
      </trkpt>
      <trkpt lat="43.60119" lon="0.54204">
        <ele>170</ele>
        <time>2020-01-12T09:22:31.000Z</time>
      </trkpt>
      <trkpt lat="43.60116" lon="0.54204">
        <ele>170</ele>
        <time>2020-01-12T09:22:33.000Z</time>
      </trkpt>
      <trkpt lat="43.60114" lon="0.54204">
        <ele>170</ele>
        <time>2020-01-12T09:22:35.000Z</time>
      </trkpt>
      <trkpt lat="43.60112" lon="0.54204">
        <ele>170</ele>
        <time>2020-01-12T09:22:37.000Z</time>
      </trkpt>
      <trkpt lat="43.6011" lon="0.54204">
        <ele>170</ele>
        <time>2020-01-12T09:22:39.000Z</time>
      </trkpt>
      <trkpt lat="43.60109" lon="0.54202">
        <ele>170</ele>
        <time>2020-01-12T09:22:41.000Z</time>
      </trkpt>
      <trkpt lat="43.60107" lon="0.54201">
        <ele>170</ele>
        <time>2020-01-12T09:22:43.000Z</time>
      </trkpt>
      <trkpt lat="43.60106" lon="0.542">
        <ele>170</ele>
        <time>2020-01-12T09:22:45.000Z</time>
      </trkpt>
      <trkpt lat="43.60104" lon="0.542">
        <ele>170</ele>
        <time>2020-01-12T09:22:47.000Z</time>
      </trkpt>
      <trkpt lat="43.60103" lon="0.54199">
        <ele>170</ele>
        <time>2020-01-12T09:22:49.000Z</time>
      </trkpt>
      <trkpt lat="43.60102" lon="0.54199">
        <ele>170</ele>
        <time>2020-01-12T09:22:51.000Z</time>
      </trkpt>
      <trkpt lat="43.60102" lon="0.54199">
        <ele>170</ele>
        <time>2020-01-12T09:22:53.000Z</time>
      </trkpt>
      <trkpt lat="43.601" lon="0.54199">
        <ele>170</ele>
        <time>2020-01-12T09:22:55.000Z</time>
      </trkpt>
      <trkpt lat="43.60098" lon="0.54199">
        <ele>170</ele>
        <time>2020-01-12T09:22:57.000Z</time>
      </trkpt>
      <trkpt lat="43.60096" lon="0.54199">
        <ele>169</ele>
        <time>2020-01-12T09:22:59.000Z</time>
      </trkpt>
      <trkpt lat="43.60093" lon="0.54199">
        <ele>169</ele>
        <time>2020-01-12T09:23:01.000Z</time>
      </trkpt>
      <trkpt lat="43.60091" lon="0.54198">
        <ele>169</ele>
        <time>2020-01-12T09:23:03.000Z</time>
      </trkpt>
      <trkpt lat="43.60089" lon="0.54197">
        <ele>169</ele>
        <time>2020-01-12T09:23:05.000Z</time>
      </trkpt>
      <trkpt lat="43.60087" lon="0.54196">
        <ele>169</ele>
        <time>2020-01-12T09:23:07.000Z</time>
      </trkpt>
      <trkpt lat="43.60086" lon="0.54196">
        <ele>169</ele>
        <time>2020-01-12T09:23:09.000Z</time>
      </trkpt>
      <trkpt lat="43.60083" lon="0.54195">
        <ele>168</ele>
        <time>2020-01-12T09:23:11.000Z</time>
      </trkpt>
      <trkpt lat="43.60081" lon="0.54194">
        <ele>168</ele>
        <time>2020-01-12T09:23:13.000Z</time>
      </trkpt>
      <trkpt lat="43.60078" lon="0.54193">
        <ele>168</ele>
        <time>2020-01-12T09:23:15.000Z</time>
      </trkpt>
      <trkpt lat="43.60076" lon="0.54193">
        <ele>168</ele>
        <time>2020-01-12T09:23:17.000Z</time>
      </trkpt>
      <trkpt lat="43.60073" lon="0.54193">
        <ele>168</ele>
        <time>2020-01-12T09:23:19.000Z</time>
      </trkpt>
      <trkpt lat="43.60071" lon="0.54193">
        <ele>168</ele>
        <time>2020-01-12T09:23:21.000Z</time>
      </trkpt>
      <trkpt lat="43.60069" lon="0.54192">
        <ele>167</ele>
        <time>2020-01-12T09:23:23.000Z</time>
      </trkpt>
      <trkpt lat="43.60066" lon="0.54191">
        <ele>167</ele>
        <time>2020-01-12T09:23:25.000Z</time>
      </trkpt>
      <trkpt lat="43.60063" lon="0.5419">
        <ele>167</ele>
        <time>2020-01-12T09:23:27.000Z</time>
      </trkpt>
      <trkpt lat="43.60061" lon="0.5419">
        <ele>167</ele>
        <time>2020-01-12T09:23:29.000Z</time>
      </trkpt>
      <trkpt lat="43.60058" lon="0.54189">
        <ele>167</ele>
        <time>2020-01-12T09:23:31.000Z</time>
      </trkpt>
      <trkpt lat="43.60056" lon="0.54188">
        <ele>167</ele>
        <time>2020-01-12T09:23:33.000Z</time>
      </trkpt>
      <trkpt lat="43.60054" lon="0.54187">
        <ele>167</ele>
        <time>2020-01-12T09:23:35.000Z</time>
      </trkpt>
      <trkpt lat="43.60051" lon="0.54186">
        <ele>167</ele>
        <time>2020-01-12T09:23:37.000Z</time>
      </trkpt>
      <trkpt lat="43.60049" lon="0.54185">
        <ele>166</ele>
        <time>2020-01-12T09:23:39.000Z</time>
      </trkpt>
      <trkpt lat="43.60047" lon="0.54184">
        <ele>166</ele>
        <time>2020-01-12T09:23:41.000Z</time>
      </trkpt>
      <trkpt lat="43.60045" lon="0.54182">
        <ele>166</ele>
        <time>2020-01-12T09:23:43.000Z</time>
      </trkpt>
      <trkpt lat="43.60043" lon="0.54181">
        <ele>166</ele>
        <time>2020-01-12T09:23:45.000Z</time>
      </trkpt>
      <trkpt lat="43.6004" lon="0.5418">
        <ele>166</ele>
        <time>2020-01-12T09:23:47.000Z</time>
      </trkpt>
      <trkpt lat="43.60038" lon="0.54179">
        <ele>166</ele>
        <time>2020-01-12T09:23:49.000Z</time>
      </trkpt>
      <trkpt lat="43.60036" lon="0.54177">
        <ele>166</ele>
        <time>2020-01-12T09:23:51.000Z</time>
      </trkpt>
      <trkpt lat="43.60034" lon="0.54176">
        <ele>166</ele>
        <time>2020-01-12T09:23:53.000Z</time>
      </trkpt>
      <trkpt lat="43.60032" lon="0.54175">
        <ele>166</ele>
        <time>2020-01-12T09:23:55.000Z</time>
      </trkpt>
      <trkpt lat="43.6003" lon="0.54173">
        <ele>166</ele>
        <time>2020-01-12T09:23:57.000Z</time>
      </trkpt>
      <trkpt lat="43.60028" lon="0.54171">
        <ele>165</ele>
        <time>2020-01-12T09:23:59.000Z</time>
      </trkpt>
      <trkpt lat="43.60026" lon="0.54169">
        <ele>165</ele>
        <time>2020-01-12T09:24:01.000Z</time>
      </trkpt>
      <trkpt lat="43.60023" lon="0.54168">
        <ele>165</ele>
        <time>2020-01-12T09:24:03.000Z</time>
      </trkpt>
      <trkpt lat="43.60021" lon="0.54167">
        <ele>165</ele>
        <time>2020-01-12T09:24:05.000Z</time>
      </trkpt>
      <trkpt lat="43.60019" lon="0.54165">
        <ele>165</ele>
        <time>2020-01-12T09:24:07.000Z</time>
      </trkpt>
      <trkpt lat="43.60018" lon="0.54162">
        <ele>165</ele>
        <time>2020-01-12T09:24:09.000Z</time>
      </trkpt>
      <trkpt lat="43.60015" lon="0.54161">
        <ele>165</ele>
        <time>2020-01-12T09:24:11.000Z</time>
      </trkpt>
      <trkpt lat="43.60014" lon="0.54159">
        <ele>165</ele>
        <time>2020-01-12T09:24:13.000Z</time>
      </trkpt>
      <trkpt lat="43.60012" lon="0.54157">
        <ele>165</ele>
        <time>2020-01-12T09:24:15.000Z</time>
      </trkpt>
      <trkpt lat="43.6001" lon="0.54154">
        <ele>164</ele>
        <time>2020-01-12T09:24:17.000Z</time>
      </trkpt>
      <trkpt lat="43.60008" lon="0.54153">
        <ele>164</ele>
        <time>2020-01-12T09:24:19.000Z</time>
      </trkpt>
      <trkpt lat="43.60006" lon="0.54152">
        <ele>164</ele>
        <time>2020-01-12T09:24:21.000Z</time>
      </trkpt>
      <trkpt lat="43.60004" lon="0.5415">
        <ele>164</ele>
        <time>2020-01-12T09:24:23.000Z</time>
      </trkpt>
      <trkpt lat="43.60002" lon="0.54149">
        <ele>164</ele>
        <time>2020-01-12T09:24:25.000Z</time>
      </trkpt>
      <trkpt lat="43.6" lon="0.54147">
        <ele>164</ele>
        <time>2020-01-12T09:24:27.000Z</time>
      </trkpt>
      <trkpt lat="43.59998" lon="0.54146">
        <ele>164</ele>
        <time>2020-01-12T09:24:29.000Z</time>
      </trkpt>
      <trkpt lat="43.59996" lon="0.54144">
        <ele>163</ele>
        <time>2020-01-12T09:24:31.000Z</time>
      </trkpt>
      <trkpt lat="43.59994" lon="0.54143">
        <ele>163</ele>
        <time>2020-01-12T09:24:33.000Z</time>
      </trkpt>
      <trkpt lat="43.59992" lon="0.54141">
        <ele>163</ele>
        <time>2020-01-12T09:24:35.000Z</time>
      </trkpt>
      <trkpt lat="43.5999" lon="0.54139">
        <ele>163</ele>
        <time>2020-01-12T09:24:37.000Z</time>
      </trkpt>
      <trkpt lat="43.59989" lon="0.54139">
        <ele>163</ele>
        <time>2020-01-12T09:24:39.000Z</time>
      </trkpt>
      <trkpt lat="43.59986" lon="0.54137">
        <ele>163</ele>
        <time>2020-01-12T09:24:41.000Z</time>
      </trkpt>
      <trkpt lat="43.59985" lon="0.54136">
        <ele>163</ele>
        <time>2020-01-12T09:24:43.000Z</time>
      </trkpt>
      <trkpt lat="43.59983" lon="0.54133">
        <ele>162</ele>
        <time>2020-01-12T09:24:45.000Z</time>
      </trkpt>
      <trkpt lat="43.59981" lon="0.54132">
        <ele>162</ele>
        <time>2020-01-12T09:24:47.000Z</time>
      </trkpt>
      <trkpt lat="43.59979" lon="0.54131">
        <ele>162</ele>
        <time>2020-01-12T09:24:49.000Z</time>
      </trkpt>
      <trkpt lat="43.59977" lon="0.54129">
        <ele>162</ele>
        <time>2020-01-12T09:24:51.000Z</time>
      </trkpt>
      <trkpt lat="43.59975" lon="0.54128">
        <ele>162</ele>
        <time>2020-01-12T09:24:53.000Z</time>
      </trkpt>
      <trkpt lat="43.59973" lon="0.54126">
        <ele>162</ele>
        <time>2020-01-12T09:24:55.000Z</time>
      </trkpt>
      <trkpt lat="43.59971" lon="0.54125">
        <ele>162</ele>
        <time>2020-01-12T09:24:57.000Z</time>
      </trkpt>
      <trkpt lat="43.5997" lon="0.54123">
        <ele>162</ele>
        <time>2020-01-12T09:24:59.000Z</time>
      </trkpt>
      <trkpt lat="43.59968" lon="0.54122">
        <ele>162</ele>
        <time>2020-01-12T09:25:01.000Z</time>
      </trkpt>
      <trkpt lat="43.59967" lon="0.5412">
        <ele>161</ele>
        <time>2020-01-12T09:25:03.000Z</time>
      </trkpt>
      <trkpt lat="43.59967" lon="0.54118">
        <ele>161</ele>
        <time>2020-01-12T09:25:05.000Z</time>
      </trkpt>
      <trkpt lat="43.59967" lon="0.54117">
        <ele>161</ele>
        <time>2020-01-12T09:25:07.000Z</time>
      </trkpt>
      <trkpt lat="43.59967" lon="0.54116">
        <ele>162</ele>
        <time>2020-01-12T09:25:09.000Z</time>
      </trkpt>
      <trkpt lat="43.59966" lon="0.54115">
        <ele>161</ele>
        <time>2020-01-12T09:25:11.000Z</time>
      </trkpt>
      <trkpt lat="43.59967" lon="0.54113">
        <ele>162</ele>
        <time>2020-01-12T09:25:13.000Z</time>
      </trkpt>
      <trkpt lat="43.59967" lon="0.54113">
        <ele>162</ele>
        <time>2020-01-12T09:25:15.000Z</time>
      </trkpt>
      <trkpt lat="43.59967" lon="0.54113">
        <ele>162</ele>
        <time>2020-01-12T09:25:17.000Z</time>
      </trkpt>
      <trkpt lat="43.59967" lon="0.54113">
        <ele>162</ele>
        <time>2020-01-12T09:25:19.000Z</time>
      </trkpt>
      <trkpt lat="43.59966" lon="0.54113">
        <ele>161</ele>
        <time>2020-01-12T09:25:21.000Z</time>
      </trkpt>
      <trkpt lat="43.59966" lon="0.54112">
        <ele>161</ele>
        <time>2020-01-12T09:25:23.000Z</time>
      </trkpt>
      <trkpt lat="43.59966" lon="0.54111">
        <ele>161</ele>
        <time>2020-01-12T09:25:25.000Z</time>
      </trkpt>
      <trkpt lat="43.59966" lon="0.54111">
        <ele>162</ele>
        <time>2020-01-12T09:25:27.000Z</time>
      </trkpt>
      <trkpt lat="43.59966" lon="0.54111">
        <ele>162</ele>
        <time>2020-01-12T09:25:29.000Z</time>
      </trkpt>
      <trkpt lat="43.59966" lon="0.54111">
        <ele>162</ele>
        <time>2020-01-12T09:25:31.000Z</time>
      </trkpt>
      <trkpt lat="43.59966" lon="0.5411">
        <ele>162</ele>
        <time>2020-01-12T09:25:33.000Z</time>
      </trkpt>
      <trkpt lat="43.59966" lon="0.5411">
        <ele>162</ele>
        <time>2020-01-12T09:25:35.000Z</time>
      </trkpt>
      <trkpt lat="43.59966" lon="0.54109">
        <ele>162</ele>
        <time>2020-01-12T09:25:37.000Z</time>
      </trkpt>
      <trkpt lat="43.59966" lon="0.54107">
        <ele>162</ele>
        <time>2020-01-12T09:25:39.000Z</time>
      </trkpt>
      <trkpt lat="43.59966" lon="0.54106">
        <ele>162</ele>
        <time>2020-01-12T09:25:41.000Z</time>
      </trkpt>
      <trkpt lat="43.59966" lon="0.54105">
        <ele>162</ele>
        <time>2020-01-12T09:25:43.000Z</time>
      </trkpt>
      <trkpt lat="43.59966" lon="0.54105">
        <ele>162</ele>
        <time>2020-01-12T09:25:45.000Z</time>
      </trkpt>
      <trkpt lat="43.59966" lon="0.54105">
        <ele>162</ele>
        <time>2020-01-12T09:25:47.000Z</time>
      </trkpt>
      <trkpt lat="43.59966" lon="0.54105">
        <ele>162</ele>
        <time>2020-01-12T09:25:49.000Z</time>
      </trkpt>
      <trkpt lat="43.59967" lon="0.54104">
        <ele>162</ele>
        <time>2020-01-12T09:25:51.000Z</time>
      </trkpt>
      <trkpt lat="43.59967" lon="0.54104">
        <ele>162</ele>
        <time>2020-01-12T09:25:53.000Z</time>
      </trkpt>
      <trkpt lat="43.59967" lon="0.54104">
        <ele>162</ele>
        <time>2020-01-12T09:25:55.000Z</time>
      </trkpt>
      <trkpt lat="43.59968" lon="0.54104">
        <ele>162</ele>
        <time>2020-01-12T09:25:57.000Z</time>
      </trkpt>
      <trkpt lat="43.59968" lon="0.54105">
        <ele>162</ele>
        <time>2020-01-12T09:25:59.000Z</time>
      </trkpt>
      <trkpt lat="43.59968" lon="0.54105">
        <ele>162</ele>
        <time>2020-01-12T09:26:01.000Z</time>
      </trkpt>
      <trkpt lat="43.59968" lon="0.54105">
        <ele>162</ele>
        <time>2020-01-12T09:26:03.000Z</time>
      </trkpt>
      <trkpt lat="43.59969" lon="0.54104">
        <ele>162</ele>
        <time>2020-01-12T09:26:05.000Z</time>
      </trkpt>
      <trkpt lat="43.59969" lon="0.54105">
        <ele>162</ele>
        <time>2020-01-12T09:26:07.000Z</time>
      </trkpt>
      <trkpt lat="43.5997" lon="0.54105">
        <ele>162</ele>
        <time>2020-01-12T09:26:09.000Z</time>
      </trkpt>
      <trkpt lat="43.5997" lon="0.54105">
        <ele>162</ele>
        <time>2020-01-12T09:26:11.000Z</time>
      </trkpt>
      <trkpt lat="43.5997" lon="0.54105">
        <ele>162</ele>
        <time>2020-01-12T09:26:13.000Z</time>
      </trkpt>
      <trkpt lat="43.59969" lon="0.54105">
        <ele>162</ele>
        <time>2020-01-12T09:26:15.000Z</time>
      </trkpt>
      <trkpt lat="43.59969" lon="0.54105">
        <ele>162</ele>
        <time>2020-01-12T09:26:17.000Z</time>
      </trkpt>
      <trkpt lat="43.59969" lon="0.54105">
        <ele>162</ele>
        <time>2020-01-12T09:26:19.000Z</time>
      </trkpt>
      <trkpt lat="43.59969" lon="0.54105">
        <ele>162</ele>
        <time>2020-01-12T09:26:21.000Z</time>
      </trkpt>
      <trkpt lat="43.59969" lon="0.54105">
        <ele>162</ele>
        <time>2020-01-12T09:26:23.000Z</time>
      </trkpt>
      <trkpt lat="43.5997" lon="0.54104">
        <ele>162</ele>
        <time>2020-01-12T09:26:25.000Z</time>
      </trkpt>
      <trkpt lat="43.59972" lon="0.54102">
        <ele>162</ele>
        <time>2020-01-12T09:26:27.000Z</time>
      </trkpt>
      <trkpt lat="43.59973" lon="0.54101">
        <ele>162</ele>
        <time>2020-01-12T09:26:29.000Z</time>
      </trkpt>
      <trkpt lat="43.59975" lon="0.54098">
        <ele>162</ele>
        <time>2020-01-12T09:26:31.000Z</time>
      </trkpt>
      <trkpt lat="43.59976" lon="0.54096">
        <ele>162</ele>
        <time>2020-01-12T09:26:33.000Z</time>
      </trkpt>
      <trkpt lat="43.59977" lon="0.54093">
        <ele>163</ele>
        <time>2020-01-12T09:26:35.000Z</time>
      </trkpt>
      <trkpt lat="43.59978" lon="0.54091">
        <ele>163</ele>
        <time>2020-01-12T09:26:37.000Z</time>
      </trkpt>
      <trkpt lat="43.5998" lon="0.54089">
        <ele>163</ele>
        <time>2020-01-12T09:26:39.000Z</time>
      </trkpt>
      <trkpt lat="43.59981" lon="0.54086">
        <ele>163</ele>
        <time>2020-01-12T09:26:41.000Z</time>
      </trkpt>
      <trkpt lat="43.59982" lon="0.54084">
        <ele>163</ele>
        <time>2020-01-12T09:26:43.000Z</time>
      </trkpt>
      <trkpt lat="43.59984" lon="0.54082">
        <ele>163</ele>
        <time>2020-01-12T09:26:45.000Z</time>
      </trkpt>
      <trkpt lat="43.59985" lon="0.54079">
        <ele>163</ele>
        <time>2020-01-12T09:26:47.000Z</time>
      </trkpt>
      <trkpt lat="43.59986" lon="0.54077">
        <ele>163</ele>
        <time>2020-01-12T09:26:49.000Z</time>
      </trkpt>
      <trkpt lat="43.59988" lon="0.54075">
        <ele>163</ele>
        <time>2020-01-12T09:26:51.000Z</time>
      </trkpt>
      <trkpt lat="43.59989" lon="0.54073">
        <ele>163</ele>
        <time>2020-01-12T09:26:53.000Z</time>
      </trkpt>
      <trkpt lat="43.59991" lon="0.54071">
        <ele>163</ele>
        <time>2020-01-12T09:26:55.000Z</time>
      </trkpt>
      <trkpt lat="43.59992" lon="0.54069">
        <ele>163</ele>
        <time>2020-01-12T09:26:57.000Z</time>
      </trkpt>
      <trkpt lat="43.59993" lon="0.54068">
        <ele>163</ele>
        <time>2020-01-12T09:26:59.000Z</time>
      </trkpt>
      <trkpt lat="43.59995" lon="0.54066">
        <ele>164</ele>
        <time>2020-01-12T09:27:01.000Z</time>
      </trkpt>
      <trkpt lat="43.59996" lon="0.54064">
        <ele>164</ele>
        <time>2020-01-12T09:27:03.000Z</time>
      </trkpt>
      <trkpt lat="43.59998" lon="0.54062">
        <ele>164</ele>
        <time>2020-01-12T09:27:05.000Z</time>
      </trkpt>
      <trkpt lat="43.59999" lon="0.54061">
        <ele>164</ele>
        <time>2020-01-12T09:27:07.000Z</time>
      </trkpt>
      <trkpt lat="43.60001" lon="0.54059">
        <ele>164</ele>
        <time>2020-01-12T09:27:09.000Z</time>
      </trkpt>
      <trkpt lat="43.60003" lon="0.54057">
        <ele>164</ele>
        <time>2020-01-12T09:27:11.000Z</time>
      </trkpt>
      <trkpt lat="43.60005" lon="0.54056">
        <ele>164</ele>
        <time>2020-01-12T09:27:13.000Z</time>
      </trkpt>
      <trkpt lat="43.60007" lon="0.54054">
        <ele>164</ele>
        <time>2020-01-12T09:27:15.000Z</time>
      </trkpt>
      <trkpt lat="43.60008" lon="0.54053">
        <ele>164</ele>
        <time>2020-01-12T09:27:17.000Z</time>
      </trkpt>
      <trkpt lat="43.6001" lon="0.54051">
        <ele>165</ele>
        <time>2020-01-12T09:27:19.000Z</time>
      </trkpt>
      <trkpt lat="43.60012" lon="0.5405">
        <ele>165</ele>
        <time>2020-01-12T09:27:21.000Z</time>
      </trkpt>
      <trkpt lat="43.60014" lon="0.54049">
        <ele>165</ele>
        <time>2020-01-12T09:27:23.000Z</time>
      </trkpt>
      <trkpt lat="43.60016" lon="0.54047">
        <ele>165</ele>
        <time>2020-01-12T09:27:25.000Z</time>
      </trkpt>
      <trkpt lat="43.60017" lon="0.54046">
        <ele>165</ele>
        <time>2020-01-12T09:27:27.000Z</time>
      </trkpt>
      <trkpt lat="43.6002" lon="0.54045">
        <ele>165</ele>
        <time>2020-01-12T09:27:29.000Z</time>
      </trkpt>
      <trkpt lat="43.60021" lon="0.54044">
        <ele>165</ele>
        <time>2020-01-12T09:27:31.000Z</time>
      </trkpt>
      <trkpt lat="43.60023" lon="0.54043">
        <ele>165</ele>
        <time>2020-01-12T09:27:33.000Z</time>
      </trkpt>
      <trkpt lat="43.60025" lon="0.54042">
        <ele>165</ele>
        <time>2020-01-12T09:27:35.000Z</time>
      </trkpt>
      <trkpt lat="43.60026" lon="0.5404">
        <ele>165</ele>
        <time>2020-01-12T09:27:37.000Z</time>
      </trkpt>
      <trkpt lat="43.60027" lon="0.54038">
        <ele>165</ele>
        <time>2020-01-12T09:27:39.000Z</time>
      </trkpt>
      <trkpt lat="43.60027" lon="0.54036">
        <ele>165</ele>
        <time>2020-01-12T09:27:41.000Z</time>
      </trkpt>
      <trkpt lat="43.60028" lon="0.54035">
        <ele>165</ele>
        <time>2020-01-12T09:27:43.000Z</time>
      </trkpt>
      <trkpt lat="43.60029" lon="0.54034">
        <ele>165</ele>
        <time>2020-01-12T09:27:45.000Z</time>
      </trkpt>
      <trkpt lat="43.60029" lon="0.54035">
        <ele>166</ele>
        <time>2020-01-12T09:27:47.000Z</time>
      </trkpt>
      <trkpt lat="43.60029" lon="0.54034">
        <ele>165</ele>
        <time>2020-01-12T09:27:49.000Z</time>
      </trkpt>
      <trkpt lat="43.60029" lon="0.54034">
        <ele>165</ele>
        <time>2020-01-12T09:27:51.000Z</time>
      </trkpt>
      <trkpt lat="43.60029" lon="0.54034">
        <ele>165</ele>
        <time>2020-01-12T09:27:53.000Z</time>
      </trkpt>
      <trkpt lat="43.60029" lon="0.54034">
        <ele>165</ele>
        <time>2020-01-12T09:27:55.000Z</time>
      </trkpt>
      <trkpt lat="43.60029" lon="0.54034">
        <ele>165</ele>
        <time>2020-01-12T09:27:57.000Z</time>
      </trkpt>
      <trkpt lat="43.60029" lon="0.54034">
        <ele>165</ele>
        <time>2020-01-12T09:27:59.000Z</time>
      </trkpt>
      <trkpt lat="43.60028" lon="0.54034">
        <ele>165</ele>
        <time>2020-01-12T09:28:01.000Z</time>
      </trkpt>
      <trkpt lat="43.60029" lon="0.54034">
        <ele>165</ele>
        <time>2020-01-12T09:28:03.000Z</time>
      </trkpt>
      <trkpt lat="43.60029" lon="0.54035">
        <ele>166</ele>
        <time>2020-01-12T09:28:05.000Z</time>
      </trkpt>
      <trkpt lat="43.60031" lon="0.54036">
        <ele>166</ele>
        <time>2020-01-12T09:28:07.000Z</time>
      </trkpt>
      <trkpt lat="43.60032" lon="0.54036">
        <ele>166</ele>
        <time>2020-01-12T09:28:09.000Z</time>
      </trkpt>
      <trkpt lat="43.60035" lon="0.54035">
        <ele>166</ele>
        <time>2020-01-12T09:28:11.000Z</time>
      </trkpt>
      <trkpt lat="43.60037" lon="0.54034">
        <ele>166</ele>
        <time>2020-01-12T09:28:13.000Z</time>
      </trkpt>
      <trkpt lat="43.6004" lon="0.54033">
        <ele>167</ele>
        <time>2020-01-12T09:28:15.000Z</time>
      </trkpt>
      <trkpt lat="43.60042" lon="0.54031">
        <ele>167</ele>
        <time>2020-01-12T09:28:17.000Z</time>
      </trkpt>
      <trkpt lat="43.60044" lon="0.5403">
        <ele>167</ele>
        <time>2020-01-12T09:28:19.000Z</time>
      </trkpt>
      <trkpt lat="43.60046" lon="0.54028">
        <ele>167</ele>
        <time>2020-01-12T09:28:21.000Z</time>
      </trkpt>
      <trkpt lat="43.60048" lon="0.54027">
        <ele>167</ele>
        <time>2020-01-12T09:28:23.000Z</time>
      </trkpt>
      <trkpt lat="43.60051" lon="0.54025">
        <ele>168</ele>
        <time>2020-01-12T09:28:25.000Z</time>
      </trkpt>
      <trkpt lat="43.60053" lon="0.54024">
        <ele>168</ele>
        <time>2020-01-12T09:28:27.000Z</time>
      </trkpt>
      <trkpt lat="43.60055" lon="0.54022">
        <ele>168</ele>
        <time>2020-01-12T09:28:29.000Z</time>
      </trkpt>
      <trkpt lat="43.60057" lon="0.5402">
        <ele>168</ele>
        <time>2020-01-12T09:28:31.000Z</time>
      </trkpt>
      <trkpt lat="43.60059" lon="0.54018">
        <ele>168</ele>
        <time>2020-01-12T09:28:33.000Z</time>
      </trkpt>
      <trkpt lat="43.60061" lon="0.54016">
        <ele>168</ele>
        <time>2020-01-12T09:28:35.000Z</time>
      </trkpt>
      <trkpt lat="43.60063" lon="0.54014">
        <ele>169</ele>
        <time>2020-01-12T09:28:37.000Z</time>
      </trkpt>
      <trkpt lat="43.60065" lon="0.54012">
        <ele>169</ele>
        <time>2020-01-12T09:28:39.000Z</time>
      </trkpt>
      <trkpt lat="43.60066" lon="0.5401">
        <ele>169</ele>
        <time>2020-01-12T09:28:41.000Z</time>
      </trkpt>
      <trkpt lat="43.60068" lon="0.54006">
        <ele>169</ele>
        <time>2020-01-12T09:28:43.000Z</time>
      </trkpt>
      <trkpt lat="43.60069" lon="0.54004">
        <ele>169</ele>
        <time>2020-01-12T09:28:45.000Z</time>
      </trkpt>
      <trkpt lat="43.6007" lon="0.54001">
        <ele>169</ele>
        <time>2020-01-12T09:28:47.000Z</time>
      </trkpt>
      <trkpt lat="43.60071" lon="0.53998">
        <ele>169</ele>
        <time>2020-01-12T09:28:49.000Z</time>
      </trkpt>
      <trkpt lat="43.60072" lon="0.53995">
        <ele>169</ele>
        <time>2020-01-12T09:28:51.000Z</time>
      </trkpt>
      <trkpt lat="43.60073" lon="0.53993">
        <ele>169</ele>
        <time>2020-01-12T09:28:53.000Z</time>
      </trkpt>
      <trkpt lat="43.60074" lon="0.5399">
        <ele>169</ele>
        <time>2020-01-12T09:28:55.000Z</time>
      </trkpt>
      <trkpt lat="43.60075" lon="0.53986">
        <ele>169</ele>
        <time>2020-01-12T09:28:57.000Z</time>
      </trkpt>
      <trkpt lat="43.60075" lon="0.53985">
        <ele>169</ele>
        <time>2020-01-12T09:28:59.000Z</time>
      </trkpt>
      <trkpt lat="43.60075" lon="0.53982">
        <ele>169</ele>
        <time>2020-01-12T09:29:01.000Z</time>
      </trkpt>
      <trkpt lat="43.60075" lon="0.53979">
        <ele>169</ele>
        <time>2020-01-12T09:29:03.000Z</time>
      </trkpt>
      <trkpt lat="43.60075" lon="0.53976">
        <ele>169</ele>
        <time>2020-01-12T09:29:05.000Z</time>
      </trkpt>
      <trkpt lat="43.60075" lon="0.53973">
        <ele>169</ele>
        <time>2020-01-12T09:29:07.000Z</time>
      </trkpt>
      <trkpt lat="43.60076" lon="0.53969">
        <ele>169</ele>
        <time>2020-01-12T09:29:09.000Z</time>
      </trkpt>
      <trkpt lat="43.60076" lon="0.53967">
        <ele>169</ele>
        <time>2020-01-12T09:29:11.000Z</time>
      </trkpt>
      <trkpt lat="43.60077" lon="0.53964">
        <ele>169</ele>
        <time>2020-01-12T09:29:13.000Z</time>
      </trkpt>
      <trkpt lat="43.60077" lon="0.53961">
        <ele>169</ele>
        <time>2020-01-12T09:29:15.000Z</time>
      </trkpt>
      <trkpt lat="43.60077" lon="0.53959">
        <ele>169</ele>
        <time>2020-01-12T09:29:17.000Z</time>
      </trkpt>
      <trkpt lat="43.60076" lon="0.53956">
        <ele>169</ele>
        <time>2020-01-12T09:29:19.000Z</time>
      </trkpt>
      <trkpt lat="43.60076" lon="0.53953">
        <ele>169</ele>
        <time>2020-01-12T09:29:21.000Z</time>
      </trkpt>
      <trkpt lat="43.60076" lon="0.5395">
        <ele>169</ele>
        <time>2020-01-12T09:29:23.000Z</time>
      </trkpt>
      <trkpt lat="43.60076" lon="0.53947">
        <ele>169</ele>
        <time>2020-01-12T09:29:25.000Z</time>
      </trkpt>
      <trkpt lat="43.60076" lon="0.53944">
        <ele>169</ele>
        <time>2020-01-12T09:29:27.000Z</time>
      </trkpt>
      <trkpt lat="43.60075" lon="0.53941">
        <ele>169</ele>
        <time>2020-01-12T09:29:29.000Z</time>
      </trkpt>
      <trkpt lat="43.60075" lon="0.53938">
        <ele>169</ele>
        <time>2020-01-12T09:29:31.000Z</time>
      </trkpt>
      <trkpt lat="43.60074" lon="0.53935">
        <ele>169</ele>
        <time>2020-01-12T09:29:33.000Z</time>
      </trkpt>
      <trkpt lat="43.60074" lon="0.53932">
        <ele>169</ele>
        <time>2020-01-12T09:29:35.000Z</time>
      </trkpt>
      <trkpt lat="43.60074" lon="0.53929">
        <ele>169</ele>
        <time>2020-01-12T09:29:37.000Z</time>
      </trkpt>
      <trkpt lat="43.60074" lon="0.53926">
        <ele>168</ele>
        <time>2020-01-12T09:29:39.000Z</time>
      </trkpt>
      <trkpt lat="43.60073" lon="0.53923">
        <ele>168</ele>
        <time>2020-01-12T09:29:41.000Z</time>
      </trkpt>
      <trkpt lat="43.60073" lon="0.5392">
        <ele>168</ele>
        <time>2020-01-12T09:29:43.000Z</time>
      </trkpt>
      <trkpt lat="43.60073" lon="0.53916">
        <ele>168</ele>
        <time>2020-01-12T09:29:45.000Z</time>
      </trkpt>
      <trkpt lat="43.60073" lon="0.53913">
        <ele>168</ele>
        <time>2020-01-12T09:29:47.000Z</time>
      </trkpt>
      <trkpt lat="43.60073" lon="0.53909">
        <ele>168</ele>
        <time>2020-01-12T09:29:49.000Z</time>
      </trkpt>
      <trkpt lat="43.60073" lon="0.53906">
        <ele>168</ele>
        <time>2020-01-12T09:29:51.000Z</time>
      </trkpt>
      <trkpt lat="43.60072" lon="0.53903">
        <ele>168</ele>
        <time>2020-01-12T09:29:53.000Z</time>
      </trkpt>
      <trkpt lat="43.60072" lon="0.53899">
        <ele>168</ele>
        <time>2020-01-12T09:29:55.000Z</time>
      </trkpt>
      <trkpt lat="43.60072" lon="0.53897">
        <ele>168</ele>
        <time>2020-01-12T09:29:57.000Z</time>
      </trkpt>
      <trkpt lat="43.60072" lon="0.53893">
        <ele>168</ele>
        <time>2020-01-12T09:29:59.000Z</time>
      </trkpt>
      <trkpt lat="43.60072" lon="0.5389">
        <ele>168</ele>
        <time>2020-01-12T09:30:01.000Z</time>
      </trkpt>
      <trkpt lat="43.60072" lon="0.53886">
        <ele>168</ele>
        <time>2020-01-12T09:30:03.000Z</time>
      </trkpt>
      <trkpt lat="43.60071" lon="0.53883">
        <ele>168</ele>
        <time>2020-01-12T09:30:05.000Z</time>
      </trkpt>
      <trkpt lat="43.60071" lon="0.5388">
        <ele>168</ele>
        <time>2020-01-12T09:30:07.000Z</time>
      </trkpt>
      <trkpt lat="43.60071" lon="0.53876">
        <ele>168</ele>
        <time>2020-01-12T09:30:09.000Z</time>
      </trkpt>
      <trkpt lat="43.60071" lon="0.53874">
        <ele>168</ele>
        <time>2020-01-12T09:30:11.000Z</time>
      </trkpt>
      <trkpt lat="43.6007" lon="0.53871">
        <ele>168</ele>
        <time>2020-01-12T09:30:13.000Z</time>
      </trkpt>
      <trkpt lat="43.6007" lon="0.53868">
        <ele>168</ele>
        <time>2020-01-12T09:30:15.000Z</time>
      </trkpt>
      <trkpt lat="43.60069" lon="0.53864">
        <ele>168</ele>
        <time>2020-01-12T09:30:17.000Z</time>
      </trkpt>
      <trkpt lat="43.60069" lon="0.53861">
        <ele>167</ele>
        <time>2020-01-12T09:30:19.000Z</time>
      </trkpt>
      <trkpt lat="43.60068" lon="0.53858">
        <ele>167</ele>
        <time>2020-01-12T09:30:21.000Z</time>
      </trkpt>
      <trkpt lat="43.60068" lon="0.53855">
        <ele>167</ele>
        <time>2020-01-12T09:30:23.000Z</time>
      </trkpt>
      <trkpt lat="43.60068" lon="0.53852">
        <ele>167</ele>
        <time>2020-01-12T09:30:25.000Z</time>
      </trkpt>
      <trkpt lat="43.60067" lon="0.53849">
        <ele>167</ele>
        <time>2020-01-12T09:30:27.000Z</time>
      </trkpt>
      <trkpt lat="43.60068" lon="0.53846">
        <ele>167</ele>
        <time>2020-01-12T09:30:29.000Z</time>
      </trkpt>
      <trkpt lat="43.60067" lon="0.53842">
        <ele>167</ele>
        <time>2020-01-12T09:30:31.000Z</time>
      </trkpt>
      <trkpt lat="43.60067" lon="0.5384">
        <ele>167</ele>
        <time>2020-01-12T09:30:33.000Z</time>
      </trkpt>
      <trkpt lat="43.60066" lon="0.53837">
        <ele>167</ele>
        <time>2020-01-12T09:30:35.000Z</time>
      </trkpt>
      <trkpt lat="43.60066" lon="0.53833">
        <ele>167</ele>
        <time>2020-01-12T09:30:37.000Z</time>
      </trkpt>
      <trkpt lat="43.60066" lon="0.5383">
        <ele>167</ele>
        <time>2020-01-12T09:30:39.000Z</time>
      </trkpt>
      <trkpt lat="43.60066" lon="0.53826">
        <ele>167</ele>
        <time>2020-01-12T09:30:41.000Z</time>
      </trkpt>
      <trkpt lat="43.60065" lon="0.53823">
        <ele>167</ele>
        <time>2020-01-12T09:30:43.000Z</time>
      </trkpt>
      <trkpt lat="43.60065" lon="0.5382">
        <ele>167</ele>
        <time>2020-01-12T09:30:45.000Z</time>
      </trkpt>
      <trkpt lat="43.60065" lon="0.53817">
        <ele>167</ele>
        <time>2020-01-12T09:30:47.000Z</time>
      </trkpt>
      <trkpt lat="43.60065" lon="0.53814">
        <ele>167</ele>
        <time>2020-01-12T09:30:49.000Z</time>
      </trkpt>
      <trkpt lat="43.60064" lon="0.53811">
        <ele>167</ele>
        <time>2020-01-12T09:30:51.000Z</time>
      </trkpt>
      <trkpt lat="43.60064" lon="0.53808">
        <ele>166</ele>
        <time>2020-01-12T09:30:53.000Z</time>
      </trkpt>
      <trkpt lat="43.60064" lon="0.53807">
        <ele>166</ele>
        <time>2020-01-12T09:30:55.000Z</time>
      </trkpt>
      <trkpt lat="43.60065" lon="0.53804">
        <ele>166</ele>
        <time>2020-01-12T09:30:57.000Z</time>
      </trkpt>
      <trkpt lat="43.60065" lon="0.538">
        <ele>166</ele>
        <time>2020-01-12T09:30:59.000Z</time>
      </trkpt>
      <trkpt lat="43.60065" lon="0.53798">
        <ele>166</ele>
        <time>2020-01-12T09:31:01.000Z</time>
      </trkpt>
      <trkpt lat="43.60064" lon="0.53794">
        <ele>166</ele>
        <time>2020-01-12T09:31:03.000Z</time>
      </trkpt>
      <trkpt lat="43.60064" lon="0.5379">
        <ele>167</ele>
        <time>2020-01-12T09:31:05.000Z</time>
      </trkpt>
      <trkpt lat="43.60064" lon="0.53787">
        <ele>167</ele>
        <time>2020-01-12T09:31:07.000Z</time>
      </trkpt>
      <trkpt lat="43.60064" lon="0.53784">
        <ele>167</ele>
        <time>2020-01-12T09:31:09.000Z</time>
      </trkpt>
      <trkpt lat="43.60063" lon="0.53781">
        <ele>167</ele>
        <time>2020-01-12T09:31:11.000Z</time>
      </trkpt>
      <trkpt lat="43.60062" lon="0.53778">
        <ele>166</ele>
        <time>2020-01-12T09:31:13.000Z</time>
      </trkpt>
      <trkpt lat="43.60062" lon="0.53774">
        <ele>166</ele>
        <time>2020-01-12T09:31:15.000Z</time>
      </trkpt>
      <trkpt lat="43.60061" lon="0.53772">
        <ele>166</ele>
        <time>2020-01-12T09:31:17.000Z</time>
      </trkpt>
      <trkpt lat="43.60061" lon="0.5377">
        <ele>166</ele>
        <time>2020-01-12T09:31:19.000Z</time>
      </trkpt>
      <trkpt lat="43.60061" lon="0.53769">
        <ele>167</ele>
        <time>2020-01-12T09:31:21.000Z</time>
      </trkpt>
      <trkpt lat="43.60061" lon="0.53766">
        <ele>166</ele>
        <time>2020-01-12T09:31:23.000Z</time>
      </trkpt>
      <trkpt lat="43.6006" lon="0.53763">
        <ele>166</ele>
        <time>2020-01-12T09:31:25.000Z</time>
      </trkpt>
      <trkpt lat="43.6006" lon="0.5376">
        <ele>166</ele>
        <time>2020-01-12T09:31:27.000Z</time>
      </trkpt>
      <trkpt lat="43.6006" lon="0.53757">
        <ele>166</ele>
        <time>2020-01-12T09:31:29.000Z</time>
      </trkpt>
      <trkpt lat="43.6006" lon="0.53753">
        <ele>166</ele>
        <time>2020-01-12T09:31:31.000Z</time>
      </trkpt>
      <trkpt lat="43.60059" lon="0.5375">
        <ele>166</ele>
        <time>2020-01-12T09:31:33.000Z</time>
      </trkpt>
      <trkpt lat="43.60058" lon="0.53748">
        <ele>166</ele>
        <time>2020-01-12T09:31:35.000Z</time>
      </trkpt>
      <trkpt lat="43.60057" lon="0.53745">
        <ele>166</ele>
        <time>2020-01-12T09:31:37.000Z</time>
      </trkpt>
      <trkpt lat="43.60057" lon="0.53742">
        <ele>166</ele>
        <time>2020-01-12T09:31:39.000Z</time>
      </trkpt>
      <trkpt lat="43.60056" lon="0.5374">
        <ele>166</ele>
        <time>2020-01-12T09:31:41.000Z</time>
      </trkpt>
      <trkpt lat="43.60055" lon="0.53737">
        <ele>166</ele>
        <time>2020-01-12T09:31:43.000Z</time>
      </trkpt>
      <trkpt lat="43.60054" lon="0.53735">
        <ele>166</ele>
        <time>2020-01-12T09:31:45.000Z</time>
      </trkpt>
      <trkpt lat="43.60053" lon="0.53731">
        <ele>165</ele>
        <time>2020-01-12T09:31:47.000Z</time>
      </trkpt>
      <trkpt lat="43.60052" lon="0.53729">
        <ele>165</ele>
        <time>2020-01-12T09:31:49.000Z</time>
      </trkpt>
      <trkpt lat="43.6005" lon="0.53727">
        <ele>165</ele>
        <time>2020-01-12T09:31:51.000Z</time>
      </trkpt>
      <trkpt lat="43.6005" lon="0.53724">
        <ele>165</ele>
        <time>2020-01-12T09:31:53.000Z</time>
      </trkpt>
      <trkpt lat="43.60049" lon="0.53721">
        <ele>165</ele>
        <time>2020-01-12T09:31:55.000Z</time>
      </trkpt>
      <trkpt lat="43.60048" lon="0.53718">
        <ele>165</ele>
        <time>2020-01-12T09:31:57.000Z</time>
      </trkpt>
      <trkpt lat="43.60046" lon="0.53716">
        <ele>165</ele>
        <time>2020-01-12T09:31:59.000Z</time>
      </trkpt>
      <trkpt lat="43.60045" lon="0.53713">
        <ele>165</ele>
        <time>2020-01-12T09:32:01.000Z</time>
      </trkpt>
      <trkpt lat="43.60044" lon="0.5371">
        <ele>165</ele>
        <time>2020-01-12T09:32:03.000Z</time>
      </trkpt>
      <trkpt lat="43.60042" lon="0.53708">
        <ele>165</ele>
        <time>2020-01-12T09:32:05.000Z</time>
      </trkpt>
      <trkpt lat="43.60041" lon="0.53709">
        <ele>165</ele>
        <time>2020-01-12T09:32:07.000Z</time>
      </trkpt>
      <trkpt lat="43.60039" lon="0.53709">
        <ele>164</ele>
        <time>2020-01-12T09:32:09.000Z</time>
      </trkpt>
      <trkpt lat="43.60039" lon="0.53709">
        <ele>164</ele>
        <time>2020-01-12T09:32:11.000Z</time>
      </trkpt>
      <trkpt lat="43.60037" lon="0.53711">
        <ele>164</ele>
        <time>2020-01-12T09:32:13.000Z</time>
      </trkpt>
      <trkpt lat="43.60036" lon="0.53713">
        <ele>164</ele>
        <time>2020-01-12T09:32:15.000Z</time>
      </trkpt>
      <trkpt lat="43.60034" lon="0.53713">
        <ele>164</ele>
        <time>2020-01-12T09:32:17.000Z</time>
      </trkpt>
      <trkpt lat="43.60033" lon="0.53714">
        <ele>164</ele>
        <time>2020-01-12T09:32:19.000Z</time>
      </trkpt>
      <trkpt lat="43.60032" lon="0.53714">
        <ele>164</ele>
        <time>2020-01-12T09:32:21.000Z</time>
      </trkpt>
      <trkpt lat="43.60032" lon="0.53714">
        <ele>164</ele>
        <time>2020-01-12T09:32:23.000Z</time>
      </trkpt>
      <trkpt lat="43.60032" lon="0.53714">
        <ele>164</ele>
        <time>2020-01-12T09:32:25.000Z</time>
      </trkpt>
      <trkpt lat="43.60032" lon="0.53714">
        <ele>164</ele>
        <time>2020-01-12T09:32:27.000Z</time>
      </trkpt>
      <trkpt lat="43.60032" lon="0.53714">
        <ele>164</ele>
        <time>2020-01-12T09:32:29.000Z</time>
      </trkpt>
      <trkpt lat="43.60032" lon="0.53714">
        <ele>164</ele>
        <time>2020-01-12T09:32:31.000Z</time>
      </trkpt>
      <trkpt lat="43.60032" lon="0.53714">
        <ele>164</ele>
        <time>2020-01-12T09:32:33.000Z</time>
      </trkpt>
      <trkpt lat="43.60032" lon="0.53714">
        <ele>164</ele>
        <time>2020-01-12T09:32:35.000Z</time>
      </trkpt>
      <trkpt lat="43.60033" lon="0.53714">
        <ele>164</ele>
        <time>2020-01-12T09:32:37.000Z</time>
      </trkpt>
      <trkpt lat="43.60033" lon="0.53714">
        <ele>164</ele>
        <time>2020-01-12T09:32:39.000Z</time>
      </trkpt>
      <trkpt lat="43.60034" lon="0.53714">
        <ele>164</ele>
        <time>2020-01-12T09:32:41.000Z</time>
      </trkpt>
      <trkpt lat="43.60034" lon="0.53714">
        <ele>164</ele>
        <time>2020-01-12T09:32:43.000Z</time>
      </trkpt>
      <trkpt lat="43.60034" lon="0.53714">
        <ele>164</ele>
        <time>2020-01-12T09:32:45.000Z</time>
      </trkpt>
      <trkpt lat="43.60034" lon="0.53715">
        <ele>164</ele>
        <time>2020-01-12T09:32:47.000Z</time>
      </trkpt>
      <trkpt lat="43.60034" lon="0.53715">
        <ele>164</ele>
        <time>2020-01-12T09:32:49.000Z</time>
      </trkpt>
      <trkpt lat="43.60034" lon="0.53715">
        <ele>164</ele>
        <time>2020-01-12T09:32:51.000Z</time>
      </trkpt>
      <trkpt lat="43.60033" lon="0.53715">
        <ele>164</ele>
        <time>2020-01-12T09:32:53.000Z</time>
      </trkpt>
      <trkpt lat="43.60033" lon="0.53716">
        <ele>164</ele>
        <time>2020-01-12T09:32:55.000Z</time>
      </trkpt>
      <trkpt lat="43.60033" lon="0.53716">
        <ele>164</ele>
        <time>2020-01-12T09:32:57.000Z</time>
      </trkpt>
      <trkpt lat="43.60033" lon="0.53716">
        <ele>164</ele>
        <time>2020-01-12T09:32:59.000Z</time>
      </trkpt>
      <trkpt lat="43.60033" lon="0.53716">
        <ele>164</ele>
        <time>2020-01-12T09:33:01.000Z</time>
      </trkpt>
      <trkpt lat="43.60033" lon="0.53716">
        <ele>164</ele>
        <time>2020-01-12T09:33:03.000Z</time>
      </trkpt>
      <trkpt lat="43.60033" lon="0.53717">
        <ele>164</ele>
        <time>2020-01-12T09:33:05.000Z</time>
      </trkpt>
      <trkpt lat="43.60033" lon="0.53718">
        <ele>164</ele>
        <time>2020-01-12T09:33:07.000Z</time>
      </trkpt>
      <trkpt lat="43.60034" lon="0.53717">
        <ele>164</ele>
        <time>2020-01-12T09:33:09.000Z</time>
      </trkpt>
      <trkpt lat="43.60036" lon="0.53715">
        <ele>164</ele>
        <time>2020-01-12T09:33:11.000Z</time>
      </trkpt>
      <trkpt lat="43.60037" lon="0.53714">
        <ele>164</ele>
        <time>2020-01-12T09:33:13.000Z</time>
      </trkpt>
      <trkpt lat="43.60038" lon="0.53712">
        <ele>164</ele>
        <time>2020-01-12T09:33:15.000Z</time>
      </trkpt>
      <trkpt lat="43.6004" lon="0.53711">
        <ele>164</ele>
        <time>2020-01-12T09:33:17.000Z</time>
      </trkpt>
      <trkpt lat="43.60041" lon="0.53709">
        <ele>165</ele>
        <time>2020-01-12T09:33:19.000Z</time>
      </trkpt>
      <trkpt lat="43.60042" lon="0.53707">
        <ele>165</ele>
        <time>2020-01-12T09:33:21.000Z</time>
      </trkpt>
      <trkpt lat="43.60042" lon="0.53705">
        <ele>165</ele>
        <time>2020-01-12T09:33:23.000Z</time>
      </trkpt>
      <trkpt lat="43.60043" lon="0.53702">
        <ele>165</ele>
        <time>2020-01-12T09:33:25.000Z</time>
      </trkpt>
      <trkpt lat="43.60042" lon="0.537">
        <ele>165</ele>
        <time>2020-01-12T09:33:27.000Z</time>
      </trkpt>
      <trkpt lat="43.60041" lon="0.53697">
        <ele>165</ele>
        <time>2020-01-12T09:33:29.000Z</time>
      </trkpt>
      <trkpt lat="43.6004" lon="0.53694">
        <ele>165</ele>
        <time>2020-01-12T09:33:31.000Z</time>
      </trkpt>
      <trkpt lat="43.60039" lon="0.53692">
        <ele>165</ele>
        <time>2020-01-12T09:33:33.000Z</time>
      </trkpt>
      <trkpt lat="43.60038" lon="0.53689">
        <ele>165</ele>
        <time>2020-01-12T09:33:35.000Z</time>
      </trkpt>
      <trkpt lat="43.60036" lon="0.53687">
        <ele>165</ele>
        <time>2020-01-12T09:33:37.000Z</time>
      </trkpt>
      <trkpt lat="43.60035" lon="0.53684">
        <ele>165</ele>
        <time>2020-01-12T09:33:39.000Z</time>
      </trkpt>
      <trkpt lat="43.60034" lon="0.53681">
        <ele>165</ele>
        <time>2020-01-12T09:33:41.000Z</time>
      </trkpt>
      <trkpt lat="43.60033" lon="0.53679">
        <ele>165</ele>
        <time>2020-01-12T09:33:43.000Z</time>
      </trkpt>
      <trkpt lat="43.60032" lon="0.53676">
        <ele>165</ele>
        <time>2020-01-12T09:33:45.000Z</time>
      </trkpt>
      <trkpt lat="43.60032" lon="0.53675">
        <ele>165</ele>
        <time>2020-01-12T09:33:47.000Z</time>
      </trkpt>
      <trkpt lat="43.60031" lon="0.53677">
        <ele>165</ele>
        <time>2020-01-12T09:33:49.000Z</time>
      </trkpt>
      <trkpt lat="43.60031" lon="0.53678">
        <ele>165</ele>
        <time>2020-01-12T09:33:51.000Z</time>
      </trkpt>
      <trkpt lat="43.60031" lon="0.53678">
        <ele>165</ele>
        <time>2020-01-12T09:33:53.000Z</time>
      </trkpt>
      <trkpt lat="43.60031" lon="0.53678">
        <ele>165</ele>
        <time>2020-01-12T09:33:55.000Z</time>
      </trkpt>
      <trkpt lat="43.60031" lon="0.53678">
        <ele>165</ele>
        <time>2020-01-12T09:33:57.000Z</time>
      </trkpt>
      <trkpt lat="43.60031" lon="0.53677">
        <ele>165</ele>
        <time>2020-01-12T09:33:59.000Z</time>
      </trkpt>
      <trkpt lat="43.60031" lon="0.53677">
        <ele>165</ele>
        <time>2020-01-12T09:34:01.000Z</time>
      </trkpt>
      <trkpt lat="43.60032" lon="0.53677">
        <ele>165</ele>
        <time>2020-01-12T09:34:03.000Z</time>
      </trkpt>
      <trkpt lat="43.60032" lon="0.53677">
        <ele>165</ele>
        <time>2020-01-12T09:34:05.000Z</time>
      </trkpt>
      <trkpt lat="43.60032" lon="0.53677">
        <ele>165</ele>
        <time>2020-01-12T09:34:07.000Z</time>
      </trkpt>
      <trkpt lat="43.60032" lon="0.53678">
        <ele>165</ele>
        <time>2020-01-12T09:34:09.000Z</time>
      </trkpt>
      <trkpt lat="43.60032" lon="0.53678">
        <ele>165</ele>
        <time>2020-01-12T09:34:11.000Z</time>
      </trkpt>
      <trkpt lat="43.60032" lon="0.53678">
        <ele>165</ele>
        <time>2020-01-12T09:34:13.000Z</time>
      </trkpt>
      <trkpt lat="43.60031" lon="0.53678">
        <ele>165</ele>
        <time>2020-01-12T09:34:15.000Z</time>
      </trkpt>
      <trkpt lat="43.60031" lon="0.53678">
        <ele>165</ele>
        <time>2020-01-12T09:34:17.000Z</time>
      </trkpt>
      <trkpt lat="43.60032" lon="0.53678">
        <ele>165</ele>
        <time>2020-01-12T09:34:19.000Z</time>
      </trkpt>
      <trkpt lat="43.60032" lon="0.53678">
        <ele>165</ele>
        <time>2020-01-12T09:34:21.000Z</time>
      </trkpt>
      <trkpt lat="43.60033" lon="0.53678">
        <ele>165</ele>
        <time>2020-01-12T09:34:23.000Z</time>
      </trkpt>
      <trkpt lat="43.60033" lon="0.53678">
        <ele>165</ele>
        <time>2020-01-12T09:34:25.000Z</time>
      </trkpt>
      <trkpt lat="43.60033" lon="0.53678">
        <ele>165</ele>
        <time>2020-01-12T09:34:27.000Z</time>
      </trkpt>
      <trkpt lat="43.60033" lon="0.53678">
        <ele>165</ele>
        <time>2020-01-12T09:34:29.000Z</time>
      </trkpt>
      <trkpt lat="43.60032" lon="0.53678">
        <ele>165</ele>
        <time>2020-01-12T09:34:31.000Z</time>
      </trkpt>
      <trkpt lat="43.60032" lon="0.53678">
        <ele>165</ele>
        <time>2020-01-12T09:34:33.000Z</time>
      </trkpt>
      <trkpt lat="43.60032" lon="0.53678">
        <ele>165</ele>
        <time>2020-01-12T09:34:35.000Z</time>
      </trkpt>
      <trkpt lat="43.60032" lon="0.53677">
        <ele>165</ele>
        <time>2020-01-12T09:34:37.000Z</time>
      </trkpt>
      <trkpt lat="43.60031" lon="0.53674">
        <ele>165</ele>
        <time>2020-01-12T09:34:39.000Z</time>
      </trkpt>
      <trkpt lat="43.6003" lon="0.53671">
        <ele>165</ele>
        <time>2020-01-12T09:34:41.000Z</time>
      </trkpt>
      <trkpt lat="43.60028" lon="0.53668">
        <ele>165</ele>
        <time>2020-01-12T09:34:43.000Z</time>
      </trkpt>
      <trkpt lat="43.60027" lon="0.53665">
        <ele>165</ele>
        <time>2020-01-12T09:34:45.000Z</time>
      </trkpt>
      <trkpt lat="43.60026" lon="0.53662">
        <ele>165</ele>
        <time>2020-01-12T09:34:47.000Z</time>
      </trkpt>
      <trkpt lat="43.60025" lon="0.53659">
        <ele>165</ele>
        <time>2020-01-12T09:34:49.000Z</time>
      </trkpt>
      <trkpt lat="43.60024" lon="0.53656">
        <ele>165</ele>
        <time>2020-01-12T09:34:51.000Z</time>
      </trkpt>
      <trkpt lat="43.60023" lon="0.53654">
        <ele>165</ele>
        <time>2020-01-12T09:34:53.000Z</time>
      </trkpt>
      <trkpt lat="43.60022" lon="0.53651">
        <ele>165</ele>
        <time>2020-01-12T09:34:55.000Z</time>
      </trkpt>
      <trkpt lat="43.60021" lon="0.53649">
        <ele>165</ele>
        <time>2020-01-12T09:34:57.000Z</time>
      </trkpt>
      <trkpt lat="43.6002" lon="0.53646">
        <ele>165</ele>
        <time>2020-01-12T09:34:59.000Z</time>
      </trkpt>
      <trkpt lat="43.60019" lon="0.53643">
        <ele>165</ele>
        <time>2020-01-12T09:35:01.000Z</time>
      </trkpt>
      <trkpt lat="43.60018" lon="0.5364">
        <ele>165</ele>
        <time>2020-01-12T09:35:03.000Z</time>
      </trkpt>
      <trkpt lat="43.60017" lon="0.53637">
        <ele>165</ele>
        <time>2020-01-12T09:35:05.000Z</time>
      </trkpt>
      <trkpt lat="43.60015" lon="0.53634">
        <ele>165</ele>
        <time>2020-01-12T09:35:07.000Z</time>
      </trkpt>
      <trkpt lat="43.60015" lon="0.53631">
        <ele>165</ele>
        <time>2020-01-12T09:35:09.000Z</time>
      </trkpt>
      <trkpt lat="43.60014" lon="0.53628">
        <ele>165</ele>
        <time>2020-01-12T09:35:11.000Z</time>
      </trkpt>
      <trkpt lat="43.60013" lon="0.53625">
        <ele>165</ele>
        <time>2020-01-12T09:35:13.000Z</time>
      </trkpt>
      <trkpt lat="43.60012" lon="0.53622">
        <ele>165</ele>
        <time>2020-01-12T09:35:15.000Z</time>
      </trkpt>
      <trkpt lat="43.6001" lon="0.53618">
        <ele>165</ele>
        <time>2020-01-12T09:35:17.000Z</time>
      </trkpt>
      <trkpt lat="43.60009" lon="0.53615">
        <ele>166</ele>
        <time>2020-01-12T09:35:19.000Z</time>
      </trkpt>
      <trkpt lat="43.60009" lon="0.53612">
        <ele>166</ele>
        <time>2020-01-12T09:35:21.000Z</time>
      </trkpt>
      <trkpt lat="43.60008" lon="0.53609">
        <ele>166</ele>
        <time>2020-01-12T09:35:23.000Z</time>
      </trkpt>
      <trkpt lat="43.60008" lon="0.53606">
        <ele>166</ele>
        <time>2020-01-12T09:35:25.000Z</time>
      </trkpt>
      <trkpt lat="43.60007" lon="0.53603">
        <ele>166</ele>
        <time>2020-01-12T09:35:27.000Z</time>
      </trkpt>
      <trkpt lat="43.60006" lon="0.53599">
        <ele>166</ele>
        <time>2020-01-12T09:35:29.000Z</time>
      </trkpt>
      <trkpt lat="43.60006" lon="0.53596">
        <ele>166</ele>
        <time>2020-01-12T09:35:31.000Z</time>
      </trkpt>
      <trkpt lat="43.60005" lon="0.53592">
        <ele>166</ele>
        <time>2020-01-12T09:35:33.000Z</time>
      </trkpt>
      <trkpt lat="43.60004" lon="0.53589">
        <ele>166</ele>
        <time>2020-01-12T09:35:35.000Z</time>
      </trkpt>
      <trkpt lat="43.60004" lon="0.53586">
        <ele>166</ele>
        <time>2020-01-12T09:35:37.000Z</time>
      </trkpt>
      <trkpt lat="43.60003" lon="0.53583">
        <ele>166</ele>
        <time>2020-01-12T09:35:39.000Z</time>
      </trkpt>
      <trkpt lat="43.60003" lon="0.5358">
        <ele>166</ele>
        <time>2020-01-12T09:35:41.000Z</time>
      </trkpt>
      <trkpt lat="43.60002" lon="0.53578">
        <ele>167</ele>
        <time>2020-01-12T09:35:43.000Z</time>
      </trkpt>
      <trkpt lat="43.60002" lon="0.53575">
        <ele>167</ele>
        <time>2020-01-12T09:35:45.000Z</time>
      </trkpt>
      <trkpt lat="43.60001" lon="0.53572">
        <ele>167</ele>
        <time>2020-01-12T09:35:47.000Z</time>
      </trkpt>
      <trkpt lat="43.6" lon="0.53568">
        <ele>167</ele>
        <time>2020-01-12T09:35:49.000Z</time>
      </trkpt>
      <trkpt lat="43.6" lon="0.53565">
        <ele>167</ele>
        <time>2020-01-12T09:35:51.000Z</time>
      </trkpt>
      <trkpt lat="43.6" lon="0.53562">
        <ele>167</ele>
        <time>2020-01-12T09:35:53.000Z</time>
      </trkpt>
      <trkpt lat="43.59999" lon="0.53559">
        <ele>167</ele>
        <time>2020-01-12T09:35:55.000Z</time>
      </trkpt>
      <trkpt lat="43.59999" lon="0.53555">
        <ele>167</ele>
        <time>2020-01-12T09:35:57.000Z</time>
      </trkpt>
      <trkpt lat="43.59999" lon="0.53552">
        <ele>167</ele>
        <time>2020-01-12T09:35:59.000Z</time>
      </trkpt>
      <trkpt lat="43.59999" lon="0.53549">
        <ele>167</ele>
        <time>2020-01-12T09:36:01.000Z</time>
      </trkpt>
      <trkpt lat="43.59999" lon="0.53546">
        <ele>167</ele>
        <time>2020-01-12T09:36:03.000Z</time>
      </trkpt>
      <trkpt lat="43.59999" lon="0.53543">
        <ele>167</ele>
        <time>2020-01-12T09:36:05.000Z</time>
      </trkpt>
      <trkpt lat="43.59999" lon="0.5354">
        <ele>167</ele>
        <time>2020-01-12T09:36:07.000Z</time>
      </trkpt>
      <trkpt lat="43.59998" lon="0.53537">
        <ele>167</ele>
        <time>2020-01-12T09:36:09.000Z</time>
      </trkpt>
      <trkpt lat="43.59998" lon="0.53534">
        <ele>167</ele>
        <time>2020-01-12T09:36:11.000Z</time>
      </trkpt>
      <trkpt lat="43.59998" lon="0.53531">
        <ele>167</ele>
        <time>2020-01-12T09:36:13.000Z</time>
      </trkpt>
      <trkpt lat="43.59998" lon="0.53528">
        <ele>168</ele>
        <time>2020-01-12T09:36:15.000Z</time>
      </trkpt>
      <trkpt lat="43.59998" lon="0.53524">
        <ele>168</ele>
        <time>2020-01-12T09:36:17.000Z</time>
      </trkpt>
      <trkpt lat="43.59997" lon="0.53521">
        <ele>168</ele>
        <time>2020-01-12T09:36:19.000Z</time>
      </trkpt>
      <trkpt lat="43.59997" lon="0.53517">
        <ele>168</ele>
        <time>2020-01-12T09:36:21.000Z</time>
      </trkpt>
      <trkpt lat="43.59997" lon="0.53514">
        <ele>168</ele>
        <time>2020-01-12T09:36:23.000Z</time>
      </trkpt>
      <trkpt lat="43.59997" lon="0.53511">
        <ele>168</ele>
        <time>2020-01-12T09:36:25.000Z</time>
      </trkpt>
      <trkpt lat="43.59997" lon="0.53507">
        <ele>168</ele>
        <time>2020-01-12T09:36:27.000Z</time>
      </trkpt>
      <trkpt lat="43.59997" lon="0.53504">
        <ele>168</ele>
        <time>2020-01-12T09:36:29.000Z</time>
      </trkpt>
      <trkpt lat="43.59997" lon="0.53501">
        <ele>168</ele>
        <time>2020-01-12T09:36:31.000Z</time>
      </trkpt>
      <trkpt lat="43.59997" lon="0.53499">
        <ele>168</ele>
        <time>2020-01-12T09:36:33.000Z</time>
      </trkpt>
      <trkpt lat="43.59997" lon="0.53498">
        <ele>168</ele>
        <time>2020-01-12T09:36:35.000Z</time>
      </trkpt>
      <trkpt lat="43.59996" lon="0.53497">
        <ele>168</ele>
        <time>2020-01-12T09:36:37.000Z</time>
      </trkpt>
      <trkpt lat="43.59996" lon="0.53493">
        <ele>168</ele>
        <time>2020-01-12T09:36:40.000Z</time>
      </trkpt>
      <trkpt lat="43.59996" lon="0.5349">
        <ele>168</ele>
        <time>2020-01-12T09:36:42.000Z</time>
      </trkpt>
      <trkpt lat="43.59996" lon="0.53487">
        <ele>169</ele>
        <time>2020-01-12T09:36:44.000Z</time>
      </trkpt>
      <trkpt lat="43.59995" lon="0.53482">
        <ele>169</ele>
        <time>2020-01-12T09:36:47.000Z</time>
      </trkpt>
      <trkpt lat="43.59994" lon="0.5348">
        <ele>169</ele>
        <time>2020-01-12T09:36:49.000Z</time>
      </trkpt>
      <trkpt lat="43.59994" lon="0.53476">
        <ele>169</ele>
        <time>2020-01-12T09:36:51.000Z</time>
      </trkpt>
      <trkpt lat="43.59994" lon="0.53473">
        <ele>169</ele>
        <time>2020-01-12T09:36:53.000Z</time>
      </trkpt>
      <trkpt lat="43.59993" lon="0.5347">
        <ele>169</ele>
        <time>2020-01-12T09:36:55.000Z</time>
      </trkpt>
      <trkpt lat="43.59993" lon="0.53467">
        <ele>169</ele>
        <time>2020-01-12T09:36:57.000Z</time>
      </trkpt>
      <trkpt lat="43.59993" lon="0.53464">
        <ele>169</ele>
        <time>2020-01-12T09:36:59.000Z</time>
      </trkpt>
      <trkpt lat="43.59992" lon="0.5346">
        <ele>169</ele>
        <time>2020-01-12T09:37:01.000Z</time>
      </trkpt>
      <trkpt lat="43.59992" lon="0.53457">
        <ele>169</ele>
        <time>2020-01-12T09:37:03.000Z</time>
      </trkpt>
      <trkpt lat="43.59992" lon="0.53454">
        <ele>169</ele>
        <time>2020-01-12T09:37:05.000Z</time>
      </trkpt>
      <trkpt lat="43.59992" lon="0.5345">
        <ele>169</ele>
        <time>2020-01-12T09:37:07.000Z</time>
      </trkpt>
      <trkpt lat="43.59992" lon="0.53447">
        <ele>169</ele>
        <time>2020-01-12T09:37:09.000Z</time>
      </trkpt>
      <trkpt lat="43.59992" lon="0.53444">
        <ele>169</ele>
        <time>2020-01-12T09:37:11.000Z</time>
      </trkpt>
      <trkpt lat="43.59992" lon="0.53441">
        <ele>169</ele>
        <time>2020-01-12T09:37:13.000Z</time>
      </trkpt>
      <trkpt lat="43.59992" lon="0.53438">
        <ele>169</ele>
        <time>2020-01-12T09:37:15.000Z</time>
      </trkpt>
      <trkpt lat="43.59992" lon="0.53433">
        <ele>169</ele>
        <time>2020-01-12T09:37:18.000Z</time>
      </trkpt>
      <trkpt lat="43.59991" lon="0.5343">
        <ele>169</ele>
        <time>2020-01-12T09:37:20.000Z</time>
      </trkpt>
      <trkpt lat="43.59991" lon="0.53427">
        <ele>169</ele>
        <time>2020-01-12T09:37:22.000Z</time>
      </trkpt>
      <trkpt lat="43.59991" lon="0.53424">
        <ele>169</ele>
        <time>2020-01-12T09:37:24.000Z</time>
      </trkpt>
      <trkpt lat="43.5999" lon="0.53421">
        <ele>169</ele>
        <time>2020-01-12T09:37:26.000Z</time>
      </trkpt>
      <trkpt lat="43.5999" lon="0.53418">
        <ele>169</ele>
        <time>2020-01-12T09:37:28.000Z</time>
      </trkpt>
      <trkpt lat="43.5999" lon="0.53414">
        <ele>169</ele>
        <time>2020-01-12T09:37:30.000Z</time>
      </trkpt>
      <trkpt lat="43.5999" lon="0.53411">
        <ele>169</ele>
        <time>2020-01-12T09:37:32.000Z</time>
      </trkpt>
      <trkpt lat="43.5999" lon="0.53408">
        <ele>169</ele>
        <time>2020-01-12T09:37:34.000Z</time>
      </trkpt>
      <trkpt lat="43.5999" lon="0.53405">
        <ele>169</ele>
        <time>2020-01-12T09:37:36.000Z</time>
      </trkpt>
      <trkpt lat="43.5999" lon="0.53401">
        <ele>169</ele>
        <time>2020-01-12T09:37:38.000Z</time>
      </trkpt>
      <trkpt lat="43.5999" lon="0.53398">
        <ele>169</ele>
        <time>2020-01-12T09:37:40.000Z</time>
      </trkpt>
      <trkpt lat="43.5999" lon="0.53395">
        <ele>170</ele>
        <time>2020-01-12T09:37:42.000Z</time>
      </trkpt>
      <trkpt lat="43.5999" lon="0.53392">
        <ele>170</ele>
        <time>2020-01-12T09:37:44.000Z</time>
      </trkpt>
      <trkpt lat="43.5999" lon="0.53388">
        <ele>170</ele>
        <time>2020-01-12T09:37:46.000Z</time>
      </trkpt>
      <trkpt lat="43.5999" lon="0.53385">
        <ele>170</ele>
        <time>2020-01-12T09:37:48.000Z</time>
      </trkpt>
      <trkpt lat="43.5999" lon="0.53382">
        <ele>170</ele>
        <time>2020-01-12T09:37:50.000Z</time>
      </trkpt>
      <trkpt lat="43.5999" lon="0.53379">
        <ele>170</ele>
        <time>2020-01-12T09:37:52.000Z</time>
      </trkpt>
      <trkpt lat="43.59991" lon="0.53376">
        <ele>170</ele>
        <time>2020-01-12T09:37:54.000Z</time>
      </trkpt>
      <trkpt lat="43.59991" lon="0.53373">
        <ele>170</ele>
        <time>2020-01-12T09:37:56.000Z</time>
      </trkpt>
      <trkpt lat="43.59992" lon="0.5337">
        <ele>170</ele>
        <time>2020-01-12T09:37:58.000Z</time>
      </trkpt>
      <trkpt lat="43.59993" lon="0.53366">
        <ele>169</ele>
        <time>2020-01-12T09:38:00.000Z</time>
      </trkpt>
      <trkpt lat="43.59993" lon="0.53364">
        <ele>169</ele>
        <time>2020-01-12T09:38:02.000Z</time>
      </trkpt>
      <trkpt lat="43.59994" lon="0.5336">
        <ele>169</ele>
        <time>2020-01-12T09:38:04.000Z</time>
      </trkpt>
      <trkpt lat="43.59995" lon="0.53358">
        <ele>169</ele>
        <time>2020-01-12T09:38:06.000Z</time>
      </trkpt>
      <trkpt lat="43.59996" lon="0.53355">
        <ele>170</ele>
        <time>2020-01-12T09:38:08.000Z</time>
      </trkpt>
      <trkpt lat="43.59997" lon="0.53352">
        <ele>170</ele>
        <time>2020-01-12T09:38:10.000Z</time>
      </trkpt>
      <trkpt lat="43.59998" lon="0.53349">
        <ele>170</ele>
        <time>2020-01-12T09:38:12.000Z</time>
      </trkpt>
      <trkpt lat="43.59999" lon="0.53346">
        <ele>170</ele>
        <time>2020-01-12T09:38:14.000Z</time>
      </trkpt>
      <trkpt lat="43.6" lon="0.53343">
        <ele>170</ele>
        <time>2020-01-12T09:38:16.000Z</time>
      </trkpt>
      <trkpt lat="43.60001" lon="0.5334">
        <ele>170</ele>
        <time>2020-01-12T09:38:18.000Z</time>
      </trkpt>
      <trkpt lat="43.60002" lon="0.53337">
        <ele>170</ele>
        <time>2020-01-12T09:38:20.000Z</time>
      </trkpt>
      <trkpt lat="43.60003" lon="0.53334">
        <ele>170</ele>
        <time>2020-01-12T09:38:22.000Z</time>
      </trkpt>
      <trkpt lat="43.60004" lon="0.53332">
        <ele>171</ele>
        <time>2020-01-12T09:38:24.000Z</time>
      </trkpt>
      <trkpt lat="43.60005" lon="0.53329">
        <ele>171</ele>
        <time>2020-01-12T09:38:26.000Z</time>
      </trkpt>
      <trkpt lat="43.60006" lon="0.53326">
        <ele>171</ele>
        <time>2020-01-12T09:38:28.000Z</time>
      </trkpt>
      <trkpt lat="43.60007" lon="0.53324">
        <ele>171</ele>
        <time>2020-01-12T09:38:30.000Z</time>
      </trkpt>
      <trkpt lat="43.60008" lon="0.53321">
        <ele>171</ele>
        <time>2020-01-12T09:38:32.000Z</time>
      </trkpt>
      <trkpt lat="43.60009" lon="0.53318">
        <ele>171</ele>
        <time>2020-01-12T09:38:34.000Z</time>
      </trkpt>
      <trkpt lat="43.6001" lon="0.53316">
        <ele>171</ele>
        <time>2020-01-12T09:38:36.000Z</time>
      </trkpt>
      <trkpt lat="43.60011" lon="0.53313">
        <ele>171</ele>
        <time>2020-01-12T09:38:38.000Z</time>
      </trkpt>
      <trkpt lat="43.60012" lon="0.5331">
        <ele>171</ele>
        <time>2020-01-12T09:38:40.000Z</time>
      </trkpt>
      <trkpt lat="43.60013" lon="0.53308">
        <ele>172</ele>
        <time>2020-01-12T09:38:42.000Z</time>
      </trkpt>
      <trkpt lat="43.60014" lon="0.53305">
        <ele>172</ele>
        <time>2020-01-12T09:38:44.000Z</time>
      </trkpt>
      <trkpt lat="43.60015" lon="0.53302">
        <ele>172</ele>
        <time>2020-01-12T09:38:46.000Z</time>
      </trkpt>
      <trkpt lat="43.60016" lon="0.533">
        <ele>172</ele>
        <time>2020-01-12T09:38:48.000Z</time>
      </trkpt>
      <trkpt lat="43.60017" lon="0.53298">
        <ele>172</ele>
        <time>2020-01-12T09:38:50.000Z</time>
      </trkpt>
      <trkpt lat="43.60018" lon="0.53296">
        <ele>172</ele>
        <time>2020-01-12T09:38:52.000Z</time>
      </trkpt>
      <trkpt lat="43.6002" lon="0.53294">
        <ele>172</ele>
        <time>2020-01-12T09:38:54.000Z</time>
      </trkpt>
      <trkpt lat="43.60021" lon="0.53292">
        <ele>173</ele>
        <time>2020-01-12T09:38:56.000Z</time>
      </trkpt>
      <trkpt lat="43.60022" lon="0.53289">
        <ele>173</ele>
        <time>2020-01-12T09:38:58.000Z</time>
      </trkpt>
      <trkpt lat="43.60023" lon="0.53287">
        <ele>173</ele>
        <time>2020-01-12T09:39:00.000Z</time>
      </trkpt>
      <trkpt lat="43.60023" lon="0.53285">
        <ele>173</ele>
        <time>2020-01-12T09:39:02.000Z</time>
      </trkpt>
      <trkpt lat="43.60023" lon="0.53285">
        <ele>173</ele>
        <time>2020-01-12T09:39:04.000Z</time>
      </trkpt>
      <trkpt lat="43.60024" lon="0.53284">
        <ele>173</ele>
        <time>2020-01-12T09:39:06.000Z</time>
      </trkpt>
      <trkpt lat="43.60024" lon="0.53284">
        <ele>173</ele>
        <time>2020-01-12T09:39:08.000Z</time>
      </trkpt>
      <trkpt lat="43.60023" lon="0.53284">
        <ele>173</ele>
        <time>2020-01-12T09:39:10.000Z</time>
      </trkpt>
      <trkpt lat="43.60023" lon="0.53285">
        <ele>173</ele>
        <time>2020-01-12T09:39:12.000Z</time>
      </trkpt>
      <trkpt lat="43.60024" lon="0.53284">
        <ele>173</ele>
        <time>2020-01-12T09:39:14.000Z</time>
      </trkpt>
      <trkpt lat="43.60025" lon="0.53284">
        <ele>173</ele>
        <time>2020-01-12T09:39:16.000Z</time>
      </trkpt>
      <trkpt lat="43.60025" lon="0.53285">
        <ele>173</ele>
        <time>2020-01-12T09:39:18.000Z</time>
      </trkpt>
      <trkpt lat="43.60025" lon="0.53286">
        <ele>173</ele>
        <time>2020-01-12T09:39:20.000Z</time>
      </trkpt>
      <trkpt lat="43.60025" lon="0.53285">
        <ele>173</ele>
        <time>2020-01-12T09:39:22.000Z</time>
      </trkpt>
      <trkpt lat="43.60025" lon="0.53285">
        <ele>173</ele>
        <time>2020-01-12T09:39:24.000Z</time>
      </trkpt>
      <trkpt lat="43.60025" lon="0.53286">
        <ele>173</ele>
        <time>2020-01-12T09:39:26.000Z</time>
      </trkpt>
      <trkpt lat="43.60025" lon="0.53286">
        <ele>173</ele>
        <time>2020-01-12T09:39:28.000Z</time>
      </trkpt>
      <trkpt lat="43.60025" lon="0.53286">
        <ele>173</ele>
        <time>2020-01-12T09:39:30.000Z</time>
      </trkpt>
      <trkpt lat="43.60024" lon="0.53288">
        <ele>173</ele>
        <time>2020-01-12T09:39:32.000Z</time>
      </trkpt>
      <trkpt lat="43.60025" lon="0.53287">
        <ele>173</ele>
        <time>2020-01-12T09:39:34.000Z</time>
      </trkpt>
      <trkpt lat="43.60025" lon="0.53287">
        <ele>173</ele>
        <time>2020-01-12T09:39:36.000Z</time>
      </trkpt>
      <trkpt lat="43.60024" lon="0.53286">
        <ele>173</ele>
        <time>2020-01-12T09:39:38.000Z</time>
      </trkpt>
      <trkpt lat="43.60024" lon="0.53284">
        <ele>173</ele>
        <time>2020-01-12T09:39:40.000Z</time>
      </trkpt>
      <trkpt lat="43.60025" lon="0.53282">
        <ele>173</ele>
        <time>2020-01-12T09:39:42.000Z</time>
      </trkpt>
      <trkpt lat="43.60025" lon="0.5328">
        <ele>174</ele>
        <time>2020-01-12T09:39:44.000Z</time>
      </trkpt>
      <trkpt lat="43.60025" lon="0.53279">
        <ele>174</ele>
        <time>2020-01-12T09:39:46.000Z</time>
      </trkpt>
      <trkpt lat="43.60025" lon="0.53279">
        <ele>174</ele>
        <time>2020-01-12T09:39:48.000Z</time>
      </trkpt>
      <trkpt lat="43.60025" lon="0.53278">
        <ele>174</ele>
        <time>2020-01-12T09:39:50.000Z</time>
      </trkpt>
      <trkpt lat="43.60024" lon="0.53278">
        <ele>173</ele>
        <time>2020-01-12T09:39:52.000Z</time>
      </trkpt>
      <trkpt lat="43.60024" lon="0.53279">
        <ele>173</ele>
        <time>2020-01-12T09:39:54.000Z</time>
      </trkpt>
      <trkpt lat="43.60024" lon="0.53279">
        <ele>173</ele>
        <time>2020-01-12T09:39:56.000Z</time>
      </trkpt>
      <trkpt lat="43.60025" lon="0.53279">
        <ele>173</ele>
        <time>2020-01-12T09:39:58.000Z</time>
      </trkpt>
      <trkpt lat="43.60025" lon="0.53279">
        <ele>174</ele>
        <time>2020-01-12T09:40:00.000Z</time>
      </trkpt>
      <trkpt lat="43.60025" lon="0.53279">
        <ele>174</ele>
        <time>2020-01-12T09:40:02.000Z</time>
      </trkpt>
      <trkpt lat="43.60025" lon="0.53279">
        <ele>174</ele>
        <time>2020-01-12T09:40:04.000Z</time>
      </trkpt>
      <trkpt lat="43.60025" lon="0.53279">
        <ele>174</ele>
        <time>2020-01-12T09:40:06.000Z</time>
      </trkpt>
      <trkpt lat="43.60025" lon="0.53279">
        <ele>174</ele>
        <time>2020-01-12T09:40:08.000Z</time>
      </trkpt>
      <trkpt lat="43.60025" lon="0.5328">
        <ele>174</ele>
        <time>2020-01-12T09:40:10.000Z</time>
      </trkpt>
      <trkpt lat="43.60025" lon="0.5328">
        <ele>174</ele>
        <time>2020-01-12T09:40:12.000Z</time>
      </trkpt>
      <trkpt lat="43.60024" lon="0.53279">
        <ele>173</ele>
        <time>2020-01-12T09:40:14.000Z</time>
      </trkpt>
      <trkpt lat="43.60024" lon="0.53279">
        <ele>173</ele>
        <time>2020-01-12T09:40:16.000Z</time>
      </trkpt>
      <trkpt lat="43.60024" lon="0.53279">
        <ele>173</ele>
        <time>2020-01-12T09:40:18.000Z</time>
      </trkpt>
      <trkpt lat="43.60024" lon="0.53279">
        <ele>173</ele>
        <time>2020-01-12T09:40:20.000Z</time>
      </trkpt>
      <trkpt lat="43.60024" lon="0.53279">
        <ele>173</ele>
        <time>2020-01-12T09:40:22.000Z</time>
      </trkpt>
      <trkpt lat="43.60024" lon="0.53279">
        <ele>173</ele>
        <time>2020-01-12T09:40:24.000Z</time>
      </trkpt>
      <trkpt lat="43.60024" lon="0.53279">
        <ele>173</ele>
        <time>2020-01-12T09:40:26.000Z</time>
      </trkpt>
      <trkpt lat="43.60023" lon="0.53279">
        <ele>173</ele>
        <time>2020-01-12T09:40:28.000Z</time>
      </trkpt>
      <trkpt lat="43.60023" lon="0.53278">
        <ele>173</ele>
        <time>2020-01-12T09:40:30.000Z</time>
      </trkpt>
      <trkpt lat="43.60023" lon="0.53278">
        <ele>173</ele>
        <time>2020-01-12T09:40:32.000Z</time>
      </trkpt>
      <trkpt lat="43.60023" lon="0.53278">
        <ele>173</ele>
        <time>2020-01-12T09:40:34.000Z</time>
      </trkpt>
      <trkpt lat="43.60023" lon="0.53278">
        <ele>173</ele>
        <time>2020-01-12T09:40:36.000Z</time>
      </trkpt>
      <trkpt lat="43.60023" lon="0.53278">
        <ele>173</ele>
        <time>2020-01-12T09:40:38.000Z</time>
      </trkpt>
      <trkpt lat="43.60022" lon="0.53278">
        <ele>173</ele>
        <time>2020-01-12T09:40:40.000Z</time>
      </trkpt>
      <trkpt lat="43.60023" lon="0.53278">
        <ele>173</ele>
        <time>2020-01-12T09:40:42.000Z</time>
      </trkpt>
      <trkpt lat="43.60023" lon="0.53278">
        <ele>173</ele>
        <time>2020-01-12T09:40:44.000Z</time>
      </trkpt>
      <trkpt lat="43.60022" lon="0.53279">
        <ele>173</ele>
        <time>2020-01-12T09:40:46.000Z</time>
      </trkpt>
      <trkpt lat="43.60022" lon="0.53279">
        <ele>173</ele>
        <time>2020-01-12T09:40:48.000Z</time>
      </trkpt>
      <trkpt lat="43.60022" lon="0.53279">
        <ele>173</ele>
        <time>2020-01-12T09:40:50.000Z</time>
      </trkpt>
      <trkpt lat="43.60022" lon="0.53279">
        <ele>173</ele>
        <time>2020-01-12T09:40:52.000Z</time>
      </trkpt>
      <trkpt lat="43.60023" lon="0.53279">
        <ele>173</ele>
        <time>2020-01-12T09:40:54.000Z</time>
      </trkpt>
      <trkpt lat="43.60023" lon="0.53279">
        <ele>173</ele>
        <time>2020-01-12T09:40:56.000Z</time>
      </trkpt>
      <trkpt lat="43.60023" lon="0.53279">
        <ele>173</ele>
        <time>2020-01-12T09:40:58.000Z</time>
      </trkpt>
      <trkpt lat="43.60022" lon="0.53279">
        <ele>173</ele>
        <time>2020-01-12T09:41:00.000Z</time>
      </trkpt>
      <trkpt lat="43.60022" lon="0.53279">
        <ele>173</ele>
        <time>2020-01-12T09:41:02.000Z</time>
      </trkpt>
      <trkpt lat="43.60022" lon="0.53278">
        <ele>173</ele>
        <time>2020-01-12T09:41:04.000Z</time>
      </trkpt>
      <trkpt lat="43.60022" lon="0.53279">
        <ele>173</ele>
        <time>2020-01-12T09:41:06.000Z</time>
      </trkpt>
      <trkpt lat="43.60022" lon="0.53279">
        <ele>173</ele>
        <time>2020-01-12T09:41:08.000Z</time>
      </trkpt>
      <trkpt lat="43.60022" lon="0.53278">
        <ele>173</ele>
        <time>2020-01-12T09:41:10.000Z</time>
      </trkpt>
      <trkpt lat="43.60022" lon="0.53279">
        <ele>173</ele>
        <time>2020-01-12T09:41:12.000Z</time>
      </trkpt>
      <trkpt lat="43.60022" lon="0.53278">
        <ele>173</ele>
        <time>2020-01-12T09:41:14.000Z</time>
      </trkpt>
      <trkpt lat="43.60021" lon="0.53278">
        <ele>173</ele>
        <time>2020-01-12T09:41:16.000Z</time>
      </trkpt>
      <trkpt lat="43.60021" lon="0.53279">
        <ele>173</ele>
        <time>2020-01-12T09:41:19.000Z</time>
      </trkpt>
      <trkpt lat="43.60022" lon="0.53278">
        <ele>173</ele>
        <time>2020-01-12T09:41:22.000Z</time>
      </trkpt>
      <trkpt lat="43.60022" lon="0.53278">
        <ele>173</ele>
        <time>2020-01-12T09:41:24.000Z</time>
      </trkpt>
      <trkpt lat="43.60022" lon="0.53278">
        <ele>173</ele>
        <time>2020-01-12T09:41:26.000Z</time>
      </trkpt>
      <trkpt lat="43.60022" lon="0.53278">
        <ele>173</ele>
        <time>2020-01-12T09:41:28.000Z</time>
      </trkpt>
      <trkpt lat="43.60022" lon="0.53278">
        <ele>173</ele>
        <time>2020-01-12T09:41:30.000Z</time>
      </trkpt>
      <trkpt lat="43.60022" lon="0.53278">
        <ele>173</ele>
        <time>2020-01-12T09:41:32.000Z</time>
      </trkpt>
      <trkpt lat="43.60022" lon="0.53277">
        <ele>173</ele>
        <time>2020-01-12T09:41:34.000Z</time>
      </trkpt>
      <trkpt lat="43.60022" lon="0.53277">
        <ele>173</ele>
        <time>2020-01-12T09:41:36.000Z</time>
      </trkpt>
      <trkpt lat="43.60022" lon="0.53277">
        <ele>173</ele>
        <time>2020-01-12T09:41:38.000Z</time>
      </trkpt>
      <trkpt lat="43.60022" lon="0.53277">
        <ele>173</ele>
        <time>2020-01-12T09:41:40.000Z</time>
      </trkpt>
      <trkpt lat="43.60023" lon="0.53277">
        <ele>173</ele>
        <time>2020-01-12T09:41:42.000Z</time>
      </trkpt>
      <trkpt lat="43.60023" lon="0.53277">
        <ele>173</ele>
        <time>2020-01-12T09:41:44.000Z</time>
      </trkpt>
      <trkpt lat="43.60023" lon="0.53277">
        <ele>173</ele>
        <time>2020-01-12T09:41:46.000Z</time>
      </trkpt>
      <trkpt lat="43.60023" lon="0.53277">
        <ele>173</ele>
        <time>2020-01-12T09:41:48.000Z</time>
      </trkpt>
      <trkpt lat="43.60023" lon="0.53278">
        <ele>173</ele>
        <time>2020-01-12T09:41:50.000Z</time>
      </trkpt>
      <trkpt lat="43.60023" lon="0.53277">
        <ele>173</ele>
        <time>2020-01-12T09:41:52.000Z</time>
      </trkpt>
      <trkpt lat="43.60023" lon="0.53277">
        <ele>173</ele>
        <time>2020-01-12T09:41:54.000Z</time>
      </trkpt>
      <trkpt lat="43.60023" lon="0.53277">
        <ele>173</ele>
        <time>2020-01-12T09:41:56.000Z</time>
      </trkpt>
      <trkpt lat="43.60024" lon="0.53277">
        <ele>173</ele>
        <time>2020-01-12T09:41:58.000Z</time>
      </trkpt>
      <trkpt lat="43.60024" lon="0.53277">
        <ele>173</ele>
        <time>2020-01-12T09:42:00.000Z</time>
      </trkpt>
      <trkpt lat="43.60024" lon="0.53277">
        <ele>173</ele>
        <time>2020-01-12T09:42:02.000Z</time>
      </trkpt>
      <trkpt lat="43.60024" lon="0.53277">
        <ele>173</ele>
        <time>2020-01-12T09:42:04.000Z</time>
      </trkpt>
      <trkpt lat="43.60024" lon="0.53278">
        <ele>173</ele>
        <time>2020-01-12T09:42:06.000Z</time>
      </trkpt>
      <trkpt lat="43.60024" lon="0.53278">
        <ele>173</ele>
        <time>2020-01-12T09:42:08.000Z</time>
      </trkpt>
      <trkpt lat="43.60024" lon="0.53277">
        <ele>173</ele>
        <time>2020-01-12T09:42:10.000Z</time>
      </trkpt>
      <trkpt lat="43.60024" lon="0.53277">
        <ele>173</ele>
        <time>2020-01-12T09:42:12.000Z</time>
      </trkpt>
      <trkpt lat="43.60024" lon="0.53277">
        <ele>173</ele>
        <time>2020-01-12T09:42:14.000Z</time>
      </trkpt>
      <trkpt lat="43.60024" lon="0.53277">
        <ele>173</ele>
        <time>2020-01-12T09:42:16.000Z</time>
      </trkpt>
      <trkpt lat="43.60024" lon="0.53277">
        <ele>173</ele>
        <time>2020-01-12T09:42:18.000Z</time>
      </trkpt>
      <trkpt lat="43.60024" lon="0.53277">
        <ele>173</ele>
        <time>2020-01-12T09:42:20.000Z</time>
      </trkpt>
      <trkpt lat="43.60024" lon="0.53277">
        <ele>173</ele>
        <time>2020-01-12T09:42:22.000Z</time>
      </trkpt>
      <trkpt lat="43.60023" lon="0.53277">
        <ele>173</ele>
        <time>2020-01-12T09:42:24.000Z</time>
      </trkpt>
      <trkpt lat="43.60023" lon="0.53277">
        <ele>173</ele>
        <time>2020-01-12T09:42:26.000Z</time>
      </trkpt>
      <trkpt lat="43.60023" lon="0.53277">
        <ele>173</ele>
        <time>2020-01-12T09:42:28.000Z</time>
      </trkpt>
      <trkpt lat="43.60024" lon="0.53277">
        <ele>173</ele>
        <time>2020-01-12T09:42:30.000Z</time>
      </trkpt>
      <trkpt lat="43.60023" lon="0.53277">
        <ele>173</ele>
        <time>2020-01-12T09:42:32.000Z</time>
      </trkpt>
      <trkpt lat="43.60023" lon="0.53277">
        <ele>173</ele>
        <time>2020-01-12T09:42:34.000Z</time>
      </trkpt>
      <trkpt lat="43.60023" lon="0.53277">
        <ele>173</ele>
        <time>2020-01-12T09:42:36.000Z</time>
      </trkpt>
      <trkpt lat="43.60023" lon="0.53276">
        <ele>173</ele>
        <time>2020-01-12T09:42:38.000Z</time>
      </trkpt>
      <trkpt lat="43.60023" lon="0.53276">
        <ele>173</ele>
        <time>2020-01-12T09:42:40.000Z</time>
      </trkpt>
      <trkpt lat="43.60024" lon="0.53276">
        <ele>173</ele>
        <time>2020-01-12T09:42:42.000Z</time>
      </trkpt>
      <trkpt lat="43.60024" lon="0.53275">
        <ele>174</ele>
        <time>2020-01-12T09:42:44.000Z</time>
      </trkpt>
      <trkpt lat="43.60025" lon="0.53276">
        <ele>174</ele>
        <time>2020-01-12T09:42:46.000Z</time>
      </trkpt>
      <trkpt lat="43.60024" lon="0.53275">
        <ele>174</ele>
        <time>2020-01-12T09:42:48.000Z</time>
      </trkpt>
      <trkpt lat="43.60024" lon="0.53275">
        <ele>174</ele>
        <time>2020-01-12T09:42:50.000Z</time>
      </trkpt>
      <trkpt lat="43.60024" lon="0.53276">
        <ele>173</ele>
        <time>2020-01-12T09:42:52.000Z</time>
      </trkpt>
      <trkpt lat="43.60024" lon="0.53276">
        <ele>173</ele>
        <time>2020-01-12T09:42:54.000Z</time>
      </trkpt>
      <trkpt lat="43.60024" lon="0.53275">
        <ele>173</ele>
        <time>2020-01-12T09:42:56.000Z</time>
      </trkpt>
      <trkpt lat="43.60024" lon="0.53276">
        <ele>173</ele>
        <time>2020-01-12T09:42:58.000Z</time>
      </trkpt>
      <trkpt lat="43.60024" lon="0.53276">
        <ele>174</ele>
        <time>2020-01-12T09:43:00.000Z</time>
      </trkpt>
      <trkpt lat="43.60024" lon="0.53276">
        <ele>174</ele>
        <time>2020-01-12T09:43:02.000Z</time>
      </trkpt>
      <trkpt lat="43.60025" lon="0.53276">
        <ele>174</ele>
        <time>2020-01-12T09:43:04.000Z</time>
      </trkpt>
      <trkpt lat="43.60024" lon="0.53276">
        <ele>174</ele>
        <time>2020-01-12T09:43:06.000Z</time>
      </trkpt>
      <trkpt lat="43.60024" lon="0.53276">
        <ele>173</ele>
        <time>2020-01-12T09:43:08.000Z</time>
      </trkpt>
      <trkpt lat="43.60024" lon="0.53276">
        <ele>173</ele>
        <time>2020-01-12T09:43:10.000Z</time>
      </trkpt>
      <trkpt lat="43.60024" lon="0.53276">
        <ele>173</ele>
        <time>2020-01-12T09:43:12.000Z</time>
      </trkpt>
      <trkpt lat="43.60024" lon="0.53276">
        <ele>173</ele>
        <time>2020-01-12T09:43:14.000Z</time>
      </trkpt>
      <trkpt lat="43.60024" lon="0.53276">
        <ele>173</ele>
        <time>2020-01-12T09:43:16.000Z</time>
      </trkpt>
      <trkpt lat="43.60024" lon="0.53276">
        <ele>173</ele>
        <time>2020-01-12T09:43:18.000Z</time>
      </trkpt>
      <trkpt lat="43.60024" lon="0.53276">
        <ele>174</ele>
        <time>2020-01-12T09:43:20.000Z</time>
      </trkpt>
      <trkpt lat="43.60025" lon="0.53276">
        <ele>174</ele>
        <time>2020-01-12T09:43:22.000Z</time>
      </trkpt>
      <trkpt lat="43.60025" lon="0.53276">
        <ele>174</ele>
        <time>2020-01-12T09:43:24.000Z</time>
      </trkpt>
      <trkpt lat="43.60024" lon="0.53276">
        <ele>173</ele>
        <time>2020-01-12T09:43:26.000Z</time>
      </trkpt>
      <trkpt lat="43.60023" lon="0.53274">
        <ele>173</ele>
        <time>2020-01-12T09:43:28.000Z</time>
      </trkpt>
      <trkpt lat="43.60024" lon="0.53274">
        <ele>173</ele>
        <time>2020-01-12T09:43:30.000Z</time>
      </trkpt>
      <trkpt lat="43.60023" lon="0.53274">
        <ele>173</ele>
        <time>2020-01-12T09:43:32.000Z</time>
      </trkpt>
      <trkpt lat="43.60023" lon="0.53273">
        <ele>173</ele>
        <time>2020-01-12T09:43:34.000Z</time>
      </trkpt>
      <trkpt lat="43.60023" lon="0.53271">
        <ele>173</ele>
        <time>2020-01-12T09:43:36.000Z</time>
      </trkpt>
      <trkpt lat="43.60022" lon="0.53269">
        <ele>173</ele>
        <time>2020-01-12T09:43:38.000Z</time>
      </trkpt>
      <trkpt lat="43.60022" lon="0.53267">
        <ele>173</ele>
        <time>2020-01-12T09:43:40.000Z</time>
      </trkpt>
      <trkpt lat="43.60022" lon="0.53265">
        <ele>173</ele>
        <time>2020-01-12T09:43:42.000Z</time>
      </trkpt>
      <trkpt lat="43.60021" lon="0.53262">
        <ele>173</ele>
        <time>2020-01-12T09:43:44.000Z</time>
      </trkpt>
      <trkpt lat="43.60021" lon="0.5326">
        <ele>173</ele>
        <time>2020-01-12T09:43:46.000Z</time>
      </trkpt>
      <trkpt lat="43.60021" lon="0.53261">
        <ele>173</ele>
        <time>2020-01-12T09:43:48.000Z</time>
      </trkpt>
      <trkpt lat="43.60021" lon="0.53261">
        <ele>173</ele>
        <time>2020-01-12T09:43:50.000Z</time>
      </trkpt>
      <trkpt lat="43.60021" lon="0.53261">
        <ele>173</ele>
        <time>2020-01-12T09:43:52.000Z</time>
      </trkpt>
      <trkpt lat="43.60021" lon="0.53261">
        <ele>173</ele>
        <time>2020-01-12T09:43:54.000Z</time>
      </trkpt>
      <trkpt lat="43.60021" lon="0.53261">
        <ele>173</ele>
        <time>2020-01-12T09:43:56.000Z</time>
      </trkpt>
      <trkpt lat="43.60021" lon="0.53261">
        <ele>173</ele>
        <time>2020-01-12T09:43:58.000Z</time>
      </trkpt>
      <trkpt lat="43.60021" lon="0.53262">
        <ele>173</ele>
        <time>2020-01-12T09:44:00.000Z</time>
      </trkpt>
      <trkpt lat="43.6002" lon="0.53262">
        <ele>173</ele>
        <time>2020-01-12T09:44:02.000Z</time>
      </trkpt>
      <trkpt lat="43.6002" lon="0.53262">
        <ele>173</ele>
        <time>2020-01-12T09:44:04.000Z</time>
      </trkpt>
      <trkpt lat="43.60019" lon="0.53262">
        <ele>173</ele>
        <time>2020-01-12T09:44:06.000Z</time>
      </trkpt>
      <trkpt lat="43.60019" lon="0.53262">
        <ele>173</ele>
        <time>2020-01-12T09:44:08.000Z</time>
      </trkpt>
      <trkpt lat="43.60019" lon="0.53262">
        <ele>173</ele>
        <time>2020-01-12T09:44:10.000Z</time>
      </trkpt>
      <trkpt lat="43.60018" lon="0.53262">
        <ele>173</ele>
        <time>2020-01-12T09:44:12.000Z</time>
      </trkpt>
      <trkpt lat="43.60018" lon="0.53262">
        <ele>173</ele>
        <time>2020-01-12T09:44:14.000Z</time>
      </trkpt>
      <trkpt lat="43.60018" lon="0.53262">
        <ele>173</ele>
        <time>2020-01-12T09:44:16.000Z</time>
      </trkpt>
      <trkpt lat="43.60018" lon="0.53263">
        <ele>173</ele>
        <time>2020-01-12T09:44:18.000Z</time>
      </trkpt>
      <trkpt lat="43.60017" lon="0.53261">
        <ele>173</ele>
        <time>2020-01-12T09:44:20.000Z</time>
      </trkpt>
      <trkpt lat="43.60016" lon="0.53258">
        <ele>173</ele>
        <time>2020-01-12T09:44:22.000Z</time>
      </trkpt>
      <trkpt lat="43.60016" lon="0.53255">
        <ele>173</ele>
        <time>2020-01-12T09:44:24.000Z</time>
      </trkpt>
      <trkpt lat="43.60016" lon="0.53253">
        <ele>173</ele>
        <time>2020-01-12T09:44:26.000Z</time>
      </trkpt>
      <trkpt lat="43.60016" lon="0.53249">
        <ele>173</ele>
        <time>2020-01-12T09:44:28.000Z</time>
      </trkpt>
      <trkpt lat="43.60015" lon="0.53245">
        <ele>173</ele>
        <time>2020-01-12T09:44:30.000Z</time>
      </trkpt>
      <trkpt lat="43.60015" lon="0.53241">
        <ele>173</ele>
        <time>2020-01-12T09:44:32.000Z</time>
      </trkpt>
      <trkpt lat="43.60015" lon="0.53237">
        <ele>173</ele>
        <time>2020-01-12T09:44:34.000Z</time>
      </trkpt>
      <trkpt lat="43.60015" lon="0.53235">
        <ele>173</ele>
        <time>2020-01-12T09:44:36.000Z</time>
      </trkpt>
      <trkpt lat="43.60014" lon="0.53232">
        <ele>173</ele>
        <time>2020-01-12T09:44:38.000Z</time>
      </trkpt>
      <trkpt lat="43.60013" lon="0.53229">
        <ele>173</ele>
        <time>2020-01-12T09:44:40.000Z</time>
      </trkpt>
      <trkpt lat="43.60012" lon="0.53226">
        <ele>173</ele>
        <time>2020-01-12T09:44:42.000Z</time>
      </trkpt>
      <trkpt lat="43.60011" lon="0.53223">
        <ele>173</ele>
        <time>2020-01-12T09:44:44.000Z</time>
      </trkpt>
      <trkpt lat="43.6001" lon="0.53219">
        <ele>173</ele>
        <time>2020-01-12T09:44:46.000Z</time>
      </trkpt>
      <trkpt lat="43.60009" lon="0.53216">
        <ele>173</ele>
        <time>2020-01-12T09:44:48.000Z</time>
      </trkpt>
      <trkpt lat="43.60008" lon="0.53213">
        <ele>173</ele>
        <time>2020-01-12T09:44:50.000Z</time>
      </trkpt>
      <trkpt lat="43.60008" lon="0.53209">
        <ele>174</ele>
        <time>2020-01-12T09:44:52.000Z</time>
      </trkpt>
      <trkpt lat="43.60007" lon="0.53205">
        <ele>174</ele>
        <time>2020-01-12T09:44:54.000Z</time>
      </trkpt>
      <trkpt lat="43.60006" lon="0.53202">
        <ele>174</ele>
        <time>2020-01-12T09:44:56.000Z</time>
      </trkpt>
      <trkpt lat="43.60006" lon="0.532">
        <ele>174</ele>
        <time>2020-01-12T09:44:58.000Z</time>
      </trkpt>
      <trkpt lat="43.60005" lon="0.53196">
        <ele>174</ele>
        <time>2020-01-12T09:45:00.000Z</time>
      </trkpt>
      <trkpt lat="43.60004" lon="0.53193">
        <ele>174</ele>
        <time>2020-01-12T09:45:02.000Z</time>
      </trkpt>
      <trkpt lat="43.60003" lon="0.53189">
        <ele>174</ele>
        <time>2020-01-12T09:45:04.000Z</time>
      </trkpt>
      <trkpt lat="43.60003" lon="0.53186">
        <ele>174</ele>
        <time>2020-01-12T09:45:06.000Z</time>
      </trkpt>
      <trkpt lat="43.60002" lon="0.53184">
        <ele>174</ele>
        <time>2020-01-12T09:45:08.000Z</time>
      </trkpt>
      <trkpt lat="43.60002" lon="0.53181">
        <ele>175</ele>
        <time>2020-01-12T09:45:10.000Z</time>
      </trkpt>
      <trkpt lat="43.60001" lon="0.53178">
        <ele>175</ele>
        <time>2020-01-12T09:45:12.000Z</time>
      </trkpt>
      <trkpt lat="43.60001" lon="0.53175">
        <ele>175</ele>
        <time>2020-01-12T09:45:14.000Z</time>
      </trkpt>
      <trkpt lat="43.6" lon="0.53172">
        <ele>175</ele>
        <time>2020-01-12T09:45:16.000Z</time>
      </trkpt>
      <trkpt lat="43.6" lon="0.53169">
        <ele>175</ele>
        <time>2020-01-12T09:45:18.000Z</time>
      </trkpt>
      <trkpt lat="43.59999" lon="0.53165">
        <ele>175</ele>
        <time>2020-01-12T09:45:20.000Z</time>
      </trkpt>
      <trkpt lat="43.59998" lon="0.53162">
        <ele>175</ele>
        <time>2020-01-12T09:45:22.000Z</time>
      </trkpt>
      <trkpt lat="43.59997" lon="0.53158">
        <ele>175</ele>
        <time>2020-01-12T09:45:24.000Z</time>
      </trkpt>
      <trkpt lat="43.59996" lon="0.53155">
        <ele>175</ele>
        <time>2020-01-12T09:45:26.000Z</time>
      </trkpt>
      <trkpt lat="43.59996" lon="0.53151">
        <ele>176</ele>
        <time>2020-01-12T09:45:28.000Z</time>
      </trkpt>
      <trkpt lat="43.59996" lon="0.53147">
        <ele>176</ele>
        <time>2020-01-12T09:45:30.000Z</time>
      </trkpt>
      <trkpt lat="43.59995" lon="0.53145">
        <ele>176</ele>
        <time>2020-01-12T09:45:32.000Z</time>
      </trkpt>
      <trkpt lat="43.59994" lon="0.53141">
        <ele>176</ele>
        <time>2020-01-12T09:45:34.000Z</time>
      </trkpt>
      <trkpt lat="43.59994" lon="0.53137">
        <ele>176</ele>
        <time>2020-01-12T09:45:36.000Z</time>
      </trkpt>
      <trkpt lat="43.59994" lon="0.53134">
        <ele>176</ele>
        <time>2020-01-12T09:45:38.000Z</time>
      </trkpt>
      <trkpt lat="43.59993" lon="0.5313">
        <ele>176</ele>
        <time>2020-01-12T09:45:40.000Z</time>
      </trkpt>
      <trkpt lat="43.59992" lon="0.53126">
        <ele>176</ele>
        <time>2020-01-12T09:45:42.000Z</time>
      </trkpt>
      <trkpt lat="43.59992" lon="0.53124">
        <ele>176</ele>
        <time>2020-01-12T09:45:44.000Z</time>
      </trkpt>
      <trkpt lat="43.59991" lon="0.53121">
        <ele>176</ele>
        <time>2020-01-12T09:45:46.000Z</time>
      </trkpt>
      <trkpt lat="43.59991" lon="0.53118">
        <ele>176</ele>
        <time>2020-01-12T09:45:48.000Z</time>
      </trkpt>
      <trkpt lat="43.59991" lon="0.53115">
        <ele>176</ele>
        <time>2020-01-12T09:45:50.000Z</time>
      </trkpt>
      <trkpt lat="43.5999" lon="0.53112">
        <ele>176</ele>
        <time>2020-01-12T09:45:52.000Z</time>
      </trkpt>
      <trkpt lat="43.5999" lon="0.53109">
        <ele>176</ele>
        <time>2020-01-12T09:45:54.000Z</time>
      </trkpt>
      <trkpt lat="43.59989" lon="0.53106">
        <ele>176</ele>
        <time>2020-01-12T09:45:56.000Z</time>
      </trkpt>
      <trkpt lat="43.59988" lon="0.53103">
        <ele>176</ele>
        <time>2020-01-12T09:45:58.000Z</time>
      </trkpt>
      <trkpt lat="43.59988" lon="0.531">
        <ele>176</ele>
        <time>2020-01-12T09:46:00.000Z</time>
      </trkpt>
      <trkpt lat="43.59988" lon="0.53095">
        <ele>176</ele>
        <time>2020-01-12T09:46:02.000Z</time>
      </trkpt>
      <trkpt lat="43.59988" lon="0.53092">
        <ele>176</ele>
        <time>2020-01-12T09:46:04.000Z</time>
      </trkpt>
      <trkpt lat="43.59987" lon="0.53088">
        <ele>176</ele>
        <time>2020-01-12T09:46:06.000Z</time>
      </trkpt>
      <trkpt lat="43.59987" lon="0.53085">
        <ele>176</ele>
        <time>2020-01-12T09:46:08.000Z</time>
      </trkpt>
      <trkpt lat="43.59985" lon="0.53082">
        <ele>176</ele>
        <time>2020-01-12T09:46:10.000Z</time>
      </trkpt>
      <trkpt lat="43.59985" lon="0.53079">
        <ele>176</ele>
        <time>2020-01-12T09:46:12.000Z</time>
      </trkpt>
      <trkpt lat="43.59984" lon="0.53076">
        <ele>176</ele>
        <time>2020-01-12T09:46:14.000Z</time>
      </trkpt>
      <trkpt lat="43.59983" lon="0.53072">
        <ele>176</ele>
        <time>2020-01-12T09:46:16.000Z</time>
      </trkpt>
      <trkpt lat="43.59982" lon="0.53068">
        <ele>176</ele>
        <time>2020-01-12T09:46:18.000Z</time>
      </trkpt>
      <trkpt lat="43.59982" lon="0.53065">
        <ele>176</ele>
        <time>2020-01-12T09:46:20.000Z</time>
      </trkpt>
      <trkpt lat="43.5998" lon="0.53061">
        <ele>176</ele>
        <time>2020-01-12T09:46:22.000Z</time>
      </trkpt>
      <trkpt lat="43.5998" lon="0.53058">
        <ele>176</ele>
        <time>2020-01-12T09:46:24.000Z</time>
      </trkpt>
      <trkpt lat="43.59979" lon="0.53055">
        <ele>176</ele>
        <time>2020-01-12T09:46:26.000Z</time>
      </trkpt>
      <trkpt lat="43.59979" lon="0.53051">
        <ele>176</ele>
        <time>2020-01-12T09:46:28.000Z</time>
      </trkpt>
      <trkpt lat="43.59978" lon="0.53048">
        <ele>176</ele>
        <time>2020-01-12T09:46:30.000Z</time>
      </trkpt>
      <trkpt lat="43.59977" lon="0.53045">
        <ele>176</ele>
        <time>2020-01-12T09:46:32.000Z</time>
      </trkpt>
      <trkpt lat="43.59977" lon="0.53041">
        <ele>176</ele>
        <time>2020-01-12T09:46:34.000Z</time>
      </trkpt>
      <trkpt lat="43.59977" lon="0.53038">
        <ele>176</ele>
        <time>2020-01-12T09:46:36.000Z</time>
      </trkpt>
      <trkpt lat="43.59977" lon="0.53035">
        <ele>176</ele>
        <time>2020-01-12T09:46:38.000Z</time>
      </trkpt>
      <trkpt lat="43.59976" lon="0.53032">
        <ele>176</ele>
        <time>2020-01-12T09:46:40.000Z</time>
      </trkpt>
      <trkpt lat="43.59975" lon="0.53029">
        <ele>176</ele>
        <time>2020-01-12T09:46:42.000Z</time>
      </trkpt>
      <trkpt lat="43.59974" lon="0.53026">
        <ele>176</ele>
        <time>2020-01-12T09:46:44.000Z</time>
      </trkpt>
      <trkpt lat="43.59974" lon="0.53024">
        <ele>176</ele>
        <time>2020-01-12T09:46:46.000Z</time>
      </trkpt>
      <trkpt lat="43.59974" lon="0.5302">
        <ele>176</ele>
        <time>2020-01-12T09:46:48.000Z</time>
      </trkpt>
      <trkpt lat="43.59974" lon="0.53017">
        <ele>176</ele>
        <time>2020-01-12T09:46:50.000Z</time>
      </trkpt>
      <trkpt lat="43.59973" lon="0.53014">
        <ele>176</ele>
        <time>2020-01-12T09:46:52.000Z</time>
      </trkpt>
      <trkpt lat="43.59973" lon="0.53012">
        <ele>176</ele>
        <time>2020-01-12T09:46:54.000Z</time>
      </trkpt>
      <trkpt lat="43.59972" lon="0.53009">
        <ele>176</ele>
        <time>2020-01-12T09:46:56.000Z</time>
      </trkpt>
      <trkpt lat="43.59972" lon="0.53006">
        <ele>176</ele>
        <time>2020-01-12T09:46:58.000Z</time>
      </trkpt>
      <trkpt lat="43.59971" lon="0.53003">
        <ele>176</ele>
        <time>2020-01-12T09:47:00.000Z</time>
      </trkpt>
      <trkpt lat="43.59971" lon="0.53001">
        <ele>176</ele>
        <time>2020-01-12T09:47:02.000Z</time>
      </trkpt>
      <trkpt lat="43.5997" lon="0.52997">
        <ele>176</ele>
        <time>2020-01-12T09:47:04.000Z</time>
      </trkpt>
      <trkpt lat="43.5997" lon="0.52995">
        <ele>176</ele>
        <time>2020-01-12T09:47:06.000Z</time>
      </trkpt>
      <trkpt lat="43.59969" lon="0.52992">
        <ele>176</ele>
        <time>2020-01-12T09:47:08.000Z</time>
      </trkpt>
      <trkpt lat="43.59969" lon="0.52989">
        <ele>176</ele>
        <time>2020-01-12T09:47:10.000Z</time>
      </trkpt>
      <trkpt lat="43.59969" lon="0.52987">
        <ele>176</ele>
        <time>2020-01-12T09:47:12.000Z</time>
      </trkpt>
      <trkpt lat="43.59968" lon="0.52984">
        <ele>176</ele>
        <time>2020-01-12T09:47:14.000Z</time>
      </trkpt>
      <trkpt lat="43.59967" lon="0.52982">
        <ele>176</ele>
        <time>2020-01-12T09:47:16.000Z</time>
      </trkpt>
      <trkpt lat="43.59967" lon="0.52978">
        <ele>176</ele>
        <time>2020-01-12T09:47:18.000Z</time>
      </trkpt>
      <trkpt lat="43.59966" lon="0.52975">
        <ele>176</ele>
        <time>2020-01-12T09:47:20.000Z</time>
      </trkpt>
      <trkpt lat="43.59965" lon="0.52972">
        <ele>175</ele>
        <time>2020-01-12T09:47:22.000Z</time>
      </trkpt>
      <trkpt lat="43.59965" lon="0.52969">
        <ele>175</ele>
        <time>2020-01-12T09:47:25.000Z</time>
      </trkpt>
      <trkpt lat="43.59964" lon="0.52966">
        <ele>175</ele>
        <time>2020-01-12T09:47:27.000Z</time>
      </trkpt>
      <trkpt lat="43.59964" lon="0.52963">
        <ele>175</ele>
        <time>2020-01-12T09:47:29.000Z</time>
      </trkpt>
      <trkpt lat="43.59964" lon="0.52959">
        <ele>175</ele>
        <time>2020-01-12T09:47:31.000Z</time>
      </trkpt>
      <trkpt lat="43.59964" lon="0.52956">
        <ele>175</ele>
        <time>2020-01-12T09:47:33.000Z</time>
      </trkpt>
      <trkpt lat="43.59963" lon="0.52954">
        <ele>175</ele>
        <time>2020-01-12T09:47:35.000Z</time>
      </trkpt>
      <trkpt lat="43.59963" lon="0.52952">
        <ele>175</ele>
        <time>2020-01-12T09:47:37.000Z</time>
      </trkpt>
      <trkpt lat="43.59963" lon="0.52949">
        <ele>175</ele>
        <time>2020-01-12T09:47:39.000Z</time>
      </trkpt>
      <trkpt lat="43.59962" lon="0.52946">
        <ele>175</ele>
        <time>2020-01-12T09:47:41.000Z</time>
      </trkpt>
      <trkpt lat="43.59962" lon="0.52943">
        <ele>175</ele>
        <time>2020-01-12T09:47:43.000Z</time>
      </trkpt>
      <trkpt lat="43.59962" lon="0.5294">
        <ele>175</ele>
        <time>2020-01-12T09:47:45.000Z</time>
      </trkpt>
      <trkpt lat="43.59962" lon="0.52936">
        <ele>175</ele>
        <time>2020-01-12T09:47:47.000Z</time>
      </trkpt>
      <trkpt lat="43.59961" lon="0.52933">
        <ele>175</ele>
        <time>2020-01-12T09:47:49.000Z</time>
      </trkpt>
      <trkpt lat="43.59961" lon="0.5293">
        <ele>175</ele>
        <time>2020-01-12T09:47:51.000Z</time>
      </trkpt>
      <trkpt lat="43.5996" lon="0.52928">
        <ele>175</ele>
        <time>2020-01-12T09:47:53.000Z</time>
      </trkpt>
      <trkpt lat="43.59959" lon="0.52925">
        <ele>175</ele>
        <time>2020-01-12T09:47:55.000Z</time>
      </trkpt>
      <trkpt lat="43.59959" lon="0.52922">
        <ele>175</ele>
        <time>2020-01-12T09:47:57.000Z</time>
      </trkpt>
      <trkpt lat="43.59958" lon="0.52919">
        <ele>175</ele>
        <time>2020-01-12T09:47:59.000Z</time>
      </trkpt>
      <trkpt lat="43.59958" lon="0.52917">
        <ele>175</ele>
        <time>2020-01-12T09:48:01.000Z</time>
      </trkpt>
      <trkpt lat="43.59957" lon="0.52914">
        <ele>175</ele>
        <time>2020-01-12T09:48:03.000Z</time>
      </trkpt>
      <trkpt lat="43.59957" lon="0.52911">
        <ele>175</ele>
        <time>2020-01-12T09:48:05.000Z</time>
      </trkpt>
      <trkpt lat="43.59956" lon="0.52908">
        <ele>175</ele>
        <time>2020-01-12T09:48:07.000Z</time>
      </trkpt>
      <trkpt lat="43.59956" lon="0.52904">
        <ele>175</ele>
        <time>2020-01-12T09:48:09.000Z</time>
      </trkpt>
      <trkpt lat="43.59955" lon="0.52902">
        <ele>175</ele>
        <time>2020-01-12T09:48:11.000Z</time>
      </trkpt>
      <trkpt lat="43.59954" lon="0.52899">
        <ele>175</ele>
        <time>2020-01-12T09:48:13.000Z</time>
      </trkpt>
      <trkpt lat="43.59953" lon="0.52897">
        <ele>175</ele>
        <time>2020-01-12T09:48:15.000Z</time>
      </trkpt>
      <trkpt lat="43.59952" lon="0.52895">
        <ele>175</ele>
        <time>2020-01-12T09:48:17.000Z</time>
      </trkpt>
      <trkpt lat="43.59951" lon="0.52893">
        <ele>174</ele>
        <time>2020-01-12T09:48:19.000Z</time>
      </trkpt>
      <trkpt lat="43.59949" lon="0.52892">
        <ele>174</ele>
        <time>2020-01-12T09:48:21.000Z</time>
      </trkpt>
      <trkpt lat="43.59947" lon="0.52891">
        <ele>174</ele>
        <time>2020-01-12T09:48:23.000Z</time>
      </trkpt>
      <trkpt lat="43.59945" lon="0.5289">
        <ele>174</ele>
        <time>2020-01-12T09:48:25.000Z</time>
      </trkpt>
      <trkpt lat="43.59943" lon="0.5289">
        <ele>174</ele>
        <time>2020-01-12T09:48:27.000Z</time>
      </trkpt>
      <trkpt lat="43.59941" lon="0.5289">
        <ele>173</ele>
        <time>2020-01-12T09:48:29.000Z</time>
      </trkpt>
      <trkpt lat="43.59939" lon="0.5289">
        <ele>173</ele>
        <time>2020-01-12T09:48:31.000Z</time>
      </trkpt>
      <trkpt lat="43.59937" lon="0.52889">
        <ele>173</ele>
        <time>2020-01-12T09:48:33.000Z</time>
      </trkpt>
      <trkpt lat="43.59936" lon="0.52888">
        <ele>173</ele>
        <time>2020-01-12T09:48:35.000Z</time>
      </trkpt>
      <trkpt lat="43.59934" lon="0.52887">
        <ele>173</ele>
        <time>2020-01-12T09:48:37.000Z</time>
      </trkpt>
      <trkpt lat="43.59932" lon="0.52885">
        <ele>173</ele>
        <time>2020-01-12T09:48:39.000Z</time>
      </trkpt>
      <trkpt lat="43.59932" lon="0.52882">
        <ele>173</ele>
        <time>2020-01-12T09:48:41.000Z</time>
      </trkpt>
      <trkpt lat="43.59932" lon="0.52879">
        <ele>174</ele>
        <time>2020-01-12T09:48:43.000Z</time>
      </trkpt>
      <trkpt lat="43.5993" lon="0.52877">
        <ele>174</ele>
        <time>2020-01-12T09:48:45.000Z</time>
      </trkpt>
      <trkpt lat="43.59929" lon="0.52875">
        <ele>174</ele>
        <time>2020-01-12T09:48:47.000Z</time>
      </trkpt>
      <trkpt lat="43.59928" lon="0.52874">
        <ele>174</ele>
        <time>2020-01-12T09:48:49.000Z</time>
      </trkpt>
      <trkpt lat="43.59927" lon="0.52872">
        <ele>174</ele>
        <time>2020-01-12T09:48:51.000Z</time>
      </trkpt>
      <trkpt lat="43.59926" lon="0.5287">
        <ele>175</ele>
        <time>2020-01-12T09:48:53.000Z</time>
      </trkpt>
      <trkpt lat="43.59925" lon="0.52869">
        <ele>175</ele>
        <time>2020-01-12T09:48:55.000Z</time>
      </trkpt>
      <trkpt lat="43.59925" lon="0.52867">
        <ele>175</ele>
        <time>2020-01-12T09:48:57.000Z</time>
      </trkpt>
      <trkpt lat="43.59923" lon="0.52864">
        <ele>175</ele>
        <time>2020-01-12T09:48:59.000Z</time>
      </trkpt>
      <trkpt lat="43.59922" lon="0.52862">
        <ele>175</ele>
        <time>2020-01-12T09:49:01.000Z</time>
      </trkpt>
      <trkpt lat="43.59921" lon="0.52859">
        <ele>175</ele>
        <time>2020-01-12T09:49:03.000Z</time>
      </trkpt>
      <trkpt lat="43.59921" lon="0.52856">
        <ele>175</ele>
        <time>2020-01-12T09:49:05.000Z</time>
      </trkpt>
      <trkpt lat="43.59921" lon="0.52853">
        <ele>176</ele>
        <time>2020-01-12T09:49:07.000Z</time>
      </trkpt>
      <trkpt lat="43.59921" lon="0.52851">
        <ele>176</ele>
        <time>2020-01-12T09:49:09.000Z</time>
      </trkpt>
      <trkpt lat="43.59921" lon="0.52848">
        <ele>176</ele>
        <time>2020-01-12T09:49:11.000Z</time>
      </trkpt>
      <trkpt lat="43.59921" lon="0.52846">
        <ele>176</ele>
        <time>2020-01-12T09:49:13.000Z</time>
      </trkpt>
      <trkpt lat="43.5992" lon="0.52843">
        <ele>176</ele>
        <time>2020-01-12T09:49:16.000Z</time>
      </trkpt>
      <trkpt lat="43.5992" lon="0.52842">
        <ele>176</ele>
        <time>2020-01-12T09:49:18.000Z</time>
      </trkpt>
      <trkpt lat="43.5992" lon="0.52839">
        <ele>176</ele>
        <time>2020-01-12T09:49:20.000Z</time>
      </trkpt>
      <trkpt lat="43.5992" lon="0.52837">
        <ele>176</ele>
        <time>2020-01-12T09:49:22.000Z</time>
      </trkpt>
      <trkpt lat="43.5992" lon="0.52835">
        <ele>176</ele>
        <time>2020-01-12T09:49:24.000Z</time>
      </trkpt>
      <trkpt lat="43.5992" lon="0.52833">
        <ele>176</ele>
        <time>2020-01-12T09:49:26.000Z</time>
      </trkpt>
      <trkpt lat="43.59919" lon="0.52831">
        <ele>176</ele>
        <time>2020-01-12T09:49:28.000Z</time>
      </trkpt>
      <trkpt lat="43.59919" lon="0.52828">
        <ele>176</ele>
        <time>2020-01-12T09:49:30.000Z</time>
      </trkpt>
      <trkpt lat="43.59919" lon="0.52826">
        <ele>177</ele>
        <time>2020-01-12T09:49:32.000Z</time>
      </trkpt>
      <trkpt lat="43.59919" lon="0.52824">
        <ele>177</ele>
        <time>2020-01-12T09:49:34.000Z</time>
      </trkpt>
      <trkpt lat="43.59919" lon="0.52823">
        <ele>177</ele>
        <time>2020-01-12T09:49:36.000Z</time>
      </trkpt>
      <trkpt lat="43.59919" lon="0.52821">
        <ele>177</ele>
        <time>2020-01-12T09:49:38.000Z</time>
      </trkpt>
      <trkpt lat="43.59919" lon="0.52819">
        <ele>177</ele>
        <time>2020-01-12T09:49:40.000Z</time>
      </trkpt>
      <trkpt lat="43.59919" lon="0.52816">
        <ele>177</ele>
        <time>2020-01-12T09:49:42.000Z</time>
      </trkpt>
      <trkpt lat="43.59919" lon="0.52813">
        <ele>177</ele>
        <time>2020-01-12T09:49:44.000Z</time>
      </trkpt>
      <trkpt lat="43.59919" lon="0.52811">
        <ele>177</ele>
        <time>2020-01-12T09:49:46.000Z</time>
      </trkpt>
      <trkpt lat="43.59919" lon="0.52808">
        <ele>177</ele>
        <time>2020-01-12T09:49:48.000Z</time>
      </trkpt>
      <trkpt lat="43.59919" lon="0.52805">
        <ele>177</ele>
        <time>2020-01-12T09:49:50.000Z</time>
      </trkpt>
      <trkpt lat="43.59919" lon="0.52802">
        <ele>177</ele>
        <time>2020-01-12T09:49:52.000Z</time>
      </trkpt>
      <trkpt lat="43.59918" lon="0.52799">
        <ele>177</ele>
        <time>2020-01-12T09:49:54.000Z</time>
      </trkpt>
      <trkpt lat="43.59918" lon="0.52797">
        <ele>177</ele>
        <time>2020-01-12T09:49:56.000Z</time>
      </trkpt>
      <trkpt lat="43.59917" lon="0.52794">
        <ele>177</ele>
        <time>2020-01-12T09:49:58.000Z</time>
      </trkpt>
      <trkpt lat="43.59917" lon="0.52792">
        <ele>177</ele>
        <time>2020-01-12T09:50:00.000Z</time>
      </trkpt>
      <trkpt lat="43.59917" lon="0.5279">
        <ele>177</ele>
        <time>2020-01-12T09:50:02.000Z</time>
      </trkpt>
      <trkpt lat="43.59918" lon="0.52787">
        <ele>177</ele>
        <time>2020-01-12T09:50:04.000Z</time>
      </trkpt>
      <trkpt lat="43.59918" lon="0.52785">
        <ele>177</ele>
        <time>2020-01-12T09:50:06.000Z</time>
      </trkpt>
      <trkpt lat="43.59918" lon="0.52782">
        <ele>177</ele>
        <time>2020-01-12T09:50:08.000Z</time>
      </trkpt>
      <trkpt lat="43.59919" lon="0.5278">
        <ele>177</ele>
        <time>2020-01-12T09:50:10.000Z</time>
      </trkpt>
      <trkpt lat="43.59919" lon="0.52778">
        <ele>177</ele>
        <time>2020-01-12T09:50:12.000Z</time>
      </trkpt>
      <trkpt lat="43.59919" lon="0.52776">
        <ele>177</ele>
        <time>2020-01-12T09:50:14.000Z</time>
      </trkpt>
      <trkpt lat="43.59919" lon="0.52774">
        <ele>178</ele>
        <time>2020-01-12T09:50:16.000Z</time>
      </trkpt>
      <trkpt lat="43.59919" lon="0.52772">
        <ele>178</ele>
        <time>2020-01-12T09:50:18.000Z</time>
      </trkpt>
      <trkpt lat="43.59921" lon="0.52769">
        <ele>177</ele>
        <time>2020-01-12T09:50:20.000Z</time>
      </trkpt>
      <trkpt lat="43.59922" lon="0.52766">
        <ele>177</ele>
        <time>2020-01-12T09:50:22.000Z</time>
      </trkpt>
      <trkpt lat="43.59923" lon="0.52763">
        <ele>177</ele>
        <time>2020-01-12T09:50:24.000Z</time>
      </trkpt>
      <trkpt lat="43.59924" lon="0.5276">
        <ele>177</ele>
        <time>2020-01-12T09:50:26.000Z</time>
      </trkpt>
      <trkpt lat="43.59925" lon="0.52758">
        <ele>177</ele>
        <time>2020-01-12T09:50:28.000Z</time>
      </trkpt>
      <trkpt lat="43.59925" lon="0.52757">
        <ele>177</ele>
        <time>2020-01-12T09:50:30.000Z</time>
      </trkpt>
      <trkpt lat="43.59927" lon="0.52756">
        <ele>177</ele>
        <time>2020-01-12T09:50:32.000Z</time>
      </trkpt>
      <trkpt lat="43.59928" lon="0.52754">
        <ele>177</ele>
        <time>2020-01-12T09:50:34.000Z</time>
      </trkpt>
      <trkpt lat="43.59928" lon="0.52753">
        <ele>177</ele>
        <time>2020-01-12T09:50:36.000Z</time>
      </trkpt>
      <trkpt lat="43.59929" lon="0.52751">
        <ele>177</ele>
        <time>2020-01-12T09:50:38.000Z</time>
      </trkpt>
      <trkpt lat="43.5993" lon="0.5275">
        <ele>177</ele>
        <time>2020-01-12T09:50:40.000Z</time>
      </trkpt>
      <trkpt lat="43.5993" lon="0.52748">
        <ele>177</ele>
        <time>2020-01-12T09:50:42.000Z</time>
      </trkpt>
      <trkpt lat="43.59931" lon="0.52747">
        <ele>177</ele>
        <time>2020-01-12T09:50:44.000Z</time>
      </trkpt>
      <trkpt lat="43.59932" lon="0.52745">
        <ele>177</ele>
        <time>2020-01-12T09:50:46.000Z</time>
      </trkpt>
      <trkpt lat="43.59933" lon="0.52743">
        <ele>177</ele>
        <time>2020-01-12T09:50:48.000Z</time>
      </trkpt>
      <trkpt lat="43.59934" lon="0.52741">
        <ele>177</ele>
        <time>2020-01-12T09:50:50.000Z</time>
      </trkpt>
      <trkpt lat="43.59936" lon="0.52739">
        <ele>177</ele>
        <time>2020-01-12T09:50:52.000Z</time>
      </trkpt>
      <trkpt lat="43.59937" lon="0.52737">
        <ele>177</ele>
        <time>2020-01-12T09:50:54.000Z</time>
      </trkpt>
      <trkpt lat="43.59938" lon="0.52735">
        <ele>177</ele>
        <time>2020-01-12T09:50:56.000Z</time>
      </trkpt>
      <trkpt lat="43.59939" lon="0.52734">
        <ele>177</ele>
        <time>2020-01-12T09:50:58.000Z</time>
      </trkpt>
      <trkpt lat="43.5994" lon="0.52732">
        <ele>177</ele>
        <time>2020-01-12T09:51:00.000Z</time>
      </trkpt>
      <trkpt lat="43.59941" lon="0.5273">
        <ele>177</ele>
        <time>2020-01-12T09:51:02.000Z</time>
      </trkpt>
      <trkpt lat="43.59942" lon="0.52728">
        <ele>177</ele>
        <time>2020-01-12T09:51:04.000Z</time>
      </trkpt>
      <trkpt lat="43.59943" lon="0.52726">
        <ele>177</ele>
        <time>2020-01-12T09:51:06.000Z</time>
      </trkpt>
      <trkpt lat="43.59944" lon="0.52725">
        <ele>177</ele>
        <time>2020-01-12T09:51:08.000Z</time>
      </trkpt>
      <trkpt lat="43.59945" lon="0.52724">
        <ele>178</ele>
        <time>2020-01-12T09:51:10.000Z</time>
      </trkpt>
      <trkpt lat="43.59946" lon="0.52722">
        <ele>178</ele>
        <time>2020-01-12T09:51:12.000Z</time>
      </trkpt>
      <trkpt lat="43.59947" lon="0.5272">
        <ele>178</ele>
        <time>2020-01-12T09:51:14.000Z</time>
      </trkpt>
      <trkpt lat="43.59948" lon="0.52719">
        <ele>178</ele>
        <time>2020-01-12T09:51:16.000Z</time>
      </trkpt>
      <trkpt lat="43.59949" lon="0.52718">
        <ele>178</ele>
        <time>2020-01-12T09:51:18.000Z</time>
      </trkpt>
      <trkpt lat="43.5995" lon="0.52717">
        <ele>178</ele>
        <time>2020-01-12T09:51:20.000Z</time>
      </trkpt>
      <trkpt lat="43.59951" lon="0.52716">
        <ele>178</ele>
        <time>2020-01-12T09:51:22.000Z</time>
      </trkpt>
      <trkpt lat="43.59952" lon="0.52715">
        <ele>178</ele>
        <time>2020-01-12T09:51:24.000Z</time>
      </trkpt>
      <trkpt lat="43.59953" lon="0.52714">
        <ele>178</ele>
        <time>2020-01-12T09:51:26.000Z</time>
      </trkpt>
      <trkpt lat="43.59954" lon="0.52713">
        <ele>178</ele>
        <time>2020-01-12T09:51:28.000Z</time>
      </trkpt>
      <trkpt lat="43.59955" lon="0.52713">
        <ele>178</ele>
        <time>2020-01-12T09:51:30.000Z</time>
      </trkpt>
      <trkpt lat="43.59955" lon="0.52712">
        <ele>178</ele>
        <time>2020-01-12T09:51:32.000Z</time>
      </trkpt>
      <trkpt lat="43.59956" lon="0.52711">
        <ele>178</ele>
        <time>2020-01-12T09:51:34.000Z</time>
      </trkpt>
      <trkpt lat="43.59957" lon="0.52709">
        <ele>178</ele>
        <time>2020-01-12T09:51:36.000Z</time>
      </trkpt>
      <trkpt lat="43.59958" lon="0.52708">
        <ele>178</ele>
        <time>2020-01-12T09:51:38.000Z</time>
      </trkpt>
      <trkpt lat="43.59959" lon="0.52707">
        <ele>178</ele>
        <time>2020-01-12T09:51:40.000Z</time>
      </trkpt>
      <trkpt lat="43.5996" lon="0.52705">
        <ele>178</ele>
        <time>2020-01-12T09:51:42.000Z</time>
      </trkpt>
      <trkpt lat="43.59961" lon="0.52704">
        <ele>178</ele>
        <time>2020-01-12T09:51:44.000Z</time>
      </trkpt>
      <trkpt lat="43.59962" lon="0.52703">
        <ele>178</ele>
        <time>2020-01-12T09:51:46.000Z</time>
      </trkpt>
      <trkpt lat="43.59964" lon="0.52702">
        <ele>178</ele>
        <time>2020-01-12T09:51:48.000Z</time>
      </trkpt>
      <trkpt lat="43.59964" lon="0.527">
        <ele>178</ele>
        <time>2020-01-12T09:51:50.000Z</time>
      </trkpt>
      <trkpt lat="43.59965" lon="0.527">
        <ele>178</ele>
        <time>2020-01-12T09:51:52.000Z</time>
      </trkpt>
      <trkpt lat="43.59966" lon="0.52698">
        <ele>178</ele>
        <time>2020-01-12T09:51:54.000Z</time>
      </trkpt>
      <trkpt lat="43.59967" lon="0.52697">
        <ele>179</ele>
        <time>2020-01-12T09:51:56.000Z</time>
      </trkpt>
      <trkpt lat="43.59967" lon="0.52696">
        <ele>179</ele>
        <time>2020-01-12T09:51:58.000Z</time>
      </trkpt>
      <trkpt lat="43.59969" lon="0.52695">
        <ele>179</ele>
        <time>2020-01-12T09:52:00.000Z</time>
      </trkpt>
      <trkpt lat="43.5997" lon="0.52694">
        <ele>179</ele>
        <time>2020-01-12T09:52:02.000Z</time>
      </trkpt>
      <trkpt lat="43.59971" lon="0.52693">
        <ele>179</ele>
        <time>2020-01-12T09:52:04.000Z</time>
      </trkpt>
      <trkpt lat="43.59973" lon="0.52692">
        <ele>179</ele>
        <time>2020-01-12T09:52:06.000Z</time>
      </trkpt>
      <trkpt lat="43.59974" lon="0.52691">
        <ele>179</ele>
        <time>2020-01-12T09:52:09.000Z</time>
      </trkpt>
      <trkpt lat="43.59975" lon="0.5269">
        <ele>179</ele>
        <time>2020-01-12T09:52:11.000Z</time>
      </trkpt>
      <trkpt lat="43.59976" lon="0.52689">
        <ele>179</ele>
        <time>2020-01-12T09:52:13.000Z</time>
      </trkpt>
      <trkpt lat="43.59977" lon="0.52688">
        <ele>179</ele>
        <time>2020-01-12T09:52:15.000Z</time>
      </trkpt>
      <trkpt lat="43.59978" lon="0.52687">
        <ele>179</ele>
        <time>2020-01-12T09:52:17.000Z</time>
      </trkpt>
      <trkpt lat="43.59979" lon="0.52685">
        <ele>179</ele>
        <time>2020-01-12T09:52:19.000Z</time>
      </trkpt>
      <trkpt lat="43.5998" lon="0.52684">
        <ele>179</ele>
        <time>2020-01-12T09:52:21.000Z</time>
      </trkpt>
      <trkpt lat="43.59981" lon="0.52683">
        <ele>179</ele>
        <time>2020-01-12T09:52:23.000Z</time>
      </trkpt>
      <trkpt lat="43.59982" lon="0.52683">
        <ele>179</ele>
        <time>2020-01-12T09:52:25.000Z</time>
      </trkpt>
      <trkpt lat="43.59984" lon="0.52682">
        <ele>179</ele>
        <time>2020-01-12T09:52:27.000Z</time>
      </trkpt>
      <trkpt lat="43.59985" lon="0.52681">
        <ele>180</ele>
        <time>2020-01-12T09:52:29.000Z</time>
      </trkpt>
      <trkpt lat="43.59986" lon="0.52679">
        <ele>180</ele>
        <time>2020-01-12T09:52:31.000Z</time>
      </trkpt>
      <trkpt lat="43.59988" lon="0.52678">
        <ele>180</ele>
        <time>2020-01-12T09:52:33.000Z</time>
      </trkpt>
      <trkpt lat="43.59989" lon="0.52677">
        <ele>180</ele>
        <time>2020-01-12T09:52:35.000Z</time>
      </trkpt>
      <trkpt lat="43.59991" lon="0.52676">
        <ele>180</ele>
        <time>2020-01-12T09:52:37.000Z</time>
      </trkpt>
      <trkpt lat="43.59992" lon="0.52675">
        <ele>180</ele>
        <time>2020-01-12T09:52:39.000Z</time>
      </trkpt>
      <trkpt lat="43.59993" lon="0.52674">
        <ele>181</ele>
        <time>2020-01-12T09:52:41.000Z</time>
      </trkpt>
      <trkpt lat="43.59994" lon="0.52673">
        <ele>181</ele>
        <time>2020-01-12T09:52:43.000Z</time>
      </trkpt>
      <trkpt lat="43.59995" lon="0.52671">
        <ele>181</ele>
        <time>2020-01-12T09:52:45.000Z</time>
      </trkpt>
      <trkpt lat="43.59997" lon="0.5267">
        <ele>181</ele>
        <time>2020-01-12T09:52:47.000Z</time>
      </trkpt>
      <trkpt lat="43.59998" lon="0.52668">
        <ele>181</ele>
        <time>2020-01-12T09:52:49.000Z</time>
      </trkpt>
      <trkpt lat="43.59999" lon="0.52667">
        <ele>182</ele>
        <time>2020-01-12T09:52:51.000Z</time>
      </trkpt>
      <trkpt lat="43.6" lon="0.52666">
        <ele>182</ele>
        <time>2020-01-12T09:52:53.000Z</time>
      </trkpt>
      <trkpt lat="43.60002" lon="0.52664">
        <ele>182</ele>
        <time>2020-01-12T09:52:55.000Z</time>
      </trkpt>
      <trkpt lat="43.60003" lon="0.52663">
        <ele>182</ele>
        <time>2020-01-12T09:52:57.000Z</time>
      </trkpt>
      <trkpt lat="43.60004" lon="0.52662">
        <ele>182</ele>
        <time>2020-01-12T09:52:59.000Z</time>
      </trkpt>
      <trkpt lat="43.60005" lon="0.52661">
        <ele>182</ele>
        <time>2020-01-12T09:53:01.000Z</time>
      </trkpt>
      <trkpt lat="43.60007" lon="0.52659">
        <ele>183</ele>
        <time>2020-01-12T09:53:03.000Z</time>
      </trkpt>
      <trkpt lat="43.60008" lon="0.52658">
        <ele>183</ele>
        <time>2020-01-12T09:53:05.000Z</time>
      </trkpt>
      <trkpt lat="43.6001" lon="0.52655">
        <ele>183</ele>
        <time>2020-01-12T09:53:07.000Z</time>
      </trkpt>
      <trkpt lat="43.60011" lon="0.52653">
        <ele>183</ele>
        <time>2020-01-12T09:53:09.000Z</time>
      </trkpt>
      <trkpt lat="43.60013" lon="0.52651">
        <ele>184</ele>
        <time>2020-01-12T09:53:11.000Z</time>
      </trkpt>
      <trkpt lat="43.60014" lon="0.52649">
        <ele>184</ele>
        <time>2020-01-12T09:53:13.000Z</time>
      </trkpt>
      <trkpt lat="43.60016" lon="0.52648">
        <ele>184</ele>
        <time>2020-01-12T09:53:15.000Z</time>
      </trkpt>
      <trkpt lat="43.60017" lon="0.52646">
        <ele>184</ele>
        <time>2020-01-12T09:53:17.000Z</time>
      </trkpt>
      <trkpt lat="43.60019" lon="0.52644">
        <ele>185</ele>
        <time>2020-01-12T09:53:19.000Z</time>
      </trkpt>
      <trkpt lat="43.6002" lon="0.52643">
        <ele>185</ele>
        <time>2020-01-12T09:53:21.000Z</time>
      </trkpt>
      <trkpt lat="43.60022" lon="0.5264">
        <ele>185</ele>
        <time>2020-01-12T09:53:24.000Z</time>
      </trkpt>
      <trkpt lat="43.60024" lon="0.52638">
        <ele>185</ele>
        <time>2020-01-12T09:53:26.000Z</time>
      </trkpt>
      <trkpt lat="43.60025" lon="0.52637">
        <ele>185</ele>
        <time>2020-01-12T09:53:28.000Z</time>
      </trkpt>
      <trkpt lat="43.60027" lon="0.52635">
        <ele>185</ele>
        <time>2020-01-12T09:53:30.000Z</time>
      </trkpt>
      <trkpt lat="43.60029" lon="0.52634">
        <ele>185</ele>
        <time>2020-01-12T09:53:32.000Z</time>
      </trkpt>
      <trkpt lat="43.6003" lon="0.52633">
        <ele>185</ele>
        <time>2020-01-12T09:53:34.000Z</time>
      </trkpt>
      <trkpt lat="43.60032" lon="0.52632">
        <ele>185</ele>
        <time>2020-01-12T09:53:36.000Z</time>
      </trkpt>
      <trkpt lat="43.60034" lon="0.52631">
        <ele>185</ele>
        <time>2020-01-12T09:53:38.000Z</time>
      </trkpt>
      <trkpt lat="43.60036" lon="0.52629">
        <ele>185</ele>
        <time>2020-01-12T09:53:40.000Z</time>
      </trkpt>
      <trkpt lat="43.60037" lon="0.52628">
        <ele>185</ele>
        <time>2020-01-12T09:53:42.000Z</time>
      </trkpt>
      <trkpt lat="43.60038" lon="0.52627">
        <ele>185</ele>
        <time>2020-01-12T09:53:44.000Z</time>
      </trkpt>
      <trkpt lat="43.6004" lon="0.52625">
        <ele>185</ele>
        <time>2020-01-12T09:53:46.000Z</time>
      </trkpt>
      <trkpt lat="43.60041" lon="0.52624">
        <ele>186</ele>
        <time>2020-01-12T09:53:48.000Z</time>
      </trkpt>
      <trkpt lat="43.60043" lon="0.52622">
        <ele>186</ele>
        <time>2020-01-12T09:53:50.000Z</time>
      </trkpt>
      <trkpt lat="43.60045" lon="0.5262">
        <ele>186</ele>
        <time>2020-01-12T09:53:52.000Z</time>
      </trkpt>
      <trkpt lat="43.60046" lon="0.52618">
        <ele>186</ele>
        <time>2020-01-12T09:53:54.000Z</time>
      </trkpt>
      <trkpt lat="43.60047" lon="0.52617">
        <ele>186</ele>
        <time>2020-01-12T09:53:56.000Z</time>
      </trkpt>
      <trkpt lat="43.60049" lon="0.52616">
        <ele>186</ele>
        <time>2020-01-12T09:53:58.000Z</time>
      </trkpt>
      <trkpt lat="43.6005" lon="0.52615">
        <ele>186</ele>
        <time>2020-01-12T09:54:00.000Z</time>
      </trkpt>
      <trkpt lat="43.60051" lon="0.52614">
        <ele>186</ele>
        <time>2020-01-12T09:54:02.000Z</time>
      </trkpt>
      <trkpt lat="43.60053" lon="0.52612">
        <ele>186</ele>
        <time>2020-01-12T09:54:04.000Z</time>
      </trkpt>
      <trkpt lat="43.60054" lon="0.52611">
        <ele>186</ele>
        <time>2020-01-12T09:54:06.000Z</time>
      </trkpt>
      <trkpt lat="43.60056" lon="0.5261">
        <ele>186</ele>
        <time>2020-01-12T09:54:08.000Z</time>
      </trkpt>
      <trkpt lat="43.60058" lon="0.52609">
        <ele>186</ele>
        <time>2020-01-12T09:54:10.000Z</time>
      </trkpt>
      <trkpt lat="43.60059" lon="0.52608">
        <ele>186</ele>
        <time>2020-01-12T09:54:12.000Z</time>
      </trkpt>
      <trkpt lat="43.60061" lon="0.52606">
        <ele>186</ele>
        <time>2020-01-12T09:54:15.000Z</time>
      </trkpt>
      <trkpt lat="43.60062" lon="0.52604">
        <ele>186</ele>
        <time>2020-01-12T09:54:17.000Z</time>
      </trkpt>
      <trkpt lat="43.60064" lon="0.52603">
        <ele>186</ele>
        <time>2020-01-12T09:54:19.000Z</time>
      </trkpt>
      <trkpt lat="43.60065" lon="0.52602">
        <ele>186</ele>
        <time>2020-01-12T09:54:21.000Z</time>
      </trkpt>
      <trkpt lat="43.60067" lon="0.526">
        <ele>186</ele>
        <time>2020-01-12T09:54:23.000Z</time>
      </trkpt>
      <trkpt lat="43.60068" lon="0.52599">
        <ele>187</ele>
        <time>2020-01-12T09:54:25.000Z</time>
      </trkpt>
      <trkpt lat="43.60069" lon="0.52598">
        <ele>187</ele>
        <time>2020-01-12T09:54:27.000Z</time>
      </trkpt>
      <trkpt lat="43.60071" lon="0.52596">
        <ele>187</ele>
        <time>2020-01-12T09:54:29.000Z</time>
      </trkpt>
      <trkpt lat="43.60072" lon="0.52595">
        <ele>187</ele>
        <time>2020-01-12T09:54:31.000Z</time>
      </trkpt>
      <trkpt lat="43.60073" lon="0.52594">
        <ele>188</ele>
        <time>2020-01-12T09:54:33.000Z</time>
      </trkpt>
      <trkpt lat="43.60074" lon="0.52593">
        <ele>188</ele>
        <time>2020-01-12T09:54:35.000Z</time>
      </trkpt>
      <trkpt lat="43.60076" lon="0.52591">
        <ele>189</ele>
        <time>2020-01-12T09:54:37.000Z</time>
      </trkpt>
      <trkpt lat="43.60077" lon="0.5259">
        <ele>189</ele>
        <time>2020-01-12T09:54:39.000Z</time>
      </trkpt>
      <trkpt lat="43.60078" lon="0.52589">
        <ele>189</ele>
        <time>2020-01-12T09:54:41.000Z</time>
      </trkpt>
      <trkpt lat="43.6008" lon="0.52587">
        <ele>189</ele>
        <time>2020-01-12T09:54:43.000Z</time>
      </trkpt>
      <trkpt lat="43.60081" lon="0.52585">
        <ele>190</ele>
        <time>2020-01-12T09:54:45.000Z</time>
      </trkpt>
      <trkpt lat="43.60082" lon="0.52583">
        <ele>190</ele>
        <time>2020-01-12T09:54:47.000Z</time>
      </trkpt>
      <trkpt lat="43.60083" lon="0.52581">
        <ele>191</ele>
        <time>2020-01-12T09:54:49.000Z</time>
      </trkpt>
      <trkpt lat="43.60085" lon="0.52581">
        <ele>191</ele>
        <time>2020-01-12T09:54:51.000Z</time>
      </trkpt>
      <trkpt lat="43.60086" lon="0.5258">
        <ele>191</ele>
        <time>2020-01-12T09:54:53.000Z</time>
      </trkpt>
      <trkpt lat="43.60087" lon="0.52578">
        <ele>192</ele>
        <time>2020-01-12T09:54:55.000Z</time>
      </trkpt>
      <trkpt lat="43.60088" lon="0.52577">
        <ele>192</ele>
        <time>2020-01-12T09:54:57.000Z</time>
      </trkpt>
      <trkpt lat="43.6009" lon="0.52576">
        <ele>192</ele>
        <time>2020-01-12T09:54:59.000Z</time>
      </trkpt>
      <trkpt lat="43.60091" lon="0.52575">
        <ele>193</ele>
        <time>2020-01-12T09:55:01.000Z</time>
      </trkpt>
      <trkpt lat="43.60092" lon="0.52573">
        <ele>193</ele>
        <time>2020-01-12T09:55:03.000Z</time>
      </trkpt>
      <trkpt lat="43.60094" lon="0.52572">
        <ele>193</ele>
        <time>2020-01-12T09:55:05.000Z</time>
      </trkpt>
      <trkpt lat="43.60095" lon="0.52571">
        <ele>193</ele>
        <time>2020-01-12T09:55:07.000Z</time>
      </trkpt>
      <trkpt lat="43.60096" lon="0.5257">
        <ele>194</ele>
        <time>2020-01-12T09:55:09.000Z</time>
      </trkpt>
      <trkpt lat="43.60097" lon="0.52569">
        <ele>194</ele>
        <time>2020-01-12T09:55:11.000Z</time>
      </trkpt>
      <trkpt lat="43.60098" lon="0.52568">
        <ele>194</ele>
        <time>2020-01-12T09:55:13.000Z</time>
      </trkpt>
      <trkpt lat="43.60099" lon="0.52566">
        <ele>195</ele>
        <time>2020-01-12T09:55:15.000Z</time>
      </trkpt>
      <trkpt lat="43.601" lon="0.52565">
        <ele>195</ele>
        <time>2020-01-12T09:55:17.000Z</time>
      </trkpt>
      <trkpt lat="43.60102" lon="0.52564">
        <ele>195</ele>
        <time>2020-01-12T09:55:20.000Z</time>
      </trkpt>
      <trkpt lat="43.60103" lon="0.52563">
        <ele>195</ele>
        <time>2020-01-12T09:55:22.000Z</time>
      </trkpt>
      <trkpt lat="43.60104" lon="0.52562">
        <ele>196</ele>
        <time>2020-01-12T09:55:24.000Z</time>
      </trkpt>
      <trkpt lat="43.60105" lon="0.52561">
        <ele>196</ele>
        <time>2020-01-12T09:55:26.000Z</time>
      </trkpt>
      <trkpt lat="43.60107" lon="0.52559">
        <ele>196</ele>
        <time>2020-01-12T09:55:28.000Z</time>
      </trkpt>
      <trkpt lat="43.60109" lon="0.52558">
        <ele>197</ele>
        <time>2020-01-12T09:55:30.000Z</time>
      </trkpt>
      <trkpt lat="43.6011" lon="0.52557">
        <ele>197</ele>
        <time>2020-01-12T09:55:32.000Z</time>
      </trkpt>
      <trkpt lat="43.60111" lon="0.52556">
        <ele>197</ele>
        <time>2020-01-12T09:55:34.000Z</time>
      </trkpt>
      <trkpt lat="43.60113" lon="0.52555">
        <ele>197</ele>
        <time>2020-01-12T09:55:36.000Z</time>
      </trkpt>
      <trkpt lat="43.60113" lon="0.52553">
        <ele>198</ele>
        <time>2020-01-12T09:55:38.000Z</time>
      </trkpt>
      <trkpt lat="43.60114" lon="0.52552">
        <ele>198</ele>
        <time>2020-01-12T09:55:40.000Z</time>
      </trkpt>
      <trkpt lat="43.60115" lon="0.5255">
        <ele>198</ele>
        <time>2020-01-12T09:55:42.000Z</time>
      </trkpt>
      <trkpt lat="43.60116" lon="0.52549">
        <ele>198</ele>
        <time>2020-01-12T09:55:44.000Z</time>
      </trkpt>
      <trkpt lat="43.60117" lon="0.52547">
        <ele>198</ele>
        <time>2020-01-12T09:55:46.000Z</time>
      </trkpt>
      <trkpt lat="43.60118" lon="0.52545">
        <ele>198</ele>
        <time>2020-01-12T09:55:48.000Z</time>
      </trkpt>
      <trkpt lat="43.60119" lon="0.52543">
        <ele>198</ele>
        <time>2020-01-12T09:55:50.000Z</time>
      </trkpt>
      <trkpt lat="43.60121" lon="0.52542">
        <ele>198</ele>
        <time>2020-01-12T09:55:52.000Z</time>
      </trkpt>
      <trkpt lat="43.60122" lon="0.52541">
        <ele>199</ele>
        <time>2020-01-12T09:55:54.000Z</time>
      </trkpt>
      <trkpt lat="43.60123" lon="0.5254">
        <ele>199</ele>
        <time>2020-01-12T09:55:56.000Z</time>
      </trkpt>
      <trkpt lat="43.60124" lon="0.52538">
        <ele>199</ele>
        <time>2020-01-12T09:55:58.000Z</time>
      </trkpt>
      <trkpt lat="43.60126" lon="0.52536">
        <ele>199</ele>
        <time>2020-01-12T09:56:00.000Z</time>
      </trkpt>
      <trkpt lat="43.60127" lon="0.52535">
        <ele>199</ele>
        <time>2020-01-12T09:56:02.000Z</time>
      </trkpt>
      <trkpt lat="43.60128" lon="0.52534">
        <ele>199</ele>
        <time>2020-01-12T09:56:04.000Z</time>
      </trkpt>
      <trkpt lat="43.60128" lon="0.52531">
        <ele>199</ele>
        <time>2020-01-12T09:56:06.000Z</time>
      </trkpt>
      <trkpt lat="43.60129" lon="0.5253">
        <ele>199</ele>
        <time>2020-01-12T09:56:08.000Z</time>
      </trkpt>
      <trkpt lat="43.60131" lon="0.52528">
        <ele>199</ele>
        <time>2020-01-12T09:56:10.000Z</time>
      </trkpt>
      <trkpt lat="43.60133" lon="0.52527">
        <ele>200</ele>
        <time>2020-01-12T09:56:12.000Z</time>
      </trkpt>
      <trkpt lat="43.60135" lon="0.52525">
        <ele>200</ele>
        <time>2020-01-12T09:56:14.000Z</time>
      </trkpt>
      <trkpt lat="43.60136" lon="0.52524">
        <ele>200</ele>
        <time>2020-01-12T09:56:16.000Z</time>
      </trkpt>
      <trkpt lat="43.60137" lon="0.52522">
        <ele>200</ele>
        <time>2020-01-12T09:56:18.000Z</time>
      </trkpt>
      <trkpt lat="43.60139" lon="0.52521">
        <ele>200</ele>
        <time>2020-01-12T09:56:20.000Z</time>
      </trkpt>
      <trkpt lat="43.6014" lon="0.52519">
        <ele>200</ele>
        <time>2020-01-12T09:56:22.000Z</time>
      </trkpt>
      <trkpt lat="43.60142" lon="0.52517">
        <ele>200</ele>
        <time>2020-01-12T09:56:24.000Z</time>
      </trkpt>
      <trkpt lat="43.60143" lon="0.52516">
        <ele>200</ele>
        <time>2020-01-12T09:56:26.000Z</time>
      </trkpt>
      <trkpt lat="43.60146" lon="0.52513">
        <ele>201</ele>
        <time>2020-01-12T09:56:29.000Z</time>
      </trkpt>
      <trkpt lat="43.60147" lon="0.52512">
        <ele>201</ele>
        <time>2020-01-12T09:56:31.000Z</time>
      </trkpt>
      <trkpt lat="43.60149" lon="0.52511">
        <ele>201</ele>
        <time>2020-01-12T09:56:33.000Z</time>
      </trkpt>
      <trkpt lat="43.6015" lon="0.5251">
        <ele>201</ele>
        <time>2020-01-12T09:56:35.000Z</time>
      </trkpt>
      <trkpt lat="43.60152" lon="0.52509">
        <ele>201</ele>
        <time>2020-01-12T09:56:37.000Z</time>
      </trkpt>
      <trkpt lat="43.60154" lon="0.52508">
        <ele>202</ele>
        <time>2020-01-12T09:56:39.000Z</time>
      </trkpt>
      <trkpt lat="43.60156" lon="0.52506">
        <ele>202</ele>
        <time>2020-01-12T09:56:41.000Z</time>
      </trkpt>
      <trkpt lat="43.60157" lon="0.52504">
        <ele>202</ele>
        <time>2020-01-12T09:56:43.000Z</time>
      </trkpt>
      <trkpt lat="43.60158" lon="0.52502">
        <ele>203</ele>
        <time>2020-01-12T09:56:45.000Z</time>
      </trkpt>
      <trkpt lat="43.6016" lon="0.52501">
        <ele>203</ele>
        <time>2020-01-12T09:56:47.000Z</time>
      </trkpt>
      <trkpt lat="43.60162" lon="0.525">
        <ele>203</ele>
        <time>2020-01-12T09:56:49.000Z</time>
      </trkpt>
      <trkpt lat="43.60163" lon="0.52499">
        <ele>203</ele>
        <time>2020-01-12T09:56:51.000Z</time>
      </trkpt>
      <trkpt lat="43.60165" lon="0.52497">
        <ele>204</ele>
        <time>2020-01-12T09:56:53.000Z</time>
      </trkpt>
      <trkpt lat="43.60166" lon="0.52496">
        <ele>204</ele>
        <time>2020-01-12T09:56:55.000Z</time>
      </trkpt>
      <trkpt lat="43.60167" lon="0.52495">
        <ele>204</ele>
        <time>2020-01-12T09:56:57.000Z</time>
      </trkpt>
      <trkpt lat="43.60168" lon="0.52493">
        <ele>204</ele>
        <time>2020-01-12T09:56:59.000Z</time>
      </trkpt>
      <trkpt lat="43.6017" lon="0.52492">
        <ele>205</ele>
        <time>2020-01-12T09:57:01.000Z</time>
      </trkpt>
      <trkpt lat="43.60172" lon="0.52492">
        <ele>205</ele>
        <time>2020-01-12T09:57:03.000Z</time>
      </trkpt>
      <trkpt lat="43.60174" lon="0.52491">
        <ele>205</ele>
        <time>2020-01-12T09:57:05.000Z</time>
      </trkpt>
      <trkpt lat="43.60176" lon="0.5249">
        <ele>205</ele>
        <time>2020-01-12T09:57:07.000Z</time>
      </trkpt>
      <trkpt lat="43.60177" lon="0.52489">
        <ele>206</ele>
        <time>2020-01-12T09:57:09.000Z</time>
      </trkpt>
      <trkpt lat="43.60179" lon="0.52488">
        <ele>206</ele>
        <time>2020-01-12T09:57:11.000Z</time>
      </trkpt>
      <trkpt lat="43.60181" lon="0.52487">
        <ele>206</ele>
        <time>2020-01-12T09:57:13.000Z</time>
      </trkpt>
      <trkpt lat="43.60182" lon="0.52486">
        <ele>207</ele>
        <time>2020-01-12T09:57:15.000Z</time>
      </trkpt>
      <trkpt lat="43.60184" lon="0.52485">
        <ele>207</ele>
        <time>2020-01-12T09:57:17.000Z</time>
      </trkpt>
      <trkpt lat="43.60186" lon="0.52483">
        <ele>207</ele>
        <time>2020-01-12T09:57:19.000Z</time>
      </trkpt>
      <trkpt lat="43.60186" lon="0.52482">
        <ele>207</ele>
        <time>2020-01-12T09:57:21.000Z</time>
      </trkpt>
      <trkpt lat="43.60187" lon="0.52482">
        <ele>207</ele>
        <time>2020-01-12T09:57:23.000Z</time>
      </trkpt>
      <trkpt lat="43.60187" lon="0.52482">
        <ele>207</ele>
        <time>2020-01-12T09:57:25.000Z</time>
      </trkpt>
      <trkpt lat="43.60187" lon="0.52482">
        <ele>207</ele>
        <time>2020-01-12T09:57:27.000Z</time>
      </trkpt>
      <trkpt lat="43.60186" lon="0.52482">
        <ele>207</ele>
        <time>2020-01-12T09:57:29.000Z</time>
      </trkpt>
      <trkpt lat="43.60186" lon="0.52482">
        <ele>207</ele>
        <time>2020-01-12T09:57:31.000Z</time>
      </trkpt>
      <trkpt lat="43.60186" lon="0.52482">
        <ele>207</ele>
        <time>2020-01-12T09:57:33.000Z</time>
      </trkpt>
      <trkpt lat="43.60186" lon="0.52483">
        <ele>207</ele>
        <time>2020-01-12T09:57:35.000Z</time>
      </trkpt>
      <trkpt lat="43.60186" lon="0.52483">
        <ele>207</ele>
        <time>2020-01-12T09:57:37.000Z</time>
      </trkpt>
      <trkpt lat="43.60186" lon="0.52483">
        <ele>207</ele>
        <time>2020-01-12T09:57:39.000Z</time>
      </trkpt>
      <trkpt lat="43.60186" lon="0.52483">
        <ele>207</ele>
        <time>2020-01-12T09:57:41.000Z</time>
      </trkpt>
      <trkpt lat="43.60186" lon="0.52483">
        <ele>207</ele>
        <time>2020-01-12T09:57:43.000Z</time>
      </trkpt>
      <trkpt lat="43.60187" lon="0.52483">
        <ele>207</ele>
        <time>2020-01-12T09:57:45.000Z</time>
      </trkpt>
      <trkpt lat="43.60187" lon="0.52483">
        <ele>207</ele>
        <time>2020-01-12T09:57:47.000Z</time>
      </trkpt>
      <trkpt lat="43.60189" lon="0.52482">
        <ele>207</ele>
        <time>2020-01-12T09:57:49.000Z</time>
      </trkpt>
      <trkpt lat="43.6019" lon="0.52482">
        <ele>207</ele>
        <time>2020-01-12T09:57:51.000Z</time>
      </trkpt>
      <trkpt lat="43.60191" lon="0.52481">
        <ele>207</ele>
        <time>2020-01-12T09:57:53.000Z</time>
      </trkpt>
      <trkpt lat="43.60192" lon="0.52479">
        <ele>208</ele>
        <time>2020-01-12T09:57:55.000Z</time>
      </trkpt>
      <trkpt lat="43.60194" lon="0.52478">
        <ele>208</ele>
        <time>2020-01-12T09:57:57.000Z</time>
      </trkpt>
      <trkpt lat="43.60196" lon="0.52478">
        <ele>208</ele>
        <time>2020-01-12T09:57:59.000Z</time>
      </trkpt>
      <trkpt lat="43.60198" lon="0.52476">
        <ele>208</ele>
        <time>2020-01-12T09:58:01.000Z</time>
      </trkpt>
      <trkpt lat="43.602" lon="0.52475">
        <ele>208</ele>
        <time>2020-01-12T09:58:03.000Z</time>
      </trkpt>
      <trkpt lat="43.60201" lon="0.52473">
        <ele>209</ele>
        <time>2020-01-12T09:58:05.000Z</time>
      </trkpt>
      <trkpt lat="43.60203" lon="0.52471">
        <ele>209</ele>
        <time>2020-01-12T09:58:07.000Z</time>
      </trkpt>
      <trkpt lat="43.60205" lon="0.5247">
        <ele>209</ele>
        <time>2020-01-12T09:58:09.000Z</time>
      </trkpt>
      <trkpt lat="43.60207" lon="0.52468">
        <ele>209</ele>
        <time>2020-01-12T09:58:11.000Z</time>
      </trkpt>
      <trkpt lat="43.60208" lon="0.52467">
        <ele>210</ele>
        <time>2020-01-12T09:58:13.000Z</time>
      </trkpt>
      <trkpt lat="43.60209" lon="0.52466">
        <ele>210</ele>
        <time>2020-01-12T09:58:15.000Z</time>
      </trkpt>
      <trkpt lat="43.60212" lon="0.52465">
        <ele>210</ele>
        <time>2020-01-12T09:58:17.000Z</time>
      </trkpt>
      <trkpt lat="43.60213" lon="0.52464">
        <ele>210</ele>
        <time>2020-01-12T09:58:19.000Z</time>
      </trkpt>
      <trkpt lat="43.60215" lon="0.52463">
        <ele>210</ele>
        <time>2020-01-12T09:58:21.000Z</time>
      </trkpt>
      <trkpt lat="43.60217" lon="0.52461">
        <ele>210</ele>
        <time>2020-01-12T09:58:23.000Z</time>
      </trkpt>
      <trkpt lat="43.60218" lon="0.5246">
        <ele>210</ele>
        <time>2020-01-12T09:58:25.000Z</time>
      </trkpt>
      <trkpt lat="43.6022" lon="0.52459">
        <ele>210</ele>
        <time>2020-01-12T09:58:27.000Z</time>
      </trkpt>
      <trkpt lat="43.60222" lon="0.52457">
        <ele>210</ele>
        <time>2020-01-12T09:58:29.000Z</time>
      </trkpt>
      <trkpt lat="43.60224" lon="0.52457">
        <ele>210</ele>
        <time>2020-01-12T09:58:31.000Z</time>
      </trkpt>
      <trkpt lat="43.60226" lon="0.52456">
        <ele>210</ele>
        <time>2020-01-12T09:58:33.000Z</time>
      </trkpt>
      <trkpt lat="43.60228" lon="0.52454">
        <ele>210</ele>
        <time>2020-01-12T09:58:35.000Z</time>
      </trkpt>
      <trkpt lat="43.60228" lon="0.52454">
        <ele>210</ele>
        <time>2020-01-12T09:58:37.000Z</time>
      </trkpt>
      <trkpt lat="43.60229" lon="0.52453">
        <ele>210</ele>
        <time>2020-01-12T09:58:39.000Z</time>
      </trkpt>
      <trkpt lat="43.60229" lon="0.52453">
        <ele>210</ele>
        <time>2020-01-12T09:58:41.000Z</time>
      </trkpt>
      <trkpt lat="43.60229" lon="0.52453">
        <ele>210</ele>
        <time>2020-01-12T09:58:43.000Z</time>
      </trkpt>
      <trkpt lat="43.60229" lon="0.52453">
        <ele>210</ele>
        <time>2020-01-12T09:58:45.000Z</time>
      </trkpt>
      <trkpt lat="43.6023" lon="0.52451">
        <ele>210</ele>
        <time>2020-01-12T09:58:47.000Z</time>
      </trkpt>
      <trkpt lat="43.60232" lon="0.5245">
        <ele>210</ele>
        <time>2020-01-12T09:58:49.000Z</time>
      </trkpt>
      <trkpt lat="43.60233" lon="0.52449">
        <ele>210</ele>
        <time>2020-01-12T09:58:51.000Z</time>
      </trkpt>
      <trkpt lat="43.60235" lon="0.52449">
        <ele>210</ele>
        <time>2020-01-12T09:58:53.000Z</time>
      </trkpt>
      <trkpt lat="43.60237" lon="0.52448">
        <ele>211</ele>
        <time>2020-01-12T09:58:55.000Z</time>
      </trkpt>
      <trkpt lat="43.60238" lon="0.52446">
        <ele>211</ele>
        <time>2020-01-12T09:58:57.000Z</time>
      </trkpt>
      <trkpt lat="43.60239" lon="0.52445">
        <ele>211</ele>
        <time>2020-01-12T09:58:59.000Z</time>
      </trkpt>
      <trkpt lat="43.60242" lon="0.52443">
        <ele>211</ele>
        <time>2020-01-12T09:59:02.000Z</time>
      </trkpt>
      <trkpt lat="43.60244" lon="0.52442">
        <ele>211</ele>
        <time>2020-01-12T09:59:04.000Z</time>
      </trkpt>
      <trkpt lat="43.60246" lon="0.52441">
        <ele>211</ele>
        <time>2020-01-12T09:59:06.000Z</time>
      </trkpt>
      <trkpt lat="43.60248" lon="0.52441">
        <ele>211</ele>
        <time>2020-01-12T09:59:08.000Z</time>
      </trkpt>
      <trkpt lat="43.6025" lon="0.5244">
        <ele>212</ele>
        <time>2020-01-12T09:59:10.000Z</time>
      </trkpt>
      <trkpt lat="43.60252" lon="0.52439">
        <ele>212</ele>
        <time>2020-01-12T09:59:12.000Z</time>
      </trkpt>
      <trkpt lat="43.60254" lon="0.52438">
        <ele>212</ele>
        <time>2020-01-12T09:59:14.000Z</time>
      </trkpt>
      <trkpt lat="43.60255" lon="0.52437">
        <ele>212</ele>
        <time>2020-01-12T09:59:16.000Z</time>
      </trkpt>
      <trkpt lat="43.60257" lon="0.52436">
        <ele>212</ele>
        <time>2020-01-12T09:59:18.000Z</time>
      </trkpt>
      <trkpt lat="43.60259" lon="0.52435">
        <ele>213</ele>
        <time>2020-01-12T09:59:20.000Z</time>
      </trkpt>
      <trkpt lat="43.6026" lon="0.52434">
        <ele>213</ele>
        <time>2020-01-12T09:59:22.000Z</time>
      </trkpt>
      <trkpt lat="43.60262" lon="0.52433">
        <ele>213</ele>
        <time>2020-01-12T09:59:24.000Z</time>
      </trkpt>
      <trkpt lat="43.60263" lon="0.52432">
        <ele>213</ele>
        <time>2020-01-12T09:59:26.000Z</time>
      </trkpt>
      <trkpt lat="43.60265" lon="0.5243">
        <ele>213</ele>
        <time>2020-01-12T09:59:28.000Z</time>
      </trkpt>
      <trkpt lat="43.60266" lon="0.52429">
        <ele>214</ele>
        <time>2020-01-12T09:59:30.000Z</time>
      </trkpt>
      <trkpt lat="43.60268" lon="0.52428">
        <ele>214</ele>
        <time>2020-01-12T09:59:32.000Z</time>
      </trkpt>
      <trkpt lat="43.60269" lon="0.52427">
        <ele>214</ele>
        <time>2020-01-12T09:59:34.000Z</time>
      </trkpt>
      <trkpt lat="43.60271" lon="0.52426">
        <ele>214</ele>
        <time>2020-01-12T09:59:36.000Z</time>
      </trkpt>
      <trkpt lat="43.60272" lon="0.52425">
        <ele>214</ele>
        <time>2020-01-12T09:59:38.000Z</time>
      </trkpt>
      <trkpt lat="43.60274" lon="0.52424">
        <ele>214</ele>
        <time>2020-01-12T09:59:40.000Z</time>
      </trkpt>
      <trkpt lat="43.60275" lon="0.52423">
        <ele>214</ele>
        <time>2020-01-12T09:59:42.000Z</time>
      </trkpt>
      <trkpt lat="43.60277" lon="0.52422">
        <ele>214</ele>
        <time>2020-01-12T09:59:44.000Z</time>
      </trkpt>
      <trkpt lat="43.60279" lon="0.52421">
        <ele>214</ele>
        <time>2020-01-12T09:59:46.000Z</time>
      </trkpt>
      <trkpt lat="43.60281" lon="0.5242">
        <ele>214</ele>
        <time>2020-01-12T09:59:48.000Z</time>
      </trkpt>
      <trkpt lat="43.60283" lon="0.52419">
        <ele>213</ele>
        <time>2020-01-12T09:59:50.000Z</time>
      </trkpt>
      <trkpt lat="43.60285" lon="0.52418">
        <ele>213</ele>
        <time>2020-01-12T09:59:52.000Z</time>
      </trkpt>
      <trkpt lat="43.60287" lon="0.52417">
        <ele>213</ele>
        <time>2020-01-12T09:59:54.000Z</time>
      </trkpt>
      <trkpt lat="43.60289" lon="0.52416">
        <ele>213</ele>
        <time>2020-01-12T09:59:56.000Z</time>
      </trkpt>
      <trkpt lat="43.60291" lon="0.52415">
        <ele>213</ele>
        <time>2020-01-12T09:59:58.000Z</time>
      </trkpt>
      <trkpt lat="43.60292" lon="0.52414">
        <ele>213</ele>
        <time>2020-01-12T10:00:00.000Z</time>
      </trkpt>
      <trkpt lat="43.60294" lon="0.52412">
        <ele>213</ele>
        <time>2020-01-12T10:00:02.000Z</time>
      </trkpt>
      <trkpt lat="43.60296" lon="0.52411">
        <ele>213</ele>
        <time>2020-01-12T10:00:04.000Z</time>
      </trkpt>
      <trkpt lat="43.60297" lon="0.5241">
        <ele>213</ele>
        <time>2020-01-12T10:00:06.000Z</time>
      </trkpt>
      <trkpt lat="43.60299" lon="0.52409">
        <ele>214</ele>
        <time>2020-01-12T10:00:08.000Z</time>
      </trkpt>
      <trkpt lat="43.60301" lon="0.52408">
        <ele>214</ele>
        <time>2020-01-12T10:00:10.000Z</time>
      </trkpt>
      <trkpt lat="43.60303" lon="0.52407">
        <ele>214</ele>
        <time>2020-01-12T10:00:12.000Z</time>
      </trkpt>
      <trkpt lat="43.60304" lon="0.52406">
        <ele>215</ele>
        <time>2020-01-12T10:00:14.000Z</time>
      </trkpt>
      <trkpt lat="43.60306" lon="0.52404">
        <ele>215</ele>
        <time>2020-01-12T10:00:16.000Z</time>
      </trkpt>
      <trkpt lat="43.60308" lon="0.52403">
        <ele>215</ele>
        <time>2020-01-12T10:00:18.000Z</time>
      </trkpt>
      <trkpt lat="43.6031" lon="0.52402">
        <ele>216</ele>
        <time>2020-01-12T10:00:20.000Z</time>
      </trkpt>
      <trkpt lat="43.60312" lon="0.52401">
        <ele>216</ele>
        <time>2020-01-12T10:00:22.000Z</time>
      </trkpt>
      <trkpt lat="43.60313" lon="0.524">
        <ele>216</ele>
        <time>2020-01-12T10:00:24.000Z</time>
      </trkpt>
      <trkpt lat="43.60315" lon="0.52398">
        <ele>217</ele>
        <time>2020-01-12T10:00:26.000Z</time>
      </trkpt>
      <trkpt lat="43.60316" lon="0.52397">
        <ele>217</ele>
        <time>2020-01-12T10:00:28.000Z</time>
      </trkpt>
      <trkpt lat="43.60318" lon="0.52395">
        <ele>217</ele>
        <time>2020-01-12T10:00:30.000Z</time>
      </trkpt>
      <trkpt lat="43.60319" lon="0.52394">
        <ele>218</ele>
        <time>2020-01-12T10:00:32.000Z</time>
      </trkpt>
      <trkpt lat="43.60321" lon="0.52394">
        <ele>218</ele>
        <time>2020-01-12T10:00:34.000Z</time>
      </trkpt>
      <trkpt lat="43.60323" lon="0.52393">
        <ele>218</ele>
        <time>2020-01-12T10:00:36.000Z</time>
      </trkpt>
      <trkpt lat="43.60325" lon="0.52392">
        <ele>218</ele>
        <time>2020-01-12T10:00:38.000Z</time>
      </trkpt>
      <trkpt lat="43.60326" lon="0.52391">
        <ele>219</ele>
        <time>2020-01-12T10:00:40.000Z</time>
      </trkpt>
      <trkpt lat="43.60327" lon="0.5239">
        <ele>219</ele>
        <time>2020-01-12T10:00:42.000Z</time>
      </trkpt>
      <trkpt lat="43.60329" lon="0.52388">
        <ele>219</ele>
        <time>2020-01-12T10:00:44.000Z</time>
      </trkpt>
      <trkpt lat="43.6033" lon="0.52386">
        <ele>220</ele>
        <time>2020-01-12T10:00:46.000Z</time>
      </trkpt>
      <trkpt lat="43.60332" lon="0.52385">
        <ele>220</ele>
        <time>2020-01-12T10:00:48.000Z</time>
      </trkpt>
      <trkpt lat="43.60334" lon="0.52384">
        <ele>220</ele>
        <time>2020-01-12T10:00:50.000Z</time>
      </trkpt>
      <trkpt lat="43.60336" lon="0.52383">
        <ele>220</ele>
        <time>2020-01-12T10:00:52.000Z</time>
      </trkpt>
      <trkpt lat="43.60337" lon="0.52382">
        <ele>220</ele>
        <time>2020-01-12T10:00:54.000Z</time>
      </trkpt>
      <trkpt lat="43.60339" lon="0.52381">
        <ele>220</ele>
        <time>2020-01-12T10:00:56.000Z</time>
      </trkpt>
      <trkpt lat="43.6034" lon="0.5238">
        <ele>220</ele>
        <time>2020-01-12T10:00:58.000Z</time>
      </trkpt>
      <trkpt lat="43.60342" lon="0.52378">
        <ele>220</ele>
        <time>2020-01-12T10:01:00.000Z</time>
      </trkpt>
      <trkpt lat="43.60343" lon="0.52377">
        <ele>220</ele>
        <time>2020-01-12T10:01:02.000Z</time>
      </trkpt>
      <trkpt lat="43.60344" lon="0.52375">
        <ele>220</ele>
        <time>2020-01-12T10:01:04.000Z</time>
      </trkpt>
      <trkpt lat="43.60346" lon="0.52373">
        <ele>221</ele>
        <time>2020-01-12T10:01:06.000Z</time>
      </trkpt>
      <trkpt lat="43.60347" lon="0.52371">
        <ele>221</ele>
        <time>2020-01-12T10:01:08.000Z</time>
      </trkpt>
      <trkpt lat="43.6035" lon="0.5237">
        <ele>221</ele>
        <time>2020-01-12T10:01:10.000Z</time>
      </trkpt>
      <trkpt lat="43.60352" lon="0.52369">
        <ele>221</ele>
        <time>2020-01-12T10:01:12.000Z</time>
      </trkpt>
      <trkpt lat="43.60353" lon="0.52368">
        <ele>221</ele>
        <time>2020-01-12T10:01:14.000Z</time>
      </trkpt>
      <trkpt lat="43.60355" lon="0.52367">
        <ele>221</ele>
        <time>2020-01-12T10:01:16.000Z</time>
      </trkpt>
      <trkpt lat="43.60356" lon="0.52365">
        <ele>221</ele>
        <time>2020-01-12T10:01:18.000Z</time>
      </trkpt>
      <trkpt lat="43.60359" lon="0.52364">
        <ele>220</ele>
        <time>2020-01-12T10:01:20.000Z</time>
      </trkpt>
      <trkpt lat="43.60361" lon="0.52363">
        <ele>220</ele>
        <time>2020-01-12T10:01:22.000Z</time>
      </trkpt>
      <trkpt lat="43.60363" lon="0.52361">
        <ele>220</ele>
        <time>2020-01-12T10:01:24.000Z</time>
      </trkpt>
      <trkpt lat="43.60364" lon="0.5236">
        <ele>220</ele>
        <time>2020-01-12T10:01:26.000Z</time>
      </trkpt>
      <trkpt lat="43.60365" lon="0.52359">
        <ele>220</ele>
        <time>2020-01-12T10:01:28.000Z</time>
      </trkpt>
      <trkpt lat="43.60367" lon="0.52357">
        <ele>219</ele>
        <time>2020-01-12T10:01:30.000Z</time>
      </trkpt>
      <trkpt lat="43.60368" lon="0.52356">
        <ele>219</ele>
        <time>2020-01-12T10:01:32.000Z</time>
      </trkpt>
      <trkpt lat="43.6037" lon="0.52355">
        <ele>219</ele>
        <time>2020-01-12T10:01:34.000Z</time>
      </trkpt>
      <trkpt lat="43.60372" lon="0.52354">
        <ele>219</ele>
        <time>2020-01-12T10:01:36.000Z</time>
      </trkpt>
      <trkpt lat="43.60374" lon="0.52353">
        <ele>219</ele>
        <time>2020-01-12T10:01:38.000Z</time>
      </trkpt>
      <trkpt lat="43.60375" lon="0.52351">
        <ele>219</ele>
        <time>2020-01-12T10:01:40.000Z</time>
      </trkpt>
      <trkpt lat="43.60377" lon="0.52349">
        <ele>218</ele>
        <time>2020-01-12T10:01:42.000Z</time>
      </trkpt>
      <trkpt lat="43.60379" lon="0.52348">
        <ele>218</ele>
        <time>2020-01-12T10:01:44.000Z</time>
      </trkpt>
      <trkpt lat="43.60381" lon="0.52348">
        <ele>218</ele>
        <time>2020-01-12T10:01:46.000Z</time>
      </trkpt>
      <trkpt lat="43.60382" lon="0.52347">
        <ele>218</ele>
        <time>2020-01-12T10:01:48.000Z</time>
      </trkpt>
      <trkpt lat="43.60384" lon="0.52346">
        <ele>218</ele>
        <time>2020-01-12T10:01:50.000Z</time>
      </trkpt>
      <trkpt lat="43.60386" lon="0.52345">
        <ele>218</ele>
        <time>2020-01-12T10:01:52.000Z</time>
      </trkpt>
      <trkpt lat="43.60387" lon="0.52345">
        <ele>218</ele>
        <time>2020-01-12T10:01:54.000Z</time>
      </trkpt>
      <trkpt lat="43.60388" lon="0.52344">
        <ele>217</ele>
        <time>2020-01-12T10:01:56.000Z</time>
      </trkpt>
      <trkpt lat="43.6039" lon="0.52345">
        <ele>217</ele>
        <time>2020-01-12T10:01:58.000Z</time>
      </trkpt>
      <trkpt lat="43.60392" lon="0.52345">
        <ele>217</ele>
        <time>2020-01-12T10:02:00.000Z</time>
      </trkpt>
      <trkpt lat="43.60393" lon="0.52346">
        <ele>217</ele>
        <time>2020-01-12T10:02:02.000Z</time>
      </trkpt>
      <trkpt lat="43.60395" lon="0.52347">
        <ele>217</ele>
        <time>2020-01-12T10:02:04.000Z</time>
      </trkpt>
      <trkpt lat="43.60396" lon="0.52347">
        <ele>217</ele>
        <time>2020-01-12T10:02:06.000Z</time>
      </trkpt>
      <trkpt lat="43.60398" lon="0.52347">
        <ele>217</ele>
        <time>2020-01-12T10:02:08.000Z</time>
      </trkpt>
      <trkpt lat="43.60399" lon="0.52347">
        <ele>217</ele>
        <time>2020-01-12T10:02:10.000Z</time>
      </trkpt>
      <trkpt lat="43.604" lon="0.52347">
        <ele>217</ele>
        <time>2020-01-12T10:02:12.000Z</time>
      </trkpt>
      <trkpt lat="43.60401" lon="0.52348">
        <ele>217</ele>
        <time>2020-01-12T10:02:14.000Z</time>
      </trkpt>
      <trkpt lat="43.60402" lon="0.52349">
        <ele>217</ele>
        <time>2020-01-12T10:02:16.000Z</time>
      </trkpt>
      <trkpt lat="43.60403" lon="0.52351">
        <ele>217</ele>
        <time>2020-01-12T10:02:18.000Z</time>
      </trkpt>
      <trkpt lat="43.60402" lon="0.52353">
        <ele>217</ele>
        <time>2020-01-12T10:02:20.000Z</time>
      </trkpt>
      <trkpt lat="43.60402" lon="0.52353">
        <ele>217</ele>
        <time>2020-01-12T10:02:22.000Z</time>
      </trkpt>
      <trkpt lat="43.60402" lon="0.52354">
        <ele>217</ele>
        <time>2020-01-12T10:02:24.000Z</time>
      </trkpt>
      <trkpt lat="43.60402" lon="0.52354">
        <ele>217</ele>
        <time>2020-01-12T10:02:26.000Z</time>
      </trkpt>
      <trkpt lat="43.60402" lon="0.52354">
        <ele>217</ele>
        <time>2020-01-12T10:02:28.000Z</time>
      </trkpt>
      <trkpt lat="43.60402" lon="0.52353">
        <ele>217</ele>
        <time>2020-01-12T10:02:30.000Z</time>
      </trkpt>
      <trkpt lat="43.60402" lon="0.52354">
        <ele>217</ele>
        <time>2020-01-12T10:02:32.000Z</time>
      </trkpt>
      <trkpt lat="43.60402" lon="0.52354">
        <ele>217</ele>
        <time>2020-01-12T10:02:34.000Z</time>
      </trkpt>
      <trkpt lat="43.60402" lon="0.52354">
        <ele>217</ele>
        <time>2020-01-12T10:02:36.000Z</time>
      </trkpt>
      <trkpt lat="43.60402" lon="0.52354">
        <ele>217</ele>
        <time>2020-01-12T10:02:38.000Z</time>
      </trkpt>
      <trkpt lat="43.60402" lon="0.52354">
        <ele>217</ele>
        <time>2020-01-12T10:02:40.000Z</time>
      </trkpt>
      <trkpt lat="43.60402" lon="0.52354">
        <ele>217</ele>
        <time>2020-01-12T10:02:42.000Z</time>
      </trkpt>
      <trkpt lat="43.60403" lon="0.52355">
        <ele>217</ele>
        <time>2020-01-12T10:02:44.000Z</time>
      </trkpt>
      <trkpt lat="43.60402" lon="0.52355">
        <ele>217</ele>
        <time>2020-01-12T10:02:46.000Z</time>
      </trkpt>
      <trkpt lat="43.60402" lon="0.52354">
        <ele>217</ele>
        <time>2020-01-12T10:02:48.000Z</time>
      </trkpt>
      <trkpt lat="43.60402" lon="0.52354">
        <ele>217</ele>
        <time>2020-01-12T10:02:50.000Z</time>
      </trkpt>
      <trkpt lat="43.60402" lon="0.52354">
        <ele>217</ele>
        <time>2020-01-12T10:02:52.000Z</time>
      </trkpt>
      <trkpt lat="43.60402" lon="0.52354">
        <ele>217</ele>
        <time>2020-01-12T10:02:54.000Z</time>
      </trkpt>
      <trkpt lat="43.60402" lon="0.52354">
        <ele>217</ele>
        <time>2020-01-12T10:02:56.000Z</time>
      </trkpt>
      <trkpt lat="43.60402" lon="0.52354">
        <ele>217</ele>
        <time>2020-01-12T10:02:58.000Z</time>
      </trkpt>
      <trkpt lat="43.60402" lon="0.52354">
        <ele>217</ele>
        <time>2020-01-12T10:03:00.000Z</time>
      </trkpt>
      <trkpt lat="43.60402" lon="0.52354">
        <ele>217</ele>
        <time>2020-01-12T10:03:02.000Z</time>
      </trkpt>
      <trkpt lat="43.60402" lon="0.52354">
        <ele>217</ele>
        <time>2020-01-12T10:03:04.000Z</time>
      </trkpt>
      <trkpt lat="43.60402" lon="0.52354">
        <ele>217</ele>
        <time>2020-01-12T10:03:06.000Z</time>
      </trkpt>
      <trkpt lat="43.60402" lon="0.52353">
        <ele>217</ele>
        <time>2020-01-12T10:03:08.000Z</time>
      </trkpt>
      <trkpt lat="43.60402" lon="0.52353">
        <ele>217</ele>
        <time>2020-01-12T10:03:10.000Z</time>
      </trkpt>
      <trkpt lat="43.60402" lon="0.52352">
        <ele>217</ele>
        <time>2020-01-12T10:03:12.000Z</time>
      </trkpt>
      <trkpt lat="43.60402" lon="0.52352">
        <ele>217</ele>
        <time>2020-01-12T10:03:14.000Z</time>
      </trkpt>
      <trkpt lat="43.60402" lon="0.52352">
        <ele>217</ele>
        <time>2020-01-12T10:03:16.000Z</time>
      </trkpt>
      <trkpt lat="43.60402" lon="0.52352">
        <ele>217</ele>
        <time>2020-01-12T10:03:18.000Z</time>
      </trkpt>
      <trkpt lat="43.60402" lon="0.52351">
        <ele>217</ele>
        <time>2020-01-12T10:03:21.000Z</time>
      </trkpt>
      <trkpt lat="43.60402" lon="0.52352">
        <ele>217</ele>
        <time>2020-01-12T10:03:23.000Z</time>
      </trkpt>
      <trkpt lat="43.60402" lon="0.52352">
        <ele>217</ele>
        <time>2020-01-12T10:03:25.000Z</time>
      </trkpt>
      <trkpt lat="43.60402" lon="0.52351">
        <ele>217</ele>
        <time>2020-01-12T10:03:27.000Z</time>
      </trkpt>
      <trkpt lat="43.60402" lon="0.52351">
        <ele>217</ele>
        <time>2020-01-12T10:03:29.000Z</time>
      </trkpt>
      <trkpt lat="43.60402" lon="0.52351">
        <ele>217</ele>
        <time>2020-01-12T10:03:31.000Z</time>
      </trkpt>
      <trkpt lat="43.60402" lon="0.5235">
        <ele>217</ele>
        <time>2020-01-12T10:03:33.000Z</time>
      </trkpt>
      <trkpt lat="43.60402" lon="0.52351">
        <ele>217</ele>
        <time>2020-01-12T10:03:35.000Z</time>
      </trkpt>
      <trkpt lat="43.60402" lon="0.52351">
        <ele>217</ele>
        <time>2020-01-12T10:03:37.000Z</time>
      </trkpt>
      <trkpt lat="43.60401" lon="0.52351">
        <ele>217</ele>
        <time>2020-01-12T10:03:39.000Z</time>
      </trkpt>
      <trkpt lat="43.60402" lon="0.52351">
        <ele>217</ele>
        <time>2020-01-12T10:03:41.000Z</time>
      </trkpt>
      <trkpt lat="43.60401" lon="0.52351">
        <ele>217</ele>
        <time>2020-01-12T10:03:43.000Z</time>
      </trkpt>
      <trkpt lat="43.60401" lon="0.52351">
        <ele>217</ele>
        <time>2020-01-12T10:03:45.000Z</time>
      </trkpt>
      <trkpt lat="43.60401" lon="0.52351">
        <ele>217</ele>
        <time>2020-01-12T10:03:47.000Z</time>
      </trkpt>
      <trkpt lat="43.60401" lon="0.5235">
        <ele>217</ele>
        <time>2020-01-12T10:03:49.000Z</time>
      </trkpt>
      <trkpt lat="43.60401" lon="0.52349">
        <ele>217</ele>
        <time>2020-01-12T10:03:51.000Z</time>
      </trkpt>
      <trkpt lat="43.60401" lon="0.5235">
        <ele>217</ele>
        <time>2020-01-12T10:03:53.000Z</time>
      </trkpt>
      <trkpt lat="43.60401" lon="0.52349">
        <ele>217</ele>
        <time>2020-01-12T10:03:55.000Z</time>
      </trkpt>
      <trkpt lat="43.60401" lon="0.52349">
        <ele>217</ele>
        <time>2020-01-12T10:03:57.000Z</time>
      </trkpt>
      <trkpt lat="43.60401" lon="0.52349">
        <ele>217</ele>
        <time>2020-01-12T10:03:59.000Z</time>
      </trkpt>
      <trkpt lat="43.60401" lon="0.52349">
        <ele>217</ele>
        <time>2020-01-12T10:04:01.000Z</time>
      </trkpt>
      <trkpt lat="43.604" lon="0.52349">
        <ele>217</ele>
        <time>2020-01-12T10:04:04.000Z</time>
      </trkpt>
      <trkpt lat="43.604" lon="0.52349">
        <ele>217</ele>
        <time>2020-01-12T10:04:06.000Z</time>
      </trkpt>
      <trkpt lat="43.604" lon="0.52349">
        <ele>217</ele>
        <time>2020-01-12T10:04:08.000Z</time>
      </trkpt>
      <trkpt lat="43.604" lon="0.52349">
        <ele>217</ele>
        <time>2020-01-12T10:04:10.000Z</time>
      </trkpt>
      <trkpt lat="43.604" lon="0.52349">
        <ele>217</ele>
        <time>2020-01-12T10:04:12.000Z</time>
      </trkpt>
      <trkpt lat="43.604" lon="0.52349">
        <ele>217</ele>
        <time>2020-01-12T10:04:14.000Z</time>
      </trkpt>
      <trkpt lat="43.604" lon="0.5235">
        <ele>217</ele>
        <time>2020-01-12T10:04:17.000Z</time>
      </trkpt>
      <trkpt lat="43.604" lon="0.5235">
        <ele>217</ele>
        <time>2020-01-12T10:04:19.000Z</time>
      </trkpt>
      <trkpt lat="43.604" lon="0.52351">
        <ele>217</ele>
        <time>2020-01-12T10:04:21.000Z</time>
      </trkpt>
      <trkpt lat="43.604" lon="0.5235">
        <ele>217</ele>
        <time>2020-01-12T10:04:23.000Z</time>
      </trkpt>
      <trkpt lat="43.604" lon="0.52351">
        <ele>217</ele>
        <time>2020-01-12T10:04:25.000Z</time>
      </trkpt>
      <trkpt lat="43.604" lon="0.52351">
        <ele>217</ele>
        <time>2020-01-12T10:04:27.000Z</time>
      </trkpt>
      <trkpt lat="43.604" lon="0.52351">
        <ele>217</ele>
        <time>2020-01-12T10:04:29.000Z</time>
      </trkpt>
      <trkpt lat="43.604" lon="0.5235">
        <ele>217</ele>
        <time>2020-01-12T10:04:31.000Z</time>
      </trkpt>
      <trkpt lat="43.604" lon="0.5235">
        <ele>217</ele>
        <time>2020-01-12T10:04:33.000Z</time>
      </trkpt>
      <trkpt lat="43.604" lon="0.5235">
        <ele>217</ele>
        <time>2020-01-12T10:04:35.000Z</time>
      </trkpt>
      <trkpt lat="43.60401" lon="0.5235">
        <ele>217</ele>
        <time>2020-01-12T10:04:37.000Z</time>
      </trkpt>
      <trkpt lat="43.60401" lon="0.5235">
        <ele>217</ele>
        <time>2020-01-12T10:04:39.000Z</time>
      </trkpt>
      <trkpt lat="43.60401" lon="0.5235">
        <ele>217</ele>
        <time>2020-01-12T10:04:41.000Z</time>
      </trkpt>
      <trkpt lat="43.60401" lon="0.5235">
        <ele>217</ele>
        <time>2020-01-12T10:04:43.000Z</time>
      </trkpt>
      <trkpt lat="43.60401" lon="0.5235">
        <ele>217</ele>
        <time>2020-01-12T10:04:45.000Z</time>
      </trkpt>
      <trkpt lat="43.60401" lon="0.5235">
        <ele>217</ele>
        <time>2020-01-12T10:04:47.000Z</time>
      </trkpt>
      <trkpt lat="43.60401" lon="0.5235">
        <ele>217</ele>
        <time>2020-01-12T10:04:49.000Z</time>
      </trkpt>
      <trkpt lat="43.60401" lon="0.5235">
        <ele>217</ele>
        <time>2020-01-12T10:04:51.000Z</time>
      </trkpt>
      <trkpt lat="43.60401" lon="0.52349">
        <ele>217</ele>
        <time>2020-01-12T10:04:53.000Z</time>
      </trkpt>
      <trkpt lat="43.60401" lon="0.52349">
        <ele>217</ele>
        <time>2020-01-12T10:04:55.000Z</time>
      </trkpt>
      <trkpt lat="43.60401" lon="0.52349">
        <ele>217</ele>
        <time>2020-01-12T10:04:57.000Z</time>
      </trkpt>
      <trkpt lat="43.60401" lon="0.52349">
        <ele>217</ele>
        <time>2020-01-12T10:04:59.000Z</time>
      </trkpt>
      <trkpt lat="43.60401" lon="0.5235">
        <ele>217</ele>
        <time>2020-01-12T10:05:01.000Z</time>
      </trkpt>
      <trkpt lat="43.60402" lon="0.52349">
        <ele>217</ele>
        <time>2020-01-12T10:05:03.000Z</time>
      </trkpt>
      <trkpt lat="43.60402" lon="0.5235">
        <ele>217</ele>
        <time>2020-01-12T10:05:05.000Z</time>
      </trkpt>
      <trkpt lat="43.60402" lon="0.52351">
        <ele>217</ele>
        <time>2020-01-12T10:05:07.000Z</time>
      </trkpt>
      <trkpt lat="43.60402" lon="0.52351">
        <ele>217</ele>
        <time>2020-01-12T10:05:09.000Z</time>
      </trkpt>
      <trkpt lat="43.60402" lon="0.52351">
        <ele>217</ele>
        <time>2020-01-12T10:05:11.000Z</time>
      </trkpt>
      <trkpt lat="43.60402" lon="0.52351">
        <ele>217</ele>
        <time>2020-01-12T10:05:13.000Z</time>
      </trkpt>
      <trkpt lat="43.60402" lon="0.52351">
        <ele>217</ele>
        <time>2020-01-12T10:05:15.000Z</time>
      </trkpt>
      <trkpt lat="43.60401" lon="0.52351">
        <ele>217</ele>
        <time>2020-01-12T10:05:17.000Z</time>
      </trkpt>
      <trkpt lat="43.60401" lon="0.5235">
        <ele>217</ele>
        <time>2020-01-12T10:05:19.000Z</time>
      </trkpt>
      <trkpt lat="43.60401" lon="0.5235">
        <ele>217</ele>
        <time>2020-01-12T10:05:21.000Z</time>
      </trkpt>
      <trkpt lat="43.60401" lon="0.5235">
        <ele>217</ele>
        <time>2020-01-12T10:05:23.000Z</time>
      </trkpt>
      <trkpt lat="43.60401" lon="0.5235">
        <ele>217</ele>
        <time>2020-01-12T10:05:25.000Z</time>
      </trkpt>
      <trkpt lat="43.60402" lon="0.5235">
        <ele>217</ele>
        <time>2020-01-12T10:05:27.000Z</time>
      </trkpt>
      <trkpt lat="43.60402" lon="0.52349">
        <ele>217</ele>
        <time>2020-01-12T10:05:29.000Z</time>
      </trkpt>
      <trkpt lat="43.60403" lon="0.52349">
        <ele>217</ele>
        <time>2020-01-12T10:05:31.000Z</time>
      </trkpt>
      <trkpt lat="43.60405" lon="0.52349">
        <ele>217</ele>
        <time>2020-01-12T10:05:33.000Z</time>
      </trkpt>
      <trkpt lat="43.60407" lon="0.52349">
        <ele>217</ele>
        <time>2020-01-12T10:05:35.000Z</time>
      </trkpt>
      <trkpt lat="43.60409" lon="0.5235">
        <ele>218</ele>
        <time>2020-01-12T10:05:37.000Z</time>
      </trkpt>
      <trkpt lat="43.6041" lon="0.5235">
        <ele>218</ele>
        <time>2020-01-12T10:05:39.000Z</time>
      </trkpt>
      <trkpt lat="43.60411" lon="0.5235">
        <ele>218</ele>
        <time>2020-01-12T10:05:41.000Z</time>
      </trkpt>
      <trkpt lat="43.60411" lon="0.5235">
        <ele>218</ele>
        <time>2020-01-12T10:05:43.000Z</time>
      </trkpt>
      <trkpt lat="43.60411" lon="0.52351">
        <ele>218</ele>
        <time>2020-01-12T10:05:45.000Z</time>
      </trkpt>
      <trkpt lat="43.60411" lon="0.52351">
        <ele>218</ele>
        <time>2020-01-12T10:05:47.000Z</time>
      </trkpt>
      <trkpt lat="43.60412" lon="0.5235">
        <ele>218</ele>
        <time>2020-01-12T10:05:49.000Z</time>
      </trkpt>
      <trkpt lat="43.60414" lon="0.5235">
        <ele>218</ele>
        <time>2020-01-12T10:05:51.000Z</time>
      </trkpt>
      <trkpt lat="43.60416" lon="0.52349">
        <ele>218</ele>
        <time>2020-01-12T10:05:53.000Z</time>
      </trkpt>
      <trkpt lat="43.60418" lon="0.5235">
        <ele>218</ele>
        <time>2020-01-12T10:05:55.000Z</time>
      </trkpt>
      <trkpt lat="43.6042" lon="0.52351">
        <ele>218</ele>
        <time>2020-01-12T10:05:57.000Z</time>
      </trkpt>
      <trkpt lat="43.60421" lon="0.52351">
        <ele>219</ele>
        <time>2020-01-12T10:05:59.000Z</time>
      </trkpt>
      <trkpt lat="43.60423" lon="0.52351">
        <ele>219</ele>
        <time>2020-01-12T10:06:01.000Z</time>
      </trkpt>
      <trkpt lat="43.60425" lon="0.52351">
        <ele>219</ele>
        <time>2020-01-12T10:06:03.000Z</time>
      </trkpt>
      <trkpt lat="43.60426" lon="0.52352">
        <ele>219</ele>
        <time>2020-01-12T10:06:05.000Z</time>
      </trkpt>
      <trkpt lat="43.60428" lon="0.52352">
        <ele>219</ele>
        <time>2020-01-12T10:06:07.000Z</time>
      </trkpt>
      <trkpt lat="43.6043" lon="0.52351">
        <ele>219</ele>
        <time>2020-01-12T10:06:09.000Z</time>
      </trkpt>
      <trkpt lat="43.60432" lon="0.52352">
        <ele>219</ele>
        <time>2020-01-12T10:06:11.000Z</time>
      </trkpt>
      <trkpt lat="43.60434" lon="0.52352">
        <ele>220</ele>
        <time>2020-01-12T10:06:13.000Z</time>
      </trkpt>
      <trkpt lat="43.60435" lon="0.52352">
        <ele>220</ele>
        <time>2020-01-12T10:06:15.000Z</time>
      </trkpt>
      <trkpt lat="43.60437" lon="0.52351">
        <ele>220</ele>
        <time>2020-01-12T10:06:17.000Z</time>
      </trkpt>
      <trkpt lat="43.60439" lon="0.5235">
        <ele>220</ele>
        <time>2020-01-12T10:06:19.000Z</time>
      </trkpt>
      <trkpt lat="43.60441" lon="0.52349">
        <ele>220</ele>
        <time>2020-01-12T10:06:22.000Z</time>
      </trkpt>
      <trkpt lat="43.60443" lon="0.52349">
        <ele>220</ele>
        <time>2020-01-12T10:06:24.000Z</time>
      </trkpt>
      <trkpt lat="43.60445" lon="0.52348">
        <ele>220</ele>
        <time>2020-01-12T10:06:26.000Z</time>
      </trkpt>
      <trkpt lat="43.60446" lon="0.52347">
        <ele>220</ele>
        <time>2020-01-12T10:06:28.000Z</time>
      </trkpt>
      <trkpt lat="43.60447" lon="0.52347">
        <ele>220</ele>
        <time>2020-01-12T10:06:30.000Z</time>
      </trkpt>
      <trkpt lat="43.60449" lon="0.52346">
        <ele>220</ele>
        <time>2020-01-12T10:06:32.000Z</time>
      </trkpt>
      <trkpt lat="43.60451" lon="0.52346">
        <ele>220</ele>
        <time>2020-01-12T10:06:34.000Z</time>
      </trkpt>
      <trkpt lat="43.60452" lon="0.52346">
        <ele>220</ele>
        <time>2020-01-12T10:06:36.000Z</time>
      </trkpt>
      <trkpt lat="43.60454" lon="0.52347">
        <ele>220</ele>
        <time>2020-01-12T10:06:38.000Z</time>
      </trkpt>
      <trkpt lat="43.60456" lon="0.52346">
        <ele>220</ele>
        <time>2020-01-12T10:06:40.000Z</time>
      </trkpt>
      <trkpt lat="43.60457" lon="0.52346">
        <ele>220</ele>
        <time>2020-01-12T10:06:42.000Z</time>
      </trkpt>
      <trkpt lat="43.60459" lon="0.52346">
        <ele>220</ele>
        <time>2020-01-12T10:06:44.000Z</time>
      </trkpt>
      <trkpt lat="43.6046" lon="0.52345">
        <ele>220</ele>
        <time>2020-01-12T10:06:46.000Z</time>
      </trkpt>
      <trkpt lat="43.60462" lon="0.52344">
        <ele>220</ele>
        <time>2020-01-12T10:06:48.000Z</time>
      </trkpt>
      <trkpt lat="43.60464" lon="0.52343">
        <ele>220</ele>
        <time>2020-01-12T10:06:50.000Z</time>
      </trkpt>
      <trkpt lat="43.60466" lon="0.52342">
        <ele>220</ele>
        <time>2020-01-12T10:06:52.000Z</time>
      </trkpt>
      <trkpt lat="43.60468" lon="0.52341">
        <ele>221</ele>
        <time>2020-01-12T10:06:54.000Z</time>
      </trkpt>
      <trkpt lat="43.6047" lon="0.5234">
        <ele>221</ele>
        <time>2020-01-12T10:06:56.000Z</time>
      </trkpt>
      <trkpt lat="43.60471" lon="0.52339">
        <ele>221</ele>
        <time>2020-01-12T10:06:58.000Z</time>
      </trkpt>
      <trkpt lat="43.60474" lon="0.52338">
        <ele>221</ele>
        <time>2020-01-12T10:07:01.000Z</time>
      </trkpt>
      <trkpt lat="43.60476" lon="0.52337">
        <ele>221</ele>
        <time>2020-01-12T10:07:03.000Z</time>
      </trkpt>
      <trkpt lat="43.60478" lon="0.52337">
        <ele>221</ele>
        <time>2020-01-12T10:07:05.000Z</time>
      </trkpt>
      <trkpt lat="43.6048" lon="0.52336">
        <ele>222</ele>
        <time>2020-01-12T10:07:07.000Z</time>
      </trkpt>
      <trkpt lat="43.60481" lon="0.52335">
        <ele>222</ele>
        <time>2020-01-12T10:07:09.000Z</time>
      </trkpt>
      <trkpt lat="43.60483" lon="0.52335">
        <ele>222</ele>
        <time>2020-01-12T10:07:11.000Z</time>
      </trkpt>
      <trkpt lat="43.60485" lon="0.52335">
        <ele>222</ele>
        <time>2020-01-12T10:07:13.000Z</time>
      </trkpt>
      <trkpt lat="43.60487" lon="0.52334">
        <ele>222</ele>
        <time>2020-01-12T10:07:15.000Z</time>
      </trkpt>
      <trkpt lat="43.60489" lon="0.52333">
        <ele>223</ele>
        <time>2020-01-12T10:07:17.000Z</time>
      </trkpt>
      <trkpt lat="43.60491" lon="0.52332">
        <ele>223</ele>
        <time>2020-01-12T10:07:19.000Z</time>
      </trkpt>
      <trkpt lat="43.60493" lon="0.52331">
        <ele>223</ele>
        <time>2020-01-12T10:07:21.000Z</time>
      </trkpt>
      <trkpt lat="43.60495" lon="0.52331">
        <ele>223</ele>
        <time>2020-01-12T10:07:23.000Z</time>
      </trkpt>
      <trkpt lat="43.60496" lon="0.5233">
        <ele>223</ele>
        <time>2020-01-12T10:07:25.000Z</time>
      </trkpt>
      <trkpt lat="43.60498" lon="0.52329">
        <ele>224</ele>
        <time>2020-01-12T10:07:27.000Z</time>
      </trkpt>
      <trkpt lat="43.605" lon="0.52328">
        <ele>224</ele>
        <time>2020-01-12T10:07:29.000Z</time>
      </trkpt>
      <trkpt lat="43.60501" lon="0.52327">
        <ele>224</ele>
        <time>2020-01-12T10:07:31.000Z</time>
      </trkpt>
      <trkpt lat="43.60503" lon="0.52327">
        <ele>224</ele>
        <time>2020-01-12T10:07:33.000Z</time>
      </trkpt>
      <trkpt lat="43.60504" lon="0.52326">
        <ele>224</ele>
        <time>2020-01-12T10:07:35.000Z</time>
      </trkpt>
      <trkpt lat="43.60505" lon="0.52325">
        <ele>225</ele>
        <time>2020-01-12T10:07:37.000Z</time>
      </trkpt>
      <trkpt lat="43.60507" lon="0.52324">
        <ele>225</ele>
        <time>2020-01-12T10:07:39.000Z</time>
      </trkpt>
      <trkpt lat="43.60508" lon="0.52323">
        <ele>225</ele>
        <time>2020-01-12T10:07:41.000Z</time>
      </trkpt>
      <trkpt lat="43.6051" lon="0.52322">
        <ele>225</ele>
        <time>2020-01-12T10:07:43.000Z</time>
      </trkpt>
      <trkpt lat="43.60512" lon="0.52321">
        <ele>226</ele>
        <time>2020-01-12T10:07:45.000Z</time>
      </trkpt>
      <trkpt lat="43.60513" lon="0.5232">
        <ele>226</ele>
        <time>2020-01-12T10:07:47.000Z</time>
      </trkpt>
      <trkpt lat="43.60515" lon="0.52319">
        <ele>226</ele>
        <time>2020-01-12T10:07:49.000Z</time>
      </trkpt>
      <trkpt lat="43.60516" lon="0.52318">
        <ele>226</ele>
        <time>2020-01-12T10:07:51.000Z</time>
      </trkpt>
      <trkpt lat="43.60518" lon="0.52317">
        <ele>227</ele>
        <time>2020-01-12T10:07:53.000Z</time>
      </trkpt>
      <trkpt lat="43.60519" lon="0.52315">
        <ele>227</ele>
        <time>2020-01-12T10:07:55.000Z</time>
      </trkpt>
      <trkpt lat="43.6052" lon="0.52315">
        <ele>227</ele>
        <time>2020-01-12T10:07:57.000Z</time>
      </trkpt>
      <trkpt lat="43.60521" lon="0.52314">
        <ele>227</ele>
        <time>2020-01-12T10:07:59.000Z</time>
      </trkpt>
      <trkpt lat="43.60523" lon="0.52312">
        <ele>227</ele>
        <time>2020-01-12T10:08:01.000Z</time>
      </trkpt>
      <trkpt lat="43.60524" lon="0.5231">
        <ele>227</ele>
        <time>2020-01-12T10:08:03.000Z</time>
      </trkpt>
      <trkpt lat="43.60526" lon="0.52309">
        <ele>227</ele>
        <time>2020-01-12T10:08:05.000Z</time>
      </trkpt>
      <trkpt lat="43.60528" lon="0.52307">
        <ele>228</ele>
        <time>2020-01-12T10:08:07.000Z</time>
      </trkpt>
      <trkpt lat="43.60529" lon="0.52306">
        <ele>228</ele>
        <time>2020-01-12T10:08:09.000Z</time>
      </trkpt>
      <trkpt lat="43.6053" lon="0.52304">
        <ele>228</ele>
        <time>2020-01-12T10:08:11.000Z</time>
      </trkpt>
      <trkpt lat="43.60532" lon="0.52303">
        <ele>228</ele>
        <time>2020-01-12T10:08:13.000Z</time>
      </trkpt>
      <trkpt lat="43.60533" lon="0.523">
        <ele>229</ele>
        <time>2020-01-12T10:08:15.000Z</time>
      </trkpt>
      <trkpt lat="43.60535" lon="0.52299">
        <ele>229</ele>
        <time>2020-01-12T10:08:17.000Z</time>
      </trkpt>
      <trkpt lat="43.60536" lon="0.52297">
        <ele>228</ele>
        <time>2020-01-12T10:08:19.000Z</time>
      </trkpt>
      <trkpt lat="43.60538" lon="0.52295">
        <ele>228</ele>
        <time>2020-01-12T10:08:21.000Z</time>
      </trkpt>
      <trkpt lat="43.60539" lon="0.52293">
        <ele>228</ele>
        <time>2020-01-12T10:08:23.000Z</time>
      </trkpt>
      <trkpt lat="43.6054" lon="0.52291">
        <ele>228</ele>
        <time>2020-01-12T10:08:25.000Z</time>
      </trkpt>
      <trkpt lat="43.60542" lon="0.5229">
        <ele>228</ele>
        <time>2020-01-12T10:08:27.000Z</time>
      </trkpt>
      <trkpt lat="43.60544" lon="0.52288">
        <ele>228</ele>
        <time>2020-01-12T10:08:29.000Z</time>
      </trkpt>
      <trkpt lat="43.60545" lon="0.52286">
        <ele>228</ele>
        <time>2020-01-12T10:08:31.000Z</time>
      </trkpt>
      <trkpt lat="43.60546" lon="0.52285">
        <ele>228</ele>
        <time>2020-01-12T10:08:33.000Z</time>
      </trkpt>
      <trkpt lat="43.60548" lon="0.52283">
        <ele>228</ele>
        <time>2020-01-12T10:08:35.000Z</time>
      </trkpt>
      <trkpt lat="43.60549" lon="0.52282">
        <ele>228</ele>
        <time>2020-01-12T10:08:37.000Z</time>
      </trkpt>
      <trkpt lat="43.60551" lon="0.5228">
        <ele>228</ele>
        <time>2020-01-12T10:08:39.000Z</time>
      </trkpt>
      <trkpt lat="43.60552" lon="0.52279">
        <ele>227</ele>
        <time>2020-01-12T10:08:41.000Z</time>
      </trkpt>
      <trkpt lat="43.60553" lon="0.52277">
        <ele>227</ele>
        <time>2020-01-12T10:08:43.000Z</time>
      </trkpt>
      <trkpt lat="43.60555" lon="0.52275">
        <ele>227</ele>
        <time>2020-01-12T10:08:45.000Z</time>
      </trkpt>
      <trkpt lat="43.60556" lon="0.52274">
        <ele>227</ele>
        <time>2020-01-12T10:08:47.000Z</time>
      </trkpt>
      <trkpt lat="43.60558" lon="0.52273">
        <ele>227</ele>
        <time>2020-01-12T10:08:49.000Z</time>
      </trkpt>
      <trkpt lat="43.60559" lon="0.52273">
        <ele>227</ele>
        <time>2020-01-12T10:08:51.000Z</time>
      </trkpt>
      <trkpt lat="43.60559" lon="0.52273">
        <ele>227</ele>
        <time>2020-01-12T10:08:53.000Z</time>
      </trkpt>
      <trkpt lat="43.60559" lon="0.52273">
        <ele>227</ele>
        <time>2020-01-12T10:08:55.000Z</time>
      </trkpt>
      <trkpt lat="43.60559" lon="0.52273">
        <ele>227</ele>
        <time>2020-01-12T10:08:57.000Z</time>
      </trkpt>
      <trkpt lat="43.60559" lon="0.52273">
        <ele>227</ele>
        <time>2020-01-12T10:08:59.000Z</time>
      </trkpt>
      <trkpt lat="43.60559" lon="0.52273">
        <ele>227</ele>
        <time>2020-01-12T10:09:01.000Z</time>
      </trkpt>
      <trkpt lat="43.60559" lon="0.52273">
        <ele>227</ele>
        <time>2020-01-12T10:09:03.000Z</time>
      </trkpt>
      <trkpt lat="43.6056" lon="0.52272">
        <ele>227</ele>
        <time>2020-01-12T10:09:05.000Z</time>
      </trkpt>
      <trkpt lat="43.60561" lon="0.5227">
        <ele>227</ele>
        <time>2020-01-12T10:09:07.000Z</time>
      </trkpt>
      <trkpt lat="43.60563" lon="0.52268">
        <ele>227</ele>
        <time>2020-01-12T10:09:09.000Z</time>
      </trkpt>
      <trkpt lat="43.60564" lon="0.52267">
        <ele>227</ele>
        <time>2020-01-12T10:09:11.000Z</time>
      </trkpt>
      <trkpt lat="43.60565" lon="0.52266">
        <ele>227</ele>
        <time>2020-01-12T10:09:13.000Z</time>
      </trkpt>
      <trkpt lat="43.60566" lon="0.52264">
        <ele>227</ele>
        <time>2020-01-12T10:09:15.000Z</time>
      </trkpt>
      <trkpt lat="43.60567" lon="0.52261">
        <ele>227</ele>
        <time>2020-01-12T10:09:17.000Z</time>
      </trkpt>
      <trkpt lat="43.60569" lon="0.5226">
        <ele>227</ele>
        <time>2020-01-12T10:09:19.000Z</time>
      </trkpt>
      <trkpt lat="43.60569" lon="0.52257">
        <ele>228</ele>
        <time>2020-01-12T10:09:21.000Z</time>
      </trkpt>
      <trkpt lat="43.60571" lon="0.52255">
        <ele>228</ele>
        <time>2020-01-12T10:09:23.000Z</time>
      </trkpt>
      <trkpt lat="43.60572" lon="0.52252">
        <ele>228</ele>
        <time>2020-01-12T10:09:25.000Z</time>
      </trkpt>
      <trkpt lat="43.60573" lon="0.5225">
        <ele>229</ele>
        <time>2020-01-12T10:09:27.000Z</time>
      </trkpt>
      <trkpt lat="43.60574" lon="0.52248">
        <ele>229</ele>
        <time>2020-01-12T10:09:29.000Z</time>
      </trkpt>
      <trkpt lat="43.60575" lon="0.52246">
        <ele>229</ele>
        <time>2020-01-12T10:09:31.000Z</time>
      </trkpt>
      <trkpt lat="43.60576" lon="0.52244">
        <ele>230</ele>
        <time>2020-01-12T10:09:33.000Z</time>
      </trkpt>
      <trkpt lat="43.60577" lon="0.52242">
        <ele>230</ele>
        <time>2020-01-12T10:09:35.000Z</time>
      </trkpt>
      <trkpt lat="43.60577" lon="0.52239">
        <ele>230</ele>
        <time>2020-01-12T10:09:37.000Z</time>
      </trkpt>
      <trkpt lat="43.60579" lon="0.52237">
        <ele>231</ele>
        <time>2020-01-12T10:09:39.000Z</time>
      </trkpt>
      <trkpt lat="43.6058" lon="0.52235">
        <ele>231</ele>
        <time>2020-01-12T10:09:41.000Z</time>
      </trkpt>
      <trkpt lat="43.6058" lon="0.52233">
        <ele>231</ele>
        <time>2020-01-12T10:09:43.000Z</time>
      </trkpt>
      <trkpt lat="43.60581" lon="0.52231">
        <ele>231</ele>
        <time>2020-01-12T10:09:45.000Z</time>
      </trkpt>
      <trkpt lat="43.60581" lon="0.52228">
        <ele>232</ele>
        <time>2020-01-12T10:09:47.000Z</time>
      </trkpt>
      <trkpt lat="43.60582" lon="0.52226">
        <ele>232</ele>
        <time>2020-01-12T10:09:49.000Z</time>
      </trkpt>
      <trkpt lat="43.60582" lon="0.52224">
        <ele>232</ele>
        <time>2020-01-12T10:09:51.000Z</time>
      </trkpt>
      <trkpt lat="43.60583" lon="0.52221">
        <ele>233</ele>
        <time>2020-01-12T10:09:53.000Z</time>
      </trkpt>
      <trkpt lat="43.60583" lon="0.52218">
        <ele>233</ele>
        <time>2020-01-12T10:09:55.000Z</time>
      </trkpt>
      <trkpt lat="43.60584" lon="0.52216">
        <ele>233</ele>
        <time>2020-01-12T10:09:57.000Z</time>
      </trkpt>
      <trkpt lat="43.60584" lon="0.52213">
        <ele>233</ele>
        <time>2020-01-12T10:09:59.000Z</time>
      </trkpt>
      <trkpt lat="43.60586" lon="0.5221">
        <ele>233</ele>
        <time>2020-01-12T10:10:01.000Z</time>
      </trkpt>
      <trkpt lat="43.60586" lon="0.52207">
        <ele>233</ele>
        <time>2020-01-12T10:10:03.000Z</time>
      </trkpt>
      <trkpt lat="43.60586" lon="0.52204">
        <ele>233</ele>
        <time>2020-01-12T10:10:05.000Z</time>
      </trkpt>
      <trkpt lat="43.60587" lon="0.52202">
        <ele>233</ele>
        <time>2020-01-12T10:10:07.000Z</time>
      </trkpt>
      <trkpt lat="43.60587" lon="0.52199">
        <ele>233</ele>
        <time>2020-01-12T10:10:09.000Z</time>
      </trkpt>
      <trkpt lat="43.60588" lon="0.52197">
        <ele>233</ele>
        <time>2020-01-12T10:10:11.000Z</time>
      </trkpt>
      <trkpt lat="43.60589" lon="0.52194">
        <ele>233</ele>
        <time>2020-01-12T10:10:13.000Z</time>
      </trkpt>
      <trkpt lat="43.60589" lon="0.52192">
        <ele>233</ele>
        <time>2020-01-12T10:10:15.000Z</time>
      </trkpt>
      <trkpt lat="43.6059" lon="0.5219">
        <ele>234</ele>
        <time>2020-01-12T10:10:17.000Z</time>
      </trkpt>
      <trkpt lat="43.6059" lon="0.52187">
        <ele>234</ele>
        <time>2020-01-12T10:10:19.000Z</time>
      </trkpt>
      <trkpt lat="43.60591" lon="0.52184">
        <ele>234</ele>
        <time>2020-01-12T10:10:21.000Z</time>
      </trkpt>
      <trkpt lat="43.60591" lon="0.52182">
        <ele>234</ele>
        <time>2020-01-12T10:10:23.000Z</time>
      </trkpt>
      <trkpt lat="43.60592" lon="0.52179">
        <ele>234</ele>
        <time>2020-01-12T10:10:25.000Z</time>
      </trkpt>
      <trkpt lat="43.60593" lon="0.52176">
        <ele>235</ele>
        <time>2020-01-12T10:10:27.000Z</time>
      </trkpt>
      <trkpt lat="43.60593" lon="0.52174">
        <ele>235</ele>
        <time>2020-01-12T10:10:29.000Z</time>
      </trkpt>
      <trkpt lat="43.60594" lon="0.52171">
        <ele>235</ele>
        <time>2020-01-12T10:10:31.000Z</time>
      </trkpt>
      <trkpt lat="43.60594" lon="0.52169">
        <ele>235</ele>
        <time>2020-01-12T10:10:33.000Z</time>
      </trkpt>
      <trkpt lat="43.60594" lon="0.52166">
        <ele>235</ele>
        <time>2020-01-12T10:10:35.000Z</time>
      </trkpt>
      <trkpt lat="43.60595" lon="0.52164">
        <ele>235</ele>
        <time>2020-01-12T10:10:37.000Z</time>
      </trkpt>
      <trkpt lat="43.60595" lon="0.52162">
        <ele>236</ele>
        <time>2020-01-12T10:10:39.000Z</time>
      </trkpt>
      <trkpt lat="43.60596" lon="0.52159">
        <ele>236</ele>
        <time>2020-01-12T10:10:41.000Z</time>
      </trkpt>
      <trkpt lat="43.60597" lon="0.52157">
        <ele>236</ele>
        <time>2020-01-12T10:10:43.000Z</time>
      </trkpt>
      <trkpt lat="43.60597" lon="0.52154">
        <ele>236</ele>
        <time>2020-01-12T10:10:45.000Z</time>
      </trkpt>
      <trkpt lat="43.60598" lon="0.52152">
        <ele>237</ele>
        <time>2020-01-12T10:10:47.000Z</time>
      </trkpt>
      <trkpt lat="43.60598" lon="0.52149">
        <ele>237</ele>
        <time>2020-01-12T10:10:49.000Z</time>
      </trkpt>
      <trkpt lat="43.60599" lon="0.52146">
        <ele>237</ele>
        <time>2020-01-12T10:10:51.000Z</time>
      </trkpt>
      <trkpt lat="43.60599" lon="0.52144">
        <ele>237</ele>
        <time>2020-01-12T10:10:53.000Z</time>
      </trkpt>
      <trkpt lat="43.60599" lon="0.52142">
        <ele>237</ele>
        <time>2020-01-12T10:10:55.000Z</time>
      </trkpt>
      <trkpt lat="43.606" lon="0.52139">
        <ele>237</ele>
        <time>2020-01-12T10:10:57.000Z</time>
      </trkpt>
      <trkpt lat="43.606" lon="0.52137">
        <ele>238</ele>
        <time>2020-01-12T10:10:59.000Z</time>
      </trkpt>
      <trkpt lat="43.606" lon="0.52134">
        <ele>238</ele>
        <time>2020-01-12T10:11:01.000Z</time>
      </trkpt>
      <trkpt lat="43.60601" lon="0.52131">
        <ele>238</ele>
        <time>2020-01-12T10:11:03.000Z</time>
      </trkpt>
      <trkpt lat="43.60602" lon="0.52129">
        <ele>238</ele>
        <time>2020-01-12T10:11:05.000Z</time>
      </trkpt>
      <trkpt lat="43.60602" lon="0.52126">
        <ele>238</ele>
        <time>2020-01-12T10:11:07.000Z</time>
      </trkpt>
      <trkpt lat="43.60602" lon="0.52123">
        <ele>238</ele>
        <time>2020-01-12T10:11:09.000Z</time>
      </trkpt>
      <trkpt lat="43.60602" lon="0.52121">
        <ele>238</ele>
        <time>2020-01-12T10:11:11.000Z</time>
      </trkpt>
      <trkpt lat="43.60602" lon="0.52118">
        <ele>238</ele>
        <time>2020-01-12T10:11:13.000Z</time>
      </trkpt>
      <trkpt lat="43.60603" lon="0.52115">
        <ele>238</ele>
        <time>2020-01-12T10:11:15.000Z</time>
      </trkpt>
      <trkpt lat="43.60603" lon="0.52112">
        <ele>238</ele>
        <time>2020-01-12T10:11:17.000Z</time>
      </trkpt>
      <trkpt lat="43.60603" lon="0.5211">
        <ele>238</ele>
        <time>2020-01-12T10:11:19.000Z</time>
      </trkpt>
      <trkpt lat="43.60603" lon="0.52107">
        <ele>238</ele>
        <time>2020-01-12T10:11:21.000Z</time>
      </trkpt>
      <trkpt lat="43.60602" lon="0.52104">
        <ele>238</ele>
        <time>2020-01-12T10:11:23.000Z</time>
      </trkpt>
      <trkpt lat="43.60603" lon="0.52102">
        <ele>238</ele>
        <time>2020-01-12T10:11:25.000Z</time>
      </trkpt>
      <trkpt lat="43.60603" lon="0.52099">
        <ele>238</ele>
        <time>2020-01-12T10:11:27.000Z</time>
      </trkpt>
      <trkpt lat="43.60604" lon="0.52097">
        <ele>239</ele>
        <time>2020-01-12T10:11:29.000Z</time>
      </trkpt>
      <trkpt lat="43.60604" lon="0.52094">
        <ele>239</ele>
        <time>2020-01-12T10:11:31.000Z</time>
      </trkpt>
      <trkpt lat="43.60604" lon="0.52091">
        <ele>239</ele>
        <time>2020-01-12T10:11:33.000Z</time>
      </trkpt>
      <trkpt lat="43.60604" lon="0.52088">
        <ele>239</ele>
        <time>2020-01-12T10:11:35.000Z</time>
      </trkpt>
      <trkpt lat="43.60604" lon="0.52088">
        <ele>239</ele>
        <time>2020-01-12T10:11:37.000Z</time>
      </trkpt>
      <trkpt lat="43.60605" lon="0.52088">
        <ele>239</ele>
        <time>2020-01-12T10:11:39.000Z</time>
      </trkpt>
      <trkpt lat="43.60605" lon="0.52087">
        <ele>239</ele>
        <time>2020-01-12T10:11:41.000Z</time>
      </trkpt>
      <trkpt lat="43.60604" lon="0.52087">
        <ele>239</ele>
        <time>2020-01-12T10:11:43.000Z</time>
      </trkpt>
      <trkpt lat="43.60604" lon="0.52085">
        <ele>239</ele>
        <time>2020-01-12T10:11:45.000Z</time>
      </trkpt>
      <trkpt lat="43.60605" lon="0.52081">
        <ele>239</ele>
        <time>2020-01-12T10:11:47.000Z</time>
      </trkpt>
      <trkpt lat="43.60605" lon="0.52079">
        <ele>239</ele>
        <time>2020-01-12T10:11:49.000Z</time>
      </trkpt>
      <trkpt lat="43.60606" lon="0.52077">
        <ele>239</ele>
        <time>2020-01-12T10:11:51.000Z</time>
      </trkpt>
      <trkpt lat="43.60606" lon="0.52074">
        <ele>239</ele>
        <time>2020-01-12T10:11:53.000Z</time>
      </trkpt>
      <trkpt lat="43.60606" lon="0.52072">
        <ele>239</ele>
        <time>2020-01-12T10:11:55.000Z</time>
      </trkpt>
      <trkpt lat="43.60606" lon="0.52069">
        <ele>239</ele>
        <time>2020-01-12T10:11:57.000Z</time>
      </trkpt>
      <trkpt lat="43.60607" lon="0.52066">
        <ele>239</ele>
        <time>2020-01-12T10:11:59.000Z</time>
      </trkpt>
      <trkpt lat="43.60607" lon="0.52063">
        <ele>239</ele>
        <time>2020-01-12T10:12:01.000Z</time>
      </trkpt>
      <trkpt lat="43.60608" lon="0.5206">
        <ele>239</ele>
        <time>2020-01-12T10:12:03.000Z</time>
      </trkpt>
      <trkpt lat="43.60608" lon="0.52057">
        <ele>239</ele>
        <time>2020-01-12T10:12:05.000Z</time>
      </trkpt>
      <trkpt lat="43.60609" lon="0.52054">
        <ele>239</ele>
        <time>2020-01-12T10:12:07.000Z</time>
      </trkpt>
      <trkpt lat="43.60609" lon="0.52051">
        <ele>239</ele>
        <time>2020-01-12T10:12:09.000Z</time>
      </trkpt>
      <trkpt lat="43.60609" lon="0.52048">
        <ele>239</ele>
        <time>2020-01-12T10:12:11.000Z</time>
      </trkpt>
      <trkpt lat="43.6061" lon="0.52045">
        <ele>239</ele>
        <time>2020-01-12T10:12:13.000Z</time>
      </trkpt>
      <trkpt lat="43.6061" lon="0.52043">
        <ele>239</ele>
        <time>2020-01-12T10:12:15.000Z</time>
      </trkpt>
      <trkpt lat="43.6061" lon="0.52039">
        <ele>239</ele>
        <time>2020-01-12T10:12:17.000Z</time>
      </trkpt>
      <trkpt lat="43.60611" lon="0.52037">
        <ele>239</ele>
        <time>2020-01-12T10:12:19.000Z</time>
      </trkpt>
      <trkpt lat="43.60611" lon="0.52034">
        <ele>239</ele>
        <time>2020-01-12T10:12:21.000Z</time>
      </trkpt>
      <trkpt lat="43.60611" lon="0.52032">
        <ele>239</ele>
        <time>2020-01-12T10:12:23.000Z</time>
      </trkpt>
      <trkpt lat="43.60611" lon="0.5203">
        <ele>239</ele>
        <time>2020-01-12T10:12:25.000Z</time>
      </trkpt>
      <trkpt lat="43.60611" lon="0.52027">
        <ele>239</ele>
        <time>2020-01-12T10:12:27.000Z</time>
      </trkpt>
      <trkpt lat="43.60612" lon="0.52024">
        <ele>239</ele>
        <time>2020-01-12T10:12:29.000Z</time>
      </trkpt>
      <trkpt lat="43.60612" lon="0.52022">
        <ele>239</ele>
        <time>2020-01-12T10:12:31.000Z</time>
      </trkpt>
      <trkpt lat="43.60612" lon="0.52019">
        <ele>239</ele>
        <time>2020-01-12T10:12:33.000Z</time>
      </trkpt>
      <trkpt lat="43.60612" lon="0.52016">
        <ele>239</ele>
        <time>2020-01-12T10:12:35.000Z</time>
      </trkpt>
      <trkpt lat="43.60612" lon="0.52013">
        <ele>239</ele>
        <time>2020-01-12T10:12:37.000Z</time>
      </trkpt>
      <trkpt lat="43.60612" lon="0.52011">
        <ele>239</ele>
        <time>2020-01-12T10:12:39.000Z</time>
      </trkpt>
      <trkpt lat="43.60612" lon="0.52008">
        <ele>239</ele>
        <time>2020-01-12T10:12:41.000Z</time>
      </trkpt>
      <trkpt lat="43.60612" lon="0.52005">
        <ele>239</ele>
        <time>2020-01-12T10:12:43.000Z</time>
      </trkpt>
      <trkpt lat="43.60612" lon="0.52003">
        <ele>238</ele>
        <time>2020-01-12T10:12:45.000Z</time>
      </trkpt>
      <trkpt lat="43.60613" lon="0.51999">
        <ele>238</ele>
        <time>2020-01-12T10:12:47.000Z</time>
      </trkpt>
      <trkpt lat="43.60613" lon="0.51997">
        <ele>238</ele>
        <time>2020-01-12T10:12:49.000Z</time>
      </trkpt>
      <trkpt lat="43.60613" lon="0.51994">
        <ele>238</ele>
        <time>2020-01-12T10:12:51.000Z</time>
      </trkpt>
      <trkpt lat="43.60613" lon="0.51991">
        <ele>238</ele>
        <time>2020-01-12T10:12:53.000Z</time>
      </trkpt>
      <trkpt lat="43.60614" lon="0.51989">
        <ele>238</ele>
        <time>2020-01-12T10:12:55.000Z</time>
      </trkpt>
      <trkpt lat="43.60615" lon="0.51985">
        <ele>238</ele>
        <time>2020-01-12T10:12:57.000Z</time>
      </trkpt>
      <trkpt lat="43.60615" lon="0.51982">
        <ele>238</ele>
        <time>2020-01-12T10:12:59.000Z</time>
      </trkpt>
      <trkpt lat="43.60615" lon="0.5198">
        <ele>238</ele>
        <time>2020-01-12T10:13:01.000Z</time>
      </trkpt>
      <trkpt lat="43.60616" lon="0.51977">
        <ele>238</ele>
        <time>2020-01-12T10:13:03.000Z</time>
      </trkpt>
      <trkpt lat="43.60616" lon="0.51974">
        <ele>238</ele>
        <time>2020-01-12T10:13:05.000Z</time>
      </trkpt>
      <trkpt lat="43.60617" lon="0.51972">
        <ele>238</ele>
        <time>2020-01-12T10:13:07.000Z</time>
      </trkpt>
      <trkpt lat="43.60617" lon="0.5197">
        <ele>238</ele>
        <time>2020-01-12T10:13:09.000Z</time>
      </trkpt>
      <trkpt lat="43.60617" lon="0.51966">
        <ele>238</ele>
        <time>2020-01-12T10:13:11.000Z</time>
      </trkpt>
      <trkpt lat="43.60617" lon="0.51963">
        <ele>238</ele>
        <time>2020-01-12T10:13:13.000Z</time>
      </trkpt>
      <trkpt lat="43.60618" lon="0.5196">
        <ele>238</ele>
        <time>2020-01-12T10:13:15.000Z</time>
      </trkpt>
      <trkpt lat="43.60619" lon="0.51957">
        <ele>238</ele>
        <time>2020-01-12T10:13:17.000Z</time>
      </trkpt>
      <trkpt lat="43.60619" lon="0.51954">
        <ele>239</ele>
        <time>2020-01-12T10:13:19.000Z</time>
      </trkpt>
      <trkpt lat="43.6062" lon="0.51951">
        <ele>239</ele>
        <time>2020-01-12T10:13:21.000Z</time>
      </trkpt>
      <trkpt lat="43.6062" lon="0.51948">
        <ele>238</ele>
        <time>2020-01-12T10:13:23.000Z</time>
      </trkpt>
      <trkpt lat="43.6062" lon="0.51946">
        <ele>239</ele>
        <time>2020-01-12T10:13:25.000Z</time>
      </trkpt>
      <trkpt lat="43.60621" lon="0.51943">
        <ele>239</ele>
        <time>2020-01-12T10:13:27.000Z</time>
      </trkpt>
      <trkpt lat="43.60621" lon="0.51941">
        <ele>238</ele>
        <time>2020-01-12T10:13:29.000Z</time>
      </trkpt>
      <trkpt lat="43.60621" lon="0.51938">
        <ele>238</ele>
        <time>2020-01-12T10:13:31.000Z</time>
      </trkpt>
      <trkpt lat="43.60621" lon="0.51935">
        <ele>238</ele>
        <time>2020-01-12T10:13:33.000Z</time>
      </trkpt>
      <trkpt lat="43.60622" lon="0.51933">
        <ele>239</ele>
        <time>2020-01-12T10:13:35.000Z</time>
      </trkpt>
      <trkpt lat="43.60622" lon="0.5193">
        <ele>239</ele>
        <time>2020-01-12T10:13:37.000Z</time>
      </trkpt>
      <trkpt lat="43.60623" lon="0.51927">
        <ele>239</ele>
        <time>2020-01-12T10:13:39.000Z</time>
      </trkpt>
      <trkpt lat="43.60623" lon="0.51925">
        <ele>239</ele>
        <time>2020-01-12T10:13:41.000Z</time>
      </trkpt>
      <trkpt lat="43.60624" lon="0.51922">
        <ele>239</ele>
        <time>2020-01-12T10:13:43.000Z</time>
      </trkpt>
      <trkpt lat="43.60624" lon="0.5192">
        <ele>239</ele>
        <time>2020-01-12T10:13:45.000Z</time>
      </trkpt>
      <trkpt lat="43.60625" lon="0.51918">
        <ele>239</ele>
        <time>2020-01-12T10:13:47.000Z</time>
      </trkpt>
      <trkpt lat="43.60625" lon="0.51915">
        <ele>239</ele>
        <time>2020-01-12T10:13:49.000Z</time>
      </trkpt>
      <trkpt lat="43.60626" lon="0.51913">
        <ele>239</ele>
        <time>2020-01-12T10:13:51.000Z</time>
      </trkpt>
      <trkpt lat="43.60626" lon="0.5191">
        <ele>239</ele>
        <time>2020-01-12T10:13:53.000Z</time>
      </trkpt>
      <trkpt lat="43.60627" lon="0.51907">
        <ele>239</ele>
        <time>2020-01-12T10:13:55.000Z</time>
      </trkpt>
      <trkpt lat="43.60627" lon="0.51904">
        <ele>239</ele>
        <time>2020-01-12T10:13:57.000Z</time>
      </trkpt>
      <trkpt lat="43.60627" lon="0.51902">
        <ele>239</ele>
        <time>2020-01-12T10:13:59.000Z</time>
      </trkpt>
      <trkpt lat="43.60628" lon="0.519">
        <ele>239</ele>
        <time>2020-01-12T10:14:01.000Z</time>
      </trkpt>
      <trkpt lat="43.60628" lon="0.51897">
        <ele>239</ele>
        <time>2020-01-12T10:14:03.000Z</time>
      </trkpt>
      <trkpt lat="43.60628" lon="0.51894">
        <ele>239</ele>
        <time>2020-01-12T10:14:05.000Z</time>
      </trkpt>
      <trkpt lat="43.60629" lon="0.51891">
        <ele>239</ele>
        <time>2020-01-12T10:14:07.000Z</time>
      </trkpt>
      <trkpt lat="43.60629" lon="0.51889">
        <ele>239</ele>
        <time>2020-01-12T10:14:09.000Z</time>
      </trkpt>
      <trkpt lat="43.60629" lon="0.51886">
        <ele>239</ele>
        <time>2020-01-12T10:14:11.000Z</time>
      </trkpt>
      <trkpt lat="43.6063" lon="0.51884">
        <ele>239</ele>
        <time>2020-01-12T10:14:13.000Z</time>
      </trkpt>
      <trkpt lat="43.6063" lon="0.51882">
        <ele>239</ele>
        <time>2020-01-12T10:14:15.000Z</time>
      </trkpt>
      <trkpt lat="43.60631" lon="0.51882">
        <ele>239</ele>
        <time>2020-01-12T10:14:17.000Z</time>
      </trkpt>
      <trkpt lat="43.60631" lon="0.51882">
        <ele>239</ele>
        <time>2020-01-12T10:14:19.000Z</time>
      </trkpt>
      <trkpt lat="43.60632" lon="0.51883">
        <ele>239</ele>
        <time>2020-01-12T10:14:21.000Z</time>
      </trkpt>
      <trkpt lat="43.60632" lon="0.51883">
        <ele>239</ele>
        <time>2020-01-12T10:14:23.000Z</time>
      </trkpt>
      <trkpt lat="43.60632" lon="0.51882">
        <ele>239</ele>
        <time>2020-01-12T10:14:25.000Z</time>
      </trkpt>
      <trkpt lat="43.60632" lon="0.5188">
        <ele>239</ele>
        <time>2020-01-12T10:14:27.000Z</time>
      </trkpt>
      <trkpt lat="43.60633" lon="0.51877">
        <ele>239</ele>
        <time>2020-01-12T10:14:29.000Z</time>
      </trkpt>
      <trkpt lat="43.60634" lon="0.51873">
        <ele>239</ele>
        <time>2020-01-12T10:14:31.000Z</time>
      </trkpt>
      <trkpt lat="43.60634" lon="0.5187">
        <ele>239</ele>
        <time>2020-01-12T10:14:33.000Z</time>
      </trkpt>
      <trkpt lat="43.60635" lon="0.51866">
        <ele>239</ele>
        <time>2020-01-12T10:14:35.000Z</time>
      </trkpt>
      <trkpt lat="43.60636" lon="0.51863">
        <ele>239</ele>
        <time>2020-01-12T10:14:37.000Z</time>
      </trkpt>
      <trkpt lat="43.60636" lon="0.51859">
        <ele>239</ele>
        <time>2020-01-12T10:14:39.000Z</time>
      </trkpt>
      <trkpt lat="43.60636" lon="0.51856">
        <ele>239</ele>
        <time>2020-01-12T10:14:41.000Z</time>
      </trkpt>
      <trkpt lat="43.60636" lon="0.51852">
        <ele>239</ele>
        <time>2020-01-12T10:14:43.000Z</time>
      </trkpt>
      <trkpt lat="43.60637" lon="0.51848">
        <ele>239</ele>
        <time>2020-01-12T10:14:45.000Z</time>
      </trkpt>
      <trkpt lat="43.60637" lon="0.51845">
        <ele>239</ele>
        <time>2020-01-12T10:14:47.000Z</time>
      </trkpt>
      <trkpt lat="43.60638" lon="0.51841">
        <ele>239</ele>
        <time>2020-01-12T10:14:49.000Z</time>
      </trkpt>
      <trkpt lat="43.60638" lon="0.51838">
        <ele>239</ele>
        <time>2020-01-12T10:14:51.000Z</time>
      </trkpt>
      <trkpt lat="43.60638" lon="0.51835">
        <ele>239</ele>
        <time>2020-01-12T10:14:53.000Z</time>
      </trkpt>
      <trkpt lat="43.60638" lon="0.51832">
        <ele>240</ele>
        <time>2020-01-12T10:14:55.000Z</time>
      </trkpt>
      <trkpt lat="43.60639" lon="0.51829">
        <ele>240</ele>
        <time>2020-01-12T10:14:57.000Z</time>
      </trkpt>
      <trkpt lat="43.6064" lon="0.51826">
        <ele>240</ele>
        <time>2020-01-12T10:14:59.000Z</time>
      </trkpt>
      <trkpt lat="43.6064" lon="0.51823">
        <ele>240</ele>
        <time>2020-01-12T10:15:01.000Z</time>
      </trkpt>
      <trkpt lat="43.6064" lon="0.5182">
        <ele>240</ele>
        <time>2020-01-12T10:15:03.000Z</time>
      </trkpt>
      <trkpt lat="43.6064" lon="0.51817">
        <ele>240</ele>
        <time>2020-01-12T10:15:05.000Z</time>
      </trkpt>
      <trkpt lat="43.6064" lon="0.51814">
        <ele>240</ele>
        <time>2020-01-12T10:15:07.000Z</time>
      </trkpt>
      <trkpt lat="43.60641" lon="0.5181">
        <ele>240</ele>
        <time>2020-01-12T10:15:09.000Z</time>
      </trkpt>
      <trkpt lat="43.60641" lon="0.51807">
        <ele>240</ele>
        <time>2020-01-12T10:15:11.000Z</time>
      </trkpt>
      <trkpt lat="43.60642" lon="0.51804">
        <ele>240</ele>
        <time>2020-01-12T10:15:13.000Z</time>
      </trkpt>
      <trkpt lat="43.60642" lon="0.518">
        <ele>240</ele>
        <time>2020-01-12T10:15:15.000Z</time>
      </trkpt>
      <trkpt lat="43.60643" lon="0.51797">
        <ele>240</ele>
        <time>2020-01-12T10:15:17.000Z</time>
      </trkpt>
      <trkpt lat="43.60644" lon="0.51793">
        <ele>240</ele>
        <time>2020-01-12T10:15:19.000Z</time>
      </trkpt>
      <trkpt lat="43.60644" lon="0.5179">
        <ele>240</ele>
        <time>2020-01-12T10:15:21.000Z</time>
      </trkpt>
      <trkpt lat="43.60644" lon="0.51787">
        <ele>240</ele>
        <time>2020-01-12T10:15:23.000Z</time>
      </trkpt>
      <trkpt lat="43.60645" lon="0.51783">
        <ele>240</ele>
        <time>2020-01-12T10:15:25.000Z</time>
      </trkpt>
      <trkpt lat="43.60645" lon="0.5178">
        <ele>240</ele>
        <time>2020-01-12T10:15:27.000Z</time>
      </trkpt>
      <trkpt lat="43.60646" lon="0.51777">
        <ele>241</ele>
        <time>2020-01-12T10:15:29.000Z</time>
      </trkpt>
      <trkpt lat="43.60646" lon="0.51774">
        <ele>241</ele>
        <time>2020-01-12T10:15:31.000Z</time>
      </trkpt>
      <trkpt lat="43.60647" lon="0.5177">
        <ele>241</ele>
        <time>2020-01-12T10:15:33.000Z</time>
      </trkpt>
      <trkpt lat="43.60647" lon="0.51767">
        <ele>241</ele>
        <time>2020-01-12T10:15:35.000Z</time>
      </trkpt>
      <trkpt lat="43.60648" lon="0.51764">
        <ele>241</ele>
        <time>2020-01-12T10:15:37.000Z</time>
      </trkpt>
      <trkpt lat="43.60648" lon="0.5176">
        <ele>241</ele>
        <time>2020-01-12T10:15:39.000Z</time>
      </trkpt>
      <trkpt lat="43.60649" lon="0.51757">
        <ele>241</ele>
        <time>2020-01-12T10:15:41.000Z</time>
      </trkpt>
      <trkpt lat="43.6065" lon="0.51754">
        <ele>241</ele>
        <time>2020-01-12T10:15:43.000Z</time>
      </trkpt>
      <trkpt lat="43.6065" lon="0.51751">
        <ele>241</ele>
        <time>2020-01-12T10:15:45.000Z</time>
      </trkpt>
      <trkpt lat="43.6065" lon="0.51748">
        <ele>241</ele>
        <time>2020-01-12T10:15:47.000Z</time>
      </trkpt>
      <trkpt lat="43.60651" lon="0.51746">
        <ele>241</ele>
        <time>2020-01-12T10:15:49.000Z</time>
      </trkpt>
      <trkpt lat="43.60651" lon="0.51743">
        <ele>241</ele>
        <time>2020-01-12T10:15:51.000Z</time>
      </trkpt>
      <trkpt lat="43.60651" lon="0.5174">
        <ele>240</ele>
        <time>2020-01-12T10:15:53.000Z</time>
      </trkpt>
      <trkpt lat="43.60651" lon="0.51737">
        <ele>240</ele>
        <time>2020-01-12T10:15:55.000Z</time>
      </trkpt>
      <trkpt lat="43.60651" lon="0.51733">
        <ele>240</ele>
        <time>2020-01-12T10:15:57.000Z</time>
      </trkpt>
      <trkpt lat="43.60652" lon="0.5173">
        <ele>240</ele>
        <time>2020-01-12T10:15:59.000Z</time>
      </trkpt>
      <trkpt lat="43.60652" lon="0.51727">
        <ele>240</ele>
        <time>2020-01-12T10:16:01.000Z</time>
      </trkpt>
      <trkpt lat="43.60653" lon="0.51723">
        <ele>240</ele>
        <time>2020-01-12T10:16:03.000Z</time>
      </trkpt>
      <trkpt lat="43.60653" lon="0.51721">
        <ele>240</ele>
        <time>2020-01-12T10:16:05.000Z</time>
      </trkpt>
      <trkpt lat="43.60654" lon="0.51717">
        <ele>240</ele>
        <time>2020-01-12T10:16:07.000Z</time>
      </trkpt>
      <trkpt lat="43.60654" lon="0.51714">
        <ele>240</ele>
        <time>2020-01-12T10:16:09.000Z</time>
      </trkpt>
      <trkpt lat="43.60655" lon="0.51711">
        <ele>240</ele>
        <time>2020-01-12T10:16:11.000Z</time>
      </trkpt>
      <trkpt lat="43.60655" lon="0.51708">
        <ele>240</ele>
        <time>2020-01-12T10:16:13.000Z</time>
      </trkpt>
      <trkpt lat="43.60655" lon="0.51705">
        <ele>240</ele>
        <time>2020-01-12T10:16:15.000Z</time>
      </trkpt>
      <trkpt lat="43.60655" lon="0.51702">
        <ele>240</ele>
        <time>2020-01-12T10:16:17.000Z</time>
      </trkpt>
      <trkpt lat="43.60655" lon="0.51699">
        <ele>240</ele>
        <time>2020-01-12T10:16:19.000Z</time>
      </trkpt>
      <trkpt lat="43.60656" lon="0.51695">
        <ele>241</ele>
        <time>2020-01-12T10:16:21.000Z</time>
      </trkpt>
      <trkpt lat="43.60656" lon="0.51691">
        <ele>241</ele>
        <time>2020-01-12T10:16:23.000Z</time>
      </trkpt>
      <trkpt lat="43.60657" lon="0.51688">
        <ele>241</ele>
        <time>2020-01-12T10:16:25.000Z</time>
      </trkpt>
      <trkpt lat="43.60657" lon="0.51684">
        <ele>241</ele>
        <time>2020-01-12T10:16:27.000Z</time>
      </trkpt>
      <trkpt lat="43.60658" lon="0.51681">
        <ele>241</ele>
        <time>2020-01-12T10:16:29.000Z</time>
      </trkpt>
      <trkpt lat="43.60658" lon="0.51677">
        <ele>241</ele>
        <time>2020-01-12T10:16:31.000Z</time>
      </trkpt>
      <trkpt lat="43.60658" lon="0.51675">
        <ele>241</ele>
        <time>2020-01-12T10:16:33.000Z</time>
      </trkpt>
      <trkpt lat="43.60657" lon="0.51673">
        <ele>241</ele>
        <time>2020-01-12T10:16:35.000Z</time>
      </trkpt>
      <trkpt lat="43.60657" lon="0.51673">
        <ele>241</ele>
        <time>2020-01-12T10:16:37.000Z</time>
      </trkpt>
      <trkpt lat="43.60656" lon="0.51671">
        <ele>241</ele>
        <time>2020-01-12T10:16:39.000Z</time>
      </trkpt>
      <trkpt lat="43.60655" lon="0.51669">
        <ele>241</ele>
        <time>2020-01-12T10:16:41.000Z</time>
      </trkpt>
      <trkpt lat="43.60654" lon="0.51666">
        <ele>241</ele>
        <time>2020-01-12T10:16:43.000Z</time>
      </trkpt>
      <trkpt lat="43.60654" lon="0.51663">
        <ele>241</ele>
        <time>2020-01-12T10:16:45.000Z</time>
      </trkpt>
      <trkpt lat="43.60653" lon="0.5166">
        <ele>241</ele>
        <time>2020-01-12T10:16:47.000Z</time>
      </trkpt>
      <trkpt lat="43.60652" lon="0.51658">
        <ele>241</ele>
        <time>2020-01-12T10:16:49.000Z</time>
      </trkpt>
      <trkpt lat="43.60651" lon="0.51655">
        <ele>241</ele>
        <time>2020-01-12T10:16:51.000Z</time>
      </trkpt>
      <trkpt lat="43.60649" lon="0.51653">
        <ele>241</ele>
        <time>2020-01-12T10:16:53.000Z</time>
      </trkpt>
      <trkpt lat="43.60648" lon="0.51651">
        <ele>241</ele>
        <time>2020-01-12T10:16:55.000Z</time>
      </trkpt>
      <trkpt lat="43.60647" lon="0.51648">
        <ele>241</ele>
        <time>2020-01-12T10:16:57.000Z</time>
      </trkpt>
      <trkpt lat="43.60645" lon="0.51646">
        <ele>240</ele>
        <time>2020-01-12T10:16:59.000Z</time>
      </trkpt>
      <trkpt lat="43.60644" lon="0.51643">
        <ele>240</ele>
        <time>2020-01-12T10:17:01.000Z</time>
      </trkpt>
      <trkpt lat="43.60643" lon="0.5164">
        <ele>240</ele>
        <time>2020-01-12T10:17:03.000Z</time>
      </trkpt>
      <trkpt lat="43.60641" lon="0.51638">
        <ele>240</ele>
        <time>2020-01-12T10:17:05.000Z</time>
      </trkpt>
      <trkpt lat="43.6064" lon="0.51635">
        <ele>240</ele>
        <time>2020-01-12T10:17:07.000Z</time>
      </trkpt>
      <trkpt lat="43.60639" lon="0.51633">
        <ele>240</ele>
        <time>2020-01-12T10:17:09.000Z</time>
      </trkpt>
      <trkpt lat="43.60638" lon="0.5163">
        <ele>240</ele>
        <time>2020-01-12T10:17:11.000Z</time>
      </trkpt>
      <trkpt lat="43.60637" lon="0.51628">
        <ele>240</ele>
        <time>2020-01-12T10:17:13.000Z</time>
      </trkpt>
      <trkpt lat="43.60636" lon="0.51625">
        <ele>240</ele>
        <time>2020-01-12T10:17:15.000Z</time>
      </trkpt>
      <trkpt lat="43.60635" lon="0.51621">
        <ele>240</ele>
        <time>2020-01-12T10:17:17.000Z</time>
      </trkpt>
      <trkpt lat="43.60634" lon="0.51619">
        <ele>240</ele>
        <time>2020-01-12T10:17:19.000Z</time>
      </trkpt>
      <trkpt lat="43.60633" lon="0.51615">
        <ele>241</ele>
        <time>2020-01-12T10:17:21.000Z</time>
      </trkpt>
      <trkpt lat="43.60632" lon="0.51612">
        <ele>241</ele>
        <time>2020-01-12T10:17:23.000Z</time>
      </trkpt>
      <trkpt lat="43.60631" lon="0.51609">
        <ele>241</ele>
        <time>2020-01-12T10:17:25.000Z</time>
      </trkpt>
      <trkpt lat="43.6063" lon="0.51606">
        <ele>241</ele>
        <time>2020-01-12T10:17:27.000Z</time>
      </trkpt>
      <trkpt lat="43.6063" lon="0.51603">
        <ele>241</ele>
        <time>2020-01-12T10:17:29.000Z</time>
      </trkpt>
      <trkpt lat="43.60629" lon="0.51599">
        <ele>241</ele>
        <time>2020-01-12T10:17:31.000Z</time>
      </trkpt>
      <trkpt lat="43.60628" lon="0.51596">
        <ele>241</ele>
        <time>2020-01-12T10:17:33.000Z</time>
      </trkpt>
      <trkpt lat="43.60627" lon="0.51593">
        <ele>241</ele>
        <time>2020-01-12T10:17:35.000Z</time>
      </trkpt>
      <trkpt lat="43.60627" lon="0.5159">
        <ele>241</ele>
        <time>2020-01-12T10:17:37.000Z</time>
      </trkpt>
      <trkpt lat="43.60626" lon="0.51587">
        <ele>241</ele>
        <time>2020-01-12T10:17:39.000Z</time>
      </trkpt>
      <trkpt lat="43.60625" lon="0.51584">
        <ele>241</ele>
        <time>2020-01-12T10:17:41.000Z</time>
      </trkpt>
      <trkpt lat="43.60624" lon="0.51581">
        <ele>241</ele>
        <time>2020-01-12T10:17:43.000Z</time>
      </trkpt>
      <trkpt lat="43.60623" lon="0.51578">
        <ele>241</ele>
        <time>2020-01-12T10:17:45.000Z</time>
      </trkpt>
      <trkpt lat="43.60622" lon="0.51575">
        <ele>241</ele>
        <time>2020-01-12T10:17:47.000Z</time>
      </trkpt>
      <trkpt lat="43.6062" lon="0.51573">
        <ele>241</ele>
        <time>2020-01-12T10:17:49.000Z</time>
      </trkpt>
      <trkpt lat="43.6062" lon="0.5157">
        <ele>241</ele>
        <time>2020-01-12T10:17:51.000Z</time>
      </trkpt>
      <trkpt lat="43.60619" lon="0.51567">
        <ele>241</ele>
        <time>2020-01-12T10:17:53.000Z</time>
      </trkpt>
      <trkpt lat="43.60618" lon="0.51564">
        <ele>241</ele>
        <time>2020-01-12T10:17:55.000Z</time>
      </trkpt>
      <trkpt lat="43.60617" lon="0.51561">
        <ele>241</ele>
        <time>2020-01-12T10:17:57.000Z</time>
      </trkpt>
      <trkpt lat="43.60616" lon="0.51558">
        <ele>241</ele>
        <time>2020-01-12T10:17:59.000Z</time>
      </trkpt>
      <trkpt lat="43.60615" lon="0.51555">
        <ele>241</ele>
        <time>2020-01-12T10:18:01.000Z</time>
      </trkpt>
      <trkpt lat="43.60614" lon="0.51552">
        <ele>241</ele>
        <time>2020-01-12T10:18:03.000Z</time>
      </trkpt>
      <trkpt lat="43.60613" lon="0.51549">
        <ele>241</ele>
        <time>2020-01-12T10:18:05.000Z</time>
      </trkpt>
      <trkpt lat="43.60612" lon="0.51546">
        <ele>241</ele>
        <time>2020-01-12T10:18:07.000Z</time>
      </trkpt>
      <trkpt lat="43.60611" lon="0.51543">
        <ele>241</ele>
        <time>2020-01-12T10:18:09.000Z</time>
      </trkpt>
      <trkpt lat="43.6061" lon="0.51541">
        <ele>242</ele>
        <time>2020-01-12T10:18:11.000Z</time>
      </trkpt>
      <trkpt lat="43.60608" lon="0.51538">
        <ele>242</ele>
        <time>2020-01-12T10:18:13.000Z</time>
      </trkpt>
      <trkpt lat="43.60607" lon="0.51535">
        <ele>242</ele>
        <time>2020-01-12T10:18:15.000Z</time>
      </trkpt>
      <trkpt lat="43.60606" lon="0.51532">
        <ele>242</ele>
        <time>2020-01-12T10:18:17.000Z</time>
      </trkpt>
      <trkpt lat="43.60605" lon="0.51529">
        <ele>242</ele>
        <time>2020-01-12T10:18:19.000Z</time>
      </trkpt>
      <trkpt lat="43.60604" lon="0.51526">
        <ele>242</ele>
        <time>2020-01-12T10:18:21.000Z</time>
      </trkpt>
      <trkpt lat="43.60603" lon="0.51523">
        <ele>242</ele>
        <time>2020-01-12T10:18:23.000Z</time>
      </trkpt>
      <trkpt lat="43.60603" lon="0.5152">
        <ele>242</ele>
        <time>2020-01-12T10:18:25.000Z</time>
      </trkpt>
      <trkpt lat="43.60601" lon="0.51517">
        <ele>242</ele>
        <time>2020-01-12T10:18:27.000Z</time>
      </trkpt>
      <trkpt lat="43.606" lon="0.51514">
        <ele>242</ele>
        <time>2020-01-12T10:18:29.000Z</time>
      </trkpt>
      <trkpt lat="43.606" lon="0.51511">
        <ele>242</ele>
        <time>2020-01-12T10:18:31.000Z</time>
      </trkpt>
      <trkpt lat="43.60599" lon="0.51508">
        <ele>243</ele>
        <time>2020-01-12T10:18:33.000Z</time>
      </trkpt>
      <trkpt lat="43.60598" lon="0.51505">
        <ele>243</ele>
        <time>2020-01-12T10:18:35.000Z</time>
      </trkpt>
      <trkpt lat="43.60596" lon="0.51502">
        <ele>243</ele>
        <time>2020-01-12T10:18:37.000Z</time>
      </trkpt>
      <trkpt lat="43.60595" lon="0.51498">
        <ele>243</ele>
        <time>2020-01-12T10:18:39.000Z</time>
      </trkpt>
      <trkpt lat="43.60594" lon="0.51495">
        <ele>243</ele>
        <time>2020-01-12T10:18:41.000Z</time>
      </trkpt>
      <trkpt lat="43.60593" lon="0.51492">
        <ele>243</ele>
        <time>2020-01-12T10:18:43.000Z</time>
      </trkpt>
      <trkpt lat="43.60591" lon="0.5149">
        <ele>243</ele>
        <time>2020-01-12T10:18:45.000Z</time>
      </trkpt>
      <trkpt lat="43.6059" lon="0.51487">
        <ele>243</ele>
        <time>2020-01-12T10:18:47.000Z</time>
      </trkpt>
      <trkpt lat="43.60589" lon="0.51485">
        <ele>243</ele>
        <time>2020-01-12T10:18:49.000Z</time>
      </trkpt>
      <trkpt lat="43.60588" lon="0.51482">
        <ele>243</ele>
        <time>2020-01-12T10:18:51.000Z</time>
      </trkpt>
      <trkpt lat="43.60587" lon="0.51479">
        <ele>244</ele>
        <time>2020-01-12T10:18:53.000Z</time>
      </trkpt>
      <trkpt lat="43.60586" lon="0.51476">
        <ele>244</ele>
        <time>2020-01-12T10:18:55.000Z</time>
      </trkpt>
      <trkpt lat="43.60585" lon="0.51474">
        <ele>244</ele>
        <time>2020-01-12T10:18:57.000Z</time>
      </trkpt>
      <trkpt lat="43.60584" lon="0.51471">
        <ele>244</ele>
        <time>2020-01-12T10:18:59.000Z</time>
      </trkpt>
      <trkpt lat="43.60582" lon="0.51468">
        <ele>244</ele>
        <time>2020-01-12T10:19:01.000Z</time>
      </trkpt>
      <trkpt lat="43.60581" lon="0.51466">
        <ele>244</ele>
        <time>2020-01-12T10:19:03.000Z</time>
      </trkpt>
      <trkpt lat="43.6058" lon="0.51463">
        <ele>244</ele>
        <time>2020-01-12T10:19:05.000Z</time>
      </trkpt>
      <trkpt lat="43.60579" lon="0.51461">
        <ele>244</ele>
        <time>2020-01-12T10:19:07.000Z</time>
      </trkpt>
      <trkpt lat="43.60577" lon="0.51459">
        <ele>244</ele>
        <time>2020-01-12T10:19:09.000Z</time>
      </trkpt>
      <trkpt lat="43.60576" lon="0.51457">
        <ele>244</ele>
        <time>2020-01-12T10:19:11.000Z</time>
      </trkpt>
      <trkpt lat="43.60576" lon="0.51454">
        <ele>245</ele>
        <time>2020-01-12T10:19:13.000Z</time>
      </trkpt>
      <trkpt lat="43.60575" lon="0.51451">
        <ele>245</ele>
        <time>2020-01-12T10:19:15.000Z</time>
      </trkpt>
      <trkpt lat="43.60574" lon="0.51448">
        <ele>245</ele>
        <time>2020-01-12T10:19:17.000Z</time>
      </trkpt>
      <trkpt lat="43.60573" lon="0.51446">
        <ele>245</ele>
        <time>2020-01-12T10:19:19.000Z</time>
      </trkpt>
      <trkpt lat="43.60572" lon="0.51444">
        <ele>245</ele>
        <time>2020-01-12T10:19:21.000Z</time>
      </trkpt>
      <trkpt lat="43.60571" lon="0.51442">
        <ele>245</ele>
        <time>2020-01-12T10:19:23.000Z</time>
      </trkpt>
      <trkpt lat="43.6057" lon="0.5144">
        <ele>245</ele>
        <time>2020-01-12T10:19:25.000Z</time>
      </trkpt>
      <trkpt lat="43.60569" lon="0.51438">
        <ele>245</ele>
        <time>2020-01-12T10:19:27.000Z</time>
      </trkpt>
      <trkpt lat="43.60568" lon="0.51435">
        <ele>246</ele>
        <time>2020-01-12T10:19:29.000Z</time>
      </trkpt>
      <trkpt lat="43.60567" lon="0.51433">
        <ele>246</ele>
        <time>2020-01-12T10:19:31.000Z</time>
      </trkpt>
      <trkpt lat="43.60566" lon="0.51431">
        <ele>246</ele>
        <time>2020-01-12T10:19:33.000Z</time>
      </trkpt>
      <trkpt lat="43.60564" lon="0.51429">
        <ele>246</ele>
        <time>2020-01-12T10:19:35.000Z</time>
      </trkpt>
      <trkpt lat="43.60563" lon="0.51426">
        <ele>246</ele>
        <time>2020-01-12T10:19:37.000Z</time>
      </trkpt>
      <trkpt lat="43.60562" lon="0.51424">
        <ele>246</ele>
        <time>2020-01-12T10:19:39.000Z</time>
      </trkpt>
      <trkpt lat="43.60561" lon="0.51419">
        <ele>246</ele>
        <time>2020-01-12T10:19:42.000Z</time>
      </trkpt>
      <trkpt lat="43.6056" lon="0.51417">
        <ele>246</ele>
        <time>2020-01-12T10:19:44.000Z</time>
      </trkpt>
      <trkpt lat="43.60559" lon="0.51415">
        <ele>246</ele>
        <time>2020-01-12T10:19:46.000Z</time>
      </trkpt>
      <trkpt lat="43.60557" lon="0.51412">
        <ele>246</ele>
        <time>2020-01-12T10:19:48.000Z</time>
      </trkpt>
      <trkpt lat="43.60557" lon="0.5141">
        <ele>246</ele>
        <time>2020-01-12T10:19:50.000Z</time>
      </trkpt>
      <trkpt lat="43.60555" lon="0.51408">
        <ele>246</ele>
        <time>2020-01-12T10:19:52.000Z</time>
      </trkpt>
      <trkpt lat="43.60555" lon="0.51405">
        <ele>246</ele>
        <time>2020-01-12T10:19:54.000Z</time>
      </trkpt>
      <trkpt lat="43.60554" lon="0.51403">
        <ele>246</ele>
        <time>2020-01-12T10:19:56.000Z</time>
      </trkpt>
      <trkpt lat="43.60554" lon="0.514">
        <ele>246</ele>
        <time>2020-01-12T10:19:58.000Z</time>
      </trkpt>
      <trkpt lat="43.60553" lon="0.51398">
        <ele>246</ele>
        <time>2020-01-12T10:20:00.000Z</time>
      </trkpt>
      <trkpt lat="43.60552" lon="0.51396">
        <ele>246</ele>
        <time>2020-01-12T10:20:02.000Z</time>
      </trkpt>
      <trkpt lat="43.60551" lon="0.51393">
        <ele>246</ele>
        <time>2020-01-12T10:20:04.000Z</time>
      </trkpt>
      <trkpt lat="43.6055" lon="0.51391">
        <ele>246</ele>
        <time>2020-01-12T10:20:06.000Z</time>
      </trkpt>
      <trkpt lat="43.60549" lon="0.51388">
        <ele>247</ele>
        <time>2020-01-12T10:20:08.000Z</time>
      </trkpt>
      <trkpt lat="43.60548" lon="0.51386">
        <ele>247</ele>
        <time>2020-01-12T10:20:10.000Z</time>
      </trkpt>
      <trkpt lat="43.60547" lon="0.51383">
        <ele>247</ele>
        <time>2020-01-12T10:20:12.000Z</time>
      </trkpt>
      <trkpt lat="43.60546" lon="0.51382">
        <ele>247</ele>
        <time>2020-01-12T10:20:14.000Z</time>
      </trkpt>
      <trkpt lat="43.60545" lon="0.5138">
        <ele>247</ele>
        <time>2020-01-12T10:20:16.000Z</time>
      </trkpt>
      <trkpt lat="43.60544" lon="0.51377">
        <ele>247</ele>
        <time>2020-01-12T10:20:18.000Z</time>
      </trkpt>
      <trkpt lat="43.60543" lon="0.51374">
        <ele>247</ele>
        <time>2020-01-12T10:20:20.000Z</time>
      </trkpt>
      <trkpt lat="43.60542" lon="0.51373">
        <ele>247</ele>
        <time>2020-01-12T10:20:22.000Z</time>
      </trkpt>
      <trkpt lat="43.60541" lon="0.51371">
        <ele>247</ele>
        <time>2020-01-12T10:20:24.000Z</time>
      </trkpt>
      <trkpt lat="43.6054" lon="0.5137">
        <ele>247</ele>
        <time>2020-01-12T10:20:26.000Z</time>
      </trkpt>
      <trkpt lat="43.60539" lon="0.51367">
        <ele>247</ele>
        <time>2020-01-12T10:20:28.000Z</time>
      </trkpt>
      <trkpt lat="43.60538" lon="0.51365">
        <ele>247</ele>
        <time>2020-01-12T10:20:30.000Z</time>
      </trkpt>
      <trkpt lat="43.60536" lon="0.51363">
        <ele>247</ele>
        <time>2020-01-12T10:20:32.000Z</time>
      </trkpt>
      <trkpt lat="43.60535" lon="0.51361">
        <ele>247</ele>
        <time>2020-01-12T10:20:34.000Z</time>
      </trkpt>
      <trkpt lat="43.60534" lon="0.51358">
        <ele>247</ele>
        <time>2020-01-12T10:20:36.000Z</time>
      </trkpt>
      <trkpt lat="43.60533" lon="0.51355">
        <ele>247</ele>
        <time>2020-01-12T10:20:38.000Z</time>
      </trkpt>
      <trkpt lat="43.60532" lon="0.51353">
        <ele>247</ele>
        <time>2020-01-12T10:20:40.000Z</time>
      </trkpt>
      <trkpt lat="43.60532" lon="0.5135">
        <ele>247</ele>
        <time>2020-01-12T10:20:42.000Z</time>
      </trkpt>
      <trkpt lat="43.6053" lon="0.51347">
        <ele>247</ele>
        <time>2020-01-12T10:20:44.000Z</time>
      </trkpt>
      <trkpt lat="43.60529" lon="0.51345">
        <ele>248</ele>
        <time>2020-01-12T10:20:46.000Z</time>
      </trkpt>
      <trkpt lat="43.60527" lon="0.51343">
        <ele>248</ele>
        <time>2020-01-12T10:20:48.000Z</time>
      </trkpt>
      <trkpt lat="43.60526" lon="0.5134">
        <ele>248</ele>
        <time>2020-01-12T10:20:50.000Z</time>
      </trkpt>
      <trkpt lat="43.60525" lon="0.51338">
        <ele>248</ele>
        <time>2020-01-12T10:20:52.000Z</time>
      </trkpt>
      <trkpt lat="43.60524" lon="0.51335">
        <ele>248</ele>
        <time>2020-01-12T10:20:54.000Z</time>
      </trkpt>
      <trkpt lat="43.60522" lon="0.51332">
        <ele>248</ele>
        <time>2020-01-12T10:20:56.000Z</time>
      </trkpt>
      <trkpt lat="43.60521" lon="0.5133">
        <ele>248</ele>
        <time>2020-01-12T10:20:58.000Z</time>
      </trkpt>
      <trkpt lat="43.6052" lon="0.51328">
        <ele>248</ele>
        <time>2020-01-12T10:21:00.000Z</time>
      </trkpt>
      <trkpt lat="43.60519" lon="0.51325">
        <ele>248</ele>
        <time>2020-01-12T10:21:02.000Z</time>
      </trkpt>
      <trkpt lat="43.60518" lon="0.51324">
        <ele>248</ele>
        <time>2020-01-12T10:21:04.000Z</time>
      </trkpt>
      <trkpt lat="43.60518" lon="0.51322">
        <ele>248</ele>
        <time>2020-01-12T10:21:06.000Z</time>
      </trkpt>
      <trkpt lat="43.60517" lon="0.5132">
        <ele>248</ele>
        <time>2020-01-12T10:21:08.000Z</time>
      </trkpt>
      <trkpt lat="43.60516" lon="0.51318">
        <ele>248</ele>
        <time>2020-01-12T10:21:10.000Z</time>
      </trkpt>
      <trkpt lat="43.60516" lon="0.51315">
        <ele>248</ele>
        <time>2020-01-12T10:21:12.000Z</time>
      </trkpt>
      <trkpt lat="43.60514" lon="0.51312">
        <ele>248</ele>
        <time>2020-01-12T10:21:14.000Z</time>
      </trkpt>
      <trkpt lat="43.60514" lon="0.51309">
        <ele>247</ele>
        <time>2020-01-12T10:21:16.000Z</time>
      </trkpt>
      <trkpt lat="43.60513" lon="0.51306">
        <ele>247</ele>
        <time>2020-01-12T10:21:18.000Z</time>
      </trkpt>
      <trkpt lat="43.60512" lon="0.51304">
        <ele>247</ele>
        <time>2020-01-12T10:21:20.000Z</time>
      </trkpt>
      <trkpt lat="43.60511" lon="0.51301">
        <ele>247</ele>
        <time>2020-01-12T10:21:22.000Z</time>
      </trkpt>
      <trkpt lat="43.6051" lon="0.51298">
        <ele>247</ele>
        <time>2020-01-12T10:21:24.000Z</time>
      </trkpt>
      <trkpt lat="43.60509" lon="0.51296">
        <ele>247</ele>
        <time>2020-01-12T10:21:26.000Z</time>
      </trkpt>
      <trkpt lat="43.60508" lon="0.51293">
        <ele>247</ele>
        <time>2020-01-12T10:21:28.000Z</time>
      </trkpt>
      <trkpt lat="43.60508" lon="0.5129">
        <ele>247</ele>
        <time>2020-01-12T10:21:30.000Z</time>
      </trkpt>
      <trkpt lat="43.60507" lon="0.51287">
        <ele>247</ele>
        <time>2020-01-12T10:21:32.000Z</time>
      </trkpt>
      <trkpt lat="43.60506" lon="0.51285">
        <ele>247</ele>
        <time>2020-01-12T10:21:34.000Z</time>
      </trkpt>
      <trkpt lat="43.60505" lon="0.51283">
        <ele>247</ele>
        <time>2020-01-12T10:21:36.000Z</time>
      </trkpt>
      <trkpt lat="43.60504" lon="0.5128">
        <ele>247</ele>
        <time>2020-01-12T10:21:38.000Z</time>
      </trkpt>
      <trkpt lat="43.60502" lon="0.51278">
        <ele>246</ele>
        <time>2020-01-12T10:21:40.000Z</time>
      </trkpt>
      <trkpt lat="43.60501" lon="0.51276">
        <ele>246</ele>
        <time>2020-01-12T10:21:42.000Z</time>
      </trkpt>
      <trkpt lat="43.605" lon="0.51273">
        <ele>246</ele>
        <time>2020-01-12T10:21:44.000Z</time>
      </trkpt>
      <trkpt lat="43.605" lon="0.5127">
        <ele>246</ele>
        <time>2020-01-12T10:21:46.000Z</time>
      </trkpt>
      <trkpt lat="43.60499" lon="0.51267">
        <ele>246</ele>
        <time>2020-01-12T10:21:48.000Z</time>
      </trkpt>
      <trkpt lat="43.60498" lon="0.51264">
        <ele>246</ele>
        <time>2020-01-12T10:21:50.000Z</time>
      </trkpt>
      <trkpt lat="43.60498" lon="0.51261">
        <ele>246</ele>
        <time>2020-01-12T10:21:52.000Z</time>
      </trkpt>
      <trkpt lat="43.60498" lon="0.51258">
        <ele>246</ele>
        <time>2020-01-12T10:21:54.000Z</time>
      </trkpt>
      <trkpt lat="43.60498" lon="0.51255">
        <ele>246</ele>
        <time>2020-01-12T10:21:56.000Z</time>
      </trkpt>
      <trkpt lat="43.60498" lon="0.51252">
        <ele>246</ele>
        <time>2020-01-12T10:21:58.000Z</time>
      </trkpt>
      <trkpt lat="43.60498" lon="0.51249">
        <ele>246</ele>
        <time>2020-01-12T10:22:00.000Z</time>
      </trkpt>
      <trkpt lat="43.60498" lon="0.51247">
        <ele>246</ele>
        <time>2020-01-12T10:22:02.000Z</time>
      </trkpt>
      <trkpt lat="43.60498" lon="0.51245">
        <ele>246</ele>
        <time>2020-01-12T10:22:04.000Z</time>
      </trkpt>
      <trkpt lat="43.60497" lon="0.51244">
        <ele>246</ele>
        <time>2020-01-12T10:22:06.000Z</time>
      </trkpt>
      <trkpt lat="43.60496" lon="0.51242">
        <ele>246</ele>
        <time>2020-01-12T10:22:08.000Z</time>
      </trkpt>
      <trkpt lat="43.60496" lon="0.51241">
        <ele>246</ele>
        <time>2020-01-12T10:22:10.000Z</time>
      </trkpt>
      <trkpt lat="43.60496" lon="0.51241">
        <ele>246</ele>
        <time>2020-01-12T10:22:12.000Z</time>
      </trkpt>
      <trkpt lat="43.60496" lon="0.51241">
        <ele>246</ele>
        <time>2020-01-12T10:22:14.000Z</time>
      </trkpt>
      <trkpt lat="43.60496" lon="0.51241">
        <ele>246</ele>
        <time>2020-01-12T10:22:16.000Z</time>
      </trkpt>
      <trkpt lat="43.60496" lon="0.5124">
        <ele>246</ele>
        <time>2020-01-12T10:22:18.000Z</time>
      </trkpt>
      <trkpt lat="43.60497" lon="0.5124">
        <ele>246</ele>
        <time>2020-01-12T10:22:20.000Z</time>
      </trkpt>
      <trkpt lat="43.60497" lon="0.5124">
        <ele>246</ele>
        <time>2020-01-12T10:22:22.000Z</time>
      </trkpt>
      <trkpt lat="43.60498" lon="0.5124">
        <ele>246</ele>
        <time>2020-01-12T10:22:24.000Z</time>
      </trkpt>
      <trkpt lat="43.60498" lon="0.5124">
        <ele>247</ele>
        <time>2020-01-12T10:22:26.000Z</time>
      </trkpt>
      <trkpt lat="43.60499" lon="0.5124">
        <ele>247</ele>
        <time>2020-01-12T10:22:28.000Z</time>
      </trkpt>
      <trkpt lat="43.60499" lon="0.5124">
        <ele>247</ele>
        <time>2020-01-12T10:22:30.000Z</time>
      </trkpt>
      <trkpt lat="43.60499" lon="0.5124">
        <ele>247</ele>
        <time>2020-01-12T10:22:32.000Z</time>
      </trkpt>
      <trkpt lat="43.60499" lon="0.51239">
        <ele>247</ele>
        <time>2020-01-12T10:22:34.000Z</time>
      </trkpt>
      <trkpt lat="43.60499" lon="0.51239">
        <ele>247</ele>
        <time>2020-01-12T10:22:36.000Z</time>
      </trkpt>
      <trkpt lat="43.60499" lon="0.51239">
        <ele>247</ele>
        <time>2020-01-12T10:22:38.000Z</time>
      </trkpt>
      <trkpt lat="43.60499" lon="0.51239">
        <ele>247</ele>
        <time>2020-01-12T10:22:40.000Z</time>
      </trkpt>
      <trkpt lat="43.60499" lon="0.51239">
        <ele>247</ele>
        <time>2020-01-12T10:22:42.000Z</time>
      </trkpt>
      <trkpt lat="43.60499" lon="0.51238">
        <ele>247</ele>
        <time>2020-01-12T10:22:44.000Z</time>
      </trkpt>
      <trkpt lat="43.605" lon="0.51238">
        <ele>247</ele>
        <time>2020-01-12T10:22:46.000Z</time>
      </trkpt>
      <trkpt lat="43.605" lon="0.51238">
        <ele>247</ele>
        <time>2020-01-12T10:22:48.000Z</time>
      </trkpt>
      <trkpt lat="43.605" lon="0.51237">
        <ele>247</ele>
        <time>2020-01-12T10:22:50.000Z</time>
      </trkpt>
      <trkpt lat="43.605" lon="0.51237">
        <ele>247</ele>
        <time>2020-01-12T10:22:52.000Z</time>
      </trkpt>
      <trkpt lat="43.60501" lon="0.51235">
        <ele>247</ele>
        <time>2020-01-12T10:22:54.000Z</time>
      </trkpt>
      <trkpt lat="43.60502" lon="0.51233">
        <ele>247</ele>
        <time>2020-01-12T10:22:56.000Z</time>
      </trkpt>
      <trkpt lat="43.60503" lon="0.51231">
        <ele>247</ele>
        <time>2020-01-12T10:22:58.000Z</time>
      </trkpt>
      <trkpt lat="43.60503" lon="0.51229">
        <ele>247</ele>
        <time>2020-01-12T10:23:00.000Z</time>
      </trkpt>
      <trkpt lat="43.60505" lon="0.51226">
        <ele>247</ele>
        <time>2020-01-12T10:23:03.000Z</time>
      </trkpt>
      <trkpt lat="43.60505" lon="0.51223">
        <ele>247</ele>
        <time>2020-01-12T10:23:05.000Z</time>
      </trkpt>
      <trkpt lat="43.60506" lon="0.5122">
        <ele>248</ele>
        <time>2020-01-12T10:23:07.000Z</time>
      </trkpt>
      <trkpt lat="43.60506" lon="0.51218">
        <ele>248</ele>
        <time>2020-01-12T10:23:09.000Z</time>
      </trkpt>
      <trkpt lat="43.60507" lon="0.51216">
        <ele>248</ele>
        <time>2020-01-12T10:23:11.000Z</time>
      </trkpt>
      <trkpt lat="43.60508" lon="0.51214">
        <ele>248</ele>
        <time>2020-01-12T10:23:13.000Z</time>
      </trkpt>
      <trkpt lat="43.60509" lon="0.51212">
        <ele>249</ele>
        <time>2020-01-12T10:23:15.000Z</time>
      </trkpt>
      <trkpt lat="43.6051" lon="0.5121">
        <ele>249</ele>
        <time>2020-01-12T10:23:17.000Z</time>
      </trkpt>
      <trkpt lat="43.60512" lon="0.51207">
        <ele>249</ele>
        <time>2020-01-12T10:23:19.000Z</time>
      </trkpt>
      <trkpt lat="43.60513" lon="0.51205">
        <ele>249</ele>
        <time>2020-01-12T10:23:21.000Z</time>
      </trkpt>
      <trkpt lat="43.60514" lon="0.51203">
        <ele>249</ele>
        <time>2020-01-12T10:23:23.000Z</time>
      </trkpt>
      <trkpt lat="43.60515" lon="0.51201">
        <ele>249</ele>
        <time>2020-01-12T10:23:25.000Z</time>
      </trkpt>
      <trkpt lat="43.60516" lon="0.51199">
        <ele>249</ele>
        <time>2020-01-12T10:23:27.000Z</time>
      </trkpt>
      <trkpt lat="43.60517" lon="0.51197">
        <ele>249</ele>
        <time>2020-01-12T10:23:29.000Z</time>
      </trkpt>
      <trkpt lat="43.60518" lon="0.51195">
        <ele>249</ele>
        <time>2020-01-12T10:23:31.000Z</time>
      </trkpt>
      <trkpt lat="43.6052" lon="0.51192">
        <ele>249</ele>
        <time>2020-01-12T10:23:33.000Z</time>
      </trkpt>
      <trkpt lat="43.60522" lon="0.51189">
        <ele>249</ele>
        <time>2020-01-12T10:23:35.000Z</time>
      </trkpt>
      <trkpt lat="43.60522" lon="0.51187">
        <ele>249</ele>
        <time>2020-01-12T10:23:37.000Z</time>
      </trkpt>
      <trkpt lat="43.60523" lon="0.51185">
        <ele>249</ele>
        <time>2020-01-12T10:23:39.000Z</time>
      </trkpt>
      <trkpt lat="43.60524" lon="0.51183">
        <ele>249</ele>
        <time>2020-01-12T10:23:41.000Z</time>
      </trkpt>
      <trkpt lat="43.60525" lon="0.51181">
        <ele>249</ele>
        <time>2020-01-12T10:23:43.000Z</time>
      </trkpt>
      <trkpt lat="43.60526" lon="0.51179">
        <ele>249</ele>
        <time>2020-01-12T10:23:45.000Z</time>
      </trkpt>
      <trkpt lat="43.60527" lon="0.51177">
        <ele>249</ele>
        <time>2020-01-12T10:23:47.000Z</time>
      </trkpt>
      <trkpt lat="43.60529" lon="0.51176">
        <ele>249</ele>
        <time>2020-01-12T10:23:49.000Z</time>
      </trkpt>
      <trkpt lat="43.6053" lon="0.51173">
        <ele>249</ele>
        <time>2020-01-12T10:23:51.000Z</time>
      </trkpt>
      <trkpt lat="43.60531" lon="0.51172">
        <ele>249</ele>
        <time>2020-01-12T10:23:53.000Z</time>
      </trkpt>
      <trkpt lat="43.60532" lon="0.51169">
        <ele>249</ele>
        <time>2020-01-12T10:23:55.000Z</time>
      </trkpt>
      <trkpt lat="43.60534" lon="0.51168">
        <ele>249</ele>
        <time>2020-01-12T10:23:57.000Z</time>
      </trkpt>
      <trkpt lat="43.60535" lon="0.51165">
        <ele>249</ele>
        <time>2020-01-12T10:23:59.000Z</time>
      </trkpt>
      <trkpt lat="43.60536" lon="0.51163">
        <ele>249</ele>
        <time>2020-01-12T10:24:01.000Z</time>
      </trkpt>
      <trkpt lat="43.60538" lon="0.5116">
        <ele>249</ele>
        <time>2020-01-12T10:24:03.000Z</time>
      </trkpt>
      <trkpt lat="43.60539" lon="0.51159">
        <ele>248</ele>
        <time>2020-01-12T10:24:05.000Z</time>
      </trkpt>
      <trkpt lat="43.60541" lon="0.51156">
        <ele>248</ele>
        <time>2020-01-12T10:24:07.000Z</time>
      </trkpt>
      <trkpt lat="43.60541" lon="0.51154">
        <ele>248</ele>
        <time>2020-01-12T10:24:09.000Z</time>
      </trkpt>
      <trkpt lat="43.60542" lon="0.51152">
        <ele>248</ele>
        <time>2020-01-12T10:24:11.000Z</time>
      </trkpt>
      <trkpt lat="43.60543" lon="0.5115">
        <ele>248</ele>
        <time>2020-01-12T10:24:13.000Z</time>
      </trkpt>
      <trkpt lat="43.60545" lon="0.51147">
        <ele>248</ele>
        <time>2020-01-12T10:24:15.000Z</time>
      </trkpt>
      <trkpt lat="43.60546" lon="0.51145">
        <ele>248</ele>
        <time>2020-01-12T10:24:17.000Z</time>
      </trkpt>
      <trkpt lat="43.60547" lon="0.51142">
        <ele>248</ele>
        <time>2020-01-12T10:24:19.000Z</time>
      </trkpt>
      <trkpt lat="43.60548" lon="0.5114">
        <ele>248</ele>
        <time>2020-01-12T10:24:21.000Z</time>
      </trkpt>
      <trkpt lat="43.60549" lon="0.51138">
        <ele>247</ele>
        <time>2020-01-12T10:24:23.000Z</time>
      </trkpt>
      <trkpt lat="43.60551" lon="0.51135">
        <ele>247</ele>
        <time>2020-01-12T10:24:25.000Z</time>
      </trkpt>
      <trkpt lat="43.60552" lon="0.51133">
        <ele>247</ele>
        <time>2020-01-12T10:24:27.000Z</time>
      </trkpt>
      <trkpt lat="43.60554" lon="0.5113">
        <ele>247</ele>
        <time>2020-01-12T10:24:29.000Z</time>
      </trkpt>
      <trkpt lat="43.60555" lon="0.51127">
        <ele>247</ele>
        <time>2020-01-12T10:24:31.000Z</time>
      </trkpt>
      <trkpt lat="43.60557" lon="0.51125">
        <ele>247</ele>
        <time>2020-01-12T10:24:33.000Z</time>
      </trkpt>
      <trkpt lat="43.60558" lon="0.51122">
        <ele>247</ele>
        <time>2020-01-12T10:24:35.000Z</time>
      </trkpt>
      <trkpt lat="43.6056" lon="0.5112">
        <ele>247</ele>
        <time>2020-01-12T10:24:37.000Z</time>
      </trkpt>
      <trkpt lat="43.60561" lon="0.51117">
        <ele>247</ele>
        <time>2020-01-12T10:24:39.000Z</time>
      </trkpt>
      <trkpt lat="43.60563" lon="0.51115">
        <ele>247</ele>
        <time>2020-01-12T10:24:41.000Z</time>
      </trkpt>
      <trkpt lat="43.60564" lon="0.51113">
        <ele>247</ele>
        <time>2020-01-12T10:24:43.000Z</time>
      </trkpt>
      <trkpt lat="43.60565" lon="0.51109">
        <ele>247</ele>
        <time>2020-01-12T10:24:45.000Z</time>
      </trkpt>
      <trkpt lat="43.60566" lon="0.51107">
        <ele>247</ele>
        <time>2020-01-12T10:24:47.000Z</time>
      </trkpt>
      <trkpt lat="43.60568" lon="0.51104">
        <ele>247</ele>
        <time>2020-01-12T10:24:49.000Z</time>
      </trkpt>
      <trkpt lat="43.60569" lon="0.51102">
        <ele>247</ele>
        <time>2020-01-12T10:24:51.000Z</time>
      </trkpt>
      <trkpt lat="43.60571" lon="0.511">
        <ele>247</ele>
        <time>2020-01-12T10:24:53.000Z</time>
      </trkpt>
      <trkpt lat="43.60572" lon="0.51097">
        <ele>247</ele>
        <time>2020-01-12T10:24:55.000Z</time>
      </trkpt>
      <trkpt lat="43.60573" lon="0.51096">
        <ele>247</ele>
        <time>2020-01-12T10:24:57.000Z</time>
      </trkpt>
      <trkpt lat="43.60574" lon="0.51094">
        <ele>247</ele>
        <time>2020-01-12T10:24:59.000Z</time>
      </trkpt>
      <trkpt lat="43.60576" lon="0.51091">
        <ele>247</ele>
        <time>2020-01-12T10:25:01.000Z</time>
      </trkpt>
      <trkpt lat="43.60577" lon="0.51089">
        <ele>247</ele>
        <time>2020-01-12T10:25:03.000Z</time>
      </trkpt>
      <trkpt lat="43.60578" lon="0.51087">
        <ele>247</ele>
        <time>2020-01-12T10:25:05.000Z</time>
      </trkpt>
      <trkpt lat="43.6058" lon="0.51084">
        <ele>247</ele>
        <time>2020-01-12T10:25:07.000Z</time>
      </trkpt>
      <trkpt lat="43.60581" lon="0.51082">
        <ele>246</ele>
        <time>2020-01-12T10:25:09.000Z</time>
      </trkpt>
      <trkpt lat="43.60583" lon="0.51079">
        <ele>246</ele>
        <time>2020-01-12T10:25:11.000Z</time>
      </trkpt>
      <trkpt lat="43.60584" lon="0.51076">
        <ele>246</ele>
        <time>2020-01-12T10:25:13.000Z</time>
      </trkpt>
      <trkpt lat="43.60585" lon="0.51073">
        <ele>246</ele>
        <time>2020-01-12T10:25:15.000Z</time>
      </trkpt>
      <trkpt lat="43.60587" lon="0.5107">
        <ele>246</ele>
        <time>2020-01-12T10:25:17.000Z</time>
      </trkpt>
      <trkpt lat="43.60588" lon="0.51067">
        <ele>246</ele>
        <time>2020-01-12T10:25:19.000Z</time>
      </trkpt>
      <trkpt lat="43.60589" lon="0.51064">
        <ele>246</ele>
        <time>2020-01-12T10:25:21.000Z</time>
      </trkpt>
      <trkpt lat="43.6059" lon="0.51061">
        <ele>246</ele>
        <time>2020-01-12T10:25:23.000Z</time>
      </trkpt>
      <trkpt lat="43.60591" lon="0.51059">
        <ele>246</ele>
        <time>2020-01-12T10:25:25.000Z</time>
      </trkpt>
      <trkpt lat="43.60593" lon="0.51056">
        <ele>246</ele>
        <time>2020-01-12T10:25:27.000Z</time>
      </trkpt>
      <trkpt lat="43.60594" lon="0.51054">
        <ele>246</ele>
        <time>2020-01-12T10:25:29.000Z</time>
      </trkpt>
      <trkpt lat="43.60596" lon="0.51051">
        <ele>246</ele>
        <time>2020-01-12T10:25:31.000Z</time>
      </trkpt>
      <trkpt lat="43.60597" lon="0.51049">
        <ele>246</ele>
        <time>2020-01-12T10:25:33.000Z</time>
      </trkpt>
      <trkpt lat="43.60599" lon="0.51046">
        <ele>245</ele>
        <time>2020-01-12T10:25:35.000Z</time>
      </trkpt>
      <trkpt lat="43.606" lon="0.51043">
        <ele>245</ele>
        <time>2020-01-12T10:25:37.000Z</time>
      </trkpt>
      <trkpt lat="43.60601" lon="0.51042">
        <ele>245</ele>
        <time>2020-01-12T10:25:39.000Z</time>
      </trkpt>
      <trkpt lat="43.60603" lon="0.51039">
        <ele>245</ele>
        <time>2020-01-12T10:25:41.000Z</time>
      </trkpt>
      <trkpt lat="43.60605" lon="0.51036">
        <ele>245</ele>
        <time>2020-01-12T10:25:43.000Z</time>
      </trkpt>
      <trkpt lat="43.60606" lon="0.51035">
        <ele>245</ele>
        <time>2020-01-12T10:25:45.000Z</time>
      </trkpt>
      <trkpt lat="43.60607" lon="0.51032">
        <ele>245</ele>
        <time>2020-01-12T10:25:47.000Z</time>
      </trkpt>
      <trkpt lat="43.60608" lon="0.5103">
        <ele>245</ele>
        <time>2020-01-12T10:25:49.000Z</time>
      </trkpt>
      <trkpt lat="43.60609" lon="0.51028">
        <ele>245</ele>
        <time>2020-01-12T10:25:51.000Z</time>
      </trkpt>
      <trkpt lat="43.60611" lon="0.51025">
        <ele>244</ele>
        <time>2020-01-12T10:25:53.000Z</time>
      </trkpt>
      <trkpt lat="43.60612" lon="0.51022">
        <ele>244</ele>
        <time>2020-01-12T10:25:55.000Z</time>
      </trkpt>
      <trkpt lat="43.60614" lon="0.5102">
        <ele>244</ele>
        <time>2020-01-12T10:25:57.000Z</time>
      </trkpt>
      <trkpt lat="43.60615" lon="0.51018">
        <ele>244</ele>
        <time>2020-01-12T10:25:59.000Z</time>
      </trkpt>
      <trkpt lat="43.60616" lon="0.51015">
        <ele>244</ele>
        <time>2020-01-12T10:26:01.000Z</time>
      </trkpt>
      <trkpt lat="43.60618" lon="0.51013">
        <ele>244</ele>
        <time>2020-01-12T10:26:03.000Z</time>
      </trkpt>
      <trkpt lat="43.6062" lon="0.5101">
        <ele>244</ele>
        <time>2020-01-12T10:26:05.000Z</time>
      </trkpt>
      <trkpt lat="43.60621" lon="0.51008">
        <ele>244</ele>
        <time>2020-01-12T10:26:07.000Z</time>
      </trkpt>
      <trkpt lat="43.60623" lon="0.51006">
        <ele>244</ele>
        <time>2020-01-12T10:26:09.000Z</time>
      </trkpt>
      <trkpt lat="43.60624" lon="0.51003">
        <ele>243</ele>
        <time>2020-01-12T10:26:11.000Z</time>
      </trkpt>
      <trkpt lat="43.60626" lon="0.51001">
        <ele>243</ele>
        <time>2020-01-12T10:26:13.000Z</time>
      </trkpt>
      <trkpt lat="43.60627" lon="0.50999">
        <ele>243</ele>
        <time>2020-01-12T10:26:15.000Z</time>
      </trkpt>
      <trkpt lat="43.60628" lon="0.50996">
        <ele>243</ele>
        <time>2020-01-12T10:26:17.000Z</time>
      </trkpt>
      <trkpt lat="43.6063" lon="0.50994">
        <ele>243</ele>
        <time>2020-01-12T10:26:19.000Z</time>
      </trkpt>
      <trkpt lat="43.60631" lon="0.50991">
        <ele>243</ele>
        <time>2020-01-12T10:26:21.000Z</time>
      </trkpt>
      <trkpt lat="43.60632" lon="0.50989">
        <ele>243</ele>
        <time>2020-01-12T10:26:23.000Z</time>
      </trkpt>
      <trkpt lat="43.60634" lon="0.50987">
        <ele>243</ele>
        <time>2020-01-12T10:26:25.000Z</time>
      </trkpt>
      <trkpt lat="43.60635" lon="0.50984">
        <ele>242</ele>
        <time>2020-01-12T10:26:27.000Z</time>
      </trkpt>
      <trkpt lat="43.60637" lon="0.50982">
        <ele>242</ele>
        <time>2020-01-12T10:26:29.000Z</time>
      </trkpt>
      <trkpt lat="43.60638" lon="0.50979">
        <ele>242</ele>
        <time>2020-01-12T10:26:31.000Z</time>
      </trkpt>
      <trkpt lat="43.60639" lon="0.50977">
        <ele>242</ele>
        <time>2020-01-12T10:26:33.000Z</time>
      </trkpt>
      <trkpt lat="43.60641" lon="0.50975">
        <ele>242</ele>
        <time>2020-01-12T10:26:35.000Z</time>
      </trkpt>
      <trkpt lat="43.60642" lon="0.50972">
        <ele>242</ele>
        <time>2020-01-12T10:26:37.000Z</time>
      </trkpt>
      <trkpt lat="43.60644" lon="0.5097">
        <ele>241</ele>
        <time>2020-01-12T10:26:39.000Z</time>
      </trkpt>
      <trkpt lat="43.60646" lon="0.50967">
        <ele>241</ele>
        <time>2020-01-12T10:26:41.000Z</time>
      </trkpt>
      <trkpt lat="43.60647" lon="0.50964">
        <ele>241</ele>
        <time>2020-01-12T10:26:43.000Z</time>
      </trkpt>
      <trkpt lat="43.60649" lon="0.50962">
        <ele>241</ele>
        <time>2020-01-12T10:26:45.000Z</time>
      </trkpt>
      <trkpt lat="43.60652" lon="0.50959">
        <ele>241</ele>
        <time>2020-01-12T10:26:47.000Z</time>
      </trkpt>
      <trkpt lat="43.60654" lon="0.50957">
        <ele>241</ele>
        <time>2020-01-12T10:26:49.000Z</time>
      </trkpt>
      <trkpt lat="43.60655" lon="0.50954">
        <ele>241</ele>
        <time>2020-01-12T10:26:51.000Z</time>
      </trkpt>
      <trkpt lat="43.60656" lon="0.50951">
        <ele>240</ele>
        <time>2020-01-12T10:26:53.000Z</time>
      </trkpt>
      <trkpt lat="43.60658" lon="0.50948">
        <ele>240</ele>
        <time>2020-01-12T10:26:55.000Z</time>
      </trkpt>
      <trkpt lat="43.60661" lon="0.50945">
        <ele>240</ele>
        <time>2020-01-12T10:26:58.000Z</time>
      </trkpt>
      <trkpt lat="43.60663" lon="0.50942">
        <ele>240</ele>
        <time>2020-01-12T10:27:00.000Z</time>
      </trkpt>
      <trkpt lat="43.60664" lon="0.5094">
        <ele>240</ele>
        <time>2020-01-12T10:27:02.000Z</time>
      </trkpt>
      <trkpt lat="43.60666" lon="0.50937">
        <ele>240</ele>
        <time>2020-01-12T10:27:04.000Z</time>
      </trkpt>
      <trkpt lat="43.60668" lon="0.50935">
        <ele>239</ele>
        <time>2020-01-12T10:27:06.000Z</time>
      </trkpt>
      <trkpt lat="43.6067" lon="0.50933">
        <ele>239</ele>
        <time>2020-01-12T10:27:08.000Z</time>
      </trkpt>
      <trkpt lat="43.60671" lon="0.50931">
        <ele>239</ele>
        <time>2020-01-12T10:27:10.000Z</time>
      </trkpt>
      <trkpt lat="43.60673" lon="0.50928">
        <ele>239</ele>
        <time>2020-01-12T10:27:12.000Z</time>
      </trkpt>
      <trkpt lat="43.60675" lon="0.50927">
        <ele>239</ele>
        <time>2020-01-12T10:27:14.000Z</time>
      </trkpt>
      <trkpt lat="43.60676" lon="0.50925">
        <ele>239</ele>
        <time>2020-01-12T10:27:16.000Z</time>
      </trkpt>
      <trkpt lat="43.60678" lon="0.50922">
        <ele>238</ele>
        <time>2020-01-12T10:27:19.000Z</time>
      </trkpt>
      <trkpt lat="43.60679" lon="0.5092">
        <ele>238</ele>
        <time>2020-01-12T10:27:21.000Z</time>
      </trkpt>
      <trkpt lat="43.6068" lon="0.50918">
        <ele>238</ele>
        <time>2020-01-12T10:27:23.000Z</time>
      </trkpt>
      <trkpt lat="43.60682" lon="0.50916">
        <ele>238</ele>
        <time>2020-01-12T10:27:25.000Z</time>
      </trkpt>
      <trkpt lat="43.60683" lon="0.50914">
        <ele>238</ele>
        <time>2020-01-12T10:27:27.000Z</time>
      </trkpt>
      <trkpt lat="43.60685" lon="0.50912">
        <ele>238</ele>
        <time>2020-01-12T10:27:29.000Z</time>
      </trkpt>
      <trkpt lat="43.60686" lon="0.50909">
        <ele>238</ele>
        <time>2020-01-12T10:27:31.000Z</time>
      </trkpt>
      <trkpt lat="43.60688" lon="0.50907">
        <ele>237</ele>
        <time>2020-01-12T10:27:33.000Z</time>
      </trkpt>
      <trkpt lat="43.60688" lon="0.50905">
        <ele>237</ele>
        <time>2020-01-12T10:27:35.000Z</time>
      </trkpt>
      <trkpt lat="43.60689" lon="0.50902">
        <ele>237</ele>
        <time>2020-01-12T10:27:37.000Z</time>
      </trkpt>
      <trkpt lat="43.60689" lon="0.50899">
        <ele>237</ele>
        <time>2020-01-12T10:27:39.000Z</time>
      </trkpt>
      <trkpt lat="43.6069" lon="0.50897">
        <ele>237</ele>
        <time>2020-01-12T10:27:41.000Z</time>
      </trkpt>
      <trkpt lat="43.6069" lon="0.50895">
        <ele>237</ele>
        <time>2020-01-12T10:27:44.000Z</time>
      </trkpt>
      <trkpt lat="43.60691" lon="0.50892">
        <ele>237</ele>
        <time>2020-01-12T10:27:46.000Z</time>
      </trkpt>
      <trkpt lat="43.60693" lon="0.50889">
        <ele>237</ele>
        <time>2020-01-12T10:27:48.000Z</time>
      </trkpt>
      <trkpt lat="43.60694" lon="0.50887">
        <ele>237</ele>
        <time>2020-01-12T10:27:50.000Z</time>
      </trkpt>
      <trkpt lat="43.60695" lon="0.50884">
        <ele>237</ele>
        <time>2020-01-12T10:27:52.000Z</time>
      </trkpt>
      <trkpt lat="43.60696" lon="0.50882">
        <ele>237</ele>
        <time>2020-01-12T10:27:54.000Z</time>
      </trkpt>
      <trkpt lat="43.60698" lon="0.50879">
        <ele>237</ele>
        <time>2020-01-12T10:27:56.000Z</time>
      </trkpt>
      <trkpt lat="43.607" lon="0.50877">
        <ele>236</ele>
        <time>2020-01-12T10:27:58.000Z</time>
      </trkpt>
      <trkpt lat="43.60702" lon="0.50874">
        <ele>236</ele>
        <time>2020-01-12T10:28:00.000Z</time>
      </trkpt>
      <trkpt lat="43.60702" lon="0.50871">
        <ele>236</ele>
        <time>2020-01-12T10:28:02.000Z</time>
      </trkpt>
      <trkpt lat="43.60704" lon="0.50869">
        <ele>236</ele>
        <time>2020-01-12T10:28:04.000Z</time>
      </trkpt>
      <trkpt lat="43.60705" lon="0.50867">
        <ele>236</ele>
        <time>2020-01-12T10:28:06.000Z</time>
      </trkpt>
      <trkpt lat="43.60706" lon="0.50864">
        <ele>236</ele>
        <time>2020-01-12T10:28:08.000Z</time>
      </trkpt>
      <trkpt lat="43.60708" lon="0.50861">
        <ele>235</ele>
        <time>2020-01-12T10:28:10.000Z</time>
      </trkpt>
      <trkpt lat="43.60709" lon="0.50859">
        <ele>235</ele>
        <time>2020-01-12T10:28:12.000Z</time>
      </trkpt>
      <trkpt lat="43.6071" lon="0.50857">
        <ele>235</ele>
        <time>2020-01-12T10:28:14.000Z</time>
      </trkpt>
      <trkpt lat="43.60712" lon="0.50854">
        <ele>235</ele>
        <time>2020-01-12T10:28:16.000Z</time>
      </trkpt>
      <trkpt lat="43.60713" lon="0.50851">
        <ele>235</ele>
        <time>2020-01-12T10:28:18.000Z</time>
      </trkpt>
      <trkpt lat="43.60714" lon="0.50849">
        <ele>234</ele>
        <time>2020-01-12T10:28:20.000Z</time>
      </trkpt>
      <trkpt lat="43.60716" lon="0.50847">
        <ele>234</ele>
        <time>2020-01-12T10:28:22.000Z</time>
      </trkpt>
      <trkpt lat="43.60717" lon="0.50844">
        <ele>234</ele>
        <time>2020-01-12T10:28:24.000Z</time>
      </trkpt>
      <trkpt lat="43.60718" lon="0.50841">
        <ele>234</ele>
        <time>2020-01-12T10:28:26.000Z</time>
      </trkpt>
      <trkpt lat="43.60719" lon="0.50838">
        <ele>234</ele>
        <time>2020-01-12T10:28:28.000Z</time>
      </trkpt>
      <trkpt lat="43.6072" lon="0.50835">
        <ele>234</ele>
        <time>2020-01-12T10:28:30.000Z</time>
      </trkpt>
      <trkpt lat="43.6072" lon="0.50832">
        <ele>234</ele>
        <time>2020-01-12T10:28:32.000Z</time>
      </trkpt>
      <trkpt lat="43.60721" lon="0.5083">
        <ele>234</ele>
        <time>2020-01-12T10:28:34.000Z</time>
      </trkpt>
      <trkpt lat="43.60723" lon="0.50827">
        <ele>234</ele>
        <time>2020-01-12T10:28:36.000Z</time>
      </trkpt>
      <trkpt lat="43.60724" lon="0.50824">
        <ele>234</ele>
        <time>2020-01-12T10:28:38.000Z</time>
      </trkpt>
      <trkpt lat="43.60725" lon="0.50821">
        <ele>234</ele>
        <time>2020-01-12T10:28:40.000Z</time>
      </trkpt>
      <trkpt lat="43.60726" lon="0.50819">
        <ele>234</ele>
        <time>2020-01-12T10:28:42.000Z</time>
      </trkpt>
      <trkpt lat="43.60727" lon="0.50816">
        <ele>234</ele>
        <time>2020-01-12T10:28:44.000Z</time>
      </trkpt>
      <trkpt lat="43.60728" lon="0.50814">
        <ele>234</ele>
        <time>2020-01-12T10:28:46.000Z</time>
      </trkpt>
      <trkpt lat="43.60729" lon="0.50812">
        <ele>234</ele>
        <time>2020-01-12T10:28:48.000Z</time>
      </trkpt>
      <trkpt lat="43.6073" lon="0.50809">
        <ele>234</ele>
        <time>2020-01-12T10:28:50.000Z</time>
      </trkpt>
      <trkpt lat="43.60731" lon="0.50807">
        <ele>234</ele>
        <time>2020-01-12T10:28:52.000Z</time>
      </trkpt>
      <trkpt lat="43.60733" lon="0.50805">
        <ele>233</ele>
        <time>2020-01-12T10:28:54.000Z</time>
      </trkpt>
      <trkpt lat="43.60734" lon="0.50802">
        <ele>233</ele>
        <time>2020-01-12T10:28:56.000Z</time>
      </trkpt>
      <trkpt lat="43.60736" lon="0.508">
        <ele>233</ele>
        <time>2020-01-12T10:28:58.000Z</time>
      </trkpt>
      <trkpt lat="43.60737" lon="0.50798">
        <ele>233</ele>
        <time>2020-01-12T10:29:00.000Z</time>
      </trkpt>
      <trkpt lat="43.60739" lon="0.50796">
        <ele>233</ele>
        <time>2020-01-12T10:29:02.000Z</time>
      </trkpt>
      <trkpt lat="43.6074" lon="0.50793">
        <ele>233</ele>
        <time>2020-01-12T10:29:04.000Z</time>
      </trkpt>
      <trkpt lat="43.60741" lon="0.5079">
        <ele>233</ele>
        <time>2020-01-12T10:29:06.000Z</time>
      </trkpt>
      <trkpt lat="43.60742" lon="0.50788">
        <ele>233</ele>
        <time>2020-01-12T10:29:08.000Z</time>
      </trkpt>
      <trkpt lat="43.60743" lon="0.50786">
        <ele>233</ele>
        <time>2020-01-12T10:29:10.000Z</time>
      </trkpt>
      <trkpt lat="43.60744" lon="0.50783">
        <ele>233</ele>
        <time>2020-01-12T10:29:12.000Z</time>
      </trkpt>
      <trkpt lat="43.60746" lon="0.5078">
        <ele>233</ele>
        <time>2020-01-12T10:29:14.000Z</time>
      </trkpt>
      <trkpt lat="43.60746" lon="0.50778">
        <ele>233</ele>
        <time>2020-01-12T10:29:16.000Z</time>
      </trkpt>
      <trkpt lat="43.60747" lon="0.50776">
        <ele>233</ele>
        <time>2020-01-12T10:29:18.000Z</time>
      </trkpt>
      <trkpt lat="43.60749" lon="0.50773">
        <ele>233</ele>
        <time>2020-01-12T10:29:20.000Z</time>
      </trkpt>
      <trkpt lat="43.6075" lon="0.5077">
        <ele>233</ele>
        <time>2020-01-12T10:29:22.000Z</time>
      </trkpt>
      <trkpt lat="43.60751" lon="0.50767">
        <ele>233</ele>
        <time>2020-01-12T10:29:24.000Z</time>
      </trkpt>
      <trkpt lat="43.60752" lon="0.50764">
        <ele>233</ele>
        <time>2020-01-12T10:29:26.000Z</time>
      </trkpt>
      <trkpt lat="43.60752" lon="0.50762">
        <ele>233</ele>
        <time>2020-01-12T10:29:28.000Z</time>
      </trkpt>
      <trkpt lat="43.60753" lon="0.50759">
        <ele>233</ele>
        <time>2020-01-12T10:29:30.000Z</time>
      </trkpt>
      <trkpt lat="43.60755" lon="0.50757">
        <ele>233</ele>
        <time>2020-01-12T10:29:32.000Z</time>
      </trkpt>
      <trkpt lat="43.60755" lon="0.50754">
        <ele>232</ele>
        <time>2020-01-12T10:29:34.000Z</time>
      </trkpt>
      <trkpt lat="43.60756" lon="0.50752">
        <ele>232</ele>
        <time>2020-01-12T10:29:36.000Z</time>
      </trkpt>
      <trkpt lat="43.60757" lon="0.50749">
        <ele>232</ele>
        <time>2020-01-12T10:29:38.000Z</time>
      </trkpt>
      <trkpt lat="43.60758" lon="0.50746">
        <ele>232</ele>
        <time>2020-01-12T10:29:40.000Z</time>
      </trkpt>
      <trkpt lat="43.60758" lon="0.50743">
        <ele>232</ele>
        <time>2020-01-12T10:29:42.000Z</time>
      </trkpt>
      <trkpt lat="43.60759" lon="0.5074">
        <ele>232</ele>
        <time>2020-01-12T10:29:44.000Z</time>
      </trkpt>
      <trkpt lat="43.6076" lon="0.50738">
        <ele>232</ele>
        <time>2020-01-12T10:29:46.000Z</time>
      </trkpt>
      <trkpt lat="43.6076" lon="0.50735">
        <ele>232</ele>
        <time>2020-01-12T10:29:48.000Z</time>
      </trkpt>
      <trkpt lat="43.60762" lon="0.50731">
        <ele>232</ele>
        <time>2020-01-12T10:29:50.000Z</time>
      </trkpt>
      <trkpt lat="43.60763" lon="0.50729">
        <ele>232</ele>
        <time>2020-01-12T10:29:52.000Z</time>
      </trkpt>
      <trkpt lat="43.60763" lon="0.50726">
        <ele>232</ele>
        <time>2020-01-12T10:29:54.000Z</time>
      </trkpt>
      <trkpt lat="43.60764" lon="0.50723">
        <ele>232</ele>
        <time>2020-01-12T10:29:56.000Z</time>
      </trkpt>
      <trkpt lat="43.60765" lon="0.50722">
        <ele>232</ele>
        <time>2020-01-12T10:29:58.000Z</time>
      </trkpt>
      <trkpt lat="43.60767" lon="0.50719">
        <ele>232</ele>
        <time>2020-01-12T10:30:00.000Z</time>
      </trkpt>
      <trkpt lat="43.60767" lon="0.50715">
        <ele>232</ele>
        <time>2020-01-12T10:30:02.000Z</time>
      </trkpt>
      <trkpt lat="43.60768" lon="0.50713">
        <ele>232</ele>
        <time>2020-01-12T10:30:04.000Z</time>
      </trkpt>
      <trkpt lat="43.60769" lon="0.5071">
        <ele>232</ele>
        <time>2020-01-12T10:30:06.000Z</time>
      </trkpt>
      <trkpt lat="43.60769" lon="0.50708">
        <ele>232</ele>
        <time>2020-01-12T10:30:08.000Z</time>
      </trkpt>
      <trkpt lat="43.6077" lon="0.50705">
        <ele>231</ele>
        <time>2020-01-12T10:30:10.000Z</time>
      </trkpt>
      <trkpt lat="43.6077" lon="0.50703">
        <ele>231</ele>
        <time>2020-01-12T10:30:12.000Z</time>
      </trkpt>
      <trkpt lat="43.60771" lon="0.507">
        <ele>231</ele>
        <time>2020-01-12T10:30:14.000Z</time>
      </trkpt>
      <trkpt lat="43.60772" lon="0.50697">
        <ele>231</ele>
        <time>2020-01-12T10:30:16.000Z</time>
      </trkpt>
      <trkpt lat="43.60772" lon="0.50694">
        <ele>231</ele>
        <time>2020-01-12T10:30:18.000Z</time>
      </trkpt>
      <trkpt lat="43.60773" lon="0.50691">
        <ele>231</ele>
        <time>2020-01-12T10:30:20.000Z</time>
      </trkpt>
      <trkpt lat="43.60773" lon="0.50687">
        <ele>230</ele>
        <time>2020-01-12T10:30:23.000Z</time>
      </trkpt>
      <trkpt lat="43.60773" lon="0.50685">
        <ele>230</ele>
        <time>2020-01-12T10:30:25.000Z</time>
      </trkpt>
      <trkpt lat="43.60774" lon="0.50682">
        <ele>230</ele>
        <time>2020-01-12T10:30:27.000Z</time>
      </trkpt>
      <trkpt lat="43.60773" lon="0.50679">
        <ele>230</ele>
        <time>2020-01-12T10:30:29.000Z</time>
      </trkpt>
      <trkpt lat="43.60774" lon="0.50675">
        <ele>230</ele>
        <time>2020-01-12T10:30:31.000Z</time>
      </trkpt>
      <trkpt lat="43.60774" lon="0.50672">
        <ele>230</ele>
        <time>2020-01-12T10:30:33.000Z</time>
      </trkpt>
      <trkpt lat="43.60774" lon="0.50669">
        <ele>229</ele>
        <time>2020-01-12T10:30:35.000Z</time>
      </trkpt>
      <trkpt lat="43.60775" lon="0.50666">
        <ele>229</ele>
        <time>2020-01-12T10:30:37.000Z</time>
      </trkpt>
      <trkpt lat="43.60776" lon="0.50662">
        <ele>229</ele>
        <time>2020-01-12T10:30:39.000Z</time>
      </trkpt>
      <trkpt lat="43.60777" lon="0.50659">
        <ele>229</ele>
        <time>2020-01-12T10:30:41.000Z</time>
      </trkpt>
      <trkpt lat="43.60777" lon="0.50656">
        <ele>229</ele>
        <time>2020-01-12T10:30:43.000Z</time>
      </trkpt>
      <trkpt lat="43.60778" lon="0.50652">
        <ele>228</ele>
        <time>2020-01-12T10:30:45.000Z</time>
      </trkpt>
      <trkpt lat="43.60779" lon="0.5065">
        <ele>228</ele>
        <time>2020-01-12T10:30:47.000Z</time>
      </trkpt>
      <trkpt lat="43.60779" lon="0.50647">
        <ele>228</ele>
        <time>2020-01-12T10:30:49.000Z</time>
      </trkpt>
      <trkpt lat="43.60779" lon="0.50645">
        <ele>228</ele>
        <time>2020-01-12T10:30:51.000Z</time>
      </trkpt>
      <trkpt lat="43.60779" lon="0.50642">
        <ele>228</ele>
        <time>2020-01-12T10:30:53.000Z</time>
      </trkpt>
      <trkpt lat="43.60779" lon="0.5064">
        <ele>228</ele>
        <time>2020-01-12T10:30:55.000Z</time>
      </trkpt>
      <trkpt lat="43.60779" lon="0.50637">
        <ele>228</ele>
        <time>2020-01-12T10:30:57.000Z</time>
      </trkpt>
      <trkpt lat="43.60779" lon="0.50635">
        <ele>228</ele>
        <time>2020-01-12T10:30:59.000Z</time>
      </trkpt>
      <trkpt lat="43.6078" lon="0.50633">
        <ele>228</ele>
        <time>2020-01-12T10:31:01.000Z</time>
      </trkpt>
      <trkpt lat="43.6078" lon="0.50631">
        <ele>228</ele>
        <time>2020-01-12T10:31:03.000Z</time>
      </trkpt>
      <trkpt lat="43.60781" lon="0.50628">
        <ele>228</ele>
        <time>2020-01-12T10:31:05.000Z</time>
      </trkpt>
      <trkpt lat="43.60782" lon="0.50626">
        <ele>228</ele>
        <time>2020-01-12T10:31:07.000Z</time>
      </trkpt>
      <trkpt lat="43.60782" lon="0.50623">
        <ele>227</ele>
        <time>2020-01-12T10:31:09.000Z</time>
      </trkpt>
      <trkpt lat="43.60783" lon="0.5062">
        <ele>227</ele>
        <time>2020-01-12T10:31:11.000Z</time>
      </trkpt>
      <trkpt lat="43.60783" lon="0.50618">
        <ele>227</ele>
        <time>2020-01-12T10:31:13.000Z</time>
      </trkpt>
      <trkpt lat="43.60783" lon="0.50614">
        <ele>227</ele>
        <time>2020-01-12T10:31:16.000Z</time>
      </trkpt>
      <trkpt lat="43.60783" lon="0.50611">
        <ele>227</ele>
        <time>2020-01-12T10:31:18.000Z</time>
      </trkpt>
      <trkpt lat="43.60783" lon="0.50608">
        <ele>226</ele>
        <time>2020-01-12T10:31:20.000Z</time>
      </trkpt>
      <trkpt lat="43.60783" lon="0.50605">
        <ele>226</ele>
        <time>2020-01-12T10:31:22.000Z</time>
      </trkpt>
      <trkpt lat="43.60783" lon="0.50603">
        <ele>226</ele>
        <time>2020-01-12T10:31:24.000Z</time>
      </trkpt>
      <trkpt lat="43.60783" lon="0.506">
        <ele>226</ele>
        <time>2020-01-12T10:31:26.000Z</time>
      </trkpt>
      <trkpt lat="43.60783" lon="0.50598">
        <ele>226</ele>
        <time>2020-01-12T10:31:28.000Z</time>
      </trkpt>
      <trkpt lat="43.60783" lon="0.50594">
        <ele>225</ele>
        <time>2020-01-12T10:31:30.000Z</time>
      </trkpt>
      <trkpt lat="43.60784" lon="0.50591">
        <ele>225</ele>
        <time>2020-01-12T10:31:32.000Z</time>
      </trkpt>
      <trkpt lat="43.60784" lon="0.50588">
        <ele>225</ele>
        <time>2020-01-12T10:31:34.000Z</time>
      </trkpt>
      <trkpt lat="43.60784" lon="0.50584">
        <ele>225</ele>
        <time>2020-01-12T10:31:36.000Z</time>
      </trkpt>
      <trkpt lat="43.60784" lon="0.50581">
        <ele>224</ele>
        <time>2020-01-12T10:31:38.000Z</time>
      </trkpt>
      <trkpt lat="43.60783" lon="0.50579">
        <ele>224</ele>
        <time>2020-01-12T10:31:40.000Z</time>
      </trkpt>
      <trkpt lat="43.60783" lon="0.50576">
        <ele>224</ele>
        <time>2020-01-12T10:31:42.000Z</time>
      </trkpt>
      <trkpt lat="43.60782" lon="0.50573">
        <ele>224</ele>
        <time>2020-01-12T10:31:44.000Z</time>
      </trkpt>
      <trkpt lat="43.60782" lon="0.5057">
        <ele>224</ele>
        <time>2020-01-12T10:31:46.000Z</time>
      </trkpt>
      <trkpt lat="43.60782" lon="0.50567">
        <ele>223</ele>
        <time>2020-01-12T10:31:48.000Z</time>
      </trkpt>
      <trkpt lat="43.60782" lon="0.50564">
        <ele>223</ele>
        <time>2020-01-12T10:31:50.000Z</time>
      </trkpt>
      <trkpt lat="43.60782" lon="0.50562">
        <ele>223</ele>
        <time>2020-01-12T10:31:52.000Z</time>
      </trkpt>
      <trkpt lat="43.60782" lon="0.50559">
        <ele>223</ele>
        <time>2020-01-12T10:31:54.000Z</time>
      </trkpt>
      <trkpt lat="43.60783" lon="0.50557">
        <ele>223</ele>
        <time>2020-01-12T10:31:56.000Z</time>
      </trkpt>
      <trkpt lat="43.60783" lon="0.50554">
        <ele>223</ele>
        <time>2020-01-12T10:31:58.000Z</time>
      </trkpt>
      <trkpt lat="43.60783" lon="0.50551">
        <ele>222</ele>
        <time>2020-01-12T10:32:00.000Z</time>
      </trkpt>
      <trkpt lat="43.60783" lon="0.50548">
        <ele>222</ele>
        <time>2020-01-12T10:32:02.000Z</time>
      </trkpt>
      <trkpt lat="43.60783" lon="0.50545">
        <ele>223</ele>
        <time>2020-01-12T10:32:04.000Z</time>
      </trkpt>
      <trkpt lat="43.60784" lon="0.50542">
        <ele>223</ele>
        <time>2020-01-12T10:32:06.000Z</time>
      </trkpt>
      <trkpt lat="43.60784" lon="0.50539">
        <ele>223</ele>
        <time>2020-01-12T10:32:08.000Z</time>
      </trkpt>
      <trkpt lat="43.60784" lon="0.50535">
        <ele>223</ele>
        <time>2020-01-12T10:32:10.000Z</time>
      </trkpt>
      <trkpt lat="43.60785" lon="0.50532">
        <ele>223</ele>
        <time>2020-01-12T10:32:12.000Z</time>
      </trkpt>
      <trkpt lat="43.60785" lon="0.50529">
        <ele>223</ele>
        <time>2020-01-12T10:32:14.000Z</time>
      </trkpt>
      <trkpt lat="43.60786" lon="0.50526">
        <ele>223</ele>
        <time>2020-01-12T10:32:16.000Z</time>
      </trkpt>
      <trkpt lat="43.60786" lon="0.50523">
        <ele>223</ele>
        <time>2020-01-12T10:32:18.000Z</time>
      </trkpt>
      <trkpt lat="43.60787" lon="0.50521">
        <ele>224</ele>
        <time>2020-01-12T10:32:20.000Z</time>
      </trkpt>
      <trkpt lat="43.60788" lon="0.50518">
        <ele>224</ele>
        <time>2020-01-12T10:32:22.000Z</time>
      </trkpt>
      <trkpt lat="43.6079" lon="0.50516">
        <ele>224</ele>
        <time>2020-01-12T10:32:24.000Z</time>
      </trkpt>
      <trkpt lat="43.6079" lon="0.50513">
        <ele>224</ele>
        <time>2020-01-12T10:32:26.000Z</time>
      </trkpt>
      <trkpt lat="43.60791" lon="0.50511">
        <ele>224</ele>
        <time>2020-01-12T10:32:28.000Z</time>
      </trkpt>
      <trkpt lat="43.60792" lon="0.50509">
        <ele>224</ele>
        <time>2020-01-12T10:32:30.000Z</time>
      </trkpt>
      <trkpt lat="43.60792" lon="0.50506">
        <ele>224</ele>
        <time>2020-01-12T10:32:32.000Z</time>
      </trkpt>
      <trkpt lat="43.60793" lon="0.50504">
        <ele>224</ele>
        <time>2020-01-12T10:32:34.000Z</time>
      </trkpt>
      <trkpt lat="43.60793" lon="0.50501">
        <ele>224</ele>
        <time>2020-01-12T10:32:36.000Z</time>
      </trkpt>
      <trkpt lat="43.60794" lon="0.50499">
        <ele>224</ele>
        <time>2020-01-12T10:32:38.000Z</time>
      </trkpt>
      <trkpt lat="43.60794" lon="0.50496">
        <ele>225</ele>
        <time>2020-01-12T10:32:40.000Z</time>
      </trkpt>
      <trkpt lat="43.60795" lon="0.50494">
        <ele>225</ele>
        <time>2020-01-12T10:32:42.000Z</time>
      </trkpt>
      <trkpt lat="43.60796" lon="0.5049">
        <ele>224</ele>
        <time>2020-01-12T10:32:44.000Z</time>
      </trkpt>
      <trkpt lat="43.60797" lon="0.50488">
        <ele>224</ele>
        <time>2020-01-12T10:32:46.000Z</time>
      </trkpt>
      <trkpt lat="43.60797" lon="0.50486">
        <ele>224</ele>
        <time>2020-01-12T10:32:48.000Z</time>
      </trkpt>
      <trkpt lat="43.60799" lon="0.50483">
        <ele>223</ele>
        <time>2020-01-12T10:32:50.000Z</time>
      </trkpt>
      <trkpt lat="43.60799" lon="0.50479">
        <ele>223</ele>
        <time>2020-01-12T10:32:52.000Z</time>
      </trkpt>
      <trkpt lat="43.608" lon="0.50477">
        <ele>223</ele>
        <time>2020-01-12T10:32:54.000Z</time>
      </trkpt>
      <trkpt lat="43.60801" lon="0.50473">
        <ele>222</ele>
        <time>2020-01-12T10:32:57.000Z</time>
      </trkpt>
      <trkpt lat="43.60801" lon="0.5047">
        <ele>222</ele>
        <time>2020-01-12T10:32:59.000Z</time>
      </trkpt>
      <trkpt lat="43.60802" lon="0.50467">
        <ele>222</ele>
        <time>2020-01-12T10:33:01.000Z</time>
      </trkpt>
      <trkpt lat="43.60803" lon="0.50464">
        <ele>222</ele>
        <time>2020-01-12T10:33:03.000Z</time>
      </trkpt>
      <trkpt lat="43.60804" lon="0.50461">
        <ele>222</ele>
        <time>2020-01-12T10:33:05.000Z</time>
      </trkpt>
      <trkpt lat="43.60804" lon="0.50459">
        <ele>222</ele>
        <time>2020-01-12T10:33:07.000Z</time>
      </trkpt>
      <trkpt lat="43.60805" lon="0.50456">
        <ele>222</ele>
        <time>2020-01-12T10:33:09.000Z</time>
      </trkpt>
      <trkpt lat="43.60806" lon="0.50454">
        <ele>222</ele>
        <time>2020-01-12T10:33:11.000Z</time>
      </trkpt>
      <trkpt lat="43.60806" lon="0.50451">
        <ele>222</ele>
        <time>2020-01-12T10:33:13.000Z</time>
      </trkpt>
      <trkpt lat="43.60807" lon="0.50447">
        <ele>222</ele>
        <time>2020-01-12T10:33:16.000Z</time>
      </trkpt>
      <trkpt lat="43.60809" lon="0.50445">
        <ele>222</ele>
        <time>2020-01-12T10:33:18.000Z</time>
      </trkpt>
      <trkpt lat="43.6081" lon="0.50442">
        <ele>222</ele>
        <time>2020-01-12T10:33:20.000Z</time>
      </trkpt>
      <trkpt lat="43.60811" lon="0.50438">
        <ele>222</ele>
        <time>2020-01-12T10:33:22.000Z</time>
      </trkpt>
      <trkpt lat="43.60812" lon="0.50435">
        <ele>222</ele>
        <time>2020-01-12T10:33:24.000Z</time>
      </trkpt>
      <trkpt lat="43.60813" lon="0.50433">
        <ele>222</ele>
        <time>2020-01-12T10:33:26.000Z</time>
      </trkpt>
      <trkpt lat="43.60814" lon="0.50429">
        <ele>222</ele>
        <time>2020-01-12T10:33:28.000Z</time>
      </trkpt>
      <trkpt lat="43.60815" lon="0.50426">
        <ele>222</ele>
        <time>2020-01-12T10:33:30.000Z</time>
      </trkpt>
      <trkpt lat="43.60817" lon="0.50423">
        <ele>222</ele>
        <time>2020-01-12T10:33:32.000Z</time>
      </trkpt>
      <trkpt lat="43.60818" lon="0.5042">
        <ele>222</ele>
        <time>2020-01-12T10:33:34.000Z</time>
      </trkpt>
      <trkpt lat="43.60819" lon="0.50417">
        <ele>221</ele>
        <time>2020-01-12T10:33:36.000Z</time>
      </trkpt>
      <trkpt lat="43.6082" lon="0.50413">
        <ele>221</ele>
        <time>2020-01-12T10:33:38.000Z</time>
      </trkpt>
      <trkpt lat="43.60821" lon="0.5041">
        <ele>221</ele>
        <time>2020-01-12T10:33:40.000Z</time>
      </trkpt>
      <trkpt lat="43.60821" lon="0.50407">
        <ele>221</ele>
        <time>2020-01-12T10:33:42.000Z</time>
      </trkpt>
      <trkpt lat="43.60822" lon="0.50404">
        <ele>221</ele>
        <time>2020-01-12T10:33:44.000Z</time>
      </trkpt>
      <trkpt lat="43.60823" lon="0.50401">
        <ele>221</ele>
        <time>2020-01-12T10:33:46.000Z</time>
      </trkpt>
      <trkpt lat="43.60824" lon="0.50399">
        <ele>221</ele>
        <time>2020-01-12T10:33:48.000Z</time>
      </trkpt>
      <trkpt lat="43.60824" lon="0.50397">
        <ele>221</ele>
        <time>2020-01-12T10:33:50.000Z</time>
      </trkpt>
      <trkpt lat="43.60825" lon="0.50394">
        <ele>220</ele>
        <time>2020-01-12T10:33:52.000Z</time>
      </trkpt>
      <trkpt lat="43.60826" lon="0.5039">
        <ele>220</ele>
        <time>2020-01-12T10:33:54.000Z</time>
      </trkpt>
      <trkpt lat="43.60827" lon="0.50388">
        <ele>220</ele>
        <time>2020-01-12T10:33:56.000Z</time>
      </trkpt>
      <trkpt lat="43.60827" lon="0.50385">
        <ele>220</ele>
        <time>2020-01-12T10:33:58.000Z</time>
      </trkpt>
      <trkpt lat="43.60827" lon="0.50383">
        <ele>220</ele>
        <time>2020-01-12T10:34:00.000Z</time>
      </trkpt>
      <trkpt lat="43.60828" lon="0.50379">
        <ele>220</ele>
        <time>2020-01-12T10:34:02.000Z</time>
      </trkpt>
      <trkpt lat="43.60829" lon="0.50377">
        <ele>220</ele>
        <time>2020-01-12T10:34:04.000Z</time>
      </trkpt>
      <trkpt lat="43.6083" lon="0.50374">
        <ele>219</ele>
        <time>2020-01-12T10:34:06.000Z</time>
      </trkpt>
      <trkpt lat="43.60831" lon="0.50371">
        <ele>219</ele>
        <time>2020-01-12T10:34:08.000Z</time>
      </trkpt>
      <trkpt lat="43.60832" lon="0.50368">
        <ele>219</ele>
        <time>2020-01-12T10:34:10.000Z</time>
      </trkpt>
      <trkpt lat="43.60833" lon="0.50366">
        <ele>218</ele>
        <time>2020-01-12T10:34:12.000Z</time>
      </trkpt>
      <trkpt lat="43.60833" lon="0.50362">
        <ele>218</ele>
        <time>2020-01-12T10:34:14.000Z</time>
      </trkpt>
      <trkpt lat="43.60834" lon="0.50359">
        <ele>218</ele>
        <time>2020-01-12T10:34:16.000Z</time>
      </trkpt>
      <trkpt lat="43.60835" lon="0.50356">
        <ele>218</ele>
        <time>2020-01-12T10:34:18.000Z</time>
      </trkpt>
      <trkpt lat="43.60835" lon="0.50353">
        <ele>218</ele>
        <time>2020-01-12T10:34:20.000Z</time>
      </trkpt>
      <trkpt lat="43.60836" lon="0.5035">
        <ele>218</ele>
        <time>2020-01-12T10:34:22.000Z</time>
      </trkpt>
      <trkpt lat="43.60836" lon="0.50347">
        <ele>218</ele>
        <time>2020-01-12T10:34:24.000Z</time>
      </trkpt>
      <trkpt lat="43.60837" lon="0.50344">
        <ele>218</ele>
        <time>2020-01-12T10:34:26.000Z</time>
      </trkpt>
      <trkpt lat="43.60838" lon="0.50342">
        <ele>217</ele>
        <time>2020-01-12T10:34:28.000Z</time>
      </trkpt>
      <trkpt lat="43.60838" lon="0.50339">
        <ele>217</ele>
        <time>2020-01-12T10:34:30.000Z</time>
      </trkpt>
      <trkpt lat="43.60838" lon="0.50336">
        <ele>217</ele>
        <time>2020-01-12T10:34:32.000Z</time>
      </trkpt>
      <trkpt lat="43.60838" lon="0.50334">
        <ele>217</ele>
        <time>2020-01-12T10:34:34.000Z</time>
      </trkpt>
      <trkpt lat="43.60839" lon="0.50332">
        <ele>217</ele>
        <time>2020-01-12T10:34:36.000Z</time>
      </trkpt>
      <trkpt lat="43.6084" lon="0.50329">
        <ele>217</ele>
        <time>2020-01-12T10:34:38.000Z</time>
      </trkpt>
      <trkpt lat="43.60841" lon="0.50328">
        <ele>217</ele>
        <time>2020-01-12T10:34:40.000Z</time>
      </trkpt>
      <trkpt lat="43.60841" lon="0.50325">
        <ele>217</ele>
        <time>2020-01-12T10:34:42.000Z</time>
      </trkpt>
      <trkpt lat="43.60842" lon="0.50322">
        <ele>217</ele>
        <time>2020-01-12T10:34:44.000Z</time>
      </trkpt>
      <trkpt lat="43.60843" lon="0.50319">
        <ele>216</ele>
        <time>2020-01-12T10:34:46.000Z</time>
      </trkpt>
      <trkpt lat="43.60844" lon="0.50317">
        <ele>216</ele>
        <time>2020-01-12T10:34:48.000Z</time>
      </trkpt>
      <trkpt lat="43.60844" lon="0.50314">
        <ele>216</ele>
        <time>2020-01-12T10:34:50.000Z</time>
      </trkpt>
      <trkpt lat="43.60846" lon="0.50311">
        <ele>216</ele>
        <time>2020-01-12T10:34:52.000Z</time>
      </trkpt>
      <trkpt lat="43.60846" lon="0.50308">
        <ele>216</ele>
        <time>2020-01-12T10:34:54.000Z</time>
      </trkpt>
      <trkpt lat="43.60847" lon="0.50305">
        <ele>216</ele>
        <time>2020-01-12T10:34:56.000Z</time>
      </trkpt>
      <trkpt lat="43.60847" lon="0.50303">
        <ele>216</ele>
        <time>2020-01-12T10:34:58.000Z</time>
      </trkpt>
      <trkpt lat="43.60847" lon="0.503">
        <ele>215</ele>
        <time>2020-01-12T10:35:00.000Z</time>
      </trkpt>
      <trkpt lat="43.60848" lon="0.50297">
        <ele>215</ele>
        <time>2020-01-12T10:35:02.000Z</time>
      </trkpt>
      <trkpt lat="43.60848" lon="0.50294">
        <ele>215</ele>
        <time>2020-01-12T10:35:04.000Z</time>
      </trkpt>
      <trkpt lat="43.6085" lon="0.50292">
        <ele>215</ele>
        <time>2020-01-12T10:35:06.000Z</time>
      </trkpt>
      <trkpt lat="43.6085" lon="0.50289">
        <ele>215</ele>
        <time>2020-01-12T10:35:08.000Z</time>
      </trkpt>
      <trkpt lat="43.60851" lon="0.50287">
        <ele>215</ele>
        <time>2020-01-12T10:35:10.000Z</time>
      </trkpt>
      <trkpt lat="43.60852" lon="0.50284">
        <ele>215</ele>
        <time>2020-01-12T10:35:12.000Z</time>
      </trkpt>
      <trkpt lat="43.60853" lon="0.50282">
        <ele>215</ele>
        <time>2020-01-12T10:35:14.000Z</time>
      </trkpt>
      <trkpt lat="43.60854" lon="0.50279">
        <ele>215</ele>
        <time>2020-01-12T10:35:16.000Z</time>
      </trkpt>
      <trkpt lat="43.60855" lon="0.50276">
        <ele>215</ele>
        <time>2020-01-12T10:35:18.000Z</time>
      </trkpt>
      <trkpt lat="43.60857" lon="0.50274">
        <ele>215</ele>
        <time>2020-01-12T10:35:20.000Z</time>
      </trkpt>
      <trkpt lat="43.60858" lon="0.50272">
        <ele>215</ele>
        <time>2020-01-12T10:35:22.000Z</time>
      </trkpt>
      <trkpt lat="43.6086" lon="0.50269">
        <ele>215</ele>
        <time>2020-01-12T10:35:24.000Z</time>
      </trkpt>
      <trkpt lat="43.60862" lon="0.50268">
        <ele>215</ele>
        <time>2020-01-12T10:35:26.000Z</time>
      </trkpt>
      <trkpt lat="43.60864" lon="0.50267">
        <ele>215</ele>
        <time>2020-01-12T10:35:28.000Z</time>
      </trkpt>
      <trkpt lat="43.60866" lon="0.50266">
        <ele>215</ele>
        <time>2020-01-12T10:35:30.000Z</time>
      </trkpt>
      <trkpt lat="43.60868" lon="0.50266">
        <ele>215</ele>
        <time>2020-01-12T10:35:32.000Z</time>
      </trkpt>
      <trkpt lat="43.6087" lon="0.50266">
        <ele>215</ele>
        <time>2020-01-12T10:35:34.000Z</time>
      </trkpt>
      <trkpt lat="43.60872" lon="0.50265">
        <ele>216</ele>
        <time>2020-01-12T10:35:36.000Z</time>
      </trkpt>
      <trkpt lat="43.60873" lon="0.50265">
        <ele>216</ele>
        <time>2020-01-12T10:35:38.000Z</time>
      </trkpt>
      <trkpt lat="43.60875" lon="0.50265">
        <ele>216</ele>
        <time>2020-01-12T10:35:40.000Z</time>
      </trkpt>
      <trkpt lat="43.60877" lon="0.50265">
        <ele>216</ele>
        <time>2020-01-12T10:35:42.000Z</time>
      </trkpt>
      <trkpt lat="43.60878" lon="0.50265">
        <ele>216</ele>
        <time>2020-01-12T10:35:44.000Z</time>
      </trkpt>
      <trkpt lat="43.6088" lon="0.50265">
        <ele>216</ele>
        <time>2020-01-12T10:35:46.000Z</time>
      </trkpt>
      <trkpt lat="43.60881" lon="0.50264">
        <ele>216</ele>
        <time>2020-01-12T10:35:48.000Z</time>
      </trkpt>
      <trkpt lat="43.60883" lon="0.50264">
        <ele>216</ele>
        <time>2020-01-12T10:35:50.000Z</time>
      </trkpt>
      <trkpt lat="43.60884" lon="0.50263">
        <ele>216</ele>
        <time>2020-01-12T10:35:52.000Z</time>
      </trkpt>
      <trkpt lat="43.60885" lon="0.50262">
        <ele>216</ele>
        <time>2020-01-12T10:35:54.000Z</time>
      </trkpt>
      <trkpt lat="43.60886" lon="0.5026">
        <ele>216</ele>
        <time>2020-01-12T10:35:56.000Z</time>
      </trkpt>
      <trkpt lat="43.60887" lon="0.50258">
        <ele>217</ele>
        <time>2020-01-12T10:35:58.000Z</time>
      </trkpt>
      <trkpt lat="43.60888" lon="0.50256">
        <ele>217</ele>
        <time>2020-01-12T10:36:00.000Z</time>
      </trkpt>
      <trkpt lat="43.60888" lon="0.50254">
        <ele>217</ele>
        <time>2020-01-12T10:36:02.000Z</time>
      </trkpt>
      <trkpt lat="43.6089" lon="0.50251">
        <ele>216</ele>
        <time>2020-01-12T10:36:04.000Z</time>
      </trkpt>
      <trkpt lat="43.60891" lon="0.50248">
        <ele>216</ele>
        <time>2020-01-12T10:36:06.000Z</time>
      </trkpt>
      <trkpt lat="43.60891" lon="0.50246">
        <ele>216</ele>
        <time>2020-01-12T10:36:08.000Z</time>
      </trkpt>
      <trkpt lat="43.60891" lon="0.50243">
        <ele>215</ele>
        <time>2020-01-12T10:36:10.000Z</time>
      </trkpt>
      <trkpt lat="43.60892" lon="0.50241">
        <ele>215</ele>
        <time>2020-01-12T10:36:12.000Z</time>
      </trkpt>
      <trkpt lat="43.60892" lon="0.50238">
        <ele>215</ele>
        <time>2020-01-12T10:36:14.000Z</time>
      </trkpt>
      <trkpt lat="43.60893" lon="0.50235">
        <ele>215</ele>
        <time>2020-01-12T10:36:16.000Z</time>
      </trkpt>
      <trkpt lat="43.60894" lon="0.50233">
        <ele>214</ele>
        <time>2020-01-12T10:36:18.000Z</time>
      </trkpt>
      <trkpt lat="43.60895" lon="0.50232">
        <ele>214</ele>
        <time>2020-01-12T10:36:20.000Z</time>
      </trkpt>
      <trkpt lat="43.60895" lon="0.50229">
        <ele>214</ele>
        <time>2020-01-12T10:36:22.000Z</time>
      </trkpt>
      <trkpt lat="43.60895" lon="0.50226">
        <ele>213</ele>
        <time>2020-01-12T10:36:24.000Z</time>
      </trkpt>
      <trkpt lat="43.60896" lon="0.50223">
        <ele>213</ele>
        <time>2020-01-12T10:36:26.000Z</time>
      </trkpt>
      <trkpt lat="43.60896" lon="0.50219">
        <ele>213</ele>
        <time>2020-01-12T10:36:28.000Z</time>
      </trkpt>
      <trkpt lat="43.60897" lon="0.50217">
        <ele>212</ele>
        <time>2020-01-12T10:36:30.000Z</time>
      </trkpt>
      <trkpt lat="43.60898" lon="0.50214">
        <ele>212</ele>
        <time>2020-01-12T10:36:32.000Z</time>
      </trkpt>
      <trkpt lat="43.60898" lon="0.50211">
        <ele>212</ele>
        <time>2020-01-12T10:36:34.000Z</time>
      </trkpt>
      <trkpt lat="43.60899" lon="0.50208">
        <ele>212</ele>
        <time>2020-01-12T10:36:36.000Z</time>
      </trkpt>
      <trkpt lat="43.609" lon="0.50206">
        <ele>212</ele>
        <time>2020-01-12T10:36:38.000Z</time>
      </trkpt>
      <trkpt lat="43.609" lon="0.50203">
        <ele>211</ele>
        <time>2020-01-12T10:36:40.000Z</time>
      </trkpt>
      <trkpt lat="43.60901" lon="0.502">
        <ele>211</ele>
        <time>2020-01-12T10:36:42.000Z</time>
      </trkpt>
      <trkpt lat="43.60901" lon="0.50198">
        <ele>211</ele>
        <time>2020-01-12T10:36:44.000Z</time>
      </trkpt>
      <trkpt lat="43.60903" lon="0.50195">
        <ele>211</ele>
        <time>2020-01-12T10:36:46.000Z</time>
      </trkpt>
      <trkpt lat="43.60904" lon="0.50192">
        <ele>211</ele>
        <time>2020-01-12T10:36:48.000Z</time>
      </trkpt>
      <trkpt lat="43.60904" lon="0.50189">
        <ele>210</ele>
        <time>2020-01-12T10:36:50.000Z</time>
      </trkpt>
      <trkpt lat="43.60904" lon="0.50188">
        <ele>210</ele>
        <time>2020-01-12T10:36:52.000Z</time>
      </trkpt>
      <trkpt lat="43.60904" lon="0.50187">
        <ele>210</ele>
        <time>2020-01-12T10:36:54.000Z</time>
      </trkpt>
      <trkpt lat="43.60904" lon="0.50187">
        <ele>210</ele>
        <time>2020-01-12T10:36:56.000Z</time>
      </trkpt>
      <trkpt lat="43.60903" lon="0.50186">
        <ele>210</ele>
        <time>2020-01-12T10:36:59.000Z</time>
      </trkpt>
      <trkpt lat="43.60902" lon="0.50185">
        <ele>210</ele>
        <time>2020-01-12T10:37:01.000Z</time>
      </trkpt>
      <trkpt lat="43.60902" lon="0.50183">
        <ele>210</ele>
        <time>2020-01-12T10:37:03.000Z</time>
      </trkpt>
      <trkpt lat="43.60902" lon="0.50181">
        <ele>210</ele>
        <time>2020-01-12T10:37:05.000Z</time>
      </trkpt>
      <trkpt lat="43.60902" lon="0.50179">
        <ele>209</ele>
        <time>2020-01-12T10:37:07.000Z</time>
      </trkpt>
      <trkpt lat="43.60902" lon="0.50176">
        <ele>209</ele>
        <time>2020-01-12T10:37:09.000Z</time>
      </trkpt>
      <trkpt lat="43.60903" lon="0.50174">
        <ele>209</ele>
        <time>2020-01-12T10:37:11.000Z</time>
      </trkpt>
      <trkpt lat="43.60903" lon="0.50172">
        <ele>209</ele>
        <time>2020-01-12T10:37:13.000Z</time>
      </trkpt>
      <trkpt lat="43.60905" lon="0.50168">
        <ele>208</ele>
        <time>2020-01-12T10:37:17.000Z</time>
      </trkpt>
      <trkpt lat="43.60905" lon="0.50166">
        <ele>208</ele>
        <time>2020-01-12T10:37:19.000Z</time>
      </trkpt>
      <trkpt lat="43.60906" lon="0.50164">
        <ele>208</ele>
        <time>2020-01-12T10:37:21.000Z</time>
      </trkpt>
      <trkpt lat="43.60906" lon="0.50162">
        <ele>207</ele>
        <time>2020-01-12T10:37:23.000Z</time>
      </trkpt>
      <trkpt lat="43.60907" lon="0.5016">
        <ele>207</ele>
        <time>2020-01-12T10:37:25.000Z</time>
      </trkpt>
      <trkpt lat="43.60907" lon="0.50158">
        <ele>207</ele>
        <time>2020-01-12T10:37:27.000Z</time>
      </trkpt>
      <trkpt lat="43.60907" lon="0.50157">
        <ele>207</ele>
        <time>2020-01-12T10:37:29.000Z</time>
      </trkpt>
      <trkpt lat="43.60907" lon="0.50156">
        <ele>207</ele>
        <time>2020-01-12T10:37:31.000Z</time>
      </trkpt>
      <trkpt lat="43.60908" lon="0.50155">
        <ele>207</ele>
        <time>2020-01-12T10:37:33.000Z</time>
      </trkpt>
      <trkpt lat="43.60908" lon="0.50153">
        <ele>206</ele>
        <time>2020-01-12T10:37:35.000Z</time>
      </trkpt>
      <trkpt lat="43.60908" lon="0.50154">
        <ele>207</ele>
        <time>2020-01-12T10:37:37.000Z</time>
      </trkpt>
      <trkpt lat="43.60908" lon="0.50153">
        <ele>206</ele>
        <time>2020-01-12T10:37:39.000Z</time>
      </trkpt>
      <trkpt lat="43.60908" lon="0.50155">
        <ele>207</ele>
        <time>2020-01-12T10:37:41.000Z</time>
      </trkpt>
      <trkpt lat="43.60909" lon="0.50155">
        <ele>207</ele>
        <time>2020-01-12T10:37:43.000Z</time>
      </trkpt>
      <trkpt lat="43.60908" lon="0.50155">
        <ele>207</ele>
        <time>2020-01-12T10:37:45.000Z</time>
      </trkpt>
      <trkpt lat="43.60909" lon="0.50155">
        <ele>207</ele>
        <time>2020-01-12T10:37:47.000Z</time>
      </trkpt>
      <trkpt lat="43.60909" lon="0.50156">
        <ele>207</ele>
        <time>2020-01-12T10:37:49.000Z</time>
      </trkpt>
      <trkpt lat="43.6091" lon="0.50156">
        <ele>207</ele>
        <time>2020-01-12T10:37:51.000Z</time>
      </trkpt>
      <trkpt lat="43.60911" lon="0.50156">
        <ele>207</ele>
        <time>2020-01-12T10:37:53.000Z</time>
      </trkpt>
      <trkpt lat="43.60911" lon="0.50157">
        <ele>207</ele>
        <time>2020-01-12T10:37:55.000Z</time>
      </trkpt>
      <trkpt lat="43.6091" lon="0.50158">
        <ele>207</ele>
        <time>2020-01-12T10:37:57.000Z</time>
      </trkpt>
      <trkpt lat="43.6091" lon="0.50159">
        <ele>207</ele>
        <time>2020-01-12T10:37:59.000Z</time>
      </trkpt>
      <trkpt lat="43.6091" lon="0.5016">
        <ele>207</ele>
        <time>2020-01-12T10:38:01.000Z</time>
      </trkpt>
      <trkpt lat="43.6091" lon="0.50161">
        <ele>207</ele>
        <time>2020-01-12T10:38:03.000Z</time>
      </trkpt>
      <trkpt lat="43.60909" lon="0.50161">
        <ele>207</ele>
        <time>2020-01-12T10:38:05.000Z</time>
      </trkpt>
      <trkpt lat="43.60909" lon="0.50161">
        <ele>207</ele>
        <time>2020-01-12T10:38:07.000Z</time>
      </trkpt>
      <trkpt lat="43.60909" lon="0.50162">
        <ele>207</ele>
        <time>2020-01-12T10:38:09.000Z</time>
      </trkpt>
      <trkpt lat="43.6091" lon="0.50162">
        <ele>207</ele>
        <time>2020-01-12T10:38:11.000Z</time>
      </trkpt>
      <trkpt lat="43.6091" lon="0.50163">
        <ele>207</ele>
        <time>2020-01-12T10:38:13.000Z</time>
      </trkpt>
      <trkpt lat="43.60909" lon="0.50163">
        <ele>207</ele>
        <time>2020-01-12T10:38:15.000Z</time>
      </trkpt>
      <trkpt lat="43.60909" lon="0.50163">
        <ele>207</ele>
        <time>2020-01-12T10:38:17.000Z</time>
      </trkpt>
      <trkpt lat="43.6091" lon="0.50163">
        <ele>207</ele>
        <time>2020-01-12T10:38:19.000Z</time>
      </trkpt>
      <trkpt lat="43.60909" lon="0.50163">
        <ele>207</ele>
        <time>2020-01-12T10:38:21.000Z</time>
      </trkpt>
      <trkpt lat="43.60909" lon="0.50163">
        <ele>207</ele>
        <time>2020-01-12T10:38:23.000Z</time>
      </trkpt>
      <trkpt lat="43.60909" lon="0.50163">
        <ele>207</ele>
        <time>2020-01-12T10:38:25.000Z</time>
      </trkpt>
      <trkpt lat="43.60909" lon="0.50163">
        <ele>207</ele>
        <time>2020-01-12T10:38:27.000Z</time>
      </trkpt>
      <trkpt lat="43.6091" lon="0.50162">
        <ele>207</ele>
        <time>2020-01-12T10:38:29.000Z</time>
      </trkpt>
      <trkpt lat="43.60909" lon="0.50162">
        <ele>207</ele>
        <time>2020-01-12T10:38:31.000Z</time>
      </trkpt>
      <trkpt lat="43.60909" lon="0.50162">
        <ele>207</ele>
        <time>2020-01-12T10:38:33.000Z</time>
      </trkpt>
      <trkpt lat="43.60909" lon="0.50162">
        <ele>207</ele>
        <time>2020-01-12T10:38:35.000Z</time>
      </trkpt>
      <trkpt lat="43.60909" lon="0.50161">
        <ele>207</ele>
        <time>2020-01-12T10:38:37.000Z</time>
      </trkpt>
      <trkpt lat="43.60909" lon="0.50161">
        <ele>207</ele>
        <time>2020-01-12T10:38:39.000Z</time>
      </trkpt>
      <trkpt lat="43.60909" lon="0.50161">
        <ele>207</ele>
        <time>2020-01-12T10:38:41.000Z</time>
      </trkpt>
      <trkpt lat="43.60909" lon="0.50161">
        <ele>207</ele>
        <time>2020-01-12T10:38:43.000Z</time>
      </trkpt>
      <trkpt lat="43.60909" lon="0.50161">
        <ele>207</ele>
        <time>2020-01-12T10:38:45.000Z</time>
      </trkpt>
      <trkpt lat="43.60909" lon="0.50161">
        <ele>207</ele>
        <time>2020-01-12T10:38:47.000Z</time>
      </trkpt>
      <trkpt lat="43.60909" lon="0.50161">
        <ele>207</ele>
        <time>2020-01-12T10:38:49.000Z</time>
      </trkpt>
      <trkpt lat="43.6091" lon="0.5016">
        <ele>207</ele>
        <time>2020-01-12T10:38:51.000Z</time>
      </trkpt>
      <trkpt lat="43.6091" lon="0.5016">
        <ele>207</ele>
        <time>2020-01-12T10:38:53.000Z</time>
      </trkpt>
      <trkpt lat="43.6091" lon="0.5016">
        <ele>207</ele>
        <time>2020-01-12T10:38:55.000Z</time>
      </trkpt>
      <trkpt lat="43.6091" lon="0.50159">
        <ele>207</ele>
        <time>2020-01-12T10:38:57.000Z</time>
      </trkpt>
      <trkpt lat="43.60909" lon="0.50158">
        <ele>207</ele>
        <time>2020-01-12T10:38:59.000Z</time>
      </trkpt>
      <trkpt lat="43.60909" lon="0.50158">
        <ele>207</ele>
        <time>2020-01-12T10:39:01.000Z</time>
      </trkpt>
      <trkpt lat="43.60909" lon="0.50157">
        <ele>207</ele>
        <time>2020-01-12T10:39:03.000Z</time>
      </trkpt>
      <trkpt lat="43.6091" lon="0.50158">
        <ele>207</ele>
        <time>2020-01-12T10:39:05.000Z</time>
      </trkpt>
      <trkpt lat="43.6091" lon="0.50158">
        <ele>207</ele>
        <time>2020-01-12T10:39:07.000Z</time>
      </trkpt>
      <trkpt lat="43.6091" lon="0.50158">
        <ele>207</ele>
        <time>2020-01-12T10:39:09.000Z</time>
      </trkpt>
      <trkpt lat="43.6091" lon="0.50158">
        <ele>207</ele>
        <time>2020-01-12T10:39:11.000Z</time>
      </trkpt>
      <trkpt lat="43.6091" lon="0.50159">
        <ele>207</ele>
        <time>2020-01-12T10:39:13.000Z</time>
      </trkpt>
      <trkpt lat="43.60911" lon="0.5016">
        <ele>207</ele>
        <time>2020-01-12T10:39:15.000Z</time>
      </trkpt>
      <trkpt lat="43.60911" lon="0.5016">
        <ele>207</ele>
        <time>2020-01-12T10:39:17.000Z</time>
      </trkpt>
      <trkpt lat="43.60911" lon="0.50161">
        <ele>207</ele>
        <time>2020-01-12T10:39:19.000Z</time>
      </trkpt>
      <trkpt lat="43.60911" lon="0.50161">
        <ele>207</ele>
        <time>2020-01-12T10:39:21.000Z</time>
      </trkpt>
      <trkpt lat="43.60911" lon="0.50161">
        <ele>207</ele>
        <time>2020-01-12T10:39:23.000Z</time>
      </trkpt>
      <trkpt lat="43.6091" lon="0.5016">
        <ele>207</ele>
        <time>2020-01-12T10:39:25.000Z</time>
      </trkpt>
      <trkpt lat="43.6091" lon="0.50161">
        <ele>207</ele>
        <time>2020-01-12T10:39:27.000Z</time>
      </trkpt>
      <trkpt lat="43.60911" lon="0.50161">
        <ele>207</ele>
        <time>2020-01-12T10:39:29.000Z</time>
      </trkpt>
      <trkpt lat="43.60911" lon="0.50161">
        <ele>207</ele>
        <time>2020-01-12T10:39:31.000Z</time>
      </trkpt>
      <trkpt lat="43.60911" lon="0.50161">
        <ele>207</ele>
        <time>2020-01-12T10:39:33.000Z</time>
      </trkpt>
      <trkpt lat="43.60911" lon="0.50161">
        <ele>207</ele>
        <time>2020-01-12T10:39:35.000Z</time>
      </trkpt>
      <trkpt lat="43.60911" lon="0.5016">
        <ele>207</ele>
        <time>2020-01-12T10:39:37.000Z</time>
      </trkpt>
      <trkpt lat="43.60911" lon="0.5016">
        <ele>207</ele>
        <time>2020-01-12T10:39:39.000Z</time>
      </trkpt>
      <trkpt lat="43.60912" lon="0.5016">
        <ele>207</ele>
        <time>2020-01-12T10:39:41.000Z</time>
      </trkpt>
      <trkpt lat="43.60912" lon="0.5016">
        <ele>207</ele>
        <time>2020-01-12T10:39:43.000Z</time>
      </trkpt>
      <trkpt lat="43.60912" lon="0.5016">
        <ele>207</ele>
        <time>2020-01-12T10:39:45.000Z</time>
      </trkpt>
      <trkpt lat="43.60912" lon="0.50161">
        <ele>207</ele>
        <time>2020-01-12T10:39:47.000Z</time>
      </trkpt>
      <trkpt lat="43.60912" lon="0.50161">
        <ele>207</ele>
        <time>2020-01-12T10:39:49.000Z</time>
      </trkpt>
      <trkpt lat="43.60912" lon="0.50162">
        <ele>207</ele>
        <time>2020-01-12T10:39:51.000Z</time>
      </trkpt>
      <trkpt lat="43.60912" lon="0.50161">
        <ele>207</ele>
        <time>2020-01-12T10:39:53.000Z</time>
      </trkpt>
      <trkpt lat="43.60911" lon="0.50161">
        <ele>207</ele>
        <time>2020-01-12T10:39:55.000Z</time>
      </trkpt>
      <trkpt lat="43.60911" lon="0.5016">
        <ele>207</ele>
        <time>2020-01-12T10:39:57.000Z</time>
      </trkpt>
      <trkpt lat="43.60911" lon="0.5016">
        <ele>207</ele>
        <time>2020-01-12T10:39:59.000Z</time>
      </trkpt>
      <trkpt lat="43.60911" lon="0.5016">
        <ele>207</ele>
        <time>2020-01-12T10:40:01.000Z</time>
      </trkpt>
      <trkpt lat="43.60911" lon="0.50159">
        <ele>207</ele>
        <time>2020-01-12T10:40:03.000Z</time>
      </trkpt>
      <trkpt lat="43.60911" lon="0.50158">
        <ele>207</ele>
        <time>2020-01-12T10:40:05.000Z</time>
      </trkpt>
      <trkpt lat="43.6091" lon="0.50158">
        <ele>207</ele>
        <time>2020-01-12T10:40:07.000Z</time>
      </trkpt>
      <trkpt lat="43.6091" lon="0.50158">
        <ele>207</ele>
        <time>2020-01-12T10:40:09.000Z</time>
      </trkpt>
      <trkpt lat="43.6091" lon="0.50158">
        <ele>207</ele>
        <time>2020-01-12T10:40:11.000Z</time>
      </trkpt>
      <trkpt lat="43.6091" lon="0.50158">
        <ele>207</ele>
        <time>2020-01-12T10:40:13.000Z</time>
      </trkpt>
      <trkpt lat="43.6091" lon="0.50158">
        <ele>207</ele>
        <time>2020-01-12T10:40:15.000Z</time>
      </trkpt>
      <trkpt lat="43.6091" lon="0.50158">
        <ele>207</ele>
        <time>2020-01-12T10:40:17.000Z</time>
      </trkpt>
      <trkpt lat="43.6091" lon="0.50157">
        <ele>207</ele>
        <time>2020-01-12T10:40:19.000Z</time>
      </trkpt>
      <trkpt lat="43.6091" lon="0.50157">
        <ele>207</ele>
        <time>2020-01-12T10:40:21.000Z</time>
      </trkpt>
      <trkpt lat="43.60909" lon="0.50156">
        <ele>207</ele>
        <time>2020-01-12T10:40:23.000Z</time>
      </trkpt>
      <trkpt lat="43.6091" lon="0.50157">
        <ele>207</ele>
        <time>2020-01-12T10:40:26.000Z</time>
      </trkpt>
      <trkpt lat="43.60911" lon="0.50157">
        <ele>207</ele>
        <time>2020-01-12T10:40:28.000Z</time>
      </trkpt>
      <trkpt lat="43.60911" lon="0.50157">
        <ele>207</ele>
        <time>2020-01-12T10:40:30.000Z</time>
      </trkpt>
      <trkpt lat="43.60911" lon="0.50158">
        <ele>207</ele>
        <time>2020-01-12T10:40:32.000Z</time>
      </trkpt>
      <trkpt lat="43.60911" lon="0.50158">
        <ele>207</ele>
        <time>2020-01-12T10:40:34.000Z</time>
      </trkpt>
      <trkpt lat="43.60911" lon="0.50159">
        <ele>207</ele>
        <time>2020-01-12T10:40:36.000Z</time>
      </trkpt>
      <trkpt lat="43.60911" lon="0.50159">
        <ele>207</ele>
        <time>2020-01-12T10:40:38.000Z</time>
      </trkpt>
      <trkpt lat="43.60911" lon="0.50159">
        <ele>207</ele>
        <time>2020-01-12T10:40:40.000Z</time>
      </trkpt>
      <trkpt lat="43.60911" lon="0.50159">
        <ele>207</ele>
        <time>2020-01-12T10:40:42.000Z</time>
      </trkpt>
      <trkpt lat="43.60911" lon="0.50159">
        <ele>207</ele>
        <time>2020-01-12T10:40:44.000Z</time>
      </trkpt>
      <trkpt lat="43.60911" lon="0.50159">
        <ele>207</ele>
        <time>2020-01-12T10:40:46.000Z</time>
      </trkpt>
      <trkpt lat="43.60911" lon="0.5016">
        <ele>207</ele>
        <time>2020-01-12T10:40:48.000Z</time>
      </trkpt>
      <trkpt lat="43.6091" lon="0.5016">
        <ele>207</ele>
        <time>2020-01-12T10:40:50.000Z</time>
      </trkpt>
      <trkpt lat="43.6091" lon="0.50159">
        <ele>207</ele>
        <time>2020-01-12T10:40:52.000Z</time>
      </trkpt>
      <trkpt lat="43.6091" lon="0.50159">
        <ele>207</ele>
        <time>2020-01-12T10:40:54.000Z</time>
      </trkpt>
      <trkpt lat="43.6091" lon="0.50159">
        <ele>207</ele>
        <time>2020-01-12T10:40:56.000Z</time>
      </trkpt>
      <trkpt lat="43.6091" lon="0.50159">
        <ele>207</ele>
        <time>2020-01-12T10:40:58.000Z</time>
      </trkpt>
      <trkpt lat="43.6091" lon="0.50159">
        <ele>207</ele>
        <time>2020-01-12T10:41:00.000Z</time>
      </trkpt>
      <trkpt lat="43.6091" lon="0.50159">
        <ele>207</ele>
        <time>2020-01-12T10:41:02.000Z</time>
      </trkpt>
      <trkpt lat="43.60909" lon="0.5016">
        <ele>207</ele>
        <time>2020-01-12T10:41:04.000Z</time>
      </trkpt>
      <trkpt lat="43.6091" lon="0.50159">
        <ele>207</ele>
        <time>2020-01-12T10:41:06.000Z</time>
      </trkpt>
      <trkpt lat="43.6091" lon="0.5016">
        <ele>207</ele>
        <time>2020-01-12T10:41:08.000Z</time>
      </trkpt>
      <trkpt lat="43.60911" lon="0.5016">
        <ele>207</ele>
        <time>2020-01-12T10:41:10.000Z</time>
      </trkpt>
      <trkpt lat="43.60911" lon="0.50161">
        <ele>207</ele>
        <time>2020-01-12T10:41:12.000Z</time>
      </trkpt>
      <trkpt lat="43.60911" lon="0.50161">
        <ele>207</ele>
        <time>2020-01-12T10:41:14.000Z</time>
      </trkpt>
      <trkpt lat="43.60911" lon="0.50161">
        <ele>207</ele>
        <time>2020-01-12T10:41:16.000Z</time>
      </trkpt>
      <trkpt lat="43.60912" lon="0.50161">
        <ele>207</ele>
        <time>2020-01-12T10:41:18.000Z</time>
      </trkpt>
      <trkpt lat="43.60912" lon="0.50161">
        <ele>207</ele>
        <time>2020-01-12T10:41:20.000Z</time>
      </trkpt>
      <trkpt lat="43.60911" lon="0.50161">
        <ele>207</ele>
        <time>2020-01-12T10:41:22.000Z</time>
      </trkpt>
      <trkpt lat="43.60912" lon="0.50161">
        <ele>207</ele>
        <time>2020-01-12T10:41:24.000Z</time>
      </trkpt>
      <trkpt lat="43.60912" lon="0.50161">
        <ele>207</ele>
        <time>2020-01-12T10:41:26.000Z</time>
      </trkpt>
      <trkpt lat="43.60912" lon="0.50162">
        <ele>207</ele>
        <time>2020-01-12T10:41:28.000Z</time>
      </trkpt>
      <trkpt lat="43.60914" lon="0.50164">
        <ele>207</ele>
        <time>2020-01-12T10:41:30.000Z</time>
      </trkpt>
      <trkpt lat="43.60914" lon="0.50164">
        <ele>207</ele>
        <time>2020-01-12T10:41:32.000Z</time>
      </trkpt>
      <trkpt lat="43.60914" lon="0.50164">
        <ele>207</ele>
        <time>2020-01-12T10:41:34.000Z</time>
      </trkpt>
      <trkpt lat="43.60915" lon="0.50164">
        <ele>207</ele>
        <time>2020-01-12T10:41:36.000Z</time>
      </trkpt>
      <trkpt lat="43.60915" lon="0.50163">
        <ele>207</ele>
        <time>2020-01-12T10:41:38.000Z</time>
      </trkpt>
      <trkpt lat="43.60914" lon="0.50163">
        <ele>207</ele>
        <time>2020-01-12T10:41:40.000Z</time>
      </trkpt>
      <trkpt lat="43.60914" lon="0.50163">
        <ele>207</ele>
        <time>2020-01-12T10:41:42.000Z</time>
      </trkpt>
      <trkpt lat="43.60915" lon="0.50163">
        <ele>207</ele>
        <time>2020-01-12T10:41:44.000Z</time>
      </trkpt>
      <trkpt lat="43.60915" lon="0.50163">
        <ele>207</ele>
        <time>2020-01-12T10:41:46.000Z</time>
      </trkpt>
      <trkpt lat="43.60914" lon="0.50163">
        <ele>207</ele>
        <time>2020-01-12T10:41:48.000Z</time>
      </trkpt>
      <trkpt lat="43.60914" lon="0.50163">
        <ele>207</ele>
        <time>2020-01-12T10:41:50.000Z</time>
      </trkpt>
      <trkpt lat="43.60912" lon="0.50163">
        <ele>207</ele>
        <time>2020-01-12T10:41:53.000Z</time>
      </trkpt>
      <trkpt lat="43.6091" lon="0.50164">
        <ele>207</ele>
        <time>2020-01-12T10:41:55.000Z</time>
      </trkpt>
      <trkpt lat="43.60908" lon="0.50164">
        <ele>208</ele>
        <time>2020-01-12T10:41:57.000Z</time>
      </trkpt>
      <trkpt lat="43.60906" lon="0.50164">
        <ele>208</ele>
        <time>2020-01-12T10:41:59.000Z</time>
      </trkpt>
      <trkpt lat="43.60904" lon="0.50162">
        <ele>208</ele>
        <time>2020-01-12T10:42:01.000Z</time>
      </trkpt>
      <trkpt lat="43.60902" lon="0.50162">
        <ele>208</ele>
        <time>2020-01-12T10:42:03.000Z</time>
      </trkpt>
      <trkpt lat="43.609" lon="0.50161">
        <ele>208</ele>
        <time>2020-01-12T10:42:05.000Z</time>
      </trkpt>
      <trkpt lat="43.60898" lon="0.5016">
        <ele>208</ele>
        <time>2020-01-12T10:42:07.000Z</time>
      </trkpt>
      <trkpt lat="43.60896" lon="0.50159">
        <ele>208</ele>
        <time>2020-01-12T10:42:09.000Z</time>
      </trkpt>
      <trkpt lat="43.60894" lon="0.50157">
        <ele>208</ele>
        <time>2020-01-12T10:42:11.000Z</time>
      </trkpt>
      <trkpt lat="43.60893" lon="0.50155">
        <ele>207</ele>
        <time>2020-01-12T10:42:13.000Z</time>
      </trkpt>
      <trkpt lat="43.60891" lon="0.50153">
        <ele>207</ele>
        <time>2020-01-12T10:42:15.000Z</time>
      </trkpt>
      <trkpt lat="43.60889" lon="0.50151">
        <ele>207</ele>
        <time>2020-01-12T10:42:17.000Z</time>
      </trkpt>
      <trkpt lat="43.60888" lon="0.50149">
        <ele>207</ele>
        <time>2020-01-12T10:42:19.000Z</time>
      </trkpt>
      <trkpt lat="43.60886" lon="0.50146">
        <ele>207</ele>
        <time>2020-01-12T10:42:21.000Z</time>
      </trkpt>
      <trkpt lat="43.60886" lon="0.50143">
        <ele>206</ele>
        <time>2020-01-12T10:42:23.000Z</time>
      </trkpt>
      <trkpt lat="43.60885" lon="0.5014">
        <ele>206</ele>
        <time>2020-01-12T10:42:25.000Z</time>
      </trkpt>
      <trkpt lat="43.60885" lon="0.50137">
        <ele>206</ele>
        <time>2020-01-12T10:42:27.000Z</time>
      </trkpt>
      <trkpt lat="43.60886" lon="0.50134">
        <ele>205</ele>
        <time>2020-01-12T10:42:29.000Z</time>
      </trkpt>
      <trkpt lat="43.60886" lon="0.50131">
        <ele>205</ele>
        <time>2020-01-12T10:42:31.000Z</time>
      </trkpt>
      <trkpt lat="43.60886" lon="0.50128">
        <ele>205</ele>
        <time>2020-01-12T10:42:33.000Z</time>
      </trkpt>
      <trkpt lat="43.60886" lon="0.50125">
        <ele>205</ele>
        <time>2020-01-12T10:42:35.000Z</time>
      </trkpt>
      <trkpt lat="43.60886" lon="0.50122">
        <ele>205</ele>
        <time>2020-01-12T10:42:37.000Z</time>
      </trkpt>
      <trkpt lat="43.60886" lon="0.50119">
        <ele>205</ele>
        <time>2020-01-12T10:42:39.000Z</time>
      </trkpt>
      <trkpt lat="43.60887" lon="0.50116">
        <ele>204</ele>
        <time>2020-01-12T10:42:41.000Z</time>
      </trkpt>
      <trkpt lat="43.60887" lon="0.50113">
        <ele>204</ele>
        <time>2020-01-12T10:42:43.000Z</time>
      </trkpt>
      <trkpt lat="43.60887" lon="0.5011">
        <ele>204</ele>
        <time>2020-01-12T10:42:45.000Z</time>
      </trkpt>
      <trkpt lat="43.60888" lon="0.50108">
        <ele>204</ele>
        <time>2020-01-12T10:42:47.000Z</time>
      </trkpt>
      <trkpt lat="43.60888" lon="0.50105">
        <ele>204</ele>
        <time>2020-01-12T10:42:49.000Z</time>
      </trkpt>
      <trkpt lat="43.60888" lon="0.50102">
        <ele>204</ele>
        <time>2020-01-12T10:42:51.000Z</time>
      </trkpt>
      <trkpt lat="43.60889" lon="0.50099">
        <ele>204</ele>
        <time>2020-01-12T10:42:53.000Z</time>
      </trkpt>
      <trkpt lat="43.60889" lon="0.50096">
        <ele>203</ele>
        <time>2020-01-12T10:42:55.000Z</time>
      </trkpt>
      <trkpt lat="43.60889" lon="0.50094">
        <ele>203</ele>
        <time>2020-01-12T10:42:57.000Z</time>
      </trkpt>
      <trkpt lat="43.6089" lon="0.50091">
        <ele>203</ele>
        <time>2020-01-12T10:42:59.000Z</time>
      </trkpt>
      <trkpt lat="43.6089" lon="0.50089">
        <ele>203</ele>
        <time>2020-01-12T10:43:01.000Z</time>
      </trkpt>
      <trkpt lat="43.6089" lon="0.50086">
        <ele>203</ele>
        <time>2020-01-12T10:43:03.000Z</time>
      </trkpt>
      <trkpt lat="43.60891" lon="0.50083">
        <ele>203</ele>
        <time>2020-01-12T10:43:05.000Z</time>
      </trkpt>
      <trkpt lat="43.60891" lon="0.5008">
        <ele>203</ele>
        <time>2020-01-12T10:43:07.000Z</time>
      </trkpt>
      <trkpt lat="43.60892" lon="0.50077">
        <ele>202</ele>
        <time>2020-01-12T10:43:09.000Z</time>
      </trkpt>
      <trkpt lat="43.60892" lon="0.50074">
        <ele>202</ele>
        <time>2020-01-12T10:43:11.000Z</time>
      </trkpt>
      <trkpt lat="43.60892" lon="0.5007">
        <ele>202</ele>
        <time>2020-01-12T10:43:13.000Z</time>
      </trkpt>
      <trkpt lat="43.60893" lon="0.50067">
        <ele>202</ele>
        <time>2020-01-12T10:43:15.000Z</time>
      </trkpt>
      <trkpt lat="43.60892" lon="0.50064">
        <ele>202</ele>
        <time>2020-01-12T10:43:17.000Z</time>
      </trkpt>
      <trkpt lat="43.60893" lon="0.50061">
        <ele>202</ele>
        <time>2020-01-12T10:43:19.000Z</time>
      </trkpt>
      <trkpt lat="43.60893" lon="0.50059">
        <ele>201</ele>
        <time>2020-01-12T10:43:21.000Z</time>
      </trkpt>
      <trkpt lat="43.60892" lon="0.50056">
        <ele>201</ele>
        <time>2020-01-12T10:43:23.000Z</time>
      </trkpt>
      <trkpt lat="43.60891" lon="0.50054">
        <ele>201</ele>
        <time>2020-01-12T10:43:25.000Z</time>
      </trkpt>
      <trkpt lat="43.60891" lon="0.50051">
        <ele>201</ele>
        <time>2020-01-12T10:43:27.000Z</time>
      </trkpt>
      <trkpt lat="43.60891" lon="0.50049">
        <ele>201</ele>
        <time>2020-01-12T10:43:29.000Z</time>
      </trkpt>
      <trkpt lat="43.6089" lon="0.50046">
        <ele>201</ele>
        <time>2020-01-12T10:43:31.000Z</time>
      </trkpt>
      <trkpt lat="43.60889" lon="0.50044">
        <ele>201</ele>
        <time>2020-01-12T10:43:33.000Z</time>
      </trkpt>
      <trkpt lat="43.60888" lon="0.50042">
        <ele>201</ele>
        <time>2020-01-12T10:43:35.000Z</time>
      </trkpt>
      <trkpt lat="43.60887" lon="0.5004">
        <ele>200</ele>
        <time>2020-01-12T10:43:37.000Z</time>
      </trkpt>
      <trkpt lat="43.60885" lon="0.50039">
        <ele>200</ele>
        <time>2020-01-12T10:43:39.000Z</time>
      </trkpt>
      <trkpt lat="43.60884" lon="0.50037">
        <ele>200</ele>
        <time>2020-01-12T10:43:41.000Z</time>
      </trkpt>
      <trkpt lat="43.60882" lon="0.50037">
        <ele>200</ele>
        <time>2020-01-12T10:43:43.000Z</time>
      </trkpt>
      <trkpt lat="43.6088" lon="0.50036">
        <ele>200</ele>
        <time>2020-01-12T10:43:45.000Z</time>
      </trkpt>
      <trkpt lat="43.6088" lon="0.50036">
        <ele>200</ele>
        <time>2020-01-12T10:43:47.000Z</time>
      </trkpt>
      <trkpt lat="43.60879" lon="0.50035">
        <ele>200</ele>
        <time>2020-01-12T10:43:49.000Z</time>
      </trkpt>
      <trkpt lat="43.60878" lon="0.50035">
        <ele>200</ele>
        <time>2020-01-12T10:43:51.000Z</time>
      </trkpt>
      <trkpt lat="43.60876" lon="0.50034">
        <ele>200</ele>
        <time>2020-01-12T10:43:53.000Z</time>
      </trkpt>
      <trkpt lat="43.60875" lon="0.50034">
        <ele>200</ele>
        <time>2020-01-12T10:43:55.000Z</time>
      </trkpt>
      <trkpt lat="43.60873" lon="0.50035">
        <ele>200</ele>
        <time>2020-01-12T10:43:57.000Z</time>
      </trkpt>
      <trkpt lat="43.60871" lon="0.50035">
        <ele>201</ele>
        <time>2020-01-12T10:43:59.000Z</time>
      </trkpt>
      <trkpt lat="43.60869" lon="0.50035">
        <ele>201</ele>
        <time>2020-01-12T10:44:01.000Z</time>
      </trkpt>
      <trkpt lat="43.60867" lon="0.50035">
        <ele>201</ele>
        <time>2020-01-12T10:44:03.000Z</time>
      </trkpt>
      <trkpt lat="43.60865" lon="0.50035">
        <ele>201</ele>
        <time>2020-01-12T10:44:05.000Z</time>
      </trkpt>
      <trkpt lat="43.60864" lon="0.50035">
        <ele>201</ele>
        <time>2020-01-12T10:44:07.000Z</time>
      </trkpt>
      <trkpt lat="43.60863" lon="0.50035">
        <ele>201</ele>
        <time>2020-01-12T10:44:09.000Z</time>
      </trkpt>
      <trkpt lat="43.60863" lon="0.50034">
        <ele>201</ele>
        <time>2020-01-12T10:44:11.000Z</time>
      </trkpt>
      <trkpt lat="43.60863" lon="0.50033">
        <ele>201</ele>
        <time>2020-01-12T10:44:13.000Z</time>
      </trkpt>
      <trkpt lat="43.60863" lon="0.50033">
        <ele>201</ele>
        <time>2020-01-12T10:44:15.000Z</time>
      </trkpt>
      <trkpt lat="43.60864" lon="0.50032">
        <ele>201</ele>
        <time>2020-01-12T10:44:17.000Z</time>
      </trkpt>
      <trkpt lat="43.60864" lon="0.50032">
        <ele>201</ele>
        <time>2020-01-12T10:44:19.000Z</time>
      </trkpt>
      <trkpt lat="43.60864" lon="0.50032">
        <ele>201</ele>
        <time>2020-01-12T10:44:21.000Z</time>
      </trkpt>
      <trkpt lat="43.60864" lon="0.50032">
        <ele>201</ele>
        <time>2020-01-12T10:44:23.000Z</time>
      </trkpt>
      <trkpt lat="43.60863" lon="0.50033">
        <ele>201</ele>
        <time>2020-01-12T10:44:25.000Z</time>
      </trkpt>
      <trkpt lat="43.60862" lon="0.50033">
        <ele>201</ele>
        <time>2020-01-12T10:44:27.000Z</time>
      </trkpt>
      <trkpt lat="43.60861" lon="0.50034">
        <ele>201</ele>
        <time>2020-01-12T10:44:29.000Z</time>
      </trkpt>
      <trkpt lat="43.60859" lon="0.50035">
        <ele>201</ele>
        <time>2020-01-12T10:44:31.000Z</time>
      </trkpt>
      <trkpt lat="43.60857" lon="0.50036">
        <ele>201</ele>
        <time>2020-01-12T10:44:33.000Z</time>
      </trkpt>
      <trkpt lat="43.60855" lon="0.50038">
        <ele>202</ele>
        <time>2020-01-12T10:44:35.000Z</time>
      </trkpt>
      <trkpt lat="43.60853" lon="0.50039">
        <ele>202</ele>
        <time>2020-01-12T10:44:37.000Z</time>
      </trkpt>
      <trkpt lat="43.60851" lon="0.5004">
        <ele>202</ele>
        <time>2020-01-12T10:44:39.000Z</time>
      </trkpt>
      <trkpt lat="43.6085" lon="0.50043">
        <ele>202</ele>
        <time>2020-01-12T10:44:41.000Z</time>
      </trkpt>
      <trkpt lat="43.60849" lon="0.50045">
        <ele>203</ele>
        <time>2020-01-12T10:44:43.000Z</time>
      </trkpt>
      <trkpt lat="43.60848" lon="0.50048">
        <ele>203</ele>
        <time>2020-01-12T10:44:45.000Z</time>
      </trkpt>
      <trkpt lat="43.60847" lon="0.5005">
        <ele>203</ele>
        <time>2020-01-12T10:44:47.000Z</time>
      </trkpt>
      <trkpt lat="43.60846" lon="0.50053">
        <ele>203</ele>
        <time>2020-01-12T10:44:49.000Z</time>
      </trkpt>
      <trkpt lat="43.60845" lon="0.50057">
        <ele>203</ele>
        <time>2020-01-12T10:44:51.000Z</time>
      </trkpt>
      <trkpt lat="43.60843" lon="0.5006">
        <ele>203</ele>
        <time>2020-01-12T10:44:53.000Z</time>
      </trkpt>
      <trkpt lat="43.60842" lon="0.50063">
        <ele>203</ele>
        <time>2020-01-12T10:44:55.000Z</time>
      </trkpt>
      <trkpt lat="43.60841" lon="0.50065">
        <ele>203</ele>
        <time>2020-01-12T10:44:57.000Z</time>
      </trkpt>
      <trkpt lat="43.6084" lon="0.50067">
        <ele>203</ele>
        <time>2020-01-12T10:44:59.000Z</time>
      </trkpt>
      <trkpt lat="43.6084" lon="0.50069">
        <ele>203</ele>
        <time>2020-01-12T10:45:01.000Z</time>
      </trkpt>
      <trkpt lat="43.60837" lon="0.50072">
        <ele>203</ele>
        <time>2020-01-12T10:45:03.000Z</time>
      </trkpt>
      <trkpt lat="43.60835" lon="0.50075">
        <ele>203</ele>
        <time>2020-01-12T10:45:05.000Z</time>
      </trkpt>
      <trkpt lat="43.60833" lon="0.50077">
        <ele>203</ele>
        <time>2020-01-12T10:45:07.000Z</time>
      </trkpt>
      <trkpt lat="43.60831" lon="0.5008">
        <ele>202</ele>
        <time>2020-01-12T10:45:09.000Z</time>
      </trkpt>
      <trkpt lat="43.60829" lon="0.50082">
        <ele>202</ele>
        <time>2020-01-12T10:45:11.000Z</time>
      </trkpt>
      <trkpt lat="43.60828" lon="0.50084">
        <ele>202</ele>
        <time>2020-01-12T10:45:13.000Z</time>
      </trkpt>
      <trkpt lat="43.60827" lon="0.50087">
        <ele>202</ele>
        <time>2020-01-12T10:45:15.000Z</time>
      </trkpt>
      <trkpt lat="43.60826" lon="0.50088">
        <ele>202</ele>
        <time>2020-01-12T10:45:17.000Z</time>
      </trkpt>
      <trkpt lat="43.60825" lon="0.5009">
        <ele>202</ele>
        <time>2020-01-12T10:45:19.000Z</time>
      </trkpt>
      <trkpt lat="43.60822" lon="0.50092">
        <ele>202</ele>
        <time>2020-01-12T10:45:21.000Z</time>
      </trkpt>
      <trkpt lat="43.6082" lon="0.50093">
        <ele>202</ele>
        <time>2020-01-12T10:45:23.000Z</time>
      </trkpt>
      <trkpt lat="43.60818" lon="0.50095">
        <ele>202</ele>
        <time>2020-01-12T10:45:25.000Z</time>
      </trkpt>
      <trkpt lat="43.60816" lon="0.50097">
        <ele>202</ele>
        <time>2020-01-12T10:45:27.000Z</time>
      </trkpt>
      <trkpt lat="43.60814" lon="0.50099">
        <ele>202</ele>
        <time>2020-01-12T10:45:29.000Z</time>
      </trkpt>
      <trkpt lat="43.60811" lon="0.50101">
        <ele>202</ele>
        <time>2020-01-12T10:45:31.000Z</time>
      </trkpt>
      <trkpt lat="43.60809" lon="0.50102">
        <ele>202</ele>
        <time>2020-01-12T10:45:33.000Z</time>
      </trkpt>
      <trkpt lat="43.60806" lon="0.50105">
        <ele>202</ele>
        <time>2020-01-12T10:45:35.000Z</time>
      </trkpt>
      <trkpt lat="43.60803" lon="0.50107">
        <ele>203</ele>
        <time>2020-01-12T10:45:37.000Z</time>
      </trkpt>
      <trkpt lat="43.60801" lon="0.50109">
        <ele>203</ele>
        <time>2020-01-12T10:45:39.000Z</time>
      </trkpt>
      <trkpt lat="43.60799" lon="0.50111">
        <ele>203</ele>
        <time>2020-01-12T10:45:41.000Z</time>
      </trkpt>
      <trkpt lat="43.60796" lon="0.50113">
        <ele>203</ele>
        <time>2020-01-12T10:45:43.000Z</time>
      </trkpt>
      <trkpt lat="43.60794" lon="0.50115">
        <ele>203</ele>
        <time>2020-01-12T10:45:45.000Z</time>
      </trkpt>
      <trkpt lat="43.60791" lon="0.50116">
        <ele>204</ele>
        <time>2020-01-12T10:45:47.000Z</time>
      </trkpt>
      <trkpt lat="43.60789" lon="0.50118">
        <ele>204</ele>
        <time>2020-01-12T10:45:49.000Z</time>
      </trkpt>
      <trkpt lat="43.60786" lon="0.5012">
        <ele>204</ele>
        <time>2020-01-12T10:45:51.000Z</time>
      </trkpt>
      <trkpt lat="43.60784" lon="0.50122">
        <ele>204</ele>
        <time>2020-01-12T10:45:53.000Z</time>
      </trkpt>
      <trkpt lat="43.60781" lon="0.50123">
        <ele>204</ele>
        <time>2020-01-12T10:45:55.000Z</time>
      </trkpt>
      <trkpt lat="43.60779" lon="0.50125">
        <ele>204</ele>
        <time>2020-01-12T10:45:57.000Z</time>
      </trkpt>
      <trkpt lat="43.60776" lon="0.50128">
        <ele>204</ele>
        <time>2020-01-12T10:45:59.000Z</time>
      </trkpt>
      <trkpt lat="43.60775" lon="0.50128">
        <ele>205</ele>
        <time>2020-01-12T10:46:01.000Z</time>
      </trkpt>
      <trkpt lat="43.60772" lon="0.50131">
        <ele>205</ele>
        <time>2020-01-12T10:46:04.000Z</time>
      </trkpt>
      <trkpt lat="43.6077" lon="0.50132">
        <ele>205</ele>
        <time>2020-01-12T10:46:06.000Z</time>
      </trkpt>
      <trkpt lat="43.60769" lon="0.50134">
        <ele>205</ele>
        <time>2020-01-12T10:46:08.000Z</time>
      </trkpt>
      <trkpt lat="43.60766" lon="0.50136">
        <ele>205</ele>
        <time>2020-01-12T10:46:11.000Z</time>
      </trkpt>
      <trkpt lat="43.60764" lon="0.50137">
        <ele>205</ele>
        <time>2020-01-12T10:46:13.000Z</time>
      </trkpt>
      <trkpt lat="43.60762" lon="0.50139">
        <ele>205</ele>
        <time>2020-01-12T10:46:15.000Z</time>
      </trkpt>
      <trkpt lat="43.6076" lon="0.50141">
        <ele>206</ele>
        <time>2020-01-12T10:46:17.000Z</time>
      </trkpt>
      <trkpt lat="43.60758" lon="0.50144">
        <ele>206</ele>
        <time>2020-01-12T10:46:19.000Z</time>
      </trkpt>
      <trkpt lat="43.60756" lon="0.50146">
        <ele>206</ele>
        <time>2020-01-12T10:46:21.000Z</time>
      </trkpt>
      <trkpt lat="43.60755" lon="0.50148">
        <ele>206</ele>
        <time>2020-01-12T10:46:23.000Z</time>
      </trkpt>
      <trkpt lat="43.60753" lon="0.5015">
        <ele>206</ele>
        <time>2020-01-12T10:46:25.000Z</time>
      </trkpt>
      <trkpt lat="43.60751" lon="0.50151">
        <ele>207</ele>
        <time>2020-01-12T10:46:27.000Z</time>
      </trkpt>
      <trkpt lat="43.6075" lon="0.50153">
        <ele>207</ele>
        <time>2020-01-12T10:46:29.000Z</time>
      </trkpt>
      <trkpt lat="43.60748" lon="0.50155">
        <ele>207</ele>
        <time>2020-01-12T10:46:31.000Z</time>
      </trkpt>
      <trkpt lat="43.60747" lon="0.50157">
        <ele>207</ele>
        <time>2020-01-12T10:46:33.000Z</time>
      </trkpt>
      <trkpt lat="43.60746" lon="0.50159">
        <ele>207</ele>
        <time>2020-01-12T10:46:35.000Z</time>
      </trkpt>
      <trkpt lat="43.60745" lon="0.50161">
        <ele>207</ele>
        <time>2020-01-12T10:46:37.000Z</time>
      </trkpt>
      <trkpt lat="43.60743" lon="0.50164">
        <ele>208</ele>
        <time>2020-01-12T10:46:39.000Z</time>
      </trkpt>
      <trkpt lat="43.60741" lon="0.50167">
        <ele>208</ele>
        <time>2020-01-12T10:46:41.000Z</time>
      </trkpt>
      <trkpt lat="43.60738" lon="0.5017">
        <ele>208</ele>
        <time>2020-01-12T10:46:43.000Z</time>
      </trkpt>
      <trkpt lat="43.60737" lon="0.50173">
        <ele>209</ele>
        <time>2020-01-12T10:46:45.000Z</time>
      </trkpt>
      <trkpt lat="43.60735" lon="0.50176">
        <ele>209</ele>
        <time>2020-01-12T10:46:47.000Z</time>
      </trkpt>
      <trkpt lat="43.60734" lon="0.50178">
        <ele>209</ele>
        <time>2020-01-12T10:46:49.000Z</time>
      </trkpt>
      <trkpt lat="43.60731" lon="0.5018">
        <ele>209</ele>
        <time>2020-01-12T10:46:51.000Z</time>
      </trkpt>
      <trkpt lat="43.60729" lon="0.50182">
        <ele>209</ele>
        <time>2020-01-12T10:46:53.000Z</time>
      </trkpt>
      <trkpt lat="43.60727" lon="0.50184">
        <ele>210</ele>
        <time>2020-01-12T10:46:55.000Z</time>
      </trkpt>
      <trkpt lat="43.60725" lon="0.50186">
        <ele>210</ele>
        <time>2020-01-12T10:46:57.000Z</time>
      </trkpt>
      <trkpt lat="43.60723" lon="0.50187">
        <ele>210</ele>
        <time>2020-01-12T10:46:59.000Z</time>
      </trkpt>
      <trkpt lat="43.60721" lon="0.50188">
        <ele>210</ele>
        <time>2020-01-12T10:47:01.000Z</time>
      </trkpt>
      <trkpt lat="43.60719" lon="0.5019">
        <ele>210</ele>
        <time>2020-01-12T10:47:03.000Z</time>
      </trkpt>
      <trkpt lat="43.60717" lon="0.50191">
        <ele>210</ele>
        <time>2020-01-12T10:47:05.000Z</time>
      </trkpt>
      <trkpt lat="43.60714" lon="0.50192">
        <ele>210</ele>
        <time>2020-01-12T10:47:07.000Z</time>
      </trkpt>
      <trkpt lat="43.60711" lon="0.50193">
        <ele>210</ele>
        <time>2020-01-12T10:47:09.000Z</time>
      </trkpt>
      <trkpt lat="43.60708" lon="0.50193">
        <ele>210</ele>
        <time>2020-01-12T10:47:11.000Z</time>
      </trkpt>
      <trkpt lat="43.60705" lon="0.50193">
        <ele>210</ele>
        <time>2020-01-12T10:47:13.000Z</time>
      </trkpt>
      <trkpt lat="43.60703" lon="0.50193">
        <ele>210</ele>
        <time>2020-01-12T10:47:15.000Z</time>
      </trkpt>
      <trkpt lat="43.60701" lon="0.50192">
        <ele>210</ele>
        <time>2020-01-12T10:47:17.000Z</time>
      </trkpt>
      <trkpt lat="43.60699" lon="0.50191">
        <ele>210</ele>
        <time>2020-01-12T10:47:19.000Z</time>
      </trkpt>
      <trkpt lat="43.60696" lon="0.50189">
        <ele>210</ele>
        <time>2020-01-12T10:47:21.000Z</time>
      </trkpt>
      <trkpt lat="43.60696" lon="0.50188">
        <ele>210</ele>
        <time>2020-01-12T10:47:23.000Z</time>
      </trkpt>
      <trkpt lat="43.60695" lon="0.50186">
        <ele>209</ele>
        <time>2020-01-12T10:47:25.000Z</time>
      </trkpt>
      <trkpt lat="43.60693" lon="0.50183">
        <ele>209</ele>
        <time>2020-01-12T10:47:27.000Z</time>
      </trkpt>
      <trkpt lat="43.60691" lon="0.50182">
        <ele>209</ele>
        <time>2020-01-12T10:47:29.000Z</time>
      </trkpt>
      <trkpt lat="43.60688" lon="0.50181">
        <ele>209</ele>
        <time>2020-01-12T10:47:31.000Z</time>
      </trkpt>
      <trkpt lat="43.60686" lon="0.5018">
        <ele>209</ele>
        <time>2020-01-12T10:47:33.000Z</time>
      </trkpt>
      <trkpt lat="43.60684" lon="0.50179">
        <ele>209</ele>
        <time>2020-01-12T10:47:35.000Z</time>
      </trkpt>
      <trkpt lat="43.60681" lon="0.50179">
        <ele>209</ele>
        <time>2020-01-12T10:47:37.000Z</time>
      </trkpt>
      <trkpt lat="43.60677" lon="0.50177">
        <ele>209</ele>
        <time>2020-01-12T10:47:39.000Z</time>
      </trkpt>
      <trkpt lat="43.60675" lon="0.50176">
        <ele>209</ele>
        <time>2020-01-12T10:47:41.000Z</time>
      </trkpt>
      <trkpt lat="43.60672" lon="0.50175">
        <ele>208</ele>
        <time>2020-01-12T10:47:43.000Z</time>
      </trkpt>
      <trkpt lat="43.60669" lon="0.50173">
        <ele>208</ele>
        <time>2020-01-12T10:47:45.000Z</time>
      </trkpt>
      <trkpt lat="43.60667" lon="0.50172">
        <ele>208</ele>
        <time>2020-01-12T10:47:47.000Z</time>
      </trkpt>
      <trkpt lat="43.60664" lon="0.50171">
        <ele>208</ele>
        <time>2020-01-12T10:47:49.000Z</time>
      </trkpt>
      <trkpt lat="43.60661" lon="0.5017">
        <ele>208</ele>
        <time>2020-01-12T10:47:51.000Z</time>
      </trkpt>
      <trkpt lat="43.60658" lon="0.50169">
        <ele>208</ele>
        <time>2020-01-12T10:47:53.000Z</time>
      </trkpt>
      <trkpt lat="43.60656" lon="0.50168">
        <ele>208</ele>
        <time>2020-01-12T10:47:55.000Z</time>
      </trkpt>
      <trkpt lat="43.60654" lon="0.50167">
        <ele>208</ele>
        <time>2020-01-12T10:47:57.000Z</time>
      </trkpt>
      <trkpt lat="43.60651" lon="0.50166">
        <ele>208</ele>
        <time>2020-01-12T10:47:59.000Z</time>
      </trkpt>
      <trkpt lat="43.60648" lon="0.50165">
        <ele>208</ele>
        <time>2020-01-12T10:48:01.000Z</time>
      </trkpt>
      <trkpt lat="43.60645" lon="0.50163">
        <ele>208</ele>
        <time>2020-01-12T10:48:03.000Z</time>
      </trkpt>
      <trkpt lat="43.60643" lon="0.50162">
        <ele>208</ele>
        <time>2020-01-12T10:48:05.000Z</time>
      </trkpt>
      <trkpt lat="43.60641" lon="0.50161">
        <ele>208</ele>
        <time>2020-01-12T10:48:07.000Z</time>
      </trkpt>
      <trkpt lat="43.60638" lon="0.50161">
        <ele>208</ele>
        <time>2020-01-12T10:48:09.000Z</time>
      </trkpt>
      <trkpt lat="43.60635" lon="0.5016">
        <ele>208</ele>
        <time>2020-01-12T10:48:11.000Z</time>
      </trkpt>
      <trkpt lat="43.60633" lon="0.5016">
        <ele>208</ele>
        <time>2020-01-12T10:48:13.000Z</time>
      </trkpt>
      <trkpt lat="43.6063" lon="0.5016">
        <ele>208</ele>
        <time>2020-01-12T10:48:15.000Z</time>
      </trkpt>
      <trkpt lat="43.60628" lon="0.50159">
        <ele>208</ele>
        <time>2020-01-12T10:48:17.000Z</time>
      </trkpt>
      <trkpt lat="43.60627" lon="0.50158">
        <ele>208</ele>
        <time>2020-01-12T10:48:19.000Z</time>
      </trkpt>
      <trkpt lat="43.60624" lon="0.50158">
        <ele>208</ele>
        <time>2020-01-12T10:48:21.000Z</time>
      </trkpt>
      <trkpt lat="43.60622" lon="0.50157">
        <ele>208</ele>
        <time>2020-01-12T10:48:23.000Z</time>
      </trkpt>
      <trkpt lat="43.6062" lon="0.50156">
        <ele>209</ele>
        <time>2020-01-12T10:48:25.000Z</time>
      </trkpt>
      <trkpt lat="43.60617" lon="0.50156">
        <ele>209</ele>
        <time>2020-01-12T10:48:27.000Z</time>
      </trkpt>
      <trkpt lat="43.60615" lon="0.50156">
        <ele>209</ele>
        <time>2020-01-12T10:48:29.000Z</time>
      </trkpt>
      <trkpt lat="43.60613" lon="0.50155">
        <ele>209</ele>
        <time>2020-01-12T10:48:31.000Z</time>
      </trkpt>
      <trkpt lat="43.6061" lon="0.50156">
        <ele>210</ele>
        <time>2020-01-12T10:48:33.000Z</time>
      </trkpt>
      <trkpt lat="43.60607" lon="0.50156">
        <ele>210</ele>
        <time>2020-01-12T10:48:35.000Z</time>
      </trkpt>
      <trkpt lat="43.60605" lon="0.50156">
        <ele>210</ele>
        <time>2020-01-12T10:48:37.000Z</time>
      </trkpt>
      <trkpt lat="43.60603" lon="0.50156">
        <ele>210</ele>
        <time>2020-01-12T10:48:39.000Z</time>
      </trkpt>
      <trkpt lat="43.60601" lon="0.50156">
        <ele>210</ele>
        <time>2020-01-12T10:48:41.000Z</time>
      </trkpt>
      <trkpt lat="43.60599" lon="0.50156">
        <ele>210</ele>
        <time>2020-01-12T10:48:43.000Z</time>
      </trkpt>
      <trkpt lat="43.60597" lon="0.50156">
        <ele>210</ele>
        <time>2020-01-12T10:48:45.000Z</time>
      </trkpt>
      <trkpt lat="43.60595" lon="0.50156">
        <ele>210</ele>
        <time>2020-01-12T10:48:47.000Z</time>
      </trkpt>
      <trkpt lat="43.60593" lon="0.50156">
        <ele>209</ele>
        <time>2020-01-12T10:48:49.000Z</time>
      </trkpt>
      <trkpt lat="43.60591" lon="0.50156">
        <ele>209</ele>
        <time>2020-01-12T10:48:51.000Z</time>
      </trkpt>
      <trkpt lat="43.60589" lon="0.50157">
        <ele>209</ele>
        <time>2020-01-12T10:48:53.000Z</time>
      </trkpt>
      <trkpt lat="43.60587" lon="0.50157">
        <ele>209</ele>
        <time>2020-01-12T10:48:55.000Z</time>
      </trkpt>
      <trkpt lat="43.60584" lon="0.50158">
        <ele>209</ele>
        <time>2020-01-12T10:48:57.000Z</time>
      </trkpt>
      <trkpt lat="43.60582" lon="0.50158">
        <ele>209</ele>
        <time>2020-01-12T10:48:59.000Z</time>
      </trkpt>
      <trkpt lat="43.6058" lon="0.50159">
        <ele>208</ele>
        <time>2020-01-12T10:49:01.000Z</time>
      </trkpt>
      <trkpt lat="43.60578" lon="0.50159">
        <ele>208</ele>
        <time>2020-01-12T10:49:03.000Z</time>
      </trkpt>
      <trkpt lat="43.60576" lon="0.5016">
        <ele>208</ele>
        <time>2020-01-12T10:49:05.000Z</time>
      </trkpt>
      <trkpt lat="43.60574" lon="0.5016">
        <ele>208</ele>
        <time>2020-01-12T10:49:07.000Z</time>
      </trkpt>
      <trkpt lat="43.60573" lon="0.5016">
        <ele>208</ele>
        <time>2020-01-12T10:49:09.000Z</time>
      </trkpt>
      <trkpt lat="43.60569" lon="0.50161">
        <ele>207</ele>
        <time>2020-01-12T10:49:11.000Z</time>
      </trkpt>
      <trkpt lat="43.60567" lon="0.50163">
        <ele>207</ele>
        <time>2020-01-12T10:49:13.000Z</time>
      </trkpt>
      <trkpt lat="43.60564" lon="0.50165">
        <ele>207</ele>
        <time>2020-01-12T10:49:15.000Z</time>
      </trkpt>
      <trkpt lat="43.60562" lon="0.50167">
        <ele>208</ele>
        <time>2020-01-12T10:49:17.000Z</time>
      </trkpt>
      <trkpt lat="43.6056" lon="0.50168">
        <ele>208</ele>
        <time>2020-01-12T10:49:19.000Z</time>
      </trkpt>
      <trkpt lat="43.60558" lon="0.5017">
        <ele>208</ele>
        <time>2020-01-12T10:49:21.000Z</time>
      </trkpt>
      <trkpt lat="43.60556" lon="0.5017">
        <ele>207</ele>
        <time>2020-01-12T10:49:23.000Z</time>
      </trkpt>
      <trkpt lat="43.60553" lon="0.50172">
        <ele>208</ele>
        <time>2020-01-12T10:49:25.000Z</time>
      </trkpt>
      <trkpt lat="43.60551" lon="0.50173">
        <ele>208</ele>
        <time>2020-01-12T10:49:27.000Z</time>
      </trkpt>
      <trkpt lat="43.60548" lon="0.50175">
        <ele>208</ele>
        <time>2020-01-12T10:49:29.000Z</time>
      </trkpt>
      <trkpt lat="43.60546" lon="0.50176">
        <ele>208</ele>
        <time>2020-01-12T10:49:31.000Z</time>
      </trkpt>
      <trkpt lat="43.60543" lon="0.50178">
        <ele>208</ele>
        <time>2020-01-12T10:49:33.000Z</time>
      </trkpt>
      <trkpt lat="43.60542" lon="0.50179">
        <ele>208</ele>
        <time>2020-01-12T10:49:35.000Z</time>
      </trkpt>
      <trkpt lat="43.6054" lon="0.50181">
        <ele>208</ele>
        <time>2020-01-12T10:49:37.000Z</time>
      </trkpt>
      <trkpt lat="43.60537" lon="0.50182">
        <ele>208</ele>
        <time>2020-01-12T10:49:39.000Z</time>
      </trkpt>
      <trkpt lat="43.60535" lon="0.50183">
        <ele>209</ele>
        <time>2020-01-12T10:49:41.000Z</time>
      </trkpt>
      <trkpt lat="43.60533" lon="0.50185">
        <ele>209</ele>
        <time>2020-01-12T10:49:43.000Z</time>
      </trkpt>
      <trkpt lat="43.6053" lon="0.50186">
        <ele>209</ele>
        <time>2020-01-12T10:49:45.000Z</time>
      </trkpt>
      <trkpt lat="43.60528" lon="0.50187">
        <ele>209</ele>
        <time>2020-01-12T10:49:47.000Z</time>
      </trkpt>
      <trkpt lat="43.60527" lon="0.50188">
        <ele>209</ele>
        <time>2020-01-12T10:49:49.000Z</time>
      </trkpt>
      <trkpt lat="43.60525" lon="0.50189">
        <ele>209</ele>
        <time>2020-01-12T10:49:51.000Z</time>
      </trkpt>
      <trkpt lat="43.60523" lon="0.50191">
        <ele>209</ele>
        <time>2020-01-12T10:49:53.000Z</time>
      </trkpt>
      <trkpt lat="43.60521" lon="0.50193">
        <ele>209</ele>
        <time>2020-01-12T10:49:55.000Z</time>
      </trkpt>
      <trkpt lat="43.60519" lon="0.50195">
        <ele>210</ele>
        <time>2020-01-12T10:49:57.000Z</time>
      </trkpt>
      <trkpt lat="43.60517" lon="0.50196">
        <ele>210</ele>
        <time>2020-01-12T10:49:59.000Z</time>
      </trkpt>
      <trkpt lat="43.60515" lon="0.50198">
        <ele>211</ele>
        <time>2020-01-12T10:50:01.000Z</time>
      </trkpt>
      <trkpt lat="43.60513" lon="0.502">
        <ele>211</ele>
        <time>2020-01-12T10:50:03.000Z</time>
      </trkpt>
      <trkpt lat="43.60512" lon="0.50202">
        <ele>211</ele>
        <time>2020-01-12T10:50:05.000Z</time>
      </trkpt>
      <trkpt lat="43.60511" lon="0.50204">
        <ele>212</ele>
        <time>2020-01-12T10:50:07.000Z</time>
      </trkpt>
      <trkpt lat="43.60509" lon="0.50205">
        <ele>212</ele>
        <time>2020-01-12T10:50:09.000Z</time>
      </trkpt>
      <trkpt lat="43.60507" lon="0.50207">
        <ele>212</ele>
        <time>2020-01-12T10:50:11.000Z</time>
      </trkpt>
      <trkpt lat="43.60505" lon="0.50209">
        <ele>212</ele>
        <time>2020-01-12T10:50:13.000Z</time>
      </trkpt>
      <trkpt lat="43.60504" lon="0.5021">
        <ele>212</ele>
        <time>2020-01-12T10:50:15.000Z</time>
      </trkpt>
      <trkpt lat="43.60502" lon="0.50212">
        <ele>212</ele>
        <time>2020-01-12T10:50:17.000Z</time>
      </trkpt>
      <trkpt lat="43.60501" lon="0.50213">
        <ele>212</ele>
        <time>2020-01-12T10:50:19.000Z</time>
      </trkpt>
      <trkpt lat="43.60499" lon="0.50215">
        <ele>212</ele>
        <time>2020-01-12T10:50:21.000Z</time>
      </trkpt>
      <trkpt lat="43.60497" lon="0.50217">
        <ele>212</ele>
        <time>2020-01-12T10:50:23.000Z</time>
      </trkpt>
      <trkpt lat="43.60496" lon="0.50218">
        <ele>212</ele>
        <time>2020-01-12T10:50:25.000Z</time>
      </trkpt>
      <trkpt lat="43.60494" lon="0.5022">
        <ele>212</ele>
        <time>2020-01-12T10:50:27.000Z</time>
      </trkpt>
      <trkpt lat="43.60492" lon="0.50222">
        <ele>212</ele>
        <time>2020-01-12T10:50:29.000Z</time>
      </trkpt>
      <trkpt lat="43.6049" lon="0.50223">
        <ele>212</ele>
        <time>2020-01-12T10:50:31.000Z</time>
      </trkpt>
      <trkpt lat="43.60488" lon="0.50225">
        <ele>212</ele>
        <time>2020-01-12T10:50:33.000Z</time>
      </trkpt>
      <trkpt lat="43.60487" lon="0.50226">
        <ele>212</ele>
        <time>2020-01-12T10:50:35.000Z</time>
      </trkpt>
      <trkpt lat="43.60485" lon="0.50228">
        <ele>212</ele>
        <time>2020-01-12T10:50:37.000Z</time>
      </trkpt>
      <trkpt lat="43.60484" lon="0.50229">
        <ele>212</ele>
        <time>2020-01-12T10:50:39.000Z</time>
      </trkpt>
      <trkpt lat="43.60482" lon="0.50231">
        <ele>211</ele>
        <time>2020-01-12T10:50:41.000Z</time>
      </trkpt>
      <trkpt lat="43.60481" lon="0.50233">
        <ele>212</ele>
        <time>2020-01-12T10:50:43.000Z</time>
      </trkpt>
      <trkpt lat="43.60478" lon="0.50237">
        <ele>212</ele>
        <time>2020-01-12T10:50:45.000Z</time>
      </trkpt>
      <trkpt lat="43.60475" lon="0.50239">
        <ele>211</ele>
        <time>2020-01-12T10:50:47.000Z</time>
      </trkpt>
      <trkpt lat="43.60473" lon="0.50241">
        <ele>211</ele>
        <time>2020-01-12T10:50:49.000Z</time>
      </trkpt>
      <trkpt lat="43.60472" lon="0.50243">
        <ele>211</ele>
        <time>2020-01-12T10:50:51.000Z</time>
      </trkpt>
      <trkpt lat="43.60469" lon="0.50245">
        <ele>211</ele>
        <time>2020-01-12T10:50:53.000Z</time>
      </trkpt>
      <trkpt lat="43.60467" lon="0.50248">
        <ele>211</ele>
        <time>2020-01-12T10:50:55.000Z</time>
      </trkpt>
      <trkpt lat="43.60465" lon="0.5025">
        <ele>211</ele>
        <time>2020-01-12T10:50:57.000Z</time>
      </trkpt>
      <trkpt lat="43.60463" lon="0.50252">
        <ele>211</ele>
        <time>2020-01-12T10:50:59.000Z</time>
      </trkpt>
      <trkpt lat="43.60461" lon="0.50255">
        <ele>211</ele>
        <time>2020-01-12T10:51:01.000Z</time>
      </trkpt>
      <trkpt lat="43.60459" lon="0.50256">
        <ele>211</ele>
        <time>2020-01-12T10:51:03.000Z</time>
      </trkpt>
      <trkpt lat="43.60458" lon="0.50257">
        <ele>211</ele>
        <time>2020-01-12T10:51:05.000Z</time>
      </trkpt>
      <trkpt lat="43.60456" lon="0.50259">
        <ele>211</ele>
        <time>2020-01-12T10:51:07.000Z</time>
      </trkpt>
      <trkpt lat="43.60454" lon="0.5026">
        <ele>211</ele>
        <time>2020-01-12T10:51:09.000Z</time>
      </trkpt>
      <trkpt lat="43.60453" lon="0.5026">
        <ele>211</ele>
        <time>2020-01-12T10:51:11.000Z</time>
      </trkpt>
      <trkpt lat="43.60452" lon="0.50261">
        <ele>211</ele>
        <time>2020-01-12T10:51:13.000Z</time>
      </trkpt>
      <trkpt lat="43.6045" lon="0.50262">
        <ele>211</ele>
        <time>2020-01-12T10:51:15.000Z</time>
      </trkpt>
      <trkpt lat="43.60449" lon="0.50263">
        <ele>211</ele>
        <time>2020-01-12T10:51:17.000Z</time>
      </trkpt>
      <trkpt lat="43.60447" lon="0.50265">
        <ele>211</ele>
        <time>2020-01-12T10:51:19.000Z</time>
      </trkpt>
      <trkpt lat="43.60446" lon="0.50266">
        <ele>211</ele>
        <time>2020-01-12T10:51:21.000Z</time>
      </trkpt>
      <trkpt lat="43.60443" lon="0.50267">
        <ele>211</ele>
        <time>2020-01-12T10:51:23.000Z</time>
      </trkpt>
      <trkpt lat="43.60441" lon="0.50268">
        <ele>210</ele>
        <time>2020-01-12T10:51:25.000Z</time>
      </trkpt>
      <trkpt lat="43.60439" lon="0.50268">
        <ele>210</ele>
        <time>2020-01-12T10:51:27.000Z</time>
      </trkpt>
      <trkpt lat="43.60437" lon="0.50269">
        <ele>210</ele>
        <time>2020-01-12T10:51:29.000Z</time>
      </trkpt>
      <trkpt lat="43.60435" lon="0.50269">
        <ele>210</ele>
        <time>2020-01-12T10:51:31.000Z</time>
      </trkpt>
      <trkpt lat="43.60434" lon="0.50269">
        <ele>210</ele>
        <time>2020-01-12T10:51:33.000Z</time>
      </trkpt>
      <trkpt lat="43.60432" lon="0.50268">
        <ele>210</ele>
        <time>2020-01-12T10:51:35.000Z</time>
      </trkpt>
      <trkpt lat="43.60431" lon="0.50268">
        <ele>210</ele>
        <time>2020-01-12T10:51:37.000Z</time>
      </trkpt>
      <trkpt lat="43.60429" lon="0.50268">
        <ele>210</ele>
        <time>2020-01-12T10:51:39.000Z</time>
      </trkpt>
      <trkpt lat="43.60428" lon="0.50267">
        <ele>210</ele>
        <time>2020-01-12T10:51:41.000Z</time>
      </trkpt>
      <trkpt lat="43.60427" lon="0.50265">
        <ele>210</ele>
        <time>2020-01-12T10:51:43.000Z</time>
      </trkpt>
      <trkpt lat="43.60426" lon="0.50264">
        <ele>210</ele>
        <time>2020-01-12T10:51:45.000Z</time>
      </trkpt>
      <trkpt lat="43.60424" lon="0.50264">
        <ele>209</ele>
        <time>2020-01-12T10:51:47.000Z</time>
      </trkpt>
      <trkpt lat="43.60422" lon="0.50264">
        <ele>210</ele>
        <time>2020-01-12T10:51:49.000Z</time>
      </trkpt>
      <trkpt lat="43.6042" lon="0.50263">
        <ele>210</ele>
        <time>2020-01-12T10:51:51.000Z</time>
      </trkpt>
      <trkpt lat="43.60418" lon="0.50262">
        <ele>209</ele>
        <time>2020-01-12T10:51:53.000Z</time>
      </trkpt>
      <trkpt lat="43.60417" lon="0.50261">
        <ele>209</ele>
        <time>2020-01-12T10:51:55.000Z</time>
      </trkpt>
      <trkpt lat="43.60415" lon="0.5026">
        <ele>209</ele>
        <time>2020-01-12T10:51:57.000Z</time>
      </trkpt>
      <trkpt lat="43.60414" lon="0.50258">
        <ele>209</ele>
        <time>2020-01-12T10:51:59.000Z</time>
      </trkpt>
      <trkpt lat="43.60411" lon="0.50257">
        <ele>209</ele>
        <time>2020-01-12T10:52:01.000Z</time>
      </trkpt>
      <trkpt lat="43.60408" lon="0.50257">
        <ele>209</ele>
        <time>2020-01-12T10:52:03.000Z</time>
      </trkpt>
      <trkpt lat="43.60405" lon="0.50256">
        <ele>209</ele>
        <time>2020-01-12T10:52:05.000Z</time>
      </trkpt>
      <trkpt lat="43.60402" lon="0.50256">
        <ele>209</ele>
        <time>2020-01-12T10:52:07.000Z</time>
      </trkpt>
      <trkpt lat="43.604" lon="0.50256">
        <ele>209</ele>
        <time>2020-01-12T10:52:09.000Z</time>
      </trkpt>
      <trkpt lat="43.60398" lon="0.50256">
        <ele>209</ele>
        <time>2020-01-12T10:52:11.000Z</time>
      </trkpt>
      <trkpt lat="43.60397" lon="0.50256">
        <ele>209</ele>
        <time>2020-01-12T10:52:13.000Z</time>
      </trkpt>
      <trkpt lat="43.60395" lon="0.50256">
        <ele>209</ele>
        <time>2020-01-12T10:52:15.000Z</time>
      </trkpt>
      <trkpt lat="43.60393" lon="0.50257">
        <ele>209</ele>
        <time>2020-01-12T10:52:17.000Z</time>
      </trkpt>
      <trkpt lat="43.60391" lon="0.50255">
        <ele>209</ele>
        <time>2020-01-12T10:52:19.000Z</time>
      </trkpt>
      <trkpt lat="43.6039" lon="0.50254">
        <ele>209</ele>
        <time>2020-01-12T10:52:21.000Z</time>
      </trkpt>
      <trkpt lat="43.60389" lon="0.50252">
        <ele>209</ele>
        <time>2020-01-12T10:52:23.000Z</time>
      </trkpt>
      <trkpt lat="43.60389" lon="0.5025">
        <ele>209</ele>
        <time>2020-01-12T10:52:25.000Z</time>
      </trkpt>
      <trkpt lat="43.60389" lon="0.50249">
        <ele>208</ele>
        <time>2020-01-12T10:52:27.000Z</time>
      </trkpt>
      <trkpt lat="43.60389" lon="0.50248">
        <ele>208</ele>
        <time>2020-01-12T10:52:29.000Z</time>
      </trkpt>
      <trkpt lat="43.60388" lon="0.50248">
        <ele>208</ele>
        <time>2020-01-12T10:52:31.000Z</time>
      </trkpt>
      <trkpt lat="43.60388" lon="0.50248">
        <ele>208</ele>
        <time>2020-01-12T10:52:33.000Z</time>
      </trkpt>
      <trkpt lat="43.60389" lon="0.50248">
        <ele>208</ele>
        <time>2020-01-12T10:52:35.000Z</time>
      </trkpt>
      <trkpt lat="43.60388" lon="0.50248">
        <ele>208</ele>
        <time>2020-01-12T10:52:37.000Z</time>
      </trkpt>
      <trkpt lat="43.60388" lon="0.50248">
        <ele>208</ele>
        <time>2020-01-12T10:52:39.000Z</time>
      </trkpt>
      <trkpt lat="43.60388" lon="0.50248">
        <ele>208</ele>
        <time>2020-01-12T10:52:41.000Z</time>
      </trkpt>
      <trkpt lat="43.60388" lon="0.50248">
        <ele>208</ele>
        <time>2020-01-12T10:52:43.000Z</time>
      </trkpt>
      <trkpt lat="43.60388" lon="0.50247">
        <ele>208</ele>
        <time>2020-01-12T10:52:45.000Z</time>
      </trkpt>
      <trkpt lat="43.60388" lon="0.50247">
        <ele>208</ele>
        <time>2020-01-12T10:52:47.000Z</time>
      </trkpt>
      <trkpt lat="43.60388" lon="0.50248">
        <ele>208</ele>
        <time>2020-01-12T10:52:49.000Z</time>
      </trkpt>
      <trkpt lat="43.60388" lon="0.50248">
        <ele>208</ele>
        <time>2020-01-12T10:52:51.000Z</time>
      </trkpt>
      <trkpt lat="43.60388" lon="0.50248">
        <ele>208</ele>
        <time>2020-01-12T10:52:53.000Z</time>
      </trkpt>
      <trkpt lat="43.60388" lon="0.50248">
        <ele>208</ele>
        <time>2020-01-12T10:52:55.000Z</time>
      </trkpt>
      <trkpt lat="43.60388" lon="0.50248">
        <ele>208</ele>
        <time>2020-01-12T10:52:57.000Z</time>
      </trkpt>
      <trkpt lat="43.60389" lon="0.50249">
        <ele>208</ele>
        <time>2020-01-12T10:52:59.000Z</time>
      </trkpt>
      <trkpt lat="43.6039" lon="0.50249">
        <ele>208</ele>
        <time>2020-01-12T10:53:01.000Z</time>
      </trkpt>
      <trkpt lat="43.6039" lon="0.50249">
        <ele>208</ele>
        <time>2020-01-12T10:53:03.000Z</time>
      </trkpt>
      <trkpt lat="43.6039" lon="0.50249">
        <ele>208</ele>
        <time>2020-01-12T10:53:05.000Z</time>
      </trkpt>
      <trkpt lat="43.60391" lon="0.50249">
        <ele>208</ele>
        <time>2020-01-12T10:53:07.000Z</time>
      </trkpt>
      <trkpt lat="43.60392" lon="0.50249">
        <ele>208</ele>
        <time>2020-01-12T10:53:09.000Z</time>
      </trkpt>
      <trkpt lat="43.60392" lon="0.50248">
        <ele>208</ele>
        <time>2020-01-12T10:53:11.000Z</time>
      </trkpt>
      <trkpt lat="43.60393" lon="0.50248">
        <ele>208</ele>
        <time>2020-01-12T10:53:13.000Z</time>
      </trkpt>
      <trkpt lat="43.60393" lon="0.50249">
        <ele>208</ele>
        <time>2020-01-12T10:53:16.000Z</time>
      </trkpt>
      <trkpt lat="43.60393" lon="0.50249">
        <ele>208</ele>
        <time>2020-01-12T10:53:18.000Z</time>
      </trkpt>
      <trkpt lat="43.60393" lon="0.50249">
        <ele>208</ele>
        <time>2020-01-12T10:53:20.000Z</time>
      </trkpt>
      <trkpt lat="43.60393" lon="0.50249">
        <ele>208</ele>
        <time>2020-01-12T10:53:22.000Z</time>
      </trkpt>
      <trkpt lat="43.60393" lon="0.50248">
        <ele>208</ele>
        <time>2020-01-12T10:53:24.000Z</time>
      </trkpt>
      <trkpt lat="43.60393" lon="0.50249">
        <ele>208</ele>
        <time>2020-01-12T10:53:26.000Z</time>
      </trkpt>
      <trkpt lat="43.60393" lon="0.50249">
        <ele>208</ele>
        <time>2020-01-12T10:53:28.000Z</time>
      </trkpt>
      <trkpt lat="43.60393" lon="0.50249">
        <ele>208</ele>
        <time>2020-01-12T10:53:30.000Z</time>
      </trkpt>
      <trkpt lat="43.60393" lon="0.50249">
        <ele>208</ele>
        <time>2020-01-12T10:53:32.000Z</time>
      </trkpt>
      <trkpt lat="43.60393" lon="0.50248">
        <ele>208</ele>
        <time>2020-01-12T10:53:34.000Z</time>
      </trkpt>
      <trkpt lat="43.60394" lon="0.50248">
        <ele>208</ele>
        <time>2020-01-12T10:53:36.000Z</time>
      </trkpt>
      <trkpt lat="43.60394" lon="0.50248">
        <ele>208</ele>
        <time>2020-01-12T10:53:38.000Z</time>
      </trkpt>
      <trkpt lat="43.60395" lon="0.50248">
        <ele>208</ele>
        <time>2020-01-12T10:53:40.000Z</time>
      </trkpt>
      <trkpt lat="43.60395" lon="0.50248">
        <ele>208</ele>
        <time>2020-01-12T10:53:42.000Z</time>
      </trkpt>
      <trkpt lat="43.60395" lon="0.50249">
        <ele>208</ele>
        <time>2020-01-12T10:53:44.000Z</time>
      </trkpt>
      <trkpt lat="43.60395" lon="0.50249">
        <ele>208</ele>
        <time>2020-01-12T10:53:46.000Z</time>
      </trkpt>
      <trkpt lat="43.60395" lon="0.5025">
        <ele>208</ele>
        <time>2020-01-12T10:53:48.000Z</time>
      </trkpt>
      <trkpt lat="43.60394" lon="0.50251">
        <ele>208</ele>
        <time>2020-01-12T10:53:50.000Z</time>
      </trkpt>
      <trkpt lat="43.60393" lon="0.50251">
        <ele>209</ele>
        <time>2020-01-12T10:53:52.000Z</time>
      </trkpt>
      <trkpt lat="43.60392" lon="0.50252">
        <ele>209</ele>
        <time>2020-01-12T10:53:54.000Z</time>
      </trkpt>
      <trkpt lat="43.60391" lon="0.50253">
        <ele>209</ele>
        <time>2020-01-12T10:53:56.000Z</time>
      </trkpt>
      <trkpt lat="43.6039" lon="0.50253">
        <ele>209</ele>
        <time>2020-01-12T10:53:58.000Z</time>
      </trkpt>
      <trkpt lat="43.6039" lon="0.50253">
        <ele>209</ele>
        <time>2020-01-12T10:54:00.000Z</time>
      </trkpt>
      <trkpt lat="43.60389" lon="0.50253">
        <ele>209</ele>
        <time>2020-01-12T10:54:02.000Z</time>
      </trkpt>
      <trkpt lat="43.60389" lon="0.50253">
        <ele>209</ele>
        <time>2020-01-12T10:54:04.000Z</time>
      </trkpt>
      <trkpt lat="43.60388" lon="0.50253">
        <ele>209</ele>
        <time>2020-01-12T10:54:06.000Z</time>
      </trkpt>
      <trkpt lat="43.60389" lon="0.50253">
        <ele>209</ele>
        <time>2020-01-12T10:54:08.000Z</time>
      </trkpt>
      <trkpt lat="43.60389" lon="0.50253">
        <ele>209</ele>
        <time>2020-01-12T10:54:10.000Z</time>
      </trkpt>
      <trkpt lat="43.60389" lon="0.50252">
        <ele>209</ele>
        <time>2020-01-12T10:54:12.000Z</time>
      </trkpt>
      <trkpt lat="43.60391" lon="0.50251">
        <ele>209</ele>
        <time>2020-01-12T10:54:14.000Z</time>
      </trkpt>
      <trkpt lat="43.60391" lon="0.50249">
        <ele>208</ele>
        <time>2020-01-12T10:54:16.000Z</time>
      </trkpt>
      <trkpt lat="43.60391" lon="0.50249">
        <ele>208</ele>
        <time>2020-01-12T10:54:18.000Z</time>
      </trkpt>
      <trkpt lat="43.60391" lon="0.50249">
        <ele>208</ele>
        <time>2020-01-12T10:54:20.000Z</time>
      </trkpt>
      <trkpt lat="43.60391" lon="0.5025">
        <ele>208</ele>
        <time>2020-01-12T10:54:22.000Z</time>
      </trkpt>
      <trkpt lat="43.60392" lon="0.5025">
        <ele>208</ele>
        <time>2020-01-12T10:54:24.000Z</time>
      </trkpt>
      <trkpt lat="43.60391" lon="0.5025">
        <ele>209</ele>
        <time>2020-01-12T10:54:26.000Z</time>
      </trkpt>
      <trkpt lat="43.60391" lon="0.50251">
        <ele>209</ele>
        <time>2020-01-12T10:54:28.000Z</time>
      </trkpt>
      <trkpt lat="43.6039" lon="0.50251">
        <ele>209</ele>
        <time>2020-01-12T10:54:30.000Z</time>
      </trkpt>
      <trkpt lat="43.60389" lon="0.50252">
        <ele>209</ele>
        <time>2020-01-12T10:54:32.000Z</time>
      </trkpt>
      <trkpt lat="43.60388" lon="0.50252">
        <ele>209</ele>
        <time>2020-01-12T10:54:34.000Z</time>
      </trkpt>
      <trkpt lat="43.60387" lon="0.50253">
        <ele>209</ele>
        <time>2020-01-12T10:54:36.000Z</time>
      </trkpt>
      <trkpt lat="43.60385" lon="0.50254">
        <ele>209</ele>
        <time>2020-01-12T10:54:38.000Z</time>
      </trkpt>
      <trkpt lat="43.60383" lon="0.50254">
        <ele>209</ele>
        <time>2020-01-12T10:54:40.000Z</time>
      </trkpt>
      <trkpt lat="43.60381" lon="0.50255">
        <ele>210</ele>
        <time>2020-01-12T10:54:42.000Z</time>
      </trkpt>
      <trkpt lat="43.60379" lon="0.50255">
        <ele>210</ele>
        <time>2020-01-12T10:54:44.000Z</time>
      </trkpt>
      <trkpt lat="43.60376" lon="0.50256">
        <ele>210</ele>
        <time>2020-01-12T10:54:46.000Z</time>
      </trkpt>
      <trkpt lat="43.60374" lon="0.50256">
        <ele>210</ele>
        <time>2020-01-12T10:54:48.000Z</time>
      </trkpt>
      <trkpt lat="43.60373" lon="0.50256">
        <ele>210</ele>
        <time>2020-01-12T10:54:50.000Z</time>
      </trkpt>
      <trkpt lat="43.60371" lon="0.50256">
        <ele>210</ele>
        <time>2020-01-12T10:54:52.000Z</time>
      </trkpt>
      <trkpt lat="43.60369" lon="0.50256">
        <ele>210</ele>
        <time>2020-01-12T10:54:54.000Z</time>
      </trkpt>
      <trkpt lat="43.60367" lon="0.50256">
        <ele>210</ele>
        <time>2020-01-12T10:54:56.000Z</time>
      </trkpt>
      <trkpt lat="43.60364" lon="0.50256">
        <ele>210</ele>
        <time>2020-01-12T10:54:58.000Z</time>
      </trkpt>
      <trkpt lat="43.60362" lon="0.50256">
        <ele>211</ele>
        <time>2020-01-12T10:55:00.000Z</time>
      </trkpt>
      <trkpt lat="43.6036" lon="0.50256">
        <ele>211</ele>
        <time>2020-01-12T10:55:02.000Z</time>
      </trkpt>
      <trkpt lat="43.60358" lon="0.50256">
        <ele>211</ele>
        <time>2020-01-12T10:55:04.000Z</time>
      </trkpt>
      <trkpt lat="43.60357" lon="0.50255">
        <ele>211</ele>
        <time>2020-01-12T10:55:06.000Z</time>
      </trkpt>
      <trkpt lat="43.60354" lon="0.50255">
        <ele>211</ele>
        <time>2020-01-12T10:55:08.000Z</time>
      </trkpt>
      <trkpt lat="43.60352" lon="0.50255">
        <ele>211</ele>
        <time>2020-01-12T10:55:10.000Z</time>
      </trkpt>
      <trkpt lat="43.60351" lon="0.50256">
        <ele>211</ele>
        <time>2020-01-12T10:55:12.000Z</time>
      </trkpt>
      <trkpt lat="43.6035" lon="0.50255">
        <ele>211</ele>
        <time>2020-01-12T10:55:14.000Z</time>
      </trkpt>
      <trkpt lat="43.60348" lon="0.50256">
        <ele>211</ele>
        <time>2020-01-12T10:55:16.000Z</time>
      </trkpt>
      <trkpt lat="43.60345" lon="0.50256">
        <ele>210</ele>
        <time>2020-01-12T10:55:18.000Z</time>
      </trkpt>
      <trkpt lat="43.60343" lon="0.50258">
        <ele>210</ele>
        <time>2020-01-12T10:55:20.000Z</time>
      </trkpt>
      <trkpt lat="43.60341" lon="0.50259">
        <ele>210</ele>
        <time>2020-01-12T10:55:22.000Z</time>
      </trkpt>
      <trkpt lat="43.60338" lon="0.5026">
        <ele>210</ele>
        <time>2020-01-12T10:55:24.000Z</time>
      </trkpt>
      <trkpt lat="43.60335" lon="0.5026">
        <ele>210</ele>
        <time>2020-01-12T10:55:26.000Z</time>
      </trkpt>
      <trkpt lat="43.60333" lon="0.50261">
        <ele>210</ele>
        <time>2020-01-12T10:55:28.000Z</time>
      </trkpt>
      <trkpt lat="43.6033" lon="0.50262">
        <ele>209</ele>
        <time>2020-01-12T10:55:30.000Z</time>
      </trkpt>
      <trkpt lat="43.60328" lon="0.50263">
        <ele>209</ele>
        <time>2020-01-12T10:55:32.000Z</time>
      </trkpt>
      <trkpt lat="43.60326" lon="0.50264">
        <ele>209</ele>
        <time>2020-01-12T10:55:34.000Z</time>
      </trkpt>
      <trkpt lat="43.60324" lon="0.50265">
        <ele>209</ele>
        <time>2020-01-12T10:55:36.000Z</time>
      </trkpt>
      <trkpt lat="43.60322" lon="0.50266">
        <ele>209</ele>
        <time>2020-01-12T10:55:38.000Z</time>
      </trkpt>
      <trkpt lat="43.6032" lon="0.50266">
        <ele>209</ele>
        <time>2020-01-12T10:55:40.000Z</time>
      </trkpt>
      <trkpt lat="43.60317" lon="0.50266">
        <ele>209</ele>
        <time>2020-01-12T10:55:42.000Z</time>
      </trkpt>
      <trkpt lat="43.60316" lon="0.50267">
        <ele>208</ele>
        <time>2020-01-12T10:55:44.000Z</time>
      </trkpt>
      <trkpt lat="43.60314" lon="0.50268">
        <ele>208</ele>
        <time>2020-01-12T10:55:46.000Z</time>
      </trkpt>
      <trkpt lat="43.60312" lon="0.50269">
        <ele>208</ele>
        <time>2020-01-12T10:55:48.000Z</time>
      </trkpt>
      <trkpt lat="43.6031" lon="0.5027">
        <ele>207</ele>
        <time>2020-01-12T10:55:50.000Z</time>
      </trkpt>
      <trkpt lat="43.60308" lon="0.50271">
        <ele>207</ele>
        <time>2020-01-12T10:55:52.000Z</time>
      </trkpt>
      <trkpt lat="43.60306" lon="0.50273">
        <ele>207</ele>
        <time>2020-01-12T10:55:54.000Z</time>
      </trkpt>
      <trkpt lat="43.60304" lon="0.50275">
        <ele>207</ele>
        <time>2020-01-12T10:55:56.000Z</time>
      </trkpt>
      <trkpt lat="43.60302" lon="0.50276">
        <ele>207</ele>
        <time>2020-01-12T10:55:58.000Z</time>
      </trkpt>
      <trkpt lat="43.603" lon="0.50278">
        <ele>206</ele>
        <time>2020-01-12T10:56:00.000Z</time>
      </trkpt>
      <trkpt lat="43.60298" lon="0.5028">
        <ele>206</ele>
        <time>2020-01-12T10:56:02.000Z</time>
      </trkpt>
      <trkpt lat="43.60297" lon="0.50281">
        <ele>206</ele>
        <time>2020-01-12T10:56:04.000Z</time>
      </trkpt>
      <trkpt lat="43.60295" lon="0.50282">
        <ele>206</ele>
        <time>2020-01-12T10:56:06.000Z</time>
      </trkpt>
      <trkpt lat="43.60294" lon="0.50284">
        <ele>206</ele>
        <time>2020-01-12T10:56:08.000Z</time>
      </trkpt>
      <trkpt lat="43.60292" lon="0.50285">
        <ele>205</ele>
        <time>2020-01-12T10:56:10.000Z</time>
      </trkpt>
      <trkpt lat="43.6029" lon="0.50287">
        <ele>205</ele>
        <time>2020-01-12T10:56:12.000Z</time>
      </trkpt>
      <trkpt lat="43.60289" lon="0.50289">
        <ele>205</ele>
        <time>2020-01-12T10:56:14.000Z</time>
      </trkpt>
      <trkpt lat="43.60287" lon="0.50292">
        <ele>205</ele>
        <time>2020-01-12T10:56:16.000Z</time>
      </trkpt>
      <trkpt lat="43.60285" lon="0.50294">
        <ele>205</ele>
        <time>2020-01-12T10:56:18.000Z</time>
      </trkpt>
      <trkpt lat="43.60283" lon="0.50296">
        <ele>205</ele>
        <time>2020-01-12T10:56:20.000Z</time>
      </trkpt>
      <trkpt lat="43.60282" lon="0.50299">
        <ele>204</ele>
        <time>2020-01-12T10:56:22.000Z</time>
      </trkpt>
      <trkpt lat="43.6028" lon="0.50301">
        <ele>204</ele>
        <time>2020-01-12T10:56:24.000Z</time>
      </trkpt>
      <trkpt lat="43.60278" lon="0.50303">
        <ele>204</ele>
        <time>2020-01-12T10:56:26.000Z</time>
      </trkpt>
      <trkpt lat="43.60277" lon="0.50306">
        <ele>204</ele>
        <time>2020-01-12T10:56:28.000Z</time>
      </trkpt>
      <trkpt lat="43.60275" lon="0.50308">
        <ele>204</ele>
        <time>2020-01-12T10:56:30.000Z</time>
      </trkpt>
      <trkpt lat="43.60273" lon="0.5031">
        <ele>204</ele>
        <time>2020-01-12T10:56:32.000Z</time>
      </trkpt>
      <trkpt lat="43.60271" lon="0.50311">
        <ele>203</ele>
        <time>2020-01-12T10:56:34.000Z</time>
      </trkpt>
      <trkpt lat="43.60269" lon="0.50313">
        <ele>203</ele>
        <time>2020-01-12T10:56:36.000Z</time>
      </trkpt>
      <trkpt lat="43.60268" lon="0.50315">
        <ele>203</ele>
        <time>2020-01-12T10:56:38.000Z</time>
      </trkpt>
      <trkpt lat="43.60266" lon="0.50316">
        <ele>203</ele>
        <time>2020-01-12T10:56:40.000Z</time>
      </trkpt>
      <trkpt lat="43.60264" lon="0.50318">
        <ele>203</ele>
        <time>2020-01-12T10:56:42.000Z</time>
      </trkpt>
      <trkpt lat="43.60261" lon="0.50319">
        <ele>203</ele>
        <time>2020-01-12T10:56:44.000Z</time>
      </trkpt>
      <trkpt lat="43.60259" lon="0.50321">
        <ele>203</ele>
        <time>2020-01-12T10:56:46.000Z</time>
      </trkpt>
      <trkpt lat="43.60257" lon="0.50322">
        <ele>203</ele>
        <time>2020-01-12T10:56:48.000Z</time>
      </trkpt>
      <trkpt lat="43.60255" lon="0.50323">
        <ele>203</ele>
        <time>2020-01-12T10:56:50.000Z</time>
      </trkpt>
      <trkpt lat="43.60253" lon="0.50324">
        <ele>203</ele>
        <time>2020-01-12T10:56:52.000Z</time>
      </trkpt>
      <trkpt lat="43.60251" lon="0.50324">
        <ele>203</ele>
        <time>2020-01-12T10:56:54.000Z</time>
      </trkpt>
      <trkpt lat="43.60248" lon="0.50325">
        <ele>203</ele>
        <time>2020-01-12T10:56:56.000Z</time>
      </trkpt>
      <trkpt lat="43.60247" lon="0.50326">
        <ele>203</ele>
        <time>2020-01-12T10:56:58.000Z</time>
      </trkpt>
      <trkpt lat="43.60245" lon="0.50326">
        <ele>203</ele>
        <time>2020-01-12T10:57:00.000Z</time>
      </trkpt>
      <trkpt lat="43.60243" lon="0.50327">
        <ele>203</ele>
        <time>2020-01-12T10:57:02.000Z</time>
      </trkpt>
      <trkpt lat="43.6024" lon="0.50327">
        <ele>203</ele>
        <time>2020-01-12T10:57:04.000Z</time>
      </trkpt>
      <trkpt lat="43.60239" lon="0.50328">
        <ele>203</ele>
        <time>2020-01-12T10:57:06.000Z</time>
      </trkpt>
      <trkpt lat="43.60235" lon="0.50329">
        <ele>203</ele>
        <time>2020-01-12T10:57:08.000Z</time>
      </trkpt>
      <trkpt lat="43.60234" lon="0.50329">
        <ele>203</ele>
        <time>2020-01-12T10:57:10.000Z</time>
      </trkpt>
      <trkpt lat="43.60232" lon="0.50329">
        <ele>203</ele>
        <time>2020-01-12T10:57:12.000Z</time>
      </trkpt>
      <trkpt lat="43.6023" lon="0.50329">
        <ele>203</ele>
        <time>2020-01-12T10:57:14.000Z</time>
      </trkpt>
      <trkpt lat="43.60227" lon="0.50329">
        <ele>203</ele>
        <time>2020-01-12T10:57:16.000Z</time>
      </trkpt>
      <trkpt lat="43.60225" lon="0.5033">
        <ele>203</ele>
        <time>2020-01-12T10:57:18.000Z</time>
      </trkpt>
      <trkpt lat="43.60223" lon="0.5033">
        <ele>203</ele>
        <time>2020-01-12T10:57:20.000Z</time>
      </trkpt>
      <trkpt lat="43.60221" lon="0.50331">
        <ele>203</ele>
        <time>2020-01-12T10:57:22.000Z</time>
      </trkpt>
      <trkpt lat="43.60219" lon="0.50331">
        <ele>203</ele>
        <time>2020-01-12T10:57:24.000Z</time>
      </trkpt>
      <trkpt lat="43.60217" lon="0.50331">
        <ele>203</ele>
        <time>2020-01-12T10:57:26.000Z</time>
      </trkpt>
      <trkpt lat="43.60215" lon="0.50331">
        <ele>203</ele>
        <time>2020-01-12T10:57:28.000Z</time>
      </trkpt>
      <trkpt lat="43.60214" lon="0.50331">
        <ele>203</ele>
        <time>2020-01-12T10:57:30.000Z</time>
      </trkpt>
      <trkpt lat="43.60212" lon="0.50331">
        <ele>203</ele>
        <time>2020-01-12T10:57:32.000Z</time>
      </trkpt>
      <trkpt lat="43.60211" lon="0.50332">
        <ele>203</ele>
        <time>2020-01-12T10:57:34.000Z</time>
      </trkpt>
      <trkpt lat="43.60209" lon="0.50332">
        <ele>203</ele>
        <time>2020-01-12T10:57:36.000Z</time>
      </trkpt>
      <trkpt lat="43.60208" lon="0.50332">
        <ele>203</ele>
        <time>2020-01-12T10:57:38.000Z</time>
      </trkpt>
      <trkpt lat="43.60207" lon="0.50333">
        <ele>203</ele>
        <time>2020-01-12T10:57:40.000Z</time>
      </trkpt>
      <trkpt lat="43.60205" lon="0.50334">
        <ele>203</ele>
        <time>2020-01-12T10:57:42.000Z</time>
      </trkpt>
      <trkpt lat="43.60203" lon="0.50335">
        <ele>203</ele>
        <time>2020-01-12T10:57:44.000Z</time>
      </trkpt>
      <trkpt lat="43.60201" lon="0.50335">
        <ele>203</ele>
        <time>2020-01-12T10:57:46.000Z</time>
      </trkpt>
      <trkpt lat="43.60199" lon="0.50336">
        <ele>204</ele>
        <time>2020-01-12T10:57:48.000Z</time>
      </trkpt>
      <trkpt lat="43.60196" lon="0.50336">
        <ele>204</ele>
        <time>2020-01-12T10:57:50.000Z</time>
      </trkpt>
      <trkpt lat="43.60193" lon="0.50338">
        <ele>204</ele>
        <time>2020-01-12T10:57:53.000Z</time>
      </trkpt>
      <trkpt lat="43.60191" lon="0.50338">
        <ele>204</ele>
        <time>2020-01-12T10:57:55.000Z</time>
      </trkpt>
      <trkpt lat="43.60187" lon="0.50339">
        <ele>204</ele>
        <time>2020-01-12T10:57:58.000Z</time>
      </trkpt>
      <trkpt lat="43.60186" lon="0.5034">
        <ele>204</ele>
        <time>2020-01-12T10:58:00.000Z</time>
      </trkpt>
      <trkpt lat="43.60183" lon="0.5034">
        <ele>204</ele>
        <time>2020-01-12T10:58:02.000Z</time>
      </trkpt>
      <trkpt lat="43.60181" lon="0.5034">
        <ele>204</ele>
        <time>2020-01-12T10:58:04.000Z</time>
      </trkpt>
      <trkpt lat="43.60178" lon="0.5034">
        <ele>204</ele>
        <time>2020-01-12T10:58:06.000Z</time>
      </trkpt>
      <trkpt lat="43.60176" lon="0.5034">
        <ele>204</ele>
        <time>2020-01-12T10:58:08.000Z</time>
      </trkpt>
      <trkpt lat="43.60174" lon="0.50341">
        <ele>204</ele>
        <time>2020-01-12T10:58:10.000Z</time>
      </trkpt>
      <trkpt lat="43.60173" lon="0.50341">
        <ele>204</ele>
        <time>2020-01-12T10:58:12.000Z</time>
      </trkpt>
      <trkpt lat="43.60171" lon="0.50341">
        <ele>204</ele>
        <time>2020-01-12T10:58:14.000Z</time>
      </trkpt>
      <trkpt lat="43.60169" lon="0.50342">
        <ele>204</ele>
        <time>2020-01-12T10:58:16.000Z</time>
      </trkpt>
      <trkpt lat="43.60167" lon="0.50343">
        <ele>204</ele>
        <time>2020-01-12T10:58:18.000Z</time>
      </trkpt>
      <trkpt lat="43.60165" lon="0.50344">
        <ele>204</ele>
        <time>2020-01-12T10:58:20.000Z</time>
      </trkpt>
      <trkpt lat="43.60163" lon="0.50345">
        <ele>204</ele>
        <time>2020-01-12T10:58:22.000Z</time>
      </trkpt>
      <trkpt lat="43.60161" lon="0.50345">
        <ele>204</ele>
        <time>2020-01-12T10:58:24.000Z</time>
      </trkpt>
      <trkpt lat="43.60158" lon="0.50345">
        <ele>204</ele>
        <time>2020-01-12T10:58:26.000Z</time>
      </trkpt>
      <trkpt lat="43.60156" lon="0.50345">
        <ele>204</ele>
        <time>2020-01-12T10:58:28.000Z</time>
      </trkpt>
      <trkpt lat="43.60153" lon="0.50345">
        <ele>204</ele>
        <time>2020-01-12T10:58:30.000Z</time>
      </trkpt>
      <trkpt lat="43.60151" lon="0.50346">
        <ele>204</ele>
        <time>2020-01-12T10:58:32.000Z</time>
      </trkpt>
      <trkpt lat="43.60149" lon="0.50346">
        <ele>204</ele>
        <time>2020-01-12T10:58:34.000Z</time>
      </trkpt>
      <trkpt lat="43.60146" lon="0.50347">
        <ele>204</ele>
        <time>2020-01-12T10:58:36.000Z</time>
      </trkpt>
      <trkpt lat="43.60145" lon="0.50347">
        <ele>204</ele>
        <time>2020-01-12T10:58:38.000Z</time>
      </trkpt>
      <trkpt lat="43.60143" lon="0.50348">
        <ele>204</ele>
        <time>2020-01-12T10:58:40.000Z</time>
      </trkpt>
      <trkpt lat="43.60141" lon="0.50349">
        <ele>204</ele>
        <time>2020-01-12T10:58:42.000Z</time>
      </trkpt>
      <trkpt lat="43.60139" lon="0.50349">
        <ele>204</ele>
        <time>2020-01-12T10:58:44.000Z</time>
      </trkpt>
      <trkpt lat="43.60137" lon="0.5035">
        <ele>204</ele>
        <time>2020-01-12T10:58:46.000Z</time>
      </trkpt>
      <trkpt lat="43.60135" lon="0.50351">
        <ele>204</ele>
        <time>2020-01-12T10:58:48.000Z</time>
      </trkpt>
      <trkpt lat="43.60134" lon="0.50352">
        <ele>204</ele>
        <time>2020-01-12T10:58:50.000Z</time>
      </trkpt>
      <trkpt lat="43.60131" lon="0.50355">
        <ele>204</ele>
        <time>2020-01-12T10:58:52.000Z</time>
      </trkpt>
      <trkpt lat="43.60128" lon="0.50357">
        <ele>204</ele>
        <time>2020-01-12T10:58:54.000Z</time>
      </trkpt>
      <trkpt lat="43.60125" lon="0.50359">
        <ele>205</ele>
        <time>2020-01-12T10:58:56.000Z</time>
      </trkpt>
      <trkpt lat="43.60122" lon="0.50361">
        <ele>205</ele>
        <time>2020-01-12T10:58:58.000Z</time>
      </trkpt>
      <trkpt lat="43.6012" lon="0.50362">
        <ele>205</ele>
        <time>2020-01-12T10:59:00.000Z</time>
      </trkpt>
      <trkpt lat="43.60118" lon="0.50364">
        <ele>205</ele>
        <time>2020-01-12T10:59:02.000Z</time>
      </trkpt>
      <trkpt lat="43.60116" lon="0.50365">
        <ele>205</ele>
        <time>2020-01-12T10:59:04.000Z</time>
      </trkpt>
      <trkpt lat="43.60114" lon="0.50366">
        <ele>205</ele>
        <time>2020-01-12T10:59:06.000Z</time>
      </trkpt>
      <trkpt lat="43.60112" lon="0.50368">
        <ele>205</ele>
        <time>2020-01-12T10:59:08.000Z</time>
      </trkpt>
      <trkpt lat="43.60109" lon="0.50369">
        <ele>205</ele>
        <time>2020-01-12T10:59:10.000Z</time>
      </trkpt>
      <trkpt lat="43.60107" lon="0.50371">
        <ele>205</ele>
        <time>2020-01-12T10:59:12.000Z</time>
      </trkpt>
      <trkpt lat="43.60105" lon="0.50373">
        <ele>205</ele>
        <time>2020-01-12T10:59:14.000Z</time>
      </trkpt>
      <trkpt lat="43.60102" lon="0.50375">
        <ele>205</ele>
        <time>2020-01-12T10:59:16.000Z</time>
      </trkpt>
      <trkpt lat="43.601" lon="0.50376">
        <ele>205</ele>
        <time>2020-01-12T10:59:18.000Z</time>
      </trkpt>
      <trkpt lat="43.60098" lon="0.50377">
        <ele>205</ele>
        <time>2020-01-12T10:59:20.000Z</time>
      </trkpt>
      <trkpt lat="43.60096" lon="0.50378">
        <ele>205</ele>
        <time>2020-01-12T10:59:22.000Z</time>
      </trkpt>
      <trkpt lat="43.60093" lon="0.5038">
        <ele>205</ele>
        <time>2020-01-12T10:59:24.000Z</time>
      </trkpt>
      <trkpt lat="43.60091" lon="0.5038">
        <ele>205</ele>
        <time>2020-01-12T10:59:26.000Z</time>
      </trkpt>
      <trkpt lat="43.60089" lon="0.50381">
        <ele>205</ele>
        <time>2020-01-12T10:59:28.000Z</time>
      </trkpt>
      <trkpt lat="43.60087" lon="0.5038">
        <ele>205</ele>
        <time>2020-01-12T10:59:30.000Z</time>
      </trkpt>
      <trkpt lat="43.60084" lon="0.50379">
        <ele>204</ele>
        <time>2020-01-12T10:59:32.000Z</time>
      </trkpt>
      <trkpt lat="43.60082" lon="0.50377">
        <ele>204</ele>
        <time>2020-01-12T10:59:34.000Z</time>
      </trkpt>
      <trkpt lat="43.6008" lon="0.50374">
        <ele>204</ele>
        <time>2020-01-12T10:59:36.000Z</time>
      </trkpt>
      <trkpt lat="43.60079" lon="0.50371">
        <ele>204</ele>
        <time>2020-01-12T10:59:38.000Z</time>
      </trkpt>
      <trkpt lat="43.60078" lon="0.50368">
        <ele>204</ele>
        <time>2020-01-12T10:59:40.000Z</time>
      </trkpt>
      <trkpt lat="43.60076" lon="0.50366">
        <ele>204</ele>
        <time>2020-01-12T10:59:42.000Z</time>
      </trkpt>
      <trkpt lat="43.60075" lon="0.50363">
        <ele>204</ele>
        <time>2020-01-12T10:59:44.000Z</time>
      </trkpt>
      <trkpt lat="43.60074" lon="0.50359">
        <ele>203</ele>
        <time>2020-01-12T10:59:46.000Z</time>
      </trkpt>
      <trkpt lat="43.60073" lon="0.50357">
        <ele>203</ele>
        <time>2020-01-12T10:59:48.000Z</time>
      </trkpt>
      <trkpt lat="43.60072" lon="0.50355">
        <ele>203</ele>
        <time>2020-01-12T10:59:50.000Z</time>
      </trkpt>
      <trkpt lat="43.6007" lon="0.50353">
        <ele>203</ele>
        <time>2020-01-12T10:59:52.000Z</time>
      </trkpt>
      <trkpt lat="43.60068" lon="0.5035">
        <ele>203</ele>
        <time>2020-01-12T10:59:54.000Z</time>
      </trkpt>
      <trkpt lat="43.60068" lon="0.50347">
        <ele>202</ele>
        <time>2020-01-12T10:59:56.000Z</time>
      </trkpt>
      <trkpt lat="43.60066" lon="0.50345">
        <ele>202</ele>
        <time>2020-01-12T10:59:58.000Z</time>
      </trkpt>
      <trkpt lat="43.60065" lon="0.50342">
        <ele>202</ele>
        <time>2020-01-12T11:00:00.000Z</time>
      </trkpt>
      <trkpt lat="43.60064" lon="0.5034">
        <ele>202</ele>
        <time>2020-01-12T11:00:02.000Z</time>
      </trkpt>
      <trkpt lat="43.60063" lon="0.50338">
        <ele>202</ele>
        <time>2020-01-12T11:00:04.000Z</time>
      </trkpt>
      <trkpt lat="43.60062" lon="0.50336">
        <ele>201</ele>
        <time>2020-01-12T11:00:06.000Z</time>
      </trkpt>
      <trkpt lat="43.60061" lon="0.50334">
        <ele>201</ele>
        <time>2020-01-12T11:00:08.000Z</time>
      </trkpt>
      <trkpt lat="43.60059" lon="0.50331">
        <ele>201</ele>
        <time>2020-01-12T11:00:10.000Z</time>
      </trkpt>
      <trkpt lat="43.60058" lon="0.50329">
        <ele>201</ele>
        <time>2020-01-12T11:00:12.000Z</time>
      </trkpt>
      <trkpt lat="43.60057" lon="0.50326">
        <ele>200</ele>
        <time>2020-01-12T11:00:14.000Z</time>
      </trkpt>
      <trkpt lat="43.60056" lon="0.50324">
        <ele>200</ele>
        <time>2020-01-12T11:00:16.000Z</time>
      </trkpt>
      <trkpt lat="43.60055" lon="0.50321">
        <ele>200</ele>
        <time>2020-01-12T11:00:18.000Z</time>
      </trkpt>
      <trkpt lat="43.60053" lon="0.50318">
        <ele>200</ele>
        <time>2020-01-12T11:00:20.000Z</time>
      </trkpt>
      <trkpt lat="43.60052" lon="0.50316">
        <ele>200</ele>
        <time>2020-01-12T11:00:22.000Z</time>
      </trkpt>
      <trkpt lat="43.60051" lon="0.50314">
        <ele>199</ele>
        <time>2020-01-12T11:00:24.000Z</time>
      </trkpt>
      <trkpt lat="43.6005" lon="0.50312">
        <ele>199</ele>
        <time>2020-01-12T11:00:26.000Z</time>
      </trkpt>
      <trkpt lat="43.60049" lon="0.50309">
        <ele>199</ele>
        <time>2020-01-12T11:00:28.000Z</time>
      </trkpt>
      <trkpt lat="43.60049" lon="0.50306">
        <ele>199</ele>
        <time>2020-01-12T11:00:30.000Z</time>
      </trkpt>
      <trkpt lat="43.60049" lon="0.50305">
        <ele>198</ele>
        <time>2020-01-12T11:00:32.000Z</time>
      </trkpt>
      <trkpt lat="43.60049" lon="0.50304">
        <ele>198</ele>
        <time>2020-01-12T11:00:34.000Z</time>
      </trkpt>
      <trkpt lat="43.6005" lon="0.50303">
        <ele>198</ele>
        <time>2020-01-12T11:00:36.000Z</time>
      </trkpt>
      <trkpt lat="43.6005" lon="0.50303">
        <ele>198</ele>
        <time>2020-01-12T11:00:38.000Z</time>
      </trkpt>
      <trkpt lat="43.6005" lon="0.50302">
        <ele>198</ele>
        <time>2020-01-12T11:00:40.000Z</time>
      </trkpt>
      <trkpt lat="43.60049" lon="0.50302">
        <ele>198</ele>
        <time>2020-01-12T11:00:42.000Z</time>
      </trkpt>
      <trkpt lat="43.60049" lon="0.50302">
        <ele>198</ele>
        <time>2020-01-12T11:00:44.000Z</time>
      </trkpt>
      <trkpt lat="43.60048" lon="0.50301">
        <ele>198</ele>
        <time>2020-01-12T11:00:46.000Z</time>
      </trkpt>
      <trkpt lat="43.60049" lon="0.50301">
        <ele>198</ele>
        <time>2020-01-12T11:00:48.000Z</time>
      </trkpt>
      <trkpt lat="43.60049" lon="0.50301">
        <ele>198</ele>
        <time>2020-01-12T11:00:50.000Z</time>
      </trkpt>
      <trkpt lat="43.60049" lon="0.50301">
        <ele>198</ele>
        <time>2020-01-12T11:00:52.000Z</time>
      </trkpt>
      <trkpt lat="43.6005" lon="0.503">
        <ele>198</ele>
        <time>2020-01-12T11:00:54.000Z</time>
      </trkpt>
      <trkpt lat="43.6005" lon="0.503">
        <ele>198</ele>
        <time>2020-01-12T11:00:56.000Z</time>
      </trkpt>
      <trkpt lat="43.6005" lon="0.50301">
        <ele>198</ele>
        <time>2020-01-12T11:00:58.000Z</time>
      </trkpt>
      <trkpt lat="43.6005" lon="0.50301">
        <ele>198</ele>
        <time>2020-01-12T11:01:00.000Z</time>
      </trkpt>
      <trkpt lat="43.6005" lon="0.50301">
        <ele>198</ele>
        <time>2020-01-12T11:01:02.000Z</time>
      </trkpt>
      <trkpt lat="43.6005" lon="0.50301">
        <ele>198</ele>
        <time>2020-01-12T11:01:04.000Z</time>
      </trkpt>
      <trkpt lat="43.6005" lon="0.50301">
        <ele>198</ele>
        <time>2020-01-12T11:01:06.000Z</time>
      </trkpt>
      <trkpt lat="43.6005" lon="0.50301">
        <ele>198</ele>
        <time>2020-01-12T11:01:08.000Z</time>
      </trkpt>
      <trkpt lat="43.6005" lon="0.50298">
        <ele>198</ele>
        <time>2020-01-12T11:01:10.000Z</time>
      </trkpt>
      <trkpt lat="43.60051" lon="0.50294">
        <ele>198</ele>
        <time>2020-01-12T11:01:12.000Z</time>
      </trkpt>
      <trkpt lat="43.60052" lon="0.50291">
        <ele>198</ele>
        <time>2020-01-12T11:01:14.000Z</time>
      </trkpt>
      <trkpt lat="43.60054" lon="0.50288">
        <ele>198</ele>
        <time>2020-01-12T11:01:16.000Z</time>
      </trkpt>
      <trkpt lat="43.60056" lon="0.50285">
        <ele>198</ele>
        <time>2020-01-12T11:01:18.000Z</time>
      </trkpt>
      <trkpt lat="43.60057" lon="0.50282">
        <ele>198</ele>
        <time>2020-01-12T11:01:20.000Z</time>
      </trkpt>
      <trkpt lat="43.60059" lon="0.5028">
        <ele>198</ele>
        <time>2020-01-12T11:01:22.000Z</time>
      </trkpt>
      <trkpt lat="43.6006" lon="0.50278">
        <ele>199</ele>
        <time>2020-01-12T11:01:24.000Z</time>
      </trkpt>
      <trkpt lat="43.60062" lon="0.50275">
        <ele>199</ele>
        <time>2020-01-12T11:01:26.000Z</time>
      </trkpt>
      <trkpt lat="43.60063" lon="0.50273">
        <ele>199</ele>
        <time>2020-01-12T11:01:28.000Z</time>
      </trkpt>
      <trkpt lat="43.60065" lon="0.50271">
        <ele>199</ele>
        <time>2020-01-12T11:01:30.000Z</time>
      </trkpt>
      <trkpt lat="43.60066" lon="0.50269">
        <ele>199</ele>
        <time>2020-01-12T11:01:32.000Z</time>
      </trkpt>
      <trkpt lat="43.60068" lon="0.50266">
        <ele>199</ele>
        <time>2020-01-12T11:01:34.000Z</time>
      </trkpt>
      <trkpt lat="43.6007" lon="0.50264">
        <ele>199</ele>
        <time>2020-01-12T11:01:36.000Z</time>
      </trkpt>
      <trkpt lat="43.60072" lon="0.50262">
        <ele>199</ele>
        <time>2020-01-12T11:01:38.000Z</time>
      </trkpt>
      <trkpt lat="43.60073" lon="0.50259">
        <ele>199</ele>
        <time>2020-01-12T11:01:40.000Z</time>
      </trkpt>
      <trkpt lat="43.60075" lon="0.50257">
        <ele>198</ele>
        <time>2020-01-12T11:01:42.000Z</time>
      </trkpt>
      <trkpt lat="43.60076" lon="0.50255">
        <ele>198</ele>
        <time>2020-01-12T11:01:44.000Z</time>
      </trkpt>
      <trkpt lat="43.60077" lon="0.50254">
        <ele>198</ele>
        <time>2020-01-12T11:01:46.000Z</time>
      </trkpt>
      <trkpt lat="43.60077" lon="0.50254">
        <ele>198</ele>
        <time>2020-01-12T11:01:48.000Z</time>
      </trkpt>
      <trkpt lat="43.60077" lon="0.50255">
        <ele>198</ele>
        <time>2020-01-12T11:01:50.000Z</time>
      </trkpt>
      <trkpt lat="43.60078" lon="0.50253">
        <ele>198</ele>
        <time>2020-01-12T11:01:52.000Z</time>
      </trkpt>
      <trkpt lat="43.60079" lon="0.50251">
        <ele>198</ele>
        <time>2020-01-12T11:01:54.000Z</time>
      </trkpt>
      <trkpt lat="43.60081" lon="0.50249">
        <ele>198</ele>
        <time>2020-01-12T11:01:56.000Z</time>
      </trkpt>
      <trkpt lat="43.60082" lon="0.50246">
        <ele>198</ele>
        <time>2020-01-12T11:01:58.000Z</time>
      </trkpt>
      <trkpt lat="43.60083" lon="0.50244">
        <ele>198</ele>
        <time>2020-01-12T11:02:00.000Z</time>
      </trkpt>
      <trkpt lat="43.60084" lon="0.50242">
        <ele>198</ele>
        <time>2020-01-12T11:02:02.000Z</time>
      </trkpt>
      <trkpt lat="43.60086" lon="0.50239">
        <ele>198</ele>
        <time>2020-01-12T11:02:04.000Z</time>
      </trkpt>
      <trkpt lat="43.60087" lon="0.50237">
        <ele>198</ele>
        <time>2020-01-12T11:02:06.000Z</time>
      </trkpt>
      <trkpt lat="43.60088" lon="0.50235">
        <ele>198</ele>
        <time>2020-01-12T11:02:08.000Z</time>
      </trkpt>
      <trkpt lat="43.6009" lon="0.50233">
        <ele>198</ele>
        <time>2020-01-12T11:02:10.000Z</time>
      </trkpt>
      <trkpt lat="43.60092" lon="0.50231">
        <ele>198</ele>
        <time>2020-01-12T11:02:12.000Z</time>
      </trkpt>
      <trkpt lat="43.60094" lon="0.50229">
        <ele>197</ele>
        <time>2020-01-12T11:02:14.000Z</time>
      </trkpt>
      <trkpt lat="43.60095" lon="0.50227">
        <ele>197</ele>
        <time>2020-01-12T11:02:16.000Z</time>
      </trkpt>
      <trkpt lat="43.60097" lon="0.50225">
        <ele>197</ele>
        <time>2020-01-12T11:02:18.000Z</time>
      </trkpt>
      <trkpt lat="43.60098" lon="0.50223">
        <ele>197</ele>
        <time>2020-01-12T11:02:20.000Z</time>
      </trkpt>
      <trkpt lat="43.601" lon="0.50221">
        <ele>197</ele>
        <time>2020-01-12T11:02:22.000Z</time>
      </trkpt>
      <trkpt lat="43.60101" lon="0.50219">
        <ele>197</ele>
        <time>2020-01-12T11:02:24.000Z</time>
      </trkpt>
      <trkpt lat="43.60103" lon="0.50216">
        <ele>197</ele>
        <time>2020-01-12T11:02:26.000Z</time>
      </trkpt>
      <trkpt lat="43.60105" lon="0.50214">
        <ele>197</ele>
        <time>2020-01-12T11:02:28.000Z</time>
      </trkpt>
      <trkpt lat="43.60106" lon="0.50212">
        <ele>197</ele>
        <time>2020-01-12T11:02:30.000Z</time>
      </trkpt>
      <trkpt lat="43.60107" lon="0.5021">
        <ele>197</ele>
        <time>2020-01-12T11:02:32.000Z</time>
      </trkpt>
      <trkpt lat="43.60109" lon="0.50208">
        <ele>197</ele>
        <time>2020-01-12T11:02:34.000Z</time>
      </trkpt>
      <trkpt lat="43.6011" lon="0.50206">
        <ele>197</ele>
        <time>2020-01-12T11:02:36.000Z</time>
      </trkpt>
      <trkpt lat="43.60111" lon="0.50204">
        <ele>197</ele>
        <time>2020-01-12T11:02:38.000Z</time>
      </trkpt>
      <trkpt lat="43.60113" lon="0.50202">
        <ele>197</ele>
        <time>2020-01-12T11:02:40.000Z</time>
      </trkpt>
      <trkpt lat="43.60114" lon="0.502">
        <ele>197</ele>
        <time>2020-01-12T11:02:42.000Z</time>
      </trkpt>
      <trkpt lat="43.60115" lon="0.50199">
        <ele>197</ele>
        <time>2020-01-12T11:02:44.000Z</time>
      </trkpt>
      <trkpt lat="43.60116" lon="0.50197">
        <ele>197</ele>
        <time>2020-01-12T11:02:46.000Z</time>
      </trkpt>
      <trkpt lat="43.60117" lon="0.50196">
        <ele>197</ele>
        <time>2020-01-12T11:02:48.000Z</time>
      </trkpt>
      <trkpt lat="43.60119" lon="0.50194">
        <ele>197</ele>
        <time>2020-01-12T11:02:50.000Z</time>
      </trkpt>
      <trkpt lat="43.6012" lon="0.50192">
        <ele>197</ele>
        <time>2020-01-12T11:02:52.000Z</time>
      </trkpt>
      <trkpt lat="43.60122" lon="0.50191">
        <ele>197</ele>
        <time>2020-01-12T11:02:54.000Z</time>
      </trkpt>
      <trkpt lat="43.60123" lon="0.50189">
        <ele>197</ele>
        <time>2020-01-12T11:02:56.000Z</time>
      </trkpt>
      <trkpt lat="43.60124" lon="0.50188">
        <ele>198</ele>
        <time>2020-01-12T11:02:58.000Z</time>
      </trkpt>
      <trkpt lat="43.60125" lon="0.50187">
        <ele>198</ele>
        <time>2020-01-12T11:03:00.000Z</time>
      </trkpt>
      <trkpt lat="43.60126" lon="0.50185">
        <ele>198</ele>
        <time>2020-01-12T11:03:02.000Z</time>
      </trkpt>
      <trkpt lat="43.60127" lon="0.50183">
        <ele>198</ele>
        <time>2020-01-12T11:03:04.000Z</time>
      </trkpt>
      <trkpt lat="43.60128" lon="0.50181">
        <ele>198</ele>
        <time>2020-01-12T11:03:06.000Z</time>
      </trkpt>
      <trkpt lat="43.60129" lon="0.50179">
        <ele>198</ele>
        <time>2020-01-12T11:03:08.000Z</time>
      </trkpt>
      <trkpt lat="43.60131" lon="0.50178">
        <ele>198</ele>
        <time>2020-01-12T11:03:10.000Z</time>
      </trkpt>
      <trkpt lat="43.60132" lon="0.50175">
        <ele>198</ele>
        <time>2020-01-12T11:03:12.000Z</time>
      </trkpt>
      <trkpt lat="43.60133" lon="0.50173">
        <ele>198</ele>
        <time>2020-01-12T11:03:14.000Z</time>
      </trkpt>
      <trkpt lat="43.60134" lon="0.50171">
        <ele>198</ele>
        <time>2020-01-12T11:03:16.000Z</time>
      </trkpt>
      <trkpt lat="43.60135" lon="0.50168">
        <ele>198</ele>
        <time>2020-01-12T11:03:18.000Z</time>
      </trkpt>
      <trkpt lat="43.60136" lon="0.50166">
        <ele>198</ele>
        <time>2020-01-12T11:03:20.000Z</time>
      </trkpt>
      <trkpt lat="43.60137" lon="0.50165">
        <ele>198</ele>
        <time>2020-01-12T11:03:22.000Z</time>
      </trkpt>
      <trkpt lat="43.60138" lon="0.50163">
        <ele>198</ele>
        <time>2020-01-12T11:03:24.000Z</time>
      </trkpt>
      <trkpt lat="43.6014" lon="0.50161">
        <ele>199</ele>
        <time>2020-01-12T11:03:26.000Z</time>
      </trkpt>
      <trkpt lat="43.60141" lon="0.50159">
        <ele>199</ele>
        <time>2020-01-12T11:03:28.000Z</time>
      </trkpt>
      <trkpt lat="43.60143" lon="0.50157">
        <ele>199</ele>
        <time>2020-01-12T11:03:30.000Z</time>
      </trkpt>
      <trkpt lat="43.60144" lon="0.50155">
        <ele>199</ele>
        <time>2020-01-12T11:03:32.000Z</time>
      </trkpt>
      <trkpt lat="43.60145" lon="0.50154">
        <ele>199</ele>
        <time>2020-01-12T11:03:34.000Z</time>
      </trkpt>
      <trkpt lat="43.60147" lon="0.50152">
        <ele>199</ele>
        <time>2020-01-12T11:03:36.000Z</time>
      </trkpt>
      <trkpt lat="43.60148" lon="0.5015">
        <ele>199</ele>
        <time>2020-01-12T11:03:38.000Z</time>
      </trkpt>
      <trkpt lat="43.60149" lon="0.50149">
        <ele>199</ele>
        <time>2020-01-12T11:03:40.000Z</time>
      </trkpt>
      <trkpt lat="43.60151" lon="0.50147">
        <ele>200</ele>
        <time>2020-01-12T11:03:42.000Z</time>
      </trkpt>
      <trkpt lat="43.60152" lon="0.50145">
        <ele>200</ele>
        <time>2020-01-12T11:03:44.000Z</time>
      </trkpt>
      <trkpt lat="43.60153" lon="0.50144">
        <ele>200</ele>
        <time>2020-01-12T11:03:46.000Z</time>
      </trkpt>
      <trkpt lat="43.60155" lon="0.50142">
        <ele>200</ele>
        <time>2020-01-12T11:03:48.000Z</time>
      </trkpt>
      <trkpt lat="43.60156" lon="0.5014">
        <ele>200</ele>
        <time>2020-01-12T11:03:50.000Z</time>
      </trkpt>
      <trkpt lat="43.60158" lon="0.50139">
        <ele>200</ele>
        <time>2020-01-12T11:03:52.000Z</time>
      </trkpt>
      <trkpt lat="43.60159" lon="0.50138">
        <ele>200</ele>
        <time>2020-01-12T11:03:54.000Z</time>
      </trkpt>
      <trkpt lat="43.60161" lon="0.50136">
        <ele>201</ele>
        <time>2020-01-12T11:03:56.000Z</time>
      </trkpt>
      <trkpt lat="43.60162" lon="0.50134">
        <ele>201</ele>
        <time>2020-01-12T11:03:58.000Z</time>
      </trkpt>
      <trkpt lat="43.60164" lon="0.50133">
        <ele>201</ele>
        <time>2020-01-12T11:04:00.000Z</time>
      </trkpt>
      <trkpt lat="43.60165" lon="0.50132">
        <ele>201</ele>
        <time>2020-01-12T11:04:02.000Z</time>
      </trkpt>
      <trkpt lat="43.60167" lon="0.50131">
        <ele>201</ele>
        <time>2020-01-12T11:04:04.000Z</time>
      </trkpt>
      <trkpt lat="43.60168" lon="0.5013">
        <ele>201</ele>
        <time>2020-01-12T11:04:06.000Z</time>
      </trkpt>
      <trkpt lat="43.60169" lon="0.50129">
        <ele>201</ele>
        <time>2020-01-12T11:04:08.000Z</time>
      </trkpt>
      <trkpt lat="43.60171" lon="0.50127">
        <ele>201</ele>
        <time>2020-01-12T11:04:10.000Z</time>
      </trkpt>
      <trkpt lat="43.60172" lon="0.50126">
        <ele>201</ele>
        <time>2020-01-12T11:04:12.000Z</time>
      </trkpt>
      <trkpt lat="43.60174" lon="0.50125">
        <ele>201</ele>
        <time>2020-01-12T11:04:14.000Z</time>
      </trkpt>
      <trkpt lat="43.60176" lon="0.50124">
        <ele>201</ele>
        <time>2020-01-12T11:04:16.000Z</time>
      </trkpt>
      <trkpt lat="43.60177" lon="0.50123">
        <ele>201</ele>
        <time>2020-01-12T11:04:18.000Z</time>
      </trkpt>
      <trkpt lat="43.60179" lon="0.50122">
        <ele>201</ele>
        <time>2020-01-12T11:04:20.000Z</time>
      </trkpt>
      <trkpt lat="43.6018" lon="0.50121">
        <ele>201</ele>
        <time>2020-01-12T11:04:22.000Z</time>
      </trkpt>
      <trkpt lat="43.60182" lon="0.5012">
        <ele>201</ele>
        <time>2020-01-12T11:04:24.000Z</time>
      </trkpt>
      <trkpt lat="43.60183" lon="0.50119">
        <ele>201</ele>
        <time>2020-01-12T11:04:26.000Z</time>
      </trkpt>
      <trkpt lat="43.60184" lon="0.50118">
        <ele>201</ele>
        <time>2020-01-12T11:04:28.000Z</time>
      </trkpt>
      <trkpt lat="43.60185" lon="0.50117">
        <ele>201</ele>
        <time>2020-01-12T11:04:30.000Z</time>
      </trkpt>
      <trkpt lat="43.60186" lon="0.50115">
        <ele>201</ele>
        <time>2020-01-12T11:04:32.000Z</time>
      </trkpt>
      <trkpt lat="43.60188" lon="0.50114">
        <ele>201</ele>
        <time>2020-01-12T11:04:34.000Z</time>
      </trkpt>
      <trkpt lat="43.60189" lon="0.50112">
        <ele>201</ele>
        <time>2020-01-12T11:04:36.000Z</time>
      </trkpt>
      <trkpt lat="43.6019" lon="0.50111">
        <ele>201</ele>
        <time>2020-01-12T11:04:38.000Z</time>
      </trkpt>
      <trkpt lat="43.60191" lon="0.5011">
        <ele>201</ele>
        <time>2020-01-12T11:04:40.000Z</time>
      </trkpt>
      <trkpt lat="43.60192" lon="0.50109">
        <ele>201</ele>
        <time>2020-01-12T11:04:42.000Z</time>
      </trkpt>
      <trkpt lat="43.60194" lon="0.50107">
        <ele>201</ele>
        <time>2020-01-12T11:04:44.000Z</time>
      </trkpt>
      <trkpt lat="43.60195" lon="0.50106">
        <ele>201</ele>
        <time>2020-01-12T11:04:46.000Z</time>
      </trkpt>
      <trkpt lat="43.60196" lon="0.50105">
        <ele>201</ele>
        <time>2020-01-12T11:04:48.000Z</time>
      </trkpt>
      <trkpt lat="43.60198" lon="0.50104">
        <ele>201</ele>
        <time>2020-01-12T11:04:50.000Z</time>
      </trkpt>
      <trkpt lat="43.60199" lon="0.50102">
        <ele>201</ele>
        <time>2020-01-12T11:04:52.000Z</time>
      </trkpt>
      <trkpt lat="43.60201" lon="0.50101">
        <ele>201</ele>
        <time>2020-01-12T11:04:54.000Z</time>
      </trkpt>
      <trkpt lat="43.60203" lon="0.50099">
        <ele>201</ele>
        <time>2020-01-12T11:04:56.000Z</time>
      </trkpt>
      <trkpt lat="43.60204" lon="0.50098">
        <ele>201</ele>
        <time>2020-01-12T11:04:58.000Z</time>
      </trkpt>
      <trkpt lat="43.60205" lon="0.50096">
        <ele>200</ele>
        <time>2020-01-12T11:05:00.000Z</time>
      </trkpt>
      <trkpt lat="43.60206" lon="0.50094">
        <ele>200</ele>
        <time>2020-01-12T11:05:02.000Z</time>
      </trkpt>
      <trkpt lat="43.60208" lon="0.50093">
        <ele>200</ele>
        <time>2020-01-12T11:05:04.000Z</time>
      </trkpt>
      <trkpt lat="43.60209" lon="0.50091">
        <ele>200</ele>
        <time>2020-01-12T11:05:06.000Z</time>
      </trkpt>
      <trkpt lat="43.60211" lon="0.5009">
        <ele>200</ele>
        <time>2020-01-12T11:05:08.000Z</time>
      </trkpt>
      <trkpt lat="43.60212" lon="0.50088">
        <ele>200</ele>
        <time>2020-01-12T11:05:10.000Z</time>
      </trkpt>
      <trkpt lat="43.60213" lon="0.50087">
        <ele>200</ele>
        <time>2020-01-12T11:05:12.000Z</time>
      </trkpt>
      <trkpt lat="43.60214" lon="0.50085">
        <ele>200</ele>
        <time>2020-01-12T11:05:14.000Z</time>
      </trkpt>
      <trkpt lat="43.60216" lon="0.50084">
        <ele>200</ele>
        <time>2020-01-12T11:05:16.000Z</time>
      </trkpt>
      <trkpt lat="43.60217" lon="0.50082">
        <ele>200</ele>
        <time>2020-01-12T11:05:18.000Z</time>
      </trkpt>
      <trkpt lat="43.60218" lon="0.5008">
        <ele>200</ele>
        <time>2020-01-12T11:05:20.000Z</time>
      </trkpt>
      <trkpt lat="43.60219" lon="0.50079">
        <ele>200</ele>
        <time>2020-01-12T11:05:22.000Z</time>
      </trkpt>
      <trkpt lat="43.60219" lon="0.50076">
        <ele>200</ele>
        <time>2020-01-12T11:05:24.000Z</time>
      </trkpt>
      <trkpt lat="43.60221" lon="0.50075">
        <ele>200</ele>
        <time>2020-01-12T11:05:26.000Z</time>
      </trkpt>
      <trkpt lat="43.60221" lon="0.50071">
        <ele>200</ele>
        <time>2020-01-12T11:05:28.000Z</time>
      </trkpt>
      <trkpt lat="43.60221" lon="0.50069">
        <ele>200</ele>
        <time>2020-01-12T11:05:30.000Z</time>
      </trkpt>
      <trkpt lat="43.60221" lon="0.50067">
        <ele>200</ele>
        <time>2020-01-12T11:05:32.000Z</time>
      </trkpt>
      <trkpt lat="43.60222" lon="0.50064">
        <ele>199</ele>
        <time>2020-01-12T11:05:34.000Z</time>
      </trkpt>
      <trkpt lat="43.60223" lon="0.50062">
        <ele>199</ele>
        <time>2020-01-12T11:05:36.000Z</time>
      </trkpt>
      <trkpt lat="43.60223" lon="0.5006">
        <ele>199</ele>
        <time>2020-01-12T11:05:38.000Z</time>
      </trkpt>
      <trkpt lat="43.60224" lon="0.50058">
        <ele>199</ele>
        <time>2020-01-12T11:05:40.000Z</time>
      </trkpt>
      <trkpt lat="43.60225" lon="0.50055">
        <ele>199</ele>
        <time>2020-01-12T11:05:42.000Z</time>
      </trkpt>
      <trkpt lat="43.60225" lon="0.50053">
        <ele>199</ele>
        <time>2020-01-12T11:05:44.000Z</time>
      </trkpt>
      <trkpt lat="43.60226" lon="0.50051">
        <ele>199</ele>
        <time>2020-01-12T11:05:46.000Z</time>
      </trkpt>
      <trkpt lat="43.60226" lon="0.50049">
        <ele>199</ele>
        <time>2020-01-12T11:05:48.000Z</time>
      </trkpt>
      <trkpt lat="43.60227" lon="0.50047">
        <ele>199</ele>
        <time>2020-01-12T11:05:50.000Z</time>
      </trkpt>
      <trkpt lat="43.60228" lon="0.50045">
        <ele>199</ele>
        <time>2020-01-12T11:05:52.000Z</time>
      </trkpt>
      <trkpt lat="43.60228" lon="0.50042">
        <ele>199</ele>
        <time>2020-01-12T11:05:54.000Z</time>
      </trkpt>
      <trkpt lat="43.60229" lon="0.5004">
        <ele>198</ele>
        <time>2020-01-12T11:05:56.000Z</time>
      </trkpt>
      <trkpt lat="43.60229" lon="0.50038">
        <ele>198</ele>
        <time>2020-01-12T11:05:58.000Z</time>
      </trkpt>
      <trkpt lat="43.6023" lon="0.50036">
        <ele>198</ele>
        <time>2020-01-12T11:06:00.000Z</time>
      </trkpt>
      <trkpt lat="43.6023" lon="0.50034">
        <ele>198</ele>
        <time>2020-01-12T11:06:02.000Z</time>
      </trkpt>
      <trkpt lat="43.6023" lon="0.50032">
        <ele>198</ele>
        <time>2020-01-12T11:06:04.000Z</time>
      </trkpt>
      <trkpt lat="43.60231" lon="0.5003">
        <ele>198</ele>
        <time>2020-01-12T11:06:06.000Z</time>
      </trkpt>
      <trkpt lat="43.60232" lon="0.50028">
        <ele>198</ele>
        <time>2020-01-12T11:06:08.000Z</time>
      </trkpt>
      <trkpt lat="43.60233" lon="0.50025">
        <ele>198</ele>
        <time>2020-01-12T11:06:10.000Z</time>
      </trkpt>
      <trkpt lat="43.60234" lon="0.50023">
        <ele>197</ele>
        <time>2020-01-12T11:06:12.000Z</time>
      </trkpt>
      <trkpt lat="43.60234" lon="0.50021">
        <ele>197</ele>
        <time>2020-01-12T11:06:14.000Z</time>
      </trkpt>
      <trkpt lat="43.60235" lon="0.50019">
        <ele>197</ele>
        <time>2020-01-12T11:06:16.000Z</time>
      </trkpt>
      <trkpt lat="43.60235" lon="0.50017">
        <ele>197</ele>
        <time>2020-01-12T11:06:18.000Z</time>
      </trkpt>
      <trkpt lat="43.60235" lon="0.50014">
        <ele>197</ele>
        <time>2020-01-12T11:06:20.000Z</time>
      </trkpt>
      <trkpt lat="43.60236" lon="0.50012">
        <ele>197</ele>
        <time>2020-01-12T11:06:22.000Z</time>
      </trkpt>
      <trkpt lat="43.60236" lon="0.5001">
        <ele>197</ele>
        <time>2020-01-12T11:06:24.000Z</time>
      </trkpt>
      <trkpt lat="43.60236" lon="0.50008">
        <ele>197</ele>
        <time>2020-01-12T11:06:26.000Z</time>
      </trkpt>
      <trkpt lat="43.60237" lon="0.50005">
        <ele>197</ele>
        <time>2020-01-12T11:06:28.000Z</time>
      </trkpt>
      <trkpt lat="43.60236" lon="0.50002">
        <ele>197</ele>
        <time>2020-01-12T11:06:30.000Z</time>
      </trkpt>
      <trkpt lat="43.60237" lon="0.5">
        <ele>197</ele>
        <time>2020-01-12T11:06:32.000Z</time>
      </trkpt>
      <trkpt lat="43.60237" lon="0.49998">
        <ele>197</ele>
        <time>2020-01-12T11:06:34.000Z</time>
      </trkpt>
      <trkpt lat="43.60237" lon="0.49995">
        <ele>197</ele>
        <time>2020-01-12T11:06:36.000Z</time>
      </trkpt>
      <trkpt lat="43.60238" lon="0.49992">
        <ele>198</ele>
        <time>2020-01-12T11:06:38.000Z</time>
      </trkpt>
      <trkpt lat="43.60238" lon="0.4999">
        <ele>198</ele>
        <time>2020-01-12T11:06:40.000Z</time>
      </trkpt>
      <trkpt lat="43.60238" lon="0.49987">
        <ele>198</ele>
        <time>2020-01-12T11:06:42.000Z</time>
      </trkpt>
      <trkpt lat="43.60238" lon="0.49984">
        <ele>198</ele>
        <time>2020-01-12T11:06:44.000Z</time>
      </trkpt>
      <trkpt lat="43.60239" lon="0.49982">
        <ele>198</ele>
        <time>2020-01-12T11:06:46.000Z</time>
      </trkpt>
      <trkpt lat="43.60239" lon="0.49979">
        <ele>198</ele>
        <time>2020-01-12T11:06:48.000Z</time>
      </trkpt>
      <trkpt lat="43.60239" lon="0.49977">
        <ele>198</ele>
        <time>2020-01-12T11:06:50.000Z</time>
      </trkpt>
      <trkpt lat="43.60238" lon="0.49974">
        <ele>198</ele>
        <time>2020-01-12T11:06:52.000Z</time>
      </trkpt>
      <trkpt lat="43.60238" lon="0.49972">
        <ele>198</ele>
        <time>2020-01-12T11:06:54.000Z</time>
      </trkpt>
      <trkpt lat="43.60238" lon="0.49969">
        <ele>198</ele>
        <time>2020-01-12T11:06:56.000Z</time>
      </trkpt>
      <trkpt lat="43.60238" lon="0.49967">
        <ele>198</ele>
        <time>2020-01-12T11:06:58.000Z</time>
      </trkpt>
      <trkpt lat="43.60238" lon="0.49964">
        <ele>198</ele>
        <time>2020-01-12T11:07:00.000Z</time>
      </trkpt>
      <trkpt lat="43.60237" lon="0.49962">
        <ele>198</ele>
        <time>2020-01-12T11:07:02.000Z</time>
      </trkpt>
      <trkpt lat="43.60238" lon="0.4996">
        <ele>198</ele>
        <time>2020-01-12T11:07:04.000Z</time>
      </trkpt>
      <trkpt lat="43.60238" lon="0.49957">
        <ele>199</ele>
        <time>2020-01-12T11:07:06.000Z</time>
      </trkpt>
      <trkpt lat="43.60239" lon="0.49954">
        <ele>199</ele>
        <time>2020-01-12T11:07:08.000Z</time>
      </trkpt>
      <trkpt lat="43.6024" lon="0.49952">
        <ele>199</ele>
        <time>2020-01-12T11:07:10.000Z</time>
      </trkpt>
      <trkpt lat="43.60242" lon="0.49951">
        <ele>199</ele>
        <time>2020-01-12T11:07:12.000Z</time>
      </trkpt>
      <trkpt lat="43.60243" lon="0.4995">
        <ele>199</ele>
        <time>2020-01-12T11:07:14.000Z</time>
      </trkpt>
      <trkpt lat="43.60245" lon="0.4995">
        <ele>199</ele>
        <time>2020-01-12T11:07:16.000Z</time>
      </trkpt>
      <trkpt lat="43.60246" lon="0.4995">
        <ele>199</ele>
        <time>2020-01-12T11:07:18.000Z</time>
      </trkpt>
      <trkpt lat="43.60248" lon="0.49949">
        <ele>199</ele>
        <time>2020-01-12T11:07:20.000Z</time>
      </trkpt>
      <trkpt lat="43.60249" lon="0.49949">
        <ele>199</ele>
        <time>2020-01-12T11:07:22.000Z</time>
      </trkpt>
      <trkpt lat="43.60252" lon="0.49948">
        <ele>198</ele>
        <time>2020-01-12T11:07:24.000Z</time>
      </trkpt>
      <trkpt lat="43.60253" lon="0.49947">
        <ele>198</ele>
        <time>2020-01-12T11:07:26.000Z</time>
      </trkpt>
      <trkpt lat="43.60255" lon="0.49947">
        <ele>198</ele>
        <time>2020-01-12T11:07:28.000Z</time>
      </trkpt>
      <trkpt lat="43.60257" lon="0.49947">
        <ele>198</ele>
        <time>2020-01-12T11:07:30.000Z</time>
      </trkpt>
      <trkpt lat="43.60258" lon="0.49948">
        <ele>198</ele>
        <time>2020-01-12T11:07:32.000Z</time>
      </trkpt>
      <trkpt lat="43.6026" lon="0.49949">
        <ele>198</ele>
        <time>2020-01-12T11:07:34.000Z</time>
      </trkpt>
      <trkpt lat="43.60261" lon="0.4995">
        <ele>198</ele>
        <time>2020-01-12T11:07:36.000Z</time>
      </trkpt>
      <trkpt lat="43.60263" lon="0.49952">
        <ele>198</ele>
        <time>2020-01-12T11:07:38.000Z</time>
      </trkpt>
      <trkpt lat="43.60264" lon="0.49953">
        <ele>198</ele>
        <time>2020-01-12T11:07:40.000Z</time>
      </trkpt>
      <trkpt lat="43.60265" lon="0.49955">
        <ele>198</ele>
        <time>2020-01-12T11:07:42.000Z</time>
      </trkpt>
      <trkpt lat="43.60266" lon="0.49957">
        <ele>197</ele>
        <time>2020-01-12T11:07:44.000Z</time>
      </trkpt>
      <trkpt lat="43.60267" lon="0.4996">
        <ele>197</ele>
        <time>2020-01-12T11:07:46.000Z</time>
      </trkpt>
      <trkpt lat="43.60267" lon="0.49962">
        <ele>197</ele>
        <time>2020-01-12T11:07:48.000Z</time>
      </trkpt>
      <trkpt lat="43.60268" lon="0.49964">
        <ele>197</ele>
        <time>2020-01-12T11:07:50.000Z</time>
      </trkpt>
      <trkpt lat="43.60269" lon="0.49967">
        <ele>197</ele>
        <time>2020-01-12T11:07:52.000Z</time>
      </trkpt>
      <trkpt lat="43.6027" lon="0.4997">
        <ele>197</ele>
        <time>2020-01-12T11:07:54.000Z</time>
      </trkpt>
      <trkpt lat="43.60271" lon="0.49972">
        <ele>197</ele>
        <time>2020-01-12T11:07:56.000Z</time>
      </trkpt>
      <trkpt lat="43.60272" lon="0.49976">
        <ele>197</ele>
        <time>2020-01-12T11:07:58.000Z</time>
      </trkpt>
      <trkpt lat="43.60272" lon="0.49979">
        <ele>197</ele>
        <time>2020-01-12T11:08:00.000Z</time>
      </trkpt>
      <trkpt lat="43.60273" lon="0.49982">
        <ele>197</ele>
        <time>2020-01-12T11:08:02.000Z</time>
      </trkpt>
      <trkpt lat="43.60273" lon="0.49984">
        <ele>197</ele>
        <time>2020-01-12T11:08:04.000Z</time>
      </trkpt>
      <trkpt lat="43.60274" lon="0.49987">
        <ele>197</ele>
        <time>2020-01-12T11:08:06.000Z</time>
      </trkpt>
      <trkpt lat="43.60274" lon="0.49989">
        <ele>196</ele>
        <time>2020-01-12T11:08:08.000Z</time>
      </trkpt>
      <trkpt lat="43.60274" lon="0.49991">
        <ele>196</ele>
        <time>2020-01-12T11:08:10.000Z</time>
      </trkpt>
      <trkpt lat="43.60274" lon="0.49994">
        <ele>196</ele>
        <time>2020-01-12T11:08:12.000Z</time>
      </trkpt>
      <trkpt lat="43.60274" lon="0.49996">
        <ele>196</ele>
        <time>2020-01-12T11:08:14.000Z</time>
      </trkpt>
      <trkpt lat="43.60275" lon="0.49998">
        <ele>196</ele>
        <time>2020-01-12T11:08:16.000Z</time>
      </trkpt>
      <trkpt lat="43.60276" lon="0.5">
        <ele>196</ele>
        <time>2020-01-12T11:08:18.000Z</time>
      </trkpt>
      <trkpt lat="43.60276" lon="0.50002">
        <ele>196</ele>
        <time>2020-01-12T11:08:20.000Z</time>
      </trkpt>
      <trkpt lat="43.60276" lon="0.50005">
        <ele>196</ele>
        <time>2020-01-12T11:08:22.000Z</time>
      </trkpt>
      <trkpt lat="43.60277" lon="0.50007">
        <ele>196</ele>
        <time>2020-01-12T11:08:24.000Z</time>
      </trkpt>
      <trkpt lat="43.60278" lon="0.50008">
        <ele>196</ele>
        <time>2020-01-12T11:08:26.000Z</time>
      </trkpt>
      <trkpt lat="43.60279" lon="0.50011">
        <ele>196</ele>
        <time>2020-01-12T11:08:28.000Z</time>
      </trkpt>
      <trkpt lat="43.60279" lon="0.50013">
        <ele>196</ele>
        <time>2020-01-12T11:08:30.000Z</time>
      </trkpt>
      <trkpt lat="43.6028" lon="0.50015">
        <ele>196</ele>
        <time>2020-01-12T11:08:32.000Z</time>
      </trkpt>
      <trkpt lat="43.60282" lon="0.50017">
        <ele>196</ele>
        <time>2020-01-12T11:08:34.000Z</time>
      </trkpt>
      <trkpt lat="43.60283" lon="0.50019">
        <ele>196</ele>
        <time>2020-01-12T11:08:36.000Z</time>
      </trkpt>
      <trkpt lat="43.60285" lon="0.50021">
        <ele>196</ele>
        <time>2020-01-12T11:08:38.000Z</time>
      </trkpt>
      <trkpt lat="43.60286" lon="0.50022">
        <ele>196</ele>
        <time>2020-01-12T11:08:40.000Z</time>
      </trkpt>
      <trkpt lat="43.60287" lon="0.50024">
        <ele>196</ele>
        <time>2020-01-12T11:08:42.000Z</time>
      </trkpt>
      <trkpt lat="43.60288" lon="0.50026">
        <ele>196</ele>
        <time>2020-01-12T11:08:44.000Z</time>
      </trkpt>
      <trkpt lat="43.60289" lon="0.50027">
        <ele>196</ele>
        <time>2020-01-12T11:08:46.000Z</time>
      </trkpt>
      <trkpt lat="43.6029" lon="0.50029">
        <ele>196</ele>
        <time>2020-01-12T11:08:48.000Z</time>
      </trkpt>
      <trkpt lat="43.60291" lon="0.5003">
        <ele>195</ele>
        <time>2020-01-12T11:08:50.000Z</time>
      </trkpt>
      <trkpt lat="43.60291" lon="0.50031">
        <ele>195</ele>
        <time>2020-01-12T11:08:52.000Z</time>
      </trkpt>
      <trkpt lat="43.60292" lon="0.50031">
        <ele>195</ele>
        <time>2020-01-12T11:08:54.000Z</time>
      </trkpt>
      <trkpt lat="43.60294" lon="0.50032">
        <ele>195</ele>
        <time>2020-01-12T11:08:56.000Z</time>
      </trkpt>
      <trkpt lat="43.60294" lon="0.50033">
        <ele>195</ele>
        <time>2020-01-12T11:08:58.000Z</time>
      </trkpt>
      <trkpt lat="43.60293" lon="0.50033">
        <ele>195</ele>
        <time>2020-01-12T11:09:00.000Z</time>
      </trkpt>
      <trkpt lat="43.60294" lon="0.50035">
        <ele>195</ele>
        <time>2020-01-12T11:09:02.000Z</time>
      </trkpt>
      <trkpt lat="43.60296" lon="0.50036">
        <ele>195</ele>
        <time>2020-01-12T11:09:04.000Z</time>
      </trkpt>
      <trkpt lat="43.60298" lon="0.50037">
        <ele>195</ele>
        <time>2020-01-12T11:09:06.000Z</time>
      </trkpt>
      <trkpt lat="43.60299" lon="0.50039">
        <ele>195</ele>
        <time>2020-01-12T11:09:08.000Z</time>
      </trkpt>
      <trkpt lat="43.60302" lon="0.50039">
        <ele>195</ele>
        <time>2020-01-12T11:09:10.000Z</time>
      </trkpt>
      <trkpt lat="43.60304" lon="0.50039">
        <ele>195</ele>
        <time>2020-01-12T11:09:12.000Z</time>
      </trkpt>
      <trkpt lat="43.60306" lon="0.50039">
        <ele>195</ele>
        <time>2020-01-12T11:09:14.000Z</time>
      </trkpt>
      <trkpt lat="43.60307" lon="0.50039">
        <ele>195</ele>
        <time>2020-01-12T11:09:16.000Z</time>
      </trkpt>
      <trkpt lat="43.60309" lon="0.50039">
        <ele>195</ele>
        <time>2020-01-12T11:09:18.000Z</time>
      </trkpt>
      <trkpt lat="43.60311" lon="0.50038">
        <ele>195</ele>
        <time>2020-01-12T11:09:20.000Z</time>
      </trkpt>
      <trkpt lat="43.60313" lon="0.50037">
        <ele>195</ele>
        <time>2020-01-12T11:09:22.000Z</time>
      </trkpt>
      <trkpt lat="43.60315" lon="0.50036">
        <ele>195</ele>
        <time>2020-01-12T11:09:24.000Z</time>
      </trkpt>
      <trkpt lat="43.60317" lon="0.50034">
        <ele>195</ele>
        <time>2020-01-12T11:09:26.000Z</time>
      </trkpt>
      <trkpt lat="43.60319" lon="0.50033">
        <ele>195</ele>
        <time>2020-01-12T11:09:28.000Z</time>
      </trkpt>
      <trkpt lat="43.60321" lon="0.50032">
        <ele>195</ele>
        <time>2020-01-12T11:09:30.000Z</time>
      </trkpt>
      <trkpt lat="43.60323" lon="0.50031">
        <ele>195</ele>
        <time>2020-01-12T11:09:32.000Z</time>
      </trkpt>
      <trkpt lat="43.60324" lon="0.5003">
        <ele>195</ele>
        <time>2020-01-12T11:09:34.000Z</time>
      </trkpt>
      <trkpt lat="43.60326" lon="0.50029">
        <ele>195</ele>
        <time>2020-01-12T11:09:36.000Z</time>
      </trkpt>
      <trkpt lat="43.60327" lon="0.50029">
        <ele>195</ele>
        <time>2020-01-12T11:09:38.000Z</time>
      </trkpt>
      <trkpt lat="43.60329" lon="0.50029">
        <ele>196</ele>
        <time>2020-01-12T11:09:40.000Z</time>
      </trkpt>
      <trkpt lat="43.60331" lon="0.50028">
        <ele>196</ele>
        <time>2020-01-12T11:09:42.000Z</time>
      </trkpt>
      <trkpt lat="43.60333" lon="0.50027">
        <ele>196</ele>
        <time>2020-01-12T11:09:44.000Z</time>
      </trkpt>
      <trkpt lat="43.60334" lon="0.50026">
        <ele>196</ele>
        <time>2020-01-12T11:09:46.000Z</time>
      </trkpt>
      <trkpt lat="43.60336" lon="0.50025">
        <ele>196</ele>
        <time>2020-01-12T11:09:48.000Z</time>
      </trkpt>
      <trkpt lat="43.60337" lon="0.50024">
        <ele>196</ele>
        <time>2020-01-12T11:09:50.000Z</time>
      </trkpt>
      <trkpt lat="43.60338" lon="0.50023">
        <ele>196</ele>
        <time>2020-01-12T11:09:52.000Z</time>
      </trkpt>
      <trkpt lat="43.6034" lon="0.50022">
        <ele>196</ele>
        <time>2020-01-12T11:09:54.000Z</time>
      </trkpt>
      <trkpt lat="43.60342" lon="0.50021">
        <ele>196</ele>
        <time>2020-01-12T11:09:56.000Z</time>
      </trkpt>
      <trkpt lat="43.60344" lon="0.5002">
        <ele>196</ele>
        <time>2020-01-12T11:09:58.000Z</time>
      </trkpt>
      <trkpt lat="43.60345" lon="0.50019">
        <ele>196</ele>
        <time>2020-01-12T11:10:00.000Z</time>
      </trkpt>
      <trkpt lat="43.60347" lon="0.50018">
        <ele>196</ele>
        <time>2020-01-12T11:10:02.000Z</time>
      </trkpt>
      <trkpt lat="43.60349" lon="0.50017">
        <ele>196</ele>
        <time>2020-01-12T11:10:04.000Z</time>
      </trkpt>
      <trkpt lat="43.6035" lon="0.50015">
        <ele>196</ele>
        <time>2020-01-12T11:10:06.000Z</time>
      </trkpt>
      <trkpt lat="43.60351" lon="0.50014">
        <ele>196</ele>
        <time>2020-01-12T11:10:08.000Z</time>
      </trkpt>
      <trkpt lat="43.60353" lon="0.50013">
        <ele>196</ele>
        <time>2020-01-12T11:10:10.000Z</time>
      </trkpt>
      <trkpt lat="43.60354" lon="0.50012">
        <ele>196</ele>
        <time>2020-01-12T11:10:12.000Z</time>
      </trkpt>
      <trkpt lat="43.60356" lon="0.50011">
        <ele>196</ele>
        <time>2020-01-12T11:10:14.000Z</time>
      </trkpt>
      <trkpt lat="43.60357" lon="0.5001">
        <ele>196</ele>
        <time>2020-01-12T11:10:16.000Z</time>
      </trkpt>
      <trkpt lat="43.60357" lon="0.50011">
        <ele>196</ele>
        <time>2020-01-12T11:10:18.000Z</time>
      </trkpt>
      <trkpt lat="43.60359" lon="0.5001">
        <ele>196</ele>
        <time>2020-01-12T11:10:20.000Z</time>
      </trkpt>
      <trkpt lat="43.6036" lon="0.50009">
        <ele>196</ele>
        <time>2020-01-12T11:10:22.000Z</time>
      </trkpt>
      <trkpt lat="43.60362" lon="0.50007">
        <ele>196</ele>
        <time>2020-01-12T11:10:24.000Z</time>
      </trkpt>
      <trkpt lat="43.60364" lon="0.50006">
        <ele>196</ele>
        <time>2020-01-12T11:10:26.000Z</time>
      </trkpt>
      <trkpt lat="43.60366" lon="0.50005">
        <ele>196</ele>
        <time>2020-01-12T11:10:28.000Z</time>
      </trkpt>
      <trkpt lat="43.60368" lon="0.50004">
        <ele>196</ele>
        <time>2020-01-12T11:10:30.000Z</time>
      </trkpt>
      <trkpt lat="43.6037" lon="0.50003">
        <ele>196</ele>
        <time>2020-01-12T11:10:32.000Z</time>
      </trkpt>
      <trkpt lat="43.60371" lon="0.50002">
        <ele>196</ele>
        <time>2020-01-12T11:10:34.000Z</time>
      </trkpt>
      <trkpt lat="43.60373" lon="0.50001">
        <ele>196</ele>
        <time>2020-01-12T11:10:36.000Z</time>
      </trkpt>
      <trkpt lat="43.60375" lon="0.5">
        <ele>196</ele>
        <time>2020-01-12T11:10:38.000Z</time>
      </trkpt>
      <trkpt lat="43.60376" lon="0.49999">
        <ele>196</ele>
        <time>2020-01-12T11:10:40.000Z</time>
      </trkpt>
      <trkpt lat="43.60378" lon="0.49998">
        <ele>196</ele>
        <time>2020-01-12T11:10:42.000Z</time>
      </trkpt>
      <trkpt lat="43.60379" lon="0.49997">
        <ele>196</ele>
        <time>2020-01-12T11:10:44.000Z</time>
      </trkpt>
      <trkpt lat="43.60381" lon="0.49996">
        <ele>196</ele>
        <time>2020-01-12T11:10:46.000Z</time>
      </trkpt>
      <trkpt lat="43.60382" lon="0.49995">
        <ele>196</ele>
        <time>2020-01-12T11:10:48.000Z</time>
      </trkpt>
      <trkpt lat="43.60383" lon="0.49994">
        <ele>196</ele>
        <time>2020-01-12T11:10:50.000Z</time>
      </trkpt>
      <trkpt lat="43.60384" lon="0.49992">
        <ele>196</ele>
        <time>2020-01-12T11:10:52.000Z</time>
      </trkpt>
      <trkpt lat="43.60385" lon="0.49991">
        <ele>196</ele>
        <time>2020-01-12T11:10:54.000Z</time>
      </trkpt>
      <trkpt lat="43.60387" lon="0.4999">
        <ele>196</ele>
        <time>2020-01-12T11:10:56.000Z</time>
      </trkpt>
      <trkpt lat="43.60388" lon="0.49989">
        <ele>196</ele>
        <time>2020-01-12T11:10:58.000Z</time>
      </trkpt>
      <trkpt lat="43.60389" lon="0.49988">
        <ele>196</ele>
        <time>2020-01-12T11:11:00.000Z</time>
      </trkpt>
      <trkpt lat="43.60391" lon="0.49987">
        <ele>196</ele>
        <time>2020-01-12T11:11:02.000Z</time>
      </trkpt>
      <trkpt lat="43.60392" lon="0.49986">
        <ele>196</ele>
        <time>2020-01-12T11:11:04.000Z</time>
      </trkpt>
      <trkpt lat="43.60394" lon="0.49985">
        <ele>196</ele>
        <time>2020-01-12T11:11:06.000Z</time>
      </trkpt>
      <trkpt lat="43.60396" lon="0.49985">
        <ele>196</ele>
        <time>2020-01-12T11:11:08.000Z</time>
      </trkpt>
      <trkpt lat="43.60398" lon="0.49984">
        <ele>196</ele>
        <time>2020-01-12T11:11:10.000Z</time>
      </trkpt>
      <trkpt lat="43.60399" lon="0.49983">
        <ele>196</ele>
        <time>2020-01-12T11:11:12.000Z</time>
      </trkpt>
      <trkpt lat="43.60401" lon="0.49982">
        <ele>196</ele>
        <time>2020-01-12T11:11:14.000Z</time>
      </trkpt>
      <trkpt lat="43.60402" lon="0.4998">
        <ele>196</ele>
        <time>2020-01-12T11:11:16.000Z</time>
      </trkpt>
      <trkpt lat="43.60404" lon="0.49979">
        <ele>196</ele>
        <time>2020-01-12T11:11:18.000Z</time>
      </trkpt>
      <trkpt lat="43.60405" lon="0.49978">
        <ele>196</ele>
        <time>2020-01-12T11:11:20.000Z</time>
      </trkpt>
      <trkpt lat="43.60406" lon="0.49977">
        <ele>196</ele>
        <time>2020-01-12T11:11:22.000Z</time>
      </trkpt>
      <trkpt lat="43.60408" lon="0.49977">
        <ele>196</ele>
        <time>2020-01-12T11:11:24.000Z</time>
      </trkpt>
      <trkpt lat="43.6041" lon="0.49976">
        <ele>196</ele>
        <time>2020-01-12T11:11:26.000Z</time>
      </trkpt>
      <trkpt lat="43.60411" lon="0.49975">
        <ele>196</ele>
        <time>2020-01-12T11:11:28.000Z</time>
      </trkpt>
      <trkpt lat="43.60413" lon="0.49974">
        <ele>196</ele>
        <time>2020-01-12T11:11:30.000Z</time>
      </trkpt>
      <trkpt lat="43.60414" lon="0.49974">
        <ele>196</ele>
        <time>2020-01-12T11:11:32.000Z</time>
      </trkpt>
      <trkpt lat="43.60415" lon="0.49973">
        <ele>195</ele>
        <time>2020-01-12T11:11:34.000Z</time>
      </trkpt>
      <trkpt lat="43.60417" lon="0.49971">
        <ele>195</ele>
        <time>2020-01-12T11:11:36.000Z</time>
      </trkpt>
      <trkpt lat="43.60418" lon="0.49971">
        <ele>195</ele>
        <time>2020-01-12T11:11:38.000Z</time>
      </trkpt>
      <trkpt lat="43.6042" lon="0.4997">
        <ele>195</ele>
        <time>2020-01-12T11:11:40.000Z</time>
      </trkpt>
      <trkpt lat="43.60421" lon="0.49969">
        <ele>195</ele>
        <time>2020-01-12T11:11:42.000Z</time>
      </trkpt>
      <trkpt lat="43.60422" lon="0.49968">
        <ele>195</ele>
        <time>2020-01-12T11:11:44.000Z</time>
      </trkpt>
      <trkpt lat="43.60424" lon="0.49966">
        <ele>195</ele>
        <time>2020-01-12T11:11:46.000Z</time>
      </trkpt>
      <trkpt lat="43.60425" lon="0.49965">
        <ele>195</ele>
        <time>2020-01-12T11:11:48.000Z</time>
      </trkpt>
      <trkpt lat="43.60426" lon="0.49964">
        <ele>195</ele>
        <time>2020-01-12T11:11:50.000Z</time>
      </trkpt>
      <trkpt lat="43.60428" lon="0.49962">
        <ele>195</ele>
        <time>2020-01-12T11:11:52.000Z</time>
      </trkpt>
      <trkpt lat="43.60429" lon="0.49961">
        <ele>195</ele>
        <time>2020-01-12T11:11:54.000Z</time>
      </trkpt>
      <trkpt lat="43.6043" lon="0.4996">
        <ele>195</ele>
        <time>2020-01-12T11:11:56.000Z</time>
      </trkpt>
      <trkpt lat="43.60431" lon="0.49959">
        <ele>195</ele>
        <time>2020-01-12T11:11:58.000Z</time>
      </trkpt>
      <trkpt lat="43.60432" lon="0.49958">
        <ele>195</ele>
        <time>2020-01-12T11:12:00.000Z</time>
      </trkpt>
      <trkpt lat="43.60434" lon="0.49956">
        <ele>196</ele>
        <time>2020-01-12T11:12:02.000Z</time>
      </trkpt>
      <trkpt lat="43.60435" lon="0.49955">
        <ele>196</ele>
        <time>2020-01-12T11:12:04.000Z</time>
      </trkpt>
      <trkpt lat="43.60437" lon="0.49955">
        <ele>196</ele>
        <time>2020-01-12T11:12:06.000Z</time>
      </trkpt>
      <trkpt lat="43.60439" lon="0.49954">
        <ele>196</ele>
        <time>2020-01-12T11:12:08.000Z</time>
      </trkpt>
      <trkpt lat="43.60441" lon="0.49953">
        <ele>196</ele>
        <time>2020-01-12T11:12:10.000Z</time>
      </trkpt>
      <trkpt lat="43.60443" lon="0.49953">
        <ele>196</ele>
        <time>2020-01-12T11:12:12.000Z</time>
      </trkpt>
      <trkpt lat="43.60445" lon="0.49952">
        <ele>196</ele>
        <time>2020-01-12T11:12:14.000Z</time>
      </trkpt>
      <trkpt lat="43.60446" lon="0.49953">
        <ele>196</ele>
        <time>2020-01-12T11:12:16.000Z</time>
      </trkpt>
      <trkpt lat="43.60448" lon="0.49953">
        <ele>196</ele>
        <time>2020-01-12T11:12:18.000Z</time>
      </trkpt>
      <trkpt lat="43.60449" lon="0.49953">
        <ele>196</ele>
        <time>2020-01-12T11:12:20.000Z</time>
      </trkpt>
      <trkpt lat="43.60451" lon="0.49952">
        <ele>196</ele>
        <time>2020-01-12T11:12:22.000Z</time>
      </trkpt>
      <trkpt lat="43.60452" lon="0.49951">
        <ele>196</ele>
        <time>2020-01-12T11:12:24.000Z</time>
      </trkpt>
      <trkpt lat="43.60454" lon="0.49951">
        <ele>196</ele>
        <time>2020-01-12T11:12:26.000Z</time>
      </trkpt>
      <trkpt lat="43.60455" lon="0.4995">
        <ele>196</ele>
        <time>2020-01-12T11:12:28.000Z</time>
      </trkpt>
      <trkpt lat="43.60457" lon="0.4995">
        <ele>196</ele>
        <time>2020-01-12T11:12:30.000Z</time>
      </trkpt>
      <trkpt lat="43.60459" lon="0.4995">
        <ele>196</ele>
        <time>2020-01-12T11:12:32.000Z</time>
      </trkpt>
      <trkpt lat="43.6046" lon="0.49949">
        <ele>196</ele>
        <time>2020-01-12T11:12:34.000Z</time>
      </trkpt>
      <trkpt lat="43.60461" lon="0.49948">
        <ele>196</ele>
        <time>2020-01-12T11:12:36.000Z</time>
      </trkpt>
      <trkpt lat="43.60463" lon="0.49947">
        <ele>196</ele>
        <time>2020-01-12T11:12:38.000Z</time>
      </trkpt>
      <trkpt lat="43.60465" lon="0.49946">
        <ele>196</ele>
        <time>2020-01-12T11:12:40.000Z</time>
      </trkpt>
      <trkpt lat="43.60467" lon="0.49945">
        <ele>196</ele>
        <time>2020-01-12T11:12:42.000Z</time>
      </trkpt>
      <trkpt lat="43.60468" lon="0.49945">
        <ele>196</ele>
        <time>2020-01-12T11:12:44.000Z</time>
      </trkpt>
      <trkpt lat="43.6047" lon="0.49944">
        <ele>196</ele>
        <time>2020-01-12T11:12:46.000Z</time>
      </trkpt>
      <trkpt lat="43.60471" lon="0.49943">
        <ele>196</ele>
        <time>2020-01-12T11:12:48.000Z</time>
      </trkpt>
      <trkpt lat="43.60472" lon="0.49945">
        <ele>196</ele>
        <time>2020-01-12T11:12:50.000Z</time>
      </trkpt>
      <trkpt lat="43.60473" lon="0.49945">
        <ele>196</ele>
        <time>2020-01-12T11:12:52.000Z</time>
      </trkpt>
      <trkpt lat="43.60474" lon="0.49944">
        <ele>196</ele>
        <time>2020-01-12T11:12:54.000Z</time>
      </trkpt>
      <trkpt lat="43.60475" lon="0.49943">
        <ele>196</ele>
        <time>2020-01-12T11:12:56.000Z</time>
      </trkpt>
      <trkpt lat="43.60476" lon="0.49943">
        <ele>196</ele>
        <time>2020-01-12T11:12:58.000Z</time>
      </trkpt>
      <trkpt lat="43.60477" lon="0.49943">
        <ele>196</ele>
        <time>2020-01-12T11:13:00.000Z</time>
      </trkpt>
      <trkpt lat="43.60478" lon="0.49942">
        <ele>196</ele>
        <time>2020-01-12T11:13:02.000Z</time>
      </trkpt>
      <trkpt lat="43.60479" lon="0.49942">
        <ele>196</ele>
        <time>2020-01-12T11:13:04.000Z</time>
      </trkpt>
      <trkpt lat="43.6048" lon="0.49941">
        <ele>196</ele>
        <time>2020-01-12T11:13:06.000Z</time>
      </trkpt>
      <trkpt lat="43.60482" lon="0.49941">
        <ele>196</ele>
        <time>2020-01-12T11:13:08.000Z</time>
      </trkpt>
      <trkpt lat="43.60484" lon="0.4994">
        <ele>196</ele>
        <time>2020-01-12T11:13:10.000Z</time>
      </trkpt>
      <trkpt lat="43.60486" lon="0.4994">
        <ele>196</ele>
        <time>2020-01-12T11:13:12.000Z</time>
      </trkpt>
      <trkpt lat="43.60487" lon="0.49939">
        <ele>196</ele>
        <time>2020-01-12T11:13:14.000Z</time>
      </trkpt>
      <trkpt lat="43.60489" lon="0.49938">
        <ele>196</ele>
        <time>2020-01-12T11:13:16.000Z</time>
      </trkpt>
      <trkpt lat="43.6049" lon="0.49938">
        <ele>196</ele>
        <time>2020-01-12T11:13:18.000Z</time>
      </trkpt>
      <trkpt lat="43.60491" lon="0.49937">
        <ele>196</ele>
        <time>2020-01-12T11:13:20.000Z</time>
      </trkpt>
      <trkpt lat="43.60493" lon="0.49936">
        <ele>196</ele>
        <time>2020-01-12T11:13:22.000Z</time>
      </trkpt>
      <trkpt lat="43.60495" lon="0.49935">
        <ele>197</ele>
        <time>2020-01-12T11:13:24.000Z</time>
      </trkpt>
      <trkpt lat="43.60496" lon="0.49935">
        <ele>197</ele>
        <time>2020-01-12T11:13:26.000Z</time>
      </trkpt>
      <trkpt lat="43.60497" lon="0.49934">
        <ele>197</ele>
        <time>2020-01-12T11:13:28.000Z</time>
      </trkpt>
      <trkpt lat="43.60499" lon="0.49933">
        <ele>197</ele>
        <time>2020-01-12T11:13:30.000Z</time>
      </trkpt>
      <trkpt lat="43.605" lon="0.49932">
        <ele>197</ele>
        <time>2020-01-12T11:13:32.000Z</time>
      </trkpt>
      <trkpt lat="43.60502" lon="0.49932">
        <ele>197</ele>
        <time>2020-01-12T11:13:34.000Z</time>
      </trkpt>
      <trkpt lat="43.60504" lon="0.49933">
        <ele>197</ele>
        <time>2020-01-12T11:13:36.000Z</time>
      </trkpt>
      <trkpt lat="43.60505" lon="0.49933">
        <ele>197</ele>
        <time>2020-01-12T11:13:38.000Z</time>
      </trkpt>
      <trkpt lat="43.60507" lon="0.49933">
        <ele>197</ele>
        <time>2020-01-12T11:13:40.000Z</time>
      </trkpt>
      <trkpt lat="43.60509" lon="0.49932">
        <ele>197</ele>
        <time>2020-01-12T11:13:42.000Z</time>
      </trkpt>
      <trkpt lat="43.60511" lon="0.49931">
        <ele>197</ele>
        <time>2020-01-12T11:13:44.000Z</time>
      </trkpt>
      <trkpt lat="43.60512" lon="0.4993">
        <ele>197</ele>
        <time>2020-01-12T11:13:46.000Z</time>
      </trkpt>
      <trkpt lat="43.60514" lon="0.4993">
        <ele>197</ele>
        <time>2020-01-12T11:13:48.000Z</time>
      </trkpt>
      <trkpt lat="43.60514" lon="0.4993">
        <ele>197</ele>
        <time>2020-01-12T11:13:50.000Z</time>
      </trkpt>
      <trkpt lat="43.60515" lon="0.4993">
        <ele>197</ele>
        <time>2020-01-12T11:13:52.000Z</time>
      </trkpt>
      <trkpt lat="43.60518" lon="0.49929">
        <ele>197</ele>
        <time>2020-01-12T11:13:54.000Z</time>
      </trkpt>
      <trkpt lat="43.6052" lon="0.49928">
        <ele>197</ele>
        <time>2020-01-12T11:13:56.000Z</time>
      </trkpt>
      <trkpt lat="43.60522" lon="0.49927">
        <ele>197</ele>
        <time>2020-01-12T11:13:58.000Z</time>
      </trkpt>
      <trkpt lat="43.60523" lon="0.49926">
        <ele>197</ele>
        <time>2020-01-12T11:14:00.000Z</time>
      </trkpt>
      <trkpt lat="43.60525" lon="0.49925">
        <ele>197</ele>
        <time>2020-01-12T11:14:02.000Z</time>
      </trkpt>
      <trkpt lat="43.60527" lon="0.49924">
        <ele>197</ele>
        <time>2020-01-12T11:14:04.000Z</time>
      </trkpt>
      <trkpt lat="43.60529" lon="0.49923">
        <ele>197</ele>
        <time>2020-01-12T11:14:06.000Z</time>
      </trkpt>
      <trkpt lat="43.6053" lon="0.49922">
        <ele>197</ele>
        <time>2020-01-12T11:14:08.000Z</time>
      </trkpt>
      <trkpt lat="43.60532" lon="0.49921">
        <ele>197</ele>
        <time>2020-01-12T11:14:10.000Z</time>
      </trkpt>
      <trkpt lat="43.60533" lon="0.49921">
        <ele>197</ele>
        <time>2020-01-12T11:14:12.000Z</time>
      </trkpt>
      <trkpt lat="43.60534" lon="0.4992">
        <ele>197</ele>
        <time>2020-01-12T11:14:14.000Z</time>
      </trkpt>
      <trkpt lat="43.60535" lon="0.49919">
        <ele>197</ele>
        <time>2020-01-12T11:14:16.000Z</time>
      </trkpt>
      <trkpt lat="43.60537" lon="0.49919">
        <ele>197</ele>
        <time>2020-01-12T11:14:18.000Z</time>
      </trkpt>
      <trkpt lat="43.60539" lon="0.49919">
        <ele>197</ele>
        <time>2020-01-12T11:14:20.000Z</time>
      </trkpt>
      <trkpt lat="43.6054" lon="0.49918">
        <ele>197</ele>
        <time>2020-01-12T11:14:22.000Z</time>
      </trkpt>
      <trkpt lat="43.60542" lon="0.49918">
        <ele>197</ele>
        <time>2020-01-12T11:14:24.000Z</time>
      </trkpt>
      <trkpt lat="43.60544" lon="0.49918">
        <ele>197</ele>
        <time>2020-01-12T11:14:26.000Z</time>
      </trkpt>
      <trkpt lat="43.60545" lon="0.49917">
        <ele>197</ele>
        <time>2020-01-12T11:14:28.000Z</time>
      </trkpt>
      <trkpt lat="43.60546" lon="0.49916">
        <ele>197</ele>
        <time>2020-01-12T11:14:30.000Z</time>
      </trkpt>
      <trkpt lat="43.60547" lon="0.49915">
        <ele>197</ele>
        <time>2020-01-12T11:14:32.000Z</time>
      </trkpt>
      <trkpt lat="43.60549" lon="0.49915">
        <ele>198</ele>
        <time>2020-01-12T11:14:34.000Z</time>
      </trkpt>
      <trkpt lat="43.6055" lon="0.49913">
        <ele>197</ele>
        <time>2020-01-12T11:14:36.000Z</time>
      </trkpt>
      <trkpt lat="43.60551" lon="0.49911">
        <ele>197</ele>
        <time>2020-01-12T11:14:38.000Z</time>
      </trkpt>
      <trkpt lat="43.60552" lon="0.4991">
        <ele>197</ele>
        <time>2020-01-12T11:14:40.000Z</time>
      </trkpt>
      <trkpt lat="43.60553" lon="0.49908">
        <ele>197</ele>
        <time>2020-01-12T11:14:42.000Z</time>
      </trkpt>
      <trkpt lat="43.60554" lon="0.49906">
        <ele>197</ele>
        <time>2020-01-12T11:14:44.000Z</time>
      </trkpt>
      <trkpt lat="43.60554" lon="0.49904">
        <ele>197</ele>
        <time>2020-01-12T11:14:46.000Z</time>
      </trkpt>
      <trkpt lat="43.60555" lon="0.49902">
        <ele>197</ele>
        <time>2020-01-12T11:14:48.000Z</time>
      </trkpt>
      <trkpt lat="43.60555" lon="0.49899">
        <ele>197</ele>
        <time>2020-01-12T11:14:50.000Z</time>
      </trkpt>
      <trkpt lat="43.60555" lon="0.49897">
        <ele>197</ele>
        <time>2020-01-12T11:14:52.000Z</time>
      </trkpt>
      <trkpt lat="43.60554" lon="0.49894">
        <ele>197</ele>
        <time>2020-01-12T11:14:54.000Z</time>
      </trkpt>
      <trkpt lat="43.60553" lon="0.49892">
        <ele>197</ele>
        <time>2020-01-12T11:14:56.000Z</time>
      </trkpt>
      <trkpt lat="43.60552" lon="0.4989">
        <ele>197</ele>
        <time>2020-01-12T11:14:58.000Z</time>
      </trkpt>
      <trkpt lat="43.60552" lon="0.49888">
        <ele>197</ele>
        <time>2020-01-12T11:15:00.000Z</time>
      </trkpt>
      <trkpt lat="43.60551" lon="0.49886">
        <ele>197</ele>
        <time>2020-01-12T11:15:02.000Z</time>
      </trkpt>
      <trkpt lat="43.6055" lon="0.49883">
        <ele>197</ele>
        <time>2020-01-12T11:15:04.000Z</time>
      </trkpt>
      <trkpt lat="43.60549" lon="0.49881">
        <ele>198</ele>
        <time>2020-01-12T11:15:06.000Z</time>
      </trkpt>
      <trkpt lat="43.60549" lon="0.49879">
        <ele>198</ele>
        <time>2020-01-12T11:15:08.000Z</time>
      </trkpt>
      <trkpt lat="43.60548" lon="0.49876">
        <ele>198</ele>
        <time>2020-01-12T11:15:10.000Z</time>
      </trkpt>
      <trkpt lat="43.60547" lon="0.49874">
        <ele>198</ele>
        <time>2020-01-12T11:15:12.000Z</time>
      </trkpt>
      <trkpt lat="43.60546" lon="0.49871">
        <ele>198</ele>
        <time>2020-01-12T11:15:14.000Z</time>
      </trkpt>
      <trkpt lat="43.60545" lon="0.49869">
        <ele>198</ele>
        <time>2020-01-12T11:15:16.000Z</time>
      </trkpt>
      <trkpt lat="43.60544" lon="0.49867">
        <ele>198</ele>
        <time>2020-01-12T11:15:18.000Z</time>
      </trkpt>
      <trkpt lat="43.60544" lon="0.49865">
        <ele>198</ele>
        <time>2020-01-12T11:15:20.000Z</time>
      </trkpt>
      <trkpt lat="43.60543" lon="0.49862">
        <ele>198</ele>
        <time>2020-01-12T11:15:22.000Z</time>
      </trkpt>
      <trkpt lat="43.60543" lon="0.49859">
        <ele>198</ele>
        <time>2020-01-12T11:15:24.000Z</time>
      </trkpt>
      <trkpt lat="43.60542" lon="0.49856">
        <ele>198</ele>
        <time>2020-01-12T11:15:26.000Z</time>
      </trkpt>
      <trkpt lat="43.60542" lon="0.49853">
        <ele>198</ele>
        <time>2020-01-12T11:15:28.000Z</time>
      </trkpt>
      <trkpt lat="43.60542" lon="0.4985">
        <ele>198</ele>
        <time>2020-01-12T11:15:30.000Z</time>
      </trkpt>
      <trkpt lat="43.60542" lon="0.49848">
        <ele>198</ele>
        <time>2020-01-12T11:15:32.000Z</time>
      </trkpt>
      <trkpt lat="43.60543" lon="0.49845">
        <ele>198</ele>
        <time>2020-01-12T11:15:34.000Z</time>
      </trkpt>
      <trkpt lat="43.60544" lon="0.49843">
        <ele>198</ele>
        <time>2020-01-12T11:15:36.000Z</time>
      </trkpt>
      <trkpt lat="43.60545" lon="0.49842">
        <ele>198</ele>
        <time>2020-01-12T11:15:38.000Z</time>
      </trkpt>
      <trkpt lat="43.60546" lon="0.49839">
        <ele>198</ele>
        <time>2020-01-12T11:15:40.000Z</time>
      </trkpt>
      <trkpt lat="43.60547" lon="0.49837">
        <ele>198</ele>
        <time>2020-01-12T11:15:42.000Z</time>
      </trkpt>
      <trkpt lat="43.60548" lon="0.49835">
        <ele>198</ele>
        <time>2020-01-12T11:15:44.000Z</time>
      </trkpt>
      <trkpt lat="43.60548" lon="0.49832">
        <ele>198</ele>
        <time>2020-01-12T11:15:46.000Z</time>
      </trkpt>
      <trkpt lat="43.60548" lon="0.4983">
        <ele>198</ele>
        <time>2020-01-12T11:15:48.000Z</time>
      </trkpt>
      <trkpt lat="43.60548" lon="0.49828">
        <ele>198</ele>
        <time>2020-01-12T11:15:50.000Z</time>
      </trkpt>
      <trkpt lat="43.60548" lon="0.49826">
        <ele>198</ele>
        <time>2020-01-12T11:15:52.000Z</time>
      </trkpt>
      <trkpt lat="43.60548" lon="0.49823">
        <ele>198</ele>
        <time>2020-01-12T11:15:54.000Z</time>
      </trkpt>
      <trkpt lat="43.60549" lon="0.49821">
        <ele>199</ele>
        <time>2020-01-12T11:15:56.000Z</time>
      </trkpt>
      <trkpt lat="43.60549" lon="0.49818">
        <ele>199</ele>
        <time>2020-01-12T11:15:58.000Z</time>
      </trkpt>
      <trkpt lat="43.6055" lon="0.49817">
        <ele>199</ele>
        <time>2020-01-12T11:16:00.000Z</time>
      </trkpt>
      <trkpt lat="43.60552" lon="0.49815">
        <ele>199</ele>
        <time>2020-01-12T11:16:02.000Z</time>
      </trkpt>
      <trkpt lat="43.60553" lon="0.49813">
        <ele>199</ele>
        <time>2020-01-12T11:16:04.000Z</time>
      </trkpt>
      <trkpt lat="43.60554" lon="0.49811">
        <ele>199</ele>
        <time>2020-01-12T11:16:06.000Z</time>
      </trkpt>
      <trkpt lat="43.60556" lon="0.4981">
        <ele>199</ele>
        <time>2020-01-12T11:16:08.000Z</time>
      </trkpt>
      <trkpt lat="43.60558" lon="0.49808">
        <ele>199</ele>
        <time>2020-01-12T11:16:10.000Z</time>
      </trkpt>
      <trkpt lat="43.6056" lon="0.49807">
        <ele>199</ele>
        <time>2020-01-12T11:16:12.000Z</time>
      </trkpt>
      <trkpt lat="43.60562" lon="0.49806">
        <ele>199</ele>
        <time>2020-01-12T11:16:14.000Z</time>
      </trkpt>
      <trkpt lat="43.60563" lon="0.49804">
        <ele>199</ele>
        <time>2020-01-12T11:16:16.000Z</time>
      </trkpt>
      <trkpt lat="43.60565" lon="0.49803">
        <ele>199</ele>
        <time>2020-01-12T11:16:18.000Z</time>
      </trkpt>
      <trkpt lat="43.60566" lon="0.49801">
        <ele>199</ele>
        <time>2020-01-12T11:16:20.000Z</time>
      </trkpt>
      <trkpt lat="43.60568" lon="0.498">
        <ele>199</ele>
        <time>2020-01-12T11:16:22.000Z</time>
      </trkpt>
      <trkpt lat="43.60569" lon="0.49799">
        <ele>199</ele>
        <time>2020-01-12T11:16:24.000Z</time>
      </trkpt>
      <trkpt lat="43.60571" lon="0.49799">
        <ele>199</ele>
        <time>2020-01-12T11:16:26.000Z</time>
      </trkpt>
      <trkpt lat="43.60573" lon="0.49798">
        <ele>199</ele>
        <time>2020-01-12T11:16:28.000Z</time>
      </trkpt>
      <trkpt lat="43.60575" lon="0.49797">
        <ele>199</ele>
        <time>2020-01-12T11:16:30.000Z</time>
      </trkpt>
      <trkpt lat="43.60577" lon="0.49797">
        <ele>199</ele>
        <time>2020-01-12T11:16:32.000Z</time>
      </trkpt>
      <trkpt lat="43.60578" lon="0.49798">
        <ele>199</ele>
        <time>2020-01-12T11:16:34.000Z</time>
      </trkpt>
      <trkpt lat="43.6058" lon="0.49799">
        <ele>199</ele>
        <time>2020-01-12T11:16:36.000Z</time>
      </trkpt>
      <trkpt lat="43.60582" lon="0.49799">
        <ele>198</ele>
        <time>2020-01-12T11:16:38.000Z</time>
      </trkpt>
      <trkpt lat="43.60584" lon="0.49799">
        <ele>198</ele>
        <time>2020-01-12T11:16:40.000Z</time>
      </trkpt>
      <trkpt lat="43.60586" lon="0.498">
        <ele>198</ele>
        <time>2020-01-12T11:16:42.000Z</time>
      </trkpt>
      <trkpt lat="43.60587" lon="0.49801">
        <ele>198</ele>
        <time>2020-01-12T11:16:44.000Z</time>
      </trkpt>
      <trkpt lat="43.60589" lon="0.49801">
        <ele>198</ele>
        <time>2020-01-12T11:16:46.000Z</time>
      </trkpt>
      <trkpt lat="43.60591" lon="0.49802">
        <ele>198</ele>
        <time>2020-01-12T11:16:48.000Z</time>
      </trkpt>
      <trkpt lat="43.60593" lon="0.49802">
        <ele>198</ele>
        <time>2020-01-12T11:16:50.000Z</time>
      </trkpt>
      <trkpt lat="43.60595" lon="0.49802">
        <ele>198</ele>
        <time>2020-01-12T11:16:52.000Z</time>
      </trkpt>
      <trkpt lat="43.60597" lon="0.49802">
        <ele>198</ele>
        <time>2020-01-12T11:16:54.000Z</time>
      </trkpt>
      <trkpt lat="43.60599" lon="0.49802">
        <ele>198</ele>
        <time>2020-01-12T11:16:56.000Z</time>
      </trkpt>
      <trkpt lat="43.606" lon="0.49802">
        <ele>198</ele>
        <time>2020-01-12T11:16:58.000Z</time>
      </trkpt>
      <trkpt lat="43.60602" lon="0.49802">
        <ele>198</ele>
        <time>2020-01-12T11:17:00.000Z</time>
      </trkpt>
      <trkpt lat="43.60604" lon="0.49803">
        <ele>198</ele>
        <time>2020-01-12T11:17:02.000Z</time>
      </trkpt>
      <trkpt lat="43.60606" lon="0.49802">
        <ele>198</ele>
        <time>2020-01-12T11:17:04.000Z</time>
      </trkpt>
      <trkpt lat="43.60608" lon="0.49802">
        <ele>198</ele>
        <time>2020-01-12T11:17:06.000Z</time>
      </trkpt>
      <trkpt lat="43.60609" lon="0.49801">
        <ele>198</ele>
        <time>2020-01-12T11:17:08.000Z</time>
      </trkpt>
      <trkpt lat="43.60611" lon="0.49801">
        <ele>198</ele>
        <time>2020-01-12T11:17:10.000Z</time>
      </trkpt>
      <trkpt lat="43.60613" lon="0.49801">
        <ele>198</ele>
        <time>2020-01-12T11:17:12.000Z</time>
      </trkpt>
      <trkpt lat="43.60614" lon="0.49801">
        <ele>198</ele>
        <time>2020-01-12T11:17:14.000Z</time>
      </trkpt>
      <trkpt lat="43.60615" lon="0.498">
        <ele>198</ele>
        <time>2020-01-12T11:17:16.000Z</time>
      </trkpt>
      <trkpt lat="43.60617" lon="0.498">
        <ele>197</ele>
        <time>2020-01-12T11:17:18.000Z</time>
      </trkpt>
      <trkpt lat="43.60617" lon="0.49799">
        <ele>197</ele>
        <time>2020-01-12T11:17:20.000Z</time>
      </trkpt>
      <trkpt lat="43.60618" lon="0.49799">
        <ele>197</ele>
        <time>2020-01-12T11:17:22.000Z</time>
      </trkpt>
      <trkpt lat="43.60618" lon="0.49799">
        <ele>197</ele>
        <time>2020-01-12T11:17:24.000Z</time>
      </trkpt>
      <trkpt lat="43.60619" lon="0.49799">
        <ele>197</ele>
        <time>2020-01-12T11:17:26.000Z</time>
      </trkpt>
      <trkpt lat="43.60619" lon="0.49799">
        <ele>197</ele>
        <time>2020-01-12T11:17:28.000Z</time>
      </trkpt>
      <trkpt lat="43.60619" lon="0.498">
        <ele>197</ele>
        <time>2020-01-12T11:17:30.000Z</time>
      </trkpt>
      <trkpt lat="43.60619" lon="0.498">
        <ele>197</ele>
        <time>2020-01-12T11:17:32.000Z</time>
      </trkpt>
      <trkpt lat="43.60618" lon="0.498">
        <ele>197</ele>
        <time>2020-01-12T11:17:34.000Z</time>
      </trkpt>
      <trkpt lat="43.60618" lon="0.49799">
        <ele>197</ele>
        <time>2020-01-12T11:17:36.000Z</time>
      </trkpt>
      <trkpt lat="43.60618" lon="0.49799">
        <ele>197</ele>
        <time>2020-01-12T11:17:38.000Z</time>
      </trkpt>
      <trkpt lat="43.60619" lon="0.49799">
        <ele>197</ele>
        <time>2020-01-12T11:17:40.000Z</time>
      </trkpt>
      <trkpt lat="43.60618" lon="0.49799">
        <ele>197</ele>
        <time>2020-01-12T11:17:42.000Z</time>
      </trkpt>
      <trkpt lat="43.60618" lon="0.49799">
        <ele>197</ele>
        <time>2020-01-12T11:17:44.000Z</time>
      </trkpt>
      <trkpt lat="43.60618" lon="0.498">
        <ele>197</ele>
        <time>2020-01-12T11:17:46.000Z</time>
      </trkpt>
      <trkpt lat="43.60618" lon="0.498">
        <ele>197</ele>
        <time>2020-01-12T11:17:48.000Z</time>
      </trkpt>
      <trkpt lat="43.60618" lon="0.49799">
        <ele>197</ele>
        <time>2020-01-12T11:17:50.000Z</time>
      </trkpt>
      <trkpt lat="43.60618" lon="0.498">
        <ele>197</ele>
        <time>2020-01-12T11:17:52.000Z</time>
      </trkpt>
      <trkpt lat="43.60618" lon="0.49799">
        <ele>197</ele>
        <time>2020-01-12T11:17:54.000Z</time>
      </trkpt>
      <trkpt lat="43.60619" lon="0.49799">
        <ele>197</ele>
        <time>2020-01-12T11:17:56.000Z</time>
      </trkpt>
      <trkpt lat="43.6062" lon="0.49798">
        <ele>197</ele>
        <time>2020-01-12T11:17:58.000Z</time>
      </trkpt>
      <trkpt lat="43.60621" lon="0.49797">
        <ele>197</ele>
        <time>2020-01-12T11:18:00.000Z</time>
      </trkpt>
      <trkpt lat="43.60623" lon="0.49796">
        <ele>197</ele>
        <time>2020-01-12T11:18:02.000Z</time>
      </trkpt>
      <trkpt lat="43.60625" lon="0.49794">
        <ele>197</ele>
        <time>2020-01-12T11:18:04.000Z</time>
      </trkpt>
      <trkpt lat="43.60625" lon="0.49793">
        <ele>197</ele>
        <time>2020-01-12T11:18:06.000Z</time>
      </trkpt>
      <trkpt lat="43.60627" lon="0.49792">
        <ele>197</ele>
        <time>2020-01-12T11:18:08.000Z</time>
      </trkpt>
      <trkpt lat="43.60628" lon="0.49791">
        <ele>197</ele>
        <time>2020-01-12T11:18:10.000Z</time>
      </trkpt>
      <trkpt lat="43.60629" lon="0.49791">
        <ele>197</ele>
        <time>2020-01-12T11:18:12.000Z</time>
      </trkpt>
      <trkpt lat="43.60632" lon="0.4979">
        <ele>197</ele>
        <time>2020-01-12T11:18:14.000Z</time>
      </trkpt>
      <trkpt lat="43.60633" lon="0.49789">
        <ele>197</ele>
        <time>2020-01-12T11:18:16.000Z</time>
      </trkpt>
      <trkpt lat="43.60635" lon="0.49787">
        <ele>197</ele>
        <time>2020-01-12T11:18:18.000Z</time>
      </trkpt>
      <trkpt lat="43.60636" lon="0.49785">
        <ele>197</ele>
        <time>2020-01-12T11:18:20.000Z</time>
      </trkpt>
      <trkpt lat="43.60638" lon="0.49783">
        <ele>197</ele>
        <time>2020-01-12T11:18:22.000Z</time>
      </trkpt>
      <trkpt lat="43.60639" lon="0.49782">
        <ele>197</ele>
        <time>2020-01-12T11:18:24.000Z</time>
      </trkpt>
      <trkpt lat="43.60641" lon="0.49781">
        <ele>197</ele>
        <time>2020-01-12T11:18:26.000Z</time>
      </trkpt>
      <trkpt lat="43.60643" lon="0.4978">
        <ele>197</ele>
        <time>2020-01-12T11:18:28.000Z</time>
      </trkpt>
      <trkpt lat="43.60645" lon="0.49779">
        <ele>197</ele>
        <time>2020-01-12T11:18:30.000Z</time>
      </trkpt>
      <trkpt lat="43.60647" lon="0.49778">
        <ele>197</ele>
        <time>2020-01-12T11:18:32.000Z</time>
      </trkpt>
      <trkpt lat="43.60649" lon="0.49777">
        <ele>197</ele>
        <time>2020-01-12T11:18:34.000Z</time>
      </trkpt>
      <trkpt lat="43.60651" lon="0.49776">
        <ele>197</ele>
        <time>2020-01-12T11:18:36.000Z</time>
      </trkpt>
      <trkpt lat="43.60653" lon="0.49775">
        <ele>197</ele>
        <time>2020-01-12T11:18:38.000Z</time>
      </trkpt>
      <trkpt lat="43.60655" lon="0.49774">
        <ele>197</ele>
        <time>2020-01-12T11:18:40.000Z</time>
      </trkpt>
      <trkpt lat="43.60657" lon="0.49774">
        <ele>197</ele>
        <time>2020-01-12T11:18:42.000Z</time>
      </trkpt>
      <trkpt lat="43.60658" lon="0.49773">
        <ele>197</ele>
        <time>2020-01-12T11:18:44.000Z</time>
      </trkpt>
      <trkpt lat="43.6066" lon="0.49772">
        <ele>197</ele>
        <time>2020-01-12T11:18:46.000Z</time>
      </trkpt>
      <trkpt lat="43.60662" lon="0.49771">
        <ele>197</ele>
        <time>2020-01-12T11:18:48.000Z</time>
      </trkpt>
      <trkpt lat="43.60664" lon="0.4977">
        <ele>197</ele>
        <time>2020-01-12T11:18:50.000Z</time>
      </trkpt>
      <trkpt lat="43.60665" lon="0.49769">
        <ele>197</ele>
        <time>2020-01-12T11:18:52.000Z</time>
      </trkpt>
      <trkpt lat="43.60667" lon="0.49768">
        <ele>197</ele>
        <time>2020-01-12T11:18:54.000Z</time>
      </trkpt>
      <trkpt lat="43.60669" lon="0.49766">
        <ele>197</ele>
        <time>2020-01-12T11:18:56.000Z</time>
      </trkpt>
      <trkpt lat="43.60671" lon="0.49766">
        <ele>197</ele>
        <time>2020-01-12T11:18:58.000Z</time>
      </trkpt>
      <trkpt lat="43.60673" lon="0.49765">
        <ele>197</ele>
        <time>2020-01-12T11:19:00.000Z</time>
      </trkpt>
      <trkpt lat="43.60675" lon="0.49765">
        <ele>197</ele>
        <time>2020-01-12T11:19:02.000Z</time>
      </trkpt>
      <trkpt lat="43.60676" lon="0.49764">
        <ele>197</ele>
        <time>2020-01-12T11:19:04.000Z</time>
      </trkpt>
      <trkpt lat="43.60678" lon="0.49764">
        <ele>198</ele>
        <time>2020-01-12T11:19:06.000Z</time>
      </trkpt>
      <trkpt lat="43.6068" lon="0.49763">
        <ele>198</ele>
        <time>2020-01-12T11:19:08.000Z</time>
      </trkpt>
      <trkpt lat="43.60681" lon="0.49762">
        <ele>198</ele>
        <time>2020-01-12T11:19:10.000Z</time>
      </trkpt>
      <trkpt lat="43.60683" lon="0.49762">
        <ele>198</ele>
        <time>2020-01-12T11:19:12.000Z</time>
      </trkpt>
      <trkpt lat="43.60685" lon="0.49761">
        <ele>198</ele>
        <time>2020-01-12T11:19:14.000Z</time>
      </trkpt>
      <trkpt lat="43.60687" lon="0.4976">
        <ele>198</ele>
        <time>2020-01-12T11:19:16.000Z</time>
      </trkpt>
      <trkpt lat="43.60688" lon="0.49759">
        <ele>198</ele>
        <time>2020-01-12T11:19:18.000Z</time>
      </trkpt>
      <trkpt lat="43.60689" lon="0.49758">
        <ele>198</ele>
        <time>2020-01-12T11:19:20.000Z</time>
      </trkpt>
      <trkpt lat="43.6069" lon="0.49756">
        <ele>198</ele>
        <time>2020-01-12T11:19:22.000Z</time>
      </trkpt>
      <trkpt lat="43.60691" lon="0.49755">
        <ele>198</ele>
        <time>2020-01-12T11:19:24.000Z</time>
      </trkpt>
      <trkpt lat="43.60692" lon="0.49753">
        <ele>198</ele>
        <time>2020-01-12T11:19:26.000Z</time>
      </trkpt>
      <trkpt lat="43.60693" lon="0.49751">
        <ele>198</ele>
        <time>2020-01-12T11:19:28.000Z</time>
      </trkpt>
      <trkpt lat="43.60694" lon="0.4975">
        <ele>199</ele>
        <time>2020-01-12T11:19:30.000Z</time>
      </trkpt>
      <trkpt lat="43.60694" lon="0.49749">
        <ele>199</ele>
        <time>2020-01-12T11:19:32.000Z</time>
      </trkpt>
      <trkpt lat="43.60695" lon="0.49747">
        <ele>199</ele>
        <time>2020-01-12T11:19:34.000Z</time>
      </trkpt>
      <trkpt lat="43.60696" lon="0.49745">
        <ele>199</ele>
        <time>2020-01-12T11:19:36.000Z</time>
      </trkpt>
      <trkpt lat="43.60697" lon="0.49743">
        <ele>199</ele>
        <time>2020-01-12T11:19:38.000Z</time>
      </trkpt>
      <trkpt lat="43.60698" lon="0.4974">
        <ele>199</ele>
        <time>2020-01-12T11:19:40.000Z</time>
      </trkpt>
      <trkpt lat="43.60699" lon="0.49738">
        <ele>199</ele>
        <time>2020-01-12T11:19:42.000Z</time>
      </trkpt>
      <trkpt lat="43.60699" lon="0.49737">
        <ele>200</ele>
        <time>2020-01-12T11:19:44.000Z</time>
      </trkpt>
      <trkpt lat="43.607" lon="0.49735">
        <ele>200</ele>
        <time>2020-01-12T11:19:46.000Z</time>
      </trkpt>
      <trkpt lat="43.60701" lon="0.49733">
        <ele>200</ele>
        <time>2020-01-12T11:19:48.000Z</time>
      </trkpt>
      <trkpt lat="43.60702" lon="0.49731">
        <ele>200</ele>
        <time>2020-01-12T11:19:50.000Z</time>
      </trkpt>
      <trkpt lat="43.60702" lon="0.49731">
        <ele>200</ele>
        <time>2020-01-12T11:19:52.000Z</time>
      </trkpt>
      <trkpt lat="43.60703" lon="0.49729">
        <ele>200</ele>
        <time>2020-01-12T11:19:54.000Z</time>
      </trkpt>
      <trkpt lat="43.60704" lon="0.49727">
        <ele>200</ele>
        <time>2020-01-12T11:19:56.000Z</time>
      </trkpt>
      <trkpt lat="43.60705" lon="0.49725">
        <ele>200</ele>
        <time>2020-01-12T11:19:58.000Z</time>
      </trkpt>
      <trkpt lat="43.60706" lon="0.49723">
        <ele>199</ele>
        <time>2020-01-12T11:20:00.000Z</time>
      </trkpt>
      <trkpt lat="43.60708" lon="0.49721">
        <ele>199</ele>
        <time>2020-01-12T11:20:02.000Z</time>
      </trkpt>
      <trkpt lat="43.60709" lon="0.49718">
        <ele>199</ele>
        <time>2020-01-12T11:20:04.000Z</time>
      </trkpt>
      <trkpt lat="43.6071" lon="0.49717">
        <ele>199</ele>
        <time>2020-01-12T11:20:06.000Z</time>
      </trkpt>
      <trkpt lat="43.6071" lon="0.49716">
        <ele>199</ele>
        <time>2020-01-12T11:20:08.000Z</time>
      </trkpt>
      <trkpt lat="43.60711" lon="0.49714">
        <ele>199</ele>
        <time>2020-01-12T11:20:10.000Z</time>
      </trkpt>
      <trkpt lat="43.60713" lon="0.49712">
        <ele>199</ele>
        <time>2020-01-12T11:20:12.000Z</time>
      </trkpt>
      <trkpt lat="43.60713" lon="0.49713">
        <ele>199</ele>
        <time>2020-01-12T11:20:14.000Z</time>
      </trkpt>
      <trkpt lat="43.60713" lon="0.49713">
        <ele>199</ele>
        <time>2020-01-12T11:20:16.000Z</time>
      </trkpt>
      <trkpt lat="43.60714" lon="0.49713">
        <ele>199</ele>
        <time>2020-01-12T11:20:18.000Z</time>
      </trkpt>
      <trkpt lat="43.60714" lon="0.49713">
        <ele>199</ele>
        <time>2020-01-12T11:20:20.000Z</time>
      </trkpt>
      <trkpt lat="43.60714" lon="0.49714">
        <ele>199</ele>
        <time>2020-01-12T11:20:22.000Z</time>
      </trkpt>
      <trkpt lat="43.60715" lon="0.49713">
        <ele>199</ele>
        <time>2020-01-12T11:20:24.000Z</time>
      </trkpt>
      <trkpt lat="43.60716" lon="0.49712">
        <ele>199</ele>
        <time>2020-01-12T11:20:26.000Z</time>
      </trkpt>
      <trkpt lat="43.60717" lon="0.4971">
        <ele>199</ele>
        <time>2020-01-12T11:20:28.000Z</time>
      </trkpt>
      <trkpt lat="43.60719" lon="0.49708">
        <ele>199</ele>
        <time>2020-01-12T11:20:30.000Z</time>
      </trkpt>
      <trkpt lat="43.6072" lon="0.49706">
        <ele>199</ele>
        <time>2020-01-12T11:20:32.000Z</time>
      </trkpt>
      <trkpt lat="43.60722" lon="0.49703">
        <ele>199</ele>
        <time>2020-01-12T11:20:34.000Z</time>
      </trkpt>
      <trkpt lat="43.60723" lon="0.49701">
        <ele>199</ele>
        <time>2020-01-12T11:20:36.000Z</time>
      </trkpt>
      <trkpt lat="43.60725" lon="0.49699">
        <ele>199</ele>
        <time>2020-01-12T11:20:38.000Z</time>
      </trkpt>
      <trkpt lat="43.60727" lon="0.49698">
        <ele>199</ele>
        <time>2020-01-12T11:20:40.000Z</time>
      </trkpt>
      <trkpt lat="43.60728" lon="0.49696">
        <ele>199</ele>
        <time>2020-01-12T11:20:42.000Z</time>
      </trkpt>
      <trkpt lat="43.6073" lon="0.49694">
        <ele>199</ele>
        <time>2020-01-12T11:20:44.000Z</time>
      </trkpt>
      <trkpt lat="43.60732" lon="0.49693">
        <ele>198</ele>
        <time>2020-01-12T11:20:46.000Z</time>
      </trkpt>
      <trkpt lat="43.60734" lon="0.49691">
        <ele>198</ele>
        <time>2020-01-12T11:20:48.000Z</time>
      </trkpt>
      <trkpt lat="43.60736" lon="0.4969">
        <ele>198</ele>
        <time>2020-01-12T11:20:50.000Z</time>
      </trkpt>
      <trkpt lat="43.60738" lon="0.49687">
        <ele>198</ele>
        <time>2020-01-12T11:20:52.000Z</time>
      </trkpt>
      <trkpt lat="43.6074" lon="0.49685">
        <ele>198</ele>
        <time>2020-01-12T11:20:54.000Z</time>
      </trkpt>
      <trkpt lat="43.60743" lon="0.49684">
        <ele>198</ele>
        <time>2020-01-12T11:20:56.000Z</time>
      </trkpt>
      <trkpt lat="43.60745" lon="0.49683">
        <ele>198</ele>
        <time>2020-01-12T11:20:58.000Z</time>
      </trkpt>
      <trkpt lat="43.60747" lon="0.4968">
        <ele>198</ele>
        <time>2020-01-12T11:21:00.000Z</time>
      </trkpt>
      <trkpt lat="43.60749" lon="0.49679">
        <ele>198</ele>
        <time>2020-01-12T11:21:02.000Z</time>
      </trkpt>
      <trkpt lat="43.60751" lon="0.49676">
        <ele>198</ele>
        <time>2020-01-12T11:21:04.000Z</time>
      </trkpt>
      <trkpt lat="43.60753" lon="0.49675">
        <ele>198</ele>
        <time>2020-01-12T11:21:06.000Z</time>
      </trkpt>
      <trkpt lat="43.60755" lon="0.49674">
        <ele>198</ele>
        <time>2020-01-12T11:21:08.000Z</time>
      </trkpt>
      <trkpt lat="43.60757" lon="0.49673">
        <ele>198</ele>
        <time>2020-01-12T11:21:10.000Z</time>
      </trkpt>
      <trkpt lat="43.60759" lon="0.49671">
        <ele>198</ele>
        <time>2020-01-12T11:21:12.000Z</time>
      </trkpt>
      <trkpt lat="43.60761" lon="0.49669">
        <ele>198</ele>
        <time>2020-01-12T11:21:14.000Z</time>
      </trkpt>
      <trkpt lat="43.60763" lon="0.49668">
        <ele>198</ele>
        <time>2020-01-12T11:21:16.000Z</time>
      </trkpt>
      <trkpt lat="43.60765" lon="0.49666">
        <ele>198</ele>
        <time>2020-01-12T11:21:18.000Z</time>
      </trkpt>
      <trkpt lat="43.60766" lon="0.49664">
        <ele>198</ele>
        <time>2020-01-12T11:21:20.000Z</time>
      </trkpt>
      <trkpt lat="43.60768" lon="0.49663">
        <ele>198</ele>
        <time>2020-01-12T11:21:22.000Z</time>
      </trkpt>
      <trkpt lat="43.6077" lon="0.49662">
        <ele>198</ele>
        <time>2020-01-12T11:21:24.000Z</time>
      </trkpt>
      <trkpt lat="43.60772" lon="0.49661">
        <ele>198</ele>
        <time>2020-01-12T11:21:26.000Z</time>
      </trkpt>
      <trkpt lat="43.60773" lon="0.4966">
        <ele>198</ele>
        <time>2020-01-12T11:21:28.000Z</time>
      </trkpt>
      <trkpt lat="43.60775" lon="0.49659">
        <ele>198</ele>
        <time>2020-01-12T11:21:30.000Z</time>
      </trkpt>
      <trkpt lat="43.60777" lon="0.49657">
        <ele>198</ele>
        <time>2020-01-12T11:21:32.000Z</time>
      </trkpt>
      <trkpt lat="43.60778" lon="0.49656">
        <ele>198</ele>
        <time>2020-01-12T11:21:34.000Z</time>
      </trkpt>
      <trkpt lat="43.6078" lon="0.49655">
        <ele>198</ele>
        <time>2020-01-12T11:21:36.000Z</time>
      </trkpt>
      <trkpt lat="43.60781" lon="0.49654">
        <ele>198</ele>
        <time>2020-01-12T11:21:38.000Z</time>
      </trkpt>
      <trkpt lat="43.60783" lon="0.49653">
        <ele>198</ele>
        <time>2020-01-12T11:21:40.000Z</time>
      </trkpt>
      <trkpt lat="43.60785" lon="0.49653">
        <ele>198</ele>
        <time>2020-01-12T11:21:42.000Z</time>
      </trkpt>
      <trkpt lat="43.60786" lon="0.49652">
        <ele>198</ele>
        <time>2020-01-12T11:21:44.000Z</time>
      </trkpt>
      <trkpt lat="43.60788" lon="0.49651">
        <ele>198</ele>
        <time>2020-01-12T11:21:46.000Z</time>
      </trkpt>
      <trkpt lat="43.60789" lon="0.4965">
        <ele>198</ele>
        <time>2020-01-12T11:21:48.000Z</time>
      </trkpt>
      <trkpt lat="43.60791" lon="0.49648">
        <ele>198</ele>
        <time>2020-01-12T11:21:50.000Z</time>
      </trkpt>
      <trkpt lat="43.60793" lon="0.49647">
        <ele>198</ele>
        <time>2020-01-12T11:21:52.000Z</time>
      </trkpt>
      <trkpt lat="43.60794" lon="0.49646">
        <ele>198</ele>
        <time>2020-01-12T11:21:54.000Z</time>
      </trkpt>
      <trkpt lat="43.60795" lon="0.49645">
        <ele>198</ele>
        <time>2020-01-12T11:21:56.000Z</time>
      </trkpt>
      <trkpt lat="43.60797" lon="0.49644">
        <ele>198</ele>
        <time>2020-01-12T11:21:58.000Z</time>
      </trkpt>
      <trkpt lat="43.60798" lon="0.49644">
        <ele>198</ele>
        <time>2020-01-12T11:22:00.000Z</time>
      </trkpt>
      <trkpt lat="43.608" lon="0.49643">
        <ele>197</ele>
        <time>2020-01-12T11:22:02.000Z</time>
      </trkpt>
      <trkpt lat="43.60802" lon="0.49641">
        <ele>197</ele>
        <time>2020-01-12T11:22:04.000Z</time>
      </trkpt>
      <trkpt lat="43.60804" lon="0.4964">
        <ele>197</ele>
        <time>2020-01-12T11:22:06.000Z</time>
      </trkpt>
      <trkpt lat="43.60805" lon="0.49639">
        <ele>197</ele>
        <time>2020-01-12T11:22:08.000Z</time>
      </trkpt>
      <trkpt lat="43.60807" lon="0.49638">
        <ele>197</ele>
        <time>2020-01-12T11:22:10.000Z</time>
      </trkpt>
      <trkpt lat="43.60808" lon="0.49637">
        <ele>197</ele>
        <time>2020-01-12T11:22:12.000Z</time>
      </trkpt>
      <trkpt lat="43.6081" lon="0.49637">
        <ele>197</ele>
        <time>2020-01-12T11:22:14.000Z</time>
      </trkpt>
      <trkpt lat="43.6081" lon="0.49636">
        <ele>197</ele>
        <time>2020-01-12T11:22:16.000Z</time>
      </trkpt>
      <trkpt lat="43.60812" lon="0.49635">
        <ele>197</ele>
        <time>2020-01-12T11:22:18.000Z</time>
      </trkpt>
      <trkpt lat="43.60813" lon="0.49634">
        <ele>197</ele>
        <time>2020-01-12T11:22:20.000Z</time>
      </trkpt>
      <trkpt lat="43.60814" lon="0.49633">
        <ele>197</ele>
        <time>2020-01-12T11:22:22.000Z</time>
      </trkpt>
      <trkpt lat="43.60815" lon="0.49633">
        <ele>197</ele>
        <time>2020-01-12T11:22:24.000Z</time>
      </trkpt>
      <trkpt lat="43.60816" lon="0.49632">
        <ele>197</ele>
        <time>2020-01-12T11:22:26.000Z</time>
      </trkpt>
      <trkpt lat="43.60818" lon="0.49631">
        <ele>197</ele>
        <time>2020-01-12T11:22:28.000Z</time>
      </trkpt>
      <trkpt lat="43.60819" lon="0.4963">
        <ele>197</ele>
        <time>2020-01-12T11:22:30.000Z</time>
      </trkpt>
      <trkpt lat="43.6082" lon="0.49629">
        <ele>197</ele>
        <time>2020-01-12T11:22:32.000Z</time>
      </trkpt>
      <trkpt lat="43.60822" lon="0.49629">
        <ele>197</ele>
        <time>2020-01-12T11:22:34.000Z</time>
      </trkpt>
      <trkpt lat="43.60823" lon="0.49628">
        <ele>197</ele>
        <time>2020-01-12T11:22:36.000Z</time>
      </trkpt>
      <trkpt lat="43.60825" lon="0.49627">
        <ele>197</ele>
        <time>2020-01-12T11:22:38.000Z</time>
      </trkpt>
      <trkpt lat="43.60827" lon="0.49627">
        <ele>197</ele>
        <time>2020-01-12T11:22:40.000Z</time>
      </trkpt>
      <trkpt lat="43.60829" lon="0.49625">
        <ele>197</ele>
        <time>2020-01-12T11:22:42.000Z</time>
      </trkpt>
      <trkpt lat="43.6083" lon="0.49625">
        <ele>197</ele>
        <time>2020-01-12T11:22:44.000Z</time>
      </trkpt>
      <trkpt lat="43.60831" lon="0.49624">
        <ele>197</ele>
        <time>2020-01-12T11:22:46.000Z</time>
      </trkpt>
      <trkpt lat="43.60833" lon="0.49622">
        <ele>197</ele>
        <time>2020-01-12T11:22:48.000Z</time>
      </trkpt>
      <trkpt lat="43.60835" lon="0.49621">
        <ele>197</ele>
        <time>2020-01-12T11:22:50.000Z</time>
      </trkpt>
      <trkpt lat="43.60837" lon="0.4962">
        <ele>197</ele>
        <time>2020-01-12T11:22:52.000Z</time>
      </trkpt>
      <trkpt lat="43.60838" lon="0.49619">
        <ele>197</ele>
        <time>2020-01-12T11:22:54.000Z</time>
      </trkpt>
      <trkpt lat="43.6084" lon="0.49618">
        <ele>197</ele>
        <time>2020-01-12T11:22:56.000Z</time>
      </trkpt>
      <trkpt lat="43.60841" lon="0.49617">
        <ele>197</ele>
        <time>2020-01-12T11:22:58.000Z</time>
      </trkpt>
      <trkpt lat="43.60842" lon="0.49617">
        <ele>197</ele>
        <time>2020-01-12T11:23:00.000Z</time>
      </trkpt>
      <trkpt lat="43.60843" lon="0.49616">
        <ele>197</ele>
        <time>2020-01-12T11:23:02.000Z</time>
      </trkpt>
      <trkpt lat="43.60845" lon="0.49615">
        <ele>197</ele>
        <time>2020-01-12T11:23:04.000Z</time>
      </trkpt>
      <trkpt lat="43.60847" lon="0.49614">
        <ele>196</ele>
        <time>2020-01-12T11:23:06.000Z</time>
      </trkpt>
      <trkpt lat="43.60848" lon="0.49613">
        <ele>196</ele>
        <time>2020-01-12T11:23:08.000Z</time>
      </trkpt>
      <trkpt lat="43.6085" lon="0.49612">
        <ele>196</ele>
        <time>2020-01-12T11:23:10.000Z</time>
      </trkpt>
      <trkpt lat="43.60852" lon="0.49611">
        <ele>196</ele>
        <time>2020-01-12T11:23:12.000Z</time>
      </trkpt>
      <trkpt lat="43.60853" lon="0.49609">
        <ele>196</ele>
        <time>2020-01-12T11:23:14.000Z</time>
      </trkpt>
      <trkpt lat="43.60855" lon="0.49608">
        <ele>197</ele>
        <time>2020-01-12T11:23:16.000Z</time>
      </trkpt>
      <trkpt lat="43.60857" lon="0.49607">
        <ele>197</ele>
        <time>2020-01-12T11:23:18.000Z</time>
      </trkpt>
      <trkpt lat="43.60858" lon="0.49605">
        <ele>197</ele>
        <time>2020-01-12T11:23:20.000Z</time>
      </trkpt>
      <trkpt lat="43.6086" lon="0.49604">
        <ele>197</ele>
        <time>2020-01-12T11:23:22.000Z</time>
      </trkpt>
      <trkpt lat="43.60862" lon="0.49602">
        <ele>197</ele>
        <time>2020-01-12T11:23:24.000Z</time>
      </trkpt>
      <trkpt lat="43.60864" lon="0.496">
        <ele>197</ele>
        <time>2020-01-12T11:23:26.000Z</time>
      </trkpt>
      <trkpt lat="43.60865" lon="0.49598">
        <ele>197</ele>
        <time>2020-01-12T11:23:28.000Z</time>
      </trkpt>
      <trkpt lat="43.60866" lon="0.49597">
        <ele>197</ele>
        <time>2020-01-12T11:23:30.000Z</time>
      </trkpt>
      <trkpt lat="43.60867" lon="0.49595">
        <ele>197</ele>
        <time>2020-01-12T11:23:32.000Z</time>
      </trkpt>
      <trkpt lat="43.60867" lon="0.49594">
        <ele>197</ele>
        <time>2020-01-12T11:23:34.000Z</time>
      </trkpt>
      <trkpt lat="43.60868" lon="0.49594">
        <ele>197</ele>
        <time>2020-01-12T11:23:36.000Z</time>
      </trkpt>
      <trkpt lat="43.60868" lon="0.49592">
        <ele>197</ele>
        <time>2020-01-12T11:23:38.000Z</time>
      </trkpt>
      <trkpt lat="43.60869" lon="0.49591">
        <ele>198</ele>
        <time>2020-01-12T11:23:40.000Z</time>
      </trkpt>
      <trkpt lat="43.6087" lon="0.49588">
        <ele>198</ele>
        <time>2020-01-12T11:23:42.000Z</time>
      </trkpt>
      <trkpt lat="43.60871" lon="0.49586">
        <ele>198</ele>
        <time>2020-01-12T11:23:44.000Z</time>
      </trkpt>
      <trkpt lat="43.60871" lon="0.49585">
        <ele>198</ele>
        <time>2020-01-12T11:23:46.000Z</time>
      </trkpt>
      <trkpt lat="43.60871" lon="0.49585">
        <ele>198</ele>
        <time>2020-01-12T11:23:48.000Z</time>
      </trkpt>
      <trkpt lat="43.60871" lon="0.49585">
        <ele>198</ele>
        <time>2020-01-12T11:23:50.000Z</time>
      </trkpt>
      <trkpt lat="43.60871" lon="0.49584">
        <ele>198</ele>
        <time>2020-01-12T11:23:52.000Z</time>
      </trkpt>
      <trkpt lat="43.60871" lon="0.49584">
        <ele>198</ele>
        <time>2020-01-12T11:23:54.000Z</time>
      </trkpt>
      <trkpt lat="43.60871" lon="0.49584">
        <ele>198</ele>
        <time>2020-01-12T11:23:56.000Z</time>
      </trkpt>
      <trkpt lat="43.60871" lon="0.49584">
        <ele>198</ele>
        <time>2020-01-12T11:23:58.000Z</time>
      </trkpt>
      <trkpt lat="43.60871" lon="0.49584">
        <ele>198</ele>
        <time>2020-01-12T11:24:00.000Z</time>
      </trkpt>
      <trkpt lat="43.60871" lon="0.49584">
        <ele>198</ele>
        <time>2020-01-12T11:24:02.000Z</time>
      </trkpt>
      <trkpt lat="43.6087" lon="0.49584">
        <ele>198</ele>
        <time>2020-01-12T11:24:04.000Z</time>
      </trkpt>
      <trkpt lat="43.6087" lon="0.49584">
        <ele>198</ele>
        <time>2020-01-12T11:24:06.000Z</time>
      </trkpt>
      <trkpt lat="43.6087" lon="0.49584">
        <ele>198</ele>
        <time>2020-01-12T11:24:08.000Z</time>
      </trkpt>
      <trkpt lat="43.6087" lon="0.49582">
        <ele>198</ele>
        <time>2020-01-12T11:24:10.000Z</time>
      </trkpt>
      <trkpt lat="43.60871" lon="0.49579">
        <ele>198</ele>
        <time>2020-01-12T11:24:12.000Z</time>
      </trkpt>
      <trkpt lat="43.60871" lon="0.49576">
        <ele>198</ele>
        <time>2020-01-12T11:24:14.000Z</time>
      </trkpt>
      <trkpt lat="43.60872" lon="0.49573">
        <ele>199</ele>
        <time>2020-01-12T11:24:16.000Z</time>
      </trkpt>
      <trkpt lat="43.60872" lon="0.49571">
        <ele>199</ele>
        <time>2020-01-12T11:24:18.000Z</time>
      </trkpt>
      <trkpt lat="43.60873" lon="0.49567">
        <ele>199</ele>
        <time>2020-01-12T11:24:20.000Z</time>
      </trkpt>
      <trkpt lat="43.60873" lon="0.49564">
        <ele>199</ele>
        <time>2020-01-12T11:24:22.000Z</time>
      </trkpt>
      <trkpt lat="43.60874" lon="0.49561">
        <ele>199</ele>
        <time>2020-01-12T11:24:24.000Z</time>
      </trkpt>
      <trkpt lat="43.60874" lon="0.49558">
        <ele>199</ele>
        <time>2020-01-12T11:24:26.000Z</time>
      </trkpt>
      <trkpt lat="43.60875" lon="0.49555">
        <ele>199</ele>
        <time>2020-01-12T11:24:28.000Z</time>
      </trkpt>
      <trkpt lat="43.60875" lon="0.49552">
        <ele>200</ele>
        <time>2020-01-12T11:24:30.000Z</time>
      </trkpt>
      <trkpt lat="43.60875" lon="0.49549">
        <ele>200</ele>
        <time>2020-01-12T11:24:32.000Z</time>
      </trkpt>
      <trkpt lat="43.60876" lon="0.49546">
        <ele>200</ele>
        <time>2020-01-12T11:24:34.000Z</time>
      </trkpt>
      <trkpt lat="43.60876" lon="0.49544">
        <ele>200</ele>
        <time>2020-01-12T11:24:36.000Z</time>
      </trkpt>
      <trkpt lat="43.60876" lon="0.49541">
        <ele>200</ele>
        <time>2020-01-12T11:24:38.000Z</time>
      </trkpt>
      <trkpt lat="43.60877" lon="0.49537">
        <ele>200</ele>
        <time>2020-01-12T11:24:40.000Z</time>
      </trkpt>
      <trkpt lat="43.60877" lon="0.49534">
        <ele>200</ele>
        <time>2020-01-12T11:24:42.000Z</time>
      </trkpt>
      <trkpt lat="43.60878" lon="0.49531">
        <ele>200</ele>
        <time>2020-01-12T11:24:44.000Z</time>
      </trkpt>
      <trkpt lat="43.60879" lon="0.49529">
        <ele>200</ele>
        <time>2020-01-12T11:24:46.000Z</time>
      </trkpt>
      <trkpt lat="43.60881" lon="0.49527">
        <ele>200</ele>
        <time>2020-01-12T11:24:48.000Z</time>
      </trkpt>
      <trkpt lat="43.60882" lon="0.49525">
        <ele>200</ele>
        <time>2020-01-12T11:24:50.000Z</time>
      </trkpt>
      <trkpt lat="43.60884" lon="0.49522">
        <ele>200</ele>
        <time>2020-01-12T11:24:52.000Z</time>
      </trkpt>
      <trkpt lat="43.60886" lon="0.49521">
        <ele>200</ele>
        <time>2020-01-12T11:24:54.000Z</time>
      </trkpt>
      <trkpt lat="43.60888" lon="0.49519">
        <ele>200</ele>
        <time>2020-01-12T11:24:56.000Z</time>
      </trkpt>
      <trkpt lat="43.6089" lon="0.49518">
        <ele>200</ele>
        <time>2020-01-12T11:24:58.000Z</time>
      </trkpt>
      <trkpt lat="43.60891" lon="0.49517">
        <ele>200</ele>
        <time>2020-01-12T11:25:00.000Z</time>
      </trkpt>
      <trkpt lat="43.60894" lon="0.49517">
        <ele>200</ele>
        <time>2020-01-12T11:25:02.000Z</time>
      </trkpt>
      <trkpt lat="43.60895" lon="0.49516">
        <ele>200</ele>
        <time>2020-01-12T11:25:04.000Z</time>
      </trkpt>
      <trkpt lat="43.60897" lon="0.49516">
        <ele>200</ele>
        <time>2020-01-12T11:25:06.000Z</time>
      </trkpt>
      <trkpt lat="43.60899" lon="0.49516">
        <ele>200</ele>
        <time>2020-01-12T11:25:08.000Z</time>
      </trkpt>
      <trkpt lat="43.60901" lon="0.49515">
        <ele>200</ele>
        <time>2020-01-12T11:25:10.000Z</time>
      </trkpt>
      <trkpt lat="43.60902" lon="0.49514">
        <ele>200</ele>
        <time>2020-01-12T11:25:12.000Z</time>
      </trkpt>
      <trkpt lat="43.60903" lon="0.49512">
        <ele>200</ele>
        <time>2020-01-12T11:25:14.000Z</time>
      </trkpt>
      <trkpt lat="43.60903" lon="0.49509">
        <ele>200</ele>
        <time>2020-01-12T11:25:16.000Z</time>
      </trkpt>
      <trkpt lat="43.60903" lon="0.49507">
        <ele>200</ele>
        <time>2020-01-12T11:25:18.000Z</time>
      </trkpt>
      <trkpt lat="43.60904" lon="0.49503">
        <ele>200</ele>
        <time>2020-01-12T11:25:20.000Z</time>
      </trkpt>
      <trkpt lat="43.60905" lon="0.49501">
        <ele>200</ele>
        <time>2020-01-12T11:25:22.000Z</time>
      </trkpt>
      <trkpt lat="43.60908" lon="0.495">
        <ele>200</ele>
        <time>2020-01-12T11:25:24.000Z</time>
      </trkpt>
      <trkpt lat="43.6091" lon="0.49501">
        <ele>200</ele>
        <time>2020-01-12T11:25:26.000Z</time>
      </trkpt>
      <trkpt lat="43.60913" lon="0.49501">
        <ele>200</ele>
        <time>2020-01-12T11:25:28.000Z</time>
      </trkpt>
      <trkpt lat="43.60915" lon="0.49501">
        <ele>200</ele>
        <time>2020-01-12T11:25:30.000Z</time>
      </trkpt>
      <trkpt lat="43.60917" lon="0.49501">
        <ele>200</ele>
        <time>2020-01-12T11:25:32.000Z</time>
      </trkpt>
      <trkpt lat="43.60919" lon="0.49502">
        <ele>200</ele>
        <time>2020-01-12T11:25:34.000Z</time>
      </trkpt>
      <trkpt lat="43.60921" lon="0.49502">
        <ele>200</ele>
        <time>2020-01-12T11:25:36.000Z</time>
      </trkpt>
      <trkpt lat="43.60923" lon="0.49503">
        <ele>200</ele>
        <time>2020-01-12T11:25:38.000Z</time>
      </trkpt>
      <trkpt lat="43.60925" lon="0.49502">
        <ele>200</ele>
        <time>2020-01-12T11:25:40.000Z</time>
      </trkpt>
      <trkpt lat="43.60927" lon="0.49503">
        <ele>200</ele>
        <time>2020-01-12T11:25:42.000Z</time>
      </trkpt>
      <trkpt lat="43.60929" lon="0.49502">
        <ele>200</ele>
        <time>2020-01-12T11:25:44.000Z</time>
      </trkpt>
      <trkpt lat="43.60932" lon="0.49503">
        <ele>200</ele>
        <time>2020-01-12T11:25:46.000Z</time>
      </trkpt>
      <trkpt lat="43.60934" lon="0.49503">
        <ele>200</ele>
        <time>2020-01-12T11:25:48.000Z</time>
      </trkpt>
      <trkpt lat="43.60936" lon="0.49504">
        <ele>200</ele>
        <time>2020-01-12T11:25:50.000Z</time>
      </trkpt>
      <trkpt lat="43.60938" lon="0.49505">
        <ele>200</ele>
        <time>2020-01-12T11:25:52.000Z</time>
      </trkpt>
      <trkpt lat="43.60941" lon="0.49506">
        <ele>200</ele>
        <time>2020-01-12T11:25:54.000Z</time>
      </trkpt>
      <trkpt lat="43.60943" lon="0.49508">
        <ele>200</ele>
        <time>2020-01-12T11:25:56.000Z</time>
      </trkpt>
      <trkpt lat="43.60945" lon="0.4951">
        <ele>200</ele>
        <time>2020-01-12T11:25:58.000Z</time>
      </trkpt>
      <trkpt lat="43.60947" lon="0.49511">
        <ele>200</ele>
        <time>2020-01-12T11:26:00.000Z</time>
      </trkpt>
      <trkpt lat="43.60948" lon="0.49513">
        <ele>200</ele>
        <time>2020-01-12T11:26:02.000Z</time>
      </trkpt>
      <trkpt lat="43.60951" lon="0.49515">
        <ele>200</ele>
        <time>2020-01-12T11:26:04.000Z</time>
      </trkpt>
      <trkpt lat="43.60953" lon="0.49517">
        <ele>200</ele>
        <time>2020-01-12T11:26:06.000Z</time>
      </trkpt>
      <trkpt lat="43.60955" lon="0.49518">
        <ele>200</ele>
        <time>2020-01-12T11:26:08.000Z</time>
      </trkpt>
      <trkpt lat="43.60957" lon="0.4952">
        <ele>200</ele>
        <time>2020-01-12T11:26:10.000Z</time>
      </trkpt>
      <trkpt lat="43.60959" lon="0.49521">
        <ele>200</ele>
        <time>2020-01-12T11:26:12.000Z</time>
      </trkpt>
      <trkpt lat="43.60961" lon="0.49523">
        <ele>200</ele>
        <time>2020-01-12T11:26:14.000Z</time>
      </trkpt>
      <trkpt lat="43.60963" lon="0.49525">
        <ele>200</ele>
        <time>2020-01-12T11:26:16.000Z</time>
      </trkpt>
      <trkpt lat="43.60965" lon="0.49527">
        <ele>200</ele>
        <time>2020-01-12T11:26:18.000Z</time>
      </trkpt>
      <trkpt lat="43.60967" lon="0.49529">
        <ele>200</ele>
        <time>2020-01-12T11:26:20.000Z</time>
      </trkpt>
      <trkpt lat="43.60969" lon="0.49531">
        <ele>200</ele>
        <time>2020-01-12T11:26:22.000Z</time>
      </trkpt>
      <trkpt lat="43.60971" lon="0.49532">
        <ele>200</ele>
        <time>2020-01-12T11:26:24.000Z</time>
      </trkpt>
      <trkpt lat="43.60973" lon="0.49534">
        <ele>200</ele>
        <time>2020-01-12T11:26:26.000Z</time>
      </trkpt>
      <trkpt lat="43.60974" lon="0.49535">
        <ele>200</ele>
        <time>2020-01-12T11:26:28.000Z</time>
      </trkpt>
      <trkpt lat="43.60977" lon="0.49537">
        <ele>200</ele>
        <time>2020-01-12T11:26:30.000Z</time>
      </trkpt>
      <trkpt lat="43.60978" lon="0.49538">
        <ele>200</ele>
        <time>2020-01-12T11:26:32.000Z</time>
      </trkpt>
      <trkpt lat="43.6098" lon="0.49541">
        <ele>200</ele>
        <time>2020-01-12T11:26:34.000Z</time>
      </trkpt>
      <trkpt lat="43.60981" lon="0.49543">
        <ele>200</ele>
        <time>2020-01-12T11:26:36.000Z</time>
      </trkpt>
      <trkpt lat="43.60983" lon="0.49545">
        <ele>200</ele>
        <time>2020-01-12T11:26:38.000Z</time>
      </trkpt>
      <trkpt lat="43.60985" lon="0.49547">
        <ele>200</ele>
        <time>2020-01-12T11:26:40.000Z</time>
      </trkpt>
      <trkpt lat="43.60987" lon="0.49549">
        <ele>200</ele>
        <time>2020-01-12T11:26:42.000Z</time>
      </trkpt>
      <trkpt lat="43.60989" lon="0.49551">
        <ele>200</ele>
        <time>2020-01-12T11:26:44.000Z</time>
      </trkpt>
      <trkpt lat="43.6099" lon="0.49552">
        <ele>200</ele>
        <time>2020-01-12T11:26:46.000Z</time>
      </trkpt>
      <trkpt lat="43.60992" lon="0.49554">
        <ele>200</ele>
        <time>2020-01-12T11:26:48.000Z</time>
      </trkpt>
      <trkpt lat="43.60994" lon="0.49555">
        <ele>200</ele>
        <time>2020-01-12T11:26:50.000Z</time>
      </trkpt>
      <trkpt lat="43.60996" lon="0.49557">
        <ele>200</ele>
        <time>2020-01-12T11:26:52.000Z</time>
      </trkpt>
      <trkpt lat="43.60998" lon="0.49559">
        <ele>200</ele>
        <time>2020-01-12T11:26:54.000Z</time>
      </trkpt>
      <trkpt lat="43.60999" lon="0.49561">
        <ele>200</ele>
        <time>2020-01-12T11:26:56.000Z</time>
      </trkpt>
      <trkpt lat="43.61" lon="0.49564">
        <ele>200</ele>
        <time>2020-01-12T11:26:58.000Z</time>
      </trkpt>
      <trkpt lat="43.61002" lon="0.49565">
        <ele>200</ele>
        <time>2020-01-12T11:27:00.000Z</time>
      </trkpt>
      <trkpt lat="43.61002" lon="0.49567">
        <ele>200</ele>
        <time>2020-01-12T11:27:02.000Z</time>
      </trkpt>
      <trkpt lat="43.61003" lon="0.49569">
        <ele>200</ele>
        <time>2020-01-12T11:27:04.000Z</time>
      </trkpt>
      <trkpt lat="43.61004" lon="0.49571">
        <ele>200</ele>
        <time>2020-01-12T11:27:06.000Z</time>
      </trkpt>
      <trkpt lat="43.61004" lon="0.49573">
        <ele>200</ele>
        <time>2020-01-12T11:27:08.000Z</time>
      </trkpt>
      <trkpt lat="43.61005" lon="0.49576">
        <ele>200</ele>
        <time>2020-01-12T11:27:10.000Z</time>
      </trkpt>
      <trkpt lat="43.61004" lon="0.4958">
        <ele>200</ele>
        <time>2020-01-12T11:27:12.000Z</time>
      </trkpt>
      <trkpt lat="43.61004" lon="0.49583">
        <ele>199</ele>
        <time>2020-01-12T11:27:14.000Z</time>
      </trkpt>
      <trkpt lat="43.61004" lon="0.49586">
        <ele>199</ele>
        <time>2020-01-12T11:27:16.000Z</time>
      </trkpt>
      <trkpt lat="43.61005" lon="0.49588">
        <ele>199</ele>
        <time>2020-01-12T11:27:18.000Z</time>
      </trkpt>
      <trkpt lat="43.61006" lon="0.49591">
        <ele>199</ele>
        <time>2020-01-12T11:27:20.000Z</time>
      </trkpt>
      <trkpt lat="43.61006" lon="0.49593">
        <ele>199</ele>
        <time>2020-01-12T11:27:22.000Z</time>
      </trkpt>
      <trkpt lat="43.61007" lon="0.49596">
        <ele>199</ele>
        <time>2020-01-12T11:27:24.000Z</time>
      </trkpt>
      <trkpt lat="43.61007" lon="0.49598">
        <ele>199</ele>
        <time>2020-01-12T11:27:26.000Z</time>
      </trkpt>
      <trkpt lat="43.61008" lon="0.496">
        <ele>199</ele>
        <time>2020-01-12T11:27:28.000Z</time>
      </trkpt>
      <trkpt lat="43.61009" lon="0.49602">
        <ele>199</ele>
        <time>2020-01-12T11:27:30.000Z</time>
      </trkpt>
      <trkpt lat="43.61009" lon="0.49604">
        <ele>199</ele>
        <time>2020-01-12T11:27:32.000Z</time>
      </trkpt>
      <trkpt lat="43.61009" lon="0.49606">
        <ele>199</ele>
        <time>2020-01-12T11:27:34.000Z</time>
      </trkpt>
      <trkpt lat="43.61009" lon="0.49609">
        <ele>199</ele>
        <time>2020-01-12T11:27:36.000Z</time>
      </trkpt>
      <trkpt lat="43.61009" lon="0.49611">
        <ele>199</ele>
        <time>2020-01-12T11:27:38.000Z</time>
      </trkpt>
      <trkpt lat="43.6101" lon="0.49614">
        <ele>198</ele>
        <time>2020-01-12T11:27:40.000Z</time>
      </trkpt>
      <trkpt lat="43.6101" lon="0.49617">
        <ele>198</ele>
        <time>2020-01-12T11:27:42.000Z</time>
      </trkpt>
      <trkpt lat="43.6101" lon="0.4962">
        <ele>198</ele>
        <time>2020-01-12T11:27:44.000Z</time>
      </trkpt>
      <trkpt lat="43.6101" lon="0.49623">
        <ele>198</ele>
        <time>2020-01-12T11:27:46.000Z</time>
      </trkpt>
      <trkpt lat="43.6101" lon="0.49626">
        <ele>198</ele>
        <time>2020-01-12T11:27:48.000Z</time>
      </trkpt>
      <trkpt lat="43.61011" lon="0.49628">
        <ele>198</ele>
        <time>2020-01-12T11:27:50.000Z</time>
      </trkpt>
      <trkpt lat="43.61011" lon="0.49631">
        <ele>198</ele>
        <time>2020-01-12T11:27:52.000Z</time>
      </trkpt>
      <trkpt lat="43.61012" lon="0.49633">
        <ele>198</ele>
        <time>2020-01-12T11:27:54.000Z</time>
      </trkpt>
      <trkpt lat="43.61012" lon="0.49636">
        <ele>198</ele>
        <time>2020-01-12T11:27:56.000Z</time>
      </trkpt>
      <trkpt lat="43.61012" lon="0.49638">
        <ele>198</ele>
        <time>2020-01-12T11:27:58.000Z</time>
      </trkpt>
      <trkpt lat="43.61012" lon="0.49641">
        <ele>198</ele>
        <time>2020-01-12T11:28:00.000Z</time>
      </trkpt>
      <trkpt lat="43.61012" lon="0.49643">
        <ele>197</ele>
        <time>2020-01-12T11:28:02.000Z</time>
      </trkpt>
      <trkpt lat="43.61013" lon="0.49646">
        <ele>197</ele>
        <time>2020-01-12T11:28:04.000Z</time>
      </trkpt>
      <trkpt lat="43.61013" lon="0.49648">
        <ele>197</ele>
        <time>2020-01-12T11:28:06.000Z</time>
      </trkpt>
      <trkpt lat="43.61014" lon="0.4965">
        <ele>197</ele>
        <time>2020-01-12T11:28:08.000Z</time>
      </trkpt>
      <trkpt lat="43.61014" lon="0.49653">
        <ele>197</ele>
        <time>2020-01-12T11:28:10.000Z</time>
      </trkpt>
      <trkpt lat="43.61015" lon="0.49656">
        <ele>197</ele>
        <time>2020-01-12T11:28:12.000Z</time>
      </trkpt>
      <trkpt lat="43.61015" lon="0.49659">
        <ele>197</ele>
        <time>2020-01-12T11:28:14.000Z</time>
      </trkpt>
      <trkpt lat="43.61015" lon="0.49662">
        <ele>197</ele>
        <time>2020-01-12T11:28:16.000Z</time>
      </trkpt>
      <trkpt lat="43.61015" lon="0.49664">
        <ele>197</ele>
        <time>2020-01-12T11:28:18.000Z</time>
      </trkpt>
      <trkpt lat="43.61015" lon="0.49667">
        <ele>197</ele>
        <time>2020-01-12T11:28:20.000Z</time>
      </trkpt>
      <trkpt lat="43.61015" lon="0.4967">
        <ele>197</ele>
        <time>2020-01-12T11:28:22.000Z</time>
      </trkpt>
      <trkpt lat="43.61016" lon="0.49673">
        <ele>196</ele>
        <time>2020-01-12T11:28:24.000Z</time>
      </trkpt>
      <trkpt lat="43.61016" lon="0.49675">
        <ele>196</ele>
        <time>2020-01-12T11:28:26.000Z</time>
      </trkpt>
      <trkpt lat="43.61016" lon="0.49679">
        <ele>196</ele>
        <time>2020-01-12T11:28:28.000Z</time>
      </trkpt>
      <trkpt lat="43.61016" lon="0.49681">
        <ele>196</ele>
        <time>2020-01-12T11:28:30.000Z</time>
      </trkpt>
      <trkpt lat="43.61017" lon="0.49684">
        <ele>196</ele>
        <time>2020-01-12T11:28:32.000Z</time>
      </trkpt>
      <trkpt lat="43.61017" lon="0.49686">
        <ele>196</ele>
        <time>2020-01-12T11:28:34.000Z</time>
      </trkpt>
      <trkpt lat="43.61017" lon="0.49689">
        <ele>196</ele>
        <time>2020-01-12T11:28:36.000Z</time>
      </trkpt>
      <trkpt lat="43.61017" lon="0.49691">
        <ele>196</ele>
        <time>2020-01-12T11:28:38.000Z</time>
      </trkpt>
      <trkpt lat="43.61017" lon="0.49694">
        <ele>196</ele>
        <time>2020-01-12T11:28:40.000Z</time>
      </trkpt>
      <trkpt lat="43.61017" lon="0.49696">
        <ele>196</ele>
        <time>2020-01-12T11:28:42.000Z</time>
      </trkpt>
      <trkpt lat="43.61017" lon="0.49698">
        <ele>196</ele>
        <time>2020-01-12T11:28:44.000Z</time>
      </trkpt>
      <trkpt lat="43.61017" lon="0.49701">
        <ele>196</ele>
        <time>2020-01-12T11:28:46.000Z</time>
      </trkpt>
      <trkpt lat="43.61017" lon="0.49703">
        <ele>195</ele>
        <time>2020-01-12T11:28:48.000Z</time>
      </trkpt>
      <trkpt lat="43.61017" lon="0.49705">
        <ele>195</ele>
        <time>2020-01-12T11:28:50.000Z</time>
      </trkpt>
      <trkpt lat="43.61017" lon="0.49706">
        <ele>195</ele>
        <time>2020-01-12T11:28:52.000Z</time>
      </trkpt>
      <trkpt lat="43.61018" lon="0.49707">
        <ele>195</ele>
        <time>2020-01-12T11:28:54.000Z</time>
      </trkpt>
      <trkpt lat="43.61018" lon="0.4971">
        <ele>195</ele>
        <time>2020-01-12T11:28:56.000Z</time>
      </trkpt>
      <trkpt lat="43.61018" lon="0.49712">
        <ele>195</ele>
        <time>2020-01-12T11:28:58.000Z</time>
      </trkpt>
      <trkpt lat="43.61018" lon="0.49713">
        <ele>195</ele>
        <time>2020-01-12T11:29:00.000Z</time>
      </trkpt>
      <trkpt lat="43.61018" lon="0.49715">
        <ele>195</ele>
        <time>2020-01-12T11:29:02.000Z</time>
      </trkpt>
      <trkpt lat="43.61018" lon="0.49717">
        <ele>195</ele>
        <time>2020-01-12T11:29:04.000Z</time>
      </trkpt>
      <trkpt lat="43.61018" lon="0.4972">
        <ele>195</ele>
        <time>2020-01-12T11:29:06.000Z</time>
      </trkpt>
      <trkpt lat="43.61018" lon="0.49722">
        <ele>195</ele>
        <time>2020-01-12T11:29:08.000Z</time>
      </trkpt>
      <trkpt lat="43.61018" lon="0.49725">
        <ele>195</ele>
        <time>2020-01-12T11:29:10.000Z</time>
      </trkpt>
      <trkpt lat="43.61019" lon="0.49727">
        <ele>195</ele>
        <time>2020-01-12T11:29:12.000Z</time>
      </trkpt>
      <trkpt lat="43.61019" lon="0.4973">
        <ele>195</ele>
        <time>2020-01-12T11:29:14.000Z</time>
      </trkpt>
      <trkpt lat="43.61019" lon="0.49732">
        <ele>195</ele>
        <time>2020-01-12T11:29:16.000Z</time>
      </trkpt>
      <trkpt lat="43.61019" lon="0.49734">
        <ele>195</ele>
        <time>2020-01-12T11:29:18.000Z</time>
      </trkpt>
      <trkpt lat="43.61019" lon="0.49737">
        <ele>195</ele>
        <time>2020-01-12T11:29:20.000Z</time>
      </trkpt>
      <trkpt lat="43.61019" lon="0.49739">
        <ele>195</ele>
        <time>2020-01-12T11:29:22.000Z</time>
      </trkpt>
      <trkpt lat="43.61019" lon="0.49742">
        <ele>195</ele>
        <time>2020-01-12T11:29:24.000Z</time>
      </trkpt>
      <trkpt lat="43.6102" lon="0.49744">
        <ele>195</ele>
        <time>2020-01-12T11:29:26.000Z</time>
      </trkpt>
      <trkpt lat="43.6102" lon="0.49747">
        <ele>195</ele>
        <time>2020-01-12T11:29:28.000Z</time>
      </trkpt>
      <trkpt lat="43.6102" lon="0.4975">
        <ele>195</ele>
        <time>2020-01-12T11:29:30.000Z</time>
      </trkpt>
      <trkpt lat="43.6102" lon="0.49753">
        <ele>195</ele>
        <time>2020-01-12T11:29:32.000Z</time>
      </trkpt>
      <trkpt lat="43.6102" lon="0.49756">
        <ele>195</ele>
        <time>2020-01-12T11:29:34.000Z</time>
      </trkpt>
      <trkpt lat="43.6102" lon="0.49759">
        <ele>195</ele>
        <time>2020-01-12T11:29:36.000Z</time>
      </trkpt>
      <trkpt lat="43.61021" lon="0.49761">
        <ele>195</ele>
        <time>2020-01-12T11:29:38.000Z</time>
      </trkpt>
      <trkpt lat="43.61021" lon="0.49764">
        <ele>195</ele>
        <time>2020-01-12T11:29:40.000Z</time>
      </trkpt>
      <trkpt lat="43.61021" lon="0.49767">
        <ele>195</ele>
        <time>2020-01-12T11:29:42.000Z</time>
      </trkpt>
      <trkpt lat="43.61021" lon="0.4977">
        <ele>195</ele>
        <time>2020-01-12T11:29:44.000Z</time>
      </trkpt>
      <trkpt lat="43.61021" lon="0.49772">
        <ele>195</ele>
        <time>2020-01-12T11:29:46.000Z</time>
      </trkpt>
      <trkpt lat="43.61021" lon="0.49775">
        <ele>195</ele>
        <time>2020-01-12T11:29:48.000Z</time>
      </trkpt>
      <trkpt lat="43.61021" lon="0.49778">
        <ele>195</ele>
        <time>2020-01-12T11:29:50.000Z</time>
      </trkpt>
      <trkpt lat="43.61022" lon="0.49781">
        <ele>195</ele>
        <time>2020-01-12T11:29:52.000Z</time>
      </trkpt>
      <trkpt lat="43.61022" lon="0.49783">
        <ele>195</ele>
        <time>2020-01-12T11:29:54.000Z</time>
      </trkpt>
      <trkpt lat="43.61022" lon="0.49786">
        <ele>195</ele>
        <time>2020-01-12T11:29:56.000Z</time>
      </trkpt>
      <trkpt lat="43.61022" lon="0.49788">
        <ele>195</ele>
        <time>2020-01-12T11:29:58.000Z</time>
      </trkpt>
      <trkpt lat="43.61022" lon="0.49791">
        <ele>195</ele>
        <time>2020-01-12T11:30:00.000Z</time>
      </trkpt>
      <trkpt lat="43.61022" lon="0.49793">
        <ele>195</ele>
        <time>2020-01-12T11:30:02.000Z</time>
      </trkpt>
      <trkpt lat="43.61022" lon="0.49796">
        <ele>195</ele>
        <time>2020-01-12T11:30:04.000Z</time>
      </trkpt>
      <trkpt lat="43.61022" lon="0.49798">
        <ele>195</ele>
        <time>2020-01-12T11:30:06.000Z</time>
      </trkpt>
      <trkpt lat="43.61022" lon="0.49801">
        <ele>195</ele>
        <time>2020-01-12T11:30:08.000Z</time>
      </trkpt>
      <trkpt lat="43.61023" lon="0.49804">
        <ele>195</ele>
        <time>2020-01-12T11:30:10.000Z</time>
      </trkpt>
      <trkpt lat="43.61023" lon="0.49807">
        <ele>195</ele>
        <time>2020-01-12T11:30:12.000Z</time>
      </trkpt>
      <trkpt lat="43.61023" lon="0.49809">
        <ele>195</ele>
        <time>2020-01-12T11:30:14.000Z</time>
      </trkpt>
      <trkpt lat="43.61023" lon="0.49812">
        <ele>195</ele>
        <time>2020-01-12T11:30:16.000Z</time>
      </trkpt>
      <trkpt lat="43.61023" lon="0.49814">
        <ele>195</ele>
        <time>2020-01-12T11:30:18.000Z</time>
      </trkpt>
      <trkpt lat="43.61023" lon="0.49816">
        <ele>195</ele>
        <time>2020-01-12T11:30:20.000Z</time>
      </trkpt>
      <trkpt lat="43.61023" lon="0.49818">
        <ele>195</ele>
        <time>2020-01-12T11:30:22.000Z</time>
      </trkpt>
      <trkpt lat="43.61023" lon="0.4982">
        <ele>195</ele>
        <time>2020-01-12T11:30:24.000Z</time>
      </trkpt>
      <trkpt lat="43.61023" lon="0.49822">
        <ele>195</ele>
        <time>2020-01-12T11:30:26.000Z</time>
      </trkpt>
      <trkpt lat="43.61023" lon="0.49824">
        <ele>195</ele>
        <time>2020-01-12T11:30:28.000Z</time>
      </trkpt>
      <trkpt lat="43.61023" lon="0.49827">
        <ele>195</ele>
        <time>2020-01-12T11:30:30.000Z</time>
      </trkpt>
      <trkpt lat="43.61023" lon="0.49829">
        <ele>195</ele>
        <time>2020-01-12T11:30:32.000Z</time>
      </trkpt>
      <trkpt lat="43.61023" lon="0.49832">
        <ele>195</ele>
        <time>2020-01-12T11:30:34.000Z</time>
      </trkpt>
      <trkpt lat="43.61023" lon="0.49833">
        <ele>195</ele>
        <time>2020-01-12T11:30:36.000Z</time>
      </trkpt>
      <trkpt lat="43.61023" lon="0.49836">
        <ele>195</ele>
        <time>2020-01-12T11:30:38.000Z</time>
      </trkpt>
      <trkpt lat="43.61024" lon="0.49838">
        <ele>195</ele>
        <time>2020-01-12T11:30:40.000Z</time>
      </trkpt>
      <trkpt lat="43.61024" lon="0.49841">
        <ele>194</ele>
        <time>2020-01-12T11:30:42.000Z</time>
      </trkpt>
      <trkpt lat="43.61025" lon="0.49844">
        <ele>194</ele>
        <time>2020-01-12T11:30:44.000Z</time>
      </trkpt>
      <trkpt lat="43.61025" lon="0.49846">
        <ele>194</ele>
        <time>2020-01-12T11:30:46.000Z</time>
      </trkpt>
      <trkpt lat="43.61026" lon="0.49849">
        <ele>194</ele>
        <time>2020-01-12T11:30:48.000Z</time>
      </trkpt>
      <trkpt lat="43.61026" lon="0.49851">
        <ele>194</ele>
        <time>2020-01-12T11:30:50.000Z</time>
      </trkpt>
      <trkpt lat="43.61025" lon="0.49853">
        <ele>194</ele>
        <time>2020-01-12T11:30:52.000Z</time>
      </trkpt>
      <trkpt lat="43.61025" lon="0.49855">
        <ele>194</ele>
        <time>2020-01-12T11:30:54.000Z</time>
      </trkpt>
      <trkpt lat="43.61025" lon="0.49858">
        <ele>194</ele>
        <time>2020-01-12T11:30:56.000Z</time>
      </trkpt>
      <trkpt lat="43.61025" lon="0.49861">
        <ele>194</ele>
        <time>2020-01-12T11:30:58.000Z</time>
      </trkpt>
      <trkpt lat="43.61025" lon="0.49863">
        <ele>194</ele>
        <time>2020-01-12T11:31:00.000Z</time>
      </trkpt>
      <trkpt lat="43.61025" lon="0.49865">
        <ele>194</ele>
        <time>2020-01-12T11:31:02.000Z</time>
      </trkpt>
      <trkpt lat="43.61026" lon="0.49865">
        <ele>194</ele>
        <time>2020-01-12T11:31:04.000Z</time>
      </trkpt>
      <trkpt lat="43.61026" lon="0.49866">
        <ele>194</ele>
        <time>2020-01-12T11:31:06.000Z</time>
      </trkpt>
      <trkpt lat="43.61026" lon="0.49867">
        <ele>194</ele>
        <time>2020-01-12T11:31:08.000Z</time>
      </trkpt>
      <trkpt lat="43.61026" lon="0.49867">
        <ele>194</ele>
        <time>2020-01-12T11:31:10.000Z</time>
      </trkpt>
      <trkpt lat="43.61026" lon="0.49867">
        <ele>194</ele>
        <time>2020-01-12T11:31:12.000Z</time>
      </trkpt>
      <trkpt lat="43.61026" lon="0.49866">
        <ele>194</ele>
        <time>2020-01-12T11:31:14.000Z</time>
      </trkpt>
      <trkpt lat="43.61026" lon="0.49866">
        <ele>194</ele>
        <time>2020-01-12T11:31:16.000Z</time>
      </trkpt>
      <trkpt lat="43.61026" lon="0.49866">
        <ele>194</ele>
        <time>2020-01-12T11:31:18.000Z</time>
      </trkpt>
      <trkpt lat="43.61025" lon="0.49866">
        <ele>194</ele>
        <time>2020-01-12T11:31:20.000Z</time>
      </trkpt>
      <trkpt lat="43.61026" lon="0.49867">
        <ele>194</ele>
        <time>2020-01-12T11:31:22.000Z</time>
      </trkpt>
      <trkpt lat="43.61025" lon="0.49866">
        <ele>194</ele>
        <time>2020-01-12T11:31:24.000Z</time>
      </trkpt>
      <trkpt lat="43.61025" lon="0.49867">
        <ele>194</ele>
        <time>2020-01-12T11:31:26.000Z</time>
      </trkpt>
      <trkpt lat="43.61025" lon="0.49867">
        <ele>194</ele>
        <time>2020-01-12T11:31:28.000Z</time>
      </trkpt>
      <trkpt lat="43.61025" lon="0.49867">
        <ele>194</ele>
        <time>2020-01-12T11:31:30.000Z</time>
      </trkpt>
      <trkpt lat="43.61025" lon="0.49867">
        <ele>194</ele>
        <time>2020-01-12T11:31:32.000Z</time>
      </trkpt>
      <trkpt lat="43.61025" lon="0.49867">
        <ele>194</ele>
        <time>2020-01-12T11:31:34.000Z</time>
      </trkpt>
      <trkpt lat="43.61025" lon="0.49867">
        <ele>194</ele>
        <time>2020-01-12T11:31:36.000Z</time>
      </trkpt>
      <trkpt lat="43.61026" lon="0.49867">
        <ele>194</ele>
        <time>2020-01-12T11:31:38.000Z</time>
      </trkpt>
      <trkpt lat="43.61026" lon="0.49867">
        <ele>194</ele>
        <time>2020-01-12T11:31:40.000Z</time>
      </trkpt>
      <trkpt lat="43.61026" lon="0.49867">
        <ele>194</ele>
        <time>2020-01-12T11:31:42.000Z</time>
      </trkpt>
      <trkpt lat="43.61026" lon="0.49867">
        <ele>194</ele>
        <time>2020-01-12T11:31:44.000Z</time>
      </trkpt>
      <trkpt lat="43.61026" lon="0.49867">
        <ele>194</ele>
        <time>2020-01-12T11:31:46.000Z</time>
      </trkpt>
      <trkpt lat="43.61026" lon="0.49867">
        <ele>194</ele>
        <time>2020-01-12T11:31:48.000Z</time>
      </trkpt>
      <trkpt lat="43.61026" lon="0.49869">
        <ele>194</ele>
        <time>2020-01-12T11:31:50.000Z</time>
      </trkpt>
      <trkpt lat="43.61026" lon="0.49871">
        <ele>194</ele>
        <time>2020-01-12T11:31:52.000Z</time>
      </trkpt>
      <trkpt lat="43.61026" lon="0.49873">
        <ele>194</ele>
        <time>2020-01-12T11:31:54.000Z</time>
      </trkpt>
      <trkpt lat="43.61027" lon="0.49876">
        <ele>194</ele>
        <time>2020-01-12T11:31:56.000Z</time>
      </trkpt>
      <trkpt lat="43.61027" lon="0.49879">
        <ele>194</ele>
        <time>2020-01-12T11:31:58.000Z</time>
      </trkpt>
      <trkpt lat="43.61028" lon="0.49882">
        <ele>194</ele>
        <time>2020-01-12T11:32:00.000Z</time>
      </trkpt>
      <trkpt lat="43.61028" lon="0.49884">
        <ele>194</ele>
        <time>2020-01-12T11:32:02.000Z</time>
      </trkpt>
      <trkpt lat="43.61028" lon="0.49888">
        <ele>194</ele>
        <time>2020-01-12T11:32:04.000Z</time>
      </trkpt>
      <trkpt lat="43.61028" lon="0.4989">
        <ele>194</ele>
        <time>2020-01-12T11:32:06.000Z</time>
      </trkpt>
      <trkpt lat="43.61028" lon="0.49893">
        <ele>195</ele>
        <time>2020-01-12T11:32:08.000Z</time>
      </trkpt>
      <trkpt lat="43.61028" lon="0.49896">
        <ele>195</ele>
        <time>2020-01-12T11:32:10.000Z</time>
      </trkpt>
      <trkpt lat="43.61028" lon="0.49898">
        <ele>195</ele>
        <time>2020-01-12T11:32:12.000Z</time>
      </trkpt>
      <trkpt lat="43.61028" lon="0.49901">
        <ele>195</ele>
        <time>2020-01-12T11:32:14.000Z</time>
      </trkpt>
      <trkpt lat="43.61029" lon="0.49904">
        <ele>195</ele>
        <time>2020-01-12T11:32:16.000Z</time>
      </trkpt>
      <trkpt lat="43.61029" lon="0.49906">
        <ele>195</ele>
        <time>2020-01-12T11:32:18.000Z</time>
      </trkpt>
      <trkpt lat="43.61029" lon="0.49909">
        <ele>195</ele>
        <time>2020-01-12T11:32:20.000Z</time>
      </trkpt>
      <trkpt lat="43.61029" lon="0.49912">
        <ele>195</ele>
        <time>2020-01-12T11:32:22.000Z</time>
      </trkpt>
      <trkpt lat="43.61029" lon="0.49915">
        <ele>194</ele>
        <time>2020-01-12T11:32:24.000Z</time>
      </trkpt>
      <trkpt lat="43.61029" lon="0.49918">
        <ele>195</ele>
        <time>2020-01-12T11:32:26.000Z</time>
      </trkpt>
      <trkpt lat="43.61029" lon="0.4992">
        <ele>194</ele>
        <time>2020-01-12T11:32:28.000Z</time>
      </trkpt>
      <trkpt lat="43.61029" lon="0.49923">
        <ele>194</ele>
        <time>2020-01-12T11:32:30.000Z</time>
      </trkpt>
      <trkpt lat="43.61029" lon="0.49925">
        <ele>194</ele>
        <time>2020-01-12T11:32:32.000Z</time>
      </trkpt>
      <trkpt lat="43.6103" lon="0.49928">
        <ele>194</ele>
        <time>2020-01-12T11:32:34.000Z</time>
      </trkpt>
      <trkpt lat="43.6103" lon="0.49931">
        <ele>194</ele>
        <time>2020-01-12T11:32:36.000Z</time>
      </trkpt>
      <trkpt lat="43.6103" lon="0.49933">
        <ele>194</ele>
        <time>2020-01-12T11:32:38.000Z</time>
      </trkpt>
      <trkpt lat="43.6103" lon="0.49935">
        <ele>194</ele>
        <time>2020-01-12T11:32:40.000Z</time>
      </trkpt>
      <trkpt lat="43.6103" lon="0.49938">
        <ele>194</ele>
        <time>2020-01-12T11:32:42.000Z</time>
      </trkpt>
      <trkpt lat="43.6103" lon="0.4994">
        <ele>194</ele>
        <time>2020-01-12T11:32:44.000Z</time>
      </trkpt>
      <trkpt lat="43.6103" lon="0.49943">
        <ele>194</ele>
        <time>2020-01-12T11:32:46.000Z</time>
      </trkpt>
      <trkpt lat="43.6103" lon="0.49945">
        <ele>194</ele>
        <time>2020-01-12T11:32:48.000Z</time>
      </trkpt>
      <trkpt lat="43.6103" lon="0.49947">
        <ele>194</ele>
        <time>2020-01-12T11:32:50.000Z</time>
      </trkpt>
      <trkpt lat="43.61031" lon="0.4995">
        <ele>194</ele>
        <time>2020-01-12T11:32:52.000Z</time>
      </trkpt>
      <trkpt lat="43.61031" lon="0.49952">
        <ele>194</ele>
        <time>2020-01-12T11:32:54.000Z</time>
      </trkpt>
      <trkpt lat="43.61031" lon="0.49954">
        <ele>194</ele>
        <time>2020-01-12T11:32:56.000Z</time>
      </trkpt>
      <trkpt lat="43.61031" lon="0.49957">
        <ele>194</ele>
        <time>2020-01-12T11:32:58.000Z</time>
      </trkpt>
      <trkpt lat="43.61031" lon="0.49959">
        <ele>194</ele>
        <time>2020-01-12T11:33:00.000Z</time>
      </trkpt>
      <trkpt lat="43.61031" lon="0.49961">
        <ele>194</ele>
        <time>2020-01-12T11:33:02.000Z</time>
      </trkpt>
      <trkpt lat="43.61031" lon="0.49964">
        <ele>194</ele>
        <time>2020-01-12T11:33:04.000Z</time>
      </trkpt>
      <trkpt lat="43.61031" lon="0.49966">
        <ele>194</ele>
        <time>2020-01-12T11:33:06.000Z</time>
      </trkpt>
      <trkpt lat="43.61031" lon="0.49968">
        <ele>195</ele>
        <time>2020-01-12T11:33:08.000Z</time>
      </trkpt>
      <trkpt lat="43.61031" lon="0.4997">
        <ele>195</ele>
        <time>2020-01-12T11:33:10.000Z</time>
      </trkpt>
      <trkpt lat="43.61031" lon="0.49973">
        <ele>196</ele>
        <time>2020-01-12T11:33:12.000Z</time>
      </trkpt>
      <trkpt lat="43.61031" lon="0.49975">
        <ele>196</ele>
        <time>2020-01-12T11:33:14.000Z</time>
      </trkpt>
      <trkpt lat="43.61032" lon="0.49977">
        <ele>197</ele>
        <time>2020-01-12T11:33:16.000Z</time>
      </trkpt>
      <trkpt lat="43.61032" lon="0.4998">
        <ele>197</ele>
        <time>2020-01-12T11:33:18.000Z</time>
      </trkpt>
      <trkpt lat="43.61033" lon="0.49982">
        <ele>198</ele>
        <time>2020-01-12T11:33:20.000Z</time>
      </trkpt>
      <trkpt lat="43.61033" lon="0.49984">
        <ele>198</ele>
        <time>2020-01-12T11:33:22.000Z</time>
      </trkpt>
      <trkpt lat="43.61033" lon="0.49987">
        <ele>199</ele>
        <time>2020-01-12T11:33:24.000Z</time>
      </trkpt>
      <trkpt lat="43.61033" lon="0.49989">
        <ele>199</ele>
        <time>2020-01-12T11:33:26.000Z</time>
      </trkpt>
      <trkpt lat="43.61034" lon="0.49991">
        <ele>199</ele>
        <time>2020-01-12T11:33:28.000Z</time>
      </trkpt>
      <trkpt lat="43.61034" lon="0.49993">
        <ele>200</ele>
        <time>2020-01-12T11:33:30.000Z</time>
      </trkpt>
      <trkpt lat="43.61034" lon="0.49996">
        <ele>200</ele>
        <time>2020-01-12T11:33:32.000Z</time>
      </trkpt>
      <trkpt lat="43.61034" lon="0.49998">
        <ele>200</ele>
        <time>2020-01-12T11:33:34.000Z</time>
      </trkpt>
      <trkpt lat="43.61034" lon="0.5">
        <ele>201</ele>
        <time>2020-01-12T11:33:36.000Z</time>
      </trkpt>
      <trkpt lat="43.61034" lon="0.50002">
        <ele>201</ele>
        <time>2020-01-12T11:33:38.000Z</time>
      </trkpt>
      <trkpt lat="43.61034" lon="0.50005">
        <ele>202</ele>
        <time>2020-01-12T11:33:40.000Z</time>
      </trkpt>
      <trkpt lat="43.61035" lon="0.50007">
        <ele>202</ele>
        <time>2020-01-12T11:33:42.000Z</time>
      </trkpt>
      <trkpt lat="43.61036" lon="0.5001">
        <ele>202</ele>
        <time>2020-01-12T11:33:44.000Z</time>
      </trkpt>
      <trkpt lat="43.61036" lon="0.50012">
        <ele>203</ele>
        <time>2020-01-12T11:33:46.000Z</time>
      </trkpt>
      <trkpt lat="43.61036" lon="0.50014">
        <ele>203</ele>
        <time>2020-01-12T11:33:48.000Z</time>
      </trkpt>
      <trkpt lat="43.61036" lon="0.50016">
        <ele>204</ele>
        <time>2020-01-12T11:33:50.000Z</time>
      </trkpt>
      <trkpt lat="43.61036" lon="0.50019">
        <ele>204</ele>
        <time>2020-01-12T11:33:52.000Z</time>
      </trkpt>
      <trkpt lat="43.61037" lon="0.50021">
        <ele>204</ele>
        <time>2020-01-12T11:33:54.000Z</time>
      </trkpt>
      <trkpt lat="43.61038" lon="0.50023">
        <ele>205</ele>
        <time>2020-01-12T11:33:56.000Z</time>
      </trkpt>
      <trkpt lat="43.61038" lon="0.50024">
        <ele>205</ele>
        <time>2020-01-12T11:33:58.000Z</time>
      </trkpt>
      <trkpt lat="43.61039" lon="0.50026">
        <ele>205</ele>
        <time>2020-01-12T11:34:00.000Z</time>
      </trkpt>
      <trkpt lat="43.61039" lon="0.50027">
        <ele>205</ele>
        <time>2020-01-12T11:34:02.000Z</time>
      </trkpt>
      <trkpt lat="43.61038" lon="0.50027">
        <ele>205</ele>
        <time>2020-01-12T11:34:04.000Z</time>
      </trkpt>
      <trkpt lat="43.61038" lon="0.50027">
        <ele>205</ele>
        <time>2020-01-12T11:34:06.000Z</time>
      </trkpt>
      <trkpt lat="43.61038" lon="0.50028">
        <ele>205</ele>
        <time>2020-01-12T11:34:08.000Z</time>
      </trkpt>
      <trkpt lat="43.61037" lon="0.50028">
        <ele>206</ele>
        <time>2020-01-12T11:34:10.000Z</time>
      </trkpt>
      <trkpt lat="43.61037" lon="0.50028">
        <ele>206</ele>
        <time>2020-01-12T11:34:12.000Z</time>
      </trkpt>
      <trkpt lat="43.61037" lon="0.50028">
        <ele>205</ele>
        <time>2020-01-12T11:34:14.000Z</time>
      </trkpt>
      <trkpt lat="43.61038" lon="0.50029">
        <ele>206</ele>
        <time>2020-01-12T11:34:16.000Z</time>
      </trkpt>
      <trkpt lat="43.61038" lon="0.50028">
        <ele>206</ele>
        <time>2020-01-12T11:34:18.000Z</time>
      </trkpt>
      <trkpt lat="43.61038" lon="0.50028">
        <ele>206</ele>
        <time>2020-01-12T11:34:20.000Z</time>
      </trkpt>
      <trkpt lat="43.61039" lon="0.50027">
        <ele>205</ele>
        <time>2020-01-12T11:34:22.000Z</time>
      </trkpt>
      <trkpt lat="43.61041" lon="0.50026">
        <ele>205</ele>
        <time>2020-01-12T11:34:24.000Z</time>
      </trkpt>
      <trkpt lat="43.61042" lon="0.50024">
        <ele>205</ele>
        <time>2020-01-12T11:34:26.000Z</time>
      </trkpt>
      <trkpt lat="43.61043" lon="0.50023">
        <ele>205</ele>
        <time>2020-01-12T11:34:28.000Z</time>
      </trkpt>
      <trkpt lat="43.61045" lon="0.50022">
        <ele>205</ele>
        <time>2020-01-12T11:34:30.000Z</time>
      </trkpt>
      <trkpt lat="43.61047" lon="0.50022">
        <ele>205</ele>
        <time>2020-01-12T11:34:32.000Z</time>
      </trkpt>
      <trkpt lat="43.61049" lon="0.50021">
        <ele>205</ele>
        <time>2020-01-12T11:34:34.000Z</time>
      </trkpt>
      <trkpt lat="43.6105" lon="0.50021">
        <ele>204</ele>
        <time>2020-01-12T11:34:36.000Z</time>
      </trkpt>
      <trkpt lat="43.61052" lon="0.5002">
        <ele>204</ele>
        <time>2020-01-12T11:34:38.000Z</time>
      </trkpt>
      <trkpt lat="43.61053" lon="0.5002">
        <ele>204</ele>
        <time>2020-01-12T11:34:40.000Z</time>
      </trkpt>
      <trkpt lat="43.61054" lon="0.5002">
        <ele>204</ele>
        <time>2020-01-12T11:34:42.000Z</time>
      </trkpt>
      <trkpt lat="43.61056" lon="0.5002">
        <ele>204</ele>
        <time>2020-01-12T11:34:44.000Z</time>
      </trkpt>
      <trkpt lat="43.61056" lon="0.5002">
        <ele>204</ele>
        <time>2020-01-12T11:34:46.000Z</time>
      </trkpt>
      <trkpt lat="43.61056" lon="0.5002">
        <ele>204</ele>
        <time>2020-01-12T11:34:48.000Z</time>
      </trkpt>
      <trkpt lat="43.61056" lon="0.5002">
        <ele>204</ele>
        <time>2020-01-12T11:34:50.000Z</time>
      </trkpt>
      <trkpt lat="43.61056" lon="0.5002">
        <ele>204</ele>
        <time>2020-01-12T11:34:52.000Z</time>
      </trkpt>
      <trkpt lat="43.61056" lon="0.5002">
        <ele>204</ele>
        <time>2020-01-12T11:34:54.000Z</time>
      </trkpt>
      <trkpt lat="43.61056" lon="0.5002">
        <ele>204</ele>
        <time>2020-01-12T11:34:56.000Z</time>
      </trkpt>
      <trkpt lat="43.61056" lon="0.5002">
        <ele>204</ele>
        <time>2020-01-12T11:34:58.000Z</time>
      </trkpt>
      <trkpt lat="43.61055" lon="0.5002">
        <ele>204</ele>
        <time>2020-01-12T11:35:00.000Z</time>
      </trkpt>
      <trkpt lat="43.61055" lon="0.50021">
        <ele>204</ele>
        <time>2020-01-12T11:35:02.000Z</time>
      </trkpt>
      <trkpt lat="43.61054" lon="0.5002">
        <ele>204</ele>
        <time>2020-01-12T11:35:04.000Z</time>
      </trkpt>
      <trkpt lat="43.61054" lon="0.50021">
        <ele>204</ele>
        <time>2020-01-12T11:35:06.000Z</time>
      </trkpt>
      <trkpt lat="43.61054" lon="0.50021">
        <ele>204</ele>
        <time>2020-01-12T11:35:08.000Z</time>
      </trkpt>
      <trkpt lat="43.61053" lon="0.5002">
        <ele>204</ele>
        <time>2020-01-12T11:35:10.000Z</time>
      </trkpt>
      <trkpt lat="43.61053" lon="0.50021">
        <ele>205</ele>
        <time>2020-01-12T11:35:12.000Z</time>
      </trkpt>
      <trkpt lat="43.61054" lon="0.50021">
        <ele>205</ele>
        <time>2020-01-12T11:35:14.000Z</time>
      </trkpt>
      <trkpt lat="43.61053" lon="0.50021">
        <ele>204</ele>
        <time>2020-01-12T11:35:16.000Z</time>
      </trkpt>
      <trkpt lat="43.61053" lon="0.50021">
        <ele>205</ele>
        <time>2020-01-12T11:35:18.000Z</time>
      </trkpt>
      <trkpt lat="43.61053" lon="0.50021">
        <ele>205</ele>
        <time>2020-01-12T11:35:20.000Z</time>
      </trkpt>
      <trkpt lat="43.61053" lon="0.50021">
        <ele>204</ele>
        <time>2020-01-12T11:35:22.000Z</time>
      </trkpt>
      <trkpt lat="43.61053" lon="0.50021">
        <ele>204</ele>
        <time>2020-01-12T11:35:24.000Z</time>
      </trkpt>
      <trkpt lat="43.61052" lon="0.5002">
        <ele>204</ele>
        <time>2020-01-12T11:35:26.000Z</time>
      </trkpt>
      <trkpt lat="43.61052" lon="0.5002">
        <ele>204</ele>
        <time>2020-01-12T11:35:28.000Z</time>
      </trkpt>
      <trkpt lat="43.61052" lon="0.5002">
        <ele>204</ele>
        <time>2020-01-12T11:35:30.000Z</time>
      </trkpt>
      <trkpt lat="43.61052" lon="0.50019">
        <ele>204</ele>
        <time>2020-01-12T11:35:32.000Z</time>
      </trkpt>
      <trkpt lat="43.61053" lon="0.5002">
        <ele>204</ele>
        <time>2020-01-12T11:35:34.000Z</time>
      </trkpt>
      <trkpt lat="43.61054" lon="0.5002">
        <ele>204</ele>
        <time>2020-01-12T11:35:36.000Z</time>
      </trkpt>
      <trkpt lat="43.61054" lon="0.5002">
        <ele>204</ele>
        <time>2020-01-12T11:35:38.000Z</time>
      </trkpt>
      <trkpt lat="43.61054" lon="0.5002">
        <ele>204</ele>
        <time>2020-01-12T11:35:40.000Z</time>
      </trkpt>
      <trkpt lat="43.61054" lon="0.5002">
        <ele>204</ele>
        <time>2020-01-12T11:35:42.000Z</time>
      </trkpt>
      <trkpt lat="43.61054" lon="0.50021">
        <ele>204</ele>
        <time>2020-01-12T11:35:44.000Z</time>
      </trkpt>
      <trkpt lat="43.61054" lon="0.5002">
        <ele>204</ele>
        <time>2020-01-12T11:35:46.000Z</time>
      </trkpt>
      <trkpt lat="43.61054" lon="0.50021">
        <ele>204</ele>
        <time>2020-01-12T11:35:48.000Z</time>
      </trkpt>
      <trkpt lat="43.61055" lon="0.50021">
        <ele>205</ele>
        <time>2020-01-12T11:35:50.000Z</time>
      </trkpt>
      <trkpt lat="43.61055" lon="0.50021">
        <ele>205</ele>
        <time>2020-01-12T11:35:52.000Z</time>
      </trkpt>
      <trkpt lat="43.61055" lon="0.50022">
        <ele>205</ele>
        <time>2020-01-12T11:35:54.000Z</time>
      </trkpt>
      <trkpt lat="43.61055" lon="0.50022">
        <ele>205</ele>
        <time>2020-01-12T11:35:56.000Z</time>
      </trkpt>
      <trkpt lat="43.61055" lon="0.50022">
        <ele>205</ele>
        <time>2020-01-12T11:35:58.000Z</time>
      </trkpt>
      <trkpt lat="43.61055" lon="0.50023">
        <ele>205</ele>
        <time>2020-01-12T11:36:00.000Z</time>
      </trkpt>
      <trkpt lat="43.61055" lon="0.50023">
        <ele>205</ele>
        <time>2020-01-12T11:36:02.000Z</time>
      </trkpt>
      <trkpt lat="43.61056" lon="0.50023">
        <ele>205</ele>
        <time>2020-01-12T11:36:04.000Z</time>
      </trkpt>
      <trkpt lat="43.61055" lon="0.50022">
        <ele>205</ele>
        <time>2020-01-12T11:36:06.000Z</time>
      </trkpt>
      <trkpt lat="43.61055" lon="0.50022">
        <ele>205</ele>
        <time>2020-01-12T11:36:08.000Z</time>
      </trkpt>
      <trkpt lat="43.61055" lon="0.50022">
        <ele>205</ele>
        <time>2020-01-12T11:36:10.000Z</time>
      </trkpt>
      <trkpt lat="43.61055" lon="0.50022">
        <ele>205</ele>
        <time>2020-01-12T11:36:12.000Z</time>
      </trkpt>
      <trkpt lat="43.61055" lon="0.50022">
        <ele>205</ele>
        <time>2020-01-12T11:36:14.000Z</time>
      </trkpt>
      <trkpt lat="43.61055" lon="0.50022">
        <ele>205</ele>
        <time>2020-01-12T11:36:16.000Z</time>
      </trkpt>
      <trkpt lat="43.61055" lon="0.50022">
        <ele>205</ele>
        <time>2020-01-12T11:36:18.000Z</time>
      </trkpt>
      <trkpt lat="43.61054" lon="0.50022">
        <ele>205</ele>
        <time>2020-01-12T11:36:20.000Z</time>
      </trkpt>
      <trkpt lat="43.61054" lon="0.50022">
        <ele>205</ele>
        <time>2020-01-12T11:36:22.000Z</time>
      </trkpt>
      <trkpt lat="43.61055" lon="0.50022">
        <ele>205</ele>
        <time>2020-01-12T11:36:24.000Z</time>
      </trkpt>
      <trkpt lat="43.61054" lon="0.50022">
        <ele>205</ele>
        <time>2020-01-12T11:36:26.000Z</time>
      </trkpt>
      <trkpt lat="43.61055" lon="0.50022">
        <ele>205</ele>
        <time>2020-01-12T11:36:28.000Z</time>
      </trkpt>
      <trkpt lat="43.61055" lon="0.50022">
        <ele>205</ele>
        <time>2020-01-12T11:36:30.000Z</time>
      </trkpt>
      <trkpt lat="43.61055" lon="0.50022">
        <ele>205</ele>
        <time>2020-01-12T11:36:32.000Z</time>
      </trkpt>
      <trkpt lat="43.61056" lon="0.50023">
        <ele>205</ele>
        <time>2020-01-12T11:36:34.000Z</time>
      </trkpt>
      <trkpt lat="43.61056" lon="0.50022">
        <ele>205</ele>
        <time>2020-01-12T11:36:36.000Z</time>
      </trkpt>
      <trkpt lat="43.61055" lon="0.50022">
        <ele>205</ele>
        <time>2020-01-12T11:36:38.000Z</time>
      </trkpt>
      <trkpt lat="43.61055" lon="0.50022">
        <ele>205</ele>
        <time>2020-01-12T11:36:40.000Z</time>
      </trkpt>
      <trkpt lat="43.61054" lon="0.50021">
        <ele>204</ele>
        <time>2020-01-12T11:36:42.000Z</time>
      </trkpt>
      <trkpt lat="43.61054" lon="0.5002">
        <ele>204</ele>
        <time>2020-01-12T11:36:44.000Z</time>
      </trkpt>
      <trkpt lat="43.61054" lon="0.5002">
        <ele>204</ele>
        <time>2020-01-12T11:36:46.000Z</time>
      </trkpt>
      <trkpt lat="43.61055" lon="0.50019">
        <ele>204</ele>
        <time>2020-01-12T11:36:48.000Z</time>
      </trkpt>
      <trkpt lat="43.61054" lon="0.5002">
        <ele>204</ele>
        <time>2020-01-12T11:36:50.000Z</time>
      </trkpt>
      <trkpt lat="43.61054" lon="0.5002">
        <ele>204</ele>
        <time>2020-01-12T11:36:52.000Z</time>
      </trkpt>
      <trkpt lat="43.61054" lon="0.50021">
        <ele>205</ele>
        <time>2020-01-12T11:36:54.000Z</time>
      </trkpt>
      <trkpt lat="43.61055" lon="0.50022">
        <ele>205</ele>
        <time>2020-01-12T11:36:56.000Z</time>
      </trkpt>
      <trkpt lat="43.61055" lon="0.50022">
        <ele>205</ele>
        <time>2020-01-12T11:36:58.000Z</time>
      </trkpt>
      <trkpt lat="43.61055" lon="0.50022">
        <ele>205</ele>
        <time>2020-01-12T11:37:00.000Z</time>
      </trkpt>
      <trkpt lat="43.61055" lon="0.50022">
        <ele>205</ele>
        <time>2020-01-12T11:37:02.000Z</time>
      </trkpt>
      <trkpt lat="43.61054" lon="0.50022">
        <ele>205</ele>
        <time>2020-01-12T11:37:04.000Z</time>
      </trkpt>
      <trkpt lat="43.61054" lon="0.50021">
        <ele>205</ele>
        <time>2020-01-12T11:37:06.000Z</time>
      </trkpt>
      <trkpt lat="43.61053" lon="0.50021">
        <ele>205</ele>
        <time>2020-01-12T11:37:08.000Z</time>
      </trkpt>
      <trkpt lat="43.61053" lon="0.50021">
        <ele>204</ele>
        <time>2020-01-12T11:37:10.000Z</time>
      </trkpt>
      <trkpt lat="43.61053" lon="0.50021">
        <ele>205</ele>
        <time>2020-01-12T11:37:12.000Z</time>
      </trkpt>
      <trkpt lat="43.61053" lon="0.50021">
        <ele>204</ele>
        <time>2020-01-12T11:37:14.000Z</time>
      </trkpt>
      <trkpt lat="43.61053" lon="0.50021">
        <ele>204</ele>
        <time>2020-01-12T11:37:16.000Z</time>
      </trkpt>
      <trkpt lat="43.61054" lon="0.50021">
        <ele>205</ele>
        <time>2020-01-12T11:37:18.000Z</time>
      </trkpt>
      <trkpt lat="43.61054" lon="0.50022">
        <ele>205</ele>
        <time>2020-01-12T11:37:20.000Z</time>
      </trkpt>
      <trkpt lat="43.61055" lon="0.50022">
        <ele>205</ele>
        <time>2020-01-12T11:37:22.000Z</time>
      </trkpt>
      <trkpt lat="43.61055" lon="0.50022">
        <ele>205</ele>
        <time>2020-01-12T11:37:24.000Z</time>
      </trkpt>
      <trkpt lat="43.61055" lon="0.50022">
        <ele>205</ele>
        <time>2020-01-12T11:37:26.000Z</time>
      </trkpt>
      <trkpt lat="43.61054" lon="0.50021">
        <ele>205</ele>
        <time>2020-01-12T11:37:28.000Z</time>
      </trkpt>
      <trkpt lat="43.61054" lon="0.50021">
        <ele>205</ele>
        <time>2020-01-12T11:37:30.000Z</time>
      </trkpt>
      <trkpt lat="43.61054" lon="0.50021">
        <ele>205</ele>
        <time>2020-01-12T11:37:32.000Z</time>
      </trkpt>
      <trkpt lat="43.61054" lon="0.50021">
        <ele>205</ele>
        <time>2020-01-12T11:37:34.000Z</time>
      </trkpt>
      <trkpt lat="43.61055" lon="0.50021">
        <ele>205</ele>
        <time>2020-01-12T11:37:36.000Z</time>
      </trkpt>
      <trkpt lat="43.61055" lon="0.50021">
        <ele>205</ele>
        <time>2020-01-12T11:37:38.000Z</time>
      </trkpt>
      <trkpt lat="43.61055" lon="0.50021">
        <ele>205</ele>
        <time>2020-01-12T11:37:40.000Z</time>
      </trkpt>
      <trkpt lat="43.61054" lon="0.5002">
        <ele>204</ele>
        <time>2020-01-12T11:37:42.000Z</time>
      </trkpt>
      <trkpt lat="43.61054" lon="0.5002">
        <ele>204</ele>
        <time>2020-01-12T11:37:44.000Z</time>
      </trkpt>
      <trkpt lat="43.61054" lon="0.50021">
        <ele>204</ele>
        <time>2020-01-12T11:37:46.000Z</time>
      </trkpt>
      <trkpt lat="43.61054" lon="0.50021">
        <ele>205</ele>
        <time>2020-01-12T11:37:48.000Z</time>
      </trkpt>
      <trkpt lat="43.61054" lon="0.50021">
        <ele>205</ele>
        <time>2020-01-12T11:37:50.000Z</time>
      </trkpt>
      <trkpt lat="43.61055" lon="0.50021">
        <ele>205</ele>
        <time>2020-01-12T11:37:52.000Z</time>
      </trkpt>
      <trkpt lat="43.61055" lon="0.50021">
        <ele>205</ele>
        <time>2020-01-12T11:37:54.000Z</time>
      </trkpt>
      <trkpt lat="43.61055" lon="0.50022">
        <ele>205</ele>
        <time>2020-01-12T11:37:56.000Z</time>
      </trkpt>
      <trkpt lat="43.61055" lon="0.50022">
        <ele>205</ele>
        <time>2020-01-12T11:37:58.000Z</time>
      </trkpt>
      <trkpt lat="43.61055" lon="0.50022">
        <ele>205</ele>
        <time>2020-01-12T11:38:00.000Z</time>
      </trkpt>
      <trkpt lat="43.61055" lon="0.50023">
        <ele>205</ele>
        <time>2020-01-12T11:38:02.000Z</time>
      </trkpt>
      <trkpt lat="43.61054" lon="0.50024">
        <ele>205</ele>
        <time>2020-01-12T11:38:04.000Z</time>
      </trkpt>
      <trkpt lat="43.61053" lon="0.50025">
        <ele>205</ele>
        <time>2020-01-12T11:38:06.000Z</time>
      </trkpt>
      <trkpt lat="43.61052" lon="0.50025">
        <ele>205</ele>
        <time>2020-01-12T11:38:08.000Z</time>
      </trkpt>
      <trkpt lat="43.61051" lon="0.50025">
        <ele>205</ele>
        <time>2020-01-12T11:38:10.000Z</time>
      </trkpt>
      <trkpt lat="43.6105" lon="0.50026">
        <ele>205</ele>
        <time>2020-01-12T11:38:12.000Z</time>
      </trkpt>
      <trkpt lat="43.61049" lon="0.50026">
        <ele>205</ele>
        <time>2020-01-12T11:38:14.000Z</time>
      </trkpt>
      <trkpt lat="43.61047" lon="0.50026">
        <ele>205</ele>
        <time>2020-01-12T11:38:16.000Z</time>
      </trkpt>
      <trkpt lat="43.61047" lon="0.50027">
        <ele>205</ele>
        <time>2020-01-12T11:38:18.000Z</time>
      </trkpt>
      <trkpt lat="43.61047" lon="0.50028">
        <ele>206</ele>
        <time>2020-01-12T11:38:20.000Z</time>
      </trkpt>
      <trkpt lat="43.61046" lon="0.50029">
        <ele>206</ele>
        <time>2020-01-12T11:38:22.000Z</time>
      </trkpt>
      <trkpt lat="43.61045" lon="0.5003">
        <ele>206</ele>
        <time>2020-01-12T11:38:24.000Z</time>
      </trkpt>
      <trkpt lat="43.61044" lon="0.5003">
        <ele>206</ele>
        <time>2020-01-12T11:38:26.000Z</time>
      </trkpt>
      <trkpt lat="43.61042" lon="0.5003">
        <ele>206</ele>
        <time>2020-01-12T11:38:28.000Z</time>
      </trkpt>
      <trkpt lat="43.6104" lon="0.5003">
        <ele>206</ele>
        <time>2020-01-12T11:38:30.000Z</time>
      </trkpt>
      <trkpt lat="43.61039" lon="0.50031">
        <ele>206</ele>
        <time>2020-01-12T11:38:32.000Z</time>
      </trkpt>
      <trkpt lat="43.61037" lon="0.50031">
        <ele>206</ele>
        <time>2020-01-12T11:38:34.000Z</time>
      </trkpt>
      <trkpt lat="43.61036" lon="0.50029">
        <ele>206</ele>
        <time>2020-01-12T11:38:36.000Z</time>
      </trkpt>
      <trkpt lat="43.61036" lon="0.50026">
        <ele>205</ele>
        <time>2020-01-12T11:38:38.000Z</time>
      </trkpt>
      <trkpt lat="43.61035" lon="0.50024">
        <ele>205</ele>
        <time>2020-01-12T11:38:40.000Z</time>
      </trkpt>
      <trkpt lat="43.61035" lon="0.50024">
        <ele>205</ele>
        <time>2020-01-12T11:38:42.000Z</time>
      </trkpt>
      <trkpt lat="43.61035" lon="0.50024">
        <ele>205</ele>
        <time>2020-01-12T11:38:44.000Z</time>
      </trkpt>
      <trkpt lat="43.61035" lon="0.50023">
        <ele>205</ele>
        <time>2020-01-12T11:38:46.000Z</time>
      </trkpt>
      <trkpt lat="43.61035" lon="0.50023">
        <ele>205</ele>
        <time>2020-01-12T11:38:48.000Z</time>
      </trkpt>
      <trkpt lat="43.61034" lon="0.50023">
        <ele>205</ele>
        <time>2020-01-12T11:38:50.000Z</time>
      </trkpt>
      <trkpt lat="43.61034" lon="0.50023">
        <ele>205</ele>
        <time>2020-01-12T11:38:52.000Z</time>
      </trkpt>
      <trkpt lat="43.61034" lon="0.50023">
        <ele>205</ele>
        <time>2020-01-12T11:38:54.000Z</time>
      </trkpt>
      <trkpt lat="43.61035" lon="0.50022">
        <ele>204</ele>
        <time>2020-01-12T11:38:56.000Z</time>
      </trkpt>
      <trkpt lat="43.61035" lon="0.5002">
        <ele>204</ele>
        <time>2020-01-12T11:38:58.000Z</time>
      </trkpt>
      <trkpt lat="43.61035" lon="0.50018">
        <ele>204</ele>
        <time>2020-01-12T11:39:00.000Z</time>
      </trkpt>
      <trkpt lat="43.61035" lon="0.50016">
        <ele>203</ele>
        <time>2020-01-12T11:39:02.000Z</time>
      </trkpt>
      <trkpt lat="43.61035" lon="0.50015">
        <ele>203</ele>
        <time>2020-01-12T11:39:04.000Z</time>
      </trkpt>
      <trkpt lat="43.61034" lon="0.50014">
        <ele>203</ele>
        <time>2020-01-12T11:39:06.000Z</time>
      </trkpt>
      <trkpt lat="43.61035" lon="0.50014">
        <ele>203</ele>
        <time>2020-01-12T11:39:08.000Z</time>
      </trkpt>
      <trkpt lat="43.61035" lon="0.50013">
        <ele>203</ele>
        <time>2020-01-12T11:39:10.000Z</time>
      </trkpt>
      <trkpt lat="43.61034" lon="0.50012">
        <ele>203</ele>
        <time>2020-01-12T11:39:12.000Z</time>
      </trkpt>
      <trkpt lat="43.61034" lon="0.5001">
        <ele>203</ele>
        <time>2020-01-12T11:39:14.000Z</time>
      </trkpt>
      <trkpt lat="43.61034" lon="0.50008">
        <ele>202</ele>
        <time>2020-01-12T11:39:16.000Z</time>
      </trkpt>
      <trkpt lat="43.61034" lon="0.50005">
        <ele>202</ele>
        <time>2020-01-12T11:39:18.000Z</time>
      </trkpt>
      <trkpt lat="43.61034" lon="0.50003">
        <ele>201</ele>
        <time>2020-01-12T11:39:20.000Z</time>
      </trkpt>
      <trkpt lat="43.61034" lon="0.5">
        <ele>201</ele>
        <time>2020-01-12T11:39:22.000Z</time>
      </trkpt>
      <trkpt lat="43.61034" lon="0.49997">
        <ele>200</ele>
        <time>2020-01-12T11:39:24.000Z</time>
      </trkpt>
      <trkpt lat="43.61034" lon="0.49995">
        <ele>200</ele>
        <time>2020-01-12T11:39:26.000Z</time>
      </trkpt>
      <trkpt lat="43.61034" lon="0.49992">
        <ele>199</ele>
        <time>2020-01-12T11:39:28.000Z</time>
      </trkpt>
      <trkpt lat="43.61033" lon="0.49989">
        <ele>199</ele>
        <time>2020-01-12T11:39:30.000Z</time>
      </trkpt>
      <trkpt lat="43.61033" lon="0.49987">
        <ele>199</ele>
        <time>2020-01-12T11:39:32.000Z</time>
      </trkpt>
      <trkpt lat="43.61031" lon="0.49985">
        <ele>198</ele>
        <time>2020-01-12T11:39:34.000Z</time>
      </trkpt>
      <trkpt lat="43.61031" lon="0.49983">
        <ele>198</ele>
        <time>2020-01-12T11:39:36.000Z</time>
      </trkpt>
      <trkpt lat="43.6103" lon="0.49981">
        <ele>198</ele>
        <time>2020-01-12T11:39:38.000Z</time>
      </trkpt>
      <trkpt lat="43.6103" lon="0.49978">
        <ele>197</ele>
        <time>2020-01-12T11:39:40.000Z</time>
      </trkpt>
      <trkpt lat="43.6103" lon="0.49976">
        <ele>196</ele>
        <time>2020-01-12T11:39:42.000Z</time>
      </trkpt>
      <trkpt lat="43.61029" lon="0.49973">
        <ele>196</ele>
        <time>2020-01-12T11:39:44.000Z</time>
      </trkpt>
      <trkpt lat="43.61029" lon="0.4997">
        <ele>195</ele>
        <time>2020-01-12T11:39:46.000Z</time>
      </trkpt>
      <trkpt lat="43.61029" lon="0.49968">
        <ele>195</ele>
        <time>2020-01-12T11:39:48.000Z</time>
      </trkpt>
      <trkpt lat="43.61029" lon="0.49965">
        <ele>194</ele>
        <time>2020-01-12T11:39:50.000Z</time>
      </trkpt>
      <trkpt lat="43.61029" lon="0.49963">
        <ele>194</ele>
        <time>2020-01-12T11:39:52.000Z</time>
      </trkpt>
      <trkpt lat="43.61029" lon="0.49961">
        <ele>194</ele>
        <time>2020-01-12T11:39:54.000Z</time>
      </trkpt>
      <trkpt lat="43.6103" lon="0.49959">
        <ele>194</ele>
        <time>2020-01-12T11:39:56.000Z</time>
      </trkpt>
      <trkpt lat="43.6103" lon="0.49956">
        <ele>194</ele>
        <time>2020-01-12T11:39:58.000Z</time>
      </trkpt>
      <trkpt lat="43.6103" lon="0.49953">
        <ele>194</ele>
        <time>2020-01-12T11:40:00.000Z</time>
      </trkpt>
      <trkpt lat="43.6103" lon="0.49951">
        <ele>194</ele>
        <time>2020-01-12T11:40:02.000Z</time>
      </trkpt>
      <trkpt lat="43.6103" lon="0.49948">
        <ele>194</ele>
        <time>2020-01-12T11:40:04.000Z</time>
      </trkpt>
      <trkpt lat="43.6103" lon="0.49946">
        <ele>194</ele>
        <time>2020-01-12T11:40:06.000Z</time>
      </trkpt>
      <trkpt lat="43.6103" lon="0.49943">
        <ele>194</ele>
        <time>2020-01-12T11:40:08.000Z</time>
      </trkpt>
      <trkpt lat="43.61029" lon="0.4994">
        <ele>195</ele>
        <time>2020-01-12T11:40:10.000Z</time>
      </trkpt>
      <trkpt lat="43.61028" lon="0.49937">
        <ele>195</ele>
        <time>2020-01-12T11:40:12.000Z</time>
      </trkpt>
      <trkpt lat="43.61028" lon="0.49935">
        <ele>195</ele>
        <time>2020-01-12T11:40:14.000Z</time>
      </trkpt>
      <trkpt lat="43.61028" lon="0.49934">
        <ele>195</ele>
        <time>2020-01-12T11:40:16.000Z</time>
      </trkpt>
      <trkpt lat="43.61027" lon="0.49932">
        <ele>195</ele>
        <time>2020-01-12T11:40:18.000Z</time>
      </trkpt>
      <trkpt lat="43.61026" lon="0.49931">
        <ele>195</ele>
        <time>2020-01-12T11:40:20.000Z</time>
      </trkpt>
      <trkpt lat="43.61026" lon="0.49929">
        <ele>195</ele>
        <time>2020-01-12T11:40:22.000Z</time>
      </trkpt>
      <trkpt lat="43.61026" lon="0.49926">
        <ele>195</ele>
        <time>2020-01-12T11:40:24.000Z</time>
      </trkpt>
      <trkpt lat="43.61027" lon="0.49926">
        <ele>195</ele>
        <time>2020-01-12T11:40:26.000Z</time>
      </trkpt>
      <trkpt lat="43.61027" lon="0.49926">
        <ele>195</ele>
        <time>2020-01-12T11:40:28.000Z</time>
      </trkpt>
      <trkpt lat="43.61027" lon="0.49926">
        <ele>195</ele>
        <time>2020-01-12T11:40:30.000Z</time>
      </trkpt>
      <trkpt lat="43.61027" lon="0.49926">
        <ele>195</ele>
        <time>2020-01-12T11:40:32.000Z</time>
      </trkpt>
      <trkpt lat="43.61028" lon="0.49926">
        <ele>195</ele>
        <time>2020-01-12T11:40:34.000Z</time>
      </trkpt>
      <trkpt lat="43.61028" lon="0.49926">
        <ele>195</ele>
        <time>2020-01-12T11:40:36.000Z</time>
      </trkpt>
      <trkpt lat="43.61028" lon="0.49926">
        <ele>195</ele>
        <time>2020-01-12T11:40:38.000Z</time>
      </trkpt>
      <trkpt lat="43.61028" lon="0.49926">
        <ele>195</ele>
        <time>2020-01-12T11:40:40.000Z</time>
      </trkpt>
      <trkpt lat="43.61028" lon="0.49926">
        <ele>195</ele>
        <time>2020-01-12T11:40:42.000Z</time>
      </trkpt>
      <trkpt lat="43.61028" lon="0.49926">
        <ele>195</ele>
        <time>2020-01-12T11:40:44.000Z</time>
      </trkpt>
      <trkpt lat="43.61028" lon="0.49927">
        <ele>195</ele>
        <time>2020-01-12T11:40:46.000Z</time>
      </trkpt>
      <trkpt lat="43.61028" lon="0.49928">
        <ele>195</ele>
        <time>2020-01-12T11:40:48.000Z</time>
      </trkpt>
      <trkpt lat="43.61029" lon="0.4993">
        <ele>195</ele>
        <time>2020-01-12T11:40:50.000Z</time>
      </trkpt>
      <trkpt lat="43.61029" lon="0.49932">
        <ele>194</ele>
        <time>2020-01-12T11:40:52.000Z</time>
      </trkpt>
      <trkpt lat="43.61029" lon="0.49933">
        <ele>194</ele>
        <time>2020-01-12T11:40:54.000Z</time>
      </trkpt>
      <trkpt lat="43.61029" lon="0.49934">
        <ele>194</ele>
        <time>2020-01-12T11:40:56.000Z</time>
      </trkpt>
      <trkpt lat="43.61029" lon="0.49934">
        <ele>194</ele>
        <time>2020-01-12T11:40:58.000Z</time>
      </trkpt>
      <trkpt lat="43.61029" lon="0.49934">
        <ele>194</ele>
        <time>2020-01-12T11:41:00.000Z</time>
      </trkpt>
      <trkpt lat="43.61029" lon="0.49934">
        <ele>194</ele>
        <time>2020-01-12T11:41:02.000Z</time>
      </trkpt>
      <trkpt lat="43.61029" lon="0.49933">
        <ele>194</ele>
        <time>2020-01-12T11:41:04.000Z</time>
      </trkpt>
      <trkpt lat="43.61029" lon="0.49933">
        <ele>194</ele>
        <time>2020-01-12T11:41:06.000Z</time>
      </trkpt>
      <trkpt lat="43.61029" lon="0.49933">
        <ele>194</ele>
        <time>2020-01-12T11:41:08.000Z</time>
      </trkpt>
      <trkpt lat="43.61029" lon="0.49934">
        <ele>194</ele>
        <time>2020-01-12T11:41:10.000Z</time>
      </trkpt>
      <trkpt lat="43.61029" lon="0.49934">
        <ele>195</ele>
        <time>2020-01-12T11:41:12.000Z</time>
      </trkpt>
      <trkpt lat="43.61029" lon="0.49934">
        <ele>195</ele>
        <time>2020-01-12T11:41:14.000Z</time>
      </trkpt>
      <trkpt lat="43.61028" lon="0.49934">
        <ele>195</ele>
        <time>2020-01-12T11:41:16.000Z</time>
      </trkpt>
      <trkpt lat="43.61028" lon="0.49933">
        <ele>195</ele>
        <time>2020-01-12T11:41:18.000Z</time>
      </trkpt>
      <trkpt lat="43.61029" lon="0.49933">
        <ele>195</ele>
        <time>2020-01-12T11:41:20.000Z</time>
      </trkpt>
      <trkpt lat="43.61028" lon="0.49934">
        <ele>195</ele>
        <time>2020-01-12T11:41:22.000Z</time>
      </trkpt>
      <trkpt lat="43.61028" lon="0.49934">
        <ele>195</ele>
        <time>2020-01-12T11:41:24.000Z</time>
      </trkpt>
      <trkpt lat="43.61029" lon="0.49934">
        <ele>195</ele>
        <time>2020-01-12T11:41:26.000Z</time>
      </trkpt>
      <trkpt lat="43.61029" lon="0.49934">
        <ele>195</ele>
        <time>2020-01-12T11:41:28.000Z</time>
      </trkpt>
      <trkpt lat="43.61029" lon="0.49934">
        <ele>195</ele>
        <time>2020-01-12T11:41:30.000Z</time>
      </trkpt>
      <trkpt lat="43.61029" lon="0.49934">
        <ele>194</ele>
        <time>2020-01-12T11:41:32.000Z</time>
      </trkpt>
      <trkpt lat="43.61029" lon="0.49934">
        <ele>195</ele>
        <time>2020-01-12T11:41:34.000Z</time>
      </trkpt>
      <trkpt lat="43.61029" lon="0.49934">
        <ele>195</ele>
        <time>2020-01-12T11:41:36.000Z</time>
      </trkpt>
      <trkpt lat="43.61028" lon="0.49934">
        <ele>195</ele>
        <time>2020-01-12T11:41:38.000Z</time>
      </trkpt>
      <trkpt lat="43.61028" lon="0.49934">
        <ele>195</ele>
        <time>2020-01-12T11:41:40.000Z</time>
      </trkpt>
      <trkpt lat="43.61028" lon="0.49934">
        <ele>195</ele>
        <time>2020-01-12T11:41:42.000Z</time>
      </trkpt>
      <trkpt lat="43.61028" lon="0.49934">
        <ele>195</ele>
        <time>2020-01-12T11:41:44.000Z</time>
      </trkpt>
      <trkpt lat="43.61028" lon="0.49934">
        <ele>195</ele>
        <time>2020-01-12T11:41:46.000Z</time>
      </trkpt>
      <trkpt lat="43.61028" lon="0.49934">
        <ele>195</ele>
        <time>2020-01-12T11:41:48.000Z</time>
      </trkpt>
      <trkpt lat="43.61028" lon="0.49934">
        <ele>195</ele>
        <time>2020-01-12T11:41:50.000Z</time>
      </trkpt>
      <trkpt lat="43.61028" lon="0.49934">
        <ele>195</ele>
        <time>2020-01-12T11:41:52.000Z</time>
      </trkpt>
      <trkpt lat="43.61027" lon="0.49934">
        <ele>195</ele>
        <time>2020-01-12T11:41:54.000Z</time>
      </trkpt>
      <trkpt lat="43.61027" lon="0.49933">
        <ele>195</ele>
        <time>2020-01-12T11:41:56.000Z</time>
      </trkpt>
      <trkpt lat="43.61027" lon="0.49933">
        <ele>195</ele>
        <time>2020-01-12T11:41:58.000Z</time>
      </trkpt>
      <trkpt lat="43.61027" lon="0.49933">
        <ele>195</ele>
        <time>2020-01-12T11:42:00.000Z</time>
      </trkpt>
      <trkpt lat="43.61027" lon="0.49933">
        <ele>195</ele>
        <time>2020-01-12T11:42:02.000Z</time>
      </trkpt>
      <trkpt lat="43.61028" lon="0.49934">
        <ele>195</ele>
        <time>2020-01-12T11:42:04.000Z</time>
      </trkpt>
      <trkpt lat="43.61028" lon="0.49934">
        <ele>195</ele>
        <time>2020-01-12T11:42:06.000Z</time>
      </trkpt>
      <trkpt lat="43.61028" lon="0.49934">
        <ele>195</ele>
        <time>2020-01-12T11:42:08.000Z</time>
      </trkpt>
      <trkpt lat="43.61027" lon="0.49933">
        <ele>195</ele>
        <time>2020-01-12T11:42:10.000Z</time>
      </trkpt>
      <trkpt lat="43.61027" lon="0.49933">
        <ele>195</ele>
        <time>2020-01-12T11:42:12.000Z</time>
      </trkpt>
      <trkpt lat="43.61027" lon="0.49933">
        <ele>195</ele>
        <time>2020-01-12T11:42:14.000Z</time>
      </trkpt>
      <trkpt lat="43.61028" lon="0.49935">
        <ele>195</ele>
        <time>2020-01-12T11:42:16.000Z</time>
      </trkpt>
      <trkpt lat="43.61027" lon="0.49935">
        <ele>195</ele>
        <time>2020-01-12T11:42:18.000Z</time>
      </trkpt>
      <trkpt lat="43.61027" lon="0.49935">
        <ele>195</ele>
        <time>2020-01-12T11:42:20.000Z</time>
      </trkpt>
      <trkpt lat="43.61027" lon="0.49936">
        <ele>195</ele>
        <time>2020-01-12T11:42:22.000Z</time>
      </trkpt>
      <trkpt lat="43.61027" lon="0.49935">
        <ele>195</ele>
        <time>2020-01-12T11:42:24.000Z</time>
      </trkpt>
      <trkpt lat="43.61026" lon="0.49935">
        <ele>195</ele>
        <time>2020-01-12T11:42:26.000Z</time>
      </trkpt>
      <trkpt lat="43.61026" lon="0.49935">
        <ele>195</ele>
        <time>2020-01-12T11:42:28.000Z</time>
      </trkpt>
      <trkpt lat="43.61027" lon="0.49936">
        <ele>195</ele>
        <time>2020-01-12T11:42:30.000Z</time>
      </trkpt>
      <trkpt lat="43.61027" lon="0.49935">
        <ele>195</ele>
        <time>2020-01-12T11:42:32.000Z</time>
      </trkpt>
      <trkpt lat="43.61027" lon="0.49935">
        <ele>195</ele>
        <time>2020-01-12T11:42:34.000Z</time>
      </trkpt>
      <trkpt lat="43.61027" lon="0.49936">
        <ele>195</ele>
        <time>2020-01-12T11:42:36.000Z</time>
      </trkpt>
      <trkpt lat="43.61027" lon="0.49936">
        <ele>195</ele>
        <time>2020-01-12T11:42:38.000Z</time>
      </trkpt>
      <trkpt lat="43.61027" lon="0.49936">
        <ele>195</ele>
        <time>2020-01-12T11:42:40.000Z</time>
      </trkpt>
      <trkpt lat="43.61027" lon="0.49936">
        <ele>195</ele>
        <time>2020-01-12T11:42:42.000Z</time>
      </trkpt>
      <trkpt lat="43.61026" lon="0.49935">
        <ele>195</ele>
        <time>2020-01-12T11:42:44.000Z</time>
      </trkpt>
      <trkpt lat="43.61026" lon="0.49935">
        <ele>195</ele>
        <time>2020-01-12T11:42:46.000Z</time>
      </trkpt>
      <trkpt lat="43.61027" lon="0.49935">
        <ele>195</ele>
        <time>2020-01-12T11:42:48.000Z</time>
      </trkpt>
      <trkpt lat="43.61027" lon="0.49935">
        <ele>195</ele>
        <time>2020-01-12T11:42:50.000Z</time>
      </trkpt>
      <trkpt lat="43.61026" lon="0.49936">
        <ele>195</ele>
        <time>2020-01-12T11:42:52.000Z</time>
      </trkpt>
      <trkpt lat="43.61026" lon="0.49936">
        <ele>195</ele>
        <time>2020-01-12T11:42:54.000Z</time>
      </trkpt>
      <trkpt lat="43.61026" lon="0.49936">
        <ele>195</ele>
        <time>2020-01-12T11:42:56.000Z</time>
      </trkpt>
      <trkpt lat="43.61027" lon="0.49936">
        <ele>195</ele>
        <time>2020-01-12T11:42:58.000Z</time>
      </trkpt>
      <trkpt lat="43.61027" lon="0.49936">
        <ele>195</ele>
        <time>2020-01-12T11:43:00.000Z</time>
      </trkpt>
      <trkpt lat="43.61027" lon="0.49935">
        <ele>195</ele>
        <time>2020-01-12T11:43:02.000Z</time>
      </trkpt>
      <trkpt lat="43.61027" lon="0.49936">
        <ele>195</ele>
        <time>2020-01-12T11:43:04.000Z</time>
      </trkpt>
      <trkpt lat="43.61027" lon="0.49936">
        <ele>195</ele>
        <time>2020-01-12T11:43:06.000Z</time>
      </trkpt>
      <trkpt lat="43.61027" lon="0.49936">
        <ele>195</ele>
        <time>2020-01-12T11:43:08.000Z</time>
      </trkpt>
      <trkpt lat="43.61027" lon="0.49936">
        <ele>195</ele>
        <time>2020-01-12T11:43:10.000Z</time>
      </trkpt>
      <trkpt lat="43.61027" lon="0.49936">
        <ele>195</ele>
        <time>2020-01-12T11:43:12.000Z</time>
      </trkpt>
      <trkpt lat="43.61027" lon="0.49936">
        <ele>195</ele>
        <time>2020-01-12T11:43:14.000Z</time>
      </trkpt>
      <trkpt lat="43.61027" lon="0.49936">
        <ele>195</ele>
        <time>2020-01-12T11:43:16.000Z</time>
      </trkpt>
      <trkpt lat="43.61027" lon="0.49936">
        <ele>195</ele>
        <time>2020-01-12T11:43:18.000Z</time>
      </trkpt>
      <trkpt lat="43.61027" lon="0.49935">
        <ele>195</ele>
        <time>2020-01-12T11:43:20.000Z</time>
      </trkpt>
      <trkpt lat="43.61027" lon="0.49935">
        <ele>195</ele>
        <time>2020-01-12T11:43:22.000Z</time>
      </trkpt>
      <trkpt lat="43.61027" lon="0.49935">
        <ele>195</ele>
        <time>2020-01-12T11:43:24.000Z</time>
      </trkpt>
      <trkpt lat="43.61027" lon="0.49934">
        <ele>195</ele>
        <time>2020-01-12T11:43:26.000Z</time>
      </trkpt>
      <trkpt lat="43.61027" lon="0.49934">
        <ele>195</ele>
        <time>2020-01-12T11:43:28.000Z</time>
      </trkpt>
      <trkpt lat="43.61027" lon="0.49933">
        <ele>195</ele>
        <time>2020-01-12T11:43:30.000Z</time>
      </trkpt>
      <trkpt lat="43.61027" lon="0.49933">
        <ele>195</ele>
        <time>2020-01-12T11:43:32.000Z</time>
      </trkpt>
      <trkpt lat="43.61028" lon="0.49933">
        <ele>195</ele>
        <time>2020-01-12T11:43:34.000Z</time>
      </trkpt>
      <trkpt lat="43.61028" lon="0.49933">
        <ele>195</ele>
        <time>2020-01-12T11:43:36.000Z</time>
      </trkpt>
      <trkpt lat="43.61028" lon="0.49933">
        <ele>195</ele>
        <time>2020-01-12T11:43:38.000Z</time>
      </trkpt>
      <trkpt lat="43.61027" lon="0.49933">
        <ele>195</ele>
        <time>2020-01-12T11:43:40.000Z</time>
      </trkpt>
      <trkpt lat="43.61028" lon="0.49932">
        <ele>195</ele>
        <time>2020-01-12T11:43:42.000Z</time>
      </trkpt>
      <trkpt lat="43.61028" lon="0.49931">
        <ele>195</ele>
        <time>2020-01-12T11:43:44.000Z</time>
      </trkpt>
      <trkpt lat="43.61028" lon="0.49931">
        <ele>195</ele>
        <time>2020-01-12T11:43:46.000Z</time>
      </trkpt>
      <trkpt lat="43.61028" lon="0.49931">
        <ele>195</ele>
        <time>2020-01-12T11:43:48.000Z</time>
      </trkpt>
      <trkpt lat="43.61029" lon="0.49932">
        <ele>195</ele>
        <time>2020-01-12T11:43:50.000Z</time>
      </trkpt>
      <trkpt lat="43.61029" lon="0.49932">
        <ele>194</ele>
        <time>2020-01-12T11:43:52.000Z</time>
      </trkpt>
      <trkpt lat="43.61029" lon="0.49932">
        <ele>194</ele>
        <time>2020-01-12T11:43:54.000Z</time>
      </trkpt>
      <trkpt lat="43.61029" lon="0.49933">
        <ele>194</ele>
        <time>2020-01-12T11:43:56.000Z</time>
      </trkpt>
      <trkpt lat="43.61029" lon="0.49933">
        <ele>194</ele>
        <time>2020-01-12T11:43:58.000Z</time>
      </trkpt>
      <trkpt lat="43.61029" lon="0.49932">
        <ele>195</ele>
        <time>2020-01-12T11:44:00.000Z</time>
      </trkpt>
      <trkpt lat="43.61029" lon="0.49933">
        <ele>195</ele>
        <time>2020-01-12T11:44:02.000Z</time>
      </trkpt>
      <trkpt lat="43.61029" lon="0.49933">
        <ele>195</ele>
        <time>2020-01-12T11:44:04.000Z</time>
      </trkpt>
      <trkpt lat="43.61029" lon="0.49933">
        <ele>195</ele>
        <time>2020-01-12T11:44:06.000Z</time>
      </trkpt>
      <trkpt lat="43.61028" lon="0.49934">
        <ele>195</ele>
        <time>2020-01-12T11:44:08.000Z</time>
      </trkpt>
      <trkpt lat="43.61028" lon="0.49934">
        <ele>195</ele>
        <time>2020-01-12T11:44:10.000Z</time>
      </trkpt>
      <trkpt lat="43.61028" lon="0.49934">
        <ele>195</ele>
        <time>2020-01-12T11:44:12.000Z</time>
      </trkpt>
      <trkpt lat="43.61028" lon="0.49934">
        <ele>195</ele>
        <time>2020-01-12T11:44:14.000Z</time>
      </trkpt>
      <trkpt lat="43.61028" lon="0.49934">
        <ele>195</ele>
        <time>2020-01-12T11:44:16.000Z</time>
      </trkpt>
      <trkpt lat="43.61028" lon="0.49934">
        <ele>195</ele>
        <time>2020-01-12T11:44:18.000Z</time>
      </trkpt>
      <trkpt lat="43.61028" lon="0.49934">
        <ele>195</ele>
        <time>2020-01-12T11:44:20.000Z</time>
      </trkpt>
      <trkpt lat="43.61028" lon="0.49934">
        <ele>195</ele>
        <time>2020-01-12T11:44:22.000Z</time>
      </trkpt>
      <trkpt lat="43.61028" lon="0.49934">
        <ele>195</ele>
        <time>2020-01-12T11:44:24.000Z</time>
      </trkpt>
      <trkpt lat="43.61027" lon="0.49934">
        <ele>195</ele>
        <time>2020-01-12T11:44:26.000Z</time>
      </trkpt>
      <trkpt lat="43.61027" lon="0.49934">
        <ele>195</ele>
        <time>2020-01-12T11:44:28.000Z</time>
      </trkpt>
      <trkpt lat="43.61027" lon="0.49934">
        <ele>195</ele>
        <time>2020-01-12T11:44:30.000Z</time>
      </trkpt>
      <trkpt lat="43.61026" lon="0.49934">
        <ele>195</ele>
        <time>2020-01-12T11:44:32.000Z</time>
      </trkpt>
      <trkpt lat="43.61026" lon="0.49934">
        <ele>195</ele>
        <time>2020-01-12T11:44:34.000Z</time>
      </trkpt>
      <trkpt lat="43.61026" lon="0.49933">
        <ele>195</ele>
        <time>2020-01-12T11:44:36.000Z</time>
      </trkpt>
      <trkpt lat="43.61026" lon="0.49933">
        <ele>195</ele>
        <time>2020-01-12T11:44:38.000Z</time>
      </trkpt>
      <trkpt lat="43.61025" lon="0.49933">
        <ele>195</ele>
        <time>2020-01-12T11:44:40.000Z</time>
      </trkpt>
      <trkpt lat="43.61026" lon="0.49934">
        <ele>195</ele>
        <time>2020-01-12T11:44:42.000Z</time>
      </trkpt>
      <trkpt lat="43.61026" lon="0.49934">
        <ele>195</ele>
        <time>2020-01-12T11:44:44.000Z</time>
      </trkpt>
      <trkpt lat="43.61027" lon="0.49934">
        <ele>195</ele>
        <time>2020-01-12T11:44:46.000Z</time>
      </trkpt>
      <trkpt lat="43.61026" lon="0.49934">
        <ele>195</ele>
        <time>2020-01-12T11:44:48.000Z</time>
      </trkpt>
      <trkpt lat="43.61027" lon="0.49934">
        <ele>195</ele>
        <time>2020-01-12T11:44:50.000Z</time>
      </trkpt>
      <trkpt lat="43.61026" lon="0.49934">
        <ele>195</ele>
        <time>2020-01-12T11:44:52.000Z</time>
      </trkpt>
      <trkpt lat="43.61026" lon="0.49934">
        <ele>195</ele>
        <time>2020-01-12T11:44:54.000Z</time>
      </trkpt>
      <trkpt lat="43.61027" lon="0.49934">
        <ele>195</ele>
        <time>2020-01-12T11:44:56.000Z</time>
      </trkpt>
      <trkpt lat="43.61027" lon="0.49933">
        <ele>195</ele>
        <time>2020-01-12T11:44:58.000Z</time>
      </trkpt>
      <trkpt lat="43.61026" lon="0.49932">
        <ele>195</ele>
        <time>2020-01-12T11:45:00.000Z</time>
      </trkpt>
      <trkpt lat="43.61027" lon="0.4993">
        <ele>195</ele>
        <time>2020-01-12T11:45:02.000Z</time>
      </trkpt>
      <trkpt lat="43.61027" lon="0.49929">
        <ele>195</ele>
        <time>2020-01-12T11:45:04.000Z</time>
      </trkpt>
      <trkpt lat="43.61027" lon="0.49929">
        <ele>195</ele>
        <time>2020-01-12T11:45:06.000Z</time>
      </trkpt>
      <trkpt lat="43.61027" lon="0.49929">
        <ele>195</ele>
        <time>2020-01-12T11:45:08.000Z</time>
      </trkpt>
      <trkpt lat="43.61028" lon="0.49929">
        <ele>195</ele>
        <time>2020-01-12T11:45:10.000Z</time>
      </trkpt>
      <trkpt lat="43.61027" lon="0.4993">
        <ele>195</ele>
        <time>2020-01-12T11:45:12.000Z</time>
      </trkpt>
      <trkpt lat="43.61028" lon="0.49929">
        <ele>195</ele>
        <time>2020-01-12T11:45:14.000Z</time>
      </trkpt>
      <trkpt lat="43.61029" lon="0.49928">
        <ele>195</ele>
        <time>2020-01-12T11:45:16.000Z</time>
      </trkpt>
      <trkpt lat="43.61029" lon="0.49926">
        <ele>194</ele>
        <time>2020-01-12T11:45:18.000Z</time>
      </trkpt>
      <trkpt lat="43.6103" lon="0.49924">
        <ele>194</ele>
        <time>2020-01-12T11:45:20.000Z</time>
      </trkpt>
      <trkpt lat="43.6103" lon="0.49923">
        <ele>194</ele>
        <time>2020-01-12T11:45:22.000Z</time>
      </trkpt>
      <trkpt lat="43.6103" lon="0.49923">
        <ele>194</ele>
        <time>2020-01-12T11:45:24.000Z</time>
      </trkpt>
      <trkpt lat="43.6103" lon="0.49924">
        <ele>194</ele>
        <time>2020-01-12T11:45:26.000Z</time>
      </trkpt>
      <trkpt lat="43.6103" lon="0.49923">
        <ele>194</ele>
        <time>2020-01-12T11:45:28.000Z</time>
      </trkpt>
      <trkpt lat="43.6103" lon="0.49923">
        <ele>194</ele>
        <time>2020-01-12T11:45:30.000Z</time>
      </trkpt>
      <trkpt lat="43.61031" lon="0.49923">
        <ele>194</ele>
        <time>2020-01-12T11:45:32.000Z</time>
      </trkpt>
      <trkpt lat="43.6103" lon="0.49923">
        <ele>194</ele>
        <time>2020-01-12T11:45:34.000Z</time>
      </trkpt>
      <trkpt lat="43.6103" lon="0.49923">
        <ele>194</ele>
        <time>2020-01-12T11:45:36.000Z</time>
      </trkpt>
      <trkpt lat="43.6103" lon="0.49923">
        <ele>194</ele>
        <time>2020-01-12T11:45:38.000Z</time>
      </trkpt>
      <trkpt lat="43.61029" lon="0.49924">
        <ele>194</ele>
        <time>2020-01-12T11:45:40.000Z</time>
      </trkpt>
      <trkpt lat="43.61028" lon="0.49926">
        <ele>195</ele>
        <time>2020-01-12T11:45:42.000Z</time>
      </trkpt>
      <trkpt lat="43.61027" lon="0.49927">
        <ele>195</ele>
        <time>2020-01-12T11:45:44.000Z</time>
      </trkpt>
      <trkpt lat="43.61026" lon="0.49929">
        <ele>195</ele>
        <time>2020-01-12T11:45:46.000Z</time>
      </trkpt>
      <trkpt lat="43.61025" lon="0.4993">
        <ele>195</ele>
        <time>2020-01-12T11:45:48.000Z</time>
      </trkpt>
      <trkpt lat="43.61025" lon="0.49929">
        <ele>195</ele>
        <time>2020-01-12T11:45:50.000Z</time>
      </trkpt>
      <trkpt lat="43.61025" lon="0.49928">
        <ele>195</ele>
        <time>2020-01-12T11:45:52.000Z</time>
      </trkpt>
      <trkpt lat="43.61024" lon="0.49929">
        <ele>195</ele>
        <time>2020-01-12T11:45:54.000Z</time>
      </trkpt>
      <trkpt lat="43.61023" lon="0.49928">
        <ele>195</ele>
        <time>2020-01-12T11:45:56.000Z</time>
      </trkpt>
      <trkpt lat="43.61022" lon="0.49928">
        <ele>195</ele>
        <time>2020-01-12T11:45:58.000Z</time>
      </trkpt>
      <trkpt lat="43.61021" lon="0.49929">
        <ele>195</ele>
        <time>2020-01-12T11:46:00.000Z</time>
      </trkpt>
      <trkpt lat="43.61021" lon="0.49931">
        <ele>195</ele>
        <time>2020-01-12T11:46:02.000Z</time>
      </trkpt>
      <trkpt lat="43.61022" lon="0.49931">
        <ele>195</ele>
        <time>2020-01-12T11:46:04.000Z</time>
      </trkpt>
      <trkpt lat="43.61023" lon="0.49932">
        <ele>195</ele>
        <time>2020-01-12T11:46:06.000Z</time>
      </trkpt>
      <trkpt lat="43.61025" lon="0.49932">
        <ele>195</ele>
        <time>2020-01-12T11:46:08.000Z</time>
      </trkpt>
      <trkpt lat="43.61025" lon="0.49933">
        <ele>195</ele>
        <time>2020-01-12T11:46:10.000Z</time>
      </trkpt>
      <trkpt lat="43.61025" lon="0.49934">
        <ele>195</ele>
        <time>2020-01-12T11:46:12.000Z</time>
      </trkpt>
      <trkpt lat="43.61025" lon="0.49934">
        <ele>195</ele>
        <time>2020-01-12T11:46:14.000Z</time>
      </trkpt>
      <trkpt lat="43.61025" lon="0.49934">
        <ele>195</ele>
        <time>2020-01-12T11:46:16.000Z</time>
      </trkpt>
      <trkpt lat="43.61026" lon="0.49934">
        <ele>195</ele>
        <time>2020-01-12T11:46:18.000Z</time>
      </trkpt>
      <trkpt lat="43.61025" lon="0.49933">
        <ele>195</ele>
        <time>2020-01-12T11:46:20.000Z</time>
      </trkpt>
      <trkpt lat="43.61025" lon="0.49932">
        <ele>195</ele>
        <time>2020-01-12T11:46:22.000Z</time>
      </trkpt>
      <trkpt lat="43.61025" lon="0.49932">
        <ele>195</ele>
        <time>2020-01-12T11:46:24.000Z</time>
      </trkpt>
      <trkpt lat="43.61024" lon="0.49932">
        <ele>195</ele>
        <time>2020-01-12T11:46:26.000Z</time>
      </trkpt>
      <trkpt lat="43.61024" lon="0.49932">
        <ele>195</ele>
        <time>2020-01-12T11:46:28.000Z</time>
      </trkpt>
      <trkpt lat="43.61024" lon="0.49932">
        <ele>195</ele>
        <time>2020-01-12T11:46:30.000Z</time>
      </trkpt>
      <trkpt lat="43.61025" lon="0.49932">
        <ele>195</ele>
        <time>2020-01-12T11:46:32.000Z</time>
      </trkpt>
      <trkpt lat="43.61024" lon="0.49932">
        <ele>195</ele>
        <time>2020-01-12T11:46:34.000Z</time>
      </trkpt>
      <trkpt lat="43.61024" lon="0.49933">
        <ele>195</ele>
        <time>2020-01-12T11:46:36.000Z</time>
      </trkpt>
      <trkpt lat="43.61024" lon="0.49932">
        <ele>195</ele>
        <time>2020-01-12T11:46:38.000Z</time>
      </trkpt>
      <trkpt lat="43.61023" lon="0.49932">
        <ele>195</ele>
        <time>2020-01-12T11:46:40.000Z</time>
      </trkpt>
      <trkpt lat="43.61023" lon="0.49931">
        <ele>195</ele>
        <time>2020-01-12T11:46:42.000Z</time>
      </trkpt>
      <trkpt lat="43.61022" lon="0.49931">
        <ele>195</ele>
        <time>2020-01-12T11:46:44.000Z</time>
      </trkpt>
      <trkpt lat="43.61021" lon="0.49932">
        <ele>195</ele>
        <time>2020-01-12T11:46:46.000Z</time>
      </trkpt>
      <trkpt lat="43.61021" lon="0.49932">
        <ele>195</ele>
        <time>2020-01-12T11:46:48.000Z</time>
      </trkpt>
      <trkpt lat="43.61021" lon="0.49932">
        <ele>195</ele>
        <time>2020-01-12T11:46:50.000Z</time>
      </trkpt>
      <trkpt lat="43.6102" lon="0.49932">
        <ele>195</ele>
        <time>2020-01-12T11:46:52.000Z</time>
      </trkpt>
      <trkpt lat="43.61021" lon="0.49933">
        <ele>195</ele>
        <time>2020-01-12T11:46:54.000Z</time>
      </trkpt>
      <trkpt lat="43.61022" lon="0.49934">
        <ele>195</ele>
        <time>2020-01-12T11:46:56.000Z</time>
      </trkpt>
      <trkpt lat="43.61023" lon="0.49935">
        <ele>195</ele>
        <time>2020-01-12T11:46:58.000Z</time>
      </trkpt>
      <trkpt lat="43.61023" lon="0.49936">
        <ele>195</ele>
        <time>2020-01-12T11:47:00.000Z</time>
      </trkpt>
      <trkpt lat="43.61024" lon="0.49937">
        <ele>195</ele>
        <time>2020-01-12T11:47:02.000Z</time>
      </trkpt>
      <trkpt lat="43.61024" lon="0.49935">
        <ele>195</ele>
        <time>2020-01-12T11:47:04.000Z</time>
      </trkpt>
      <trkpt lat="43.61024" lon="0.49935">
        <ele>195</ele>
        <time>2020-01-12T11:47:06.000Z</time>
      </trkpt>
      <trkpt lat="43.61024" lon="0.49936">
        <ele>195</ele>
        <time>2020-01-12T11:47:08.000Z</time>
      </trkpt>
      <trkpt lat="43.61024" lon="0.49937">
        <ele>195</ele>
        <time>2020-01-12T11:47:10.000Z</time>
      </trkpt>
      <trkpt lat="43.61024" lon="0.49937">
        <ele>195</ele>
        <time>2020-01-12T11:47:12.000Z</time>
      </trkpt>
      <trkpt lat="43.61025" lon="0.49937">
        <ele>195</ele>
        <time>2020-01-12T11:47:14.000Z</time>
      </trkpt>
      <trkpt lat="43.61026" lon="0.49937">
        <ele>195</ele>
        <time>2020-01-12T11:47:16.000Z</time>
      </trkpt>
      <trkpt lat="43.61026" lon="0.49938">
        <ele>195</ele>
        <time>2020-01-12T11:47:18.000Z</time>
      </trkpt>
      <trkpt lat="43.61025" lon="0.49938">
        <ele>195</ele>
        <time>2020-01-12T11:47:20.000Z</time>
      </trkpt>
      <trkpt lat="43.61026" lon="0.49937">
        <ele>195</ele>
        <time>2020-01-12T11:47:22.000Z</time>
      </trkpt>
      <trkpt lat="43.61026" lon="0.49936">
        <ele>195</ele>
        <time>2020-01-12T11:47:24.000Z</time>
      </trkpt>
      <trkpt lat="43.61026" lon="0.49935">
        <ele>195</ele>
        <time>2020-01-12T11:47:26.000Z</time>
      </trkpt>
      <trkpt lat="43.61025" lon="0.49933">
        <ele>195</ele>
        <time>2020-01-12T11:47:28.000Z</time>
      </trkpt>
      <trkpt lat="43.61026" lon="0.49932">
        <ele>195</ele>
        <time>2020-01-12T11:47:30.000Z</time>
      </trkpt>
      <trkpt lat="43.61026" lon="0.49931">
        <ele>195</ele>
        <time>2020-01-12T11:47:32.000Z</time>
      </trkpt>
      <trkpt lat="43.61027" lon="0.4993">
        <ele>195</ele>
        <time>2020-01-12T11:47:34.000Z</time>
      </trkpt>
      <trkpt lat="43.61027" lon="0.49929">
        <ele>195</ele>
        <time>2020-01-12T11:47:36.000Z</time>
      </trkpt>
      <trkpt lat="43.61027" lon="0.49928">
        <ele>195</ele>
        <time>2020-01-12T11:47:38.000Z</time>
      </trkpt>
      <trkpt lat="43.61027" lon="0.49928">
        <ele>195</ele>
        <time>2020-01-12T11:47:40.000Z</time>
      </trkpt>
      <trkpt lat="43.61026" lon="0.49928">
        <ele>195</ele>
        <time>2020-01-12T11:47:42.000Z</time>
      </trkpt>
      <trkpt lat="43.61024" lon="0.49927">
        <ele>195</ele>
        <time>2020-01-12T11:47:44.000Z</time>
      </trkpt>
      <trkpt lat="43.61025" lon="0.49929">
        <ele>195</ele>
        <time>2020-01-12T11:47:46.000Z</time>
      </trkpt>
      <trkpt lat="43.61024" lon="0.4993">
        <ele>195</ele>
        <time>2020-01-12T11:47:48.000Z</time>
      </trkpt>
      <trkpt lat="43.61024" lon="0.49931">
        <ele>195</ele>
        <time>2020-01-12T11:47:50.000Z</time>
      </trkpt>
      <trkpt lat="43.61023" lon="0.49931">
        <ele>195</ele>
        <time>2020-01-12T11:47:52.000Z</time>
      </trkpt>
      <trkpt lat="43.61023" lon="0.49932">
        <ele>195</ele>
        <time>2020-01-12T11:47:54.000Z</time>
      </trkpt>
      <trkpt lat="43.61023" lon="0.49932">
        <ele>195</ele>
        <time>2020-01-12T11:47:56.000Z</time>
      </trkpt>
      <trkpt lat="43.61023" lon="0.49933">
        <ele>195</ele>
        <time>2020-01-12T11:47:58.000Z</time>
      </trkpt>
      <trkpt lat="43.61023" lon="0.49934">
        <ele>195</ele>
        <time>2020-01-12T11:48:00.000Z</time>
      </trkpt>
      <trkpt lat="43.61023" lon="0.49935">
        <ele>195</ele>
        <time>2020-01-12T11:48:02.000Z</time>
      </trkpt>
      <trkpt lat="43.61023" lon="0.49935">
        <ele>195</ele>
        <time>2020-01-12T11:48:04.000Z</time>
      </trkpt>
      <trkpt lat="43.61024" lon="0.49935">
        <ele>195</ele>
        <time>2020-01-12T11:48:06.000Z</time>
      </trkpt>
      <trkpt lat="43.61024" lon="0.49935">
        <ele>195</ele>
        <time>2020-01-12T11:48:08.000Z</time>
      </trkpt>
      <trkpt lat="43.61026" lon="0.49935">
        <ele>195</ele>
        <time>2020-01-12T11:48:10.000Z</time>
      </trkpt>
      <trkpt lat="43.61028" lon="0.49935">
        <ele>195</ele>
        <time>2020-01-12T11:48:12.000Z</time>
      </trkpt>
      <trkpt lat="43.61029" lon="0.49935">
        <ele>195</ele>
        <time>2020-01-12T11:48:14.000Z</time>
      </trkpt>
      <trkpt lat="43.6103" lon="0.49936">
        <ele>194</ele>
        <time>2020-01-12T11:48:16.000Z</time>
      </trkpt>
      <trkpt lat="43.6103" lon="0.49936">
        <ele>194</ele>
        <time>2020-01-12T11:48:18.000Z</time>
      </trkpt>
      <trkpt lat="43.61031" lon="0.49936">
        <ele>194</ele>
        <time>2020-01-12T11:48:20.000Z</time>
      </trkpt>
      <trkpt lat="43.61031" lon="0.49936">
        <ele>194</ele>
        <time>2020-01-12T11:48:22.000Z</time>
      </trkpt>
      <trkpt lat="43.61031" lon="0.49937">
        <ele>194</ele>
        <time>2020-01-12T11:48:24.000Z</time>
      </trkpt>
      <trkpt lat="43.61031" lon="0.49936">
        <ele>194</ele>
        <time>2020-01-12T11:48:26.000Z</time>
      </trkpt>
      <trkpt lat="43.6103" lon="0.49937">
        <ele>194</ele>
        <time>2020-01-12T11:48:28.000Z</time>
      </trkpt>
      <trkpt lat="43.61029" lon="0.49936">
        <ele>194</ele>
        <time>2020-01-12T11:48:30.000Z</time>
      </trkpt>
      <trkpt lat="43.61028" lon="0.49936">
        <ele>195</ele>
        <time>2020-01-12T11:48:32.000Z</time>
      </trkpt>
      <trkpt lat="43.61026" lon="0.49936">
        <ele>195</ele>
        <time>2020-01-12T11:48:34.000Z</time>
      </trkpt>
      <trkpt lat="43.61026" lon="0.49936">
        <ele>195</ele>
        <time>2020-01-12T11:48:36.000Z</time>
      </trkpt>
      <trkpt lat="43.61026" lon="0.49934">
        <ele>195</ele>
        <time>2020-01-12T11:48:38.000Z</time>
      </trkpt>
      <trkpt lat="43.61025" lon="0.49933">
        <ele>195</ele>
        <time>2020-01-12T11:48:40.000Z</time>
      </trkpt>
      <trkpt lat="43.61024" lon="0.49933">
        <ele>195</ele>
        <time>2020-01-12T11:48:42.000Z</time>
      </trkpt>
      <trkpt lat="43.61024" lon="0.49932">
        <ele>195</ele>
        <time>2020-01-12T11:48:44.000Z</time>
      </trkpt>
      <trkpt lat="43.61024" lon="0.49931">
        <ele>195</ele>
        <time>2020-01-12T11:48:46.000Z</time>
      </trkpt>
      <trkpt lat="43.61023" lon="0.49932">
        <ele>195</ele>
        <time>2020-01-12T11:48:48.000Z</time>
      </trkpt>
      <trkpt lat="43.61023" lon="0.49932">
        <ele>195</ele>
        <time>2020-01-12T11:48:50.000Z</time>
      </trkpt>
      <trkpt lat="43.61023" lon="0.49931">
        <ele>195</ele>
        <time>2020-01-12T11:48:52.000Z</time>
      </trkpt>
      <trkpt lat="43.61024" lon="0.49931">
        <ele>195</ele>
        <time>2020-01-12T11:48:54.000Z</time>
      </trkpt>
      <trkpt lat="43.61025" lon="0.49931">
        <ele>195</ele>
        <time>2020-01-12T11:48:56.000Z</time>
      </trkpt>
      <trkpt lat="43.61025" lon="0.4993">
        <ele>195</ele>
        <time>2020-01-12T11:48:58.000Z</time>
      </trkpt>
      <trkpt lat="43.61026" lon="0.4993">
        <ele>195</ele>
        <time>2020-01-12T11:49:00.000Z</time>
      </trkpt>
      <trkpt lat="43.61027" lon="0.4993">
        <ele>195</ele>
        <time>2020-01-12T11:49:02.000Z</time>
      </trkpt>
      <trkpt lat="43.61027" lon="0.49929">
        <ele>195</ele>
        <time>2020-01-12T11:49:04.000Z</time>
      </trkpt>
      <trkpt lat="43.61028" lon="0.49928">
        <ele>195</ele>
        <time>2020-01-12T11:49:06.000Z</time>
      </trkpt>
      <trkpt lat="43.61029" lon="0.49928">
        <ele>194</ele>
        <time>2020-01-12T11:49:08.000Z</time>
      </trkpt>
      <trkpt lat="43.6103" lon="0.49928">
        <ele>194</ele>
        <time>2020-01-12T11:49:10.000Z</time>
      </trkpt>
      <trkpt lat="43.6103" lon="0.49928">
        <ele>194</ele>
        <time>2020-01-12T11:49:12.000Z</time>
      </trkpt>
      <trkpt lat="43.61028" lon="0.49929">
        <ele>195</ele>
        <time>2020-01-12T11:49:14.000Z</time>
      </trkpt>
      <trkpt lat="43.61028" lon="0.49929">
        <ele>195</ele>
        <time>2020-01-12T11:49:16.000Z</time>
      </trkpt>
      <trkpt lat="43.61028" lon="0.49929">
        <ele>195</ele>
        <time>2020-01-12T11:49:18.000Z</time>
      </trkpt>
      <trkpt lat="43.61028" lon="0.4993">
        <ele>195</ele>
        <time>2020-01-12T11:49:20.000Z</time>
      </trkpt>
      <trkpt lat="43.61029" lon="0.49932">
        <ele>194</ele>
        <time>2020-01-12T11:49:22.000Z</time>
      </trkpt>
      <trkpt lat="43.6103" lon="0.49932">
        <ele>194</ele>
        <time>2020-01-12T11:49:24.000Z</time>
      </trkpt>
      <trkpt lat="43.61032" lon="0.49933">
        <ele>194</ele>
        <time>2020-01-12T11:49:26.000Z</time>
      </trkpt>
      <trkpt lat="43.61032" lon="0.49934">
        <ele>194</ele>
        <time>2020-01-12T11:49:28.000Z</time>
      </trkpt>
      <trkpt lat="43.61033" lon="0.49933">
        <ele>194</ele>
        <time>2020-01-12T11:49:30.000Z</time>
      </trkpt>
      <trkpt lat="43.61032" lon="0.49932">
        <ele>194</ele>
        <time>2020-01-12T11:49:32.000Z</time>
      </trkpt>
      <trkpt lat="43.61032" lon="0.49932">
        <ele>194</ele>
        <time>2020-01-12T11:49:34.000Z</time>
      </trkpt>
      <trkpt lat="43.61031" lon="0.49932">
        <ele>194</ele>
        <time>2020-01-12T11:49:36.000Z</time>
      </trkpt>
      <trkpt lat="43.61029" lon="0.49931">
        <ele>195</ele>
        <time>2020-01-12T11:49:38.000Z</time>
      </trkpt>
      <trkpt lat="43.61028" lon="0.49931">
        <ele>195</ele>
        <time>2020-01-12T11:49:40.000Z</time>
      </trkpt>
      <trkpt lat="43.61028" lon="0.49931">
        <ele>195</ele>
        <time>2020-01-12T11:49:42.000Z</time>
      </trkpt>
      <trkpt lat="43.61029" lon="0.49931">
        <ele>194</ele>
        <time>2020-01-12T11:49:44.000Z</time>
      </trkpt>
      <trkpt lat="43.6103" lon="0.4993">
        <ele>194</ele>
        <time>2020-01-12T11:49:46.000Z</time>
      </trkpt>
      <trkpt lat="43.6103" lon="0.4993">
        <ele>194</ele>
        <time>2020-01-12T11:49:48.000Z</time>
      </trkpt>
      <trkpt lat="43.6103" lon="0.49929">
        <ele>194</ele>
        <time>2020-01-12T11:49:50.000Z</time>
      </trkpt>
      <trkpt lat="43.6103" lon="0.49929">
        <ele>194</ele>
        <time>2020-01-12T11:49:52.000Z</time>
      </trkpt>
      <trkpt lat="43.6103" lon="0.49928">
        <ele>194</ele>
        <time>2020-01-12T11:49:54.000Z</time>
      </trkpt>
      <trkpt lat="43.6103" lon="0.49928">
        <ele>194</ele>
        <time>2020-01-12T11:49:56.000Z</time>
      </trkpt>
      <trkpt lat="43.61029" lon="0.49928">
        <ele>194</ele>
        <time>2020-01-12T11:49:58.000Z</time>
      </trkpt>
      <trkpt lat="43.61028" lon="0.49928">
        <ele>195</ele>
        <time>2020-01-12T11:50:00.000Z</time>
      </trkpt>
      <trkpt lat="43.61028" lon="0.49928">
        <ele>195</ele>
        <time>2020-01-12T11:50:02.000Z</time>
      </trkpt>
      <trkpt lat="43.61028" lon="0.49928">
        <ele>195</ele>
        <time>2020-01-12T11:50:04.000Z</time>
      </trkpt>
      <trkpt lat="43.61028" lon="0.49929">
        <ele>195</ele>
        <time>2020-01-12T11:50:06.000Z</time>
      </trkpt>
      <trkpt lat="43.61027" lon="0.4993">
        <ele>195</ele>
        <time>2020-01-12T11:50:08.000Z</time>
      </trkpt>
      <trkpt lat="43.61027" lon="0.49931">
        <ele>195</ele>
        <time>2020-01-12T11:50:10.000Z</time>
      </trkpt>
      <trkpt lat="43.61027" lon="0.49932">
        <ele>195</ele>
        <time>2020-01-12T11:50:12.000Z</time>
      </trkpt>
      <trkpt lat="43.61027" lon="0.49932">
        <ele>195</ele>
        <time>2020-01-12T11:50:14.000Z</time>
      </trkpt>
      <trkpt lat="43.61027" lon="0.49933">
        <ele>195</ele>
        <time>2020-01-12T11:50:16.000Z</time>
      </trkpt>
      <trkpt lat="43.61027" lon="0.49934">
        <ele>195</ele>
        <time>2020-01-12T11:50:18.000Z</time>
      </trkpt>
      <trkpt lat="43.61026" lon="0.49935">
        <ele>195</ele>
        <time>2020-01-12T11:50:20.000Z</time>
      </trkpt>
      <trkpt lat="43.61026" lon="0.49937">
        <ele>195</ele>
        <time>2020-01-12T11:50:22.000Z</time>
      </trkpt>
      <trkpt lat="43.61027" lon="0.49938">
        <ele>195</ele>
        <time>2020-01-12T11:50:24.000Z</time>
      </trkpt>
      <trkpt lat="43.61026" lon="0.49938">
        <ele>195</ele>
        <time>2020-01-12T11:50:26.000Z</time>
      </trkpt>
      <trkpt lat="43.61027" lon="0.49939">
        <ele>195</ele>
        <time>2020-01-12T11:50:28.000Z</time>
      </trkpt>
      <trkpt lat="43.61026" lon="0.49939">
        <ele>195</ele>
        <time>2020-01-12T11:50:30.000Z</time>
      </trkpt>
      <trkpt lat="43.61025" lon="0.49939">
        <ele>195</ele>
        <time>2020-01-12T11:50:32.000Z</time>
      </trkpt>
      <trkpt lat="43.61025" lon="0.49938">
        <ele>195</ele>
        <time>2020-01-12T11:50:34.000Z</time>
      </trkpt>
      <trkpt lat="43.61023" lon="0.49937">
        <ele>195</ele>
        <time>2020-01-12T11:50:36.000Z</time>
      </trkpt>
      <trkpt lat="43.61023" lon="0.49935">
        <ele>195</ele>
        <time>2020-01-12T11:50:38.000Z</time>
      </trkpt>
      <trkpt lat="43.61023" lon="0.49935">
        <ele>195</ele>
        <time>2020-01-12T11:50:40.000Z</time>
      </trkpt>
      <trkpt lat="43.61023" lon="0.49934">
        <ele>195</ele>
        <time>2020-01-12T11:50:42.000Z</time>
      </trkpt>
      <trkpt lat="43.61023" lon="0.49934">
        <ele>195</ele>
        <time>2020-01-12T11:50:44.000Z</time>
      </trkpt>
      <trkpt lat="43.61024" lon="0.49934">
        <ele>195</ele>
        <time>2020-01-12T11:50:46.000Z</time>
      </trkpt>
      <trkpt lat="43.61025" lon="0.49933">
        <ele>195</ele>
        <time>2020-01-12T11:50:48.000Z</time>
      </trkpt>
      <trkpt lat="43.61026" lon="0.49933">
        <ele>195</ele>
        <time>2020-01-12T11:50:50.000Z</time>
      </trkpt>
      <trkpt lat="43.61028" lon="0.49933">
        <ele>195</ele>
        <time>2020-01-12T11:50:52.000Z</time>
      </trkpt>
      <trkpt lat="43.61029" lon="0.49933">
        <ele>195</ele>
        <time>2020-01-12T11:50:54.000Z</time>
      </trkpt>
      <trkpt lat="43.61029" lon="0.49934">
        <ele>194</ele>
        <time>2020-01-12T11:50:56.000Z</time>
      </trkpt>
      <trkpt lat="43.61031" lon="0.49934">
        <ele>194</ele>
        <time>2020-01-12T11:50:58.000Z</time>
      </trkpt>
      <trkpt lat="43.61031" lon="0.49935">
        <ele>194</ele>
        <time>2020-01-12T11:51:00.000Z</time>
      </trkpt>
      <trkpt lat="43.61032" lon="0.49935">
        <ele>194</ele>
        <time>2020-01-12T11:51:02.000Z</time>
      </trkpt>
      <trkpt lat="43.61033" lon="0.49936">
        <ele>194</ele>
        <time>2020-01-12T11:51:04.000Z</time>
      </trkpt>
      <trkpt lat="43.61034" lon="0.49936">
        <ele>194</ele>
        <time>2020-01-12T11:51:06.000Z</time>
      </trkpt>
      <trkpt lat="43.61034" lon="0.49937">
        <ele>194</ele>
        <time>2020-01-12T11:51:08.000Z</time>
      </trkpt>
      <trkpt lat="43.61033" lon="0.49937">
        <ele>194</ele>
        <time>2020-01-12T11:51:10.000Z</time>
      </trkpt>
      <trkpt lat="43.61033" lon="0.49937">
        <ele>194</ele>
        <time>2020-01-12T11:51:12.000Z</time>
      </trkpt>
      <trkpt lat="43.61033" lon="0.49937">
        <ele>194</ele>
        <time>2020-01-12T11:51:14.000Z</time>
      </trkpt>
      <trkpt lat="43.61032" lon="0.49936">
        <ele>194</ele>
        <time>2020-01-12T11:51:16.000Z</time>
      </trkpt>
      <trkpt lat="43.61034" lon="0.49936">
        <ele>194</ele>
        <time>2020-01-12T11:51:18.000Z</time>
      </trkpt>
      <trkpt lat="43.61034" lon="0.49937">
        <ele>194</ele>
        <time>2020-01-12T11:51:20.000Z</time>
      </trkpt>
      <trkpt lat="43.61034" lon="0.49937">
        <ele>194</ele>
        <time>2020-01-12T11:51:22.000Z</time>
      </trkpt>
      <trkpt lat="43.61034" lon="0.49937">
        <ele>194</ele>
        <time>2020-01-12T11:51:24.000Z</time>
      </trkpt>
      <trkpt lat="43.61034" lon="0.49937">
        <ele>194</ele>
        <time>2020-01-12T11:51:26.000Z</time>
      </trkpt>
      <trkpt lat="43.61033" lon="0.49937">
        <ele>194</ele>
        <time>2020-01-12T11:51:28.000Z</time>
      </trkpt>
      <trkpt lat="43.61032" lon="0.49936">
        <ele>194</ele>
        <time>2020-01-12T11:51:30.000Z</time>
      </trkpt>
      <trkpt lat="43.61032" lon="0.49935">
        <ele>194</ele>
        <time>2020-01-12T11:51:32.000Z</time>
      </trkpt>
      <trkpt lat="43.61031" lon="0.49934">
        <ele>194</ele>
        <time>2020-01-12T11:51:34.000Z</time>
      </trkpt>
      <trkpt lat="43.61031" lon="0.49933">
        <ele>194</ele>
        <time>2020-01-12T11:51:36.000Z</time>
      </trkpt>
      <trkpt lat="43.6103" lon="0.49933">
        <ele>194</ele>
        <time>2020-01-12T11:51:38.000Z</time>
      </trkpt>
      <trkpt lat="43.61029" lon="0.49932">
        <ele>194</ele>
        <time>2020-01-12T11:51:40.000Z</time>
      </trkpt>
      <trkpt lat="43.61029" lon="0.49932">
        <ele>195</ele>
        <time>2020-01-12T11:51:42.000Z</time>
      </trkpt>
      <trkpt lat="43.61029" lon="0.49932">
        <ele>194</ele>
        <time>2020-01-12T11:51:44.000Z</time>
      </trkpt>
      <trkpt lat="43.6103" lon="0.49932">
        <ele>194</ele>
        <time>2020-01-12T11:51:46.000Z</time>
      </trkpt>
      <trkpt lat="43.6103" lon="0.49933">
        <ele>194</ele>
        <time>2020-01-12T11:51:48.000Z</time>
      </trkpt>
      <trkpt lat="43.61029" lon="0.49933">
        <ele>195</ele>
        <time>2020-01-12T11:51:50.000Z</time>
      </trkpt>
      <trkpt lat="43.61028" lon="0.49933">
        <ele>195</ele>
        <time>2020-01-12T11:51:52.000Z</time>
      </trkpt>
      <trkpt lat="43.61027" lon="0.49933">
        <ele>195</ele>
        <time>2020-01-12T11:51:54.000Z</time>
      </trkpt>
      <trkpt lat="43.61028" lon="0.49934">
        <ele>195</ele>
        <time>2020-01-12T11:51:56.000Z</time>
      </trkpt>
      <trkpt lat="43.61029" lon="0.49935">
        <ele>194</ele>
        <time>2020-01-12T11:51:58.000Z</time>
      </trkpt>
      <trkpt lat="43.61029" lon="0.49936">
        <ele>195</ele>
        <time>2020-01-12T11:52:00.000Z</time>
      </trkpt>
      <trkpt lat="43.61031" lon="0.49936">
        <ele>194</ele>
        <time>2020-01-12T11:52:02.000Z</time>
      </trkpt>
      <trkpt lat="43.61033" lon="0.49937">
        <ele>194</ele>
        <time>2020-01-12T11:52:04.000Z</time>
      </trkpt>
      <trkpt lat="43.61034" lon="0.49938">
        <ele>194</ele>
        <time>2020-01-12T11:52:06.000Z</time>
      </trkpt>
      <trkpt lat="43.61034" lon="0.49938">
        <ele>194</ele>
        <time>2020-01-12T11:52:08.000Z</time>
      </trkpt>
      <trkpt lat="43.61034" lon="0.49939">
        <ele>194</ele>
        <time>2020-01-12T11:52:10.000Z</time>
      </trkpt>
      <trkpt lat="43.61034" lon="0.49938">
        <ele>194</ele>
        <time>2020-01-12T11:52:12.000Z</time>
      </trkpt>
      <trkpt lat="43.61034" lon="0.49938">
        <ele>194</ele>
        <time>2020-01-12T11:52:14.000Z</time>
      </trkpt>
      <trkpt lat="43.61035" lon="0.49938">
        <ele>194</ele>
        <time>2020-01-12T11:52:16.000Z</time>
      </trkpt>
      <trkpt lat="43.61035" lon="0.49937">
        <ele>194</ele>
        <time>2020-01-12T11:52:18.000Z</time>
      </trkpt>
      <trkpt lat="43.61035" lon="0.49937">
        <ele>194</ele>
        <time>2020-01-12T11:52:20.000Z</time>
      </trkpt>
      <trkpt lat="43.61034" lon="0.49936">
        <ele>194</ele>
        <time>2020-01-12T11:52:22.000Z</time>
      </trkpt>
      <trkpt lat="43.61034" lon="0.49936">
        <ele>194</ele>
        <time>2020-01-12T11:52:24.000Z</time>
      </trkpt>
      <trkpt lat="43.61033" lon="0.49936">
        <ele>194</ele>
        <time>2020-01-12T11:52:26.000Z</time>
      </trkpt>
      <trkpt lat="43.61032" lon="0.49937">
        <ele>194</ele>
        <time>2020-01-12T11:52:28.000Z</time>
      </trkpt>
      <trkpt lat="43.61032" lon="0.49938">
        <ele>194</ele>
        <time>2020-01-12T11:52:30.000Z</time>
      </trkpt>
      <trkpt lat="43.61033" lon="0.49938">
        <ele>194</ele>
        <time>2020-01-12T11:52:32.000Z</time>
      </trkpt>
      <trkpt lat="43.61032" lon="0.49937">
        <ele>194</ele>
        <time>2020-01-12T11:52:34.000Z</time>
      </trkpt>
      <trkpt lat="43.61031" lon="0.49936">
        <ele>194</ele>
        <time>2020-01-12T11:52:36.000Z</time>
      </trkpt>
      <trkpt lat="43.6103" lon="0.49935">
        <ele>194</ele>
        <time>2020-01-12T11:52:38.000Z</time>
      </trkpt>
      <trkpt lat="43.6103" lon="0.49935">
        <ele>194</ele>
        <time>2020-01-12T11:52:40.000Z</time>
      </trkpt>
      <trkpt lat="43.6103" lon="0.49935">
        <ele>194</ele>
        <time>2020-01-12T11:52:42.000Z</time>
      </trkpt>
      <trkpt lat="43.6103" lon="0.49934">
        <ele>194</ele>
        <time>2020-01-12T11:52:44.000Z</time>
      </trkpt>
      <trkpt lat="43.6103" lon="0.49933">
        <ele>194</ele>
        <time>2020-01-12T11:52:46.000Z</time>
      </trkpt>
      <trkpt lat="43.6103" lon="0.49933">
        <ele>194</ele>
        <time>2020-01-12T11:52:48.000Z</time>
      </trkpt>
      <trkpt lat="43.6103" lon="0.49932">
        <ele>194</ele>
        <time>2020-01-12T11:52:50.000Z</time>
      </trkpt>
      <trkpt lat="43.6103" lon="0.49932">
        <ele>194</ele>
        <time>2020-01-12T11:52:52.000Z</time>
      </trkpt>
      <trkpt lat="43.61031" lon="0.49932">
        <ele>194</ele>
        <time>2020-01-12T11:52:54.000Z</time>
      </trkpt>
      <trkpt lat="43.61031" lon="0.49932">
        <ele>194</ele>
        <time>2020-01-12T11:52:56.000Z</time>
      </trkpt>
      <trkpt lat="43.61031" lon="0.49934">
        <ele>194</ele>
        <time>2020-01-12T11:52:58.000Z</time>
      </trkpt>
      <trkpt lat="43.61031" lon="0.49934">
        <ele>194</ele>
        <time>2020-01-12T11:53:00.000Z</time>
      </trkpt>
      <trkpt lat="43.6103" lon="0.49934">
        <ele>194</ele>
        <time>2020-01-12T11:53:02.000Z</time>
      </trkpt>
      <trkpt lat="43.6103" lon="0.49935">
        <ele>194</ele>
        <time>2020-01-12T11:53:04.000Z</time>
      </trkpt>
      <trkpt lat="43.61031" lon="0.49936">
        <ele>194</ele>
        <time>2020-01-12T11:53:06.000Z</time>
      </trkpt>
      <trkpt lat="43.61031" lon="0.49935">
        <ele>194</ele>
        <time>2020-01-12T11:53:08.000Z</time>
      </trkpt>
      <trkpt lat="43.61032" lon="0.49936">
        <ele>194</ele>
        <time>2020-01-12T11:53:10.000Z</time>
      </trkpt>
      <trkpt lat="43.61033" lon="0.49936">
        <ele>194</ele>
        <time>2020-01-12T11:53:12.000Z</time>
      </trkpt>
      <trkpt lat="43.61034" lon="0.49936">
        <ele>194</ele>
        <time>2020-01-12T11:53:14.000Z</time>
      </trkpt>
      <trkpt lat="43.61035" lon="0.49937">
        <ele>194</ele>
        <time>2020-01-12T11:53:16.000Z</time>
      </trkpt>
      <trkpt lat="43.61036" lon="0.49937">
        <ele>194</ele>
        <time>2020-01-12T11:53:18.000Z</time>
      </trkpt>
      <trkpt lat="43.61035" lon="0.49937">
        <ele>194</ele>
        <time>2020-01-12T11:53:20.000Z</time>
      </trkpt>
      <trkpt lat="43.61035" lon="0.49938">
        <ele>194</ele>
        <time>2020-01-12T11:53:22.000Z</time>
      </trkpt>
      <trkpt lat="43.61034" lon="0.49939">
        <ele>194</ele>
        <time>2020-01-12T11:53:24.000Z</time>
      </trkpt>
      <trkpt lat="43.61034" lon="0.4994">
        <ele>194</ele>
        <time>2020-01-12T11:53:26.000Z</time>
      </trkpt>
      <trkpt lat="43.61035" lon="0.49941">
        <ele>194</ele>
        <time>2020-01-12T11:53:28.000Z</time>
      </trkpt>
      <trkpt lat="43.61035" lon="0.49942">
        <ele>194</ele>
        <time>2020-01-12T11:53:30.000Z</time>
      </trkpt>
      <trkpt lat="43.61035" lon="0.49943">
        <ele>194</ele>
        <time>2020-01-12T11:53:32.000Z</time>
      </trkpt>
      <trkpt lat="43.61034" lon="0.49944">
        <ele>194</ele>
        <time>2020-01-12T11:53:34.000Z</time>
      </trkpt>
      <trkpt lat="43.61033" lon="0.49945">
        <ele>194</ele>
        <time>2020-01-12T11:53:36.000Z</time>
      </trkpt>
      <trkpt lat="43.61033" lon="0.49945">
        <ele>194</ele>
        <time>2020-01-12T11:53:38.000Z</time>
      </trkpt>
      <trkpt lat="43.61032" lon="0.49945">
        <ele>194</ele>
        <time>2020-01-12T11:53:40.000Z</time>
      </trkpt>
      <trkpt lat="43.61031" lon="0.49945">
        <ele>194</ele>
        <time>2020-01-12T11:53:42.000Z</time>
      </trkpt>
      <trkpt lat="43.61031" lon="0.49946">
        <ele>194</ele>
        <time>2020-01-12T11:53:44.000Z</time>
      </trkpt>
      <trkpt lat="43.6103" lon="0.49946">
        <ele>194</ele>
        <time>2020-01-12T11:53:46.000Z</time>
      </trkpt>
      <trkpt lat="43.6103" lon="0.49946">
        <ele>194</ele>
        <time>2020-01-12T11:53:48.000Z</time>
      </trkpt>
      <trkpt lat="43.61031" lon="0.49945">
        <ele>194</ele>
        <time>2020-01-12T11:53:50.000Z</time>
      </trkpt>
      <trkpt lat="43.61031" lon="0.49945">
        <ele>194</ele>
        <time>2020-01-12T11:53:52.000Z</time>
      </trkpt>
      <trkpt lat="43.61032" lon="0.49944">
        <ele>194</ele>
        <time>2020-01-12T11:53:54.000Z</time>
      </trkpt>
      <trkpt lat="43.61032" lon="0.49943">
        <ele>194</ele>
        <time>2020-01-12T11:53:56.000Z</time>
      </trkpt>
      <trkpt lat="43.61032" lon="0.49942">
        <ele>194</ele>
        <time>2020-01-12T11:53:58.000Z</time>
      </trkpt>
      <trkpt lat="43.61031" lon="0.4994">
        <ele>194</ele>
        <time>2020-01-12T11:54:00.000Z</time>
      </trkpt>
      <trkpt lat="43.61032" lon="0.4994">
        <ele>194</ele>
        <time>2020-01-12T11:54:02.000Z</time>
      </trkpt>
      <trkpt lat="43.61033" lon="0.49939">
        <ele>194</ele>
        <time>2020-01-12T11:54:04.000Z</time>
      </trkpt>
      <trkpt lat="43.61033" lon="0.49938">
        <ele>194</ele>
        <time>2020-01-12T11:54:06.000Z</time>
      </trkpt>
      <trkpt lat="43.61033" lon="0.49937">
        <ele>194</ele>
        <time>2020-01-12T11:54:08.000Z</time>
      </trkpt>
      <trkpt lat="43.61032" lon="0.49936">
        <ele>194</ele>
        <time>2020-01-12T11:54:10.000Z</time>
      </trkpt>
      <trkpt lat="43.61031" lon="0.49934">
        <ele>194</ele>
        <time>2020-01-12T11:54:12.000Z</time>
      </trkpt>
      <trkpt lat="43.6103" lon="0.49932">
        <ele>194</ele>
        <time>2020-01-12T11:54:14.000Z</time>
      </trkpt>
      <trkpt lat="43.61029" lon="0.49931">
        <ele>195</ele>
        <time>2020-01-12T11:54:16.000Z</time>
      </trkpt>
      <trkpt lat="43.61028" lon="0.49931">
        <ele>195</ele>
        <time>2020-01-12T11:54:18.000Z</time>
      </trkpt>
      <trkpt lat="43.61027" lon="0.4993">
        <ele>195</ele>
        <time>2020-01-12T11:54:20.000Z</time>
      </trkpt>
      <trkpt lat="43.61028" lon="0.4993">
        <ele>195</ele>
        <time>2020-01-12T11:54:22.000Z</time>
      </trkpt>
      <trkpt lat="43.61028" lon="0.4993">
        <ele>195</ele>
        <time>2020-01-12T11:54:24.000Z</time>
      </trkpt>
      <trkpt lat="43.61028" lon="0.49929">
        <ele>195</ele>
        <time>2020-01-12T11:54:26.000Z</time>
      </trkpt>
      <trkpt lat="43.61029" lon="0.49929">
        <ele>195</ele>
        <time>2020-01-12T11:54:28.000Z</time>
      </trkpt>
      <trkpt lat="43.61029" lon="0.49929">
        <ele>195</ele>
        <time>2020-01-12T11:54:30.000Z</time>
      </trkpt>
      <trkpt lat="43.61029" lon="0.49928">
        <ele>195</ele>
        <time>2020-01-12T11:54:32.000Z</time>
      </trkpt>
      <trkpt lat="43.61029" lon="0.49927">
        <ele>195</ele>
        <time>2020-01-12T11:54:34.000Z</time>
      </trkpt>
      <trkpt lat="43.61029" lon="0.49928">
        <ele>195</ele>
        <time>2020-01-12T11:54:36.000Z</time>
      </trkpt>
      <trkpt lat="43.61029" lon="0.49928">
        <ele>195</ele>
        <time>2020-01-12T11:54:38.000Z</time>
      </trkpt>
      <trkpt lat="43.61029" lon="0.49929">
        <ele>194</ele>
        <time>2020-01-12T11:54:40.000Z</time>
      </trkpt>
      <trkpt lat="43.6103" lon="0.4993">
        <ele>194</ele>
        <time>2020-01-12T11:54:42.000Z</time>
      </trkpt>
      <trkpt lat="43.61031" lon="0.4993">
        <ele>194</ele>
        <time>2020-01-12T11:54:44.000Z</time>
      </trkpt>
      <trkpt lat="43.61031" lon="0.4993">
        <ele>194</ele>
        <time>2020-01-12T11:54:46.000Z</time>
      </trkpt>
      <trkpt lat="43.61032" lon="0.4993">
        <ele>194</ele>
        <time>2020-01-12T11:54:48.000Z</time>
      </trkpt>
      <trkpt lat="43.61034" lon="0.49931">
        <ele>194</ele>
        <time>2020-01-12T11:54:50.000Z</time>
      </trkpt>
      <trkpt lat="43.61035" lon="0.49932">
        <ele>194</ele>
        <time>2020-01-12T11:54:52.000Z</time>
      </trkpt>
      <trkpt lat="43.61037" lon="0.49934">
        <ele>194</ele>
        <time>2020-01-12T11:54:54.000Z</time>
      </trkpt>
      <trkpt lat="43.61037" lon="0.49934">
        <ele>194</ele>
        <time>2020-01-12T11:54:56.000Z</time>
      </trkpt>
      <trkpt lat="43.61038" lon="0.49935">
        <ele>194</ele>
        <time>2020-01-12T11:54:58.000Z</time>
      </trkpt>
      <trkpt lat="43.61038" lon="0.49935">
        <ele>194</ele>
        <time>2020-01-12T11:55:00.000Z</time>
      </trkpt>
      <trkpt lat="43.61037" lon="0.49937">
        <ele>194</ele>
        <time>2020-01-12T11:55:02.000Z</time>
      </trkpt>
      <trkpt lat="43.61037" lon="0.49938">
        <ele>194</ele>
        <time>2020-01-12T11:55:04.000Z</time>
      </trkpt>
      <trkpt lat="43.61036" lon="0.49938">
        <ele>194</ele>
        <time>2020-01-12T11:55:06.000Z</time>
      </trkpt>
      <trkpt lat="43.61034" lon="0.49938">
        <ele>194</ele>
        <time>2020-01-12T11:55:08.000Z</time>
      </trkpt>
      <trkpt lat="43.61033" lon="0.49938">
        <ele>194</ele>
        <time>2020-01-12T11:55:10.000Z</time>
      </trkpt>
      <trkpt lat="43.61032" lon="0.49938">
        <ele>194</ele>
        <time>2020-01-12T11:55:12.000Z</time>
      </trkpt>
      <trkpt lat="43.61031" lon="0.49939">
        <ele>194</ele>
        <time>2020-01-12T11:55:14.000Z</time>
      </trkpt>
      <trkpt lat="43.61031" lon="0.49938">
        <ele>194</ele>
        <time>2020-01-12T11:55:16.000Z</time>
      </trkpt>
      <trkpt lat="43.61031" lon="0.49937">
        <ele>194</ele>
        <time>2020-01-12T11:55:18.000Z</time>
      </trkpt>
      <trkpt lat="43.61031" lon="0.49935">
        <ele>194</ele>
        <time>2020-01-12T11:55:20.000Z</time>
      </trkpt>
      <trkpt lat="43.61031" lon="0.49935">
        <ele>194</ele>
        <time>2020-01-12T11:55:22.000Z</time>
      </trkpt>
      <trkpt lat="43.61031" lon="0.49934">
        <ele>194</ele>
        <time>2020-01-12T11:55:24.000Z</time>
      </trkpt>
      <trkpt lat="43.61031" lon="0.49934">
        <ele>194</ele>
        <time>2020-01-12T11:55:26.000Z</time>
      </trkpt>
      <trkpt lat="43.61031" lon="0.49934">
        <ele>194</ele>
        <time>2020-01-12T11:55:28.000Z</time>
      </trkpt>
      <trkpt lat="43.61031" lon="0.49934">
        <ele>194</ele>
        <time>2020-01-12T11:55:30.000Z</time>
      </trkpt>
      <trkpt lat="43.61031" lon="0.49934">
        <ele>194</ele>
        <time>2020-01-12T11:55:32.000Z</time>
      </trkpt>
      <trkpt lat="43.61032" lon="0.49935">
        <ele>194</ele>
        <time>2020-01-12T11:55:34.000Z</time>
      </trkpt>
      <trkpt lat="43.61032" lon="0.49936">
        <ele>194</ele>
        <time>2020-01-12T11:55:36.000Z</time>
      </trkpt>
      <trkpt lat="43.61031" lon="0.49937">
        <ele>194</ele>
        <time>2020-01-12T11:55:38.000Z</time>
      </trkpt>
      <trkpt lat="43.61031" lon="0.49937">
        <ele>194</ele>
        <time>2020-01-12T11:55:40.000Z</time>
      </trkpt>
      <trkpt lat="43.6103" lon="0.49937">
        <ele>194</ele>
        <time>2020-01-12T11:55:42.000Z</time>
      </trkpt>
      <trkpt lat="43.6103" lon="0.49936">
        <ele>194</ele>
        <time>2020-01-12T11:55:44.000Z</time>
      </trkpt>
      <trkpt lat="43.61028" lon="0.49936">
        <ele>195</ele>
        <time>2020-01-12T11:55:46.000Z</time>
      </trkpt>
      <trkpt lat="43.61028" lon="0.49934">
        <ele>195</ele>
        <time>2020-01-12T11:55:48.000Z</time>
      </trkpt>
      <trkpt lat="43.61027" lon="0.49934">
        <ele>195</ele>
        <time>2020-01-12T11:55:50.000Z</time>
      </trkpt>
      <trkpt lat="43.61027" lon="0.49934">
        <ele>195</ele>
        <time>2020-01-12T11:55:52.000Z</time>
      </trkpt>
      <trkpt lat="43.61027" lon="0.49933">
        <ele>195</ele>
        <time>2020-01-12T11:55:54.000Z</time>
      </trkpt>
      <trkpt lat="43.61027" lon="0.49933">
        <ele>195</ele>
        <time>2020-01-12T11:55:56.000Z</time>
      </trkpt>
      <trkpt lat="43.61027" lon="0.49934">
        <ele>195</ele>
        <time>2020-01-12T11:55:58.000Z</time>
      </trkpt>
      <trkpt lat="43.61027" lon="0.49934">
        <ele>195</ele>
        <time>2020-01-12T11:56:00.000Z</time>
      </trkpt>
      <trkpt lat="43.61026" lon="0.49933">
        <ele>195</ele>
        <time>2020-01-12T11:56:02.000Z</time>
      </trkpt>
      <trkpt lat="43.61026" lon="0.49933">
        <ele>195</ele>
        <time>2020-01-12T11:56:04.000Z</time>
      </trkpt>
      <trkpt lat="43.61025" lon="0.49933">
        <ele>195</ele>
        <time>2020-01-12T11:56:06.000Z</time>
      </trkpt>
      <trkpt lat="43.61025" lon="0.49933">
        <ele>195</ele>
        <time>2020-01-12T11:56:08.000Z</time>
      </trkpt>
      <trkpt lat="43.61025" lon="0.49933">
        <ele>195</ele>
        <time>2020-01-12T11:56:10.000Z</time>
      </trkpt>
      <trkpt lat="43.61025" lon="0.49933">
        <ele>195</ele>
        <time>2020-01-12T11:56:12.000Z</time>
      </trkpt>
      <trkpt lat="43.61025" lon="0.49933">
        <ele>195</ele>
        <time>2020-01-12T11:56:14.000Z</time>
      </trkpt>
      <trkpt lat="43.61025" lon="0.49933">
        <ele>195</ele>
        <time>2020-01-12T11:56:16.000Z</time>
      </trkpt>
      <trkpt lat="43.61025" lon="0.49933">
        <ele>195</ele>
        <time>2020-01-12T11:56:18.000Z</time>
      </trkpt>
      <trkpt lat="43.61026" lon="0.49934">
        <ele>195</ele>
        <time>2020-01-12T11:56:20.000Z</time>
      </trkpt>
      <trkpt lat="43.61026" lon="0.49934">
        <ele>195</ele>
        <time>2020-01-12T11:56:22.000Z</time>
      </trkpt>
      <trkpt lat="43.61026" lon="0.49934">
        <ele>195</ele>
        <time>2020-01-12T11:56:24.000Z</time>
      </trkpt>
      <trkpt lat="43.61027" lon="0.49934">
        <ele>195</ele>
        <time>2020-01-12T11:56:26.000Z</time>
      </trkpt>
      <trkpt lat="43.61026" lon="0.49933">
        <ele>195</ele>
        <time>2020-01-12T11:56:28.000Z</time>
      </trkpt>
      <trkpt lat="43.61026" lon="0.49933">
        <ele>195</ele>
        <time>2020-01-12T11:56:30.000Z</time>
      </trkpt>
      <trkpt lat="43.61026" lon="0.49933">
        <ele>195</ele>
        <time>2020-01-12T11:56:32.000Z</time>
      </trkpt>
      <trkpt lat="43.61027" lon="0.49934">
        <ele>195</ele>
        <time>2020-01-12T11:56:34.000Z</time>
      </trkpt>
      <trkpt lat="43.61027" lon="0.49934">
        <ele>195</ele>
        <time>2020-01-12T11:56:36.000Z</time>
      </trkpt>
      <trkpt lat="43.61027" lon="0.49934">
        <ele>195</ele>
        <time>2020-01-12T11:56:38.000Z</time>
      </trkpt>
      <trkpt lat="43.61027" lon="0.49934">
        <ele>195</ele>
        <time>2020-01-12T11:56:40.000Z</time>
      </trkpt>
      <trkpt lat="43.61027" lon="0.49934">
        <ele>195</ele>
        <time>2020-01-12T11:56:42.000Z</time>
      </trkpt>
      <trkpt lat="43.61026" lon="0.49933">
        <ele>195</ele>
        <time>2020-01-12T11:56:44.000Z</time>
      </trkpt>
      <trkpt lat="43.61026" lon="0.49934">
        <ele>195</ele>
        <time>2020-01-12T11:56:46.000Z</time>
      </trkpt>
      <trkpt lat="43.61026" lon="0.49933">
        <ele>195</ele>
        <time>2020-01-12T11:56:48.000Z</time>
      </trkpt>
      <trkpt lat="43.61026" lon="0.49933">
        <ele>195</ele>
        <time>2020-01-12T11:56:50.000Z</time>
      </trkpt>
      <trkpt lat="43.61026" lon="0.49933">
        <ele>195</ele>
        <time>2020-01-12T11:56:52.000Z</time>
      </trkpt>
      <trkpt lat="43.61026" lon="0.49933">
        <ele>195</ele>
        <time>2020-01-12T11:56:54.000Z</time>
      </trkpt>
      <trkpt lat="43.61026" lon="0.49933">
        <ele>195</ele>
        <time>2020-01-12T11:56:56.000Z</time>
      </trkpt>
      <trkpt lat="43.61026" lon="0.49933">
        <ele>195</ele>
        <time>2020-01-12T11:56:58.000Z</time>
      </trkpt>
      <trkpt lat="43.61026" lon="0.49933">
        <ele>195</ele>
        <time>2020-01-12T11:57:00.000Z</time>
      </trkpt>
      <trkpt lat="43.61026" lon="0.49933">
        <ele>195</ele>
        <time>2020-01-12T11:57:02.000Z</time>
      </trkpt>
      <trkpt lat="43.61026" lon="0.49933">
        <ele>195</ele>
        <time>2020-01-12T11:57:04.000Z</time>
      </trkpt>
      <trkpt lat="43.61027" lon="0.49934">
        <ele>195</ele>
        <time>2020-01-12T11:57:06.000Z</time>
      </trkpt>
      <trkpt lat="43.61027" lon="0.49935">
        <ele>195</ele>
        <time>2020-01-12T11:57:08.000Z</time>
      </trkpt>
      <trkpt lat="43.61027" lon="0.49934">
        <ele>195</ele>
        <time>2020-01-12T11:57:10.000Z</time>
      </trkpt>
      <trkpt lat="43.61027" lon="0.49934">
        <ele>195</ele>
        <time>2020-01-12T11:57:12.000Z</time>
      </trkpt>
      <trkpt lat="43.61028" lon="0.49934">
        <ele>195</ele>
        <time>2020-01-12T11:57:14.000Z</time>
      </trkpt>
      <trkpt lat="43.61028" lon="0.49934">
        <ele>195</ele>
        <time>2020-01-12T11:57:16.000Z</time>
      </trkpt>
      <trkpt lat="43.61028" lon="0.49934">
        <ele>195</ele>
        <time>2020-01-12T11:57:18.000Z</time>
      </trkpt>
      <trkpt lat="43.61028" lon="0.49934">
        <ele>195</ele>
        <time>2020-01-12T11:57:20.000Z</time>
      </trkpt>
      <trkpt lat="43.61029" lon="0.49934">
        <ele>195</ele>
        <time>2020-01-12T11:57:22.000Z</time>
      </trkpt>
      <trkpt lat="43.61029" lon="0.49934">
        <ele>195</ele>
        <time>2020-01-12T11:57:24.000Z</time>
      </trkpt>
      <trkpt lat="43.61029" lon="0.49935">
        <ele>195</ele>
        <time>2020-01-12T11:57:26.000Z</time>
      </trkpt>
      <trkpt lat="43.61028" lon="0.49935">
        <ele>195</ele>
        <time>2020-01-12T11:57:28.000Z</time>
      </trkpt>
      <trkpt lat="43.61028" lon="0.49935">
        <ele>195</ele>
        <time>2020-01-12T11:57:30.000Z</time>
      </trkpt>
      <trkpt lat="43.61028" lon="0.49935">
        <ele>195</ele>
        <time>2020-01-12T11:57:32.000Z</time>
      </trkpt>
      <trkpt lat="43.61028" lon="0.49934">
        <ele>195</ele>
        <time>2020-01-12T11:57:34.000Z</time>
      </trkpt>
      <trkpt lat="43.61027" lon="0.49934">
        <ele>195</ele>
        <time>2020-01-12T11:57:36.000Z</time>
      </trkpt>
      <trkpt lat="43.61027" lon="0.49934">
        <ele>195</ele>
        <time>2020-01-12T11:57:38.000Z</time>
      </trkpt>
      <trkpt lat="43.61027" lon="0.49934">
        <ele>195</ele>
        <time>2020-01-12T11:57:40.000Z</time>
      </trkpt>
      <trkpt lat="43.61026" lon="0.49933">
        <ele>195</ele>
        <time>2020-01-12T11:57:42.000Z</time>
      </trkpt>
      <trkpt lat="43.61025" lon="0.49933">
        <ele>195</ele>
        <time>2020-01-12T11:57:44.000Z</time>
      </trkpt>
      <trkpt lat="43.61026" lon="0.49933">
        <ele>195</ele>
        <time>2020-01-12T11:57:46.000Z</time>
      </trkpt>
      <trkpt lat="43.61026" lon="0.49933">
        <ele>195</ele>
        <time>2020-01-12T11:57:48.000Z</time>
      </trkpt>
      <trkpt lat="43.61026" lon="0.49934">
        <ele>195</ele>
        <time>2020-01-12T11:57:50.000Z</time>
      </trkpt>
      <trkpt lat="43.61026" lon="0.49934">
        <ele>195</ele>
        <time>2020-01-12T11:57:52.000Z</time>
      </trkpt>
      <trkpt lat="43.61026" lon="0.49934">
        <ele>195</ele>
        <time>2020-01-12T11:57:54.000Z</time>
      </trkpt>
      <trkpt lat="43.61026" lon="0.49933">
        <ele>195</ele>
        <time>2020-01-12T11:57:56.000Z</time>
      </trkpt>
      <trkpt lat="43.61025" lon="0.49933">
        <ele>195</ele>
        <time>2020-01-12T11:57:58.000Z</time>
      </trkpt>
      <trkpt lat="43.61025" lon="0.49933">
        <ele>195</ele>
        <time>2020-01-12T11:58:00.000Z</time>
      </trkpt>
      <trkpt lat="43.61025" lon="0.49933">
        <ele>195</ele>
        <time>2020-01-12T11:58:02.000Z</time>
      </trkpt>
      <trkpt lat="43.61025" lon="0.49934">
        <ele>195</ele>
        <time>2020-01-12T11:58:04.000Z</time>
      </trkpt>
      <trkpt lat="43.61025" lon="0.49934">
        <ele>195</ele>
        <time>2020-01-12T11:58:06.000Z</time>
      </trkpt>
      <trkpt lat="43.61025" lon="0.49934">
        <ele>195</ele>
        <time>2020-01-12T11:58:08.000Z</time>
      </trkpt>
      <trkpt lat="43.61025" lon="0.49934">
        <ele>195</ele>
        <time>2020-01-12T11:58:10.000Z</time>
      </trkpt>
      <trkpt lat="43.61025" lon="0.49933">
        <ele>195</ele>
        <time>2020-01-12T11:58:12.000Z</time>
      </trkpt>
      <trkpt lat="43.61026" lon="0.49932">
        <ele>195</ele>
        <time>2020-01-12T11:58:14.000Z</time>
      </trkpt>
      <trkpt lat="43.61026" lon="0.49931">
        <ele>195</ele>
        <time>2020-01-12T11:58:16.000Z</time>
      </trkpt>
      <trkpt lat="43.61027" lon="0.4993">
        <ele>195</ele>
        <time>2020-01-12T11:58:18.000Z</time>
      </trkpt>
      <trkpt lat="43.61028" lon="0.4993">
        <ele>195</ele>
        <time>2020-01-12T11:58:20.000Z</time>
      </trkpt>
      <trkpt lat="43.61028" lon="0.49929">
        <ele>195</ele>
        <time>2020-01-12T11:58:22.000Z</time>
      </trkpt>
      <trkpt lat="43.61029" lon="0.49929">
        <ele>195</ele>
        <time>2020-01-12T11:58:24.000Z</time>
      </trkpt>
      <trkpt lat="43.61029" lon="0.49928">
        <ele>195</ele>
        <time>2020-01-12T11:58:26.000Z</time>
      </trkpt>
      <trkpt lat="43.61029" lon="0.49927">
        <ele>195</ele>
        <time>2020-01-12T11:58:28.000Z</time>
      </trkpt>
      <trkpt lat="43.61029" lon="0.49927">
        <ele>195</ele>
        <time>2020-01-12T11:58:30.000Z</time>
      </trkpt>
      <trkpt lat="43.61029" lon="0.49927">
        <ele>195</ele>
        <time>2020-01-12T11:58:32.000Z</time>
      </trkpt>
      <trkpt lat="43.61029" lon="0.49927">
        <ele>194</ele>
        <time>2020-01-12T11:58:34.000Z</time>
      </trkpt>
      <trkpt lat="43.6103" lon="0.49927">
        <ele>194</ele>
        <time>2020-01-12T11:58:36.000Z</time>
      </trkpt>
      <trkpt lat="43.6103" lon="0.49927">
        <ele>194</ele>
        <time>2020-01-12T11:58:38.000Z</time>
      </trkpt>
      <trkpt lat="43.6103" lon="0.49928">
        <ele>194</ele>
        <time>2020-01-12T11:58:40.000Z</time>
      </trkpt>
      <trkpt lat="43.6103" lon="0.49929">
        <ele>194</ele>
        <time>2020-01-12T11:58:42.000Z</time>
      </trkpt>
      <trkpt lat="43.61029" lon="0.4993">
        <ele>194</ele>
        <time>2020-01-12T11:58:44.000Z</time>
      </trkpt>
      <trkpt lat="43.61029" lon="0.49931">
        <ele>195</ele>
        <time>2020-01-12T11:58:46.000Z</time>
      </trkpt>
      <trkpt lat="43.61028" lon="0.49931">
        <ele>195</ele>
        <time>2020-01-12T11:58:48.000Z</time>
      </trkpt>
      <trkpt lat="43.61027" lon="0.49932">
        <ele>195</ele>
        <time>2020-01-12T11:58:50.000Z</time>
      </trkpt>
      <trkpt lat="43.61027" lon="0.49932">
        <ele>195</ele>
        <time>2020-01-12T11:58:52.000Z</time>
      </trkpt>
      <trkpt lat="43.61026" lon="0.49932">
        <ele>195</ele>
        <time>2020-01-12T11:58:54.000Z</time>
      </trkpt>
      <trkpt lat="43.61026" lon="0.49932">
        <ele>195</ele>
        <time>2020-01-12T11:58:56.000Z</time>
      </trkpt>
      <trkpt lat="43.61025" lon="0.49931">
        <ele>195</ele>
        <time>2020-01-12T11:58:58.000Z</time>
      </trkpt>
      <trkpt lat="43.61025" lon="0.49931">
        <ele>195</ele>
        <time>2020-01-12T11:59:00.000Z</time>
      </trkpt>
      <trkpt lat="43.61025" lon="0.49931">
        <ele>195</ele>
        <time>2020-01-12T11:59:02.000Z</time>
      </trkpt>
      <trkpt lat="43.61025" lon="0.49931">
        <ele>195</ele>
        <time>2020-01-12T11:59:04.000Z</time>
      </trkpt>
      <trkpt lat="43.61025" lon="0.49931">
        <ele>195</ele>
        <time>2020-01-12T11:59:06.000Z</time>
      </trkpt>
      <trkpt lat="43.61025" lon="0.49931">
        <ele>195</ele>
        <time>2020-01-12T11:59:08.000Z</time>
      </trkpt>
      <trkpt lat="43.61026" lon="0.49931">
        <ele>195</ele>
        <time>2020-01-12T11:59:10.000Z</time>
      </trkpt>
      <trkpt lat="43.61026" lon="0.49931">
        <ele>195</ele>
        <time>2020-01-12T11:59:12.000Z</time>
      </trkpt>
      <trkpt lat="43.61026" lon="0.49931">
        <ele>195</ele>
        <time>2020-01-12T11:59:14.000Z</time>
      </trkpt>
      <trkpt lat="43.61026" lon="0.4993">
        <ele>195</ele>
        <time>2020-01-12T11:59:16.000Z</time>
      </trkpt>
      <trkpt lat="43.61026" lon="0.49931">
        <ele>195</ele>
        <time>2020-01-12T11:59:18.000Z</time>
      </trkpt>
      <trkpt lat="43.61025" lon="0.49931">
        <ele>195</ele>
        <time>2020-01-12T11:59:20.000Z</time>
      </trkpt>
      <trkpt lat="43.61025" lon="0.49931">
        <ele>195</ele>
        <time>2020-01-12T11:59:22.000Z</time>
      </trkpt>
      <trkpt lat="43.61025" lon="0.49931">
        <ele>195</ele>
        <time>2020-01-12T11:59:24.000Z</time>
      </trkpt>
      <trkpt lat="43.61025" lon="0.49932">
        <ele>195</ele>
        <time>2020-01-12T11:59:26.000Z</time>
      </trkpt>
      <trkpt lat="43.61025" lon="0.49931">
        <ele>195</ele>
        <time>2020-01-12T11:59:28.000Z</time>
      </trkpt>
      <trkpt lat="43.61026" lon="0.49932">
        <ele>195</ele>
        <time>2020-01-12T11:59:30.000Z</time>
      </trkpt>
      <trkpt lat="43.61026" lon="0.49932">
        <ele>195</ele>
        <time>2020-01-12T11:59:32.000Z</time>
      </trkpt>
      <trkpt lat="43.61027" lon="0.49932">
        <ele>195</ele>
        <time>2020-01-12T11:59:34.000Z</time>
      </trkpt>
      <trkpt lat="43.61026" lon="0.49934">
        <ele>195</ele>
        <time>2020-01-12T11:59:36.000Z</time>
      </trkpt>
      <trkpt lat="43.61025" lon="0.49937">
        <ele>195</ele>
        <time>2020-01-12T11:59:38.000Z</time>
      </trkpt>
      <trkpt lat="43.61025" lon="0.49937">
        <ele>195</ele>
        <time>2020-01-12T11:59:40.000Z</time>
      </trkpt>
      <trkpt lat="43.61026" lon="0.49937">
        <ele>195</ele>
        <time>2020-01-12T11:59:42.000Z</time>
      </trkpt>
      <trkpt lat="43.61026" lon="0.49937">
        <ele>195</ele>
        <time>2020-01-12T11:59:44.000Z</time>
      </trkpt>
      <trkpt lat="43.61026" lon="0.49937">
        <ele>195</ele>
        <time>2020-01-12T11:59:46.000Z</time>
      </trkpt>
      <trkpt lat="43.61025" lon="0.49937">
        <ele>195</ele>
        <time>2020-01-12T11:59:48.000Z</time>
      </trkpt>
      <trkpt lat="43.61025" lon="0.49937">
        <ele>195</ele>
        <time>2020-01-12T11:59:50.000Z</time>
      </trkpt>
      <trkpt lat="43.61025" lon="0.49936">
        <ele>195</ele>
        <time>2020-01-12T11:59:52.000Z</time>
      </trkpt>
      <trkpt lat="43.61025" lon="0.49936">
        <ele>195</ele>
        <time>2020-01-12T11:59:54.000Z</time>
      </trkpt>
      <trkpt lat="43.61026" lon="0.49936">
        <ele>195</ele>
        <time>2020-01-12T11:59:56.000Z</time>
      </trkpt>
      <trkpt lat="43.61026" lon="0.49935">
        <ele>195</ele>
        <time>2020-01-12T11:59:58.000Z</time>
      </trkpt>
      <trkpt lat="43.61026" lon="0.49935">
        <ele>195</ele>
        <time>2020-01-12T12:00:00.000Z</time>
      </trkpt>
      <trkpt lat="43.61026" lon="0.49934">
        <ele>195</ele>
        <time>2020-01-12T12:00:02.000Z</time>
      </trkpt>
      <trkpt lat="43.61026" lon="0.49934">
        <ele>195</ele>
        <time>2020-01-12T12:00:04.000Z</time>
      </trkpt>
      <trkpt lat="43.61027" lon="0.49933">
        <ele>195</ele>
        <time>2020-01-12T12:00:06.000Z</time>
      </trkpt>
      <trkpt lat="43.61027" lon="0.49932">
        <ele>195</ele>
        <time>2020-01-12T12:00:08.000Z</time>
      </trkpt>
      <trkpt lat="43.61027" lon="0.49932">
        <ele>195</ele>
        <time>2020-01-12T12:00:10.000Z</time>
      </trkpt>
      <trkpt lat="43.61027" lon="0.49932">
        <ele>195</ele>
        <time>2020-01-12T12:00:12.000Z</time>
      </trkpt>
      <trkpt lat="43.61027" lon="0.49932">
        <ele>195</ele>
        <time>2020-01-12T12:00:14.000Z</time>
      </trkpt>
      <trkpt lat="43.61027" lon="0.49932">
        <ele>195</ele>
        <time>2020-01-12T12:00:16.000Z</time>
      </trkpt>
      <trkpt lat="43.61027" lon="0.49932">
        <ele>195</ele>
        <time>2020-01-12T12:00:18.000Z</time>
      </trkpt>
      <trkpt lat="43.61027" lon="0.49931">
        <ele>195</ele>
        <time>2020-01-12T12:00:20.000Z</time>
      </trkpt>
      <trkpt lat="43.61027" lon="0.49931">
        <ele>195</ele>
        <time>2020-01-12T12:00:22.000Z</time>
      </trkpt>
      <trkpt lat="43.61026" lon="0.49931">
        <ele>195</ele>
        <time>2020-01-12T12:00:24.000Z</time>
      </trkpt>
      <trkpt lat="43.61026" lon="0.49931">
        <ele>195</ele>
        <time>2020-01-12T12:00:26.000Z</time>
      </trkpt>
      <trkpt lat="43.61026" lon="0.49932">
        <ele>195</ele>
        <time>2020-01-12T12:00:28.000Z</time>
      </trkpt>
      <trkpt lat="43.61026" lon="0.49932">
        <ele>195</ele>
        <time>2020-01-12T12:00:30.000Z</time>
      </trkpt>
      <trkpt lat="43.61026" lon="0.49932">
        <ele>195</ele>
        <time>2020-01-12T12:00:32.000Z</time>
      </trkpt>
      <trkpt lat="43.61026" lon="0.49932">
        <ele>195</ele>
        <time>2020-01-12T12:00:34.000Z</time>
      </trkpt>
      <trkpt lat="43.61026" lon="0.49932">
        <ele>195</ele>
        <time>2020-01-12T12:00:36.000Z</time>
      </trkpt>
      <trkpt lat="43.61026" lon="0.49932">
        <ele>195</ele>
        <time>2020-01-12T12:00:38.000Z</time>
      </trkpt>
      <trkpt lat="43.61026" lon="0.49932">
        <ele>195</ele>
        <time>2020-01-12T12:00:40.000Z</time>
      </trkpt>
      <trkpt lat="43.61026" lon="0.49932">
        <ele>195</ele>
        <time>2020-01-12T12:00:42.000Z</time>
      </trkpt>
      <trkpt lat="43.61026" lon="0.49932">
        <ele>195</ele>
        <time>2020-01-12T12:00:44.000Z</time>
      </trkpt>
      <trkpt lat="43.61026" lon="0.49932">
        <ele>195</ele>
        <time>2020-01-12T12:00:46.000Z</time>
      </trkpt>
      <trkpt lat="43.61026" lon="0.49932">
        <ele>195</ele>
        <time>2020-01-12T12:00:48.000Z</time>
      </trkpt>
      <trkpt lat="43.61026" lon="0.49932">
        <ele>195</ele>
        <time>2020-01-12T12:00:50.000Z</time>
      </trkpt>
      <trkpt lat="43.61026" lon="0.49932">
        <ele>195</ele>
        <time>2020-01-12T12:00:52.000Z</time>
      </trkpt>
      <trkpt lat="43.61026" lon="0.49932">
        <ele>195</ele>
        <time>2020-01-12T12:00:54.000Z</time>
      </trkpt>
      <trkpt lat="43.61027" lon="0.49931">
        <ele>195</ele>
        <time>2020-01-12T12:00:56.000Z</time>
      </trkpt>
      <trkpt lat="43.61027" lon="0.49932">
        <ele>195</ele>
        <time>2020-01-12T12:00:58.000Z</time>
      </trkpt>
      <trkpt lat="43.61027" lon="0.49932">
        <ele>195</ele>
        <time>2020-01-12T12:01:00.000Z</time>
      </trkpt>
      <trkpt lat="43.61027" lon="0.49932">
        <ele>195</ele>
        <time>2020-01-12T12:01:02.000Z</time>
      </trkpt>
      <trkpt lat="43.61026" lon="0.49932">
        <ele>195</ele>
        <time>2020-01-12T12:01:04.000Z</time>
      </trkpt>
      <trkpt lat="43.61026" lon="0.49933">
        <ele>195</ele>
        <time>2020-01-12T12:01:06.000Z</time>
      </trkpt>
      <trkpt lat="43.61026" lon="0.49933">
        <ele>195</ele>
        <time>2020-01-12T12:01:08.000Z</time>
      </trkpt>
      <trkpt lat="43.61026" lon="0.49933">
        <ele>195</ele>
        <time>2020-01-12T12:01:10.000Z</time>
      </trkpt>
      <trkpt lat="43.61026" lon="0.49933">
        <ele>195</ele>
        <time>2020-01-12T12:01:12.000Z</time>
      </trkpt>
      <trkpt lat="43.61026" lon="0.49933">
        <ele>195</ele>
        <time>2020-01-12T12:01:14.000Z</time>
      </trkpt>
      <trkpt lat="43.61026" lon="0.49933">
        <ele>195</ele>
        <time>2020-01-12T12:01:16.000Z</time>
      </trkpt>
      <trkpt lat="43.61026" lon="0.49932">
        <ele>195</ele>
        <time>2020-01-12T12:01:18.000Z</time>
      </trkpt>
      <trkpt lat="43.61026" lon="0.49932">
        <ele>195</ele>
        <time>2020-01-12T12:01:20.000Z</time>
      </trkpt>
      <trkpt lat="43.61025" lon="0.49932">
        <ele>195</ele>
        <time>2020-01-12T12:01:22.000Z</time>
      </trkpt>
      <trkpt lat="43.61024" lon="0.49932">
        <ele>195</ele>
        <time>2020-01-12T12:01:24.000Z</time>
      </trkpt>
      <trkpt lat="43.61024" lon="0.49931">
        <ele>195</ele>
        <time>2020-01-12T12:01:26.000Z</time>
      </trkpt>
      <trkpt lat="43.61024" lon="0.49932">
        <ele>195</ele>
        <time>2020-01-12T12:01:28.000Z</time>
      </trkpt>
      <trkpt lat="43.61024" lon="0.49931">
        <ele>195</ele>
        <time>2020-01-12T12:01:30.000Z</time>
      </trkpt>
      <trkpt lat="43.61025" lon="0.49932">
        <ele>195</ele>
        <time>2020-01-12T12:01:32.000Z</time>
      </trkpt>
      <trkpt lat="43.61025" lon="0.49932">
        <ele>195</ele>
        <time>2020-01-12T12:01:34.000Z</time>
      </trkpt>
      <trkpt lat="43.61025" lon="0.49932">
        <ele>195</ele>
        <time>2020-01-12T12:01:36.000Z</time>
      </trkpt>
      <trkpt lat="43.61025" lon="0.49932">
        <ele>195</ele>
        <time>2020-01-12T12:01:38.000Z</time>
      </trkpt>
      <trkpt lat="43.61025" lon="0.49932">
        <ele>195</ele>
        <time>2020-01-12T12:01:40.000Z</time>
      </trkpt>
      <trkpt lat="43.61025" lon="0.49932">
        <ele>195</ele>
        <time>2020-01-12T12:01:42.000Z</time>
      </trkpt>
      <trkpt lat="43.61025" lon="0.49932">
        <ele>195</ele>
        <time>2020-01-12T12:01:44.000Z</time>
      </trkpt>
      <trkpt lat="43.61025" lon="0.49932">
        <ele>195</ele>
        <time>2020-01-12T12:01:46.000Z</time>
      </trkpt>
      <trkpt lat="43.61025" lon="0.49932">
        <ele>195</ele>
        <time>2020-01-12T12:01:48.000Z</time>
      </trkpt>
      <trkpt lat="43.61026" lon="0.49932">
        <ele>195</ele>
        <time>2020-01-12T12:01:50.000Z</time>
      </trkpt>
      <trkpt lat="43.61026" lon="0.49932">
        <ele>195</ele>
        <time>2020-01-12T12:01:52.000Z</time>
      </trkpt>
      <trkpt lat="43.61026" lon="0.49933">
        <ele>195</ele>
        <time>2020-01-12T12:01:54.000Z</time>
      </trkpt>
      <trkpt lat="43.61026" lon="0.49933">
        <ele>195</ele>
        <time>2020-01-12T12:01:56.000Z</time>
      </trkpt>
      <trkpt lat="43.61027" lon="0.49933">
        <ele>195</ele>
        <time>2020-01-12T12:01:58.000Z</time>
      </trkpt>
      <trkpt lat="43.61026" lon="0.49933">
        <ele>195</ele>
        <time>2020-01-12T12:02:00.000Z</time>
      </trkpt>
      <trkpt lat="43.61026" lon="0.49933">
        <ele>195</ele>
        <time>2020-01-12T12:02:02.000Z</time>
      </trkpt>
      <trkpt lat="43.61026" lon="0.49932">
        <ele>195</ele>
        <time>2020-01-12T12:02:04.000Z</time>
      </trkpt>
      <trkpt lat="43.61026" lon="0.49932">
        <ele>195</ele>
        <time>2020-01-12T12:02:06.000Z</time>
      </trkpt>
      <trkpt lat="43.61026" lon="0.49932">
        <ele>195</ele>
        <time>2020-01-12T12:02:08.000Z</time>
      </trkpt>
      <trkpt lat="43.61026" lon="0.49932">
        <ele>195</ele>
        <time>2020-01-12T12:02:10.000Z</time>
      </trkpt>
      <trkpt lat="43.61026" lon="0.49932">
        <ele>195</ele>
        <time>2020-01-12T12:02:12.000Z</time>
      </trkpt>
      <trkpt lat="43.61026" lon="0.49931">
        <ele>195</ele>
        <time>2020-01-12T12:02:14.000Z</time>
      </trkpt>
      <trkpt lat="43.61026" lon="0.49931">
        <ele>195</ele>
        <time>2020-01-12T12:02:16.000Z</time>
      </trkpt>
      <trkpt lat="43.61026" lon="0.49931">
        <ele>195</ele>
        <time>2020-01-12T12:02:18.000Z</time>
      </trkpt>
      <trkpt lat="43.61026" lon="0.4993">
        <ele>195</ele>
        <time>2020-01-12T12:02:20.000Z</time>
      </trkpt>
      <trkpt lat="43.61026" lon="0.4993">
        <ele>195</ele>
        <time>2020-01-12T12:02:22.000Z</time>
      </trkpt>
      <trkpt lat="43.61026" lon="0.4993">
        <ele>195</ele>
        <time>2020-01-12T12:02:24.000Z</time>
      </trkpt>
      <trkpt lat="43.61027" lon="0.49931">
        <ele>195</ele>
        <time>2020-01-12T12:02:26.000Z</time>
      </trkpt>
      <trkpt lat="43.61027" lon="0.49931">
        <ele>195</ele>
        <time>2020-01-12T12:02:28.000Z</time>
      </trkpt>
      <trkpt lat="43.61026" lon="0.49931">
        <ele>195</ele>
        <time>2020-01-12T12:02:30.000Z</time>
      </trkpt>
      <trkpt lat="43.61026" lon="0.4993">
        <ele>195</ele>
        <time>2020-01-12T12:02:32.000Z</time>
      </trkpt>
      <trkpt lat="43.61027" lon="0.4993">
        <ele>195</ele>
        <time>2020-01-12T12:02:34.000Z</time>
      </trkpt>
      <trkpt lat="43.61027" lon="0.4993">
        <ele>195</ele>
        <time>2020-01-12T12:02:36.000Z</time>
      </trkpt>
      <trkpt lat="43.61027" lon="0.4993">
        <ele>195</ele>
        <time>2020-01-12T12:02:38.000Z</time>
      </trkpt>
      <trkpt lat="43.61027" lon="0.4993">
        <ele>195</ele>
        <time>2020-01-12T12:02:40.000Z</time>
      </trkpt>
      <trkpt lat="43.61027" lon="0.4993">
        <ele>195</ele>
        <time>2020-01-12T12:02:42.000Z</time>
      </trkpt>
      <trkpt lat="43.61026" lon="0.49931">
        <ele>195</ele>
        <time>2020-01-12T12:02:44.000Z</time>
      </trkpt>
      <trkpt lat="43.61026" lon="0.49931">
        <ele>195</ele>
        <time>2020-01-12T12:02:46.000Z</time>
      </trkpt>
      <trkpt lat="43.61026" lon="0.49931">
        <ele>195</ele>
        <time>2020-01-12T12:02:48.000Z</time>
      </trkpt>
      <trkpt lat="43.61026" lon="0.49931">
        <ele>195</ele>
        <time>2020-01-12T12:02:50.000Z</time>
      </trkpt>
      <trkpt lat="43.61026" lon="0.49932">
        <ele>195</ele>
        <time>2020-01-12T12:02:52.000Z</time>
      </trkpt>
      <trkpt lat="43.61026" lon="0.49932">
        <ele>195</ele>
        <time>2020-01-12T12:02:54.000Z</time>
      </trkpt>
      <trkpt lat="43.61025" lon="0.49932">
        <ele>195</ele>
        <time>2020-01-12T12:02:56.000Z</time>
      </trkpt>
      <trkpt lat="43.61025" lon="0.49932">
        <ele>195</ele>
        <time>2020-01-12T12:02:58.000Z</time>
      </trkpt>
      <trkpt lat="43.61025" lon="0.49933">
        <ele>195</ele>
        <time>2020-01-12T12:03:00.000Z</time>
      </trkpt>
      <trkpt lat="43.61025" lon="0.49933">
        <ele>195</ele>
        <time>2020-01-12T12:03:02.000Z</time>
      </trkpt>
      <trkpt lat="43.61025" lon="0.49933">
        <ele>195</ele>
        <time>2020-01-12T12:03:04.000Z</time>
      </trkpt>
      <trkpt lat="43.61025" lon="0.49933">
        <ele>195</ele>
        <time>2020-01-12T12:03:06.000Z</time>
      </trkpt>
      <trkpt lat="43.61025" lon="0.49933">
        <ele>195</ele>
        <time>2020-01-12T12:03:08.000Z</time>
      </trkpt>
      <trkpt lat="43.61025" lon="0.49933">
        <ele>195</ele>
        <time>2020-01-12T12:03:10.000Z</time>
      </trkpt>
      <trkpt lat="43.61025" lon="0.49933">
        <ele>195</ele>
        <time>2020-01-12T12:03:12.000Z</time>
      </trkpt>
      <trkpt lat="43.61025" lon="0.49933">
        <ele>195</ele>
        <time>2020-01-12T12:03:14.000Z</time>
      </trkpt>
      <trkpt lat="43.61025" lon="0.49933">
        <ele>195</ele>
        <time>2020-01-12T12:03:16.000Z</time>
      </trkpt>
      <trkpt lat="43.61025" lon="0.49933">
        <ele>195</ele>
        <time>2020-01-12T12:03:18.000Z</time>
      </trkpt>
      <trkpt lat="43.61026" lon="0.49932">
        <ele>195</ele>
        <time>2020-01-12T12:03:20.000Z</time>
      </trkpt>
      <trkpt lat="43.61026" lon="0.49932">
        <ele>195</ele>
        <time>2020-01-12T12:03:22.000Z</time>
      </trkpt>
      <trkpt lat="43.61026" lon="0.49932">
        <ele>195</ele>
        <time>2020-01-12T12:03:24.000Z</time>
      </trkpt>
      <trkpt lat="43.61026" lon="0.49932">
        <ele>195</ele>
        <time>2020-01-12T12:03:26.000Z</time>
      </trkpt>
      <trkpt lat="43.61026" lon="0.49932">
        <ele>195</ele>
        <time>2020-01-12T12:03:28.000Z</time>
      </trkpt>
      <trkpt lat="43.61026" lon="0.49932">
        <ele>195</ele>
        <time>2020-01-12T12:03:30.000Z</time>
      </trkpt>
      <trkpt lat="43.61026" lon="0.49932">
        <ele>195</ele>
        <time>2020-01-12T12:03:32.000Z</time>
      </trkpt>
      <trkpt lat="43.61026" lon="0.49931">
        <ele>195</ele>
        <time>2020-01-12T12:03:34.000Z</time>
      </trkpt>
      <trkpt lat="43.61026" lon="0.49931">
        <ele>195</ele>
        <time>2020-01-12T12:03:36.000Z</time>
      </trkpt>
      <trkpt lat="43.61026" lon="0.49931">
        <ele>195</ele>
        <time>2020-01-12T12:03:38.000Z</time>
      </trkpt>
      <trkpt lat="43.61026" lon="0.49931">
        <ele>195</ele>
        <time>2020-01-12T12:03:40.000Z</time>
      </trkpt>
      <trkpt lat="43.61026" lon="0.49931">
        <ele>195</ele>
        <time>2020-01-12T12:03:42.000Z</time>
      </trkpt>
      <trkpt lat="43.61026" lon="0.49931">
        <ele>195</ele>
        <time>2020-01-12T12:03:44.000Z</time>
      </trkpt>
      <trkpt lat="43.61026" lon="0.49931">
        <ele>195</ele>
        <time>2020-01-12T12:03:46.000Z</time>
      </trkpt>
      <trkpt lat="43.61026" lon="0.49931">
        <ele>195</ele>
        <time>2020-01-12T12:03:48.000Z</time>
      </trkpt>
      <trkpt lat="43.61026" lon="0.49931">
        <ele>195</ele>
        <time>2020-01-12T12:03:50.000Z</time>
      </trkpt>
      <trkpt lat="43.61026" lon="0.49931">
        <ele>195</ele>
        <time>2020-01-12T12:03:52.000Z</time>
      </trkpt>
      <trkpt lat="43.61026" lon="0.49931">
        <ele>195</ele>
        <time>2020-01-12T12:03:54.000Z</time>
      </trkpt>
      <trkpt lat="43.61026" lon="0.49931">
        <ele>195</ele>
        <time>2020-01-12T12:03:56.000Z</time>
      </trkpt>
      <trkpt lat="43.61026" lon="0.49931">
        <ele>195</ele>
        <time>2020-01-12T12:03:58.000Z</time>
      </trkpt>
      <trkpt lat="43.61026" lon="0.49931">
        <ele>195</ele>
        <time>2020-01-12T12:04:00.000Z</time>
      </trkpt>
      <trkpt lat="43.61026" lon="0.49932">
        <ele>195</ele>
        <time>2020-01-12T12:04:02.000Z</time>
      </trkpt>
      <trkpt lat="43.61026" lon="0.49932">
        <ele>195</ele>
        <time>2020-01-12T12:04:04.000Z</time>
      </trkpt>
      <trkpt lat="43.61026" lon="0.49932">
        <ele>195</ele>
        <time>2020-01-12T12:04:06.000Z</time>
      </trkpt>
      <trkpt lat="43.61026" lon="0.49932">
        <ele>195</ele>
        <time>2020-01-12T12:04:08.000Z</time>
      </trkpt>
      <trkpt lat="43.61026" lon="0.49932">
        <ele>195</ele>
        <time>2020-01-12T12:04:10.000Z</time>
      </trkpt>
      <trkpt lat="43.61026" lon="0.49932">
        <ele>195</ele>
        <time>2020-01-12T12:04:12.000Z</time>
      </trkpt>
      <trkpt lat="43.61026" lon="0.49932">
        <ele>195</ele>
        <time>2020-01-12T12:04:14.000Z</time>
      </trkpt>
      <trkpt lat="43.61026" lon="0.49932">
        <ele>195</ele>
        <time>2020-01-12T12:04:16.000Z</time>
      </trkpt>
      <trkpt lat="43.61026" lon="0.49932">
        <ele>195</ele>
        <time>2020-01-12T12:04:18.000Z</time>
      </trkpt>
      <trkpt lat="43.61026" lon="0.49933">
        <ele>195</ele>
        <time>2020-01-12T12:04:20.000Z</time>
      </trkpt>
      <trkpt lat="43.61026" lon="0.49933">
        <ele>195</ele>
        <time>2020-01-12T12:04:22.000Z</time>
      </trkpt>
      <trkpt lat="43.61026" lon="0.49933">
        <ele>195</ele>
        <time>2020-01-12T12:04:24.000Z</time>
      </trkpt>
      <trkpt lat="43.61026" lon="0.49933">
        <ele>195</ele>
        <time>2020-01-12T12:04:26.000Z</time>
      </trkpt>
      <trkpt lat="43.61026" lon="0.49933">
        <ele>195</ele>
        <time>2020-01-12T12:04:28.000Z</time>
      </trkpt>
      <trkpt lat="43.61026" lon="0.49933">
        <ele>195</ele>
        <time>2020-01-12T12:04:30.000Z</time>
      </trkpt>
      <trkpt lat="43.61026" lon="0.49933">
        <ele>195</ele>
        <time>2020-01-12T12:04:32.000Z</time>
      </trkpt>
      <trkpt lat="43.61026" lon="0.49933">
        <ele>195</ele>
        <time>2020-01-12T12:04:34.000Z</time>
      </trkpt>
      <trkpt lat="43.61026" lon="0.49934">
        <ele>195</ele>
        <time>2020-01-12T12:04:36.000Z</time>
      </trkpt>
      <trkpt lat="43.61026" lon="0.49934">
        <ele>195</ele>
        <time>2020-01-12T12:04:38.000Z</time>
      </trkpt>
      <trkpt lat="43.61026" lon="0.49934">
        <ele>195</ele>
        <time>2020-01-12T12:04:40.000Z</time>
      </trkpt>
      <trkpt lat="43.61026" lon="0.49935">
        <ele>195</ele>
        <time>2020-01-12T12:04:42.000Z</time>
      </trkpt>
      <trkpt lat="43.61026" lon="0.49935">
        <ele>195</ele>
        <time>2020-01-12T12:04:44.000Z</time>
      </trkpt>
      <trkpt lat="43.61026" lon="0.49935">
        <ele>195</ele>
        <time>2020-01-12T12:04:46.000Z</time>
      </trkpt>
      <trkpt lat="43.61026" lon="0.49935">
        <ele>195</ele>
        <time>2020-01-12T12:04:48.000Z</time>
      </trkpt>
      <trkpt lat="43.61026" lon="0.49935">
        <ele>195</ele>
        <time>2020-01-12T12:04:50.000Z</time>
      </trkpt>
      <trkpt lat="43.61026" lon="0.49935">
        <ele>195</ele>
        <time>2020-01-12T12:04:52.000Z</time>
      </trkpt>
      <trkpt lat="43.61026" lon="0.49935">
        <ele>195</ele>
        <time>2020-01-12T12:04:54.000Z</time>
      </trkpt>
      <trkpt lat="43.61026" lon="0.49935">
        <ele>195</ele>
        <time>2020-01-12T12:04:56.000Z</time>
      </trkpt>
      <trkpt lat="43.61026" lon="0.49934">
        <ele>195</ele>
        <time>2020-01-12T12:04:58.000Z</time>
      </trkpt>
      <trkpt lat="43.61026" lon="0.49935">
        <ele>195</ele>
        <time>2020-01-12T12:05:00.000Z</time>
      </trkpt>
      <trkpt lat="43.61026" lon="0.49935">
        <ele>195</ele>
        <time>2020-01-12T12:05:02.000Z</time>
      </trkpt>
      <trkpt lat="43.61026" lon="0.49935">
        <ele>195</ele>
        <time>2020-01-12T12:05:04.000Z</time>
      </trkpt>
      <trkpt lat="43.61027" lon="0.49935">
        <ele>195</ele>
        <time>2020-01-12T12:05:06.000Z</time>
      </trkpt>
      <trkpt lat="43.61027" lon="0.49935">
        <ele>195</ele>
        <time>2020-01-12T12:05:08.000Z</time>
      </trkpt>
      <trkpt lat="43.61027" lon="0.49935">
        <ele>195</ele>
        <time>2020-01-12T12:05:10.000Z</time>
      </trkpt>
      <trkpt lat="43.61027" lon="0.49935">
        <ele>195</ele>
        <time>2020-01-12T12:05:12.000Z</time>
      </trkpt>
      <trkpt lat="43.61027" lon="0.49935">
        <ele>195</ele>
        <time>2020-01-12T12:05:14.000Z</time>
      </trkpt>
      <trkpt lat="43.61026" lon="0.49935">
        <ele>195</ele>
        <time>2020-01-12T12:05:16.000Z</time>
      </trkpt>
      <trkpt lat="43.61026" lon="0.49935">
        <ele>195</ele>
        <time>2020-01-12T12:05:18.000Z</time>
      </trkpt>
      <trkpt lat="43.61026" lon="0.49935">
        <ele>195</ele>
        <time>2020-01-12T12:05:20.000Z</time>
      </trkpt>
      <trkpt lat="43.61027" lon="0.49934">
        <ele>195</ele>
        <time>2020-01-12T12:05:22.000Z</time>
      </trkpt>
      <trkpt lat="43.61027" lon="0.49934">
        <ele>195</ele>
        <time>2020-01-12T12:05:24.000Z</time>
      </trkpt>
      <trkpt lat="43.61027" lon="0.49934">
        <ele>195</ele>
        <time>2020-01-12T12:05:26.000Z</time>
      </trkpt>
      <trkpt lat="43.61027" lon="0.49934">
        <ele>195</ele>
        <time>2020-01-12T12:05:28.000Z</time>
      </trkpt>
      <trkpt lat="43.61026" lon="0.49935">
        <ele>195</ele>
        <time>2020-01-12T12:05:30.000Z</time>
      </trkpt>
      <trkpt lat="43.61026" lon="0.49935">
        <ele>195</ele>
        <time>2020-01-12T12:05:32.000Z</time>
      </trkpt>
      <trkpt lat="43.61026" lon="0.49935">
        <ele>195</ele>
        <time>2020-01-12T12:05:34.000Z</time>
      </trkpt>
      <trkpt lat="43.61026" lon="0.49935">
        <ele>195</ele>
        <time>2020-01-12T12:05:36.000Z</time>
      </trkpt>
      <trkpt lat="43.61026" lon="0.49935">
        <ele>195</ele>
        <time>2020-01-12T12:05:38.000Z</time>
      </trkpt>
      <trkpt lat="43.61025" lon="0.49936">
        <ele>195</ele>
        <time>2020-01-12T12:05:40.000Z</time>
      </trkpt>
      <trkpt lat="43.61025" lon="0.49936">
        <ele>195</ele>
        <time>2020-01-12T12:05:42.000Z</time>
      </trkpt>
      <trkpt lat="43.61024" lon="0.49935">
        <ele>195</ele>
        <time>2020-01-12T12:05:44.000Z</time>
      </trkpt>
      <trkpt lat="43.61024" lon="0.49935">
        <ele>195</ele>
        <time>2020-01-12T12:05:46.000Z</time>
      </trkpt>
      <trkpt lat="43.61024" lon="0.49935">
        <ele>195</ele>
        <time>2020-01-12T12:05:48.000Z</time>
      </trkpt>
      <trkpt lat="43.61024" lon="0.49935">
        <ele>195</ele>
        <time>2020-01-12T12:05:50.000Z</time>
      </trkpt>
      <trkpt lat="43.61024" lon="0.49934">
        <ele>195</ele>
        <time>2020-01-12T12:05:52.000Z</time>
      </trkpt>
      <trkpt lat="43.61024" lon="0.49934">
        <ele>195</ele>
        <time>2020-01-12T12:05:54.000Z</time>
      </trkpt>
      <trkpt lat="43.61024" lon="0.49934">
        <ele>195</ele>
        <time>2020-01-12T12:05:56.000Z</time>
      </trkpt>
      <trkpt lat="43.61023" lon="0.49934">
        <ele>195</ele>
        <time>2020-01-12T12:05:58.000Z</time>
      </trkpt>
      <trkpt lat="43.61023" lon="0.49934">
        <ele>195</ele>
        <time>2020-01-12T12:06:00.000Z</time>
      </trkpt>
      <trkpt lat="43.61023" lon="0.49934">
        <ele>195</ele>
        <time>2020-01-12T12:06:02.000Z</time>
      </trkpt>
      <trkpt lat="43.61023" lon="0.49934">
        <ele>195</ele>
        <time>2020-01-12T12:06:04.000Z</time>
      </trkpt>
      <trkpt lat="43.61023" lon="0.49934">
        <ele>195</ele>
        <time>2020-01-12T12:06:06.000Z</time>
      </trkpt>
      <trkpt lat="43.61022" lon="0.49935">
        <ele>195</ele>
        <time>2020-01-12T12:06:08.000Z</time>
      </trkpt>
      <trkpt lat="43.61022" lon="0.49934">
        <ele>195</ele>
        <time>2020-01-12T12:06:10.000Z</time>
      </trkpt>
      <trkpt lat="43.61022" lon="0.49934">
        <ele>195</ele>
        <time>2020-01-12T12:06:12.000Z</time>
      </trkpt>
      <trkpt lat="43.61022" lon="0.49934">
        <ele>195</ele>
        <time>2020-01-12T12:06:14.000Z</time>
      </trkpt>
      <trkpt lat="43.61023" lon="0.49935">
        <ele>195</ele>
        <time>2020-01-12T12:06:16.000Z</time>
      </trkpt>
      <trkpt lat="43.61023" lon="0.49935">
        <ele>195</ele>
        <time>2020-01-12T12:06:18.000Z</time>
      </trkpt>
      <trkpt lat="43.61023" lon="0.49935">
        <ele>195</ele>
        <time>2020-01-12T12:06:20.000Z</time>
      </trkpt>
      <trkpt lat="43.61023" lon="0.49935">
        <ele>195</ele>
        <time>2020-01-12T12:06:22.000Z</time>
      </trkpt>
      <trkpt lat="43.61024" lon="0.49934">
        <ele>195</ele>
        <time>2020-01-12T12:06:24.000Z</time>
      </trkpt>
      <trkpt lat="43.61024" lon="0.49933">
        <ele>195</ele>
        <time>2020-01-12T12:06:26.000Z</time>
      </trkpt>
      <trkpt lat="43.61024" lon="0.49933">
        <ele>195</ele>
        <time>2020-01-12T12:06:28.000Z</time>
      </trkpt>
      <trkpt lat="43.61024" lon="0.49934">
        <ele>195</ele>
        <time>2020-01-12T12:06:30.000Z</time>
      </trkpt>
      <trkpt lat="43.61025" lon="0.49933">
        <ele>195</ele>
        <time>2020-01-12T12:06:32.000Z</time>
      </trkpt>
      <trkpt lat="43.61025" lon="0.49933">
        <ele>195</ele>
        <time>2020-01-12T12:06:34.000Z</time>
      </trkpt>
      <trkpt lat="43.61025" lon="0.49933">
        <ele>195</ele>
        <time>2020-01-12T12:06:36.000Z</time>
      </trkpt>
      <trkpt lat="43.61025" lon="0.49933">
        <ele>195</ele>
        <time>2020-01-12T12:06:38.000Z</time>
      </trkpt>
      <trkpt lat="43.61025" lon="0.49933">
        <ele>195</ele>
        <time>2020-01-12T12:06:40.000Z</time>
      </trkpt>
      <trkpt lat="43.61025" lon="0.49933">
        <ele>195</ele>
        <time>2020-01-12T12:06:42.000Z</time>
      </trkpt>
      <trkpt lat="43.61025" lon="0.49933">
        <ele>195</ele>
        <time>2020-01-12T12:06:44.000Z</time>
      </trkpt>
      <trkpt lat="43.61025" lon="0.49933">
        <ele>195</ele>
        <time>2020-01-12T12:06:46.000Z</time>
      </trkpt>
      <trkpt lat="43.61024" lon="0.49932">
        <ele>195</ele>
        <time>2020-01-12T12:06:48.000Z</time>
      </trkpt>
      <trkpt lat="43.61023" lon="0.49932">
        <ele>195</ele>
        <time>2020-01-12T12:06:50.000Z</time>
      </trkpt>
      <trkpt lat="43.61023" lon="0.49932">
        <ele>195</ele>
        <time>2020-01-12T12:06:52.000Z</time>
      </trkpt>
      <trkpt lat="43.61024" lon="0.49932">
        <ele>195</ele>
        <time>2020-01-12T12:06:54.000Z</time>
      </trkpt>
      <trkpt lat="43.61024" lon="0.49931">
        <ele>195</ele>
        <time>2020-01-12T12:06:56.000Z</time>
      </trkpt>
      <trkpt lat="43.61023" lon="0.49931">
        <ele>195</ele>
        <time>2020-01-12T12:06:58.000Z</time>
      </trkpt>
      <trkpt lat="43.61023" lon="0.4993">
        <ele>195</ele>
        <time>2020-01-12T12:07:00.000Z</time>
      </trkpt>
      <trkpt lat="43.61023" lon="0.4993">
        <ele>195</ele>
        <time>2020-01-12T12:07:02.000Z</time>
      </trkpt>
      <trkpt lat="43.61023" lon="0.4993">
        <ele>195</ele>
        <time>2020-01-12T12:07:04.000Z</time>
      </trkpt>
      <trkpt lat="43.61023" lon="0.4993">
        <ele>195</ele>
        <time>2020-01-12T12:07:06.000Z</time>
      </trkpt>
      <trkpt lat="43.61023" lon="0.4993">
        <ele>195</ele>
        <time>2020-01-12T12:07:08.000Z</time>
      </trkpt>
      <trkpt lat="43.61023" lon="0.4993">
        <ele>195</ele>
        <time>2020-01-12T12:07:10.000Z</time>
      </trkpt>
      <trkpt lat="43.61024" lon="0.49929">
        <ele>195</ele>
        <time>2020-01-12T12:07:12.000Z</time>
      </trkpt>
      <trkpt lat="43.61024" lon="0.49929">
        <ele>195</ele>
        <time>2020-01-12T12:07:14.000Z</time>
      </trkpt>
      <trkpt lat="43.61024" lon="0.49929">
        <ele>195</ele>
        <time>2020-01-12T12:07:16.000Z</time>
      </trkpt>
      <trkpt lat="43.61024" lon="0.49929">
        <ele>195</ele>
        <time>2020-01-12T12:07:18.000Z</time>
      </trkpt>
      <trkpt lat="43.61024" lon="0.49929">
        <ele>195</ele>
        <time>2020-01-12T12:07:20.000Z</time>
      </trkpt>
      <trkpt lat="43.61024" lon="0.49929">
        <ele>195</ele>
        <time>2020-01-12T12:07:22.000Z</time>
      </trkpt>
      <trkpt lat="43.61024" lon="0.49929">
        <ele>195</ele>
        <time>2020-01-12T12:07:24.000Z</time>
      </trkpt>
      <trkpt lat="43.61024" lon="0.49929">
        <ele>195</ele>
        <time>2020-01-12T12:07:26.000Z</time>
      </trkpt>
      <trkpt lat="43.61024" lon="0.49932">
        <ele>195</ele>
        <time>2020-01-12T12:07:28.000Z</time>
      </trkpt>
      <trkpt lat="43.61023" lon="0.49933">
        <ele>195</ele>
        <time>2020-01-12T12:07:30.000Z</time>
      </trkpt>
      <trkpt lat="43.61023" lon="0.49933">
        <ele>195</ele>
        <time>2020-01-12T12:07:32.000Z</time>
      </trkpt>
      <trkpt lat="43.61023" lon="0.49933">
        <ele>195</ele>
        <time>2020-01-12T12:07:34.000Z</time>
      </trkpt>
      <trkpt lat="43.61023" lon="0.49933">
        <ele>195</ele>
        <time>2020-01-12T12:07:36.000Z</time>
      </trkpt>
      <trkpt lat="43.61023" lon="0.49933">
        <ele>195</ele>
        <time>2020-01-12T12:07:38.000Z</time>
      </trkpt>
      <trkpt lat="43.61023" lon="0.49933">
        <ele>195</ele>
        <time>2020-01-12T12:07:40.000Z</time>
      </trkpt>
      <trkpt lat="43.61023" lon="0.49933">
        <ele>195</ele>
        <time>2020-01-12T12:07:42.000Z</time>
      </trkpt>
      <trkpt lat="43.61023" lon="0.49933">
        <ele>195</ele>
        <time>2020-01-12T12:07:44.000Z</time>
      </trkpt>
      <trkpt lat="43.61023" lon="0.49933">
        <ele>195</ele>
        <time>2020-01-12T12:07:46.000Z</time>
      </trkpt>
      <trkpt lat="43.61023" lon="0.49933">
        <ele>195</ele>
        <time>2020-01-12T12:07:48.000Z</time>
      </trkpt>
      <trkpt lat="43.61023" lon="0.49933">
        <ele>195</ele>
        <time>2020-01-12T12:07:50.000Z</time>
      </trkpt>
      <trkpt lat="43.61023" lon="0.49932">
        <ele>195</ele>
        <time>2020-01-12T12:07:52.000Z</time>
      </trkpt>
      <trkpt lat="43.61023" lon="0.49932">
        <ele>195</ele>
        <time>2020-01-12T12:07:54.000Z</time>
      </trkpt>
      <trkpt lat="43.61023" lon="0.49932">
        <ele>195</ele>
        <time>2020-01-12T12:07:56.000Z</time>
      </trkpt>
      <trkpt lat="43.61023" lon="0.49932">
        <ele>195</ele>
        <time>2020-01-12T12:07:58.000Z</time>
      </trkpt>
      <trkpt lat="43.61023" lon="0.49932">
        <ele>195</ele>
        <time>2020-01-12T12:08:00.000Z</time>
      </trkpt>
      <trkpt lat="43.61023" lon="0.49932">
        <ele>195</ele>
        <time>2020-01-12T12:08:02.000Z</time>
      </trkpt>
      <trkpt lat="43.61023" lon="0.49932">
        <ele>195</ele>
        <time>2020-01-12T12:08:04.000Z</time>
      </trkpt>
      <trkpt lat="43.61022" lon="0.49932">
        <ele>195</ele>
        <time>2020-01-12T12:08:06.000Z</time>
      </trkpt>
      <trkpt lat="43.61022" lon="0.49932">
        <ele>195</ele>
        <time>2020-01-12T12:08:08.000Z</time>
      </trkpt>
      <trkpt lat="43.61022" lon="0.49931">
        <ele>195</ele>
        <time>2020-01-12T12:08:10.000Z</time>
      </trkpt>
      <trkpt lat="43.61022" lon="0.49932">
        <ele>195</ele>
        <time>2020-01-12T12:08:12.000Z</time>
      </trkpt>
      <trkpt lat="43.61022" lon="0.49932">
        <ele>195</ele>
        <time>2020-01-12T12:08:14.000Z</time>
      </trkpt>
      <trkpt lat="43.61022" lon="0.49932">
        <ele>195</ele>
        <time>2020-01-12T12:08:16.000Z</time>
      </trkpt>
      <trkpt lat="43.61022" lon="0.49931">
        <ele>195</ele>
        <time>2020-01-12T12:08:18.000Z</time>
      </trkpt>
      <trkpt lat="43.61023" lon="0.49931">
        <ele>195</ele>
        <time>2020-01-12T12:08:20.000Z</time>
      </trkpt>
      <trkpt lat="43.61023" lon="0.4993">
        <ele>195</ele>
        <time>2020-01-12T12:08:22.000Z</time>
      </trkpt>
      <trkpt lat="43.61023" lon="0.4993">
        <ele>195</ele>
        <time>2020-01-12T12:08:24.000Z</time>
      </trkpt>
      <trkpt lat="43.61023" lon="0.4993">
        <ele>195</ele>
        <time>2020-01-12T12:08:26.000Z</time>
      </trkpt>
      <trkpt lat="43.61023" lon="0.4993">
        <ele>195</ele>
        <time>2020-01-12T12:08:28.000Z</time>
      </trkpt>
      <trkpt lat="43.61023" lon="0.49929">
        <ele>195</ele>
        <time>2020-01-12T12:08:30.000Z</time>
      </trkpt>
      <trkpt lat="43.61023" lon="0.49928">
        <ele>195</ele>
        <time>2020-01-12T12:08:32.000Z</time>
      </trkpt>
      <trkpt lat="43.61023" lon="0.49928">
        <ele>195</ele>
        <time>2020-01-12T12:08:34.000Z</time>
      </trkpt>
      <trkpt lat="43.61023" lon="0.49927">
        <ele>195</ele>
        <time>2020-01-12T12:08:36.000Z</time>
      </trkpt>
      <trkpt lat="43.61023" lon="0.49927">
        <ele>195</ele>
        <time>2020-01-12T12:08:38.000Z</time>
      </trkpt>
      <trkpt lat="43.61023" lon="0.49926">
        <ele>195</ele>
        <time>2020-01-12T12:08:40.000Z</time>
      </trkpt>
      <trkpt lat="43.61023" lon="0.49926">
        <ele>195</ele>
        <time>2020-01-12T12:08:42.000Z</time>
      </trkpt>
      <trkpt lat="43.61024" lon="0.49927">
        <ele>195</ele>
        <time>2020-01-12T12:08:44.000Z</time>
      </trkpt>
      <trkpt lat="43.61024" lon="0.49928">
        <ele>195</ele>
        <time>2020-01-12T12:08:46.000Z</time>
      </trkpt>
      <trkpt lat="43.61024" lon="0.49928">
        <ele>195</ele>
        <time>2020-01-12T12:08:48.000Z</time>
      </trkpt>
      <trkpt lat="43.61025" lon="0.49929">
        <ele>195</ele>
        <time>2020-01-12T12:08:50.000Z</time>
      </trkpt>
      <trkpt lat="43.61026" lon="0.49929">
        <ele>195</ele>
        <time>2020-01-12T12:08:52.000Z</time>
      </trkpt>
      <trkpt lat="43.61026" lon="0.4993">
        <ele>195</ele>
        <time>2020-01-12T12:08:54.000Z</time>
      </trkpt>
      <trkpt lat="43.61026" lon="0.49931">
        <ele>195</ele>
        <time>2020-01-12T12:08:56.000Z</time>
      </trkpt>
      <trkpt lat="43.61026" lon="0.49931">
        <ele>195</ele>
        <time>2020-01-12T12:08:58.000Z</time>
      </trkpt>
      <trkpt lat="43.61027" lon="0.49931">
        <ele>195</ele>
        <time>2020-01-12T12:09:00.000Z</time>
      </trkpt>
      <trkpt lat="43.61027" lon="0.49931">
        <ele>195</ele>
        <time>2020-01-12T12:09:02.000Z</time>
      </trkpt>
      <trkpt lat="43.61027" lon="0.49932">
        <ele>195</ele>
        <time>2020-01-12T12:09:04.000Z</time>
      </trkpt>
      <trkpt lat="43.61027" lon="0.49932">
        <ele>195</ele>
        <time>2020-01-12T12:09:06.000Z</time>
      </trkpt>
      <trkpt lat="43.61027" lon="0.49932">
        <ele>195</ele>
        <time>2020-01-12T12:09:08.000Z</time>
      </trkpt>
      <trkpt lat="43.61027" lon="0.49932">
        <ele>195</ele>
        <time>2020-01-12T12:09:10.000Z</time>
      </trkpt>
      <trkpt lat="43.61026" lon="0.49933">
        <ele>195</ele>
        <time>2020-01-12T12:09:12.000Z</time>
      </trkpt>
      <trkpt lat="43.61025" lon="0.49934">
        <ele>195</ele>
        <time>2020-01-12T12:09:14.000Z</time>
      </trkpt>
      <trkpt lat="43.61025" lon="0.49935">
        <ele>195</ele>
        <time>2020-01-12T12:09:16.000Z</time>
      </trkpt>
      <trkpt lat="43.61025" lon="0.49935">
        <ele>195</ele>
        <time>2020-01-12T12:09:18.000Z</time>
      </trkpt>
      <trkpt lat="43.61025" lon="0.49935">
        <ele>195</ele>
        <time>2020-01-12T12:09:20.000Z</time>
      </trkpt>
      <trkpt lat="43.61025" lon="0.49934">
        <ele>195</ele>
        <time>2020-01-12T12:09:22.000Z</time>
      </trkpt>
      <trkpt lat="43.61026" lon="0.49934">
        <ele>195</ele>
        <time>2020-01-12T12:09:24.000Z</time>
      </trkpt>
      <trkpt lat="43.61026" lon="0.49933">
        <ele>195</ele>
        <time>2020-01-12T12:09:26.000Z</time>
      </trkpt>
      <trkpt lat="43.61026" lon="0.49933">
        <ele>195</ele>
        <time>2020-01-12T12:09:28.000Z</time>
      </trkpt>
      <trkpt lat="43.61026" lon="0.49932">
        <ele>195</ele>
        <time>2020-01-12T12:09:30.000Z</time>
      </trkpt>
      <trkpt lat="43.61026" lon="0.49932">
        <ele>195</ele>
        <time>2020-01-12T12:09:32.000Z</time>
      </trkpt>
      <trkpt lat="43.61026" lon="0.49933">
        <ele>195</ele>
        <time>2020-01-12T12:09:34.000Z</time>
      </trkpt>
      <trkpt lat="43.61026" lon="0.49933">
        <ele>195</ele>
        <time>2020-01-12T12:09:36.000Z</time>
      </trkpt>
      <trkpt lat="43.61026" lon="0.49933">
        <ele>195</ele>
        <time>2020-01-12T12:09:38.000Z</time>
      </trkpt>
      <trkpt lat="43.61026" lon="0.49931">
        <ele>195</ele>
        <time>2020-01-12T12:09:40.000Z</time>
      </trkpt>
      <trkpt lat="43.61026" lon="0.49931">
        <ele>195</ele>
        <time>2020-01-12T12:09:42.000Z</time>
      </trkpt>
      <trkpt lat="43.61026" lon="0.49931">
        <ele>195</ele>
        <time>2020-01-12T12:09:44.000Z</time>
      </trkpt>
      <trkpt lat="43.61025" lon="0.49931">
        <ele>195</ele>
        <time>2020-01-12T12:09:46.000Z</time>
      </trkpt>
      <trkpt lat="43.61025" lon="0.49931">
        <ele>195</ele>
        <time>2020-01-12T12:09:48.000Z</time>
      </trkpt>
      <trkpt lat="43.61025" lon="0.4993">
        <ele>195</ele>
        <time>2020-01-12T12:09:50.000Z</time>
      </trkpt>
      <trkpt lat="43.61026" lon="0.49929">
        <ele>195</ele>
        <time>2020-01-12T12:09:52.000Z</time>
      </trkpt>
      <trkpt lat="43.61026" lon="0.49929">
        <ele>195</ele>
        <time>2020-01-12T12:09:54.000Z</time>
      </trkpt>
      <trkpt lat="43.61026" lon="0.49929">
        <ele>195</ele>
        <time>2020-01-12T12:09:56.000Z</time>
      </trkpt>
      <trkpt lat="43.61026" lon="0.49929">
        <ele>195</ele>
        <time>2020-01-12T12:09:58.000Z</time>
      </trkpt>
      <trkpt lat="43.61026" lon="0.49929">
        <ele>195</ele>
        <time>2020-01-12T12:10:00.000Z</time>
      </trkpt>
      <trkpt lat="43.61027" lon="0.49929">
        <ele>195</ele>
        <time>2020-01-12T12:10:02.000Z</time>
      </trkpt>
      <trkpt lat="43.61027" lon="0.49929">
        <ele>195</ele>
        <time>2020-01-12T12:10:04.000Z</time>
      </trkpt>
      <trkpt lat="43.61027" lon="0.4993">
        <ele>195</ele>
        <time>2020-01-12T12:10:06.000Z</time>
      </trkpt>
      <trkpt lat="43.61027" lon="0.4993">
        <ele>195</ele>
        <time>2020-01-12T12:10:08.000Z</time>
      </trkpt>
      <trkpt lat="43.61027" lon="0.4993">
        <ele>195</ele>
        <time>2020-01-12T12:10:10.000Z</time>
      </trkpt>
      <trkpt lat="43.61027" lon="0.49931">
        <ele>195</ele>
        <time>2020-01-12T12:10:12.000Z</time>
      </trkpt>
      <trkpt lat="43.61026" lon="0.49931">
        <ele>195</ele>
        <time>2020-01-12T12:10:14.000Z</time>
      </trkpt>
      <trkpt lat="43.61027" lon="0.49931">
        <ele>195</ele>
        <time>2020-01-12T12:10:16.000Z</time>
      </trkpt>
      <trkpt lat="43.61027" lon="0.49931">
        <ele>195</ele>
        <time>2020-01-12T12:10:18.000Z</time>
      </trkpt>
      <trkpt lat="43.61027" lon="0.49931">
        <ele>195</ele>
        <time>2020-01-12T12:10:20.000Z</time>
      </trkpt>
      <trkpt lat="43.61027" lon="0.49931">
        <ele>195</ele>
        <time>2020-01-12T12:10:22.000Z</time>
      </trkpt>
      <trkpt lat="43.61027" lon="0.49931">
        <ele>195</ele>
        <time>2020-01-12T12:10:24.000Z</time>
      </trkpt>
      <trkpt lat="43.61026" lon="0.49931">
        <ele>195</ele>
        <time>2020-01-12T12:10:26.000Z</time>
      </trkpt>
      <trkpt lat="43.61027" lon="0.49931">
        <ele>195</ele>
        <time>2020-01-12T12:10:28.000Z</time>
      </trkpt>
      <trkpt lat="43.61026" lon="0.49932">
        <ele>195</ele>
        <time>2020-01-12T12:10:30.000Z</time>
      </trkpt>
      <trkpt lat="43.61027" lon="0.49932">
        <ele>195</ele>
        <time>2020-01-12T12:10:32.000Z</time>
      </trkpt>
      <trkpt lat="43.61027" lon="0.49932">
        <ele>195</ele>
        <time>2020-01-12T12:10:34.000Z</time>
      </trkpt>
      <trkpt lat="43.61027" lon="0.49932">
        <ele>195</ele>
        <time>2020-01-12T12:10:36.000Z</time>
      </trkpt>
      <trkpt lat="43.61027" lon="0.49932">
        <ele>195</ele>
        <time>2020-01-12T12:10:38.000Z</time>
      </trkpt>
      <trkpt lat="43.61027" lon="0.49932">
        <ele>195</ele>
        <time>2020-01-12T12:10:40.000Z</time>
      </trkpt>
      <trkpt lat="43.61027" lon="0.49931">
        <ele>195</ele>
        <time>2020-01-12T12:10:42.000Z</time>
      </trkpt>
      <trkpt lat="43.61027" lon="0.49931">
        <ele>195</ele>
        <time>2020-01-12T12:10:44.000Z</time>
      </trkpt>
      <trkpt lat="43.61027" lon="0.49932">
        <ele>195</ele>
        <time>2020-01-12T12:10:46.000Z</time>
      </trkpt>
      <trkpt lat="43.61028" lon="0.49932">
        <ele>195</ele>
        <time>2020-01-12T12:10:48.000Z</time>
      </trkpt>
      <trkpt lat="43.61027" lon="0.49932">
        <ele>195</ele>
        <time>2020-01-12T12:10:50.000Z</time>
      </trkpt>
      <trkpt lat="43.61027" lon="0.49932">
        <ele>195</ele>
        <time>2020-01-12T12:10:52.000Z</time>
      </trkpt>
      <trkpt lat="43.61027" lon="0.49932">
        <ele>195</ele>
        <time>2020-01-12T12:10:54.000Z</time>
      </trkpt>
      <trkpt lat="43.61026" lon="0.49933">
        <ele>195</ele>
        <time>2020-01-12T12:10:56.000Z</time>
      </trkpt>
      <trkpt lat="43.61026" lon="0.49933">
        <ele>195</ele>
        <time>2020-01-12T12:10:58.000Z</time>
      </trkpt>
      <trkpt lat="43.61026" lon="0.49933">
        <ele>195</ele>
        <time>2020-01-12T12:11:00.000Z</time>
      </trkpt>
      <trkpt lat="43.61026" lon="0.49933">
        <ele>195</ele>
        <time>2020-01-12T12:11:02.000Z</time>
      </trkpt>
      <trkpt lat="43.61027" lon="0.49933">
        <ele>195</ele>
        <time>2020-01-12T12:11:04.000Z</time>
      </trkpt>
      <trkpt lat="43.61027" lon="0.49933">
        <ele>195</ele>
        <time>2020-01-12T12:11:06.000Z</time>
      </trkpt>
      <trkpt lat="43.61027" lon="0.49933">
        <ele>195</ele>
        <time>2020-01-12T12:11:08.000Z</time>
      </trkpt>
      <trkpt lat="43.61027" lon="0.49933">
        <ele>195</ele>
        <time>2020-01-12T12:11:10.000Z</time>
      </trkpt>
      <trkpt lat="43.61027" lon="0.49933">
        <ele>195</ele>
        <time>2020-01-12T12:11:12.000Z</time>
      </trkpt>
      <trkpt lat="43.61027" lon="0.49933">
        <ele>195</ele>
        <time>2020-01-12T12:11:14.000Z</time>
      </trkpt>
      <trkpt lat="43.61027" lon="0.49933">
        <ele>195</ele>
        <time>2020-01-12T12:11:16.000Z</time>
      </trkpt>
      <trkpt lat="43.61027" lon="0.49933">
        <ele>195</ele>
        <time>2020-01-12T12:11:18.000Z</time>
      </trkpt>
      <trkpt lat="43.61027" lon="0.49933">
        <ele>195</ele>
        <time>2020-01-12T12:11:20.000Z</time>
      </trkpt>
      <trkpt lat="43.61027" lon="0.49932">
        <ele>195</ele>
        <time>2020-01-12T12:11:22.000Z</time>
      </trkpt>
      <trkpt lat="43.61027" lon="0.49932">
        <ele>195</ele>
        <time>2020-01-12T12:11:24.000Z</time>
      </trkpt>
      <trkpt lat="43.61027" lon="0.49932">
        <ele>195</ele>
        <time>2020-01-12T12:11:26.000Z</time>
      </trkpt>
      <trkpt lat="43.61028" lon="0.49932">
        <ele>195</ele>
        <time>2020-01-12T12:11:28.000Z</time>
      </trkpt>
      <trkpt lat="43.61028" lon="0.49932">
        <ele>195</ele>
        <time>2020-01-12T12:11:30.000Z</time>
      </trkpt>
      <trkpt lat="43.61028" lon="0.49932">
        <ele>195</ele>
        <time>2020-01-12T12:11:32.000Z</time>
      </trkpt>
      <trkpt lat="43.61028" lon="0.49932">
        <ele>195</ele>
        <time>2020-01-12T12:11:34.000Z</time>
      </trkpt>
      <trkpt lat="43.61028" lon="0.49933">
        <ele>195</ele>
        <time>2020-01-12T12:11:36.000Z</time>
      </trkpt>
      <trkpt lat="43.61028" lon="0.49933">
        <ele>195</ele>
        <time>2020-01-12T12:11:38.000Z</time>
      </trkpt>
      <trkpt lat="43.61028" lon="0.49933">
        <ele>195</ele>
        <time>2020-01-12T12:11:40.000Z</time>
      </trkpt>
      <trkpt lat="43.61028" lon="0.49933">
        <ele>195</ele>
        <time>2020-01-12T12:11:42.000Z</time>
      </trkpt>
      <trkpt lat="43.61028" lon="0.49933">
        <ele>195</ele>
        <time>2020-01-12T12:11:44.000Z</time>
      </trkpt>
      <trkpt lat="43.61028" lon="0.49933">
        <ele>195</ele>
        <time>2020-01-12T12:11:46.000Z</time>
      </trkpt>
      <trkpt lat="43.61028" lon="0.49934">
        <ele>195</ele>
        <time>2020-01-12T12:11:48.000Z</time>
      </trkpt>
      <trkpt lat="43.61027" lon="0.49934">
        <ele>195</ele>
        <time>2020-01-12T12:11:50.000Z</time>
      </trkpt>
      <trkpt lat="43.61027" lon="0.49934">
        <ele>195</ele>
        <time>2020-01-12T12:11:52.000Z</time>
      </trkpt>
      <trkpt lat="43.61027" lon="0.49934">
        <ele>195</ele>
        <time>2020-01-12T12:11:54.000Z</time>
      </trkpt>
      <trkpt lat="43.61027" lon="0.49933">
        <ele>195</ele>
        <time>2020-01-12T12:11:56.000Z</time>
      </trkpt>
      <trkpt lat="43.61027" lon="0.49933">
        <ele>195</ele>
        <time>2020-01-12T12:11:58.000Z</time>
      </trkpt>
      <trkpt lat="43.61027" lon="0.49933">
        <ele>195</ele>
        <time>2020-01-12T12:12:00.000Z</time>
      </trkpt>
      <trkpt lat="43.61027" lon="0.49933">
        <ele>195</ele>
        <time>2020-01-12T12:12:02.000Z</time>
      </trkpt>
      <trkpt lat="43.61027" lon="0.49933">
        <ele>195</ele>
        <time>2020-01-12T12:12:04.000Z</time>
      </trkpt>
      <trkpt lat="43.61027" lon="0.49933">
        <ele>195</ele>
        <time>2020-01-12T12:12:06.000Z</time>
      </trkpt>
      <trkpt lat="43.61026" lon="0.49933">
        <ele>195</ele>
        <time>2020-01-12T12:12:08.000Z</time>
      </trkpt>
      <trkpt lat="43.61026" lon="0.49932">
        <ele>195</ele>
        <time>2020-01-12T12:12:10.000Z</time>
      </trkpt>
      <trkpt lat="43.61026" lon="0.49932">
        <ele>195</ele>
        <time>2020-01-12T12:12:12.000Z</time>
      </trkpt>
      <trkpt lat="43.61026" lon="0.49932">
        <ele>195</ele>
        <time>2020-01-12T12:12:14.000Z</time>
      </trkpt>
      <trkpt lat="43.61026" lon="0.49932">
        <ele>195</ele>
        <time>2020-01-12T12:12:16.000Z</time>
      </trkpt>
      <trkpt lat="43.61026" lon="0.49932">
        <ele>195</ele>
        <time>2020-01-12T12:12:18.000Z</time>
      </trkpt>
      <trkpt lat="43.61026" lon="0.49932">
        <ele>195</ele>
        <time>2020-01-12T12:12:20.000Z</time>
      </trkpt>
      <trkpt lat="43.61026" lon="0.49932">
        <ele>195</ele>
        <time>2020-01-12T12:12:22.000Z</time>
      </trkpt>
      <trkpt lat="43.61026" lon="0.49932">
        <ele>195</ele>
        <time>2020-01-12T12:12:24.000Z</time>
      </trkpt>
      <trkpt lat="43.61027" lon="0.49932">
        <ele>195</ele>
        <time>2020-01-12T12:12:26.000Z</time>
      </trkpt>
      <trkpt lat="43.61027" lon="0.49932">
        <ele>195</ele>
        <time>2020-01-12T12:12:28.000Z</time>
      </trkpt>
      <trkpt lat="43.61027" lon="0.49932">
        <ele>195</ele>
        <time>2020-01-12T12:12:30.000Z</time>
      </trkpt>
      <trkpt lat="43.61027" lon="0.49932">
        <ele>195</ele>
        <time>2020-01-12T12:12:32.000Z</time>
      </trkpt>
      <trkpt lat="43.61027" lon="0.49932">
        <ele>195</ele>
        <time>2020-01-12T12:12:34.000Z</time>
      </trkpt>
      <trkpt lat="43.61027" lon="0.49932">
        <ele>195</ele>
        <time>2020-01-12T12:12:36.000Z</time>
      </trkpt>
      <trkpt lat="43.61027" lon="0.49932">
        <ele>195</ele>
        <time>2020-01-12T12:12:38.000Z</time>
      </trkpt>
      <trkpt lat="43.61027" lon="0.49932">
        <ele>195</ele>
        <time>2020-01-12T12:12:40.000Z</time>
      </trkpt>
      <trkpt lat="43.61027" lon="0.49932">
        <ele>195</ele>
        <time>2020-01-12T12:12:42.000Z</time>
      </trkpt>
      <trkpt lat="43.61027" lon="0.49932">
        <ele>195</ele>
        <time>2020-01-12T12:12:44.000Z</time>
      </trkpt>
      <trkpt lat="43.61027" lon="0.49932">
        <ele>195</ele>
        <time>2020-01-12T12:12:46.000Z</time>
      </trkpt>
      <trkpt lat="43.61027" lon="0.49932">
        <ele>195</ele>
        <time>2020-01-12T12:12:48.000Z</time>
      </trkpt>
      <trkpt lat="43.61027" lon="0.49932">
        <ele>195</ele>
        <time>2020-01-12T12:12:50.000Z</time>
      </trkpt>
      <trkpt lat="43.61027" lon="0.49932">
        <ele>195</ele>
        <time>2020-01-12T12:12:52.000Z</time>
      </trkpt>
      <trkpt lat="43.61027" lon="0.4993">
        <ele>195</ele>
        <time>2020-01-12T12:12:54.000Z</time>
      </trkpt>
      <trkpt lat="43.61027" lon="0.49929">
        <ele>195</ele>
        <time>2020-01-12T12:12:56.000Z</time>
      </trkpt>
      <trkpt lat="43.61028" lon="0.49927">
        <ele>195</ele>
        <time>2020-01-12T12:12:58.000Z</time>
      </trkpt>
      <trkpt lat="43.61029" lon="0.49927">
        <ele>195</ele>
        <time>2020-01-12T12:13:00.000Z</time>
      </trkpt>
      <trkpt lat="43.61029" lon="0.49927">
        <ele>195</ele>
        <time>2020-01-12T12:13:02.000Z</time>
      </trkpt>
      <trkpt lat="43.61029" lon="0.49928">
        <ele>195</ele>
        <time>2020-01-12T12:13:04.000Z</time>
      </trkpt>
      <trkpt lat="43.61029" lon="0.49928">
        <ele>195</ele>
        <time>2020-01-12T12:13:06.000Z</time>
      </trkpt>
      <trkpt lat="43.61029" lon="0.49935">
        <ele>194</ele>
        <time>2020-01-12T12:13:08.000Z</time>
      </trkpt>
      <trkpt lat="43.61029" lon="0.49936">
        <ele>194</ele>
        <time>2020-01-12T12:13:10.000Z</time>
      </trkpt>
      <trkpt lat="43.61028" lon="0.49936">
        <ele>195</ele>
        <time>2020-01-12T12:13:12.000Z</time>
      </trkpt>
      <trkpt lat="43.61028" lon="0.49935">
        <ele>195</ele>
        <time>2020-01-12T12:13:14.000Z</time>
      </trkpt>
      <trkpt lat="43.61027" lon="0.49935">
        <ele>195</ele>
        <time>2020-01-12T12:13:16.000Z</time>
      </trkpt>
      <trkpt lat="43.61027" lon="0.49935">
        <ele>195</ele>
        <time>2020-01-12T12:13:18.000Z</time>
      </trkpt>
      <trkpt lat="43.61027" lon="0.49935">
        <ele>195</ele>
        <time>2020-01-12T12:13:20.000Z</time>
      </trkpt>
      <trkpt lat="43.61026" lon="0.49934">
        <ele>195</ele>
        <time>2020-01-12T12:13:22.000Z</time>
      </trkpt>
      <trkpt lat="43.61025" lon="0.49933">
        <ele>195</ele>
        <time>2020-01-12T12:13:24.000Z</time>
      </trkpt>
      <trkpt lat="43.61025" lon="0.49933">
        <ele>195</ele>
        <time>2020-01-12T12:13:26.000Z</time>
      </trkpt>
      <trkpt lat="43.61025" lon="0.49933">
        <ele>195</ele>
        <time>2020-01-12T12:13:28.000Z</time>
      </trkpt>
      <trkpt lat="43.61024" lon="0.49933">
        <ele>195</ele>
        <time>2020-01-12T12:13:30.000Z</time>
      </trkpt>
      <trkpt lat="43.61024" lon="0.49933">
        <ele>195</ele>
        <time>2020-01-12T12:13:32.000Z</time>
      </trkpt>
      <trkpt lat="43.61024" lon="0.49933">
        <ele>195</ele>
        <time>2020-01-12T12:13:34.000Z</time>
      </trkpt>
      <trkpt lat="43.61025" lon="0.49933">
        <ele>195</ele>
        <time>2020-01-12T12:13:36.000Z</time>
      </trkpt>
      <trkpt lat="43.61025" lon="0.49933">
        <ele>195</ele>
        <time>2020-01-12T12:13:38.000Z</time>
      </trkpt>
      <trkpt lat="43.61025" lon="0.49933">
        <ele>195</ele>
        <time>2020-01-12T12:13:40.000Z</time>
      </trkpt>
      <trkpt lat="43.61025" lon="0.49933">
        <ele>195</ele>
        <time>2020-01-12T12:13:42.000Z</time>
      </trkpt>
      <trkpt lat="43.61025" lon="0.49932">
        <ele>195</ele>
        <time>2020-01-12T12:13:44.000Z</time>
      </trkpt>
      <trkpt lat="43.61025" lon="0.49933">
        <ele>195</ele>
        <time>2020-01-12T12:13:46.000Z</time>
      </trkpt>
      <trkpt lat="43.61025" lon="0.49932">
        <ele>195</ele>
        <time>2020-01-12T12:13:48.000Z</time>
      </trkpt>
      <trkpt lat="43.61025" lon="0.49932">
        <ele>195</ele>
        <time>2020-01-12T12:13:50.000Z</time>
      </trkpt>
      <trkpt lat="43.61026" lon="0.49932">
        <ele>195</ele>
        <time>2020-01-12T12:13:52.000Z</time>
      </trkpt>
      <trkpt lat="43.61026" lon="0.49931">
        <ele>195</ele>
        <time>2020-01-12T12:13:54.000Z</time>
      </trkpt>
      <trkpt lat="43.61027" lon="0.49931">
        <ele>195</ele>
        <time>2020-01-12T12:13:56.000Z</time>
      </trkpt>
      <trkpt lat="43.61027" lon="0.49931">
        <ele>195</ele>
        <time>2020-01-12T12:13:58.000Z</time>
      </trkpt>
      <trkpt lat="43.61027" lon="0.49931">
        <ele>195</ele>
        <time>2020-01-12T12:14:00.000Z</time>
      </trkpt>
      <trkpt lat="43.61027" lon="0.49931">
        <ele>195</ele>
        <time>2020-01-12T12:14:02.000Z</time>
      </trkpt>
      <trkpt lat="43.61027" lon="0.49931">
        <ele>195</ele>
        <time>2020-01-12T12:14:04.000Z</time>
      </trkpt>
      <trkpt lat="43.61027" lon="0.49931">
        <ele>195</ele>
        <time>2020-01-12T12:14:06.000Z</time>
      </trkpt>
      <trkpt lat="43.61026" lon="0.49931">
        <ele>195</ele>
        <time>2020-01-12T12:14:08.000Z</time>
      </trkpt>
      <trkpt lat="43.61026" lon="0.49931">
        <ele>195</ele>
        <time>2020-01-12T12:14:10.000Z</time>
      </trkpt>
      <trkpt lat="43.61026" lon="0.49931">
        <ele>195</ele>
        <time>2020-01-12T12:14:12.000Z</time>
      </trkpt>
      <trkpt lat="43.61026" lon="0.49932">
        <ele>195</ele>
        <time>2020-01-12T12:14:14.000Z</time>
      </trkpt>
      <trkpt lat="43.61026" lon="0.49932">
        <ele>195</ele>
        <time>2020-01-12T12:14:16.000Z</time>
      </trkpt>
      <trkpt lat="43.61026" lon="0.49932">
        <ele>195</ele>
        <time>2020-01-12T12:14:18.000Z</time>
      </trkpt>
      <trkpt lat="43.61026" lon="0.49932">
        <ele>195</ele>
        <time>2020-01-12T12:14:20.000Z</time>
      </trkpt>
      <trkpt lat="43.61026" lon="0.49932">
        <ele>195</ele>
        <time>2020-01-12T12:14:22.000Z</time>
      </trkpt>
      <trkpt lat="43.61026" lon="0.49932">
        <ele>195</ele>
        <time>2020-01-12T12:14:24.000Z</time>
      </trkpt>
      <trkpt lat="43.61026" lon="0.49932">
        <ele>195</ele>
        <time>2020-01-12T12:14:26.000Z</time>
      </trkpt>
      <trkpt lat="43.61026" lon="0.49932">
        <ele>195</ele>
        <time>2020-01-12T12:14:28.000Z</time>
      </trkpt>
      <trkpt lat="43.61026" lon="0.49932">
        <ele>195</ele>
        <time>2020-01-12T12:14:30.000Z</time>
      </trkpt>
      <trkpt lat="43.61026" lon="0.49932">
        <ele>195</ele>
        <time>2020-01-12T12:14:32.000Z</time>
      </trkpt>
      <trkpt lat="43.61026" lon="0.49932">
        <ele>195</ele>
        <time>2020-01-12T12:14:34.000Z</time>
      </trkpt>
      <trkpt lat="43.61026" lon="0.49932">
        <ele>195</ele>
        <time>2020-01-12T12:14:36.000Z</time>
      </trkpt>
      <trkpt lat="43.61026" lon="0.49932">
        <ele>195</ele>
        <time>2020-01-12T12:14:38.000Z</time>
      </trkpt>
      <trkpt lat="43.61026" lon="0.49932">
        <ele>195</ele>
        <time>2020-01-12T12:14:40.000Z</time>
      </trkpt>
      <trkpt lat="43.61026" lon="0.49932">
        <ele>195</ele>
        <time>2020-01-12T12:14:42.000Z</time>
      </trkpt>
      <trkpt lat="43.61026" lon="0.49932">
        <ele>195</ele>
        <time>2020-01-12T12:14:44.000Z</time>
      </trkpt>
      <trkpt lat="43.61026" lon="0.49932">
        <ele>195</ele>
        <time>2020-01-12T12:14:46.000Z</time>
      </trkpt>
      <trkpt lat="43.61026" lon="0.49932">
        <ele>195</ele>
        <time>2020-01-12T12:14:48.000Z</time>
      </trkpt>
      <trkpt lat="43.61026" lon="0.49932">
        <ele>195</ele>
        <time>2020-01-12T12:14:50.000Z</time>
      </trkpt>
      <trkpt lat="43.61026" lon="0.49932">
        <ele>195</ele>
        <time>2020-01-12T12:14:52.000Z</time>
      </trkpt>
      <trkpt lat="43.61026" lon="0.49932">
        <ele>195</ele>
        <time>2020-01-12T12:14:54.000Z</time>
      </trkpt>
      <trkpt lat="43.61025" lon="0.49932">
        <ele>195</ele>
        <time>2020-01-12T12:14:56.000Z</time>
      </trkpt>
      <trkpt lat="43.61025" lon="0.49932">
        <ele>195</ele>
        <time>2020-01-12T12:14:58.000Z</time>
      </trkpt>
      <trkpt lat="43.61026" lon="0.49932">
        <ele>195</ele>
        <time>2020-01-12T12:15:00.000Z</time>
      </trkpt>
      <trkpt lat="43.61026" lon="0.49932">
        <ele>195</ele>
        <time>2020-01-12T12:15:02.000Z</time>
      </trkpt>
      <trkpt lat="43.61026" lon="0.49931">
        <ele>195</ele>
        <time>2020-01-12T12:15:04.000Z</time>
      </trkpt>
      <trkpt lat="43.61026" lon="0.49931">
        <ele>195</ele>
        <time>2020-01-12T12:15:06.000Z</time>
      </trkpt>
      <trkpt lat="43.61026" lon="0.49931">
        <ele>195</ele>
        <time>2020-01-12T12:15:08.000Z</time>
      </trkpt>
      <trkpt lat="43.61026" lon="0.49932">
        <ele>195</ele>
        <time>2020-01-12T12:15:10.000Z</time>
      </trkpt>
      <trkpt lat="43.61026" lon="0.49932">
        <ele>195</ele>
        <time>2020-01-12T12:15:12.000Z</time>
      </trkpt>
      <trkpt lat="43.61026" lon="0.49933">
        <ele>195</ele>
        <time>2020-01-12T12:15:14.000Z</time>
      </trkpt>
      <trkpt lat="43.61027" lon="0.49933">
        <ele>195</ele>
        <time>2020-01-12T12:15:16.000Z</time>
      </trkpt>
      <trkpt lat="43.61026" lon="0.49932">
        <ele>195</ele>
        <time>2020-01-12T12:15:18.000Z</time>
      </trkpt>
      <trkpt lat="43.61025" lon="0.49931">
        <ele>195</ele>
        <time>2020-01-12T12:15:20.000Z</time>
      </trkpt>
      <trkpt lat="43.61025" lon="0.49931">
        <ele>195</ele>
        <time>2020-01-12T12:15:22.000Z</time>
      </trkpt>
      <trkpt lat="43.61025" lon="0.49931">
        <ele>195</ele>
        <time>2020-01-12T12:15:24.000Z</time>
      </trkpt>
      <trkpt lat="43.61025" lon="0.49931">
        <ele>195</ele>
        <time>2020-01-12T12:15:26.000Z</time>
      </trkpt>
      <trkpt lat="43.61025" lon="0.4993">
        <ele>195</ele>
        <time>2020-01-12T12:15:28.000Z</time>
      </trkpt>
      <trkpt lat="43.61025" lon="0.4993">
        <ele>195</ele>
        <time>2020-01-12T12:15:30.000Z</time>
      </trkpt>
      <trkpt lat="43.61025" lon="0.4993">
        <ele>195</ele>
        <time>2020-01-12T12:15:32.000Z</time>
      </trkpt>
      <trkpt lat="43.61026" lon="0.4993">
        <ele>195</ele>
        <time>2020-01-12T12:15:34.000Z</time>
      </trkpt>
      <trkpt lat="43.61026" lon="0.4993">
        <ele>195</ele>
        <time>2020-01-12T12:15:36.000Z</time>
      </trkpt>
      <trkpt lat="43.61026" lon="0.49931">
        <ele>195</ele>
        <time>2020-01-12T12:15:38.000Z</time>
      </trkpt>
      <trkpt lat="43.61026" lon="0.49931">
        <ele>195</ele>
        <time>2020-01-12T12:15:40.000Z</time>
      </trkpt>
      <trkpt lat="43.61026" lon="0.49931">
        <ele>195</ele>
        <time>2020-01-12T12:15:42.000Z</time>
      </trkpt>
      <trkpt lat="43.61026" lon="0.49931">
        <ele>195</ele>
        <time>2020-01-12T12:15:44.000Z</time>
      </trkpt>
      <trkpt lat="43.61026" lon="0.49931">
        <ele>195</ele>
        <time>2020-01-12T12:15:46.000Z</time>
      </trkpt>
      <trkpt lat="43.61027" lon="0.49931">
        <ele>195</ele>
        <time>2020-01-12T12:15:48.000Z</time>
      </trkpt>
      <trkpt lat="43.61027" lon="0.49931">
        <ele>195</ele>
        <time>2020-01-12T12:15:50.000Z</time>
      </trkpt>
      <trkpt lat="43.61027" lon="0.49931">
        <ele>195</ele>
        <time>2020-01-12T12:15:52.000Z</time>
      </trkpt>
      <trkpt lat="43.61027" lon="0.49931">
        <ele>195</ele>
        <time>2020-01-12T12:15:54.000Z</time>
      </trkpt>
      <trkpt lat="43.61027" lon="0.49931">
        <ele>195</ele>
        <time>2020-01-12T12:15:56.000Z</time>
      </trkpt>
      <trkpt lat="43.61027" lon="0.49932">
        <ele>195</ele>
        <time>2020-01-12T12:15:58.000Z</time>
      </trkpt>
      <trkpt lat="43.61027" lon="0.49932">
        <ele>195</ele>
        <time>2020-01-12T12:16:00.000Z</time>
      </trkpt>
      <trkpt lat="43.61026" lon="0.49932">
        <ele>195</ele>
        <time>2020-01-12T12:16:02.000Z</time>
      </trkpt>
      <trkpt lat="43.61026" lon="0.49932">
        <ele>195</ele>
        <time>2020-01-12T12:16:04.000Z</time>
      </trkpt>
      <trkpt lat="43.61026" lon="0.49932">
        <ele>195</ele>
        <time>2020-01-12T12:16:06.000Z</time>
      </trkpt>
      <trkpt lat="43.61026" lon="0.49932">
        <ele>195</ele>
        <time>2020-01-12T12:16:08.000Z</time>
      </trkpt>
      <trkpt lat="43.61026" lon="0.49932">
        <ele>195</ele>
        <time>2020-01-12T12:16:10.000Z</time>
      </trkpt>
      <trkpt lat="43.61026" lon="0.49932">
        <ele>195</ele>
        <time>2020-01-12T12:16:12.000Z</time>
      </trkpt>
      <trkpt lat="43.61027" lon="0.49932">
        <ele>195</ele>
        <time>2020-01-12T12:16:14.000Z</time>
      </trkpt>
      <trkpt lat="43.61026" lon="0.49932">
        <ele>195</ele>
        <time>2020-01-12T12:16:16.000Z</time>
      </trkpt>
      <trkpt lat="43.61026" lon="0.49932">
        <ele>195</ele>
        <time>2020-01-12T12:16:18.000Z</time>
      </trkpt>
      <trkpt lat="43.61027" lon="0.49932">
        <ele>195</ele>
        <time>2020-01-12T12:16:20.000Z</time>
      </trkpt>
      <trkpt lat="43.61027" lon="0.49932">
        <ele>195</ele>
        <time>2020-01-12T12:16:22.000Z</time>
      </trkpt>
      <trkpt lat="43.61027" lon="0.49932">
        <ele>195</ele>
        <time>2020-01-12T12:16:24.000Z</time>
      </trkpt>
      <trkpt lat="43.61027" lon="0.49931">
        <ele>195</ele>
        <time>2020-01-12T12:16:26.000Z</time>
      </trkpt>
      <trkpt lat="43.61027" lon="0.49931">
        <ele>195</ele>
        <time>2020-01-12T12:16:28.000Z</time>
      </trkpt>
      <trkpt lat="43.61027" lon="0.49931">
        <ele>195</ele>
        <time>2020-01-12T12:16:30.000Z</time>
      </trkpt>
      <trkpt lat="43.61027" lon="0.49931">
        <ele>195</ele>
        <time>2020-01-12T12:16:32.000Z</time>
      </trkpt>
      <trkpt lat="43.61027" lon="0.49931">
        <ele>195</ele>
        <time>2020-01-12T12:16:34.000Z</time>
      </trkpt>
      <trkpt lat="43.61027" lon="0.49931">
        <ele>195</ele>
        <time>2020-01-12T12:16:36.000Z</time>
      </trkpt>
      <trkpt lat="43.61027" lon="0.49931">
        <ele>195</ele>
        <time>2020-01-12T12:16:38.000Z</time>
      </trkpt>
      <trkpt lat="43.61028" lon="0.49932">
        <ele>195</ele>
        <time>2020-01-12T12:16:40.000Z</time>
      </trkpt>
      <trkpt lat="43.61028" lon="0.49932">
        <ele>195</ele>
        <time>2020-01-12T12:16:42.000Z</time>
      </trkpt>
      <trkpt lat="43.61028" lon="0.49932">
        <ele>195</ele>
        <time>2020-01-12T12:16:44.000Z</time>
      </trkpt>
      <trkpt lat="43.61028" lon="0.49932">
        <ele>195</ele>
        <time>2020-01-12T12:16:46.000Z</time>
      </trkpt>
      <trkpt lat="43.61028" lon="0.49932">
        <ele>195</ele>
        <time>2020-01-12T12:16:48.000Z</time>
      </trkpt>
      <trkpt lat="43.61028" lon="0.49932">
        <ele>195</ele>
        <time>2020-01-12T12:16:50.000Z</time>
      </trkpt>
      <trkpt lat="43.61028" lon="0.49932">
        <ele>195</ele>
        <time>2020-01-12T12:16:52.000Z</time>
      </trkpt>
      <trkpt lat="43.61028" lon="0.49932">
        <ele>195</ele>
        <time>2020-01-12T12:16:54.000Z</time>
      </trkpt>
      <trkpt lat="43.61028" lon="0.49932">
        <ele>195</ele>
        <time>2020-01-12T12:16:56.000Z</time>
      </trkpt>
      <trkpt lat="43.61028" lon="0.49932">
        <ele>195</ele>
        <time>2020-01-12T12:16:58.000Z</time>
      </trkpt>
      <trkpt lat="43.61028" lon="0.49932">
        <ele>195</ele>
        <time>2020-01-12T12:17:00.000Z</time>
      </trkpt>
      <trkpt lat="43.61027" lon="0.49932">
        <ele>195</ele>
        <time>2020-01-12T12:17:02.000Z</time>
      </trkpt>
      <trkpt lat="43.61027" lon="0.49933">
        <ele>195</ele>
        <time>2020-01-12T12:17:04.000Z</time>
      </trkpt>
      <trkpt lat="43.61027" lon="0.49933">
        <ele>195</ele>
        <time>2020-01-12T12:17:06.000Z</time>
      </trkpt>
      <trkpt lat="43.61027" lon="0.49933">
        <ele>195</ele>
        <time>2020-01-12T12:17:08.000Z</time>
      </trkpt>
      <trkpt lat="43.61027" lon="0.49933">
        <ele>195</ele>
        <time>2020-01-12T12:17:10.000Z</time>
      </trkpt>
      <trkpt lat="43.61027" lon="0.49934">
        <ele>195</ele>
        <time>2020-01-12T12:17:12.000Z</time>
      </trkpt>
      <trkpt lat="43.61027" lon="0.49934">
        <ele>195</ele>
        <time>2020-01-12T12:17:14.000Z</time>
      </trkpt>
      <trkpt lat="43.61027" lon="0.49933">
        <ele>195</ele>
        <time>2020-01-12T12:17:16.000Z</time>
      </trkpt>
      <trkpt lat="43.61027" lon="0.49933">
        <ele>195</ele>
        <time>2020-01-12T12:17:18.000Z</time>
      </trkpt>
      <trkpt lat="43.61027" lon="0.49933">
        <ele>195</ele>
        <time>2020-01-12T12:17:20.000Z</time>
      </trkpt>
      <trkpt lat="43.61027" lon="0.49933">
        <ele>195</ele>
        <time>2020-01-12T12:17:22.000Z</time>
      </trkpt>
      <trkpt lat="43.61027" lon="0.49933">
        <ele>195</ele>
        <time>2020-01-12T12:17:24.000Z</time>
      </trkpt>
      <trkpt lat="43.61027" lon="0.49933">
        <ele>195</ele>
        <time>2020-01-12T12:17:26.000Z</time>
      </trkpt>
      <trkpt lat="43.61027" lon="0.49933">
        <ele>195</ele>
        <time>2020-01-12T12:17:28.000Z</time>
      </trkpt>
      <trkpt lat="43.61027" lon="0.49933">
        <ele>195</ele>
        <time>2020-01-12T12:17:30.000Z</time>
      </trkpt>
      <trkpt lat="43.61027" lon="0.49933">
        <ele>195</ele>
        <time>2020-01-12T12:17:32.000Z</time>
      </trkpt>
      <trkpt lat="43.61027" lon="0.49933">
        <ele>195</ele>
        <time>2020-01-12T12:17:34.000Z</time>
      </trkpt>
      <trkpt lat="43.61027" lon="0.49933">
        <ele>195</ele>
        <time>2020-01-12T12:17:36.000Z</time>
      </trkpt>
      <trkpt lat="43.61027" lon="0.49933">
        <ele>195</ele>
        <time>2020-01-12T12:17:38.000Z</time>
      </trkpt>
      <trkpt lat="43.61027" lon="0.49933">
        <ele>195</ele>
        <time>2020-01-12T12:17:40.000Z</time>
      </trkpt>
      <trkpt lat="43.61027" lon="0.49933">
        <ele>195</ele>
        <time>2020-01-12T12:17:42.000Z</time>
      </trkpt>
      <trkpt lat="43.61027" lon="0.49932">
        <ele>195</ele>
        <time>2020-01-12T12:17:44.000Z</time>
      </trkpt>
      <trkpt lat="43.61027" lon="0.49933">
        <ele>195</ele>
        <time>2020-01-12T12:17:46.000Z</time>
      </trkpt>
      <trkpt lat="43.61027" lon="0.49933">
        <ele>195</ele>
        <time>2020-01-12T12:17:48.000Z</time>
      </trkpt>
      <trkpt lat="43.61027" lon="0.49933">
        <ele>195</ele>
        <time>2020-01-12T12:17:50.000Z</time>
      </trkpt>
      <trkpt lat="43.61027" lon="0.49933">
        <ele>195</ele>
        <time>2020-01-12T12:17:52.000Z</time>
      </trkpt>
      <trkpt lat="43.61027" lon="0.49933">
        <ele>195</ele>
        <time>2020-01-12T12:17:54.000Z</time>
      </trkpt>
      <trkpt lat="43.61026" lon="0.49933">
        <ele>195</ele>
        <time>2020-01-12T12:17:56.000Z</time>
      </trkpt>
      <trkpt lat="43.61026" lon="0.49933">
        <ele>195</ele>
        <time>2020-01-12T12:17:58.000Z</time>
      </trkpt>
      <trkpt lat="43.61026" lon="0.49934">
        <ele>195</ele>
        <time>2020-01-12T12:18:00.000Z</time>
      </trkpt>
      <trkpt lat="43.61026" lon="0.49934">
        <ele>195</ele>
        <time>2020-01-12T12:18:02.000Z</time>
      </trkpt>
      <trkpt lat="43.61026" lon="0.49934">
        <ele>195</ele>
        <time>2020-01-12T12:18:04.000Z</time>
      </trkpt>
      <trkpt lat="43.61026" lon="0.49934">
        <ele>195</ele>
        <time>2020-01-12T12:18:06.000Z</time>
      </trkpt>
      <trkpt lat="43.61026" lon="0.49934">
        <ele>195</ele>
        <time>2020-01-12T12:18:08.000Z</time>
      </trkpt>
      <trkpt lat="43.61027" lon="0.49934">
        <ele>195</ele>
        <time>2020-01-12T12:18:10.000Z</time>
      </trkpt>
      <trkpt lat="43.61027" lon="0.49934">
        <ele>195</ele>
        <time>2020-01-12T12:18:12.000Z</time>
      </trkpt>
      <trkpt lat="43.61027" lon="0.49934">
        <ele>195</ele>
        <time>2020-01-12T12:18:14.000Z</time>
      </trkpt>
      <trkpt lat="43.61027" lon="0.49934">
        <ele>195</ele>
        <time>2020-01-12T12:18:16.000Z</time>
      </trkpt>
      <trkpt lat="43.61027" lon="0.49935">
        <ele>195</ele>
        <time>2020-01-12T12:18:18.000Z</time>
      </trkpt>
      <trkpt lat="43.61028" lon="0.49935">
        <ele>195</ele>
        <time>2020-01-12T12:18:20.000Z</time>
      </trkpt>
      <trkpt lat="43.61028" lon="0.49935">
        <ele>195</ele>
        <time>2020-01-12T12:18:22.000Z</time>
      </trkpt>
      <trkpt lat="43.61029" lon="0.49935">
        <ele>195</ele>
        <time>2020-01-12T12:18:24.000Z</time>
      </trkpt>
      <trkpt lat="43.61029" lon="0.49936">
        <ele>195</ele>
        <time>2020-01-12T12:18:26.000Z</time>
      </trkpt>
      <trkpt lat="43.61029" lon="0.49935">
        <ele>195</ele>
        <time>2020-01-12T12:18:28.000Z</time>
      </trkpt>
      <trkpt lat="43.61029" lon="0.49935">
        <ele>195</ele>
        <time>2020-01-12T12:18:30.000Z</time>
      </trkpt>
      <trkpt lat="43.61029" lon="0.49935">
        <ele>194</ele>
        <time>2020-01-12T12:18:32.000Z</time>
      </trkpt>
      <trkpt lat="43.61029" lon="0.49935">
        <ele>194</ele>
        <time>2020-01-12T12:18:34.000Z</time>
      </trkpt>
      <trkpt lat="43.61029" lon="0.49935">
        <ele>194</ele>
        <time>2020-01-12T12:18:36.000Z</time>
      </trkpt>
      <trkpt lat="43.61029" lon="0.49935">
        <ele>194</ele>
        <time>2020-01-12T12:18:38.000Z</time>
      </trkpt>
      <trkpt lat="43.61029" lon="0.49935">
        <ele>194</ele>
        <time>2020-01-12T12:18:40.000Z</time>
      </trkpt>
      <trkpt lat="43.61029" lon="0.49935">
        <ele>194</ele>
        <time>2020-01-12T12:18:42.000Z</time>
      </trkpt>
      <trkpt lat="43.6103" lon="0.49935">
        <ele>194</ele>
        <time>2020-01-12T12:18:44.000Z</time>
      </trkpt>
      <trkpt lat="43.6103" lon="0.49935">
        <ele>194</ele>
        <time>2020-01-12T12:18:46.000Z</time>
      </trkpt>
      <trkpt lat="43.6103" lon="0.49935">
        <ele>194</ele>
        <time>2020-01-12T12:18:48.000Z</time>
      </trkpt>
      <trkpt lat="43.6103" lon="0.49935">
        <ele>194</ele>
        <time>2020-01-12T12:18:50.000Z</time>
      </trkpt>
      <trkpt lat="43.6103" lon="0.49935">
        <ele>194</ele>
        <time>2020-01-12T12:18:52.000Z</time>
      </trkpt>
      <trkpt lat="43.6103" lon="0.49935">
        <ele>194</ele>
        <time>2020-01-12T12:18:54.000Z</time>
      </trkpt>
      <trkpt lat="43.61029" lon="0.49935">
        <ele>194</ele>
        <time>2020-01-12T12:18:56.000Z</time>
      </trkpt>
      <trkpt lat="43.61029" lon="0.49936">
        <ele>194</ele>
        <time>2020-01-12T12:18:58.000Z</time>
      </trkpt>
      <trkpt lat="43.61029" lon="0.49935">
        <ele>194</ele>
        <time>2020-01-12T12:19:00.000Z</time>
      </trkpt>
      <trkpt lat="43.6103" lon="0.49935">
        <ele>194</ele>
        <time>2020-01-12T12:19:02.000Z</time>
      </trkpt>
      <trkpt lat="43.6103" lon="0.49935">
        <ele>194</ele>
        <time>2020-01-12T12:19:04.000Z</time>
      </trkpt>
      <trkpt lat="43.6103" lon="0.49935">
        <ele>194</ele>
        <time>2020-01-12T12:19:06.000Z</time>
      </trkpt>
      <trkpt lat="43.6103" lon="0.49935">
        <ele>194</ele>
        <time>2020-01-12T12:19:08.000Z</time>
      </trkpt>
      <trkpt lat="43.6103" lon="0.49935">
        <ele>194</ele>
        <time>2020-01-12T12:19:10.000Z</time>
      </trkpt>
      <trkpt lat="43.6103" lon="0.49934">
        <ele>194</ele>
        <time>2020-01-12T12:19:12.000Z</time>
      </trkpt>
      <trkpt lat="43.6103" lon="0.49934">
        <ele>194</ele>
        <time>2020-01-12T12:19:14.000Z</time>
      </trkpt>
      <trkpt lat="43.6103" lon="0.49934">
        <ele>194</ele>
        <time>2020-01-12T12:19:16.000Z</time>
      </trkpt>
      <trkpt lat="43.6103" lon="0.49934">
        <ele>194</ele>
        <time>2020-01-12T12:19:18.000Z</time>
      </trkpt>
      <trkpt lat="43.6103" lon="0.49934">
        <ele>194</ele>
        <time>2020-01-12T12:19:20.000Z</time>
      </trkpt>
      <trkpt lat="43.6103" lon="0.49934">
        <ele>194</ele>
        <time>2020-01-12T12:19:22.000Z</time>
      </trkpt>
      <trkpt lat="43.6103" lon="0.49934">
        <ele>194</ele>
        <time>2020-01-12T12:19:24.000Z</time>
      </trkpt>
      <trkpt lat="43.6103" lon="0.49934">
        <ele>194</ele>
        <time>2020-01-12T12:19:26.000Z</time>
      </trkpt>
      <trkpt lat="43.6103" lon="0.49934">
        <ele>194</ele>
        <time>2020-01-12T12:19:28.000Z</time>
      </trkpt>
      <trkpt lat="43.6103" lon="0.49934">
        <ele>194</ele>
        <time>2020-01-12T12:19:30.000Z</time>
      </trkpt>
      <trkpt lat="43.6103" lon="0.49934">
        <ele>194</ele>
        <time>2020-01-12T12:19:32.000Z</time>
      </trkpt>
      <trkpt lat="43.6103" lon="0.49934">
        <ele>194</ele>
        <time>2020-01-12T12:19:34.000Z</time>
      </trkpt>
      <trkpt lat="43.6103" lon="0.49934">
        <ele>194</ele>
        <time>2020-01-12T12:19:36.000Z</time>
      </trkpt>
      <trkpt lat="43.6103" lon="0.49933">
        <ele>194</ele>
        <time>2020-01-12T12:19:38.000Z</time>
      </trkpt>
      <trkpt lat="43.6103" lon="0.49933">
        <ele>194</ele>
        <time>2020-01-12T12:19:40.000Z</time>
      </trkpt>
      <trkpt lat="43.6103" lon="0.49933">
        <ele>194</ele>
        <time>2020-01-12T12:19:42.000Z</time>
      </trkpt>
      <trkpt lat="43.6103" lon="0.49933">
        <ele>194</ele>
        <time>2020-01-12T12:19:44.000Z</time>
      </trkpt>
      <trkpt lat="43.6103" lon="0.49933">
        <ele>194</ele>
        <time>2020-01-12T12:19:46.000Z</time>
      </trkpt>
      <trkpt lat="43.6103" lon="0.49933">
        <ele>194</ele>
        <time>2020-01-12T12:19:48.000Z</time>
      </trkpt>
      <trkpt lat="43.6103" lon="0.49933">
        <ele>194</ele>
        <time>2020-01-12T12:19:50.000Z</time>
      </trkpt>
      <trkpt lat="43.6103" lon="0.49933">
        <ele>194</ele>
        <time>2020-01-12T12:19:52.000Z</time>
      </trkpt>
      <trkpt lat="43.61029" lon="0.49933">
        <ele>194</ele>
        <time>2020-01-12T12:19:54.000Z</time>
      </trkpt>
      <trkpt lat="43.61029" lon="0.49934">
        <ele>194</ele>
        <time>2020-01-12T12:19:56.000Z</time>
      </trkpt>
      <trkpt lat="43.6103" lon="0.49933">
        <ele>194</ele>
        <time>2020-01-12T12:19:58.000Z</time>
      </trkpt>
      <trkpt lat="43.6103" lon="0.49933">
        <ele>194</ele>
        <time>2020-01-12T12:20:00.000Z</time>
      </trkpt>
      <trkpt lat="43.6103" lon="0.49933">
        <ele>194</ele>
        <time>2020-01-12T12:20:02.000Z</time>
      </trkpt>
      <trkpt lat="43.6103" lon="0.49933">
        <ele>194</ele>
        <time>2020-01-12T12:20:04.000Z</time>
      </trkpt>
      <trkpt lat="43.61029" lon="0.49933">
        <ele>194</ele>
        <time>2020-01-12T12:20:06.000Z</time>
      </trkpt>
      <trkpt lat="43.6103" lon="0.49932">
        <ele>194</ele>
        <time>2020-01-12T12:20:08.000Z</time>
      </trkpt>
      <trkpt lat="43.61029" lon="0.49932">
        <ele>194</ele>
        <time>2020-01-12T12:20:10.000Z</time>
      </trkpt>
      <trkpt lat="43.61029" lon="0.49931">
        <ele>194</ele>
        <time>2020-01-12T12:20:12.000Z</time>
      </trkpt>
      <trkpt lat="43.61029" lon="0.49931">
        <ele>194</ele>
        <time>2020-01-12T12:20:14.000Z</time>
      </trkpt>
      <trkpt lat="43.61029" lon="0.49931">
        <ele>194</ele>
        <time>2020-01-12T12:20:16.000Z</time>
      </trkpt>
      <trkpt lat="43.6103" lon="0.49931">
        <ele>194</ele>
        <time>2020-01-12T12:20:18.000Z</time>
      </trkpt>
      <trkpt lat="43.6103" lon="0.49931">
        <ele>194</ele>
        <time>2020-01-12T12:20:20.000Z</time>
      </trkpt>
      <trkpt lat="43.6103" lon="0.49931">
        <ele>194</ele>
        <time>2020-01-12T12:20:22.000Z</time>
      </trkpt>
      <trkpt lat="43.6103" lon="0.49932">
        <ele>194</ele>
        <time>2020-01-12T12:20:24.000Z</time>
      </trkpt>
      <trkpt lat="43.6103" lon="0.49932">
        <ele>194</ele>
        <time>2020-01-12T12:20:26.000Z</time>
      </trkpt>
      <trkpt lat="43.6103" lon="0.49932">
        <ele>194</ele>
        <time>2020-01-12T12:20:28.000Z</time>
      </trkpt>
      <trkpt lat="43.6103" lon="0.49933">
        <ele>194</ele>
        <time>2020-01-12T12:20:30.000Z</time>
      </trkpt>
      <trkpt lat="43.6103" lon="0.49933">
        <ele>194</ele>
        <time>2020-01-12T12:20:32.000Z</time>
      </trkpt>
      <trkpt lat="43.6103" lon="0.49933">
        <ele>194</ele>
        <time>2020-01-12T12:20:34.000Z</time>
      </trkpt>
      <trkpt lat="43.6103" lon="0.49933">
        <ele>194</ele>
        <time>2020-01-12T12:20:36.000Z</time>
      </trkpt>
      <trkpt lat="43.6103" lon="0.49934">
        <ele>194</ele>
        <time>2020-01-12T12:20:38.000Z</time>
      </trkpt>
      <trkpt lat="43.6103" lon="0.49934">
        <ele>194</ele>
        <time>2020-01-12T12:20:40.000Z</time>
      </trkpt>
      <trkpt lat="43.6103" lon="0.49934">
        <ele>194</ele>
        <time>2020-01-12T12:20:42.000Z</time>
      </trkpt>
      <trkpt lat="43.6103" lon="0.49934">
        <ele>194</ele>
        <time>2020-01-12T12:20:44.000Z</time>
      </trkpt>
      <trkpt lat="43.6103" lon="0.49934">
        <ele>194</ele>
        <time>2020-01-12T12:20:46.000Z</time>
      </trkpt>
      <trkpt lat="43.6103" lon="0.49934">
        <ele>194</ele>
        <time>2020-01-12T12:20:48.000Z</time>
      </trkpt>
      <trkpt lat="43.6103" lon="0.49934">
        <ele>194</ele>
        <time>2020-01-12T12:20:50.000Z</time>
      </trkpt>
      <trkpt lat="43.6103" lon="0.49934">
        <ele>194</ele>
        <time>2020-01-12T12:20:52.000Z</time>
      </trkpt>
      <trkpt lat="43.6103" lon="0.49934">
        <ele>194</ele>
        <time>2020-01-12T12:20:54.000Z</time>
      </trkpt>
      <trkpt lat="43.6103" lon="0.49934">
        <ele>194</ele>
        <time>2020-01-12T12:20:56.000Z</time>
      </trkpt>
      <trkpt lat="43.6103" lon="0.49933">
        <ele>194</ele>
        <time>2020-01-12T12:20:58.000Z</time>
      </trkpt>
      <trkpt lat="43.6103" lon="0.49933">
        <ele>194</ele>
        <time>2020-01-12T12:21:00.000Z</time>
      </trkpt>
      <trkpt lat="43.6103" lon="0.49932">
        <ele>194</ele>
        <time>2020-01-12T12:21:02.000Z</time>
      </trkpt>
      <trkpt lat="43.6103" lon="0.49932">
        <ele>194</ele>
        <time>2020-01-12T12:21:04.000Z</time>
      </trkpt>
      <trkpt lat="43.6103" lon="0.49932">
        <ele>194</ele>
        <time>2020-01-12T12:21:06.000Z</time>
      </trkpt>
      <trkpt lat="43.6103" lon="0.49933">
        <ele>194</ele>
        <time>2020-01-12T12:21:08.000Z</time>
      </trkpt>
      <trkpt lat="43.6103" lon="0.49933">
        <ele>194</ele>
        <time>2020-01-12T12:21:10.000Z</time>
      </trkpt>
      <trkpt lat="43.6103" lon="0.49933">
        <ele>194</ele>
        <time>2020-01-12T12:21:12.000Z</time>
      </trkpt>
      <trkpt lat="43.6103" lon="0.49933">
        <ele>194</ele>
        <time>2020-01-12T12:21:14.000Z</time>
      </trkpt>
      <trkpt lat="43.6103" lon="0.49934">
        <ele>194</ele>
        <time>2020-01-12T12:21:16.000Z</time>
      </trkpt>
      <trkpt lat="43.6103" lon="0.49934">
        <ele>194</ele>
        <time>2020-01-12T12:21:18.000Z</time>
      </trkpt>
      <trkpt lat="43.6103" lon="0.49934">
        <ele>194</ele>
        <time>2020-01-12T12:21:20.000Z</time>
      </trkpt>
      <trkpt lat="43.6103" lon="0.49935">
        <ele>194</ele>
        <time>2020-01-12T12:21:22.000Z</time>
      </trkpt>
      <trkpt lat="43.6103" lon="0.49935">
        <ele>194</ele>
        <time>2020-01-12T12:21:24.000Z</time>
      </trkpt>
      <trkpt lat="43.6103" lon="0.49935">
        <ele>194</ele>
        <time>2020-01-12T12:21:26.000Z</time>
      </trkpt>
      <trkpt lat="43.6103" lon="0.49935">
        <ele>194</ele>
        <time>2020-01-12T12:21:28.000Z</time>
      </trkpt>
      <trkpt lat="43.61029" lon="0.49935">
        <ele>194</ele>
        <time>2020-01-12T12:21:30.000Z</time>
      </trkpt>
      <trkpt lat="43.6103" lon="0.49935">
        <ele>194</ele>
        <time>2020-01-12T12:21:32.000Z</time>
      </trkpt>
      <trkpt lat="43.6103" lon="0.49935">
        <ele>194</ele>
        <time>2020-01-12T12:21:34.000Z</time>
      </trkpt>
      <trkpt lat="43.6103" lon="0.49935">
        <ele>194</ele>
        <time>2020-01-12T12:21:36.000Z</time>
      </trkpt>
      <trkpt lat="43.6103" lon="0.49935">
        <ele>194</ele>
        <time>2020-01-12T12:21:38.000Z</time>
      </trkpt>
      <trkpt lat="43.6103" lon="0.49935">
        <ele>194</ele>
        <time>2020-01-12T12:21:40.000Z</time>
      </trkpt>
      <trkpt lat="43.6103" lon="0.49935">
        <ele>194</ele>
        <time>2020-01-12T12:21:42.000Z</time>
      </trkpt>
      <trkpt lat="43.6103" lon="0.49935">
        <ele>194</ele>
        <time>2020-01-12T12:21:44.000Z</time>
      </trkpt>
      <trkpt lat="43.6103" lon="0.49935">
        <ele>194</ele>
        <time>2020-01-12T12:21:46.000Z</time>
      </trkpt>
      <trkpt lat="43.61029" lon="0.49935">
        <ele>194</ele>
        <time>2020-01-12T12:21:48.000Z</time>
      </trkpt>
      <trkpt lat="43.61029" lon="0.49935">
        <ele>194</ele>
        <time>2020-01-12T12:21:50.000Z</time>
      </trkpt>
      <trkpt lat="43.61029" lon="0.49935">
        <ele>195</ele>
        <time>2020-01-12T12:21:52.000Z</time>
      </trkpt>
      <trkpt lat="43.61029" lon="0.49935">
        <ele>195</ele>
        <time>2020-01-12T12:21:54.000Z</time>
      </trkpt>
      <trkpt lat="43.61029" lon="0.49935">
        <ele>195</ele>
        <time>2020-01-12T12:21:56.000Z</time>
      </trkpt>
      <trkpt lat="43.61029" lon="0.49936">
        <ele>195</ele>
        <time>2020-01-12T12:21:58.000Z</time>
      </trkpt>
      <trkpt lat="43.61029" lon="0.49936">
        <ele>195</ele>
        <time>2020-01-12T12:22:00.000Z</time>
      </trkpt>
      <trkpt lat="43.61029" lon="0.49936">
        <ele>195</ele>
        <time>2020-01-12T12:22:02.000Z</time>
      </trkpt>
      <trkpt lat="43.61029" lon="0.49936">
        <ele>195</ele>
        <time>2020-01-12T12:22:04.000Z</time>
      </trkpt>
      <trkpt lat="43.61029" lon="0.49936">
        <ele>195</ele>
        <time>2020-01-12T12:22:06.000Z</time>
      </trkpt>
      <trkpt lat="43.61028" lon="0.49937">
        <ele>195</ele>
        <time>2020-01-12T12:22:08.000Z</time>
      </trkpt>
      <trkpt lat="43.61028" lon="0.49938">
        <ele>195</ele>
        <time>2020-01-12T12:22:10.000Z</time>
      </trkpt>
      <trkpt lat="43.61027" lon="0.49939">
        <ele>195</ele>
        <time>2020-01-12T12:22:12.000Z</time>
      </trkpt>
      <trkpt lat="43.61026" lon="0.49938">
        <ele>195</ele>
        <time>2020-01-12T12:22:14.000Z</time>
      </trkpt>
      <trkpt lat="43.61027" lon="0.49938">
        <ele>195</ele>
        <time>2020-01-12T12:22:16.000Z</time>
      </trkpt>
      <trkpt lat="43.61027" lon="0.49937">
        <ele>195</ele>
        <time>2020-01-12T12:22:18.000Z</time>
      </trkpt>
      <trkpt lat="43.61028" lon="0.49936">
        <ele>195</ele>
        <time>2020-01-12T12:22:20.000Z</time>
      </trkpt>
      <trkpt lat="43.61028" lon="0.49936">
        <ele>195</ele>
        <time>2020-01-12T12:22:22.000Z</time>
      </trkpt>
      <trkpt lat="43.61028" lon="0.49935">
        <ele>195</ele>
        <time>2020-01-12T12:22:24.000Z</time>
      </trkpt>
      <trkpt lat="43.61028" lon="0.49935">
        <ele>195</ele>
        <time>2020-01-12T12:22:26.000Z</time>
      </trkpt>
      <trkpt lat="43.61028" lon="0.49935">
        <ele>195</ele>
        <time>2020-01-12T12:22:28.000Z</time>
      </trkpt>
      <trkpt lat="43.61027" lon="0.49935">
        <ele>195</ele>
        <time>2020-01-12T12:22:30.000Z</time>
      </trkpt>
      <trkpt lat="43.61027" lon="0.49935">
        <ele>195</ele>
        <time>2020-01-12T12:22:32.000Z</time>
      </trkpt>
      <trkpt lat="43.61027" lon="0.49935">
        <ele>195</ele>
        <time>2020-01-12T12:22:34.000Z</time>
      </trkpt>
      <trkpt lat="43.61027" lon="0.49935">
        <ele>195</ele>
        <time>2020-01-12T12:22:36.000Z</time>
      </trkpt>
      <trkpt lat="43.61027" lon="0.49935">
        <ele>195</ele>
        <time>2020-01-12T12:22:38.000Z</time>
      </trkpt>
      <trkpt lat="43.61026" lon="0.49935">
        <ele>195</ele>
        <time>2020-01-12T12:22:40.000Z</time>
      </trkpt>
      <trkpt lat="43.61026" lon="0.49935">
        <ele>195</ele>
        <time>2020-01-12T12:22:42.000Z</time>
      </trkpt>
      <trkpt lat="43.61026" lon="0.49935">
        <ele>195</ele>
        <time>2020-01-12T12:22:44.000Z</time>
      </trkpt>
      <trkpt lat="43.61026" lon="0.49935">
        <ele>195</ele>
        <time>2020-01-12T12:22:46.000Z</time>
      </trkpt>
      <trkpt lat="43.61026" lon="0.49935">
        <ele>195</ele>
        <time>2020-01-12T12:22:48.000Z</time>
      </trkpt>
      <trkpt lat="43.61026" lon="0.49935">
        <ele>195</ele>
        <time>2020-01-12T12:22:50.000Z</time>
      </trkpt>
      <trkpt lat="43.61026" lon="0.49934">
        <ele>195</ele>
        <time>2020-01-12T12:22:52.000Z</time>
      </trkpt>
      <trkpt lat="43.61026" lon="0.49934">
        <ele>195</ele>
        <time>2020-01-12T12:22:54.000Z</time>
      </trkpt>
      <trkpt lat="43.61026" lon="0.49935">
        <ele>195</ele>
        <time>2020-01-12T12:22:56.000Z</time>
      </trkpt>
      <trkpt lat="43.61027" lon="0.49934">
        <ele>195</ele>
        <time>2020-01-12T12:22:58.000Z</time>
      </trkpt>
      <trkpt lat="43.61027" lon="0.49935">
        <ele>195</ele>
        <time>2020-01-12T12:23:00.000Z</time>
      </trkpt>
      <trkpt lat="43.61027" lon="0.49935">
        <ele>195</ele>
        <time>2020-01-12T12:23:02.000Z</time>
      </trkpt>
      <trkpt lat="43.61027" lon="0.49935">
        <ele>195</ele>
        <time>2020-01-12T12:23:04.000Z</time>
      </trkpt>
      <trkpt lat="43.61027" lon="0.49935">
        <ele>195</ele>
        <time>2020-01-12T12:23:06.000Z</time>
      </trkpt>
      <trkpt lat="43.61027" lon="0.49935">
        <ele>195</ele>
        <time>2020-01-12T12:23:08.000Z</time>
      </trkpt>
      <trkpt lat="43.61027" lon="0.49935">
        <ele>195</ele>
        <time>2020-01-12T12:23:10.000Z</time>
      </trkpt>
      <trkpt lat="43.61027" lon="0.49936">
        <ele>195</ele>
        <time>2020-01-12T12:23:12.000Z</time>
      </trkpt>
      <trkpt lat="43.61027" lon="0.49936">
        <ele>195</ele>
        <time>2020-01-12T12:23:14.000Z</time>
      </trkpt>
      <trkpt lat="43.61027" lon="0.49935">
        <ele>195</ele>
        <time>2020-01-12T12:23:16.000Z</time>
      </trkpt>
      <trkpt lat="43.61028" lon="0.49935">
        <ele>195</ele>
        <time>2020-01-12T12:23:18.000Z</time>
      </trkpt>
      <trkpt lat="43.61028" lon="0.49935">
        <ele>195</ele>
        <time>2020-01-12T12:23:20.000Z</time>
      </trkpt>
      <trkpt lat="43.61028" lon="0.49934">
        <ele>195</ele>
        <time>2020-01-12T12:23:22.000Z</time>
      </trkpt>
      <trkpt lat="43.61028" lon="0.49934">
        <ele>195</ele>
        <time>2020-01-12T12:23:24.000Z</time>
      </trkpt>
      <trkpt lat="43.61028" lon="0.49934">
        <ele>195</ele>
        <time>2020-01-12T12:23:26.000Z</time>
      </trkpt>
      <trkpt lat="43.61029" lon="0.49933">
        <ele>195</ele>
        <time>2020-01-12T12:23:28.000Z</time>
      </trkpt>
      <trkpt lat="43.61029" lon="0.49934">
        <ele>195</ele>
        <time>2020-01-12T12:23:30.000Z</time>
      </trkpt>
      <trkpt lat="43.61029" lon="0.49933">
        <ele>194</ele>
        <time>2020-01-12T12:23:32.000Z</time>
      </trkpt>
      <trkpt lat="43.61029" lon="0.49933">
        <ele>194</ele>
        <time>2020-01-12T12:23:34.000Z</time>
      </trkpt>
      <trkpt lat="43.61029" lon="0.49933">
        <ele>194</ele>
        <time>2020-01-12T12:23:36.000Z</time>
      </trkpt>
      <trkpt lat="43.6103" lon="0.49933">
        <ele>194</ele>
        <time>2020-01-12T12:23:38.000Z</time>
      </trkpt>
      <trkpt lat="43.6103" lon="0.49933">
        <ele>194</ele>
        <time>2020-01-12T12:23:40.000Z</time>
      </trkpt>
      <trkpt lat="43.6103" lon="0.49933">
        <ele>194</ele>
        <time>2020-01-12T12:23:42.000Z</time>
      </trkpt>
      <trkpt lat="43.6103" lon="0.49933">
        <ele>194</ele>
        <time>2020-01-12T12:23:44.000Z</time>
      </trkpt>
      <trkpt lat="43.6103" lon="0.49933">
        <ele>194</ele>
        <time>2020-01-12T12:23:46.000Z</time>
      </trkpt>
      <trkpt lat="43.6103" lon="0.49933">
        <ele>194</ele>
        <time>2020-01-12T12:23:48.000Z</time>
      </trkpt>
      <trkpt lat="43.6103" lon="0.49934">
        <ele>194</ele>
        <time>2020-01-12T12:23:50.000Z</time>
      </trkpt>
      <trkpt lat="43.6103" lon="0.49933">
        <ele>194</ele>
        <time>2020-01-12T12:23:52.000Z</time>
      </trkpt>
      <trkpt lat="43.6103" lon="0.49933">
        <ele>194</ele>
        <time>2020-01-12T12:23:54.000Z</time>
      </trkpt>
      <trkpt lat="43.61031" lon="0.49933">
        <ele>194</ele>
        <time>2020-01-12T12:23:56.000Z</time>
      </trkpt>
      <trkpt lat="43.61031" lon="0.49933">
        <ele>194</ele>
        <time>2020-01-12T12:23:58.000Z</time>
      </trkpt>
      <trkpt lat="43.6103" lon="0.49933">
        <ele>194</ele>
        <time>2020-01-12T12:24:00.000Z</time>
      </trkpt>
      <trkpt lat="43.6103" lon="0.49933">
        <ele>194</ele>
        <time>2020-01-12T12:24:02.000Z</time>
      </trkpt>
      <trkpt lat="43.6103" lon="0.49933">
        <ele>194</ele>
        <time>2020-01-12T12:24:04.000Z</time>
      </trkpt>
      <trkpt lat="43.6103" lon="0.49933">
        <ele>194</ele>
        <time>2020-01-12T12:24:06.000Z</time>
      </trkpt>
      <trkpt lat="43.6103" lon="0.49933">
        <ele>194</ele>
        <time>2020-01-12T12:24:08.000Z</time>
      </trkpt>
      <trkpt lat="43.61031" lon="0.49933">
        <ele>194</ele>
        <time>2020-01-12T12:24:10.000Z</time>
      </trkpt>
      <trkpt lat="43.6103" lon="0.49933">
        <ele>194</ele>
        <time>2020-01-12T12:24:12.000Z</time>
      </trkpt>
      <trkpt lat="43.6103" lon="0.49934">
        <ele>194</ele>
        <time>2020-01-12T12:24:14.000Z</time>
      </trkpt>
      <trkpt lat="43.61029" lon="0.49934">
        <ele>194</ele>
        <time>2020-01-12T12:24:16.000Z</time>
      </trkpt>
      <trkpt lat="43.61029" lon="0.49934">
        <ele>194</ele>
        <time>2020-01-12T12:24:18.000Z</time>
      </trkpt>
      <trkpt lat="43.61029" lon="0.49934">
        <ele>194</ele>
        <time>2020-01-12T12:24:20.000Z</time>
      </trkpt>
      <trkpt lat="43.61029" lon="0.49934">
        <ele>194</ele>
        <time>2020-01-12T12:24:22.000Z</time>
      </trkpt>
      <trkpt lat="43.61029" lon="0.49934">
        <ele>194</ele>
        <time>2020-01-12T12:24:24.000Z</time>
      </trkpt>
      <trkpt lat="43.61029" lon="0.49934">
        <ele>195</ele>
        <time>2020-01-12T12:24:26.000Z</time>
      </trkpt>
      <trkpt lat="43.61029" lon="0.49934">
        <ele>195</ele>
        <time>2020-01-12T12:24:28.000Z</time>
      </trkpt>
      <trkpt lat="43.61029" lon="0.49934">
        <ele>195</ele>
        <time>2020-01-12T12:24:30.000Z</time>
      </trkpt>
      <trkpt lat="43.61028" lon="0.49934">
        <ele>195</ele>
        <time>2020-01-12T12:24:32.000Z</time>
      </trkpt>
      <trkpt lat="43.61028" lon="0.49934">
        <ele>195</ele>
        <time>2020-01-12T12:24:34.000Z</time>
      </trkpt>
      <trkpt lat="43.61028" lon="0.49934">
        <ele>195</ele>
        <time>2020-01-12T12:24:36.000Z</time>
      </trkpt>
      <trkpt lat="43.61028" lon="0.49934">
        <ele>195</ele>
        <time>2020-01-12T12:24:38.000Z</time>
      </trkpt>
      <trkpt lat="43.61028" lon="0.49934">
        <ele>195</ele>
        <time>2020-01-12T12:24:40.000Z</time>
      </trkpt>
      <trkpt lat="43.61028" lon="0.49934">
        <ele>195</ele>
        <time>2020-01-12T12:24:42.000Z</time>
      </trkpt>
      <trkpt lat="43.61029" lon="0.49933">
        <ele>195</ele>
        <time>2020-01-12T12:24:44.000Z</time>
      </trkpt>
      <trkpt lat="43.61029" lon="0.49934">
        <ele>195</ele>
        <time>2020-01-12T12:24:46.000Z</time>
      </trkpt>
      <trkpt lat="43.61029" lon="0.49934">
        <ele>195</ele>
        <time>2020-01-12T12:24:48.000Z</time>
      </trkpt>
      <trkpt lat="43.61029" lon="0.49934">
        <ele>195</ele>
        <time>2020-01-12T12:24:50.000Z</time>
      </trkpt>
      <trkpt lat="43.61028" lon="0.49934">
        <ele>195</ele>
        <time>2020-01-12T12:24:52.000Z</time>
      </trkpt>
      <trkpt lat="43.61028" lon="0.49934">
        <ele>195</ele>
        <time>2020-01-12T12:24:54.000Z</time>
      </trkpt>
      <trkpt lat="43.61028" lon="0.49934">
        <ele>195</ele>
        <time>2020-01-12T12:24:56.000Z</time>
      </trkpt>
      <trkpt lat="43.61028" lon="0.49935">
        <ele>195</ele>
        <time>2020-01-12T12:24:58.000Z</time>
      </trkpt>
      <trkpt lat="43.61028" lon="0.49935">
        <ele>195</ele>
        <time>2020-01-12T12:25:00.000Z</time>
      </trkpt>
      <trkpt lat="43.61028" lon="0.49935">
        <ele>195</ele>
        <time>2020-01-12T12:25:02.000Z</time>
      </trkpt>
      <trkpt lat="43.61028" lon="0.49936">
        <ele>195</ele>
        <time>2020-01-12T12:25:04.000Z</time>
      </trkpt>
      <trkpt lat="43.61028" lon="0.49936">
        <ele>195</ele>
        <time>2020-01-12T12:25:06.000Z</time>
      </trkpt>
      <trkpt lat="43.61028" lon="0.49936">
        <ele>195</ele>
        <time>2020-01-12T12:25:08.000Z</time>
      </trkpt>
      <trkpt lat="43.61028" lon="0.49935">
        <ele>195</ele>
        <time>2020-01-12T12:25:10.000Z</time>
      </trkpt>
      <trkpt lat="43.61028" lon="0.49935">
        <ele>195</ele>
        <time>2020-01-12T12:25:12.000Z</time>
      </trkpt>
      <trkpt lat="43.61027" lon="0.49935">
        <ele>195</ele>
        <time>2020-01-12T12:25:14.000Z</time>
      </trkpt>
      <trkpt lat="43.61027" lon="0.49935">
        <ele>195</ele>
        <time>2020-01-12T12:25:16.000Z</time>
      </trkpt>
      <trkpt lat="43.61027" lon="0.49936">
        <ele>195</ele>
        <time>2020-01-12T12:25:18.000Z</time>
      </trkpt>
      <trkpt lat="43.61027" lon="0.49936">
        <ele>195</ele>
        <time>2020-01-12T12:25:20.000Z</time>
      </trkpt>
      <trkpt lat="43.61027" lon="0.49936">
        <ele>195</ele>
        <time>2020-01-12T12:25:22.000Z</time>
      </trkpt>
      <trkpt lat="43.61027" lon="0.49936">
        <ele>195</ele>
        <time>2020-01-12T12:25:24.000Z</time>
      </trkpt>
      <trkpt lat="43.61027" lon="0.49936">
        <ele>195</ele>
        <time>2020-01-12T12:25:26.000Z</time>
      </trkpt>
      <trkpt lat="43.61027" lon="0.49936">
        <ele>195</ele>
        <time>2020-01-12T12:25:28.000Z</time>
      </trkpt>
      <trkpt lat="43.61027" lon="0.49937">
        <ele>195</ele>
        <time>2020-01-12T12:25:30.000Z</time>
      </trkpt>
      <trkpt lat="43.61028" lon="0.49937">
        <ele>195</ele>
        <time>2020-01-12T12:25:32.000Z</time>
      </trkpt>
      <trkpt lat="43.61027" lon="0.49936">
        <ele>195</ele>
        <time>2020-01-12T12:25:34.000Z</time>
      </trkpt>
      <trkpt lat="43.61027" lon="0.49936">
        <ele>195</ele>
        <time>2020-01-12T12:25:36.000Z</time>
      </trkpt>
      <trkpt lat="43.61027" lon="0.49936">
        <ele>195</ele>
        <time>2020-01-12T12:25:38.000Z</time>
      </trkpt>
      <trkpt lat="43.61027" lon="0.49936">
        <ele>195</ele>
        <time>2020-01-12T12:25:40.000Z</time>
      </trkpt>
      <trkpt lat="43.61027" lon="0.49936">
        <ele>195</ele>
        <time>2020-01-12T12:25:42.000Z</time>
      </trkpt>
      <trkpt lat="43.61027" lon="0.49936">
        <ele>195</ele>
        <time>2020-01-12T12:25:44.000Z</time>
      </trkpt>
      <trkpt lat="43.61027" lon="0.49936">
        <ele>195</ele>
        <time>2020-01-12T12:25:46.000Z</time>
      </trkpt>
      <trkpt lat="43.61027" lon="0.49935">
        <ele>195</ele>
        <time>2020-01-12T12:25:48.000Z</time>
      </trkpt>
      <trkpt lat="43.61027" lon="0.49934">
        <ele>195</ele>
        <time>2020-01-12T12:25:50.000Z</time>
      </trkpt>
      <trkpt lat="43.61027" lon="0.49934">
        <ele>195</ele>
        <time>2020-01-12T12:25:52.000Z</time>
      </trkpt>
      <trkpt lat="43.61027" lon="0.49934">
        <ele>195</ele>
        <time>2020-01-12T12:25:54.000Z</time>
      </trkpt>
      <trkpt lat="43.61027" lon="0.49935">
        <ele>195</ele>
        <time>2020-01-12T12:25:56.000Z</time>
      </trkpt>
      <trkpt lat="43.61028" lon="0.49935">
        <ele>195</ele>
        <time>2020-01-12T12:25:58.000Z</time>
      </trkpt>
      <trkpt lat="43.61028" lon="0.49935">
        <ele>195</ele>
        <time>2020-01-12T12:26:00.000Z</time>
      </trkpt>
      <trkpt lat="43.61028" lon="0.49935">
        <ele>195</ele>
        <time>2020-01-12T12:26:02.000Z</time>
      </trkpt>
      <trkpt lat="43.61027" lon="0.49935">
        <ele>195</ele>
        <time>2020-01-12T12:26:04.000Z</time>
      </trkpt>
      <trkpt lat="43.61027" lon="0.49935">
        <ele>195</ele>
        <time>2020-01-12T12:26:06.000Z</time>
      </trkpt>
      <trkpt lat="43.61027" lon="0.49935">
        <ele>195</ele>
        <time>2020-01-12T12:26:08.000Z</time>
      </trkpt>
      <trkpt lat="43.61027" lon="0.49936">
        <ele>195</ele>
        <time>2020-01-12T12:26:10.000Z</time>
      </trkpt>
      <trkpt lat="43.61027" lon="0.49936">
        <ele>195</ele>
        <time>2020-01-12T12:26:12.000Z</time>
      </trkpt>
      <trkpt lat="43.61027" lon="0.49936">
        <ele>195</ele>
        <time>2020-01-12T12:26:14.000Z</time>
      </trkpt>
      <trkpt lat="43.61027" lon="0.49936">
        <ele>195</ele>
        <time>2020-01-12T12:26:16.000Z</time>
      </trkpt>
      <trkpt lat="43.61027" lon="0.49936">
        <ele>195</ele>
        <time>2020-01-12T12:26:18.000Z</time>
      </trkpt>
      <trkpt lat="43.61027" lon="0.49936">
        <ele>195</ele>
        <time>2020-01-12T12:26:20.000Z</time>
      </trkpt>
      <trkpt lat="43.61027" lon="0.49936">
        <ele>195</ele>
        <time>2020-01-12T12:26:22.000Z</time>
      </trkpt>
      <trkpt lat="43.61027" lon="0.49936">
        <ele>195</ele>
        <time>2020-01-12T12:26:24.000Z</time>
      </trkpt>
      <trkpt lat="43.61027" lon="0.49936">
        <ele>195</ele>
        <time>2020-01-12T12:26:26.000Z</time>
      </trkpt>
      <trkpt lat="43.61027" lon="0.49936">
        <ele>195</ele>
        <time>2020-01-12T12:26:28.000Z</time>
      </trkpt>
      <trkpt lat="43.61027" lon="0.49936">
        <ele>195</ele>
        <time>2020-01-12T12:26:30.000Z</time>
      </trkpt>
      <trkpt lat="43.61027" lon="0.49936">
        <ele>195</ele>
        <time>2020-01-12T12:26:32.000Z</time>
      </trkpt>
      <trkpt lat="43.61027" lon="0.49936">
        <ele>195</ele>
        <time>2020-01-12T12:26:34.000Z</time>
      </trkpt>
      <trkpt lat="43.61028" lon="0.49936">
        <ele>195</ele>
        <time>2020-01-12T12:26:36.000Z</time>
      </trkpt>
      <trkpt lat="43.61028" lon="0.49936">
        <ele>195</ele>
        <time>2020-01-12T12:26:38.000Z</time>
      </trkpt>
      <trkpt lat="43.61028" lon="0.49936">
        <ele>195</ele>
        <time>2020-01-12T12:26:40.000Z</time>
      </trkpt>
      <trkpt lat="43.61028" lon="0.49936">
        <ele>195</ele>
        <time>2020-01-12T12:26:42.000Z</time>
      </trkpt>
      <trkpt lat="43.61028" lon="0.49935">
        <ele>195</ele>
        <time>2020-01-12T12:26:44.000Z</time>
      </trkpt>
      <trkpt lat="43.61028" lon="0.49934">
        <ele>195</ele>
        <time>2020-01-12T12:26:46.000Z</time>
      </trkpt>
      <trkpt lat="43.61028" lon="0.49934">
        <ele>195</ele>
        <time>2020-01-12T12:26:48.000Z</time>
      </trkpt>
      <trkpt lat="43.61028" lon="0.49934">
        <ele>195</ele>
        <time>2020-01-12T12:26:50.000Z</time>
      </trkpt>
      <trkpt lat="43.61029" lon="0.49934">
        <ele>194</ele>
        <time>2020-01-12T12:26:52.000Z</time>
      </trkpt>
      <trkpt lat="43.6103" lon="0.49934">
        <ele>194</ele>
        <time>2020-01-12T12:26:54.000Z</time>
      </trkpt>
      <trkpt lat="43.6103" lon="0.49934">
        <ele>194</ele>
        <time>2020-01-12T12:26:56.000Z</time>
      </trkpt>
      <trkpt lat="43.61031" lon="0.49934">
        <ele>194</ele>
        <time>2020-01-12T12:26:58.000Z</time>
      </trkpt>
      <trkpt lat="43.61031" lon="0.49935">
        <ele>194</ele>
        <time>2020-01-12T12:27:00.000Z</time>
      </trkpt>
      <trkpt lat="43.61032" lon="0.49935">
        <ele>194</ele>
        <time>2020-01-12T12:27:02.000Z</time>
      </trkpt>
      <trkpt lat="43.61032" lon="0.49936">
        <ele>194</ele>
        <time>2020-01-12T12:27:04.000Z</time>
      </trkpt>
      <trkpt lat="43.61031" lon="0.49937">
        <ele>194</ele>
        <time>2020-01-12T12:27:06.000Z</time>
      </trkpt>
      <trkpt lat="43.61031" lon="0.49937">
        <ele>194</ele>
        <time>2020-01-12T12:27:08.000Z</time>
      </trkpt>
      <trkpt lat="43.61031" lon="0.49938">
        <ele>194</ele>
        <time>2020-01-12T12:27:10.000Z</time>
      </trkpt>
      <trkpt lat="43.61032" lon="0.49939">
        <ele>194</ele>
        <time>2020-01-12T12:27:12.000Z</time>
      </trkpt>
      <trkpt lat="43.61032" lon="0.49941">
        <ele>194</ele>
        <time>2020-01-12T12:27:14.000Z</time>
      </trkpt>
      <trkpt lat="43.61032" lon="0.49941">
        <ele>194</ele>
        <time>2020-01-12T12:27:16.000Z</time>
      </trkpt>
      <trkpt lat="43.61031" lon="0.49941">
        <ele>194</ele>
        <time>2020-01-12T12:27:18.000Z</time>
      </trkpt>
      <trkpt lat="43.61031" lon="0.49941">
        <ele>194</ele>
        <time>2020-01-12T12:27:20.000Z</time>
      </trkpt>
      <trkpt lat="43.6103" lon="0.49941">
        <ele>194</ele>
        <time>2020-01-12T12:27:22.000Z</time>
      </trkpt>
      <trkpt lat="43.6103" lon="0.49941">
        <ele>194</ele>
        <time>2020-01-12T12:27:24.000Z</time>
      </trkpt>
      <trkpt lat="43.61029" lon="0.49941">
        <ele>194</ele>
        <time>2020-01-12T12:27:26.000Z</time>
      </trkpt>
      <trkpt lat="43.61027" lon="0.49941">
        <ele>195</ele>
        <time>2020-01-12T12:27:28.000Z</time>
      </trkpt>
      <trkpt lat="43.61026" lon="0.49941">
        <ele>195</ele>
        <time>2020-01-12T12:27:30.000Z</time>
      </trkpt>
      <trkpt lat="43.61026" lon="0.4994">
        <ele>195</ele>
        <time>2020-01-12T12:27:32.000Z</time>
      </trkpt>
      <trkpt lat="43.61025" lon="0.4994">
        <ele>195</ele>
        <time>2020-01-12T12:27:34.000Z</time>
      </trkpt>
      <trkpt lat="43.61025" lon="0.4994">
        <ele>195</ele>
        <time>2020-01-12T12:27:36.000Z</time>
      </trkpt>
      <trkpt lat="43.61026" lon="0.4994">
        <ele>195</ele>
        <time>2020-01-12T12:27:38.000Z</time>
      </trkpt>
      <trkpt lat="43.61026" lon="0.4994">
        <ele>195</ele>
        <time>2020-01-12T12:27:40.000Z</time>
      </trkpt>
      <trkpt lat="43.61026" lon="0.4994">
        <ele>195</ele>
        <time>2020-01-12T12:27:42.000Z</time>
      </trkpt>
      <trkpt lat="43.61027" lon="0.4994">
        <ele>195</ele>
        <time>2020-01-12T12:27:44.000Z</time>
      </trkpt>
      <trkpt lat="43.61028" lon="0.49941">
        <ele>195</ele>
        <time>2020-01-12T12:27:46.000Z</time>
      </trkpt>
      <trkpt lat="43.61028" lon="0.49942">
        <ele>195</ele>
        <time>2020-01-12T12:27:48.000Z</time>
      </trkpt>
      <trkpt lat="43.61028" lon="0.49942">
        <ele>195</ele>
        <time>2020-01-12T12:27:50.000Z</time>
      </trkpt>
      <trkpt lat="43.61028" lon="0.49942">
        <ele>195</ele>
        <time>2020-01-12T12:27:52.000Z</time>
      </trkpt>
      <trkpt lat="43.61026" lon="0.4994">
        <ele>195</ele>
        <time>2020-01-12T12:27:54.000Z</time>
      </trkpt>
      <trkpt lat="43.61026" lon="0.49939">
        <ele>195</ele>
        <time>2020-01-12T12:27:56.000Z</time>
      </trkpt>
      <trkpt lat="43.61026" lon="0.49938">
        <ele>195</ele>
        <time>2020-01-12T12:27:58.000Z</time>
      </trkpt>
      <trkpt lat="43.61025" lon="0.49938">
        <ele>195</ele>
        <time>2020-01-12T12:28:00.000Z</time>
      </trkpt>
      <trkpt lat="43.61025" lon="0.49938">
        <ele>195</ele>
        <time>2020-01-12T12:28:02.000Z</time>
      </trkpt>
      <trkpt lat="43.61026" lon="0.49938">
        <ele>195</ele>
        <time>2020-01-12T12:28:04.000Z</time>
      </trkpt>
      <trkpt lat="43.61027" lon="0.49937">
        <ele>195</ele>
        <time>2020-01-12T12:28:06.000Z</time>
      </trkpt>
      <trkpt lat="43.61027" lon="0.49937">
        <ele>195</ele>
        <time>2020-01-12T12:28:08.000Z</time>
      </trkpt>
      <trkpt lat="43.61027" lon="0.49936">
        <ele>195</ele>
        <time>2020-01-12T12:28:10.000Z</time>
      </trkpt>
      <trkpt lat="43.61028" lon="0.49936">
        <ele>195</ele>
        <time>2020-01-12T12:28:12.000Z</time>
      </trkpt>
      <trkpt lat="43.61028" lon="0.49937">
        <ele>195</ele>
        <time>2020-01-12T12:28:14.000Z</time>
      </trkpt>
      <trkpt lat="43.61028" lon="0.49937">
        <ele>195</ele>
        <time>2020-01-12T12:28:16.000Z</time>
      </trkpt>
      <trkpt lat="43.61029" lon="0.49937">
        <ele>195</ele>
        <time>2020-01-12T12:28:18.000Z</time>
      </trkpt>
      <trkpt lat="43.61029" lon="0.49937">
        <ele>195</ele>
        <time>2020-01-12T12:28:20.000Z</time>
      </trkpt>
      <trkpt lat="43.61029" lon="0.49938">
        <ele>194</ele>
        <time>2020-01-12T12:28:22.000Z</time>
      </trkpt>
      <trkpt lat="43.61029" lon="0.49938">
        <ele>194</ele>
        <time>2020-01-12T12:28:24.000Z</time>
      </trkpt>
      <trkpt lat="43.61029" lon="0.49939">
        <ele>194</ele>
        <time>2020-01-12T12:28:26.000Z</time>
      </trkpt>
      <trkpt lat="43.61031" lon="0.4994">
        <ele>194</ele>
        <time>2020-01-12T12:28:28.000Z</time>
      </trkpt>
      <trkpt lat="43.61031" lon="0.4994">
        <ele>194</ele>
        <time>2020-01-12T12:28:30.000Z</time>
      </trkpt>
      <trkpt lat="43.61031" lon="0.49939">
        <ele>194</ele>
        <time>2020-01-12T12:28:32.000Z</time>
      </trkpt>
      <trkpt lat="43.6103" lon="0.49939">
        <ele>194</ele>
        <time>2020-01-12T12:28:34.000Z</time>
      </trkpt>
      <trkpt lat="43.61031" lon="0.49938">
        <ele>194</ele>
        <time>2020-01-12T12:28:36.000Z</time>
      </trkpt>
      <trkpt lat="43.6103" lon="0.49938">
        <ele>194</ele>
        <time>2020-01-12T12:28:38.000Z</time>
      </trkpt>
      <trkpt lat="43.6103" lon="0.49937">
        <ele>194</ele>
        <time>2020-01-12T12:28:40.000Z</time>
      </trkpt>
      <trkpt lat="43.61029" lon="0.49937">
        <ele>194</ele>
        <time>2020-01-12T12:28:42.000Z</time>
      </trkpt>
      <trkpt lat="43.61029" lon="0.49937">
        <ele>194</ele>
        <time>2020-01-12T12:28:44.000Z</time>
      </trkpt>
      <trkpt lat="43.61029" lon="0.49936">
        <ele>194</ele>
        <time>2020-01-12T12:28:46.000Z</time>
      </trkpt>
      <trkpt lat="43.61029" lon="0.49935">
        <ele>194</ele>
        <time>2020-01-12T12:28:48.000Z</time>
      </trkpt>
      <trkpt lat="43.61029" lon="0.49935">
        <ele>195</ele>
        <time>2020-01-12T12:28:50.000Z</time>
      </trkpt>
      <trkpt lat="43.61029" lon="0.49936">
        <ele>195</ele>
        <time>2020-01-12T12:28:52.000Z</time>
      </trkpt>
      <trkpt lat="43.61028" lon="0.49936">
        <ele>195</ele>
        <time>2020-01-12T12:28:54.000Z</time>
      </trkpt>
      <trkpt lat="43.61028" lon="0.49936">
        <ele>195</ele>
        <time>2020-01-12T12:28:56.000Z</time>
      </trkpt>
      <trkpt lat="43.61027" lon="0.49936">
        <ele>195</ele>
        <time>2020-01-12T12:28:58.000Z</time>
      </trkpt>
      <trkpt lat="43.61027" lon="0.49936">
        <ele>195</ele>
        <time>2020-01-12T12:29:00.000Z</time>
      </trkpt>
      <trkpt lat="43.61028" lon="0.49935">
        <ele>195</ele>
        <time>2020-01-12T12:29:02.000Z</time>
      </trkpt>
      <trkpt lat="43.61028" lon="0.49935">
        <ele>195</ele>
        <time>2020-01-12T12:29:04.000Z</time>
      </trkpt>
      <trkpt lat="43.61028" lon="0.49934">
        <ele>195</ele>
        <time>2020-01-12T12:29:06.000Z</time>
      </trkpt>
      <trkpt lat="43.61028" lon="0.49934">
        <ele>195</ele>
        <time>2020-01-12T12:29:08.000Z</time>
      </trkpt>
      <trkpt lat="43.61028" lon="0.49934">
        <ele>195</ele>
        <time>2020-01-12T12:29:10.000Z</time>
      </trkpt>
      <trkpt lat="43.61028" lon="0.49933">
        <ele>195</ele>
        <time>2020-01-12T12:29:12.000Z</time>
      </trkpt>
      <trkpt lat="43.61029" lon="0.49934">
        <ele>195</ele>
        <time>2020-01-12T12:29:14.000Z</time>
      </trkpt>
      <trkpt lat="43.61029" lon="0.49934">
        <ele>195</ele>
        <time>2020-01-12T12:29:16.000Z</time>
      </trkpt>
      <trkpt lat="43.61029" lon="0.49934">
        <ele>195</ele>
        <time>2020-01-12T12:29:18.000Z</time>
      </trkpt>
      <trkpt lat="43.61028" lon="0.49934">
        <ele>195</ele>
        <time>2020-01-12T12:29:20.000Z</time>
      </trkpt>
      <trkpt lat="43.61028" lon="0.49934">
        <ele>195</ele>
        <time>2020-01-12T12:29:22.000Z</time>
      </trkpt>
      <trkpt lat="43.61029" lon="0.49934">
        <ele>195</ele>
        <time>2020-01-12T12:29:24.000Z</time>
      </trkpt>
      <trkpt lat="43.61029" lon="0.49934">
        <ele>195</ele>
        <time>2020-01-12T12:29:26.000Z</time>
      </trkpt>
      <trkpt lat="43.61029" lon="0.49934">
        <ele>195</ele>
        <time>2020-01-12T12:29:28.000Z</time>
      </trkpt>
      <trkpt lat="43.61028" lon="0.49933">
        <ele>195</ele>
        <time>2020-01-12T12:29:30.000Z</time>
      </trkpt>
      <trkpt lat="43.61028" lon="0.49934">
        <ele>195</ele>
        <time>2020-01-12T12:29:32.000Z</time>
      </trkpt>
      <trkpt lat="43.61028" lon="0.49934">
        <ele>195</ele>
        <time>2020-01-12T12:29:34.000Z</time>
      </trkpt>
      <trkpt lat="43.61028" lon="0.49934">
        <ele>195</ele>
        <time>2020-01-12T12:29:36.000Z</time>
      </trkpt>
      <trkpt lat="43.61028" lon="0.49934">
        <ele>195</ele>
        <time>2020-01-12T12:29:38.000Z</time>
      </trkpt>
      <trkpt lat="43.61028" lon="0.49934">
        <ele>195</ele>
        <time>2020-01-12T12:29:40.000Z</time>
      </trkpt>
      <trkpt lat="43.61028" lon="0.49934">
        <ele>195</ele>
        <time>2020-01-12T12:29:42.000Z</time>
      </trkpt>
      <trkpt lat="43.61028" lon="0.49934">
        <ele>195</ele>
        <time>2020-01-12T12:29:44.000Z</time>
      </trkpt>
      <trkpt lat="43.61028" lon="0.49935">
        <ele>195</ele>
        <time>2020-01-12T12:29:46.000Z</time>
      </trkpt>
      <trkpt lat="43.61028" lon="0.49935">
        <ele>195</ele>
        <time>2020-01-12T12:29:48.000Z</time>
      </trkpt>
      <trkpt lat="43.61028" lon="0.49935">
        <ele>195</ele>
        <time>2020-01-12T12:29:50.000Z</time>
      </trkpt>
      <trkpt lat="43.61028" lon="0.49935">
        <ele>195</ele>
        <time>2020-01-12T12:29:52.000Z</time>
      </trkpt>
      <trkpt lat="43.61028" lon="0.49935">
        <ele>195</ele>
        <time>2020-01-12T12:29:54.000Z</time>
      </trkpt>
      <trkpt lat="43.61028" lon="0.49935">
        <ele>195</ele>
        <time>2020-01-12T12:29:56.000Z</time>
      </trkpt>
      <trkpt lat="43.61028" lon="0.49936">
        <ele>195</ele>
        <time>2020-01-12T12:29:58.000Z</time>
      </trkpt>
      <trkpt lat="43.61028" lon="0.49936">
        <ele>195</ele>
        <time>2020-01-12T12:30:00.000Z</time>
      </trkpt>
      <trkpt lat="43.61028" lon="0.49937">
        <ele>195</ele>
        <time>2020-01-12T12:30:02.000Z</time>
      </trkpt>
      <trkpt lat="43.61028" lon="0.49936">
        <ele>195</ele>
        <time>2020-01-12T12:30:04.000Z</time>
      </trkpt>
      <trkpt lat="43.61028" lon="0.49937">
        <ele>195</ele>
        <time>2020-01-12T12:30:06.000Z</time>
      </trkpt>
      <trkpt lat="43.61028" lon="0.49936">
        <ele>195</ele>
        <time>2020-01-12T12:30:08.000Z</time>
      </trkpt>
      <trkpt lat="43.61029" lon="0.49936">
        <ele>195</ele>
        <time>2020-01-12T12:30:10.000Z</time>
      </trkpt>
      <trkpt lat="43.61028" lon="0.49936">
        <ele>195</ele>
        <time>2020-01-12T12:30:12.000Z</time>
      </trkpt>
      <trkpt lat="43.61027" lon="0.49936">
        <ele>195</ele>
        <time>2020-01-12T12:30:14.000Z</time>
      </trkpt>
      <trkpt lat="43.61028" lon="0.49936">
        <ele>195</ele>
        <time>2020-01-12T12:30:16.000Z</time>
      </trkpt>
      <trkpt lat="43.61028" lon="0.49936">
        <ele>195</ele>
        <time>2020-01-12T12:30:18.000Z</time>
      </trkpt>
      <trkpt lat="43.61027" lon="0.49935">
        <ele>195</ele>
        <time>2020-01-12T12:30:20.000Z</time>
      </trkpt>
      <trkpt lat="43.61027" lon="0.49935">
        <ele>195</ele>
        <time>2020-01-12T12:30:22.000Z</time>
      </trkpt>
      <trkpt lat="43.61027" lon="0.49935">
        <ele>195</ele>
        <time>2020-01-12T12:30:24.000Z</time>
      </trkpt>
      <trkpt lat="43.61027" lon="0.49935">
        <ele>195</ele>
        <time>2020-01-12T12:30:26.000Z</time>
      </trkpt>
      <trkpt lat="43.61028" lon="0.49935">
        <ele>195</ele>
        <time>2020-01-12T12:30:28.000Z</time>
      </trkpt>
      <trkpt lat="43.61028" lon="0.49935">
        <ele>195</ele>
        <time>2020-01-12T12:30:30.000Z</time>
      </trkpt>
      <trkpt lat="43.61029" lon="0.49935">
        <ele>195</ele>
        <time>2020-01-12T12:30:32.000Z</time>
      </trkpt>
      <trkpt lat="43.61029" lon="0.49934">
        <ele>194</ele>
        <time>2020-01-12T12:30:34.000Z</time>
      </trkpt>
      <trkpt lat="43.6103" lon="0.49933">
        <ele>194</ele>
        <time>2020-01-12T12:30:36.000Z</time>
      </trkpt>
      <trkpt lat="43.61031" lon="0.49932">
        <ele>194</ele>
        <time>2020-01-12T12:30:38.000Z</time>
      </trkpt>
      <trkpt lat="43.61031" lon="0.4993">
        <ele>194</ele>
        <time>2020-01-12T12:30:40.000Z</time>
      </trkpt>
      <trkpt lat="43.61031" lon="0.49931">
        <ele>194</ele>
        <time>2020-01-12T12:30:42.000Z</time>
      </trkpt>
      <trkpt lat="43.61031" lon="0.4993">
        <ele>194</ele>
        <time>2020-01-12T12:30:44.000Z</time>
      </trkpt>
      <trkpt lat="43.61032" lon="0.49929">
        <ele>194</ele>
        <time>2020-01-12T12:30:46.000Z</time>
      </trkpt>
      <trkpt lat="43.61032" lon="0.49929">
        <ele>194</ele>
        <time>2020-01-12T12:30:48.000Z</time>
      </trkpt>
      <trkpt lat="43.61031" lon="0.49929">
        <ele>194</ele>
        <time>2020-01-12T12:30:50.000Z</time>
      </trkpt>
      <trkpt lat="43.61031" lon="0.49929">
        <ele>194</ele>
        <time>2020-01-12T12:30:52.000Z</time>
      </trkpt>
      <trkpt lat="43.61031" lon="0.49929">
        <ele>194</ele>
        <time>2020-01-12T12:30:54.000Z</time>
      </trkpt>
      <trkpt lat="43.61031" lon="0.49929">
        <ele>194</ele>
        <time>2020-01-12T12:30:56.000Z</time>
      </trkpt>
      <trkpt lat="43.61031" lon="0.49929">
        <ele>194</ele>
        <time>2020-01-12T12:30:58.000Z</time>
      </trkpt>
      <trkpt lat="43.6103" lon="0.49929">
        <ele>194</ele>
        <time>2020-01-12T12:31:00.000Z</time>
      </trkpt>
      <trkpt lat="43.6103" lon="0.4993">
        <ele>194</ele>
        <time>2020-01-12T12:31:02.000Z</time>
      </trkpt>
      <trkpt lat="43.6103" lon="0.4993">
        <ele>194</ele>
        <time>2020-01-12T12:31:04.000Z</time>
      </trkpt>
      <trkpt lat="43.6103" lon="0.4993">
        <ele>194</ele>
        <time>2020-01-12T12:31:06.000Z</time>
      </trkpt>
      <trkpt lat="43.61029" lon="0.49929">
        <ele>194</ele>
        <time>2020-01-12T12:31:08.000Z</time>
      </trkpt>
      <trkpt lat="43.61028" lon="0.49928">
        <ele>195</ele>
        <time>2020-01-12T12:31:10.000Z</time>
      </trkpt>
      <trkpt lat="43.61028" lon="0.49926">
        <ele>195</ele>
        <time>2020-01-12T12:31:12.000Z</time>
      </trkpt>
      <trkpt lat="43.61028" lon="0.49925">
        <ele>195</ele>
        <time>2020-01-12T12:31:14.000Z</time>
      </trkpt>
      <trkpt lat="43.61028" lon="0.49924">
        <ele>195</ele>
        <time>2020-01-12T12:31:16.000Z</time>
      </trkpt>
      <trkpt lat="43.61028" lon="0.49922">
        <ele>195</ele>
        <time>2020-01-12T12:31:18.000Z</time>
      </trkpt>
      <trkpt lat="43.61027" lon="0.4992">
        <ele>195</ele>
        <time>2020-01-12T12:31:20.000Z</time>
      </trkpt>
      <trkpt lat="43.61027" lon="0.49918">
        <ele>195</ele>
        <time>2020-01-12T12:31:22.000Z</time>
      </trkpt>
      <trkpt lat="43.61027" lon="0.49917">
        <ele>195</ele>
        <time>2020-01-12T12:31:24.000Z</time>
      </trkpt>
      <trkpt lat="43.61027" lon="0.49914">
        <ele>195</ele>
        <time>2020-01-12T12:31:26.000Z</time>
      </trkpt>
      <trkpt lat="43.61027" lon="0.49912">
        <ele>195</ele>
        <time>2020-01-12T12:31:28.000Z</time>
      </trkpt>
      <trkpt lat="43.61027" lon="0.4991">
        <ele>195</ele>
        <time>2020-01-12T12:31:30.000Z</time>
      </trkpt>
      <trkpt lat="43.61027" lon="0.49907">
        <ele>195</ele>
        <time>2020-01-12T12:31:32.000Z</time>
      </trkpt>
      <trkpt lat="43.61027" lon="0.49905">
        <ele>195</ele>
        <time>2020-01-12T12:31:34.000Z</time>
      </trkpt>
      <trkpt lat="43.61027" lon="0.49903">
        <ele>195</ele>
        <time>2020-01-12T12:31:36.000Z</time>
      </trkpt>
      <trkpt lat="43.61028" lon="0.49901">
        <ele>195</ele>
        <time>2020-01-12T12:31:38.000Z</time>
      </trkpt>
      <trkpt lat="43.61028" lon="0.49899">
        <ele>195</ele>
        <time>2020-01-12T12:31:40.000Z</time>
      </trkpt>
      <trkpt lat="43.61027" lon="0.49898">
        <ele>195</ele>
        <time>2020-01-12T12:31:42.000Z</time>
      </trkpt>
      <trkpt lat="43.61026" lon="0.49896">
        <ele>195</ele>
        <time>2020-01-12T12:31:44.000Z</time>
      </trkpt>
      <trkpt lat="43.61026" lon="0.49893">
        <ele>195</ele>
        <time>2020-01-12T12:31:46.000Z</time>
      </trkpt>
      <trkpt lat="43.61026" lon="0.49891">
        <ele>195</ele>
        <time>2020-01-12T12:31:48.000Z</time>
      </trkpt>
      <trkpt lat="43.61026" lon="0.49889">
        <ele>195</ele>
        <time>2020-01-12T12:31:50.000Z</time>
      </trkpt>
      <trkpt lat="43.61026" lon="0.49886">
        <ele>194</ele>
        <time>2020-01-12T12:31:52.000Z</time>
      </trkpt>
      <trkpt lat="43.61026" lon="0.49883">
        <ele>194</ele>
        <time>2020-01-12T12:31:54.000Z</time>
      </trkpt>
      <trkpt lat="43.61026" lon="0.49881">
        <ele>194</ele>
        <time>2020-01-12T12:31:56.000Z</time>
      </trkpt>
      <trkpt lat="43.61026" lon="0.49879">
        <ele>194</ele>
        <time>2020-01-12T12:31:58.000Z</time>
      </trkpt>
      <trkpt lat="43.61027" lon="0.49877">
        <ele>194</ele>
        <time>2020-01-12T12:32:00.000Z</time>
      </trkpt>
      <trkpt lat="43.61027" lon="0.49875">
        <ele>194</ele>
        <time>2020-01-12T12:32:02.000Z</time>
      </trkpt>
      <trkpt lat="43.61027" lon="0.49872">
        <ele>194</ele>
        <time>2020-01-12T12:32:04.000Z</time>
      </trkpt>
      <trkpt lat="43.61026" lon="0.49869">
        <ele>194</ele>
        <time>2020-01-12T12:32:06.000Z</time>
      </trkpt>
      <trkpt lat="43.61026" lon="0.49867">
        <ele>194</ele>
        <time>2020-01-12T12:32:08.000Z</time>
      </trkpt>
      <trkpt lat="43.61027" lon="0.49864">
        <ele>194</ele>
        <time>2020-01-12T12:32:10.000Z</time>
      </trkpt>
      <trkpt lat="43.61027" lon="0.49861">
        <ele>194</ele>
        <time>2020-01-12T12:32:12.000Z</time>
      </trkpt>
      <trkpt lat="43.61027" lon="0.49859">
        <ele>194</ele>
        <time>2020-01-12T12:32:14.000Z</time>
      </trkpt>
      <trkpt lat="43.61026" lon="0.49856">
        <ele>194</ele>
        <time>2020-01-12T12:32:16.000Z</time>
      </trkpt>
      <trkpt lat="43.61026" lon="0.49853">
        <ele>194</ele>
        <time>2020-01-12T12:32:18.000Z</time>
      </trkpt>
      <trkpt lat="43.61026" lon="0.49851">
        <ele>194</ele>
        <time>2020-01-12T12:32:20.000Z</time>
      </trkpt>
      <trkpt lat="43.61025" lon="0.49849">
        <ele>194</ele>
        <time>2020-01-12T12:32:22.000Z</time>
      </trkpt>
      <trkpt lat="43.61025" lon="0.49846">
        <ele>194</ele>
        <time>2020-01-12T12:32:24.000Z</time>
      </trkpt>
      <trkpt lat="43.61024" lon="0.49843">
        <ele>194</ele>
        <time>2020-01-12T12:32:26.000Z</time>
      </trkpt>
      <trkpt lat="43.61024" lon="0.49841">
        <ele>194</ele>
        <time>2020-01-12T12:32:28.000Z</time>
      </trkpt>
      <trkpt lat="43.61024" lon="0.49838">
        <ele>194</ele>
        <time>2020-01-12T12:32:30.000Z</time>
      </trkpt>
      <trkpt lat="43.61025" lon="0.49835">
        <ele>194</ele>
        <time>2020-01-12T12:32:32.000Z</time>
      </trkpt>
      <trkpt lat="43.61025" lon="0.49832">
        <ele>194</ele>
        <time>2020-01-12T12:32:34.000Z</time>
      </trkpt>
      <trkpt lat="43.61025" lon="0.49829">
        <ele>194</ele>
        <time>2020-01-12T12:32:36.000Z</time>
      </trkpt>
      <trkpt lat="43.61025" lon="0.49827">
        <ele>194</ele>
        <time>2020-01-12T12:32:38.000Z</time>
      </trkpt>
      <trkpt lat="43.61025" lon="0.49825">
        <ele>194</ele>
        <time>2020-01-12T12:32:40.000Z</time>
      </trkpt>
      <trkpt lat="43.61024" lon="0.49823">
        <ele>194</ele>
        <time>2020-01-12T12:32:42.000Z</time>
      </trkpt>
      <trkpt lat="43.61024" lon="0.4982">
        <ele>194</ele>
        <time>2020-01-12T12:32:44.000Z</time>
      </trkpt>
      <trkpt lat="43.61024" lon="0.49818">
        <ele>195</ele>
        <time>2020-01-12T12:32:46.000Z</time>
      </trkpt>
      <trkpt lat="43.61024" lon="0.49815">
        <ele>194</ele>
        <time>2020-01-12T12:32:48.000Z</time>
      </trkpt>
      <trkpt lat="43.61023" lon="0.49813">
        <ele>195</ele>
        <time>2020-01-12T12:32:50.000Z</time>
      </trkpt>
      <trkpt lat="43.61023" lon="0.49811">
        <ele>195</ele>
        <time>2020-01-12T12:32:52.000Z</time>
      </trkpt>
      <trkpt lat="43.61023" lon="0.49808">
        <ele>195</ele>
        <time>2020-01-12T12:32:54.000Z</time>
      </trkpt>
      <trkpt lat="43.61024" lon="0.49806">
        <ele>195</ele>
        <time>2020-01-12T12:32:56.000Z</time>
      </trkpt>
      <trkpt lat="43.61024" lon="0.49803">
        <ele>195</ele>
        <time>2020-01-12T12:32:58.000Z</time>
      </trkpt>
      <trkpt lat="43.61023" lon="0.49801">
        <ele>195</ele>
        <time>2020-01-12T12:33:00.000Z</time>
      </trkpt>
      <trkpt lat="43.61023" lon="0.49798">
        <ele>195</ele>
        <time>2020-01-12T12:33:02.000Z</time>
      </trkpt>
      <trkpt lat="43.61023" lon="0.49796">
        <ele>195</ele>
        <time>2020-01-12T12:33:04.000Z</time>
      </trkpt>
      <trkpt lat="43.61023" lon="0.49793">
        <ele>195</ele>
        <time>2020-01-12T12:33:06.000Z</time>
      </trkpt>
      <trkpt lat="43.61023" lon="0.49791">
        <ele>195</ele>
        <time>2020-01-12T12:33:08.000Z</time>
      </trkpt>
      <trkpt lat="43.61023" lon="0.49789">
        <ele>195</ele>
        <time>2020-01-12T12:33:10.000Z</time>
      </trkpt>
      <trkpt lat="43.61022" lon="0.49787">
        <ele>195</ele>
        <time>2020-01-12T12:33:12.000Z</time>
      </trkpt>
      <trkpt lat="43.61022" lon="0.49784">
        <ele>195</ele>
        <time>2020-01-12T12:33:14.000Z</time>
      </trkpt>
      <trkpt lat="43.61022" lon="0.49781">
        <ele>195</ele>
        <time>2020-01-12T12:33:16.000Z</time>
      </trkpt>
      <trkpt lat="43.61022" lon="0.49779">
        <ele>195</ele>
        <time>2020-01-12T12:33:18.000Z</time>
      </trkpt>
      <trkpt lat="43.61023" lon="0.49777">
        <ele>195</ele>
        <time>2020-01-12T12:33:20.000Z</time>
      </trkpt>
      <trkpt lat="43.61022" lon="0.49774">
        <ele>195</ele>
        <time>2020-01-12T12:33:22.000Z</time>
      </trkpt>
      <trkpt lat="43.61022" lon="0.49772">
        <ele>195</ele>
        <time>2020-01-12T12:33:24.000Z</time>
      </trkpt>
      <trkpt lat="43.61022" lon="0.4977">
        <ele>195</ele>
        <time>2020-01-12T12:33:26.000Z</time>
      </trkpt>
      <trkpt lat="43.61022" lon="0.49767">
        <ele>195</ele>
        <time>2020-01-12T12:33:28.000Z</time>
      </trkpt>
      <trkpt lat="43.61022" lon="0.49765">
        <ele>195</ele>
        <time>2020-01-12T12:33:30.000Z</time>
      </trkpt>
      <trkpt lat="43.61022" lon="0.49763">
        <ele>195</ele>
        <time>2020-01-12T12:33:32.000Z</time>
      </trkpt>
      <trkpt lat="43.61022" lon="0.4976">
        <ele>195</ele>
        <time>2020-01-12T12:33:34.000Z</time>
      </trkpt>
      <trkpt lat="43.61022" lon="0.49758">
        <ele>195</ele>
        <time>2020-01-12T12:33:36.000Z</time>
      </trkpt>
      <trkpt lat="43.61022" lon="0.49755">
        <ele>195</ele>
        <time>2020-01-12T12:33:38.000Z</time>
      </trkpt>
      <trkpt lat="43.61022" lon="0.49753">
        <ele>195</ele>
        <time>2020-01-12T12:33:40.000Z</time>
      </trkpt>
      <trkpt lat="43.61021" lon="0.49751">
        <ele>195</ele>
        <time>2020-01-12T12:33:42.000Z</time>
      </trkpt>
      <trkpt lat="43.61021" lon="0.49748">
        <ele>195</ele>
        <time>2020-01-12T12:33:44.000Z</time>
      </trkpt>
      <trkpt lat="43.61021" lon="0.49745">
        <ele>195</ele>
        <time>2020-01-12T12:33:46.000Z</time>
      </trkpt>
      <trkpt lat="43.61021" lon="0.49742">
        <ele>195</ele>
        <time>2020-01-12T12:33:48.000Z</time>
      </trkpt>
      <trkpt lat="43.6102" lon="0.4974">
        <ele>195</ele>
        <time>2020-01-12T12:33:50.000Z</time>
      </trkpt>
      <trkpt lat="43.6102" lon="0.49737">
        <ele>195</ele>
        <time>2020-01-12T12:33:52.000Z</time>
      </trkpt>
      <trkpt lat="43.6102" lon="0.49734">
        <ele>195</ele>
        <time>2020-01-12T12:33:54.000Z</time>
      </trkpt>
      <trkpt lat="43.6102" lon="0.49731">
        <ele>195</ele>
        <time>2020-01-12T12:33:56.000Z</time>
      </trkpt>
      <trkpt lat="43.6102" lon="0.49729">
        <ele>195</ele>
        <time>2020-01-12T12:33:58.000Z</time>
      </trkpt>
      <trkpt lat="43.6102" lon="0.49726">
        <ele>195</ele>
        <time>2020-01-12T12:34:00.000Z</time>
      </trkpt>
      <trkpt lat="43.61019" lon="0.49724">
        <ele>195</ele>
        <time>2020-01-12T12:34:02.000Z</time>
      </trkpt>
      <trkpt lat="43.61019" lon="0.49722">
        <ele>195</ele>
        <time>2020-01-12T12:34:04.000Z</time>
      </trkpt>
      <trkpt lat="43.61019" lon="0.49719">
        <ele>195</ele>
        <time>2020-01-12T12:34:06.000Z</time>
      </trkpt>
      <trkpt lat="43.61019" lon="0.49716">
        <ele>195</ele>
        <time>2020-01-12T12:34:08.000Z</time>
      </trkpt>
      <trkpt lat="43.61019" lon="0.49713">
        <ele>195</ele>
        <time>2020-01-12T12:34:10.000Z</time>
      </trkpt>
      <trkpt lat="43.61019" lon="0.4971">
        <ele>195</ele>
        <time>2020-01-12T12:34:12.000Z</time>
      </trkpt>
      <trkpt lat="43.61019" lon="0.49708">
        <ele>195</ele>
        <time>2020-01-12T12:34:14.000Z</time>
      </trkpt>
      <trkpt lat="43.61019" lon="0.49705">
        <ele>195</ele>
        <time>2020-01-12T12:34:16.000Z</time>
      </trkpt>
      <trkpt lat="43.61019" lon="0.49702">
        <ele>196</ele>
        <time>2020-01-12T12:34:18.000Z</time>
      </trkpt>
      <trkpt lat="43.61019" lon="0.49699">
        <ele>196</ele>
        <time>2020-01-12T12:34:20.000Z</time>
      </trkpt>
      <trkpt lat="43.61018" lon="0.49697">
        <ele>196</ele>
        <time>2020-01-12T12:34:22.000Z</time>
      </trkpt>
      <trkpt lat="43.61018" lon="0.49694">
        <ele>196</ele>
        <time>2020-01-12T12:34:24.000Z</time>
      </trkpt>
      <trkpt lat="43.61018" lon="0.49691">
        <ele>196</ele>
        <time>2020-01-12T12:34:26.000Z</time>
      </trkpt>
      <trkpt lat="43.61018" lon="0.49689">
        <ele>196</ele>
        <time>2020-01-12T12:34:28.000Z</time>
      </trkpt>
      <trkpt lat="43.61018" lon="0.49686">
        <ele>196</ele>
        <time>2020-01-12T12:34:30.000Z</time>
      </trkpt>
      <trkpt lat="43.61017" lon="0.49684">
        <ele>196</ele>
        <time>2020-01-12T12:34:32.000Z</time>
      </trkpt>
      <trkpt lat="43.61017" lon="0.49682">
        <ele>196</ele>
        <time>2020-01-12T12:34:34.000Z</time>
      </trkpt>
      <trkpt lat="43.61016" lon="0.4968">
        <ele>196</ele>
        <time>2020-01-12T12:34:36.000Z</time>
      </trkpt>
      <trkpt lat="43.61016" lon="0.49678">
        <ele>196</ele>
        <time>2020-01-12T12:34:38.000Z</time>
      </trkpt>
      <trkpt lat="43.61015" lon="0.49677">
        <ele>196</ele>
        <time>2020-01-12T12:34:40.000Z</time>
      </trkpt>
      <trkpt lat="43.61015" lon="0.49674">
        <ele>196</ele>
        <time>2020-01-12T12:34:42.000Z</time>
      </trkpt>
      <trkpt lat="43.61014" lon="0.49672">
        <ele>196</ele>
        <time>2020-01-12T12:34:44.000Z</time>
      </trkpt>
      <trkpt lat="43.61014" lon="0.4967">
        <ele>196</ele>
        <time>2020-01-12T12:34:46.000Z</time>
      </trkpt>
      <trkpt lat="43.61013" lon="0.49669">
        <ele>197</ele>
        <time>2020-01-12T12:34:48.000Z</time>
      </trkpt>
      <trkpt lat="43.61013" lon="0.49666">
        <ele>197</ele>
        <time>2020-01-12T12:34:50.000Z</time>
      </trkpt>
      <trkpt lat="43.61012" lon="0.49664">
        <ele>197</ele>
        <time>2020-01-12T12:34:52.000Z</time>
      </trkpt>
      <trkpt lat="43.61011" lon="0.49662">
        <ele>197</ele>
        <time>2020-01-12T12:34:54.000Z</time>
      </trkpt>
      <trkpt lat="43.61011" lon="0.4966">
        <ele>197</ele>
        <time>2020-01-12T12:34:56.000Z</time>
      </trkpt>
      <trkpt lat="43.61011" lon="0.49658">
        <ele>197</ele>
        <time>2020-01-12T12:34:58.000Z</time>
      </trkpt>
      <trkpt lat="43.61011" lon="0.49656">
        <ele>197</ele>
        <time>2020-01-12T12:35:00.000Z</time>
      </trkpt>
      <trkpt lat="43.61011" lon="0.49654">
        <ele>197</ele>
        <time>2020-01-12T12:35:02.000Z</time>
      </trkpt>
      <trkpt lat="43.61011" lon="0.49651">
        <ele>197</ele>
        <time>2020-01-12T12:35:04.000Z</time>
      </trkpt>
      <trkpt lat="43.61011" lon="0.49649">
        <ele>197</ele>
        <time>2020-01-12T12:35:06.000Z</time>
      </trkpt>
      <trkpt lat="43.6101" lon="0.49646">
        <ele>197</ele>
        <time>2020-01-12T12:35:08.000Z</time>
      </trkpt>
      <trkpt lat="43.61011" lon="0.49644">
        <ele>197</ele>
        <time>2020-01-12T12:35:10.000Z</time>
      </trkpt>
      <trkpt lat="43.61011" lon="0.49642">
        <ele>197</ele>
        <time>2020-01-12T12:35:12.000Z</time>
      </trkpt>
      <trkpt lat="43.6101" lon="0.4964">
        <ele>197</ele>
        <time>2020-01-12T12:35:14.000Z</time>
      </trkpt>
      <trkpt lat="43.6101" lon="0.49638">
        <ele>198</ele>
        <time>2020-01-12T12:35:16.000Z</time>
      </trkpt>
      <trkpt lat="43.61011" lon="0.49636">
        <ele>198</ele>
        <time>2020-01-12T12:35:18.000Z</time>
      </trkpt>
      <trkpt lat="43.61011" lon="0.49634">
        <ele>198</ele>
        <time>2020-01-12T12:35:20.000Z</time>
      </trkpt>
      <trkpt lat="43.61011" lon="0.49632">
        <ele>198</ele>
        <time>2020-01-12T12:35:22.000Z</time>
      </trkpt>
      <trkpt lat="43.6101" lon="0.4963">
        <ele>198</ele>
        <time>2020-01-12T12:35:24.000Z</time>
      </trkpt>
      <trkpt lat="43.6101" lon="0.49628">
        <ele>198</ele>
        <time>2020-01-12T12:35:26.000Z</time>
      </trkpt>
      <trkpt lat="43.6101" lon="0.49626">
        <ele>198</ele>
        <time>2020-01-12T12:35:28.000Z</time>
      </trkpt>
      <trkpt lat="43.6101" lon="0.49624">
        <ele>198</ele>
        <time>2020-01-12T12:35:30.000Z</time>
      </trkpt>
      <trkpt lat="43.61009" lon="0.49622">
        <ele>198</ele>
        <time>2020-01-12T12:35:32.000Z</time>
      </trkpt>
      <trkpt lat="43.61009" lon="0.4962">
        <ele>198</ele>
        <time>2020-01-12T12:35:34.000Z</time>
      </trkpt>
      <trkpt lat="43.61008" lon="0.49618">
        <ele>198</ele>
        <time>2020-01-12T12:35:36.000Z</time>
      </trkpt>
      <trkpt lat="43.61007" lon="0.49617">
        <ele>198</ele>
        <time>2020-01-12T12:35:38.000Z</time>
      </trkpt>
      <trkpt lat="43.61006" lon="0.49615">
        <ele>198</ele>
        <time>2020-01-12T12:35:40.000Z</time>
      </trkpt>
      <trkpt lat="43.61005" lon="0.49613">
        <ele>198</ele>
        <time>2020-01-12T12:35:42.000Z</time>
      </trkpt>
      <trkpt lat="43.61005" lon="0.49611">
        <ele>198</ele>
        <time>2020-01-12T12:35:44.000Z</time>
      </trkpt>
      <trkpt lat="43.61004" lon="0.4961">
        <ele>198</ele>
        <time>2020-01-12T12:35:46.000Z</time>
      </trkpt>
      <trkpt lat="43.61003" lon="0.49608">
        <ele>199</ele>
        <time>2020-01-12T12:35:48.000Z</time>
      </trkpt>
      <trkpt lat="43.61002" lon="0.49605">
        <ele>199</ele>
        <time>2020-01-12T12:35:50.000Z</time>
      </trkpt>
      <trkpt lat="43.61002" lon="0.49603">
        <ele>199</ele>
        <time>2020-01-12T12:35:52.000Z</time>
      </trkpt>
      <trkpt lat="43.61001" lon="0.49601">
        <ele>199</ele>
        <time>2020-01-12T12:35:54.000Z</time>
      </trkpt>
      <trkpt lat="43.61" lon="0.49599">
        <ele>199</ele>
        <time>2020-01-12T12:35:56.000Z</time>
      </trkpt>
      <trkpt lat="43.61" lon="0.49596">
        <ele>199</ele>
        <time>2020-01-12T12:35:58.000Z</time>
      </trkpt>
      <trkpt lat="43.60999" lon="0.49595">
        <ele>199</ele>
        <time>2020-01-12T12:36:00.000Z</time>
      </trkpt>
      <trkpt lat="43.60999" lon="0.49593">
        <ele>199</ele>
        <time>2020-01-12T12:36:02.000Z</time>
      </trkpt>
      <trkpt lat="43.60998" lon="0.49591">
        <ele>199</ele>
        <time>2020-01-12T12:36:04.000Z</time>
      </trkpt>
      <trkpt lat="43.60998" lon="0.49589">
        <ele>199</ele>
        <time>2020-01-12T12:36:06.000Z</time>
      </trkpt>
      <trkpt lat="43.60997" lon="0.49586">
        <ele>199</ele>
        <time>2020-01-12T12:36:08.000Z</time>
      </trkpt>
      <trkpt lat="43.60996" lon="0.49584">
        <ele>199</ele>
        <time>2020-01-12T12:36:10.000Z</time>
      </trkpt>
      <trkpt lat="43.60996" lon="0.49582">
        <ele>199</ele>
        <time>2020-01-12T12:36:12.000Z</time>
      </trkpt>
      <trkpt lat="43.60996" lon="0.49579">
        <ele>199</ele>
        <time>2020-01-12T12:36:14.000Z</time>
      </trkpt>
      <trkpt lat="43.60995" lon="0.49578">
        <ele>199</ele>
        <time>2020-01-12T12:36:16.000Z</time>
      </trkpt>
      <trkpt lat="43.60995" lon="0.49575">
        <ele>200</ele>
        <time>2020-01-12T12:36:18.000Z</time>
      </trkpt>
      <trkpt lat="43.60995" lon="0.49572">
        <ele>200</ele>
        <time>2020-01-12T12:36:20.000Z</time>
      </trkpt>
      <trkpt lat="43.60995" lon="0.49569">
        <ele>200</ele>
        <time>2020-01-12T12:36:22.000Z</time>
      </trkpt>
      <trkpt lat="43.60995" lon="0.49567">
        <ele>200</ele>
        <time>2020-01-12T12:36:24.000Z</time>
      </trkpt>
      <trkpt lat="43.60995" lon="0.49565">
        <ele>200</ele>
        <time>2020-01-12T12:36:26.000Z</time>
      </trkpt>
      <trkpt lat="43.60994" lon="0.49562">
        <ele>200</ele>
        <time>2020-01-12T12:36:28.000Z</time>
      </trkpt>
      <trkpt lat="43.60993" lon="0.4956">
        <ele>200</ele>
        <time>2020-01-12T12:36:30.000Z</time>
      </trkpt>
      <trkpt lat="43.60992" lon="0.49558">
        <ele>200</ele>
        <time>2020-01-12T12:36:32.000Z</time>
      </trkpt>
      <trkpt lat="43.60991" lon="0.49557">
        <ele>200</ele>
        <time>2020-01-12T12:36:34.000Z</time>
      </trkpt>
      <trkpt lat="43.60989" lon="0.49555">
        <ele>200</ele>
        <time>2020-01-12T12:36:36.000Z</time>
      </trkpt>
      <trkpt lat="43.60988" lon="0.49553">
        <ele>200</ele>
        <time>2020-01-12T12:36:38.000Z</time>
      </trkpt>
      <trkpt lat="43.60986" lon="0.49552">
        <ele>200</ele>
        <time>2020-01-12T12:36:40.000Z</time>
      </trkpt>
      <trkpt lat="43.60985" lon="0.4955">
        <ele>200</ele>
        <time>2020-01-12T12:36:42.000Z</time>
      </trkpt>
      <trkpt lat="43.60983" lon="0.49549">
        <ele>200</ele>
        <time>2020-01-12T12:36:44.000Z</time>
      </trkpt>
      <trkpt lat="43.60982" lon="0.49548">
        <ele>200</ele>
        <time>2020-01-12T12:36:46.000Z</time>
      </trkpt>
      <trkpt lat="43.60979" lon="0.49547">
        <ele>200</ele>
        <time>2020-01-12T12:36:48.000Z</time>
      </trkpt>
      <trkpt lat="43.60977" lon="0.49546">
        <ele>200</ele>
        <time>2020-01-12T12:36:50.000Z</time>
      </trkpt>
      <trkpt lat="43.60976" lon="0.49544">
        <ele>200</ele>
        <time>2020-01-12T12:36:52.000Z</time>
      </trkpt>
      <trkpt lat="43.60974" lon="0.49542">
        <ele>200</ele>
        <time>2020-01-12T12:36:54.000Z</time>
      </trkpt>
      <trkpt lat="43.60972" lon="0.4954">
        <ele>200</ele>
        <time>2020-01-12T12:36:56.000Z</time>
      </trkpt>
      <trkpt lat="43.6097" lon="0.49539">
        <ele>200</ele>
        <time>2020-01-12T12:36:58.000Z</time>
      </trkpt>
      <trkpt lat="43.60968" lon="0.49536">
        <ele>200</ele>
        <time>2020-01-12T12:37:00.000Z</time>
      </trkpt>
      <trkpt lat="43.60966" lon="0.49534">
        <ele>200</ele>
        <time>2020-01-12T12:37:02.000Z</time>
      </trkpt>
      <trkpt lat="43.60964" lon="0.49533">
        <ele>200</ele>
        <time>2020-01-12T12:37:04.000Z</time>
      </trkpt>
      <trkpt lat="43.60962" lon="0.49532">
        <ele>200</ele>
        <time>2020-01-12T12:37:06.000Z</time>
      </trkpt>
      <trkpt lat="43.6096" lon="0.4953">
        <ele>200</ele>
        <time>2020-01-12T12:37:08.000Z</time>
      </trkpt>
      <trkpt lat="43.60958" lon="0.49528">
        <ele>200</ele>
        <time>2020-01-12T12:37:10.000Z</time>
      </trkpt>
      <trkpt lat="43.60957" lon="0.49527">
        <ele>200</ele>
        <time>2020-01-12T12:37:12.000Z</time>
      </trkpt>
      <trkpt lat="43.60955" lon="0.49526">
        <ele>200</ele>
        <time>2020-01-12T12:37:14.000Z</time>
      </trkpt>
      <trkpt lat="43.60952" lon="0.49525">
        <ele>200</ele>
        <time>2020-01-12T12:37:16.000Z</time>
      </trkpt>
      <trkpt lat="43.6095" lon="0.49523">
        <ele>200</ele>
        <time>2020-01-12T12:37:18.000Z</time>
      </trkpt>
      <trkpt lat="43.60949" lon="0.49521">
        <ele>200</ele>
        <time>2020-01-12T12:37:20.000Z</time>
      </trkpt>
      <trkpt lat="43.60947" lon="0.49519">
        <ele>200</ele>
        <time>2020-01-12T12:37:22.000Z</time>
      </trkpt>
      <trkpt lat="43.60945" lon="0.49517">
        <ele>200</ele>
        <time>2020-01-12T12:37:24.000Z</time>
      </trkpt>
      <trkpt lat="43.60944" lon="0.49515">
        <ele>200</ele>
        <time>2020-01-12T12:37:26.000Z</time>
      </trkpt>
      <trkpt lat="43.60941" lon="0.49514">
        <ele>200</ele>
        <time>2020-01-12T12:37:28.000Z</time>
      </trkpt>
      <trkpt lat="43.60939" lon="0.49513">
        <ele>200</ele>
        <time>2020-01-12T12:37:30.000Z</time>
      </trkpt>
      <trkpt lat="43.60937" lon="0.49512">
        <ele>200</ele>
        <time>2020-01-12T12:37:32.000Z</time>
      </trkpt>
      <trkpt lat="43.60935" lon="0.49511">
        <ele>199</ele>
        <time>2020-01-12T12:37:34.000Z</time>
      </trkpt>
      <trkpt lat="43.60933" lon="0.49511">
        <ele>200</ele>
        <time>2020-01-12T12:37:36.000Z</time>
      </trkpt>
      <trkpt lat="43.6093" lon="0.4951">
        <ele>200</ele>
        <time>2020-01-12T12:37:38.000Z</time>
      </trkpt>
      <trkpt lat="43.60928" lon="0.4951">
        <ele>200</ele>
        <time>2020-01-12T12:37:40.000Z</time>
      </trkpt>
      <trkpt lat="43.60926" lon="0.49509">
        <ele>200</ele>
        <time>2020-01-12T12:37:42.000Z</time>
      </trkpt>
      <trkpt lat="43.60925" lon="0.49508">
        <ele>200</ele>
        <time>2020-01-12T12:37:44.000Z</time>
      </trkpt>
      <trkpt lat="43.60923" lon="0.49507">
        <ele>200</ele>
        <time>2020-01-12T12:37:46.000Z</time>
      </trkpt>
      <trkpt lat="43.60923" lon="0.49507">
        <ele>200</ele>
        <time>2020-01-12T12:37:48.000Z</time>
      </trkpt>
      <trkpt lat="43.60922" lon="0.49507">
        <ele>200</ele>
        <time>2020-01-12T12:37:50.000Z</time>
      </trkpt>
      <trkpt lat="43.6092" lon="0.49508">
        <ele>200</ele>
        <time>2020-01-12T12:37:52.000Z</time>
      </trkpt>
      <trkpt lat="43.60918" lon="0.49508">
        <ele>200</ele>
        <time>2020-01-12T12:37:54.000Z</time>
      </trkpt>
      <trkpt lat="43.60916" lon="0.49508">
        <ele>200</ele>
        <time>2020-01-12T12:37:56.000Z</time>
      </trkpt>
      <trkpt lat="43.60914" lon="0.49508">
        <ele>200</ele>
        <time>2020-01-12T12:37:58.000Z</time>
      </trkpt>
      <trkpt lat="43.60912" lon="0.49507">
        <ele>200</ele>
        <time>2020-01-12T12:38:00.000Z</time>
      </trkpt>
      <trkpt lat="43.6091" lon="0.49507">
        <ele>200</ele>
        <time>2020-01-12T12:38:02.000Z</time>
      </trkpt>
      <trkpt lat="43.60907" lon="0.49507">
        <ele>200</ele>
        <time>2020-01-12T12:38:04.000Z</time>
      </trkpt>
      <trkpt lat="43.60905" lon="0.49507">
        <ele>200</ele>
        <time>2020-01-12T12:38:06.000Z</time>
      </trkpt>
      <trkpt lat="43.60903" lon="0.49508">
        <ele>200</ele>
        <time>2020-01-12T12:38:08.000Z</time>
      </trkpt>
      <trkpt lat="43.60901" lon="0.49509">
        <ele>200</ele>
        <time>2020-01-12T12:38:10.000Z</time>
      </trkpt>
      <trkpt lat="43.609" lon="0.4951">
        <ele>200</ele>
        <time>2020-01-12T12:38:12.000Z</time>
      </trkpt>
      <trkpt lat="43.60898" lon="0.49511">
        <ele>200</ele>
        <time>2020-01-12T12:38:14.000Z</time>
      </trkpt>
      <trkpt lat="43.60896" lon="0.4951">
        <ele>200</ele>
        <time>2020-01-12T12:38:16.000Z</time>
      </trkpt>
      <trkpt lat="43.60894" lon="0.4951">
        <ele>200</ele>
        <time>2020-01-12T12:38:18.000Z</time>
      </trkpt>
      <trkpt lat="43.60892" lon="0.4951">
        <ele>200</ele>
        <time>2020-01-12T12:38:20.000Z</time>
      </trkpt>
      <trkpt lat="43.6089" lon="0.4951">
        <ele>201</ele>
        <time>2020-01-12T12:38:22.000Z</time>
      </trkpt>
      <trkpt lat="43.60888" lon="0.4951">
        <ele>201</ele>
        <time>2020-01-12T12:38:24.000Z</time>
      </trkpt>
      <trkpt lat="43.60887" lon="0.4951">
        <ele>201</ele>
        <time>2020-01-12T12:38:26.000Z</time>
      </trkpt>
      <trkpt lat="43.60885" lon="0.4951">
        <ele>201</ele>
        <time>2020-01-12T12:38:28.000Z</time>
      </trkpt>
      <trkpt lat="43.60884" lon="0.49511">
        <ele>201</ele>
        <time>2020-01-12T12:38:30.000Z</time>
      </trkpt>
      <trkpt lat="43.60882" lon="0.49511">
        <ele>201</ele>
        <time>2020-01-12T12:38:32.000Z</time>
      </trkpt>
      <trkpt lat="43.6088" lon="0.49512">
        <ele>201</ele>
        <time>2020-01-12T12:38:34.000Z</time>
      </trkpt>
      <trkpt lat="43.60878" lon="0.49512">
        <ele>201</ele>
        <time>2020-01-12T12:38:36.000Z</time>
      </trkpt>
      <trkpt lat="43.60875" lon="0.49513">
        <ele>201</ele>
        <time>2020-01-12T12:38:38.000Z</time>
      </trkpt>
      <trkpt lat="43.60873" lon="0.49513">
        <ele>201</ele>
        <time>2020-01-12T12:38:40.000Z</time>
      </trkpt>
      <trkpt lat="43.60871" lon="0.49513">
        <ele>201</ele>
        <time>2020-01-12T12:38:42.000Z</time>
      </trkpt>
      <trkpt lat="43.60869" lon="0.49514">
        <ele>201</ele>
        <time>2020-01-12T12:38:44.000Z</time>
      </trkpt>
      <trkpt lat="43.60866" lon="0.49515">
        <ele>201</ele>
        <time>2020-01-12T12:38:46.000Z</time>
      </trkpt>
      <trkpt lat="43.60865" lon="0.49515">
        <ele>201</ele>
        <time>2020-01-12T12:38:48.000Z</time>
      </trkpt>
      <trkpt lat="43.60863" lon="0.49515">
        <ele>201</ele>
        <time>2020-01-12T12:38:50.000Z</time>
      </trkpt>
      <trkpt lat="43.60862" lon="0.49515">
        <ele>201</ele>
        <time>2020-01-12T12:38:52.000Z</time>
      </trkpt>
      <trkpt lat="43.6086" lon="0.49515">
        <ele>201</ele>
        <time>2020-01-12T12:38:54.000Z</time>
      </trkpt>
      <trkpt lat="43.60857" lon="0.49516">
        <ele>201</ele>
        <time>2020-01-12T12:38:56.000Z</time>
      </trkpt>
      <trkpt lat="43.60856" lon="0.49516">
        <ele>201</ele>
        <time>2020-01-12T12:38:58.000Z</time>
      </trkpt>
      <trkpt lat="43.60853" lon="0.49517">
        <ele>201</ele>
        <time>2020-01-12T12:39:00.000Z</time>
      </trkpt>
      <trkpt lat="43.60851" lon="0.49518">
        <ele>201</ele>
        <time>2020-01-12T12:39:02.000Z</time>
      </trkpt>
      <trkpt lat="43.6085" lon="0.49519">
        <ele>201</ele>
        <time>2020-01-12T12:39:04.000Z</time>
      </trkpt>
      <trkpt lat="43.60848" lon="0.49519">
        <ele>201</ele>
        <time>2020-01-12T12:39:06.000Z</time>
      </trkpt>
      <trkpt lat="43.60846" lon="0.4952">
        <ele>201</ele>
        <time>2020-01-12T12:39:08.000Z</time>
      </trkpt>
      <trkpt lat="43.60844" lon="0.4952">
        <ele>201</ele>
        <time>2020-01-12T12:39:10.000Z</time>
      </trkpt>
      <trkpt lat="43.60843" lon="0.49521">
        <ele>201</ele>
        <time>2020-01-12T12:39:12.000Z</time>
      </trkpt>
      <trkpt lat="43.60841" lon="0.49521">
        <ele>202</ele>
        <time>2020-01-12T12:39:14.000Z</time>
      </trkpt>
      <trkpt lat="43.60839" lon="0.49521">
        <ele>202</ele>
        <time>2020-01-12T12:39:16.000Z</time>
      </trkpt>
      <trkpt lat="43.60838" lon="0.49521">
        <ele>202</ele>
        <time>2020-01-12T12:39:18.000Z</time>
      </trkpt>
      <trkpt lat="43.60837" lon="0.49521">
        <ele>202</ele>
        <time>2020-01-12T12:39:20.000Z</time>
      </trkpt>
      <trkpt lat="43.60835" lon="0.49522">
        <ele>202</ele>
        <time>2020-01-12T12:39:22.000Z</time>
      </trkpt>
      <trkpt lat="43.60833" lon="0.49522">
        <ele>202</ele>
        <time>2020-01-12T12:39:24.000Z</time>
      </trkpt>
      <trkpt lat="43.60832" lon="0.49522">
        <ele>202</ele>
        <time>2020-01-12T12:39:26.000Z</time>
      </trkpt>
      <trkpt lat="43.6083" lon="0.49522">
        <ele>203</ele>
        <time>2020-01-12T12:39:28.000Z</time>
      </trkpt>
      <trkpt lat="43.60828" lon="0.49522">
        <ele>203</ele>
        <time>2020-01-12T12:39:30.000Z</time>
      </trkpt>
      <trkpt lat="43.60827" lon="0.49523">
        <ele>203</ele>
        <time>2020-01-12T12:39:32.000Z</time>
      </trkpt>
      <trkpt lat="43.60825" lon="0.49523">
        <ele>203</ele>
        <time>2020-01-12T12:39:34.000Z</time>
      </trkpt>
      <trkpt lat="43.60823" lon="0.49523">
        <ele>203</ele>
        <time>2020-01-12T12:39:36.000Z</time>
      </trkpt>
      <trkpt lat="43.60821" lon="0.49523">
        <ele>203</ele>
        <time>2020-01-12T12:39:38.000Z</time>
      </trkpt>
      <trkpt lat="43.60819" lon="0.49523">
        <ele>203</ele>
        <time>2020-01-12T12:39:40.000Z</time>
      </trkpt>
      <trkpt lat="43.60817" lon="0.49524">
        <ele>203</ele>
        <time>2020-01-12T12:39:42.000Z</time>
      </trkpt>
      <trkpt lat="43.60815" lon="0.49524">
        <ele>203</ele>
        <time>2020-01-12T12:39:44.000Z</time>
      </trkpt>
      <trkpt lat="43.60813" lon="0.49525">
        <ele>204</ele>
        <time>2020-01-12T12:39:46.000Z</time>
      </trkpt>
      <trkpt lat="43.60811" lon="0.49525">
        <ele>204</ele>
        <time>2020-01-12T12:39:48.000Z</time>
      </trkpt>
      <trkpt lat="43.60809" lon="0.49526">
        <ele>204</ele>
        <time>2020-01-12T12:39:50.000Z</time>
      </trkpt>
      <trkpt lat="43.60806" lon="0.49527">
        <ele>204</ele>
        <time>2020-01-12T12:39:52.000Z</time>
      </trkpt>
      <trkpt lat="43.60804" lon="0.49527">
        <ele>204</ele>
        <time>2020-01-12T12:39:54.000Z</time>
      </trkpt>
      <trkpt lat="43.60803" lon="0.49528">
        <ele>204</ele>
        <time>2020-01-12T12:39:56.000Z</time>
      </trkpt>
      <trkpt lat="43.60801" lon="0.49528">
        <ele>204</ele>
        <time>2020-01-12T12:39:58.000Z</time>
      </trkpt>
      <trkpt lat="43.608" lon="0.49528">
        <ele>204</ele>
        <time>2020-01-12T12:40:00.000Z</time>
      </trkpt>
      <trkpt lat="43.60798" lon="0.49528">
        <ele>204</ele>
        <time>2020-01-12T12:40:02.000Z</time>
      </trkpt>
      <trkpt lat="43.60796" lon="0.49528">
        <ele>204</ele>
        <time>2020-01-12T12:40:04.000Z</time>
      </trkpt>
      <trkpt lat="43.60793" lon="0.49528">
        <ele>205</ele>
        <time>2020-01-12T12:40:06.000Z</time>
      </trkpt>
      <trkpt lat="43.60792" lon="0.49528">
        <ele>205</ele>
        <time>2020-01-12T12:40:08.000Z</time>
      </trkpt>
      <trkpt lat="43.6079" lon="0.49528">
        <ele>205</ele>
        <time>2020-01-12T12:40:10.000Z</time>
      </trkpt>
      <trkpt lat="43.60788" lon="0.49527">
        <ele>205</ele>
        <time>2020-01-12T12:40:12.000Z</time>
      </trkpt>
      <trkpt lat="43.60786" lon="0.49528">
        <ele>205</ele>
        <time>2020-01-12T12:40:14.000Z</time>
      </trkpt>
      <trkpt lat="43.60784" lon="0.49528">
        <ele>205</ele>
        <time>2020-01-12T12:40:16.000Z</time>
      </trkpt>
      <trkpt lat="43.60782" lon="0.49528">
        <ele>205</ele>
        <time>2020-01-12T12:40:18.000Z</time>
      </trkpt>
      <trkpt lat="43.60781" lon="0.49528">
        <ele>205</ele>
        <time>2020-01-12T12:40:20.000Z</time>
      </trkpt>
      <trkpt lat="43.60779" lon="0.49528">
        <ele>205</ele>
        <time>2020-01-12T12:40:22.000Z</time>
      </trkpt>
      <trkpt lat="43.60778" lon="0.49529">
        <ele>205</ele>
        <time>2020-01-12T12:40:24.000Z</time>
      </trkpt>
      <trkpt lat="43.60775" lon="0.4953">
        <ele>206</ele>
        <time>2020-01-12T12:40:26.000Z</time>
      </trkpt>
      <trkpt lat="43.60773" lon="0.4953">
        <ele>206</ele>
        <time>2020-01-12T12:40:28.000Z</time>
      </trkpt>
      <trkpt lat="43.60771" lon="0.49531">
        <ele>206</ele>
        <time>2020-01-12T12:40:30.000Z</time>
      </trkpt>
      <trkpt lat="43.60769" lon="0.49531">
        <ele>206</ele>
        <time>2020-01-12T12:40:32.000Z</time>
      </trkpt>
      <trkpt lat="43.60767" lon="0.49531">
        <ele>206</ele>
        <time>2020-01-12T12:40:34.000Z</time>
      </trkpt>
      <trkpt lat="43.60766" lon="0.49532">
        <ele>206</ele>
        <time>2020-01-12T12:40:36.000Z</time>
      </trkpt>
      <trkpt lat="43.60764" lon="0.49532">
        <ele>206</ele>
        <time>2020-01-12T12:40:38.000Z</time>
      </trkpt>
      <trkpt lat="43.60763" lon="0.49533">
        <ele>206</ele>
        <time>2020-01-12T12:40:40.000Z</time>
      </trkpt>
      <trkpt lat="43.60761" lon="0.49533">
        <ele>207</ele>
        <time>2020-01-12T12:40:42.000Z</time>
      </trkpt>
      <trkpt lat="43.60759" lon="0.49534">
        <ele>207</ele>
        <time>2020-01-12T12:40:44.000Z</time>
      </trkpt>
      <trkpt lat="43.60757" lon="0.49535">
        <ele>207</ele>
        <time>2020-01-12T12:40:46.000Z</time>
      </trkpt>
      <trkpt lat="43.60755" lon="0.49536">
        <ele>207</ele>
        <time>2020-01-12T12:40:48.000Z</time>
      </trkpt>
      <trkpt lat="43.60753" lon="0.49537">
        <ele>207</ele>
        <time>2020-01-12T12:40:50.000Z</time>
      </trkpt>
      <trkpt lat="43.60751" lon="0.49538">
        <ele>207</ele>
        <time>2020-01-12T12:40:52.000Z</time>
      </trkpt>
      <trkpt lat="43.6075" lon="0.49538">
        <ele>207</ele>
        <time>2020-01-12T12:40:54.000Z</time>
      </trkpt>
      <trkpt lat="43.60748" lon="0.49539">
        <ele>207</ele>
        <time>2020-01-12T12:40:56.000Z</time>
      </trkpt>
      <trkpt lat="43.60746" lon="0.4954">
        <ele>208</ele>
        <time>2020-01-12T12:40:58.000Z</time>
      </trkpt>
      <trkpt lat="43.60745" lon="0.49541">
        <ele>208</ele>
        <time>2020-01-12T12:41:00.000Z</time>
      </trkpt>
      <trkpt lat="43.60743" lon="0.49541">
        <ele>208</ele>
        <time>2020-01-12T12:41:02.000Z</time>
      </trkpt>
      <trkpt lat="43.60741" lon="0.49542">
        <ele>208</ele>
        <time>2020-01-12T12:41:04.000Z</time>
      </trkpt>
      <trkpt lat="43.60739" lon="0.49542">
        <ele>208</ele>
        <time>2020-01-12T12:41:06.000Z</time>
      </trkpt>
      <trkpt lat="43.60737" lon="0.49543">
        <ele>208</ele>
        <time>2020-01-12T12:41:08.000Z</time>
      </trkpt>
      <trkpt lat="43.60735" lon="0.49545">
        <ele>208</ele>
        <time>2020-01-12T12:41:10.000Z</time>
      </trkpt>
      <trkpt lat="43.60733" lon="0.49545">
        <ele>208</ele>
        <time>2020-01-12T12:41:12.000Z</time>
      </trkpt>
      <trkpt lat="43.60731" lon="0.49546">
        <ele>208</ele>
        <time>2020-01-12T12:41:14.000Z</time>
      </trkpt>
      <trkpt lat="43.60729" lon="0.49546">
        <ele>209</ele>
        <time>2020-01-12T12:41:16.000Z</time>
      </trkpt>
      <trkpt lat="43.60727" lon="0.49547">
        <ele>209</ele>
        <time>2020-01-12T12:41:18.000Z</time>
      </trkpt>
      <trkpt lat="43.60725" lon="0.49547">
        <ele>209</ele>
        <time>2020-01-12T12:41:20.000Z</time>
      </trkpt>
      <trkpt lat="43.60724" lon="0.49548">
        <ele>209</ele>
        <time>2020-01-12T12:41:22.000Z</time>
      </trkpt>
      <trkpt lat="43.60722" lon="0.49549">
        <ele>209</ele>
        <time>2020-01-12T12:41:24.000Z</time>
      </trkpt>
      <trkpt lat="43.6072" lon="0.49548">
        <ele>209</ele>
        <time>2020-01-12T12:41:26.000Z</time>
      </trkpt>
      <trkpt lat="43.60718" lon="0.49549">
        <ele>209</ele>
        <time>2020-01-12T12:41:28.000Z</time>
      </trkpt>
      <trkpt lat="43.60716" lon="0.49549">
        <ele>209</ele>
        <time>2020-01-12T12:41:30.000Z</time>
      </trkpt>
      <trkpt lat="43.60714" lon="0.4955">
        <ele>210</ele>
        <time>2020-01-12T12:41:32.000Z</time>
      </trkpt>
      <trkpt lat="43.60711" lon="0.49551">
        <ele>210</ele>
        <time>2020-01-12T12:41:34.000Z</time>
      </trkpt>
      <trkpt lat="43.60709" lon="0.49552">
        <ele>210</ele>
        <time>2020-01-12T12:41:36.000Z</time>
      </trkpt>
      <trkpt lat="43.60707" lon="0.49554">
        <ele>210</ele>
        <time>2020-01-12T12:41:38.000Z</time>
      </trkpt>
      <trkpt lat="43.60705" lon="0.49554">
        <ele>210</ele>
        <time>2020-01-12T12:41:40.000Z</time>
      </trkpt>
      <trkpt lat="43.60703" lon="0.49555">
        <ele>210</ele>
        <time>2020-01-12T12:41:42.000Z</time>
      </trkpt>
      <trkpt lat="43.60702" lon="0.49556">
        <ele>210</ele>
        <time>2020-01-12T12:41:44.000Z</time>
      </trkpt>
      <trkpt lat="43.607" lon="0.49557">
        <ele>210</ele>
        <time>2020-01-12T12:41:46.000Z</time>
      </trkpt>
      <trkpt lat="43.60698" lon="0.49558">
        <ele>210</ele>
        <time>2020-01-12T12:41:48.000Z</time>
      </trkpt>
      <trkpt lat="43.60697" lon="0.49559">
        <ele>210</ele>
        <time>2020-01-12T12:41:50.000Z</time>
      </trkpt>
      <trkpt lat="43.60696" lon="0.4956">
        <ele>210</ele>
        <time>2020-01-12T12:41:52.000Z</time>
      </trkpt>
      <trkpt lat="43.60695" lon="0.49561">
        <ele>210</ele>
        <time>2020-01-12T12:41:54.000Z</time>
      </trkpt>
      <trkpt lat="43.60693" lon="0.49562">
        <ele>210</ele>
        <time>2020-01-12T12:41:56.000Z</time>
      </trkpt>
      <trkpt lat="43.60692" lon="0.49564">
        <ele>210</ele>
        <time>2020-01-12T12:41:58.000Z</time>
      </trkpt>
      <trkpt lat="43.6069" lon="0.49565">
        <ele>210</ele>
        <time>2020-01-12T12:42:00.000Z</time>
      </trkpt>
      <trkpt lat="43.60689" lon="0.49566">
        <ele>210</ele>
        <time>2020-01-12T12:42:02.000Z</time>
      </trkpt>
      <trkpt lat="43.60688" lon="0.49567">
        <ele>210</ele>
        <time>2020-01-12T12:42:04.000Z</time>
      </trkpt>
      <trkpt lat="43.60686" lon="0.49569">
        <ele>210</ele>
        <time>2020-01-12T12:42:06.000Z</time>
      </trkpt>
      <trkpt lat="43.60684" lon="0.49569">
        <ele>210</ele>
        <time>2020-01-12T12:42:08.000Z</time>
      </trkpt>
      <trkpt lat="43.60682" lon="0.49571">
        <ele>210</ele>
        <time>2020-01-12T12:42:10.000Z</time>
      </trkpt>
      <trkpt lat="43.6068" lon="0.49574">
        <ele>210</ele>
        <time>2020-01-12T12:42:12.000Z</time>
      </trkpt>
      <trkpt lat="43.60678" lon="0.49575">
        <ele>210</ele>
        <time>2020-01-12T12:42:14.000Z</time>
      </trkpt>
      <trkpt lat="43.60676" lon="0.49576">
        <ele>210</ele>
        <time>2020-01-12T12:42:16.000Z</time>
      </trkpt>
      <trkpt lat="43.60674" lon="0.49577">
        <ele>210</ele>
        <time>2020-01-12T12:42:18.000Z</time>
      </trkpt>
      <trkpt lat="43.60672" lon="0.49579">
        <ele>210</ele>
        <time>2020-01-12T12:42:20.000Z</time>
      </trkpt>
      <trkpt lat="43.60671" lon="0.4958">
        <ele>210</ele>
        <time>2020-01-12T12:42:22.000Z</time>
      </trkpt>
      <trkpt lat="43.60669" lon="0.49582">
        <ele>210</ele>
        <time>2020-01-12T12:42:24.000Z</time>
      </trkpt>
      <trkpt lat="43.60667" lon="0.49583">
        <ele>210</ele>
        <time>2020-01-12T12:42:26.000Z</time>
      </trkpt>
      <trkpt lat="43.60665" lon="0.49584">
        <ele>209</ele>
        <time>2020-01-12T12:42:28.000Z</time>
      </trkpt>
      <trkpt lat="43.60663" lon="0.49586">
        <ele>209</ele>
        <time>2020-01-12T12:42:30.000Z</time>
      </trkpt>
      <trkpt lat="43.60661" lon="0.49587">
        <ele>209</ele>
        <time>2020-01-12T12:42:32.000Z</time>
      </trkpt>
      <trkpt lat="43.60659" lon="0.49588">
        <ele>209</ele>
        <time>2020-01-12T12:42:34.000Z</time>
      </trkpt>
      <trkpt lat="43.60657" lon="0.4959">
        <ele>209</ele>
        <time>2020-01-12T12:42:36.000Z</time>
      </trkpt>
      <trkpt lat="43.60655" lon="0.49592">
        <ele>209</ele>
        <time>2020-01-12T12:42:38.000Z</time>
      </trkpt>
      <trkpt lat="43.60654" lon="0.49593">
        <ele>209</ele>
        <time>2020-01-12T12:42:40.000Z</time>
      </trkpt>
      <trkpt lat="43.60653" lon="0.49595">
        <ele>209</ele>
        <time>2020-01-12T12:42:42.000Z</time>
      </trkpt>
      <trkpt lat="43.60652" lon="0.49596">
        <ele>209</ele>
        <time>2020-01-12T12:42:44.000Z</time>
      </trkpt>
      <trkpt lat="43.6065" lon="0.49597">
        <ele>209</ele>
        <time>2020-01-12T12:42:46.000Z</time>
      </trkpt>
      <trkpt lat="43.60649" lon="0.49598">
        <ele>209</ele>
        <time>2020-01-12T12:42:48.000Z</time>
      </trkpt>
      <trkpt lat="43.60647" lon="0.496">
        <ele>208</ele>
        <time>2020-01-12T12:42:50.000Z</time>
      </trkpt>
      <trkpt lat="43.60647" lon="0.49602">
        <ele>208</ele>
        <time>2020-01-12T12:42:52.000Z</time>
      </trkpt>
      <trkpt lat="43.60646" lon="0.49603">
        <ele>208</ele>
        <time>2020-01-12T12:42:54.000Z</time>
      </trkpt>
      <trkpt lat="43.60646" lon="0.49603">
        <ele>208</ele>
        <time>2020-01-12T12:42:56.000Z</time>
      </trkpt>
      <trkpt lat="43.60646" lon="0.49603">
        <ele>208</ele>
        <time>2020-01-12T12:42:58.000Z</time>
      </trkpt>
      <trkpt lat="43.60647" lon="0.49602">
        <ele>208</ele>
        <time>2020-01-12T12:43:00.000Z</time>
      </trkpt>
      <trkpt lat="43.60648" lon="0.49602">
        <ele>208</ele>
        <time>2020-01-12T12:43:02.000Z</time>
      </trkpt>
      <trkpt lat="43.60648" lon="0.49602">
        <ele>208</ele>
        <time>2020-01-12T12:43:04.000Z</time>
      </trkpt>
      <trkpt lat="43.60648" lon="0.49602">
        <ele>208</ele>
        <time>2020-01-12T12:43:06.000Z</time>
      </trkpt>
      <trkpt lat="43.60647" lon="0.49602">
        <ele>208</ele>
        <time>2020-01-12T12:43:08.000Z</time>
      </trkpt>
      <trkpt lat="43.60646" lon="0.49603">
        <ele>208</ele>
        <time>2020-01-12T12:43:10.000Z</time>
      </trkpt>
      <trkpt lat="43.60645" lon="0.49604">
        <ele>208</ele>
        <time>2020-01-12T12:43:12.000Z</time>
      </trkpt>
      <trkpt lat="43.60643" lon="0.49605">
        <ele>208</ele>
        <time>2020-01-12T12:43:14.000Z</time>
      </trkpt>
      <trkpt lat="43.60641" lon="0.49607">
        <ele>208</ele>
        <time>2020-01-12T12:43:16.000Z</time>
      </trkpt>
      <trkpt lat="43.60639" lon="0.49608">
        <ele>208</ele>
        <time>2020-01-12T12:43:18.000Z</time>
      </trkpt>
      <trkpt lat="43.60636" lon="0.4961">
        <ele>207</ele>
        <time>2020-01-12T12:43:20.000Z</time>
      </trkpt>
      <trkpt lat="43.60634" lon="0.49611">
        <ele>207</ele>
        <time>2020-01-12T12:43:22.000Z</time>
      </trkpt>
      <trkpt lat="43.60632" lon="0.49613">
        <ele>207</ele>
        <time>2020-01-12T12:43:24.000Z</time>
      </trkpt>
      <trkpt lat="43.60632" lon="0.49614">
        <ele>207</ele>
        <time>2020-01-12T12:43:26.000Z</time>
      </trkpt>
      <trkpt lat="43.60632" lon="0.49614">
        <ele>207</ele>
        <time>2020-01-12T12:43:28.000Z</time>
      </trkpt>
      <trkpt lat="43.60632" lon="0.49614">
        <ele>207</ele>
        <time>2020-01-12T12:43:30.000Z</time>
      </trkpt>
      <trkpt lat="43.60632" lon="0.49614">
        <ele>207</ele>
        <time>2020-01-12T12:43:32.000Z</time>
      </trkpt>
      <trkpt lat="43.60632" lon="0.49614">
        <ele>207</ele>
        <time>2020-01-12T12:43:34.000Z</time>
      </trkpt>
      <trkpt lat="43.60632" lon="0.49614">
        <ele>207</ele>
        <time>2020-01-12T12:43:36.000Z</time>
      </trkpt>
      <trkpt lat="43.60632" lon="0.49613">
        <ele>207</ele>
        <time>2020-01-12T12:43:38.000Z</time>
      </trkpt>
      <trkpt lat="43.60632" lon="0.49612">
        <ele>207</ele>
        <time>2020-01-12T12:43:40.000Z</time>
      </trkpt>
      <trkpt lat="43.60632" lon="0.49612">
        <ele>207</ele>
        <time>2020-01-12T12:43:42.000Z</time>
      </trkpt>
      <trkpt lat="43.60632" lon="0.49611">
        <ele>207</ele>
        <time>2020-01-12T12:43:44.000Z</time>
      </trkpt>
      <trkpt lat="43.60632" lon="0.49612">
        <ele>207</ele>
        <time>2020-01-12T12:43:46.000Z</time>
      </trkpt>
      <trkpt lat="43.6063" lon="0.49613">
        <ele>207</ele>
        <time>2020-01-12T12:43:48.000Z</time>
      </trkpt>
      <trkpt lat="43.60629" lon="0.49614">
        <ele>207</ele>
        <time>2020-01-12T12:43:50.000Z</time>
      </trkpt>
      <trkpt lat="43.60627" lon="0.49616">
        <ele>207</ele>
        <time>2020-01-12T12:43:52.000Z</time>
      </trkpt>
      <trkpt lat="43.60625" lon="0.49617">
        <ele>207</ele>
        <time>2020-01-12T12:43:54.000Z</time>
      </trkpt>
      <trkpt lat="43.60624" lon="0.49619">
        <ele>207</ele>
        <time>2020-01-12T12:43:56.000Z</time>
      </trkpt>
      <trkpt lat="43.60622" lon="0.4962">
        <ele>206</ele>
        <time>2020-01-12T12:43:58.000Z</time>
      </trkpt>
      <trkpt lat="43.6062" lon="0.49621">
        <ele>206</ele>
        <time>2020-01-12T12:44:00.000Z</time>
      </trkpt>
      <trkpt lat="43.60618" lon="0.49622">
        <ele>206</ele>
        <time>2020-01-12T12:44:02.000Z</time>
      </trkpt>
      <trkpt lat="43.60616" lon="0.49623">
        <ele>206</ele>
        <time>2020-01-12T12:44:04.000Z</time>
      </trkpt>
      <trkpt lat="43.60615" lon="0.49624">
        <ele>206</ele>
        <time>2020-01-12T12:44:06.000Z</time>
      </trkpt>
      <trkpt lat="43.60613" lon="0.49625">
        <ele>206</ele>
        <time>2020-01-12T12:44:08.000Z</time>
      </trkpt>
      <trkpt lat="43.60611" lon="0.49627">
        <ele>206</ele>
        <time>2020-01-12T12:44:10.000Z</time>
      </trkpt>
      <trkpt lat="43.60609" lon="0.49629">
        <ele>205</ele>
        <time>2020-01-12T12:44:12.000Z</time>
      </trkpt>
      <trkpt lat="43.60607" lon="0.4963">
        <ele>205</ele>
        <time>2020-01-12T12:44:14.000Z</time>
      </trkpt>
      <trkpt lat="43.60606" lon="0.49632">
        <ele>205</ele>
        <time>2020-01-12T12:44:16.000Z</time>
      </trkpt>
      <trkpt lat="43.60604" lon="0.49633">
        <ele>205</ele>
        <time>2020-01-12T12:44:18.000Z</time>
      </trkpt>
      <trkpt lat="43.60602" lon="0.49635">
        <ele>205</ele>
        <time>2020-01-12T12:44:20.000Z</time>
      </trkpt>
      <trkpt lat="43.606" lon="0.49636">
        <ele>205</ele>
        <time>2020-01-12T12:44:22.000Z</time>
      </trkpt>
      <trkpt lat="43.60598" lon="0.49639">
        <ele>205</ele>
        <time>2020-01-12T12:44:24.000Z</time>
      </trkpt>
      <trkpt lat="43.60597" lon="0.49639">
        <ele>205</ele>
        <time>2020-01-12T12:44:26.000Z</time>
      </trkpt>
      <trkpt lat="43.60595" lon="0.49641">
        <ele>204</ele>
        <time>2020-01-12T12:44:28.000Z</time>
      </trkpt>
      <trkpt lat="43.60594" lon="0.49642">
        <ele>204</ele>
        <time>2020-01-12T12:44:30.000Z</time>
      </trkpt>
      <trkpt lat="43.60592" lon="0.49643">
        <ele>204</ele>
        <time>2020-01-12T12:44:32.000Z</time>
      </trkpt>
      <trkpt lat="43.6059" lon="0.49645">
        <ele>204</ele>
        <time>2020-01-12T12:44:34.000Z</time>
      </trkpt>
      <trkpt lat="43.60588" lon="0.49646">
        <ele>204</ele>
        <time>2020-01-12T12:44:36.000Z</time>
      </trkpt>
      <trkpt lat="43.60586" lon="0.49647">
        <ele>204</ele>
        <time>2020-01-12T12:44:38.000Z</time>
      </trkpt>
      <trkpt lat="43.60584" lon="0.49648">
        <ele>204</ele>
        <time>2020-01-12T12:44:40.000Z</time>
      </trkpt>
      <trkpt lat="43.60582" lon="0.4965">
        <ele>204</ele>
        <time>2020-01-12T12:44:42.000Z</time>
      </trkpt>
      <trkpt lat="43.6058" lon="0.49651">
        <ele>204</ele>
        <time>2020-01-12T12:44:44.000Z</time>
      </trkpt>
      <trkpt lat="43.60578" lon="0.49653">
        <ele>204</ele>
        <time>2020-01-12T12:44:46.000Z</time>
      </trkpt>
      <trkpt lat="43.60576" lon="0.49655">
        <ele>203</ele>
        <time>2020-01-12T12:44:48.000Z</time>
      </trkpt>
      <trkpt lat="43.60575" lon="0.49656">
        <ele>203</ele>
        <time>2020-01-12T12:44:50.000Z</time>
      </trkpt>
      <trkpt lat="43.60573" lon="0.49658">
        <ele>203</ele>
        <time>2020-01-12T12:44:52.000Z</time>
      </trkpt>
      <trkpt lat="43.60572" lon="0.49659">
        <ele>203</ele>
        <time>2020-01-12T12:44:54.000Z</time>
      </trkpt>
      <trkpt lat="43.60569" lon="0.49661">
        <ele>203</ele>
        <time>2020-01-12T12:44:56.000Z</time>
      </trkpt>
      <trkpt lat="43.60567" lon="0.49663">
        <ele>203</ele>
        <time>2020-01-12T12:44:58.000Z</time>
      </trkpt>
      <trkpt lat="43.60566" lon="0.49664">
        <ele>203</ele>
        <time>2020-01-12T12:45:00.000Z</time>
      </trkpt>
      <trkpt lat="43.60564" lon="0.49666">
        <ele>203</ele>
        <time>2020-01-12T12:45:02.000Z</time>
      </trkpt>
      <trkpt lat="43.60563" lon="0.49667">
        <ele>203</ele>
        <time>2020-01-12T12:45:04.000Z</time>
      </trkpt>
      <trkpt lat="43.60561" lon="0.49668">
        <ele>202</ele>
        <time>2020-01-12T12:45:06.000Z</time>
      </trkpt>
      <trkpt lat="43.60559" lon="0.4967">
        <ele>202</ele>
        <time>2020-01-12T12:45:08.000Z</time>
      </trkpt>
      <trkpt lat="43.60557" lon="0.49671">
        <ele>202</ele>
        <time>2020-01-12T12:45:10.000Z</time>
      </trkpt>
      <trkpt lat="43.60555" lon="0.49673">
        <ele>202</ele>
        <time>2020-01-12T12:45:12.000Z</time>
      </trkpt>
      <trkpt lat="43.60553" lon="0.49674">
        <ele>202</ele>
        <time>2020-01-12T12:45:14.000Z</time>
      </trkpt>
      <trkpt lat="43.6055" lon="0.49676">
        <ele>202</ele>
        <time>2020-01-12T12:45:16.000Z</time>
      </trkpt>
      <trkpt lat="43.60548" lon="0.49677">
        <ele>202</ele>
        <time>2020-01-12T12:45:18.000Z</time>
      </trkpt>
      <trkpt lat="43.60546" lon="0.49679">
        <ele>202</ele>
        <time>2020-01-12T12:45:20.000Z</time>
      </trkpt>
      <trkpt lat="43.60544" lon="0.49681">
        <ele>202</ele>
        <time>2020-01-12T12:45:22.000Z</time>
      </trkpt>
      <trkpt lat="43.60542" lon="0.49682">
        <ele>202</ele>
        <time>2020-01-12T12:45:24.000Z</time>
      </trkpt>
      <trkpt lat="43.60541" lon="0.49684">
        <ele>202</ele>
        <time>2020-01-12T12:45:26.000Z</time>
      </trkpt>
      <trkpt lat="43.6054" lon="0.49685">
        <ele>202</ele>
        <time>2020-01-12T12:45:28.000Z</time>
      </trkpt>
      <trkpt lat="43.60538" lon="0.49686">
        <ele>202</ele>
        <time>2020-01-12T12:45:30.000Z</time>
      </trkpt>
      <trkpt lat="43.60536" lon="0.49687">
        <ele>202</ele>
        <time>2020-01-12T12:45:32.000Z</time>
      </trkpt>
      <trkpt lat="43.60534" lon="0.49688">
        <ele>202</ele>
        <time>2020-01-12T12:45:34.000Z</time>
      </trkpt>
      <trkpt lat="43.60531" lon="0.49689">
        <ele>202</ele>
        <time>2020-01-12T12:45:36.000Z</time>
      </trkpt>
      <trkpt lat="43.60529" lon="0.4969">
        <ele>202</ele>
        <time>2020-01-12T12:45:38.000Z</time>
      </trkpt>
      <trkpt lat="43.60526" lon="0.49693">
        <ele>202</ele>
        <time>2020-01-12T12:45:40.000Z</time>
      </trkpt>
      <trkpt lat="43.60524" lon="0.49694">
        <ele>202</ele>
        <time>2020-01-12T12:45:42.000Z</time>
      </trkpt>
      <trkpt lat="43.60522" lon="0.49695">
        <ele>202</ele>
        <time>2020-01-12T12:45:44.000Z</time>
      </trkpt>
      <trkpt lat="43.6052" lon="0.49696">
        <ele>202</ele>
        <time>2020-01-12T12:45:46.000Z</time>
      </trkpt>
      <trkpt lat="43.60517" lon="0.49698">
        <ele>202</ele>
        <time>2020-01-12T12:45:48.000Z</time>
      </trkpt>
      <trkpt lat="43.60515" lon="0.49699">
        <ele>202</ele>
        <time>2020-01-12T12:45:50.000Z</time>
      </trkpt>
      <trkpt lat="43.60513" lon="0.497">
        <ele>202</ele>
        <time>2020-01-12T12:45:52.000Z</time>
      </trkpt>
      <trkpt lat="43.60511" lon="0.49702">
        <ele>202</ele>
        <time>2020-01-12T12:45:54.000Z</time>
      </trkpt>
      <trkpt lat="43.60508" lon="0.49703">
        <ele>202</ele>
        <time>2020-01-12T12:45:56.000Z</time>
      </trkpt>
      <trkpt lat="43.60507" lon="0.49704">
        <ele>202</ele>
        <time>2020-01-12T12:45:58.000Z</time>
      </trkpt>
      <trkpt lat="43.60504" lon="0.49705">
        <ele>202</ele>
        <time>2020-01-12T12:46:00.000Z</time>
      </trkpt>
      <trkpt lat="43.60503" lon="0.49706">
        <ele>203</ele>
        <time>2020-01-12T12:46:02.000Z</time>
      </trkpt>
      <trkpt lat="43.60501" lon="0.49706">
        <ele>203</ele>
        <time>2020-01-12T12:46:04.000Z</time>
      </trkpt>
      <trkpt lat="43.60499" lon="0.49707">
        <ele>203</ele>
        <time>2020-01-12T12:46:06.000Z</time>
      </trkpt>
      <trkpt lat="43.60497" lon="0.49708">
        <ele>203</ele>
        <time>2020-01-12T12:46:08.000Z</time>
      </trkpt>
      <trkpt lat="43.60495" lon="0.49709">
        <ele>203</ele>
        <time>2020-01-12T12:46:10.000Z</time>
      </trkpt>
      <trkpt lat="43.60493" lon="0.4971">
        <ele>203</ele>
        <time>2020-01-12T12:46:12.000Z</time>
      </trkpt>
      <trkpt lat="43.60491" lon="0.49711">
        <ele>203</ele>
        <time>2020-01-12T12:46:14.000Z</time>
      </trkpt>
      <trkpt lat="43.60489" lon="0.49712">
        <ele>203</ele>
        <time>2020-01-12T12:46:16.000Z</time>
      </trkpt>
      <trkpt lat="43.60486" lon="0.49713">
        <ele>203</ele>
        <time>2020-01-12T12:46:18.000Z</time>
      </trkpt>
      <trkpt lat="43.60485" lon="0.49713">
        <ele>204</ele>
        <time>2020-01-12T12:46:20.000Z</time>
      </trkpt>
      <trkpt lat="43.60483" lon="0.49715">
        <ele>204</ele>
        <time>2020-01-12T12:46:22.000Z</time>
      </trkpt>
      <trkpt lat="43.60481" lon="0.49716">
        <ele>204</ele>
        <time>2020-01-12T12:46:24.000Z</time>
      </trkpt>
      <trkpt lat="43.60478" lon="0.49717">
        <ele>204</ele>
        <time>2020-01-12T12:46:26.000Z</time>
      </trkpt>
      <trkpt lat="43.60477" lon="0.49717">
        <ele>204</ele>
        <time>2020-01-12T12:46:28.000Z</time>
      </trkpt>
      <trkpt lat="43.60474" lon="0.49718">
        <ele>204</ele>
        <time>2020-01-12T12:46:30.000Z</time>
      </trkpt>
      <trkpt lat="43.60473" lon="0.49718">
        <ele>204</ele>
        <time>2020-01-12T12:46:32.000Z</time>
      </trkpt>
      <trkpt lat="43.60472" lon="0.4972">
        <ele>204</ele>
        <time>2020-01-12T12:46:34.000Z</time>
      </trkpt>
      <trkpt lat="43.6047" lon="0.49721">
        <ele>204</ele>
        <time>2020-01-12T12:46:36.000Z</time>
      </trkpt>
      <trkpt lat="43.60469" lon="0.49722">
        <ele>204</ele>
        <time>2020-01-12T12:46:38.000Z</time>
      </trkpt>
      <trkpt lat="43.60467" lon="0.49723">
        <ele>205</ele>
        <time>2020-01-12T12:46:40.000Z</time>
      </trkpt>
      <trkpt lat="43.60465" lon="0.49724">
        <ele>205</ele>
        <time>2020-01-12T12:46:42.000Z</time>
      </trkpt>
      <trkpt lat="43.60463" lon="0.49724">
        <ele>205</ele>
        <time>2020-01-12T12:46:44.000Z</time>
      </trkpt>
      <trkpt lat="43.60462" lon="0.49725">
        <ele>205</ele>
        <time>2020-01-12T12:46:46.000Z</time>
      </trkpt>
      <trkpt lat="43.6046" lon="0.49726">
        <ele>205</ele>
        <time>2020-01-12T12:46:48.000Z</time>
      </trkpt>
      <trkpt lat="43.60458" lon="0.49727">
        <ele>205</ele>
        <time>2020-01-12T12:46:50.000Z</time>
      </trkpt>
      <trkpt lat="43.60456" lon="0.49728">
        <ele>205</ele>
        <time>2020-01-12T12:46:52.000Z</time>
      </trkpt>
      <trkpt lat="43.60453" lon="0.49728">
        <ele>206</ele>
        <time>2020-01-12T12:46:54.000Z</time>
      </trkpt>
      <trkpt lat="43.60451" lon="0.49729">
        <ele>206</ele>
        <time>2020-01-12T12:46:56.000Z</time>
      </trkpt>
      <trkpt lat="43.60449" lon="0.49729">
        <ele>206</ele>
        <time>2020-01-12T12:46:58.000Z</time>
      </trkpt>
      <trkpt lat="43.60447" lon="0.49729">
        <ele>206</ele>
        <time>2020-01-12T12:47:00.000Z</time>
      </trkpt>
      <trkpt lat="43.60445" lon="0.4973">
        <ele>206</ele>
        <time>2020-01-12T12:47:02.000Z</time>
      </trkpt>
      <trkpt lat="43.60443" lon="0.4973">
        <ele>206</ele>
        <time>2020-01-12T12:47:04.000Z</time>
      </trkpt>
      <trkpt lat="43.60441" lon="0.49731">
        <ele>206</ele>
        <time>2020-01-12T12:47:06.000Z</time>
      </trkpt>
      <trkpt lat="43.60439" lon="0.49732">
        <ele>206</ele>
        <time>2020-01-12T12:47:08.000Z</time>
      </trkpt>
      <trkpt lat="43.60437" lon="0.49733">
        <ele>206</ele>
        <time>2020-01-12T12:47:10.000Z</time>
      </trkpt>
      <trkpt lat="43.60436" lon="0.49734">
        <ele>206</ele>
        <time>2020-01-12T12:47:12.000Z</time>
      </trkpt>
      <trkpt lat="43.60433" lon="0.49736">
        <ele>206</ele>
        <time>2020-01-12T12:47:14.000Z</time>
      </trkpt>
      <trkpt lat="43.60431" lon="0.49736">
        <ele>206</ele>
        <time>2020-01-12T12:47:16.000Z</time>
      </trkpt>
      <trkpt lat="43.6043" lon="0.49737">
        <ele>206</ele>
        <time>2020-01-12T12:47:18.000Z</time>
      </trkpt>
      <trkpt lat="43.60427" lon="0.49738">
        <ele>206</ele>
        <time>2020-01-12T12:47:20.000Z</time>
      </trkpt>
      <trkpt lat="43.60425" lon="0.49739">
        <ele>206</ele>
        <time>2020-01-12T12:47:22.000Z</time>
      </trkpt>
      <trkpt lat="43.60424" lon="0.49739">
        <ele>206</ele>
        <time>2020-01-12T12:47:24.000Z</time>
      </trkpt>
      <trkpt lat="43.60423" lon="0.4974">
        <ele>206</ele>
        <time>2020-01-12T12:47:26.000Z</time>
      </trkpt>
      <trkpt lat="43.60421" lon="0.4974">
        <ele>206</ele>
        <time>2020-01-12T12:47:28.000Z</time>
      </trkpt>
      <trkpt lat="43.6042" lon="0.49741">
        <ele>206</ele>
        <time>2020-01-12T12:47:30.000Z</time>
      </trkpt>
      <trkpt lat="43.60418" lon="0.49741">
        <ele>206</ele>
        <time>2020-01-12T12:47:32.000Z</time>
      </trkpt>
      <trkpt lat="43.60417" lon="0.49742">
        <ele>206</ele>
        <time>2020-01-12T12:47:34.000Z</time>
      </trkpt>
      <trkpt lat="43.60415" lon="0.49743">
        <ele>206</ele>
        <time>2020-01-12T12:47:36.000Z</time>
      </trkpt>
      <trkpt lat="43.60413" lon="0.49744">
        <ele>206</ele>
        <time>2020-01-12T12:47:38.000Z</time>
      </trkpt>
      <trkpt lat="43.6041" lon="0.49745">
        <ele>206</ele>
        <time>2020-01-12T12:47:40.000Z</time>
      </trkpt>
      <trkpt lat="43.60409" lon="0.49746">
        <ele>206</ele>
        <time>2020-01-12T12:47:42.000Z</time>
      </trkpt>
      <trkpt lat="43.60407" lon="0.49747">
        <ele>206</ele>
        <time>2020-01-12T12:47:44.000Z</time>
      </trkpt>
      <trkpt lat="43.60405" lon="0.49747">
        <ele>206</ele>
        <time>2020-01-12T12:47:46.000Z</time>
      </trkpt>
      <trkpt lat="43.60403" lon="0.49748">
        <ele>206</ele>
        <time>2020-01-12T12:47:48.000Z</time>
      </trkpt>
      <trkpt lat="43.60401" lon="0.49749">
        <ele>206</ele>
        <time>2020-01-12T12:47:50.000Z</time>
      </trkpt>
      <trkpt lat="43.60399" lon="0.4975">
        <ele>206</ele>
        <time>2020-01-12T12:47:52.000Z</time>
      </trkpt>
      <trkpt lat="43.60397" lon="0.49751">
        <ele>206</ele>
        <time>2020-01-12T12:47:54.000Z</time>
      </trkpt>
      <trkpt lat="43.60395" lon="0.49752">
        <ele>206</ele>
        <time>2020-01-12T12:47:56.000Z</time>
      </trkpt>
      <trkpt lat="43.60393" lon="0.49753">
        <ele>206</ele>
        <time>2020-01-12T12:47:58.000Z</time>
      </trkpt>
      <trkpt lat="43.60391" lon="0.49754">
        <ele>206</ele>
        <time>2020-01-12T12:48:00.000Z</time>
      </trkpt>
      <trkpt lat="43.60389" lon="0.49755">
        <ele>206</ele>
        <time>2020-01-12T12:48:02.000Z</time>
      </trkpt>
      <trkpt lat="43.60388" lon="0.49756">
        <ele>206</ele>
        <time>2020-01-12T12:48:04.000Z</time>
      </trkpt>
      <trkpt lat="43.60386" lon="0.49756">
        <ele>206</ele>
        <time>2020-01-12T12:48:06.000Z</time>
      </trkpt>
      <trkpt lat="43.60384" lon="0.49757">
        <ele>206</ele>
        <time>2020-01-12T12:48:08.000Z</time>
      </trkpt>
      <trkpt lat="43.60381" lon="0.49758">
        <ele>206</ele>
        <time>2020-01-12T12:48:10.000Z</time>
      </trkpt>
      <trkpt lat="43.60379" lon="0.49759">
        <ele>206</ele>
        <time>2020-01-12T12:48:12.000Z</time>
      </trkpt>
      <trkpt lat="43.60377" lon="0.49759">
        <ele>207</ele>
        <time>2020-01-12T12:48:14.000Z</time>
      </trkpt>
      <trkpt lat="43.60375" lon="0.4976">
        <ele>207</ele>
        <time>2020-01-12T12:48:16.000Z</time>
      </trkpt>
      <trkpt lat="43.60373" lon="0.49761">
        <ele>207</ele>
        <time>2020-01-12T12:48:18.000Z</time>
      </trkpt>
      <trkpt lat="43.60371" lon="0.49761">
        <ele>207</ele>
        <time>2020-01-12T12:48:20.000Z</time>
      </trkpt>
      <trkpt lat="43.60369" lon="0.49762">
        <ele>207</ele>
        <time>2020-01-12T12:48:22.000Z</time>
      </trkpt>
      <trkpt lat="43.60367" lon="0.49763">
        <ele>207</ele>
        <time>2020-01-12T12:48:24.000Z</time>
      </trkpt>
      <trkpt lat="43.60365" lon="0.49764">
        <ele>207</ele>
        <time>2020-01-12T12:48:26.000Z</time>
      </trkpt>
      <trkpt lat="43.60363" lon="0.49765">
        <ele>207</ele>
        <time>2020-01-12T12:48:28.000Z</time>
      </trkpt>
      <trkpt lat="43.60361" lon="0.49766">
        <ele>207</ele>
        <time>2020-01-12T12:48:30.000Z</time>
      </trkpt>
      <trkpt lat="43.60359" lon="0.49768">
        <ele>207</ele>
        <time>2020-01-12T12:48:32.000Z</time>
      </trkpt>
      <trkpt lat="43.60356" lon="0.49769">
        <ele>207</ele>
        <time>2020-01-12T12:48:34.000Z</time>
      </trkpt>
      <trkpt lat="43.60354" lon="0.4977">
        <ele>207</ele>
        <time>2020-01-12T12:48:36.000Z</time>
      </trkpt>
      <trkpt lat="43.60353" lon="0.49771">
        <ele>207</ele>
        <time>2020-01-12T12:48:38.000Z</time>
      </trkpt>
      <trkpt lat="43.60351" lon="0.49772">
        <ele>207</ele>
        <time>2020-01-12T12:48:40.000Z</time>
      </trkpt>
      <trkpt lat="43.6035" lon="0.49772">
        <ele>207</ele>
        <time>2020-01-12T12:48:42.000Z</time>
      </trkpt>
      <trkpt lat="43.60348" lon="0.49774">
        <ele>206</ele>
        <time>2020-01-12T12:48:44.000Z</time>
      </trkpt>
      <trkpt lat="43.60346" lon="0.49775">
        <ele>206</ele>
        <time>2020-01-12T12:48:46.000Z</time>
      </trkpt>
      <trkpt lat="43.60345" lon="0.49777">
        <ele>206</ele>
        <time>2020-01-12T12:48:48.000Z</time>
      </trkpt>
      <trkpt lat="43.60343" lon="0.49778">
        <ele>206</ele>
        <time>2020-01-12T12:48:50.000Z</time>
      </trkpt>
      <trkpt lat="43.60341" lon="0.4978">
        <ele>205</ele>
        <time>2020-01-12T12:48:52.000Z</time>
      </trkpt>
      <trkpt lat="43.60339" lon="0.49782">
        <ele>205</ele>
        <time>2020-01-12T12:48:54.000Z</time>
      </trkpt>
      <trkpt lat="43.60338" lon="0.49783">
        <ele>205</ele>
        <time>2020-01-12T12:48:56.000Z</time>
      </trkpt>
      <trkpt lat="43.60336" lon="0.49784">
        <ele>205</ele>
        <time>2020-01-12T12:48:58.000Z</time>
      </trkpt>
      <trkpt lat="43.60334" lon="0.49785">
        <ele>205</ele>
        <time>2020-01-12T12:49:00.000Z</time>
      </trkpt>
      <trkpt lat="43.60332" lon="0.49787">
        <ele>205</ele>
        <time>2020-01-12T12:49:02.000Z</time>
      </trkpt>
      <trkpt lat="43.60331" lon="0.49788">
        <ele>205</ele>
        <time>2020-01-12T12:49:04.000Z</time>
      </trkpt>
      <trkpt lat="43.60329" lon="0.4979">
        <ele>204</ele>
        <time>2020-01-12T12:49:06.000Z</time>
      </trkpt>
      <trkpt lat="43.60328" lon="0.49792">
        <ele>204</ele>
        <time>2020-01-12T12:49:08.000Z</time>
      </trkpt>
      <trkpt lat="43.60326" lon="0.49794">
        <ele>204</ele>
        <time>2020-01-12T12:49:10.000Z</time>
      </trkpt>
      <trkpt lat="43.60324" lon="0.49796">
        <ele>204</ele>
        <time>2020-01-12T12:49:12.000Z</time>
      </trkpt>
      <trkpt lat="43.60323" lon="0.49798">
        <ele>204</ele>
        <time>2020-01-12T12:49:14.000Z</time>
      </trkpt>
      <trkpt lat="43.60321" lon="0.498">
        <ele>204</ele>
        <time>2020-01-12T12:49:16.000Z</time>
      </trkpt>
      <trkpt lat="43.60319" lon="0.49802">
        <ele>204</ele>
        <time>2020-01-12T12:49:18.000Z</time>
      </trkpt>
      <trkpt lat="43.60318" lon="0.49803">
        <ele>204</ele>
        <time>2020-01-12T12:49:20.000Z</time>
      </trkpt>
      <trkpt lat="43.60316" lon="0.49805">
        <ele>204</ele>
        <time>2020-01-12T12:49:22.000Z</time>
      </trkpt>
      <trkpt lat="43.60314" lon="0.49807">
        <ele>204</ele>
        <time>2020-01-12T12:49:24.000Z</time>
      </trkpt>
      <trkpt lat="43.60312" lon="0.49809">
        <ele>204</ele>
        <time>2020-01-12T12:49:26.000Z</time>
      </trkpt>
      <trkpt lat="43.60311" lon="0.49812">
        <ele>203</ele>
        <time>2020-01-12T12:49:28.000Z</time>
      </trkpt>
      <trkpt lat="43.60309" lon="0.49814">
        <ele>203</ele>
        <time>2020-01-12T12:49:30.000Z</time>
      </trkpt>
      <trkpt lat="43.60307" lon="0.49817">
        <ele>203</ele>
        <time>2020-01-12T12:49:32.000Z</time>
      </trkpt>
      <trkpt lat="43.60306" lon="0.49818">
        <ele>203</ele>
        <time>2020-01-12T12:49:34.000Z</time>
      </trkpt>
      <trkpt lat="43.60304" lon="0.49821">
        <ele>203</ele>
        <time>2020-01-12T12:49:36.000Z</time>
      </trkpt>
      <trkpt lat="43.60302" lon="0.49823">
        <ele>203</ele>
        <time>2020-01-12T12:49:38.000Z</time>
      </trkpt>
      <trkpt lat="43.60301" lon="0.49826">
        <ele>203</ele>
        <time>2020-01-12T12:49:40.000Z</time>
      </trkpt>
      <trkpt lat="43.60299" lon="0.49828">
        <ele>202</ele>
        <time>2020-01-12T12:49:42.000Z</time>
      </trkpt>
      <trkpt lat="43.60297" lon="0.4983">
        <ele>202</ele>
        <time>2020-01-12T12:49:44.000Z</time>
      </trkpt>
      <trkpt lat="43.60295" lon="0.49832">
        <ele>202</ele>
        <time>2020-01-12T12:49:46.000Z</time>
      </trkpt>
      <trkpt lat="43.60294" lon="0.49834">
        <ele>202</ele>
        <time>2020-01-12T12:49:48.000Z</time>
      </trkpt>
      <trkpt lat="43.60293" lon="0.49836">
        <ele>202</ele>
        <time>2020-01-12T12:49:50.000Z</time>
      </trkpt>
      <trkpt lat="43.60291" lon="0.49839">
        <ele>202</ele>
        <time>2020-01-12T12:49:52.000Z</time>
      </trkpt>
      <trkpt lat="43.6029" lon="0.49841">
        <ele>202</ele>
        <time>2020-01-12T12:49:54.000Z</time>
      </trkpt>
      <trkpt lat="43.60289" lon="0.49843">
        <ele>202</ele>
        <time>2020-01-12T12:49:56.000Z</time>
      </trkpt>
      <trkpt lat="43.60288" lon="0.49845">
        <ele>202</ele>
        <time>2020-01-12T12:49:58.000Z</time>
      </trkpt>
      <trkpt lat="43.60287" lon="0.49847">
        <ele>202</ele>
        <time>2020-01-12T12:50:00.000Z</time>
      </trkpt>
      <trkpt lat="43.60287" lon="0.4985">
        <ele>201</ele>
        <time>2020-01-12T12:50:02.000Z</time>
      </trkpt>
      <trkpt lat="43.60285" lon="0.49852">
        <ele>201</ele>
        <time>2020-01-12T12:50:04.000Z</time>
      </trkpt>
      <trkpt lat="43.60284" lon="0.49854">
        <ele>201</ele>
        <time>2020-01-12T12:50:06.000Z</time>
      </trkpt>
      <trkpt lat="43.60283" lon="0.49857">
        <ele>201</ele>
        <time>2020-01-12T12:50:08.000Z</time>
      </trkpt>
      <trkpt lat="43.60281" lon="0.49859">
        <ele>201</ele>
        <time>2020-01-12T12:50:10.000Z</time>
      </trkpt>
      <trkpt lat="43.6028" lon="0.49862">
        <ele>201</ele>
        <time>2020-01-12T12:50:12.000Z</time>
      </trkpt>
      <trkpt lat="43.60279" lon="0.49864">
        <ele>201</ele>
        <time>2020-01-12T12:50:14.000Z</time>
      </trkpt>
      <trkpt lat="43.60277" lon="0.49867">
        <ele>201</ele>
        <time>2020-01-12T12:50:16.000Z</time>
      </trkpt>
      <trkpt lat="43.60276" lon="0.4987">
        <ele>201</ele>
        <time>2020-01-12T12:50:18.000Z</time>
      </trkpt>
      <trkpt lat="43.60275" lon="0.49872">
        <ele>200</ele>
        <time>2020-01-12T12:50:20.000Z</time>
      </trkpt>
      <trkpt lat="43.60274" lon="0.49875">
        <ele>200</ele>
        <time>2020-01-12T12:50:22.000Z</time>
      </trkpt>
      <trkpt lat="43.60272" lon="0.49877">
        <ele>200</ele>
        <time>2020-01-12T12:50:24.000Z</time>
      </trkpt>
      <trkpt lat="43.60271" lon="0.49879">
        <ele>200</ele>
        <time>2020-01-12T12:50:26.000Z</time>
      </trkpt>
      <trkpt lat="43.6027" lon="0.49882">
        <ele>200</ele>
        <time>2020-01-12T12:50:28.000Z</time>
      </trkpt>
      <trkpt lat="43.60269" lon="0.49885">
        <ele>200</ele>
        <time>2020-01-12T12:50:30.000Z</time>
      </trkpt>
      <trkpt lat="43.60268" lon="0.49887">
        <ele>200</ele>
        <time>2020-01-12T12:50:32.000Z</time>
      </trkpt>
      <trkpt lat="43.60266" lon="0.49889">
        <ele>200</ele>
        <time>2020-01-12T12:50:34.000Z</time>
      </trkpt>
      <trkpt lat="43.60265" lon="0.49892">
        <ele>200</ele>
        <time>2020-01-12T12:50:36.000Z</time>
      </trkpt>
      <trkpt lat="43.60263" lon="0.49894">
        <ele>200</ele>
        <time>2020-01-12T12:50:38.000Z</time>
      </trkpt>
      <trkpt lat="43.60262" lon="0.49897">
        <ele>200</ele>
        <time>2020-01-12T12:50:40.000Z</time>
      </trkpt>
      <trkpt lat="43.6026" lon="0.499">
        <ele>200</ele>
        <time>2020-01-12T12:50:42.000Z</time>
      </trkpt>
      <trkpt lat="43.60259" lon="0.49902">
        <ele>200</ele>
        <time>2020-01-12T12:50:44.000Z</time>
      </trkpt>
      <trkpt lat="43.60258" lon="0.49905">
        <ele>200</ele>
        <time>2020-01-12T12:50:46.000Z</time>
      </trkpt>
      <trkpt lat="43.60256" lon="0.49907">
        <ele>200</ele>
        <time>2020-01-12T12:50:48.000Z</time>
      </trkpt>
      <trkpt lat="43.60255" lon="0.4991">
        <ele>200</ele>
        <time>2020-01-12T12:50:50.000Z</time>
      </trkpt>
      <trkpt lat="43.60254" lon="0.49912">
        <ele>200</ele>
        <time>2020-01-12T12:50:52.000Z</time>
      </trkpt>
      <trkpt lat="43.60253" lon="0.49915">
        <ele>200</ele>
        <time>2020-01-12T12:50:54.000Z</time>
      </trkpt>
      <trkpt lat="43.60251" lon="0.49917">
        <ele>200</ele>
        <time>2020-01-12T12:50:56.000Z</time>
      </trkpt>
      <trkpt lat="43.60249" lon="0.49919">
        <ele>200</ele>
        <time>2020-01-12T12:50:58.000Z</time>
      </trkpt>
      <trkpt lat="43.60248" lon="0.49922">
        <ele>200</ele>
        <time>2020-01-12T12:51:00.000Z</time>
      </trkpt>
      <trkpt lat="43.60247" lon="0.49924">
        <ele>200</ele>
        <time>2020-01-12T12:51:02.000Z</time>
      </trkpt>
      <trkpt lat="43.60245" lon="0.49927">
        <ele>200</ele>
        <time>2020-01-12T12:51:04.000Z</time>
      </trkpt>
      <trkpt lat="43.60244" lon="0.49929">
        <ele>200</ele>
        <time>2020-01-12T12:51:06.000Z</time>
      </trkpt>
      <trkpt lat="43.60242" lon="0.49931">
        <ele>200</ele>
        <time>2020-01-12T12:51:08.000Z</time>
      </trkpt>
      <trkpt lat="43.60241" lon="0.49933">
        <ele>200</ele>
        <time>2020-01-12T12:51:10.000Z</time>
      </trkpt>
      <trkpt lat="43.60239" lon="0.49936">
        <ele>200</ele>
        <time>2020-01-12T12:51:12.000Z</time>
      </trkpt>
      <trkpt lat="43.60237" lon="0.49938">
        <ele>200</ele>
        <time>2020-01-12T12:51:14.000Z</time>
      </trkpt>
      <trkpt lat="43.60236" lon="0.4994">
        <ele>199</ele>
        <time>2020-01-12T12:51:16.000Z</time>
      </trkpt>
      <trkpt lat="43.60235" lon="0.49942">
        <ele>199</ele>
        <time>2020-01-12T12:51:18.000Z</time>
      </trkpt>
      <trkpt lat="43.60233" lon="0.49944">
        <ele>199</ele>
        <time>2020-01-12T12:51:20.000Z</time>
      </trkpt>
      <trkpt lat="43.60231" lon="0.49946">
        <ele>199</ele>
        <time>2020-01-12T12:51:22.000Z</time>
      </trkpt>
      <trkpt lat="43.60229" lon="0.49948">
        <ele>199</ele>
        <time>2020-01-12T12:51:24.000Z</time>
      </trkpt>
      <trkpt lat="43.60228" lon="0.4995">
        <ele>199</ele>
        <time>2020-01-12T12:51:26.000Z</time>
      </trkpt>
      <trkpt lat="43.60226" lon="0.49952">
        <ele>199</ele>
        <time>2020-01-12T12:51:28.000Z</time>
      </trkpt>
      <trkpt lat="43.60224" lon="0.49954">
        <ele>199</ele>
        <time>2020-01-12T12:51:30.000Z</time>
      </trkpt>
      <trkpt lat="43.60223" lon="0.49956">
        <ele>199</ele>
        <time>2020-01-12T12:51:32.000Z</time>
      </trkpt>
      <trkpt lat="43.60221" lon="0.49958">
        <ele>199</ele>
        <time>2020-01-12T12:51:34.000Z</time>
      </trkpt>
      <trkpt lat="43.6022" lon="0.4996">
        <ele>199</ele>
        <time>2020-01-12T12:51:36.000Z</time>
      </trkpt>
      <trkpt lat="43.60218" lon="0.49962">
        <ele>199</ele>
        <time>2020-01-12T12:51:38.000Z</time>
      </trkpt>
      <trkpt lat="43.60217" lon="0.49964">
        <ele>199</ele>
        <time>2020-01-12T12:51:40.000Z</time>
      </trkpt>
      <trkpt lat="43.60215" lon="0.49967">
        <ele>199</ele>
        <time>2020-01-12T12:51:42.000Z</time>
      </trkpt>
      <trkpt lat="43.60213" lon="0.49968">
        <ele>199</ele>
        <time>2020-01-12T12:51:44.000Z</time>
      </trkpt>
      <trkpt lat="43.60212" lon="0.49971">
        <ele>199</ele>
        <time>2020-01-12T12:51:46.000Z</time>
      </trkpt>
      <trkpt lat="43.6021" lon="0.49972">
        <ele>199</ele>
        <time>2020-01-12T12:51:48.000Z</time>
      </trkpt>
      <trkpt lat="43.6021" lon="0.49973">
        <ele>199</ele>
        <time>2020-01-12T12:51:50.000Z</time>
      </trkpt>
      <trkpt lat="43.60211" lon="0.49975">
        <ele>199</ele>
        <time>2020-01-12T12:51:52.000Z</time>
      </trkpt>
      <trkpt lat="43.60211" lon="0.49976">
        <ele>199</ele>
        <time>2020-01-12T12:51:54.000Z</time>
      </trkpt>
      <trkpt lat="43.60211" lon="0.49977">
        <ele>199</ele>
        <time>2020-01-12T12:51:56.000Z</time>
      </trkpt>
      <trkpt lat="43.60211" lon="0.49977">
        <ele>199</ele>
        <time>2020-01-12T12:51:58.000Z</time>
      </trkpt>
      <trkpt lat="43.6021" lon="0.49978">
        <ele>199</ele>
        <time>2020-01-12T12:52:00.000Z</time>
      </trkpt>
      <trkpt lat="43.60208" lon="0.49979">
        <ele>199</ele>
        <time>2020-01-12T12:52:02.000Z</time>
      </trkpt>
      <trkpt lat="43.60207" lon="0.49981">
        <ele>199</ele>
        <time>2020-01-12T12:52:04.000Z</time>
      </trkpt>
      <trkpt lat="43.60207" lon="0.49983">
        <ele>199</ele>
        <time>2020-01-12T12:52:06.000Z</time>
      </trkpt>
      <trkpt lat="43.60205" lon="0.49985">
        <ele>199</ele>
        <time>2020-01-12T12:52:08.000Z</time>
      </trkpt>
      <trkpt lat="43.60204" lon="0.49987">
        <ele>199</ele>
        <time>2020-01-12T12:52:10.000Z</time>
      </trkpt>
      <trkpt lat="43.60202" lon="0.49989">
        <ele>199</ele>
        <time>2020-01-12T12:52:12.000Z</time>
      </trkpt>
      <trkpt lat="43.60201" lon="0.49991">
        <ele>199</ele>
        <time>2020-01-12T12:52:14.000Z</time>
      </trkpt>
      <trkpt lat="43.60199" lon="0.49993">
        <ele>200</ele>
        <time>2020-01-12T12:52:16.000Z</time>
      </trkpt>
      <trkpt lat="43.60197" lon="0.49994">
        <ele>200</ele>
        <time>2020-01-12T12:52:18.000Z</time>
      </trkpt>
      <trkpt lat="43.60195" lon="0.49996">
        <ele>200</ele>
        <time>2020-01-12T12:52:20.000Z</time>
      </trkpt>
      <trkpt lat="43.60194" lon="0.49997">
        <ele>200</ele>
        <time>2020-01-12T12:52:22.000Z</time>
      </trkpt>
      <trkpt lat="43.60192" lon="0.49999">
        <ele>201</ele>
        <time>2020-01-12T12:52:24.000Z</time>
      </trkpt>
      <trkpt lat="43.6019" lon="0.50001">
        <ele>201</ele>
        <time>2020-01-12T12:52:26.000Z</time>
      </trkpt>
      <trkpt lat="43.60188" lon="0.50003">
        <ele>201</ele>
        <time>2020-01-12T12:52:28.000Z</time>
      </trkpt>
      <trkpt lat="43.60186" lon="0.50005">
        <ele>201</ele>
        <time>2020-01-12T12:52:30.000Z</time>
      </trkpt>
      <trkpt lat="43.60185" lon="0.50006">
        <ele>201</ele>
        <time>2020-01-12T12:52:32.000Z</time>
      </trkpt>
      <trkpt lat="43.60184" lon="0.50008">
        <ele>202</ele>
        <time>2020-01-12T12:52:34.000Z</time>
      </trkpt>
      <trkpt lat="43.60182" lon="0.5001">
        <ele>202</ele>
        <time>2020-01-12T12:52:36.000Z</time>
      </trkpt>
      <trkpt lat="43.6018" lon="0.50012">
        <ele>202</ele>
        <time>2020-01-12T12:52:38.000Z</time>
      </trkpt>
      <trkpt lat="43.60179" lon="0.50014">
        <ele>202</ele>
        <time>2020-01-12T12:52:40.000Z</time>
      </trkpt>
      <trkpt lat="43.60177" lon="0.50016">
        <ele>202</ele>
        <time>2020-01-12T12:52:42.000Z</time>
      </trkpt>
      <trkpt lat="43.60176" lon="0.50017">
        <ele>203</ele>
        <time>2020-01-12T12:52:44.000Z</time>
      </trkpt>
      <trkpt lat="43.60174" lon="0.50019">
        <ele>203</ele>
        <time>2020-01-12T12:52:46.000Z</time>
      </trkpt>
      <trkpt lat="43.60173" lon="0.50021">
        <ele>203</ele>
        <time>2020-01-12T12:52:48.000Z</time>
      </trkpt>
      <trkpt lat="43.60171" lon="0.50023">
        <ele>203</ele>
        <time>2020-01-12T12:52:50.000Z</time>
      </trkpt>
      <trkpt lat="43.60169" lon="0.50025">
        <ele>203</ele>
        <time>2020-01-12T12:52:52.000Z</time>
      </trkpt>
      <trkpt lat="43.60168" lon="0.50027">
        <ele>204</ele>
        <time>2020-01-12T12:52:54.000Z</time>
      </trkpt>
      <trkpt lat="43.60166" lon="0.50029">
        <ele>204</ele>
        <time>2020-01-12T12:52:56.000Z</time>
      </trkpt>
      <trkpt lat="43.60165" lon="0.50031">
        <ele>204</ele>
        <time>2020-01-12T12:52:58.000Z</time>
      </trkpt>
      <trkpt lat="43.60163" lon="0.50034">
        <ele>204</ele>
        <time>2020-01-12T12:53:00.000Z</time>
      </trkpt>
      <trkpt lat="43.60161" lon="0.50036">
        <ele>204</ele>
        <time>2020-01-12T12:53:02.000Z</time>
      </trkpt>
      <trkpt lat="43.6016" lon="0.50039">
        <ele>204</ele>
        <time>2020-01-12T12:53:04.000Z</time>
      </trkpt>
      <trkpt lat="43.60158" lon="0.50041">
        <ele>204</ele>
        <time>2020-01-12T12:53:06.000Z</time>
      </trkpt>
      <trkpt lat="43.60156" lon="0.50043">
        <ele>204</ele>
        <time>2020-01-12T12:53:08.000Z</time>
      </trkpt>
      <trkpt lat="43.60155" lon="0.50045">
        <ele>204</ele>
        <time>2020-01-12T12:53:10.000Z</time>
      </trkpt>
      <trkpt lat="43.60153" lon="0.50047">
        <ele>204</ele>
        <time>2020-01-12T12:53:12.000Z</time>
      </trkpt>
      <trkpt lat="43.60151" lon="0.50049">
        <ele>204</ele>
        <time>2020-01-12T12:53:14.000Z</time>
      </trkpt>
      <trkpt lat="43.60149" lon="0.50051">
        <ele>204</ele>
        <time>2020-01-12T12:53:16.000Z</time>
      </trkpt>
      <trkpt lat="43.60148" lon="0.50053">
        <ele>204</ele>
        <time>2020-01-12T12:53:18.000Z</time>
      </trkpt>
      <trkpt lat="43.60146" lon="0.50054">
        <ele>204</ele>
        <time>2020-01-12T12:53:20.000Z</time>
      </trkpt>
      <trkpt lat="43.60144" lon="0.50056">
        <ele>204</ele>
        <time>2020-01-12T12:53:22.000Z</time>
      </trkpt>
      <trkpt lat="43.60143" lon="0.50058">
        <ele>204</ele>
        <time>2020-01-12T12:53:24.000Z</time>
      </trkpt>
      <trkpt lat="43.60142" lon="0.50059">
        <ele>204</ele>
        <time>2020-01-12T12:53:26.000Z</time>
      </trkpt>
      <trkpt lat="43.60141" lon="0.50061">
        <ele>204</ele>
        <time>2020-01-12T12:53:28.000Z</time>
      </trkpt>
      <trkpt lat="43.6014" lon="0.50063">
        <ele>204</ele>
        <time>2020-01-12T12:53:30.000Z</time>
      </trkpt>
      <trkpt lat="43.60138" lon="0.50065">
        <ele>204</ele>
        <time>2020-01-12T12:53:32.000Z</time>
      </trkpt>
      <trkpt lat="43.60137" lon="0.50067">
        <ele>204</ele>
        <time>2020-01-12T12:53:34.000Z</time>
      </trkpt>
      <trkpt lat="43.60136" lon="0.50069">
        <ele>204</ele>
        <time>2020-01-12T12:53:36.000Z</time>
      </trkpt>
      <trkpt lat="43.60133" lon="0.5007">
        <ele>204</ele>
        <time>2020-01-12T12:53:38.000Z</time>
      </trkpt>
      <trkpt lat="43.60132" lon="0.50072">
        <ele>204</ele>
        <time>2020-01-12T12:53:40.000Z</time>
      </trkpt>
      <trkpt lat="43.60131" lon="0.50075">
        <ele>204</ele>
        <time>2020-01-12T12:53:42.000Z</time>
      </trkpt>
      <trkpt lat="43.60129" lon="0.50077">
        <ele>204</ele>
        <time>2020-01-12T12:53:44.000Z</time>
      </trkpt>
      <trkpt lat="43.60128" lon="0.50079">
        <ele>204</ele>
        <time>2020-01-12T12:53:46.000Z</time>
      </trkpt>
      <trkpt lat="43.60126" lon="0.50081">
        <ele>203</ele>
        <time>2020-01-12T12:53:48.000Z</time>
      </trkpt>
      <trkpt lat="43.60124" lon="0.50083">
        <ele>203</ele>
        <time>2020-01-12T12:53:50.000Z</time>
      </trkpt>
      <trkpt lat="43.60122" lon="0.50085">
        <ele>203</ele>
        <time>2020-01-12T12:53:52.000Z</time>
      </trkpt>
      <trkpt lat="43.6012" lon="0.50087">
        <ele>203</ele>
        <time>2020-01-12T12:53:54.000Z</time>
      </trkpt>
      <trkpt lat="43.60118" lon="0.50089">
        <ele>203</ele>
        <time>2020-01-12T12:53:56.000Z</time>
      </trkpt>
      <trkpt lat="43.60116" lon="0.5009">
        <ele>203</ele>
        <time>2020-01-12T12:53:58.000Z</time>
      </trkpt>
      <trkpt lat="43.60115" lon="0.50092">
        <ele>203</ele>
        <time>2020-01-12T12:54:00.000Z</time>
      </trkpt>
      <trkpt lat="43.60113" lon="0.50094">
        <ele>203</ele>
        <time>2020-01-12T12:54:02.000Z</time>
      </trkpt>
      <trkpt lat="43.60111" lon="0.50096">
        <ele>202</ele>
        <time>2020-01-12T12:54:04.000Z</time>
      </trkpt>
      <trkpt lat="43.60109" lon="0.50097">
        <ele>202</ele>
        <time>2020-01-12T12:54:06.000Z</time>
      </trkpt>
      <trkpt lat="43.60107" lon="0.50099">
        <ele>202</ele>
        <time>2020-01-12T12:54:08.000Z</time>
      </trkpt>
      <trkpt lat="43.60105" lon="0.501">
        <ele>202</ele>
        <time>2020-01-12T12:54:10.000Z</time>
      </trkpt>
      <trkpt lat="43.60104" lon="0.50102">
        <ele>202</ele>
        <time>2020-01-12T12:54:12.000Z</time>
      </trkpt>
      <trkpt lat="43.60102" lon="0.50104">
        <ele>202</ele>
        <time>2020-01-12T12:54:14.000Z</time>
      </trkpt>
      <trkpt lat="43.601" lon="0.50106">
        <ele>202</ele>
        <time>2020-01-12T12:54:16.000Z</time>
      </trkpt>
      <trkpt lat="43.60098" lon="0.50108">
        <ele>202</ele>
        <time>2020-01-12T12:54:18.000Z</time>
      </trkpt>
      <trkpt lat="43.60095" lon="0.5011">
        <ele>202</ele>
        <time>2020-01-12T12:54:20.000Z</time>
      </trkpt>
      <trkpt lat="43.60093" lon="0.50112">
        <ele>201</ele>
        <time>2020-01-12T12:54:22.000Z</time>
      </trkpt>
      <trkpt lat="43.6009" lon="0.50114">
        <ele>201</ele>
        <time>2020-01-12T12:54:24.000Z</time>
      </trkpt>
      <trkpt lat="43.60088" lon="0.50116">
        <ele>201</ele>
        <time>2020-01-12T12:54:26.000Z</time>
      </trkpt>
      <trkpt lat="43.60086" lon="0.50118">
        <ele>201</ele>
        <time>2020-01-12T12:54:28.000Z</time>
      </trkpt>
      <trkpt lat="43.60084" lon="0.5012">
        <ele>201</ele>
        <time>2020-01-12T12:54:30.000Z</time>
      </trkpt>
      <trkpt lat="43.60081" lon="0.50121">
        <ele>201</ele>
        <time>2020-01-12T12:54:32.000Z</time>
      </trkpt>
      <trkpt lat="43.6008" lon="0.50123">
        <ele>201</ele>
        <time>2020-01-12T12:54:34.000Z</time>
      </trkpt>
      <trkpt lat="43.60077" lon="0.50125">
        <ele>201</ele>
        <time>2020-01-12T12:54:36.000Z</time>
      </trkpt>
      <trkpt lat="43.60075" lon="0.50127">
        <ele>201</ele>
        <time>2020-01-12T12:54:38.000Z</time>
      </trkpt>
      <trkpt lat="43.60074" lon="0.50128">
        <ele>201</ele>
        <time>2020-01-12T12:54:40.000Z</time>
      </trkpt>
      <trkpt lat="43.60071" lon="0.50129">
        <ele>201</ele>
        <time>2020-01-12T12:54:42.000Z</time>
      </trkpt>
      <trkpt lat="43.60069" lon="0.50131">
        <ele>201</ele>
        <time>2020-01-12T12:54:44.000Z</time>
      </trkpt>
      <trkpt lat="43.60068" lon="0.50132">
        <ele>201</ele>
        <time>2020-01-12T12:54:46.000Z</time>
      </trkpt>
      <trkpt lat="43.60066" lon="0.50134">
        <ele>201</ele>
        <time>2020-01-12T12:54:48.000Z</time>
      </trkpt>
      <trkpt lat="43.60064" lon="0.50135">
        <ele>201</ele>
        <time>2020-01-12T12:54:50.000Z</time>
      </trkpt>
      <trkpt lat="43.60062" lon="0.50137">
        <ele>201</ele>
        <time>2020-01-12T12:54:52.000Z</time>
      </trkpt>
      <trkpt lat="43.6006" lon="0.50138">
        <ele>201</ele>
        <time>2020-01-12T12:54:54.000Z</time>
      </trkpt>
      <trkpt lat="43.60059" lon="0.5014">
        <ele>201</ele>
        <time>2020-01-12T12:54:56.000Z</time>
      </trkpt>
      <trkpt lat="43.60057" lon="0.50142">
        <ele>201</ele>
        <time>2020-01-12T12:54:58.000Z</time>
      </trkpt>
      <trkpt lat="43.60056" lon="0.50143">
        <ele>201</ele>
        <time>2020-01-12T12:55:00.000Z</time>
      </trkpt>
      <trkpt lat="43.60054" lon="0.50145">
        <ele>201</ele>
        <time>2020-01-12T12:55:02.000Z</time>
      </trkpt>
      <trkpt lat="43.60052" lon="0.50146">
        <ele>201</ele>
        <time>2020-01-12T12:55:04.000Z</time>
      </trkpt>
      <trkpt lat="43.6005" lon="0.50148">
        <ele>201</ele>
        <time>2020-01-12T12:55:06.000Z</time>
      </trkpt>
      <trkpt lat="43.60048" lon="0.50149">
        <ele>201</ele>
        <time>2020-01-12T12:55:08.000Z</time>
      </trkpt>
      <trkpt lat="43.60046" lon="0.50151">
        <ele>201</ele>
        <time>2020-01-12T12:55:10.000Z</time>
      </trkpt>
      <trkpt lat="43.60045" lon="0.50152">
        <ele>201</ele>
        <time>2020-01-12T12:55:12.000Z</time>
      </trkpt>
      <trkpt lat="43.60043" lon="0.50154">
        <ele>201</ele>
        <time>2020-01-12T12:55:14.000Z</time>
      </trkpt>
      <trkpt lat="43.60041" lon="0.50155">
        <ele>201</ele>
        <time>2020-01-12T12:55:16.000Z</time>
      </trkpt>
      <trkpt lat="43.60039" lon="0.50157">
        <ele>201</ele>
        <time>2020-01-12T12:55:18.000Z</time>
      </trkpt>
      <trkpt lat="43.60037" lon="0.50158">
        <ele>201</ele>
        <time>2020-01-12T12:55:20.000Z</time>
      </trkpt>
      <trkpt lat="43.60035" lon="0.5016">
        <ele>201</ele>
        <time>2020-01-12T12:55:22.000Z</time>
      </trkpt>
      <trkpt lat="43.60033" lon="0.50161">
        <ele>201</ele>
        <time>2020-01-12T12:55:24.000Z</time>
      </trkpt>
      <trkpt lat="43.60031" lon="0.50162">
        <ele>201</ele>
        <time>2020-01-12T12:55:26.000Z</time>
      </trkpt>
      <trkpt lat="43.60029" lon="0.50164">
        <ele>202</ele>
        <time>2020-01-12T12:55:28.000Z</time>
      </trkpt>
      <trkpt lat="43.60027" lon="0.50165">
        <ele>202</ele>
        <time>2020-01-12T12:55:30.000Z</time>
      </trkpt>
      <trkpt lat="43.60026" lon="0.50166">
        <ele>202</ele>
        <time>2020-01-12T12:55:32.000Z</time>
      </trkpt>
      <trkpt lat="43.60025" lon="0.50166">
        <ele>202</ele>
        <time>2020-01-12T12:55:34.000Z</time>
      </trkpt>
      <trkpt lat="43.60024" lon="0.50167">
        <ele>202</ele>
        <time>2020-01-12T12:55:36.000Z</time>
      </trkpt>
      <trkpt lat="43.60023" lon="0.50168">
        <ele>202</ele>
        <time>2020-01-12T12:55:38.000Z</time>
      </trkpt>
      <trkpt lat="43.60022" lon="0.50169">
        <ele>202</ele>
        <time>2020-01-12T12:55:40.000Z</time>
      </trkpt>
      <trkpt lat="43.6002" lon="0.5017">
        <ele>202</ele>
        <time>2020-01-12T12:55:42.000Z</time>
      </trkpt>
      <trkpt lat="43.60017" lon="0.50172">
        <ele>202</ele>
        <time>2020-01-12T12:55:44.000Z</time>
      </trkpt>
      <trkpt lat="43.60016" lon="0.50174">
        <ele>202</ele>
        <time>2020-01-12T12:55:46.000Z</time>
      </trkpt>
      <trkpt lat="43.60013" lon="0.50175">
        <ele>202</ele>
        <time>2020-01-12T12:55:48.000Z</time>
      </trkpt>
      <trkpt lat="43.60011" lon="0.50176">
        <ele>203</ele>
        <time>2020-01-12T12:55:50.000Z</time>
      </trkpt>
      <trkpt lat="43.60009" lon="0.50178">
        <ele>203</ele>
        <time>2020-01-12T12:55:52.000Z</time>
      </trkpt>
      <trkpt lat="43.60007" lon="0.50179">
        <ele>203</ele>
        <time>2020-01-12T12:55:54.000Z</time>
      </trkpt>
      <trkpt lat="43.60005" lon="0.50181">
        <ele>204</ele>
        <time>2020-01-12T12:55:56.000Z</time>
      </trkpt>
      <trkpt lat="43.60003" lon="0.50182">
        <ele>204</ele>
        <time>2020-01-12T12:55:58.000Z</time>
      </trkpt>
      <trkpt lat="43.60001" lon="0.50183">
        <ele>204</ele>
        <time>2020-01-12T12:56:00.000Z</time>
      </trkpt>
      <trkpt lat="43.59999" lon="0.50185">
        <ele>205</ele>
        <time>2020-01-12T12:56:02.000Z</time>
      </trkpt>
      <trkpt lat="43.59997" lon="0.50187">
        <ele>205</ele>
        <time>2020-01-12T12:56:04.000Z</time>
      </trkpt>
      <trkpt lat="43.59996" lon="0.50189">
        <ele>205</ele>
        <time>2020-01-12T12:56:06.000Z</time>
      </trkpt>
      <trkpt lat="43.59994" lon="0.50191">
        <ele>205</ele>
        <time>2020-01-12T12:56:08.000Z</time>
      </trkpt>
      <trkpt lat="43.59994" lon="0.50193">
        <ele>205</ele>
        <time>2020-01-12T12:56:10.000Z</time>
      </trkpt>
      <trkpt lat="43.59994" lon="0.50195">
        <ele>205</ele>
        <time>2020-01-12T12:56:12.000Z</time>
      </trkpt>
      <trkpt lat="43.59995" lon="0.50197">
        <ele>205</ele>
        <time>2020-01-12T12:56:14.000Z</time>
      </trkpt>
      <trkpt lat="43.59996" lon="0.50199">
        <ele>204</ele>
        <time>2020-01-12T12:56:16.000Z</time>
      </trkpt>
      <trkpt lat="43.59997" lon="0.50202">
        <ele>204</ele>
        <time>2020-01-12T12:56:18.000Z</time>
      </trkpt>
      <trkpt lat="43.59998" lon="0.50205">
        <ele>203</ele>
        <time>2020-01-12T12:56:20.000Z</time>
      </trkpt>
      <trkpt lat="43.59999" lon="0.50208">
        <ele>203</ele>
        <time>2020-01-12T12:56:22.000Z</time>
      </trkpt>
      <trkpt lat="43.6" lon="0.5021">
        <ele>203</ele>
        <time>2020-01-12T12:56:24.000Z</time>
      </trkpt>
      <trkpt lat="43.60002" lon="0.50213">
        <ele>202</ele>
        <time>2020-01-12T12:56:26.000Z</time>
      </trkpt>
      <trkpt lat="43.60003" lon="0.50216">
        <ele>202</ele>
        <time>2020-01-12T12:56:28.000Z</time>
      </trkpt>
      <trkpt lat="43.60004" lon="0.50218">
        <ele>202</ele>
        <time>2020-01-12T12:56:30.000Z</time>
      </trkpt>
      <trkpt lat="43.60005" lon="0.50221">
        <ele>201</ele>
        <time>2020-01-12T12:56:32.000Z</time>
      </trkpt>
      <trkpt lat="43.60006" lon="0.50223">
        <ele>201</ele>
        <time>2020-01-12T12:56:34.000Z</time>
      </trkpt>
      <trkpt lat="43.60007" lon="0.50226">
        <ele>201</ele>
        <time>2020-01-12T12:56:36.000Z</time>
      </trkpt>
      <trkpt lat="43.60009" lon="0.50228">
        <ele>201</ele>
        <time>2020-01-12T12:56:38.000Z</time>
      </trkpt>
      <trkpt lat="43.60012" lon="0.5023">
        <ele>200</ele>
        <time>2020-01-12T12:56:40.000Z</time>
      </trkpt>
      <trkpt lat="43.60013" lon="0.50233">
        <ele>200</ele>
        <time>2020-01-12T12:56:42.000Z</time>
      </trkpt>
      <trkpt lat="43.60015" lon="0.50235">
        <ele>200</ele>
        <time>2020-01-12T12:56:44.000Z</time>
      </trkpt>
      <trkpt lat="43.60016" lon="0.50237">
        <ele>200</ele>
        <time>2020-01-12T12:56:46.000Z</time>
      </trkpt>
      <trkpt lat="43.60018" lon="0.5024">
        <ele>199</ele>
        <time>2020-01-12T12:56:48.000Z</time>
      </trkpt>
      <trkpt lat="43.60019" lon="0.50242">
        <ele>199</ele>
        <time>2020-01-12T12:56:50.000Z</time>
      </trkpt>
      <trkpt lat="43.60021" lon="0.50244">
        <ele>199</ele>
        <time>2020-01-12T12:56:52.000Z</time>
      </trkpt>
      <trkpt lat="43.60022" lon="0.50247">
        <ele>199</ele>
        <time>2020-01-12T12:56:54.000Z</time>
      </trkpt>
      <trkpt lat="43.60023" lon="0.5025">
        <ele>199</ele>
        <time>2020-01-12T12:56:56.000Z</time>
      </trkpt>
      <trkpt lat="43.60024" lon="0.50252">
        <ele>199</ele>
        <time>2020-01-12T12:56:58.000Z</time>
      </trkpt>
      <trkpt lat="43.60025" lon="0.50255">
        <ele>199</ele>
        <time>2020-01-12T12:57:00.000Z</time>
      </trkpt>
      <trkpt lat="43.60025" lon="0.50258">
        <ele>199</ele>
        <time>2020-01-12T12:57:02.000Z</time>
      </trkpt>
      <trkpt lat="43.60026" lon="0.5026">
        <ele>199</ele>
        <time>2020-01-12T12:57:04.000Z</time>
      </trkpt>
      <trkpt lat="43.60028" lon="0.50262">
        <ele>199</ele>
        <time>2020-01-12T12:57:06.000Z</time>
      </trkpt>
      <trkpt lat="43.60029" lon="0.50264">
        <ele>199</ele>
        <time>2020-01-12T12:57:08.000Z</time>
      </trkpt>
      <trkpt lat="43.6003" lon="0.50267">
        <ele>199</ele>
        <time>2020-01-12T12:57:10.000Z</time>
      </trkpt>
      <trkpt lat="43.60031" lon="0.50271">
        <ele>199</ele>
        <time>2020-01-12T12:57:12.000Z</time>
      </trkpt>
      <trkpt lat="43.60031" lon="0.50273">
        <ele>199</ele>
        <time>2020-01-12T12:57:14.000Z</time>
      </trkpt>
      <trkpt lat="43.60033" lon="0.50276">
        <ele>199</ele>
        <time>2020-01-12T12:57:16.000Z</time>
      </trkpt>
      <trkpt lat="43.60035" lon="0.50278">
        <ele>199</ele>
        <time>2020-01-12T12:57:18.000Z</time>
      </trkpt>
      <trkpt lat="43.60036" lon="0.50281">
        <ele>198</ele>
        <time>2020-01-12T12:57:20.000Z</time>
      </trkpt>
      <trkpt lat="43.60038" lon="0.50283">
        <ele>198</ele>
        <time>2020-01-12T12:57:22.000Z</time>
      </trkpt>
      <trkpt lat="43.60039" lon="0.50285">
        <ele>198</ele>
        <time>2020-01-12T12:57:24.000Z</time>
      </trkpt>
      <trkpt lat="43.60041" lon="0.50287">
        <ele>198</ele>
        <time>2020-01-12T12:57:26.000Z</time>
      </trkpt>
      <trkpt lat="43.60043" lon="0.50289">
        <ele>198</ele>
        <time>2020-01-12T12:57:28.000Z</time>
      </trkpt>
      <trkpt lat="43.60045" lon="0.50291">
        <ele>198</ele>
        <time>2020-01-12T12:57:30.000Z</time>
      </trkpt>
      <trkpt lat="43.60046" lon="0.50293">
        <ele>198</ele>
        <time>2020-01-12T12:57:32.000Z</time>
      </trkpt>
      <trkpt lat="43.60048" lon="0.50296">
        <ele>198</ele>
        <time>2020-01-12T12:57:34.000Z</time>
      </trkpt>
      <trkpt lat="43.60049" lon="0.50298">
        <ele>198</ele>
        <time>2020-01-12T12:57:36.000Z</time>
      </trkpt>
      <trkpt lat="43.60051" lon="0.50298">
        <ele>198</ele>
        <time>2020-01-12T12:57:38.000Z</time>
      </trkpt>
      <trkpt lat="43.60053" lon="0.50298">
        <ele>198</ele>
        <time>2020-01-12T12:57:40.000Z</time>
      </trkpt>
      <trkpt lat="43.60055" lon="0.50298">
        <ele>198</ele>
        <time>2020-01-12T12:57:42.000Z</time>
      </trkpt>
      <trkpt lat="43.60057" lon="0.50297">
        <ele>198</ele>
        <time>2020-01-12T12:57:44.000Z</time>
      </trkpt>
      <trkpt lat="43.60058" lon="0.50297">
        <ele>198</ele>
        <time>2020-01-12T12:57:46.000Z</time>
      </trkpt>
      <trkpt lat="43.60058" lon="0.50297">
        <ele>198</ele>
        <time>2020-01-12T12:57:48.000Z</time>
      </trkpt>
      <trkpt lat="43.60059" lon="0.50297">
        <ele>198</ele>
        <time>2020-01-12T12:57:50.000Z</time>
      </trkpt>
      <trkpt lat="43.60059" lon="0.50296">
        <ele>198</ele>
        <time>2020-01-12T12:57:52.000Z</time>
      </trkpt>
      <trkpt lat="43.60058" lon="0.50296">
        <ele>198</ele>
        <time>2020-01-12T12:57:54.000Z</time>
      </trkpt>
      <trkpt lat="43.60059" lon="0.50297">
        <ele>198</ele>
        <time>2020-01-12T12:57:56.000Z</time>
      </trkpt>
      <trkpt lat="43.60059" lon="0.50297">
        <ele>198</ele>
        <time>2020-01-12T12:57:58.000Z</time>
      </trkpt>
      <trkpt lat="43.60059" lon="0.50297">
        <ele>198</ele>
        <time>2020-01-12T12:58:00.000Z</time>
      </trkpt>
      <trkpt lat="43.60059" lon="0.50297">
        <ele>198</ele>
        <time>2020-01-12T12:58:02.000Z</time>
      </trkpt>
      <trkpt lat="43.6006" lon="0.50298">
        <ele>198</ele>
        <time>2020-01-12T12:58:04.000Z</time>
      </trkpt>
      <trkpt lat="43.6006" lon="0.50298">
        <ele>198</ele>
        <time>2020-01-12T12:58:06.000Z</time>
      </trkpt>
      <trkpt lat="43.60059" lon="0.50299">
        <ele>198</ele>
        <time>2020-01-12T12:58:08.000Z</time>
      </trkpt>
      <trkpt lat="43.60058" lon="0.50299">
        <ele>198</ele>
        <time>2020-01-12T12:58:10.000Z</time>
      </trkpt>
      <trkpt lat="43.60058" lon="0.50299">
        <ele>198</ele>
        <time>2020-01-12T12:58:12.000Z</time>
      </trkpt>
      <trkpt lat="43.60058" lon="0.50299">
        <ele>198</ele>
        <time>2020-01-12T12:58:14.000Z</time>
      </trkpt>
      <trkpt lat="43.60058" lon="0.503">
        <ele>198</ele>
        <time>2020-01-12T12:58:16.000Z</time>
      </trkpt>
      <trkpt lat="43.60058" lon="0.503">
        <ele>198</ele>
        <time>2020-01-12T12:58:18.000Z</time>
      </trkpt>
      <trkpt lat="43.60059" lon="0.503">
        <ele>198</ele>
        <time>2020-01-12T12:58:20.000Z</time>
      </trkpt>
      <trkpt lat="43.60058" lon="0.50298">
        <ele>198</ele>
        <time>2020-01-12T12:58:22.000Z</time>
      </trkpt>
      <trkpt lat="43.60057" lon="0.50299">
        <ele>198</ele>
        <time>2020-01-12T12:58:24.000Z</time>
      </trkpt>
      <trkpt lat="43.60054" lon="0.50299">
        <ele>198</ele>
        <time>2020-01-12T12:58:26.000Z</time>
      </trkpt>
      <trkpt lat="43.60053" lon="0.503">
        <ele>198</ele>
        <time>2020-01-12T12:58:28.000Z</time>
      </trkpt>
      <trkpt lat="43.60052" lon="0.50304">
        <ele>198</ele>
        <time>2020-01-12T12:58:30.000Z</time>
      </trkpt>
      <trkpt lat="43.60052" lon="0.50306">
        <ele>199</ele>
        <time>2020-01-12T12:58:32.000Z</time>
      </trkpt>
      <trkpt lat="43.60054" lon="0.50309">
        <ele>199</ele>
        <time>2020-01-12T12:58:34.000Z</time>
      </trkpt>
      <trkpt lat="43.60055" lon="0.50312">
        <ele>199</ele>
        <time>2020-01-12T12:58:36.000Z</time>
      </trkpt>
      <trkpt lat="43.60057" lon="0.50315">
        <ele>199</ele>
        <time>2020-01-12T12:58:38.000Z</time>
      </trkpt>
      <trkpt lat="43.60058" lon="0.50318">
        <ele>200</ele>
        <time>2020-01-12T12:58:40.000Z</time>
      </trkpt>
      <trkpt lat="43.6006" lon="0.50321">
        <ele>200</ele>
        <time>2020-01-12T12:58:42.000Z</time>
      </trkpt>
      <trkpt lat="43.60062" lon="0.50324">
        <ele>200</ele>
        <time>2020-01-12T12:58:44.000Z</time>
      </trkpt>
      <trkpt lat="43.60063" lon="0.50326">
        <ele>200</ele>
        <time>2020-01-12T12:58:46.000Z</time>
      </trkpt>
      <trkpt lat="43.60066" lon="0.50328">
        <ele>201</ele>
        <time>2020-01-12T12:58:48.000Z</time>
      </trkpt>
      <trkpt lat="43.60068" lon="0.50331">
        <ele>201</ele>
        <time>2020-01-12T12:58:50.000Z</time>
      </trkpt>
      <trkpt lat="43.60069" lon="0.50333">
        <ele>201</ele>
        <time>2020-01-12T12:58:52.000Z</time>
      </trkpt>
      <trkpt lat="43.6007" lon="0.50336">
        <ele>201</ele>
        <time>2020-01-12T12:58:54.000Z</time>
      </trkpt>
      <trkpt lat="43.60072" lon="0.50339">
        <ele>202</ele>
        <time>2020-01-12T12:58:56.000Z</time>
      </trkpt>
      <trkpt lat="43.60073" lon="0.50342">
        <ele>202</ele>
        <time>2020-01-12T12:58:58.000Z</time>
      </trkpt>
      <trkpt lat="43.60074" lon="0.50344">
        <ele>202</ele>
        <time>2020-01-12T12:59:00.000Z</time>
      </trkpt>
      <trkpt lat="43.60075" lon="0.50347">
        <ele>203</ele>
        <time>2020-01-12T12:59:02.000Z</time>
      </trkpt>
      <trkpt lat="43.60077" lon="0.5035">
        <ele>203</ele>
        <time>2020-01-12T12:59:04.000Z</time>
      </trkpt>
      <trkpt lat="43.60078" lon="0.50353">
        <ele>203</ele>
        <time>2020-01-12T12:59:06.000Z</time>
      </trkpt>
      <trkpt lat="43.60079" lon="0.50356">
        <ele>203</ele>
        <time>2020-01-12T12:59:08.000Z</time>
      </trkpt>
      <trkpt lat="43.60081" lon="0.50359">
        <ele>204</ele>
        <time>2020-01-12T12:59:10.000Z</time>
      </trkpt>
      <trkpt lat="43.60082" lon="0.50362">
        <ele>204</ele>
        <time>2020-01-12T12:59:12.000Z</time>
      </trkpt>
      <trkpt lat="43.60083" lon="0.50364">
        <ele>204</ele>
        <time>2020-01-12T12:59:14.000Z</time>
      </trkpt>
      <trkpt lat="43.60084" lon="0.50366">
        <ele>204</ele>
        <time>2020-01-12T12:59:16.000Z</time>
      </trkpt>
      <trkpt lat="43.60085" lon="0.50367">
        <ele>204</ele>
        <time>2020-01-12T12:59:18.000Z</time>
      </trkpt>
      <trkpt lat="43.60085" lon="0.50367">
        <ele>204</ele>
        <time>2020-01-12T12:59:20.000Z</time>
      </trkpt>
      <trkpt lat="43.60086" lon="0.50367">
        <ele>204</ele>
        <time>2020-01-12T12:59:22.000Z</time>
      </trkpt>
      <trkpt lat="43.60085" lon="0.50367">
        <ele>204</ele>
        <time>2020-01-12T12:59:24.000Z</time>
      </trkpt>
      <trkpt lat="43.60085" lon="0.50368">
        <ele>204</ele>
        <time>2020-01-12T12:59:26.000Z</time>
      </trkpt>
      <trkpt lat="43.60085" lon="0.50368">
        <ele>204</ele>
        <time>2020-01-12T12:59:28.000Z</time>
      </trkpt>
      <trkpt lat="43.60085" lon="0.50368">
        <ele>204</ele>
        <time>2020-01-12T12:59:30.000Z</time>
      </trkpt>
      <trkpt lat="43.60085" lon="0.50369">
        <ele>204</ele>
        <time>2020-01-12T12:59:32.000Z</time>
      </trkpt>
      <trkpt lat="43.60085" lon="0.50369">
        <ele>204</ele>
        <time>2020-01-12T12:59:34.000Z</time>
      </trkpt>
      <trkpt lat="43.60085" lon="0.50369">
        <ele>204</ele>
        <time>2020-01-12T12:59:36.000Z</time>
      </trkpt>
      <trkpt lat="43.60084" lon="0.50369">
        <ele>204</ele>
        <time>2020-01-12T12:59:38.000Z</time>
      </trkpt>
      <trkpt lat="43.60084" lon="0.50369">
        <ele>204</ele>
        <time>2020-01-12T12:59:40.000Z</time>
      </trkpt>
      <trkpt lat="43.60084" lon="0.5037">
        <ele>204</ele>
        <time>2020-01-12T12:59:42.000Z</time>
      </trkpt>
      <trkpt lat="43.60084" lon="0.5037">
        <ele>204</ele>
        <time>2020-01-12T12:59:44.000Z</time>
      </trkpt>
      <trkpt lat="43.60084" lon="0.5037">
        <ele>204</ele>
        <time>2020-01-12T12:59:46.000Z</time>
      </trkpt>
      <trkpt lat="43.60084" lon="0.5037">
        <ele>204</ele>
        <time>2020-01-12T12:59:48.000Z</time>
      </trkpt>
      <trkpt lat="43.60084" lon="0.5037">
        <ele>204</ele>
        <time>2020-01-12T12:59:50.000Z</time>
      </trkpt>
      <trkpt lat="43.60085" lon="0.5037">
        <ele>204</ele>
        <time>2020-01-12T12:59:52.000Z</time>
      </trkpt>
      <trkpt lat="43.60085" lon="0.5037">
        <ele>204</ele>
        <time>2020-01-12T12:59:54.000Z</time>
      </trkpt>
      <trkpt lat="43.60085" lon="0.50371">
        <ele>204</ele>
        <time>2020-01-12T12:59:56.000Z</time>
      </trkpt>
      <trkpt lat="43.60085" lon="0.50371">
        <ele>204</ele>
        <time>2020-01-12T12:59:58.000Z</time>
      </trkpt>
      <trkpt lat="43.60086" lon="0.50371">
        <ele>205</ele>
        <time>2020-01-12T13:00:00.000Z</time>
      </trkpt>
      <trkpt lat="43.60086" lon="0.50371">
        <ele>205</ele>
        <time>2020-01-12T13:00:02.000Z</time>
      </trkpt>
      <trkpt lat="43.60086" lon="0.50371">
        <ele>205</ele>
        <time>2020-01-12T13:00:04.000Z</time>
      </trkpt>
      <trkpt lat="43.60087" lon="0.50372">
        <ele>205</ele>
        <time>2020-01-12T13:00:06.000Z</time>
      </trkpt>
      <trkpt lat="43.60087" lon="0.50372">
        <ele>205</ele>
        <time>2020-01-12T13:00:08.000Z</time>
      </trkpt>
      <trkpt lat="43.60086" lon="0.50372">
        <ele>205</ele>
        <time>2020-01-12T13:00:10.000Z</time>
      </trkpt>
      <trkpt lat="43.60086" lon="0.50372">
        <ele>205</ele>
        <time>2020-01-12T13:00:12.000Z</time>
      </trkpt>
      <trkpt lat="43.60086" lon="0.50373">
        <ele>205</ele>
        <time>2020-01-12T13:00:14.000Z</time>
      </trkpt>
      <trkpt lat="43.60086" lon="0.50373">
        <ele>205</ele>
        <time>2020-01-12T13:00:16.000Z</time>
      </trkpt>
      <trkpt lat="43.60086" lon="0.50373">
        <ele>205</ele>
        <time>2020-01-12T13:00:18.000Z</time>
      </trkpt>
      <trkpt lat="43.60086" lon="0.50374">
        <ele>205</ele>
        <time>2020-01-12T13:00:20.000Z</time>
      </trkpt>
      <trkpt lat="43.60085" lon="0.50374">
        <ele>204</ele>
        <time>2020-01-12T13:00:22.000Z</time>
      </trkpt>
      <trkpt lat="43.60085" lon="0.50373">
        <ele>205</ele>
        <time>2020-01-12T13:00:24.000Z</time>
      </trkpt>
      <trkpt lat="43.60085" lon="0.50373">
        <ele>204</ele>
        <time>2020-01-12T13:00:26.000Z</time>
      </trkpt>
      <trkpt lat="43.60084" lon="0.50373">
        <ele>204</ele>
        <time>2020-01-12T13:00:28.000Z</time>
      </trkpt>
      <trkpt lat="43.60084" lon="0.50373">
        <ele>204</ele>
        <time>2020-01-12T13:00:30.000Z</time>
      </trkpt>
      <trkpt lat="43.60084" lon="0.50373">
        <ele>204</ele>
        <time>2020-01-12T13:00:32.000Z</time>
      </trkpt>
      <trkpt lat="43.60085" lon="0.50372">
        <ele>204</ele>
        <time>2020-01-12T13:00:34.000Z</time>
      </trkpt>
      <trkpt lat="43.60085" lon="0.50372">
        <ele>204</ele>
        <time>2020-01-12T13:00:36.000Z</time>
      </trkpt>
      <trkpt lat="43.60086" lon="0.50372">
        <ele>204</ele>
        <time>2020-01-12T13:00:38.000Z</time>
      </trkpt>
      <trkpt lat="43.60086" lon="0.50372">
        <ele>205</ele>
        <time>2020-01-12T13:00:40.000Z</time>
      </trkpt>
      <trkpt lat="43.60086" lon="0.50372">
        <ele>205</ele>
        <time>2020-01-12T13:00:42.000Z</time>
      </trkpt>
      <trkpt lat="43.60086" lon="0.50372">
        <ele>205</ele>
        <time>2020-01-12T13:00:44.000Z</time>
      </trkpt>
      <trkpt lat="43.60086" lon="0.50373">
        <ele>205</ele>
        <time>2020-01-12T13:00:46.000Z</time>
      </trkpt>
      <trkpt lat="43.60086" lon="0.50373">
        <ele>205</ele>
        <time>2020-01-12T13:00:48.000Z</time>
      </trkpt>
      <trkpt lat="43.60086" lon="0.50373">
        <ele>205</ele>
        <time>2020-01-12T13:00:50.000Z</time>
      </trkpt>
      <trkpt lat="43.60086" lon="0.50373">
        <ele>205</ele>
        <time>2020-01-12T13:00:52.000Z</time>
      </trkpt>
      <trkpt lat="43.60086" lon="0.50373">
        <ele>205</ele>
        <time>2020-01-12T13:00:54.000Z</time>
      </trkpt>
      <trkpt lat="43.60087" lon="0.50373">
        <ele>205</ele>
        <time>2020-01-12T13:00:56.000Z</time>
      </trkpt>
      <trkpt lat="43.60087" lon="0.50373">
        <ele>205</ele>
        <time>2020-01-12T13:00:58.000Z</time>
      </trkpt>
      <trkpt lat="43.60087" lon="0.50372">
        <ele>205</ele>
        <time>2020-01-12T13:01:00.000Z</time>
      </trkpt>
      <trkpt lat="43.60086" lon="0.50372">
        <ele>205</ele>
        <time>2020-01-12T13:01:02.000Z</time>
      </trkpt>
      <trkpt lat="43.60085" lon="0.50373">
        <ele>204</ele>
        <time>2020-01-12T13:01:04.000Z</time>
      </trkpt>
      <trkpt lat="43.60084" lon="0.50373">
        <ele>204</ele>
        <time>2020-01-12T13:01:06.000Z</time>
      </trkpt>
      <trkpt lat="43.60082" lon="0.50373">
        <ele>204</ele>
        <time>2020-01-12T13:01:08.000Z</time>
      </trkpt>
      <trkpt lat="43.6008" lon="0.50374">
        <ele>204</ele>
        <time>2020-01-12T13:01:10.000Z</time>
      </trkpt>
      <trkpt lat="43.60077" lon="0.50374">
        <ele>204</ele>
        <time>2020-01-12T13:01:12.000Z</time>
      </trkpt>
      <trkpt lat="43.60075" lon="0.50375">
        <ele>204</ele>
        <time>2020-01-12T13:01:14.000Z</time>
      </trkpt>
      <trkpt lat="43.60073" lon="0.50376">
        <ele>203</ele>
        <time>2020-01-12T13:01:16.000Z</time>
      </trkpt>
      <trkpt lat="43.60071" lon="0.50378">
        <ele>203</ele>
        <time>2020-01-12T13:01:18.000Z</time>
      </trkpt>
      <trkpt lat="43.60069" lon="0.50379">
        <ele>203</ele>
        <time>2020-01-12T13:01:20.000Z</time>
      </trkpt>
      <trkpt lat="43.60067" lon="0.5038">
        <ele>203</ele>
        <time>2020-01-12T13:01:22.000Z</time>
      </trkpt>
      <trkpt lat="43.60065" lon="0.50382">
        <ele>203</ele>
        <time>2020-01-12T13:01:24.000Z</time>
      </trkpt>
      <trkpt lat="43.60062" lon="0.50383">
        <ele>203</ele>
        <time>2020-01-12T13:01:26.000Z</time>
      </trkpt>
      <trkpt lat="43.60059" lon="0.50383">
        <ele>202</ele>
        <time>2020-01-12T13:01:28.000Z</time>
      </trkpt>
      <trkpt lat="43.60057" lon="0.50385">
        <ele>202</ele>
        <time>2020-01-12T13:01:30.000Z</time>
      </trkpt>
      <trkpt lat="43.60056" lon="0.50386">
        <ele>203</ele>
        <time>2020-01-12T13:01:32.000Z</time>
      </trkpt>
      <trkpt lat="43.60054" lon="0.50387">
        <ele>203</ele>
        <time>2020-01-12T13:01:34.000Z</time>
      </trkpt>
      <trkpt lat="43.60053" lon="0.50387">
        <ele>202</ele>
        <time>2020-01-12T13:01:36.000Z</time>
      </trkpt>
      <trkpt lat="43.60053" lon="0.50387">
        <ele>202</ele>
        <time>2020-01-12T13:01:38.000Z</time>
      </trkpt>
      <trkpt lat="43.60052" lon="0.50386">
        <ele>202</ele>
        <time>2020-01-12T13:01:40.000Z</time>
      </trkpt>
      <trkpt lat="43.60052" lon="0.50386">
        <ele>202</ele>
        <time>2020-01-12T13:01:42.000Z</time>
      </trkpt>
      <trkpt lat="43.60053" lon="0.50386">
        <ele>202</ele>
        <time>2020-01-12T13:01:44.000Z</time>
      </trkpt>
      <trkpt lat="43.60053" lon="0.50386">
        <ele>202</ele>
        <time>2020-01-12T13:01:46.000Z</time>
      </trkpt>
      <trkpt lat="43.60052" lon="0.50386">
        <ele>202</ele>
        <time>2020-01-12T13:01:48.000Z</time>
      </trkpt>
      <trkpt lat="43.60052" lon="0.50386">
        <ele>202</ele>
        <time>2020-01-12T13:01:50.000Z</time>
      </trkpt>
      <trkpt lat="43.60052" lon="0.50387">
        <ele>202</ele>
        <time>2020-01-12T13:01:52.000Z</time>
      </trkpt>
      <trkpt lat="43.60051" lon="0.50386">
        <ele>202</ele>
        <time>2020-01-12T13:01:54.000Z</time>
      </trkpt>
      <trkpt lat="43.60051" lon="0.50387">
        <ele>202</ele>
        <time>2020-01-12T13:01:56.000Z</time>
      </trkpt>
      <trkpt lat="43.60051" lon="0.50387">
        <ele>202</ele>
        <time>2020-01-12T13:01:58.000Z</time>
      </trkpt>
      <trkpt lat="43.60051" lon="0.50387">
        <ele>202</ele>
        <time>2020-01-12T13:02:00.000Z</time>
      </trkpt>
      <trkpt lat="43.6005" lon="0.50387">
        <ele>202</ele>
        <time>2020-01-12T13:02:02.000Z</time>
      </trkpt>
      <trkpt lat="43.6005" lon="0.50387">
        <ele>202</ele>
        <time>2020-01-12T13:02:04.000Z</time>
      </trkpt>
      <trkpt lat="43.60051" lon="0.50388">
        <ele>202</ele>
        <time>2020-01-12T13:02:06.000Z</time>
      </trkpt>
      <trkpt lat="43.60052" lon="0.50388">
        <ele>203</ele>
        <time>2020-01-12T13:02:08.000Z</time>
      </trkpt>
      <trkpt lat="43.60052" lon="0.50388">
        <ele>203</ele>
        <time>2020-01-12T13:02:10.000Z</time>
      </trkpt>
      <trkpt lat="43.60052" lon="0.50388">
        <ele>203</ele>
        <time>2020-01-12T13:02:12.000Z</time>
      </trkpt>
      <trkpt lat="43.60052" lon="0.50388">
        <ele>203</ele>
        <time>2020-01-12T13:02:14.000Z</time>
      </trkpt>
      <trkpt lat="43.60053" lon="0.50388">
        <ele>203</ele>
        <time>2020-01-12T13:02:16.000Z</time>
      </trkpt>
      <trkpt lat="43.60052" lon="0.50387">
        <ele>202</ele>
        <time>2020-01-12T13:02:18.000Z</time>
      </trkpt>
      <trkpt lat="43.60052" lon="0.50387">
        <ele>202</ele>
        <time>2020-01-12T13:02:20.000Z</time>
      </trkpt>
      <trkpt lat="43.60052" lon="0.50387">
        <ele>202</ele>
        <time>2020-01-12T13:02:22.000Z</time>
      </trkpt>
      <trkpt lat="43.60051" lon="0.50387">
        <ele>202</ele>
        <time>2020-01-12T13:02:24.000Z</time>
      </trkpt>
      <trkpt lat="43.60052" lon="0.50387">
        <ele>202</ele>
        <time>2020-01-12T13:02:26.000Z</time>
      </trkpt>
      <trkpt lat="43.60051" lon="0.50387">
        <ele>202</ele>
        <time>2020-01-12T13:02:28.000Z</time>
      </trkpt>
      <trkpt lat="43.60051" lon="0.50387">
        <ele>202</ele>
        <time>2020-01-12T13:02:30.000Z</time>
      </trkpt>
      <trkpt lat="43.60051" lon="0.50388">
        <ele>202</ele>
        <time>2020-01-12T13:02:32.000Z</time>
      </trkpt>
      <trkpt lat="43.60051" lon="0.50387">
        <ele>202</ele>
        <time>2020-01-12T13:02:34.000Z</time>
      </trkpt>
      <trkpt lat="43.6005" lon="0.50387">
        <ele>202</ele>
        <time>2020-01-12T13:02:36.000Z</time>
      </trkpt>
      <trkpt lat="43.60051" lon="0.50388">
        <ele>202</ele>
        <time>2020-01-12T13:02:38.000Z</time>
      </trkpt>
      <trkpt lat="43.60051" lon="0.50388">
        <ele>202</ele>
        <time>2020-01-12T13:02:40.000Z</time>
      </trkpt>
      <trkpt lat="43.60051" lon="0.50388">
        <ele>202</ele>
        <time>2020-01-12T13:02:42.000Z</time>
      </trkpt>
      <trkpt lat="43.60051" lon="0.50388">
        <ele>202</ele>
        <time>2020-01-12T13:02:44.000Z</time>
      </trkpt>
      <trkpt lat="43.6005" lon="0.50388">
        <ele>202</ele>
        <time>2020-01-12T13:02:46.000Z</time>
      </trkpt>
      <trkpt lat="43.6005" lon="0.50388">
        <ele>202</ele>
        <time>2020-01-12T13:02:48.000Z</time>
      </trkpt>
      <trkpt lat="43.60049" lon="0.50387">
        <ele>202</ele>
        <time>2020-01-12T13:02:50.000Z</time>
      </trkpt>
      <trkpt lat="43.60049" lon="0.50387">
        <ele>202</ele>
        <time>2020-01-12T13:02:52.000Z</time>
      </trkpt>
      <trkpt lat="43.60049" lon="0.50387">
        <ele>202</ele>
        <time>2020-01-12T13:02:54.000Z</time>
      </trkpt>
      <trkpt lat="43.60049" lon="0.50387">
        <ele>202</ele>
        <time>2020-01-12T13:02:56.000Z</time>
      </trkpt>
      <trkpt lat="43.60049" lon="0.50386">
        <ele>202</ele>
        <time>2020-01-12T13:02:58.000Z</time>
      </trkpt>
      <trkpt lat="43.60049" lon="0.50385">
        <ele>202</ele>
        <time>2020-01-12T13:03:00.000Z</time>
      </trkpt>
      <trkpt lat="43.6005" lon="0.50385">
        <ele>202</ele>
        <time>2020-01-12T13:03:02.000Z</time>
      </trkpt>
      <trkpt lat="43.6005" lon="0.50387">
        <ele>202</ele>
        <time>2020-01-12T13:03:04.000Z</time>
      </trkpt>
      <trkpt lat="43.60048" lon="0.50388">
        <ele>202</ele>
        <time>2020-01-12T13:03:06.000Z</time>
      </trkpt>
      <trkpt lat="43.60048" lon="0.50391">
        <ele>203</ele>
        <time>2020-01-12T13:03:08.000Z</time>
      </trkpt>
      <trkpt lat="43.60048" lon="0.50392">
        <ele>203</ele>
        <time>2020-01-12T13:03:10.000Z</time>
      </trkpt>
      <trkpt lat="43.60046" lon="0.50394">
        <ele>203</ele>
        <time>2020-01-12T13:03:12.000Z</time>
      </trkpt>
      <trkpt lat="43.60045" lon="0.50395">
        <ele>203</ele>
        <time>2020-01-12T13:03:14.000Z</time>
      </trkpt>
      <trkpt lat="43.60043" lon="0.50397">
        <ele>203</ele>
        <time>2020-01-12T13:03:16.000Z</time>
      </trkpt>
      <trkpt lat="43.60042" lon="0.50398">
        <ele>203</ele>
        <time>2020-01-12T13:03:18.000Z</time>
      </trkpt>
      <trkpt lat="43.6004" lon="0.50399">
        <ele>203</ele>
        <time>2020-01-12T13:03:20.000Z</time>
      </trkpt>
      <trkpt lat="43.60039" lon="0.50401">
        <ele>203</ele>
        <time>2020-01-12T13:03:22.000Z</time>
      </trkpt>
      <trkpt lat="43.60037" lon="0.50403">
        <ele>204</ele>
        <time>2020-01-12T13:03:24.000Z</time>
      </trkpt>
      <trkpt lat="43.60035" lon="0.50405">
        <ele>203</ele>
        <time>2020-01-12T13:03:26.000Z</time>
      </trkpt>
      <trkpt lat="43.60033" lon="0.50407">
        <ele>203</ele>
        <time>2020-01-12T13:03:28.000Z</time>
      </trkpt>
      <trkpt lat="43.60031" lon="0.50409">
        <ele>203</ele>
        <time>2020-01-12T13:03:30.000Z</time>
      </trkpt>
      <trkpt lat="43.60029" lon="0.50411">
        <ele>202</ele>
        <time>2020-01-12T13:03:32.000Z</time>
      </trkpt>
      <trkpt lat="43.60027" lon="0.50412">
        <ele>202</ele>
        <time>2020-01-12T13:03:34.000Z</time>
      </trkpt>
      <trkpt lat="43.60024" lon="0.50414">
        <ele>202</ele>
        <time>2020-01-12T13:03:36.000Z</time>
      </trkpt>
      <trkpt lat="43.60022" lon="0.50417">
        <ele>201</ele>
        <time>2020-01-12T13:03:38.000Z</time>
      </trkpt>
      <trkpt lat="43.60021" lon="0.50419">
        <ele>201</ele>
        <time>2020-01-12T13:03:40.000Z</time>
      </trkpt>
      <trkpt lat="43.60018" lon="0.50422">
        <ele>201</ele>
        <time>2020-01-12T13:03:42.000Z</time>
      </trkpt>
      <trkpt lat="43.60017" lon="0.50424">
        <ele>201</ele>
        <time>2020-01-12T13:03:44.000Z</time>
      </trkpt>
      <trkpt lat="43.60014" lon="0.50427">
        <ele>201</ele>
        <time>2020-01-12T13:03:46.000Z</time>
      </trkpt>
      <trkpt lat="43.60012" lon="0.50428">
        <ele>201</ele>
        <time>2020-01-12T13:03:48.000Z</time>
      </trkpt>
      <trkpt lat="43.6001" lon="0.5043">
        <ele>201</ele>
        <time>2020-01-12T13:03:50.000Z</time>
      </trkpt>
      <trkpt lat="43.60006" lon="0.50432">
        <ele>201</ele>
        <time>2020-01-12T13:03:52.000Z</time>
      </trkpt>
      <trkpt lat="43.60004" lon="0.50434">
        <ele>202</ele>
        <time>2020-01-12T13:03:54.000Z</time>
      </trkpt>
      <trkpt lat="43.60002" lon="0.50436">
        <ele>202</ele>
        <time>2020-01-12T13:03:56.000Z</time>
      </trkpt>
      <trkpt lat="43.6" lon="0.50439">
        <ele>202</ele>
        <time>2020-01-12T13:03:58.000Z</time>
      </trkpt>
      <trkpt lat="43.59998" lon="0.50441">
        <ele>202</ele>
        <time>2020-01-12T13:04:00.000Z</time>
      </trkpt>
      <trkpt lat="43.59995" lon="0.50443">
        <ele>202</ele>
        <time>2020-01-12T13:04:02.000Z</time>
      </trkpt>
      <trkpt lat="43.59992" lon="0.50443">
        <ele>202</ele>
        <time>2020-01-12T13:04:04.000Z</time>
      </trkpt>
      <trkpt lat="43.59989" lon="0.50443">
        <ele>202</ele>
        <time>2020-01-12T13:04:06.000Z</time>
      </trkpt>
      <trkpt lat="43.59986" lon="0.50443">
        <ele>202</ele>
        <time>2020-01-12T13:04:08.000Z</time>
      </trkpt>
      <trkpt lat="43.59984" lon="0.50444">
        <ele>202</ele>
        <time>2020-01-12T13:04:10.000Z</time>
      </trkpt>
      <trkpt lat="43.59981" lon="0.50446">
        <ele>201</ele>
        <time>2020-01-12T13:04:12.000Z</time>
      </trkpt>
      <trkpt lat="43.59979" lon="0.50447">
        <ele>201</ele>
        <time>2020-01-12T13:04:14.000Z</time>
      </trkpt>
      <trkpt lat="43.59977" lon="0.50445">
        <ele>201</ele>
        <time>2020-01-12T13:04:16.000Z</time>
      </trkpt>
      <trkpt lat="43.59976" lon="0.50444">
        <ele>201</ele>
        <time>2020-01-12T13:04:18.000Z</time>
      </trkpt>
      <trkpt lat="43.59975" lon="0.50445">
        <ele>201</ele>
        <time>2020-01-12T13:04:20.000Z</time>
      </trkpt>
      <trkpt lat="43.59973" lon="0.50447">
        <ele>201</ele>
        <time>2020-01-12T13:04:22.000Z</time>
      </trkpt>
      <trkpt lat="43.59971" lon="0.50449">
        <ele>201</ele>
        <time>2020-01-12T13:04:24.000Z</time>
      </trkpt>
      <trkpt lat="43.59969" lon="0.5045">
        <ele>201</ele>
        <time>2020-01-12T13:04:26.000Z</time>
      </trkpt>
      <trkpt lat="43.59967" lon="0.50452">
        <ele>201</ele>
        <time>2020-01-12T13:04:28.000Z</time>
      </trkpt>
      <trkpt lat="43.59964" lon="0.50454">
        <ele>201</ele>
        <time>2020-01-12T13:04:30.000Z</time>
      </trkpt>
      <trkpt lat="43.59961" lon="0.50455">
        <ele>200</ele>
        <time>2020-01-12T13:04:32.000Z</time>
      </trkpt>
      <trkpt lat="43.5996" lon="0.50456">
        <ele>200</ele>
        <time>2020-01-12T13:04:34.000Z</time>
      </trkpt>
      <trkpt lat="43.59958" lon="0.50458">
        <ele>200</ele>
        <time>2020-01-12T13:04:36.000Z</time>
      </trkpt>
      <trkpt lat="43.59955" lon="0.50461">
        <ele>200</ele>
        <time>2020-01-12T13:04:38.000Z</time>
      </trkpt>
      <trkpt lat="43.59953" lon="0.50462">
        <ele>200</ele>
        <time>2020-01-12T13:04:40.000Z</time>
      </trkpt>
      <trkpt lat="43.5995" lon="0.50465">
        <ele>200</ele>
        <time>2020-01-12T13:04:42.000Z</time>
      </trkpt>
      <trkpt lat="43.59947" lon="0.50467">
        <ele>200</ele>
        <time>2020-01-12T13:04:44.000Z</time>
      </trkpt>
      <trkpt lat="43.59945" lon="0.50469">
        <ele>200</ele>
        <time>2020-01-12T13:04:46.000Z</time>
      </trkpt>
      <trkpt lat="43.59943" lon="0.5047">
        <ele>200</ele>
        <time>2020-01-12T13:04:48.000Z</time>
      </trkpt>
      <trkpt lat="43.59941" lon="0.50472">
        <ele>200</ele>
        <time>2020-01-12T13:04:50.000Z</time>
      </trkpt>
      <trkpt lat="43.59939" lon="0.50473">
        <ele>200</ele>
        <time>2020-01-12T13:04:52.000Z</time>
      </trkpt>
      <trkpt lat="43.59936" lon="0.50475">
        <ele>200</ele>
        <time>2020-01-12T13:04:54.000Z</time>
      </trkpt>
      <trkpt lat="43.59935" lon="0.50476">
        <ele>200</ele>
        <time>2020-01-12T13:04:56.000Z</time>
      </trkpt>
      <trkpt lat="43.59932" lon="0.50478">
        <ele>200</ele>
        <time>2020-01-12T13:04:58.000Z</time>
      </trkpt>
      <trkpt lat="43.59929" lon="0.50479">
        <ele>200</ele>
        <time>2020-01-12T13:05:00.000Z</time>
      </trkpt>
      <trkpt lat="43.59927" lon="0.5048">
        <ele>200</ele>
        <time>2020-01-12T13:05:02.000Z</time>
      </trkpt>
      <trkpt lat="43.59924" lon="0.50481">
        <ele>201</ele>
        <time>2020-01-12T13:05:04.000Z</time>
      </trkpt>
      <trkpt lat="43.59922" lon="0.50483">
        <ele>201</ele>
        <time>2020-01-12T13:05:06.000Z</time>
      </trkpt>
      <trkpt lat="43.5992" lon="0.50485">
        <ele>201</ele>
        <time>2020-01-12T13:05:08.000Z</time>
      </trkpt>
      <trkpt lat="43.59917" lon="0.50487">
        <ele>201</ele>
        <time>2020-01-12T13:05:10.000Z</time>
      </trkpt>
      <trkpt lat="43.59916" lon="0.50488">
        <ele>201</ele>
        <time>2020-01-12T13:05:12.000Z</time>
      </trkpt>
      <trkpt lat="43.59915" lon="0.50489">
        <ele>201</ele>
        <time>2020-01-12T13:05:14.000Z</time>
      </trkpt>
      <trkpt lat="43.59911" lon="0.5049">
        <ele>201</ele>
        <time>2020-01-12T13:05:16.000Z</time>
      </trkpt>
      <trkpt lat="43.59909" lon="0.5049">
        <ele>202</ele>
        <time>2020-01-12T13:05:18.000Z</time>
      </trkpt>
      <trkpt lat="43.59908" lon="0.5049">
        <ele>202</ele>
        <time>2020-01-12T13:05:20.000Z</time>
      </trkpt>
      <trkpt lat="43.59905" lon="0.50492">
        <ele>202</ele>
        <time>2020-01-12T13:05:22.000Z</time>
      </trkpt>
      <trkpt lat="43.59904" lon="0.50493">
        <ele>202</ele>
        <time>2020-01-12T13:05:24.000Z</time>
      </trkpt>
      <trkpt lat="43.59903" lon="0.50494">
        <ele>202</ele>
        <time>2020-01-12T13:05:26.000Z</time>
      </trkpt>
      <trkpt lat="43.59902" lon="0.50496">
        <ele>202</ele>
        <time>2020-01-12T13:05:28.000Z</time>
      </trkpt>
      <trkpt lat="43.599" lon="0.50497">
        <ele>202</ele>
        <time>2020-01-12T13:05:30.000Z</time>
      </trkpt>
      <trkpt lat="43.59899" lon="0.50497">
        <ele>202</ele>
        <time>2020-01-12T13:05:32.000Z</time>
      </trkpt>
      <trkpt lat="43.59898" lon="0.50499">
        <ele>202</ele>
        <time>2020-01-12T13:05:34.000Z</time>
      </trkpt>
      <trkpt lat="43.59898" lon="0.50499">
        <ele>202</ele>
        <time>2020-01-12T13:05:36.000Z</time>
      </trkpt>
      <trkpt lat="43.59897" lon="0.50499">
        <ele>202</ele>
        <time>2020-01-12T13:05:38.000Z</time>
      </trkpt>
      <trkpt lat="43.59897" lon="0.50499">
        <ele>202</ele>
        <time>2020-01-12T13:05:40.000Z</time>
      </trkpt>
      <trkpt lat="43.59898" lon="0.50499">
        <ele>202</ele>
        <time>2020-01-12T13:05:42.000Z</time>
      </trkpt>
      <trkpt lat="43.59897" lon="0.50499">
        <ele>202</ele>
        <time>2020-01-12T13:05:44.000Z</time>
      </trkpt>
      <trkpt lat="43.59897" lon="0.50499">
        <ele>202</ele>
        <time>2020-01-12T13:05:46.000Z</time>
      </trkpt>
      <trkpt lat="43.59897" lon="0.50498">
        <ele>202</ele>
        <time>2020-01-12T13:05:48.000Z</time>
      </trkpt>
      <trkpt lat="43.59897" lon="0.50498">
        <ele>202</ele>
        <time>2020-01-12T13:05:50.000Z</time>
      </trkpt>
      <trkpt lat="43.59896" lon="0.50498">
        <ele>202</ele>
        <time>2020-01-12T13:05:52.000Z</time>
      </trkpt>
      <trkpt lat="43.59895" lon="0.50498">
        <ele>202</ele>
        <time>2020-01-12T13:05:54.000Z</time>
      </trkpt>
      <trkpt lat="43.59895" lon="0.50499">
        <ele>202</ele>
        <time>2020-01-12T13:05:56.000Z</time>
      </trkpt>
      <trkpt lat="43.59893" lon="0.50499">
        <ele>202</ele>
        <time>2020-01-12T13:05:58.000Z</time>
      </trkpt>
      <trkpt lat="43.59892" lon="0.50501">
        <ele>203</ele>
        <time>2020-01-12T13:06:00.000Z</time>
      </trkpt>
      <trkpt lat="43.5989" lon="0.50503">
        <ele>203</ele>
        <time>2020-01-12T13:06:02.000Z</time>
      </trkpt>
      <trkpt lat="43.59888" lon="0.50504">
        <ele>203</ele>
        <time>2020-01-12T13:06:04.000Z</time>
      </trkpt>
      <trkpt lat="43.59887" lon="0.50505">
        <ele>203</ele>
        <time>2020-01-12T13:06:06.000Z</time>
      </trkpt>
      <trkpt lat="43.59885" lon="0.50506">
        <ele>203</ele>
        <time>2020-01-12T13:06:08.000Z</time>
      </trkpt>
      <trkpt lat="43.59883" lon="0.50508">
        <ele>204</ele>
        <time>2020-01-12T13:06:10.000Z</time>
      </trkpt>
      <trkpt lat="43.59881" lon="0.50509">
        <ele>204</ele>
        <time>2020-01-12T13:06:12.000Z</time>
      </trkpt>
      <trkpt lat="43.59879" lon="0.50509">
        <ele>204</ele>
        <time>2020-01-12T13:06:14.000Z</time>
      </trkpt>
      <trkpt lat="43.59876" lon="0.50509">
        <ele>204</ele>
        <time>2020-01-12T13:06:16.000Z</time>
      </trkpt>
      <trkpt lat="43.59874" lon="0.5051">
        <ele>204</ele>
        <time>2020-01-12T13:06:18.000Z</time>
      </trkpt>
      <trkpt lat="43.59873" lon="0.50511">
        <ele>204</ele>
        <time>2020-01-12T13:06:20.000Z</time>
      </trkpt>
      <trkpt lat="43.59871" lon="0.50511">
        <ele>204</ele>
        <time>2020-01-12T13:06:22.000Z</time>
      </trkpt>
      <trkpt lat="43.59868" lon="0.50511">
        <ele>204</ele>
        <time>2020-01-12T13:06:24.000Z</time>
      </trkpt>
      <trkpt lat="43.59866" lon="0.50511">
        <ele>204</ele>
        <time>2020-01-12T13:06:26.000Z</time>
      </trkpt>
      <trkpt lat="43.59864" lon="0.5051">
        <ele>204</ele>
        <time>2020-01-12T13:06:28.000Z</time>
      </trkpt>
      <trkpt lat="43.59862" lon="0.5051">
        <ele>204</ele>
        <time>2020-01-12T13:06:30.000Z</time>
      </trkpt>
      <trkpt lat="43.59859" lon="0.50512">
        <ele>204</ele>
        <time>2020-01-12T13:06:32.000Z</time>
      </trkpt>
      <trkpt lat="43.59858" lon="0.50513">
        <ele>204</ele>
        <time>2020-01-12T13:06:34.000Z</time>
      </trkpt>
      <trkpt lat="43.59856" lon="0.50514">
        <ele>205</ele>
        <time>2020-01-12T13:06:36.000Z</time>
      </trkpt>
      <trkpt lat="43.59854" lon="0.50515">
        <ele>205</ele>
        <time>2020-01-12T13:06:38.000Z</time>
      </trkpt>
      <trkpt lat="43.59852" lon="0.50516">
        <ele>205</ele>
        <time>2020-01-12T13:06:40.000Z</time>
      </trkpt>
      <trkpt lat="43.5985" lon="0.50518">
        <ele>205</ele>
        <time>2020-01-12T13:06:42.000Z</time>
      </trkpt>
      <trkpt lat="43.59849" lon="0.50519">
        <ele>205</ele>
        <time>2020-01-12T13:06:44.000Z</time>
      </trkpt>
      <trkpt lat="43.59848" lon="0.50521">
        <ele>205</ele>
        <time>2020-01-12T13:06:46.000Z</time>
      </trkpt>
      <trkpt lat="43.59846" lon="0.50523">
        <ele>206</ele>
        <time>2020-01-12T13:06:48.000Z</time>
      </trkpt>
      <trkpt lat="43.59844" lon="0.50524">
        <ele>206</ele>
        <time>2020-01-12T13:06:50.000Z</time>
      </trkpt>
      <trkpt lat="43.59842" lon="0.50526">
        <ele>206</ele>
        <time>2020-01-12T13:06:52.000Z</time>
      </trkpt>
      <trkpt lat="43.59841" lon="0.50528">
        <ele>206</ele>
        <time>2020-01-12T13:06:54.000Z</time>
      </trkpt>
      <trkpt lat="43.5984" lon="0.50529">
        <ele>206</ele>
        <time>2020-01-12T13:06:56.000Z</time>
      </trkpt>
      <trkpt lat="43.59839" lon="0.5053">
        <ele>207</ele>
        <time>2020-01-12T13:06:58.000Z</time>
      </trkpt>
      <trkpt lat="43.59838" lon="0.50531">
        <ele>207</ele>
        <time>2020-01-12T13:07:00.000Z</time>
      </trkpt>
      <trkpt lat="43.59837" lon="0.50532">
        <ele>207</ele>
        <time>2020-01-12T13:07:02.000Z</time>
      </trkpt>
      <trkpt lat="43.59835" lon="0.50533">
        <ele>207</ele>
        <time>2020-01-12T13:07:04.000Z</time>
      </trkpt>
      <trkpt lat="43.59834" lon="0.50534">
        <ele>207</ele>
        <time>2020-01-12T13:07:06.000Z</time>
      </trkpt>
      <trkpt lat="43.59833" lon="0.50536">
        <ele>207</ele>
        <time>2020-01-12T13:07:08.000Z</time>
      </trkpt>
      <trkpt lat="43.59832" lon="0.50537">
        <ele>207</ele>
        <time>2020-01-12T13:07:10.000Z</time>
      </trkpt>
      <trkpt lat="43.59831" lon="0.50538">
        <ele>207</ele>
        <time>2020-01-12T13:07:12.000Z</time>
      </trkpt>
      <trkpt lat="43.5983" lon="0.5054">
        <ele>207</ele>
        <time>2020-01-12T13:07:14.000Z</time>
      </trkpt>
      <trkpt lat="43.59829" lon="0.50541">
        <ele>207</ele>
        <time>2020-01-12T13:07:16.000Z</time>
      </trkpt>
      <trkpt lat="43.59827" lon="0.50543">
        <ele>207</ele>
        <time>2020-01-12T13:07:18.000Z</time>
      </trkpt>
      <trkpt lat="43.59826" lon="0.50544">
        <ele>207</ele>
        <time>2020-01-12T13:07:20.000Z</time>
      </trkpt>
      <trkpt lat="43.59824" lon="0.50545">
        <ele>207</ele>
        <time>2020-01-12T13:07:22.000Z</time>
      </trkpt>
      <trkpt lat="43.59822" lon="0.50547">
        <ele>207</ele>
        <time>2020-01-12T13:07:24.000Z</time>
      </trkpt>
      <trkpt lat="43.5982" lon="0.50548">
        <ele>207</ele>
        <time>2020-01-12T13:07:26.000Z</time>
      </trkpt>
      <trkpt lat="43.59818" lon="0.50549">
        <ele>207</ele>
        <time>2020-01-12T13:07:28.000Z</time>
      </trkpt>
      <trkpt lat="43.59816" lon="0.5055">
        <ele>207</ele>
        <time>2020-01-12T13:07:30.000Z</time>
      </trkpt>
      <trkpt lat="43.59814" lon="0.50552">
        <ele>207</ele>
        <time>2020-01-12T13:07:32.000Z</time>
      </trkpt>
      <trkpt lat="43.59812" lon="0.50554">
        <ele>207</ele>
        <time>2020-01-12T13:07:34.000Z</time>
      </trkpt>
      <trkpt lat="43.59809" lon="0.50555">
        <ele>208</ele>
        <time>2020-01-12T13:07:36.000Z</time>
      </trkpt>
      <trkpt lat="43.59808" lon="0.50558">
        <ele>208</ele>
        <time>2020-01-12T13:07:38.000Z</time>
      </trkpt>
      <trkpt lat="43.59805" lon="0.50559">
        <ele>208</ele>
        <time>2020-01-12T13:07:40.000Z</time>
      </trkpt>
      <trkpt lat="43.59803" lon="0.50561">
        <ele>209</ele>
        <time>2020-01-12T13:07:42.000Z</time>
      </trkpt>
      <trkpt lat="43.59801" lon="0.50564">
        <ele>209</ele>
        <time>2020-01-12T13:07:44.000Z</time>
      </trkpt>
      <trkpt lat="43.59799" lon="0.50565">
        <ele>209</ele>
        <time>2020-01-12T13:07:46.000Z</time>
      </trkpt>
      <trkpt lat="43.59797" lon="0.50566">
        <ele>209</ele>
        <time>2020-01-12T13:07:48.000Z</time>
      </trkpt>
      <trkpt lat="43.59796" lon="0.50566">
        <ele>209</ele>
        <time>2020-01-12T13:07:50.000Z</time>
      </trkpt>
      <trkpt lat="43.59794" lon="0.50567">
        <ele>209</ele>
        <time>2020-01-12T13:07:52.000Z</time>
      </trkpt>
      <trkpt lat="43.59793" lon="0.50568">
        <ele>210</ele>
        <time>2020-01-12T13:07:54.000Z</time>
      </trkpt>
      <trkpt lat="43.59792" lon="0.50569">
        <ele>210</ele>
        <time>2020-01-12T13:07:56.000Z</time>
      </trkpt>
      <trkpt lat="43.59791" lon="0.5057">
        <ele>210</ele>
        <time>2020-01-12T13:07:58.000Z</time>
      </trkpt>
      <trkpt lat="43.5979" lon="0.50572">
        <ele>210</ele>
        <time>2020-01-12T13:08:00.000Z</time>
      </trkpt>
      <trkpt lat="43.59787" lon="0.50574">
        <ele>211</ele>
        <time>2020-01-12T13:08:02.000Z</time>
      </trkpt>
      <trkpt lat="43.59786" lon="0.50575">
        <ele>211</ele>
        <time>2020-01-12T13:08:04.000Z</time>
      </trkpt>
      <trkpt lat="43.59784" lon="0.50576">
        <ele>211</ele>
        <time>2020-01-12T13:08:06.000Z</time>
      </trkpt>
      <trkpt lat="43.59783" lon="0.50577">
        <ele>211</ele>
        <time>2020-01-12T13:08:08.000Z</time>
      </trkpt>
      <trkpt lat="43.5978" lon="0.50578">
        <ele>211</ele>
        <time>2020-01-12T13:08:10.000Z</time>
      </trkpt>
      <trkpt lat="43.59778" lon="0.5058">
        <ele>212</ele>
        <time>2020-01-12T13:08:12.000Z</time>
      </trkpt>
      <trkpt lat="43.59777" lon="0.5058">
        <ele>212</ele>
        <time>2020-01-12T13:08:14.000Z</time>
      </trkpt>
      <trkpt lat="43.59775" lon="0.50581">
        <ele>212</ele>
        <time>2020-01-12T13:08:16.000Z</time>
      </trkpt>
      <trkpt lat="43.59773" lon="0.50581">
        <ele>212</ele>
        <time>2020-01-12T13:08:18.000Z</time>
      </trkpt>
      <trkpt lat="43.59771" lon="0.50582">
        <ele>212</ele>
        <time>2020-01-12T13:08:20.000Z</time>
      </trkpt>
      <trkpt lat="43.5977" lon="0.50583">
        <ele>212</ele>
        <time>2020-01-12T13:08:22.000Z</time>
      </trkpt>
      <trkpt lat="43.59768" lon="0.50583">
        <ele>212</ele>
        <time>2020-01-12T13:08:24.000Z</time>
      </trkpt>
      <trkpt lat="43.59767" lon="0.50584">
        <ele>212</ele>
        <time>2020-01-12T13:08:26.000Z</time>
      </trkpt>
      <trkpt lat="43.59766" lon="0.50585">
        <ele>212</ele>
        <time>2020-01-12T13:08:28.000Z</time>
      </trkpt>
      <trkpt lat="43.59764" lon="0.50585">
        <ele>212</ele>
        <time>2020-01-12T13:08:30.000Z</time>
      </trkpt>
      <trkpt lat="43.59763" lon="0.50587">
        <ele>213</ele>
        <time>2020-01-12T13:08:32.000Z</time>
      </trkpt>
      <trkpt lat="43.59762" lon="0.50588">
        <ele>213</ele>
        <time>2020-01-12T13:08:34.000Z</time>
      </trkpt>
      <trkpt lat="43.59762" lon="0.50588">
        <ele>213</ele>
        <time>2020-01-12T13:08:36.000Z</time>
      </trkpt>
      <trkpt lat="43.59761" lon="0.50589">
        <ele>213</ele>
        <time>2020-01-12T13:08:38.000Z</time>
      </trkpt>
      <trkpt lat="43.59759" lon="0.50589">
        <ele>213</ele>
        <time>2020-01-12T13:08:40.000Z</time>
      </trkpt>
      <trkpt lat="43.59758" lon="0.5059">
        <ele>213</ele>
        <time>2020-01-12T13:08:42.000Z</time>
      </trkpt>
      <trkpt lat="43.59756" lon="0.50591">
        <ele>213</ele>
        <time>2020-01-12T13:08:44.000Z</time>
      </trkpt>
      <trkpt lat="43.59753" lon="0.50591">
        <ele>213</ele>
        <time>2020-01-12T13:08:46.000Z</time>
      </trkpt>
      <trkpt lat="43.59751" lon="0.50592">
        <ele>213</ele>
        <time>2020-01-12T13:08:48.000Z</time>
      </trkpt>
      <trkpt lat="43.59749" lon="0.50593">
        <ele>214</ele>
        <time>2020-01-12T13:08:50.000Z</time>
      </trkpt>
      <trkpt lat="43.59748" lon="0.50593">
        <ele>214</ele>
        <time>2020-01-12T13:08:52.000Z</time>
      </trkpt>
      <trkpt lat="43.59745" lon="0.50595">
        <ele>214</ele>
        <time>2020-01-12T13:08:54.000Z</time>
      </trkpt>
      <trkpt lat="43.59742" lon="0.50595">
        <ele>214</ele>
        <time>2020-01-12T13:08:56.000Z</time>
      </trkpt>
      <trkpt lat="43.59741" lon="0.50597">
        <ele>214</ele>
        <time>2020-01-12T13:08:58.000Z</time>
      </trkpt>
      <trkpt lat="43.59739" lon="0.50598">
        <ele>215</ele>
        <time>2020-01-12T13:09:00.000Z</time>
      </trkpt>
      <trkpt lat="43.59738" lon="0.50599">
        <ele>215</ele>
        <time>2020-01-12T13:09:02.000Z</time>
      </trkpt>
      <trkpt lat="43.59737" lon="0.50598">
        <ele>214</ele>
        <time>2020-01-12T13:09:04.000Z</time>
      </trkpt>
      <trkpt lat="43.59735" lon="0.50599">
        <ele>215</ele>
        <time>2020-01-12T13:09:06.000Z</time>
      </trkpt>
      <trkpt lat="43.59733" lon="0.506">
        <ele>214</ele>
        <time>2020-01-12T13:09:08.000Z</time>
      </trkpt>
      <trkpt lat="43.5973" lon="0.50602">
        <ele>214</ele>
        <time>2020-01-12T13:09:10.000Z</time>
      </trkpt>
      <trkpt lat="43.59727" lon="0.50604">
        <ele>214</ele>
        <time>2020-01-12T13:09:12.000Z</time>
      </trkpt>
      <trkpt lat="43.59724" lon="0.50605">
        <ele>213</ele>
        <time>2020-01-12T13:09:14.000Z</time>
      </trkpt>
      <trkpt lat="43.59721" lon="0.50607">
        <ele>213</ele>
        <time>2020-01-12T13:09:16.000Z</time>
      </trkpt>
      <trkpt lat="43.59719" lon="0.50609">
        <ele>213</ele>
        <time>2020-01-12T13:09:18.000Z</time>
      </trkpt>
      <trkpt lat="43.59717" lon="0.50611">
        <ele>213</ele>
        <time>2020-01-12T13:09:20.000Z</time>
      </trkpt>
      <trkpt lat="43.59715" lon="0.50613">
        <ele>213</ele>
        <time>2020-01-12T13:09:22.000Z</time>
      </trkpt>
      <trkpt lat="43.59712" lon="0.50614">
        <ele>213</ele>
        <time>2020-01-12T13:09:24.000Z</time>
      </trkpt>
      <trkpt lat="43.59711" lon="0.50615">
        <ele>212</ele>
        <time>2020-01-12T13:09:26.000Z</time>
      </trkpt>
      <trkpt lat="43.59709" lon="0.50615">
        <ele>212</ele>
        <time>2020-01-12T13:09:28.000Z</time>
      </trkpt>
      <trkpt lat="43.59708" lon="0.50616">
        <ele>212</ele>
        <time>2020-01-12T13:09:30.000Z</time>
      </trkpt>
      <trkpt lat="43.59706" lon="0.50616">
        <ele>212</ele>
        <time>2020-01-12T13:09:32.000Z</time>
      </trkpt>
      <trkpt lat="43.59705" lon="0.50618">
        <ele>212</ele>
        <time>2020-01-12T13:09:34.000Z</time>
      </trkpt>
      <trkpt lat="43.59704" lon="0.50619">
        <ele>212</ele>
        <time>2020-01-12T13:09:36.000Z</time>
      </trkpt>
      <trkpt lat="43.59702" lon="0.5062">
        <ele>211</ele>
        <time>2020-01-12T13:09:38.000Z</time>
      </trkpt>
      <trkpt lat="43.597" lon="0.5062">
        <ele>211</ele>
        <time>2020-01-12T13:09:40.000Z</time>
      </trkpt>
      <trkpt lat="43.59698" lon="0.50621">
        <ele>211</ele>
        <time>2020-01-12T13:09:42.000Z</time>
      </trkpt>
      <trkpt lat="43.59697" lon="0.5062">
        <ele>211</ele>
        <time>2020-01-12T13:09:44.000Z</time>
      </trkpt>
      <trkpt lat="43.59695" lon="0.50622">
        <ele>210</ele>
        <time>2020-01-12T13:09:46.000Z</time>
      </trkpt>
      <trkpt lat="43.59693" lon="0.50623">
        <ele>210</ele>
        <time>2020-01-12T13:09:48.000Z</time>
      </trkpt>
      <trkpt lat="43.5969" lon="0.50624">
        <ele>210</ele>
        <time>2020-01-12T13:09:50.000Z</time>
      </trkpt>
      <trkpt lat="43.59686" lon="0.50625">
        <ele>209</ele>
        <time>2020-01-12T13:09:52.000Z</time>
      </trkpt>
      <trkpt lat="43.59684" lon="0.50626">
        <ele>209</ele>
        <time>2020-01-12T13:09:54.000Z</time>
      </trkpt>
      <trkpt lat="43.59681" lon="0.50627">
        <ele>209</ele>
        <time>2020-01-12T13:09:56.000Z</time>
      </trkpt>
      <trkpt lat="43.59678" lon="0.50628">
        <ele>209</ele>
        <time>2020-01-12T13:09:58.000Z</time>
      </trkpt>
      <trkpt lat="43.59675" lon="0.5063">
        <ele>209</ele>
        <time>2020-01-12T13:10:00.000Z</time>
      </trkpt>
      <trkpt lat="43.59672" lon="0.50632">
        <ele>209</ele>
        <time>2020-01-12T13:10:02.000Z</time>
      </trkpt>
      <trkpt lat="43.5967" lon="0.50633">
        <ele>209</ele>
        <time>2020-01-12T13:10:04.000Z</time>
      </trkpt>
      <trkpt lat="43.59668" lon="0.50634">
        <ele>209</ele>
        <time>2020-01-12T13:10:06.000Z</time>
      </trkpt>
      <trkpt lat="43.59666" lon="0.50634">
        <ele>209</ele>
        <time>2020-01-12T13:10:08.000Z</time>
      </trkpt>
      <trkpt lat="43.59664" lon="0.50635">
        <ele>209</ele>
        <time>2020-01-12T13:10:10.000Z</time>
      </trkpt>
      <trkpt lat="43.59663" lon="0.50635">
        <ele>208</ele>
        <time>2020-01-12T13:10:12.000Z</time>
      </trkpt>
      <trkpt lat="43.59661" lon="0.50635">
        <ele>208</ele>
        <time>2020-01-12T13:10:14.000Z</time>
      </trkpt>
      <trkpt lat="43.59659" lon="0.50635">
        <ele>208</ele>
        <time>2020-01-12T13:10:16.000Z</time>
      </trkpt>
      <trkpt lat="43.59658" lon="0.50635">
        <ele>208</ele>
        <time>2020-01-12T13:10:18.000Z</time>
      </trkpt>
      <trkpt lat="43.59656" lon="0.50635">
        <ele>208</ele>
        <time>2020-01-12T13:10:20.000Z</time>
      </trkpt>
      <trkpt lat="43.59654" lon="0.50635">
        <ele>208</ele>
        <time>2020-01-12T13:10:22.000Z</time>
      </trkpt>
      <trkpt lat="43.59652" lon="0.50636">
        <ele>208</ele>
        <time>2020-01-12T13:10:24.000Z</time>
      </trkpt>
      <trkpt lat="43.59649" lon="0.50638">
        <ele>208</ele>
        <time>2020-01-12T13:10:26.000Z</time>
      </trkpt>
      <trkpt lat="43.59647" lon="0.50639">
        <ele>208</ele>
        <time>2020-01-12T13:10:28.000Z</time>
      </trkpt>
      <trkpt lat="43.59645" lon="0.50639">
        <ele>208</ele>
        <time>2020-01-12T13:10:30.000Z</time>
      </trkpt>
      <trkpt lat="43.59643" lon="0.5064">
        <ele>208</ele>
        <time>2020-01-12T13:10:32.000Z</time>
      </trkpt>
      <trkpt lat="43.59641" lon="0.50641">
        <ele>208</ele>
        <time>2020-01-12T13:10:34.000Z</time>
      </trkpt>
      <trkpt lat="43.59639" lon="0.50642">
        <ele>208</ele>
        <time>2020-01-12T13:10:36.000Z</time>
      </trkpt>
      <trkpt lat="43.59637" lon="0.50644">
        <ele>208</ele>
        <time>2020-01-12T13:10:38.000Z</time>
      </trkpt>
      <trkpt lat="43.59635" lon="0.50645">
        <ele>208</ele>
        <time>2020-01-12T13:10:40.000Z</time>
      </trkpt>
      <trkpt lat="43.59633" lon="0.50646">
        <ele>208</ele>
        <time>2020-01-12T13:10:42.000Z</time>
      </trkpt>
      <trkpt lat="43.59631" lon="0.50646">
        <ele>208</ele>
        <time>2020-01-12T13:10:44.000Z</time>
      </trkpt>
      <trkpt lat="43.59629" lon="0.50647">
        <ele>208</ele>
        <time>2020-01-12T13:10:46.000Z</time>
      </trkpt>
      <trkpt lat="43.59628" lon="0.50647">
        <ele>208</ele>
        <time>2020-01-12T13:10:48.000Z</time>
      </trkpt>
      <trkpt lat="43.59627" lon="0.50647">
        <ele>208</ele>
        <time>2020-01-12T13:10:50.000Z</time>
      </trkpt>
      <trkpt lat="43.59625" lon="0.50648">
        <ele>208</ele>
        <time>2020-01-12T13:10:52.000Z</time>
      </trkpt>
      <trkpt lat="43.59624" lon="0.50648">
        <ele>208</ele>
        <time>2020-01-12T13:10:54.000Z</time>
      </trkpt>
      <trkpt lat="43.59622" lon="0.50647">
        <ele>208</ele>
        <time>2020-01-12T13:10:56.000Z</time>
      </trkpt>
      <trkpt lat="43.5962" lon="0.50647">
        <ele>207</ele>
        <time>2020-01-12T13:10:58.000Z</time>
      </trkpt>
      <trkpt lat="43.59619" lon="0.50646">
        <ele>207</ele>
        <time>2020-01-12T13:11:00.000Z</time>
      </trkpt>
      <trkpt lat="43.59617" lon="0.50645">
        <ele>207</ele>
        <time>2020-01-12T13:11:02.000Z</time>
      </trkpt>
      <trkpt lat="43.59616" lon="0.50643">
        <ele>206</ele>
        <time>2020-01-12T13:11:04.000Z</time>
      </trkpt>
      <trkpt lat="43.59614" lon="0.50642">
        <ele>206</ele>
        <time>2020-01-12T13:11:06.000Z</time>
      </trkpt>
      <trkpt lat="43.59613" lon="0.50642">
        <ele>206</ele>
        <time>2020-01-12T13:11:08.000Z</time>
      </trkpt>
      <trkpt lat="43.59612" lon="0.50641">
        <ele>206</ele>
        <time>2020-01-12T13:11:10.000Z</time>
      </trkpt>
      <trkpt lat="43.59611" lon="0.50641">
        <ele>205</ele>
        <time>2020-01-12T13:11:12.000Z</time>
      </trkpt>
      <trkpt lat="43.5961" lon="0.5064">
        <ele>205</ele>
        <time>2020-01-12T13:11:14.000Z</time>
      </trkpt>
      <trkpt lat="43.5961" lon="0.5064">
        <ele>205</ele>
        <time>2020-01-12T13:11:16.000Z</time>
      </trkpt>
      <trkpt lat="43.5961" lon="0.50638">
        <ele>205</ele>
        <time>2020-01-12T13:11:18.000Z</time>
      </trkpt>
      <trkpt lat="43.59609" lon="0.50638">
        <ele>205</ele>
        <time>2020-01-12T13:11:20.000Z</time>
      </trkpt>
      <trkpt lat="43.5961" lon="0.50637">
        <ele>204</ele>
        <time>2020-01-12T13:11:22.000Z</time>
      </trkpt>
      <trkpt lat="43.5961" lon="0.50636">
        <ele>204</ele>
        <time>2020-01-12T13:11:24.000Z</time>
      </trkpt>
      <trkpt lat="43.59609" lon="0.50636">
        <ele>204</ele>
        <time>2020-01-12T13:11:26.000Z</time>
      </trkpt>
      <trkpt lat="43.59609" lon="0.50636">
        <ele>204</ele>
        <time>2020-01-12T13:11:28.000Z</time>
      </trkpt>
      <trkpt lat="43.59608" lon="0.50636">
        <ele>204</ele>
        <time>2020-01-12T13:11:30.000Z</time>
      </trkpt>
      <trkpt lat="43.59607" lon="0.50636">
        <ele>204</ele>
        <time>2020-01-12T13:11:32.000Z</time>
      </trkpt>
      <trkpt lat="43.59606" lon="0.50636">
        <ele>204</ele>
        <time>2020-01-12T13:11:34.000Z</time>
      </trkpt>
      <trkpt lat="43.59605" lon="0.50635">
        <ele>204</ele>
        <time>2020-01-12T13:11:36.000Z</time>
      </trkpt>
      <trkpt lat="43.59604" lon="0.50635">
        <ele>203</ele>
        <time>2020-01-12T13:11:38.000Z</time>
      </trkpt>
      <trkpt lat="43.59603" lon="0.50634">
        <ele>203</ele>
        <time>2020-01-12T13:11:40.000Z</time>
      </trkpt>
      <trkpt lat="43.59602" lon="0.50634">
        <ele>203</ele>
        <time>2020-01-12T13:11:42.000Z</time>
      </trkpt>
      <trkpt lat="43.59601" lon="0.50634">
        <ele>203</ele>
        <time>2020-01-12T13:11:44.000Z</time>
      </trkpt>
      <trkpt lat="43.596" lon="0.50635">
        <ele>203</ele>
        <time>2020-01-12T13:11:46.000Z</time>
      </trkpt>
      <trkpt lat="43.59598" lon="0.50635">
        <ele>203</ele>
        <time>2020-01-12T13:11:48.000Z</time>
      </trkpt>
      <trkpt lat="43.59597" lon="0.50635">
        <ele>203</ele>
        <time>2020-01-12T13:11:50.000Z</time>
      </trkpt>
      <trkpt lat="43.59597" lon="0.50635">
        <ele>203</ele>
        <time>2020-01-12T13:11:52.000Z</time>
      </trkpt>
      <trkpt lat="43.59596" lon="0.50635">
        <ele>203</ele>
        <time>2020-01-12T13:11:54.000Z</time>
      </trkpt>
      <trkpt lat="43.59594" lon="0.50635">
        <ele>203</ele>
        <time>2020-01-12T13:11:56.000Z</time>
      </trkpt>
      <trkpt lat="43.59593" lon="0.50637">
        <ele>203</ele>
        <time>2020-01-12T13:11:58.000Z</time>
      </trkpt>
      <trkpt lat="43.59592" lon="0.50638">
        <ele>203</ele>
        <time>2020-01-12T13:12:00.000Z</time>
      </trkpt>
      <trkpt lat="43.5959" lon="0.50638">
        <ele>203</ele>
        <time>2020-01-12T13:12:02.000Z</time>
      </trkpt>
      <trkpt lat="43.59589" lon="0.50639">
        <ele>203</ele>
        <time>2020-01-12T13:12:04.000Z</time>
      </trkpt>
      <trkpt lat="43.59588" lon="0.50639">
        <ele>203</ele>
        <time>2020-01-12T13:12:06.000Z</time>
      </trkpt>
      <trkpt lat="43.59588" lon="0.50639">
        <ele>203</ele>
        <time>2020-01-12T13:12:08.000Z</time>
      </trkpt>
      <trkpt lat="43.59587" lon="0.50639">
        <ele>203</ele>
        <time>2020-01-12T13:12:10.000Z</time>
      </trkpt>
      <trkpt lat="43.59587" lon="0.50638">
        <ele>203</ele>
        <time>2020-01-12T13:12:12.000Z</time>
      </trkpt>
      <trkpt lat="43.59587" lon="0.50638">
        <ele>203</ele>
        <time>2020-01-12T13:12:14.000Z</time>
      </trkpt>
      <trkpt lat="43.59588" lon="0.50637">
        <ele>203</ele>
        <time>2020-01-12T13:12:16.000Z</time>
      </trkpt>
      <trkpt lat="43.59587" lon="0.50637">
        <ele>203</ele>
        <time>2020-01-12T13:12:18.000Z</time>
      </trkpt>
      <trkpt lat="43.59586" lon="0.50637">
        <ele>203</ele>
        <time>2020-01-12T13:12:20.000Z</time>
      </trkpt>
      <trkpt lat="43.59584" lon="0.50637">
        <ele>203</ele>
        <time>2020-01-12T13:12:22.000Z</time>
      </trkpt>
      <trkpt lat="43.59582" lon="0.50637">
        <ele>203</ele>
        <time>2020-01-12T13:12:24.000Z</time>
      </trkpt>
      <trkpt lat="43.59581" lon="0.50638">
        <ele>203</ele>
        <time>2020-01-12T13:12:26.000Z</time>
      </trkpt>
      <trkpt lat="43.5958" lon="0.50639">
        <ele>203</ele>
        <time>2020-01-12T13:12:28.000Z</time>
      </trkpt>
      <trkpt lat="43.59579" lon="0.50639">
        <ele>203</ele>
        <time>2020-01-12T13:12:30.000Z</time>
      </trkpt>
      <trkpt lat="43.59578" lon="0.50639">
        <ele>203</ele>
        <time>2020-01-12T13:12:32.000Z</time>
      </trkpt>
      <trkpt lat="43.59576" lon="0.50639">
        <ele>203</ele>
        <time>2020-01-12T13:12:34.000Z</time>
      </trkpt>
      <trkpt lat="43.59573" lon="0.5064">
        <ele>203</ele>
        <time>2020-01-12T13:12:36.000Z</time>
      </trkpt>
      <trkpt lat="43.59571" lon="0.50641">
        <ele>203</ele>
        <time>2020-01-12T13:12:38.000Z</time>
      </trkpt>
      <trkpt lat="43.59569" lon="0.50642">
        <ele>203</ele>
        <time>2020-01-12T13:12:40.000Z</time>
      </trkpt>
      <trkpt lat="43.59568" lon="0.50642">
        <ele>203</ele>
        <time>2020-01-12T13:12:42.000Z</time>
      </trkpt>
      <trkpt lat="43.59567" lon="0.50642">
        <ele>203</ele>
        <time>2020-01-12T13:12:44.000Z</time>
      </trkpt>
      <trkpt lat="43.59565" lon="0.50642">
        <ele>203</ele>
        <time>2020-01-12T13:12:46.000Z</time>
      </trkpt>
      <trkpt lat="43.59561" lon="0.50642">
        <ele>203</ele>
        <time>2020-01-12T13:12:48.000Z</time>
      </trkpt>
      <trkpt lat="43.59559" lon="0.50642">
        <ele>203</ele>
        <time>2020-01-12T13:12:50.000Z</time>
      </trkpt>
      <trkpt lat="43.59558" lon="0.50643">
        <ele>203</ele>
        <time>2020-01-12T13:12:52.000Z</time>
      </trkpt>
      <trkpt lat="43.59555" lon="0.50643">
        <ele>203</ele>
        <time>2020-01-12T13:12:54.000Z</time>
      </trkpt>
      <trkpt lat="43.59554" lon="0.50644">
        <ele>203</ele>
        <time>2020-01-12T13:12:56.000Z</time>
      </trkpt>
      <trkpt lat="43.59551" lon="0.50644">
        <ele>203</ele>
        <time>2020-01-12T13:12:58.000Z</time>
      </trkpt>
      <trkpt lat="43.59549" lon="0.50644">
        <ele>203</ele>
        <time>2020-01-12T13:13:00.000Z</time>
      </trkpt>
      <trkpt lat="43.59547" lon="0.50644">
        <ele>203</ele>
        <time>2020-01-12T13:13:02.000Z</time>
      </trkpt>
      <trkpt lat="43.59546" lon="0.50644">
        <ele>203</ele>
        <time>2020-01-12T13:13:04.000Z</time>
      </trkpt>
      <trkpt lat="43.59545" lon="0.50644">
        <ele>203</ele>
        <time>2020-01-12T13:13:06.000Z</time>
      </trkpt>
      <trkpt lat="43.59545" lon="0.50644">
        <ele>203</ele>
        <time>2020-01-12T13:13:08.000Z</time>
      </trkpt>
      <trkpt lat="43.59544" lon="0.50645">
        <ele>203</ele>
        <time>2020-01-12T13:13:10.000Z</time>
      </trkpt>
      <trkpt lat="43.59543" lon="0.50645">
        <ele>203</ele>
        <time>2020-01-12T13:13:12.000Z</time>
      </trkpt>
      <trkpt lat="43.59542" lon="0.50646">
        <ele>203</ele>
        <time>2020-01-12T13:13:14.000Z</time>
      </trkpt>
      <trkpt lat="43.5954" lon="0.50647">
        <ele>203</ele>
        <time>2020-01-12T13:13:16.000Z</time>
      </trkpt>
      <trkpt lat="43.59538" lon="0.50649">
        <ele>203</ele>
        <time>2020-01-12T13:13:18.000Z</time>
      </trkpt>
      <trkpt lat="43.59537" lon="0.50651">
        <ele>204</ele>
        <time>2020-01-12T13:13:20.000Z</time>
      </trkpt>
      <trkpt lat="43.59536" lon="0.50653">
        <ele>204</ele>
        <time>2020-01-12T13:13:22.000Z</time>
      </trkpt>
      <trkpt lat="43.59535" lon="0.50655">
        <ele>204</ele>
        <time>2020-01-12T13:13:24.000Z</time>
      </trkpt>
      <trkpt lat="43.59534" lon="0.50656">
        <ele>204</ele>
        <time>2020-01-12T13:13:26.000Z</time>
      </trkpt>
      <trkpt lat="43.59533" lon="0.50657">
        <ele>204</ele>
        <time>2020-01-12T13:13:28.000Z</time>
      </trkpt>
      <trkpt lat="43.59533" lon="0.50659">
        <ele>204</ele>
        <time>2020-01-12T13:13:30.000Z</time>
      </trkpt>
      <trkpt lat="43.59532" lon="0.50661">
        <ele>204</ele>
        <time>2020-01-12T13:13:32.000Z</time>
      </trkpt>
      <trkpt lat="43.59531" lon="0.50663">
        <ele>204</ele>
        <time>2020-01-12T13:13:34.000Z</time>
      </trkpt>
      <trkpt lat="43.5953" lon="0.50664">
        <ele>204</ele>
        <time>2020-01-12T13:13:36.000Z</time>
      </trkpt>
      <trkpt lat="43.59529" lon="0.50666">
        <ele>204</ele>
        <time>2020-01-12T13:13:38.000Z</time>
      </trkpt>
      <trkpt lat="43.59529" lon="0.50666">
        <ele>204</ele>
        <time>2020-01-12T13:13:40.000Z</time>
      </trkpt>
      <trkpt lat="43.59529" lon="0.50666">
        <ele>204</ele>
        <time>2020-01-12T13:13:42.000Z</time>
      </trkpt>
      <trkpt lat="43.59528" lon="0.50666">
        <ele>204</ele>
        <time>2020-01-12T13:13:44.000Z</time>
      </trkpt>
      <trkpt lat="43.59528" lon="0.50666">
        <ele>204</ele>
        <time>2020-01-12T13:13:46.000Z</time>
      </trkpt>
      <trkpt lat="43.59527" lon="0.50666">
        <ele>204</ele>
        <time>2020-01-12T13:13:48.000Z</time>
      </trkpt>
      <trkpt lat="43.59527" lon="0.50666">
        <ele>204</ele>
        <time>2020-01-12T13:13:50.000Z</time>
      </trkpt>
      <trkpt lat="43.59527" lon="0.50666">
        <ele>204</ele>
        <time>2020-01-12T13:13:52.000Z</time>
      </trkpt>
      <trkpt lat="43.59527" lon="0.50665">
        <ele>204</ele>
        <time>2020-01-12T13:13:54.000Z</time>
      </trkpt>
      <trkpt lat="43.59527" lon="0.50666">
        <ele>204</ele>
        <time>2020-01-12T13:13:56.000Z</time>
      </trkpt>
      <trkpt lat="43.59525" lon="0.50666">
        <ele>204</ele>
        <time>2020-01-12T13:13:58.000Z</time>
      </trkpt>
      <trkpt lat="43.59524" lon="0.50666">
        <ele>204</ele>
        <time>2020-01-12T13:14:00.000Z</time>
      </trkpt>
      <trkpt lat="43.59522" lon="0.50666">
        <ele>204</ele>
        <time>2020-01-12T13:14:02.000Z</time>
      </trkpt>
      <trkpt lat="43.5952" lon="0.50665">
        <ele>204</ele>
        <time>2020-01-12T13:14:04.000Z</time>
      </trkpt>
      <trkpt lat="43.59518" lon="0.50665">
        <ele>204</ele>
        <time>2020-01-12T13:14:06.000Z</time>
      </trkpt>
      <trkpt lat="43.59517" lon="0.50664">
        <ele>203</ele>
        <time>2020-01-12T13:14:08.000Z</time>
      </trkpt>
      <trkpt lat="43.59516" lon="0.50664">
        <ele>203</ele>
        <time>2020-01-12T13:14:10.000Z</time>
      </trkpt>
      <trkpt lat="43.59517" lon="0.50664">
        <ele>203</ele>
        <time>2020-01-12T13:14:12.000Z</time>
      </trkpt>
      <trkpt lat="43.59517" lon="0.50664">
        <ele>203</ele>
        <time>2020-01-12T13:14:14.000Z</time>
      </trkpt>
      <trkpt lat="43.59516" lon="0.50663">
        <ele>203</ele>
        <time>2020-01-12T13:14:16.000Z</time>
      </trkpt>
      <trkpt lat="43.59515" lon="0.50662">
        <ele>203</ele>
        <time>2020-01-12T13:14:18.000Z</time>
      </trkpt>
      <trkpt lat="43.59513" lon="0.50663">
        <ele>203</ele>
        <time>2020-01-12T13:14:20.000Z</time>
      </trkpt>
      <trkpt lat="43.59511" lon="0.50662">
        <ele>203</ele>
        <time>2020-01-12T13:14:22.000Z</time>
      </trkpt>
      <trkpt lat="43.59511" lon="0.5066">
        <ele>203</ele>
        <time>2020-01-12T13:14:24.000Z</time>
      </trkpt>
      <trkpt lat="43.59511" lon="0.5066">
        <ele>203</ele>
        <time>2020-01-12T13:14:26.000Z</time>
      </trkpt>
      <trkpt lat="43.59511" lon="0.5066">
        <ele>203</ele>
        <time>2020-01-12T13:14:28.000Z</time>
      </trkpt>
      <trkpt lat="43.5951" lon="0.50659">
        <ele>203</ele>
        <time>2020-01-12T13:14:30.000Z</time>
      </trkpt>
      <trkpt lat="43.59509" lon="0.50659">
        <ele>203</ele>
        <time>2020-01-12T13:14:32.000Z</time>
      </trkpt>
      <trkpt lat="43.59507" lon="0.50658">
        <ele>203</ele>
        <time>2020-01-12T13:14:34.000Z</time>
      </trkpt>
      <trkpt lat="43.59505" lon="0.50659">
        <ele>203</ele>
        <time>2020-01-12T13:14:36.000Z</time>
      </trkpt>
      <trkpt lat="43.59503" lon="0.50658">
        <ele>203</ele>
        <time>2020-01-12T13:14:38.000Z</time>
      </trkpt>
      <trkpt lat="43.59502" lon="0.50658">
        <ele>203</ele>
        <time>2020-01-12T13:14:40.000Z</time>
      </trkpt>
      <trkpt lat="43.595" lon="0.50657">
        <ele>203</ele>
        <time>2020-01-12T13:14:42.000Z</time>
      </trkpt>
      <trkpt lat="43.59498" lon="0.50656">
        <ele>203</ele>
        <time>2020-01-12T13:14:44.000Z</time>
      </trkpt>
      <trkpt lat="43.59497" lon="0.50655">
        <ele>203</ele>
        <time>2020-01-12T13:14:46.000Z</time>
      </trkpt>
      <trkpt lat="43.59495" lon="0.50654">
        <ele>203</ele>
        <time>2020-01-12T13:14:48.000Z</time>
      </trkpt>
      <trkpt lat="43.59493" lon="0.50654">
        <ele>203</ele>
        <time>2020-01-12T13:14:50.000Z</time>
      </trkpt>
      <trkpt lat="43.59491" lon="0.50652">
        <ele>203</ele>
        <time>2020-01-12T13:14:52.000Z</time>
      </trkpt>
      <trkpt lat="43.59489" lon="0.50652">
        <ele>203</ele>
        <time>2020-01-12T13:14:54.000Z</time>
      </trkpt>
      <trkpt lat="43.59487" lon="0.50652">
        <ele>203</ele>
        <time>2020-01-12T13:14:56.000Z</time>
      </trkpt>
      <trkpt lat="43.59485" lon="0.50652">
        <ele>203</ele>
        <time>2020-01-12T13:14:58.000Z</time>
      </trkpt>
      <trkpt lat="43.59483" lon="0.50651">
        <ele>203</ele>
        <time>2020-01-12T13:15:00.000Z</time>
      </trkpt>
      <trkpt lat="43.59481" lon="0.50651">
        <ele>203</ele>
        <time>2020-01-12T13:15:02.000Z</time>
      </trkpt>
      <trkpt lat="43.5948" lon="0.50649">
        <ele>203</ele>
        <time>2020-01-12T13:15:04.000Z</time>
      </trkpt>
      <trkpt lat="43.59478" lon="0.50649">
        <ele>203</ele>
        <time>2020-01-12T13:15:06.000Z</time>
      </trkpt>
      <trkpt lat="43.59476" lon="0.50649">
        <ele>203</ele>
        <time>2020-01-12T13:15:08.000Z</time>
      </trkpt>
      <trkpt lat="43.59475" lon="0.50649">
        <ele>203</ele>
        <time>2020-01-12T13:15:10.000Z</time>
      </trkpt>
      <trkpt lat="43.59473" lon="0.50649">
        <ele>203</ele>
        <time>2020-01-12T13:15:12.000Z</time>
      </trkpt>
      <trkpt lat="43.59471" lon="0.50649">
        <ele>203</ele>
        <time>2020-01-12T13:15:14.000Z</time>
      </trkpt>
      <trkpt lat="43.5947" lon="0.50651">
        <ele>203</ele>
        <time>2020-01-12T13:15:16.000Z</time>
      </trkpt>
      <trkpt lat="43.59469" lon="0.50651">
        <ele>203</ele>
        <time>2020-01-12T13:15:18.000Z</time>
      </trkpt>
      <trkpt lat="43.59469" lon="0.50652">
        <ele>203</ele>
        <time>2020-01-12T13:15:20.000Z</time>
      </trkpt>
      <trkpt lat="43.5947" lon="0.50651">
        <ele>203</ele>
        <time>2020-01-12T13:15:22.000Z</time>
      </trkpt>
      <trkpt lat="43.59471" lon="0.5065">
        <ele>203</ele>
        <time>2020-01-12T13:15:24.000Z</time>
      </trkpt>
      <trkpt lat="43.59471" lon="0.5065">
        <ele>203</ele>
        <time>2020-01-12T13:15:26.000Z</time>
      </trkpt>
      <trkpt lat="43.5947" lon="0.50651">
        <ele>203</ele>
        <time>2020-01-12T13:15:28.000Z</time>
      </trkpt>
      <trkpt lat="43.59468" lon="0.50651">
        <ele>203</ele>
        <time>2020-01-12T13:15:30.000Z</time>
      </trkpt>
      <trkpt lat="43.59466" lon="0.50651">
        <ele>203</ele>
        <time>2020-01-12T13:15:32.000Z</time>
      </trkpt>
      <trkpt lat="43.59464" lon="0.50652">
        <ele>204</ele>
        <time>2020-01-12T13:15:34.000Z</time>
      </trkpt>
      <trkpt lat="43.59462" lon="0.50651">
        <ele>204</ele>
        <time>2020-01-12T13:15:36.000Z</time>
      </trkpt>
      <trkpt lat="43.59461" lon="0.50651">
        <ele>204</ele>
        <time>2020-01-12T13:15:38.000Z</time>
      </trkpt>
      <trkpt lat="43.59459" lon="0.50652">
        <ele>204</ele>
        <time>2020-01-12T13:15:40.000Z</time>
      </trkpt>
      <trkpt lat="43.59457" lon="0.50653">
        <ele>204</ele>
        <time>2020-01-12T13:15:42.000Z</time>
      </trkpt>
      <trkpt lat="43.59455" lon="0.50653">
        <ele>204</ele>
        <time>2020-01-12T13:15:44.000Z</time>
      </trkpt>
      <trkpt lat="43.59453" lon="0.50654">
        <ele>204</ele>
        <time>2020-01-12T13:15:46.000Z</time>
      </trkpt>
      <trkpt lat="43.59451" lon="0.50655">
        <ele>204</ele>
        <time>2020-01-12T13:15:48.000Z</time>
      </trkpt>
      <trkpt lat="43.59449" lon="0.50655">
        <ele>204</ele>
        <time>2020-01-12T13:15:50.000Z</time>
      </trkpt>
      <trkpt lat="43.59447" lon="0.50655">
        <ele>204</ele>
        <time>2020-01-12T13:15:52.000Z</time>
      </trkpt>
      <trkpt lat="43.59445" lon="0.50656">
        <ele>204</ele>
        <time>2020-01-12T13:15:54.000Z</time>
      </trkpt>
      <trkpt lat="43.59443" lon="0.50657">
        <ele>204</ele>
        <time>2020-01-12T13:15:56.000Z</time>
      </trkpt>
      <trkpt lat="43.5944" lon="0.50659">
        <ele>204</ele>
        <time>2020-01-12T13:15:58.000Z</time>
      </trkpt>
      <trkpt lat="43.59438" lon="0.5066">
        <ele>205</ele>
        <time>2020-01-12T13:16:00.000Z</time>
      </trkpt>
      <trkpt lat="43.59436" lon="0.50661">
        <ele>205</ele>
        <time>2020-01-12T13:16:02.000Z</time>
      </trkpt>
      <trkpt lat="43.59434" lon="0.50662">
        <ele>205</ele>
        <time>2020-01-12T13:16:04.000Z</time>
      </trkpt>
      <trkpt lat="43.59432" lon="0.50663">
        <ele>205</ele>
        <time>2020-01-12T13:16:06.000Z</time>
      </trkpt>
      <trkpt lat="43.5943" lon="0.50664">
        <ele>205</ele>
        <time>2020-01-12T13:16:08.000Z</time>
      </trkpt>
      <trkpt lat="43.59428" lon="0.50665">
        <ele>205</ele>
        <time>2020-01-12T13:16:10.000Z</time>
      </trkpt>
      <trkpt lat="43.59426" lon="0.50667">
        <ele>205</ele>
        <time>2020-01-12T13:16:12.000Z</time>
      </trkpt>
      <trkpt lat="43.59423" lon="0.50668">
        <ele>205</ele>
        <time>2020-01-12T13:16:14.000Z</time>
      </trkpt>
      <trkpt lat="43.59421" lon="0.50669">
        <ele>205</ele>
        <time>2020-01-12T13:16:16.000Z</time>
      </trkpt>
      <trkpt lat="43.59419" lon="0.50669">
        <ele>206</ele>
        <time>2020-01-12T13:16:18.000Z</time>
      </trkpt>
      <trkpt lat="43.59418" lon="0.5067">
        <ele>206</ele>
        <time>2020-01-12T13:16:20.000Z</time>
      </trkpt>
      <trkpt lat="43.59416" lon="0.5067">
        <ele>206</ele>
        <time>2020-01-12T13:16:22.000Z</time>
      </trkpt>
      <trkpt lat="43.59415" lon="0.50671">
        <ele>206</ele>
        <time>2020-01-12T13:16:24.000Z</time>
      </trkpt>
      <trkpt lat="43.59413" lon="0.50672">
        <ele>206</ele>
        <time>2020-01-12T13:16:26.000Z</time>
      </trkpt>
      <trkpt lat="43.59412" lon="0.50672">
        <ele>206</ele>
        <time>2020-01-12T13:16:28.000Z</time>
      </trkpt>
      <trkpt lat="43.5941" lon="0.50673">
        <ele>206</ele>
        <time>2020-01-12T13:16:30.000Z</time>
      </trkpt>
      <trkpt lat="43.59408" lon="0.50674">
        <ele>206</ele>
        <time>2020-01-12T13:16:32.000Z</time>
      </trkpt>
      <trkpt lat="43.59406" lon="0.50674">
        <ele>206</ele>
        <time>2020-01-12T13:16:34.000Z</time>
      </trkpt>
      <trkpt lat="43.59404" lon="0.50675">
        <ele>206</ele>
        <time>2020-01-12T13:16:36.000Z</time>
      </trkpt>
      <trkpt lat="43.59402" lon="0.50676">
        <ele>206</ele>
        <time>2020-01-12T13:16:38.000Z</time>
      </trkpt>
      <trkpt lat="43.594" lon="0.50677">
        <ele>206</ele>
        <time>2020-01-12T13:16:40.000Z</time>
      </trkpt>
      <trkpt lat="43.59398" lon="0.50678">
        <ele>207</ele>
        <time>2020-01-12T13:16:42.000Z</time>
      </trkpt>
      <trkpt lat="43.59396" lon="0.50679">
        <ele>207</ele>
        <time>2020-01-12T13:16:44.000Z</time>
      </trkpt>
      <trkpt lat="43.59394" lon="0.50679">
        <ele>207</ele>
        <time>2020-01-12T13:16:46.000Z</time>
      </trkpt>
      <trkpt lat="43.59393" lon="0.50679">
        <ele>207</ele>
        <time>2020-01-12T13:16:48.000Z</time>
      </trkpt>
      <trkpt lat="43.5939" lon="0.5068">
        <ele>206</ele>
        <time>2020-01-12T13:16:50.000Z</time>
      </trkpt>
      <trkpt lat="43.59389" lon="0.5068">
        <ele>206</ele>
        <time>2020-01-12T13:16:52.000Z</time>
      </trkpt>
      <trkpt lat="43.59386" lon="0.5068">
        <ele>206</ele>
        <time>2020-01-12T13:16:54.000Z</time>
      </trkpt>
      <trkpt lat="43.59384" lon="0.50681">
        <ele>206</ele>
        <time>2020-01-12T13:16:56.000Z</time>
      </trkpt>
      <trkpt lat="43.59383" lon="0.50681">
        <ele>206</ele>
        <time>2020-01-12T13:16:58.000Z</time>
      </trkpt>
      <trkpt lat="43.59382" lon="0.5068">
        <ele>206</ele>
        <time>2020-01-12T13:17:00.000Z</time>
      </trkpt>
      <trkpt lat="43.59381" lon="0.5068">
        <ele>206</ele>
        <time>2020-01-12T13:17:02.000Z</time>
      </trkpt>
      <trkpt lat="43.59381" lon="0.5068">
        <ele>206</ele>
        <time>2020-01-12T13:17:04.000Z</time>
      </trkpt>
      <trkpt lat="43.5938" lon="0.50681">
        <ele>206</ele>
        <time>2020-01-12T13:17:06.000Z</time>
      </trkpt>
      <trkpt lat="43.59378" lon="0.50681">
        <ele>206</ele>
        <time>2020-01-12T13:17:08.000Z</time>
      </trkpt>
      <trkpt lat="43.59375" lon="0.50681">
        <ele>206</ele>
        <time>2020-01-12T13:17:10.000Z</time>
      </trkpt>
      <trkpt lat="43.59373" lon="0.50682">
        <ele>206</ele>
        <time>2020-01-12T13:17:12.000Z</time>
      </trkpt>
      <trkpt lat="43.59371" lon="0.50683">
        <ele>206</ele>
        <time>2020-01-12T13:17:14.000Z</time>
      </trkpt>
      <trkpt lat="43.59368" lon="0.50683">
        <ele>206</ele>
        <time>2020-01-12T13:17:16.000Z</time>
      </trkpt>
      <trkpt lat="43.59366" lon="0.50684">
        <ele>206</ele>
        <time>2020-01-12T13:17:18.000Z</time>
      </trkpt>
      <trkpt lat="43.59364" lon="0.50685">
        <ele>206</ele>
        <time>2020-01-12T13:17:20.000Z</time>
      </trkpt>
      <trkpt lat="43.59362" lon="0.50685">
        <ele>206</ele>
        <time>2020-01-12T13:17:22.000Z</time>
      </trkpt>
      <trkpt lat="43.59361" lon="0.50685">
        <ele>206</ele>
        <time>2020-01-12T13:17:24.000Z</time>
      </trkpt>
      <trkpt lat="43.59359" lon="0.50685">
        <ele>206</ele>
        <time>2020-01-12T13:17:26.000Z</time>
      </trkpt>
      <trkpt lat="43.59357" lon="0.50686">
        <ele>206</ele>
        <time>2020-01-12T13:17:28.000Z</time>
      </trkpt>
      <trkpt lat="43.59356" lon="0.50687">
        <ele>206</ele>
        <time>2020-01-12T13:17:30.000Z</time>
      </trkpt>
      <trkpt lat="43.59354" lon="0.50687">
        <ele>206</ele>
        <time>2020-01-12T13:17:32.000Z</time>
      </trkpt>
      <trkpt lat="43.59352" lon="0.50688">
        <ele>206</ele>
        <time>2020-01-12T13:17:34.000Z</time>
      </trkpt>
      <trkpt lat="43.59349" lon="0.50688">
        <ele>206</ele>
        <time>2020-01-12T13:17:36.000Z</time>
      </trkpt>
      <trkpt lat="43.59347" lon="0.50689">
        <ele>206</ele>
        <time>2020-01-12T13:17:38.000Z</time>
      </trkpt>
      <trkpt lat="43.59345" lon="0.50689">
        <ele>206</ele>
        <time>2020-01-12T13:17:40.000Z</time>
      </trkpt>
      <trkpt lat="43.59342" lon="0.5069">
        <ele>206</ele>
        <time>2020-01-12T13:17:42.000Z</time>
      </trkpt>
      <trkpt lat="43.5934" lon="0.5069">
        <ele>206</ele>
        <time>2020-01-12T13:17:44.000Z</time>
      </trkpt>
      <trkpt lat="43.59338" lon="0.50691">
        <ele>206</ele>
        <time>2020-01-12T13:17:46.000Z</time>
      </trkpt>
      <trkpt lat="43.59336" lon="0.50692">
        <ele>206</ele>
        <time>2020-01-12T13:17:48.000Z</time>
      </trkpt>
      <trkpt lat="43.59334" lon="0.50693">
        <ele>206</ele>
        <time>2020-01-12T13:17:50.000Z</time>
      </trkpt>
      <trkpt lat="43.59332" lon="0.50693">
        <ele>206</ele>
        <time>2020-01-12T13:17:52.000Z</time>
      </trkpt>
      <trkpt lat="43.59331" lon="0.50694">
        <ele>206</ele>
        <time>2020-01-12T13:17:54.000Z</time>
      </trkpt>
      <trkpt lat="43.59328" lon="0.50694">
        <ele>206</ele>
        <time>2020-01-12T13:17:56.000Z</time>
      </trkpt>
      <trkpt lat="43.59326" lon="0.50695">
        <ele>206</ele>
        <time>2020-01-12T13:17:58.000Z</time>
      </trkpt>
      <trkpt lat="43.59325" lon="0.50695">
        <ele>206</ele>
        <time>2020-01-12T13:18:00.000Z</time>
      </trkpt>
      <trkpt lat="43.59323" lon="0.50697">
        <ele>206</ele>
        <time>2020-01-12T13:18:02.000Z</time>
      </trkpt>
      <trkpt lat="43.59321" lon="0.50697">
        <ele>206</ele>
        <time>2020-01-12T13:18:04.000Z</time>
      </trkpt>
      <trkpt lat="43.59319" lon="0.50698">
        <ele>206</ele>
        <time>2020-01-12T13:18:06.000Z</time>
      </trkpt>
      <trkpt lat="43.59317" lon="0.50698">
        <ele>206</ele>
        <time>2020-01-12T13:18:08.000Z</time>
      </trkpt>
      <trkpt lat="43.59316" lon="0.50699">
        <ele>206</ele>
        <time>2020-01-12T13:18:10.000Z</time>
      </trkpt>
      <trkpt lat="43.59314" lon="0.50701">
        <ele>206</ele>
        <time>2020-01-12T13:18:12.000Z</time>
      </trkpt>
      <trkpt lat="43.59312" lon="0.50702">
        <ele>206</ele>
        <time>2020-01-12T13:18:14.000Z</time>
      </trkpt>
      <trkpt lat="43.5931" lon="0.50703">
        <ele>206</ele>
        <time>2020-01-12T13:18:16.000Z</time>
      </trkpt>
      <trkpt lat="43.59308" lon="0.50705">
        <ele>206</ele>
        <time>2020-01-12T13:18:18.000Z</time>
      </trkpt>
      <trkpt lat="43.59305" lon="0.50705">
        <ele>206</ele>
        <time>2020-01-12T13:18:20.000Z</time>
      </trkpt>
      <trkpt lat="43.59303" lon="0.50706">
        <ele>206</ele>
        <time>2020-01-12T13:18:22.000Z</time>
      </trkpt>
      <trkpt lat="43.59301" lon="0.50707">
        <ele>206</ele>
        <time>2020-01-12T13:18:24.000Z</time>
      </trkpt>
      <trkpt lat="43.593" lon="0.50709">
        <ele>205</ele>
        <time>2020-01-12T13:18:26.000Z</time>
      </trkpt>
      <trkpt lat="43.59299" lon="0.5071">
        <ele>205</ele>
        <time>2020-01-12T13:18:28.000Z</time>
      </trkpt>
      <trkpt lat="43.59298" lon="0.50711">
        <ele>205</ele>
        <time>2020-01-12T13:18:30.000Z</time>
      </trkpt>
      <trkpt lat="43.59297" lon="0.50711">
        <ele>205</ele>
        <time>2020-01-12T13:18:32.000Z</time>
      </trkpt>
      <trkpt lat="43.59296" lon="0.50713">
        <ele>205</ele>
        <time>2020-01-12T13:18:34.000Z</time>
      </trkpt>
      <trkpt lat="43.59293" lon="0.50714">
        <ele>205</ele>
        <time>2020-01-12T13:18:36.000Z</time>
      </trkpt>
      <trkpt lat="43.59292" lon="0.50715">
        <ele>205</ele>
        <time>2020-01-12T13:18:38.000Z</time>
      </trkpt>
      <trkpt lat="43.5929" lon="0.50716">
        <ele>205</ele>
        <time>2020-01-12T13:18:40.000Z</time>
      </trkpt>
      <trkpt lat="43.59288" lon="0.50717">
        <ele>205</ele>
        <time>2020-01-12T13:18:42.000Z</time>
      </trkpt>
      <trkpt lat="43.59286" lon="0.50718">
        <ele>205</ele>
        <time>2020-01-12T13:18:44.000Z</time>
      </trkpt>
      <trkpt lat="43.59284" lon="0.50719">
        <ele>206</ele>
        <time>2020-01-12T13:18:46.000Z</time>
      </trkpt>
      <trkpt lat="43.59282" lon="0.5072">
        <ele>206</ele>
        <time>2020-01-12T13:18:48.000Z</time>
      </trkpt>
      <trkpt lat="43.59281" lon="0.50722">
        <ele>206</ele>
        <time>2020-01-12T13:18:50.000Z</time>
      </trkpt>
      <trkpt lat="43.59278" lon="0.50722">
        <ele>206</ele>
        <time>2020-01-12T13:18:52.000Z</time>
      </trkpt>
      <trkpt lat="43.59277" lon="0.50723">
        <ele>206</ele>
        <time>2020-01-12T13:18:54.000Z</time>
      </trkpt>
      <trkpt lat="43.59275" lon="0.50724">
        <ele>206</ele>
        <time>2020-01-12T13:18:56.000Z</time>
      </trkpt>
      <trkpt lat="43.59274" lon="0.50726">
        <ele>206</ele>
        <time>2020-01-12T13:18:58.000Z</time>
      </trkpt>
      <trkpt lat="43.59272" lon="0.50727">
        <ele>206</ele>
        <time>2020-01-12T13:19:00.000Z</time>
      </trkpt>
      <trkpt lat="43.59271" lon="0.50729">
        <ele>206</ele>
        <time>2020-01-12T13:19:02.000Z</time>
      </trkpt>
      <trkpt lat="43.59269" lon="0.5073">
        <ele>206</ele>
        <time>2020-01-12T13:19:04.000Z</time>
      </trkpt>
      <trkpt lat="43.59268" lon="0.50731">
        <ele>206</ele>
        <time>2020-01-12T13:19:06.000Z</time>
      </trkpt>
      <trkpt lat="43.59266" lon="0.50732">
        <ele>206</ele>
        <time>2020-01-12T13:19:08.000Z</time>
      </trkpt>
      <trkpt lat="43.59265" lon="0.50734">
        <ele>206</ele>
        <time>2020-01-12T13:19:10.000Z</time>
      </trkpt>
      <trkpt lat="43.59263" lon="0.50735">
        <ele>206</ele>
        <time>2020-01-12T13:19:12.000Z</time>
      </trkpt>
      <trkpt lat="43.59262" lon="0.50736">
        <ele>206</ele>
        <time>2020-01-12T13:19:14.000Z</time>
      </trkpt>
      <trkpt lat="43.5926" lon="0.50738">
        <ele>206</ele>
        <time>2020-01-12T13:19:16.000Z</time>
      </trkpt>
      <trkpt lat="43.59258" lon="0.50739">
        <ele>207</ele>
        <time>2020-01-12T13:19:18.000Z</time>
      </trkpt>
      <trkpt lat="43.59256" lon="0.5074">
        <ele>207</ele>
        <time>2020-01-12T13:19:20.000Z</time>
      </trkpt>
      <trkpt lat="43.59254" lon="0.50741">
        <ele>207</ele>
        <time>2020-01-12T13:19:22.000Z</time>
      </trkpt>
      <trkpt lat="43.59252" lon="0.50742">
        <ele>207</ele>
        <time>2020-01-12T13:19:24.000Z</time>
      </trkpt>
      <trkpt lat="43.59251" lon="0.50744">
        <ele>207</ele>
        <time>2020-01-12T13:19:26.000Z</time>
      </trkpt>
      <trkpt lat="43.59249" lon="0.50745">
        <ele>207</ele>
        <time>2020-01-12T13:19:28.000Z</time>
      </trkpt>
      <trkpt lat="43.59248" lon="0.50747">
        <ele>207</ele>
        <time>2020-01-12T13:19:30.000Z</time>
      </trkpt>
      <trkpt lat="43.59246" lon="0.50748">
        <ele>207</ele>
        <time>2020-01-12T13:19:32.000Z</time>
      </trkpt>
      <trkpt lat="43.59244" lon="0.50749">
        <ele>207</ele>
        <time>2020-01-12T13:19:34.000Z</time>
      </trkpt>
      <trkpt lat="43.59243" lon="0.5075">
        <ele>208</ele>
        <time>2020-01-12T13:19:36.000Z</time>
      </trkpt>
      <trkpt lat="43.59241" lon="0.50751">
        <ele>208</ele>
        <time>2020-01-12T13:19:38.000Z</time>
      </trkpt>
      <trkpt lat="43.59239" lon="0.50752">
        <ele>208</ele>
        <time>2020-01-12T13:19:40.000Z</time>
      </trkpt>
      <trkpt lat="43.59237" lon="0.50753">
        <ele>208</ele>
        <time>2020-01-12T13:19:42.000Z</time>
      </trkpt>
      <trkpt lat="43.59236" lon="0.50754">
        <ele>208</ele>
        <time>2020-01-12T13:19:44.000Z</time>
      </trkpt>
      <trkpt lat="43.59236" lon="0.50754">
        <ele>208</ele>
        <time>2020-01-12T13:19:46.000Z</time>
      </trkpt>
      <trkpt lat="43.59235" lon="0.50755">
        <ele>208</ele>
        <time>2020-01-12T13:19:48.000Z</time>
      </trkpt>
      <trkpt lat="43.59233" lon="0.50756">
        <ele>208</ele>
        <time>2020-01-12T13:19:50.000Z</time>
      </trkpt>
      <trkpt lat="43.59231" lon="0.50757">
        <ele>208</ele>
        <time>2020-01-12T13:19:52.000Z</time>
      </trkpt>
      <trkpt lat="43.59229" lon="0.50757">
        <ele>208</ele>
        <time>2020-01-12T13:19:54.000Z</time>
      </trkpt>
      <trkpt lat="43.59227" lon="0.50759">
        <ele>209</ele>
        <time>2020-01-12T13:19:56.000Z</time>
      </trkpt>
      <trkpt lat="43.59225" lon="0.50761">
        <ele>208</ele>
        <time>2020-01-12T13:19:58.000Z</time>
      </trkpt>
      <trkpt lat="43.59224" lon="0.50762">
        <ele>208</ele>
        <time>2020-01-12T13:20:00.000Z</time>
      </trkpt>
      <trkpt lat="43.59221" lon="0.50764">
        <ele>208</ele>
        <time>2020-01-12T13:20:02.000Z</time>
      </trkpt>
      <trkpt lat="43.5922" lon="0.50765">
        <ele>208</ele>
        <time>2020-01-12T13:20:04.000Z</time>
      </trkpt>
      <trkpt lat="43.59218" lon="0.50766">
        <ele>208</ele>
        <time>2020-01-12T13:20:06.000Z</time>
      </trkpt>
      <trkpt lat="43.59216" lon="0.50767">
        <ele>208</ele>
        <time>2020-01-12T13:20:08.000Z</time>
      </trkpt>
      <trkpt lat="43.59214" lon="0.50769">
        <ele>208</ele>
        <time>2020-01-12T13:20:10.000Z</time>
      </trkpt>
      <trkpt lat="43.59213" lon="0.50769">
        <ele>208</ele>
        <time>2020-01-12T13:20:12.000Z</time>
      </trkpt>
      <trkpt lat="43.59213" lon="0.5077">
        <ele>208</ele>
        <time>2020-01-12T13:20:14.000Z</time>
      </trkpt>
      <trkpt lat="43.59213" lon="0.50771">
        <ele>208</ele>
        <time>2020-01-12T13:20:16.000Z</time>
      </trkpt>
      <trkpt lat="43.59214" lon="0.50772">
        <ele>208</ele>
        <time>2020-01-12T13:20:18.000Z</time>
      </trkpt>
      <trkpt lat="43.59214" lon="0.50774">
        <ele>208</ele>
        <time>2020-01-12T13:20:20.000Z</time>
      </trkpt>
      <trkpt lat="43.59213" lon="0.50775">
        <ele>208</ele>
        <time>2020-01-12T13:20:22.000Z</time>
      </trkpt>
      <trkpt lat="43.59213" lon="0.50777">
        <ele>208</ele>
        <time>2020-01-12T13:20:24.000Z</time>
      </trkpt>
      <trkpt lat="43.59213" lon="0.5078">
        <ele>208</ele>
        <time>2020-01-12T13:20:26.000Z</time>
      </trkpt>
      <trkpt lat="43.59213" lon="0.50782">
        <ele>208</ele>
        <time>2020-01-12T13:20:28.000Z</time>
      </trkpt>
      <trkpt lat="43.59213" lon="0.50784">
        <ele>208</ele>
        <time>2020-01-12T13:20:30.000Z</time>
      </trkpt>
      <trkpt lat="43.59213" lon="0.50786">
        <ele>208</ele>
        <time>2020-01-12T13:20:32.000Z</time>
      </trkpt>
      <trkpt lat="43.59213" lon="0.50789">
        <ele>208</ele>
        <time>2020-01-12T13:20:34.000Z</time>
      </trkpt>
      <trkpt lat="43.59213" lon="0.50791">
        <ele>208</ele>
        <time>2020-01-12T13:20:36.000Z</time>
      </trkpt>
      <trkpt lat="43.59213" lon="0.50793">
        <ele>208</ele>
        <time>2020-01-12T13:20:38.000Z</time>
      </trkpt>
      <trkpt lat="43.59214" lon="0.50796">
        <ele>208</ele>
        <time>2020-01-12T13:20:40.000Z</time>
      </trkpt>
      <trkpt lat="43.59214" lon="0.50798">
        <ele>208</ele>
        <time>2020-01-12T13:20:42.000Z</time>
      </trkpt>
      <trkpt lat="43.59215" lon="0.50801">
        <ele>208</ele>
        <time>2020-01-12T13:20:44.000Z</time>
      </trkpt>
      <trkpt lat="43.59215" lon="0.50804">
        <ele>209</ele>
        <time>2020-01-12T13:20:46.000Z</time>
      </trkpt>
      <trkpt lat="43.59216" lon="0.50806">
        <ele>209</ele>
        <time>2020-01-12T13:20:48.000Z</time>
      </trkpt>
      <trkpt lat="43.59216" lon="0.50808">
        <ele>209</ele>
        <time>2020-01-12T13:20:50.000Z</time>
      </trkpt>
      <trkpt lat="43.59217" lon="0.50811">
        <ele>210</ele>
        <time>2020-01-12T13:20:52.000Z</time>
      </trkpt>
      <trkpt lat="43.59217" lon="0.50813">
        <ele>210</ele>
        <time>2020-01-12T13:20:54.000Z</time>
      </trkpt>
      <trkpt lat="43.59217" lon="0.50815">
        <ele>210</ele>
        <time>2020-01-12T13:20:56.000Z</time>
      </trkpt>
      <trkpt lat="43.59217" lon="0.50817">
        <ele>210</ele>
        <time>2020-01-12T13:20:58.000Z</time>
      </trkpt>
      <trkpt lat="43.59217" lon="0.5082">
        <ele>211</ele>
        <time>2020-01-12T13:21:00.000Z</time>
      </trkpt>
      <trkpt lat="43.59217" lon="0.50822">
        <ele>211</ele>
        <time>2020-01-12T13:21:02.000Z</time>
      </trkpt>
      <trkpt lat="43.59218" lon="0.50824">
        <ele>211</ele>
        <time>2020-01-12T13:21:04.000Z</time>
      </trkpt>
      <trkpt lat="43.59218" lon="0.50827">
        <ele>212</ele>
        <time>2020-01-12T13:21:06.000Z</time>
      </trkpt>
      <trkpt lat="43.59218" lon="0.50829">
        <ele>212</ele>
        <time>2020-01-12T13:21:08.000Z</time>
      </trkpt>
      <trkpt lat="43.59219" lon="0.50832">
        <ele>212</ele>
        <time>2020-01-12T13:21:10.000Z</time>
      </trkpt>
      <trkpt lat="43.59219" lon="0.50834">
        <ele>213</ele>
        <time>2020-01-12T13:21:12.000Z</time>
      </trkpt>
      <trkpt lat="43.59219" lon="0.50836">
        <ele>213</ele>
        <time>2020-01-12T13:21:14.000Z</time>
      </trkpt>
      <trkpt lat="43.59218" lon="0.50839">
        <ele>213</ele>
        <time>2020-01-12T13:21:16.000Z</time>
      </trkpt>
      <trkpt lat="43.59218" lon="0.50841">
        <ele>213</ele>
        <time>2020-01-12T13:21:18.000Z</time>
      </trkpt>
      <trkpt lat="43.59218" lon="0.50843">
        <ele>213</ele>
        <time>2020-01-12T13:21:20.000Z</time>
      </trkpt>
      <trkpt lat="43.59217" lon="0.50845">
        <ele>214</ele>
        <time>2020-01-12T13:21:22.000Z</time>
      </trkpt>
      <trkpt lat="43.59217" lon="0.50846">
        <ele>214</ele>
        <time>2020-01-12T13:21:24.000Z</time>
      </trkpt>
      <trkpt lat="43.59217" lon="0.50846">
        <ele>214</ele>
        <time>2020-01-12T13:21:26.000Z</time>
      </trkpt>
      <trkpt lat="43.59217" lon="0.50846">
        <ele>214</ele>
        <time>2020-01-12T13:21:28.000Z</time>
      </trkpt>
      <trkpt lat="43.59217" lon="0.50847">
        <ele>214</ele>
        <time>2020-01-12T13:21:30.000Z</time>
      </trkpt>
      <trkpt lat="43.59217" lon="0.50847">
        <ele>214</ele>
        <time>2020-01-12T13:21:32.000Z</time>
      </trkpt>
      <trkpt lat="43.59218" lon="0.50846">
        <ele>214</ele>
        <time>2020-01-12T13:21:34.000Z</time>
      </trkpt>
      <trkpt lat="43.59218" lon="0.50845">
        <ele>214</ele>
        <time>2020-01-12T13:21:36.000Z</time>
      </trkpt>
      <trkpt lat="43.59218" lon="0.50845">
        <ele>214</ele>
        <time>2020-01-12T13:21:38.000Z</time>
      </trkpt>
      <trkpt lat="43.59218" lon="0.50845">
        <ele>214</ele>
        <time>2020-01-12T13:21:40.000Z</time>
      </trkpt>
      <trkpt lat="43.59218" lon="0.50844">
        <ele>214</ele>
        <time>2020-01-12T13:21:42.000Z</time>
      </trkpt>
      <trkpt lat="43.59219" lon="0.50844">
        <ele>214</ele>
        <time>2020-01-12T13:21:44.000Z</time>
      </trkpt>
      <trkpt lat="43.59219" lon="0.50843">
        <ele>214</ele>
        <time>2020-01-12T13:21:46.000Z</time>
      </trkpt>
      <trkpt lat="43.59219" lon="0.50843">
        <ele>214</ele>
        <time>2020-01-12T13:21:48.000Z</time>
      </trkpt>
      <trkpt lat="43.59219" lon="0.50843">
        <ele>214</ele>
        <time>2020-01-12T13:21:50.000Z</time>
      </trkpt>
      <trkpt lat="43.59219" lon="0.50844">
        <ele>214</ele>
        <time>2020-01-12T13:21:52.000Z</time>
      </trkpt>
      <trkpt lat="43.59219" lon="0.50844">
        <ele>214</ele>
        <time>2020-01-12T13:21:54.000Z</time>
      </trkpt>
      <trkpt lat="43.59218" lon="0.50846">
        <ele>214</ele>
        <time>2020-01-12T13:21:56.000Z</time>
      </trkpt>
      <trkpt lat="43.59217" lon="0.50848">
        <ele>214</ele>
        <time>2020-01-12T13:21:58.000Z</time>
      </trkpt>
      <trkpt lat="43.59216" lon="0.5085">
        <ele>214</ele>
        <time>2020-01-12T13:22:00.000Z</time>
      </trkpt>
      <trkpt lat="43.59216" lon="0.50852">
        <ele>214</ele>
        <time>2020-01-12T13:22:02.000Z</time>
      </trkpt>
      <trkpt lat="43.59216" lon="0.50855">
        <ele>214</ele>
        <time>2020-01-12T13:22:04.000Z</time>
      </trkpt>
      <trkpt lat="43.59216" lon="0.50858">
        <ele>215</ele>
        <time>2020-01-12T13:22:06.000Z</time>
      </trkpt>
      <trkpt lat="43.59216" lon="0.5086">
        <ele>215</ele>
        <time>2020-01-12T13:22:08.000Z</time>
      </trkpt>
      <trkpt lat="43.59216" lon="0.50862">
        <ele>215</ele>
        <time>2020-01-12T13:22:10.000Z</time>
      </trkpt>
      <trkpt lat="43.59216" lon="0.50865">
        <ele>215</ele>
        <time>2020-01-12T13:22:12.000Z</time>
      </trkpt>
      <trkpt lat="43.59216" lon="0.50868">
        <ele>216</ele>
        <time>2020-01-12T13:22:14.000Z</time>
      </trkpt>
      <trkpt lat="43.59217" lon="0.5087">
        <ele>216</ele>
        <time>2020-01-12T13:22:16.000Z</time>
      </trkpt>
      <trkpt lat="43.59217" lon="0.50872">
        <ele>216</ele>
        <time>2020-01-12T13:22:18.000Z</time>
      </trkpt>
      <trkpt lat="43.59217" lon="0.50875">
        <ele>216</ele>
        <time>2020-01-12T13:22:20.000Z</time>
      </trkpt>
      <trkpt lat="43.59217" lon="0.50877">
        <ele>217</ele>
        <time>2020-01-12T13:22:22.000Z</time>
      </trkpt>
      <trkpt lat="43.59217" lon="0.5088">
        <ele>217</ele>
        <time>2020-01-12T13:22:24.000Z</time>
      </trkpt>
      <trkpt lat="43.59217" lon="0.50882">
        <ele>217</ele>
        <time>2020-01-12T13:22:26.000Z</time>
      </trkpt>
      <trkpt lat="43.59217" lon="0.50884">
        <ele>217</ele>
        <time>2020-01-12T13:22:28.000Z</time>
      </trkpt>
      <trkpt lat="43.59217" lon="0.50887">
        <ele>218</ele>
        <time>2020-01-12T13:22:30.000Z</time>
      </trkpt>
      <trkpt lat="43.59217" lon="0.50889">
        <ele>218</ele>
        <time>2020-01-12T13:22:32.000Z</time>
      </trkpt>
      <trkpt lat="43.59217" lon="0.50891">
        <ele>218</ele>
        <time>2020-01-12T13:22:34.000Z</time>
      </trkpt>
      <trkpt lat="43.59217" lon="0.50893">
        <ele>219</ele>
        <time>2020-01-12T13:22:36.000Z</time>
      </trkpt>
      <trkpt lat="43.59217" lon="0.50895">
        <ele>219</ele>
        <time>2020-01-12T13:22:38.000Z</time>
      </trkpt>
      <trkpt lat="43.59217" lon="0.50896">
        <ele>219</ele>
        <time>2020-01-12T13:22:40.000Z</time>
      </trkpt>
      <trkpt lat="43.59217" lon="0.50899">
        <ele>219</ele>
        <time>2020-01-12T13:22:42.000Z</time>
      </trkpt>
      <trkpt lat="43.59217" lon="0.50902">
        <ele>220</ele>
        <time>2020-01-12T13:22:44.000Z</time>
      </trkpt>
      <trkpt lat="43.59217" lon="0.50904">
        <ele>220</ele>
        <time>2020-01-12T13:22:46.000Z</time>
      </trkpt>
      <trkpt lat="43.59216" lon="0.50906">
        <ele>220</ele>
        <time>2020-01-12T13:22:48.000Z</time>
      </trkpt>
      <trkpt lat="43.59215" lon="0.50908">
        <ele>220</ele>
        <time>2020-01-12T13:22:50.000Z</time>
      </trkpt>
      <trkpt lat="43.59214" lon="0.50909">
        <ele>220</ele>
        <time>2020-01-12T13:22:52.000Z</time>
      </trkpt>
      <trkpt lat="43.59213" lon="0.50911">
        <ele>221</ele>
        <time>2020-01-12T13:22:54.000Z</time>
      </trkpt>
      <trkpt lat="43.59212" lon="0.50913">
        <ele>221</ele>
        <time>2020-01-12T13:22:56.000Z</time>
      </trkpt>
      <trkpt lat="43.59211" lon="0.50915">
        <ele>221</ele>
        <time>2020-01-12T13:22:58.000Z</time>
      </trkpt>
      <trkpt lat="43.59211" lon="0.50917">
        <ele>221</ele>
        <time>2020-01-12T13:23:00.000Z</time>
      </trkpt>
      <trkpt lat="43.5921" lon="0.50918">
        <ele>221</ele>
        <time>2020-01-12T13:23:02.000Z</time>
      </trkpt>
      <trkpt lat="43.59211" lon="0.5092">
        <ele>222</ele>
        <time>2020-01-12T13:23:04.000Z</time>
      </trkpt>
      <trkpt lat="43.59211" lon="0.50923">
        <ele>222</ele>
        <time>2020-01-12T13:23:06.000Z</time>
      </trkpt>
      <trkpt lat="43.59211" lon="0.50925">
        <ele>222</ele>
        <time>2020-01-12T13:23:08.000Z</time>
      </trkpt>
      <trkpt lat="43.5921" lon="0.50927">
        <ele>222</ele>
        <time>2020-01-12T13:23:10.000Z</time>
      </trkpt>
      <trkpt lat="43.5921" lon="0.5093">
        <ele>223</ele>
        <time>2020-01-12T13:23:12.000Z</time>
      </trkpt>
      <trkpt lat="43.59209" lon="0.50932">
        <ele>223</ele>
        <time>2020-01-12T13:23:14.000Z</time>
      </trkpt>
      <trkpt lat="43.59208" lon="0.50935">
        <ele>223</ele>
        <time>2020-01-12T13:23:16.000Z</time>
      </trkpt>
      <trkpt lat="43.59207" lon="0.50937">
        <ele>223</ele>
        <time>2020-01-12T13:23:18.000Z</time>
      </trkpt>
      <trkpt lat="43.59205" lon="0.50939">
        <ele>223</ele>
        <time>2020-01-12T13:23:20.000Z</time>
      </trkpt>
      <trkpt lat="43.59205" lon="0.5094">
        <ele>223</ele>
        <time>2020-01-12T13:23:22.000Z</time>
      </trkpt>
      <trkpt lat="43.59204" lon="0.50942">
        <ele>224</ele>
        <time>2020-01-12T13:23:24.000Z</time>
      </trkpt>
      <trkpt lat="43.59203" lon="0.50944">
        <ele>224</ele>
        <time>2020-01-12T13:23:26.000Z</time>
      </trkpt>
      <trkpt lat="43.59202" lon="0.50945">
        <ele>224</ele>
        <time>2020-01-12T13:23:28.000Z</time>
      </trkpt>
      <trkpt lat="43.59202" lon="0.50947">
        <ele>224</ele>
        <time>2020-01-12T13:23:30.000Z</time>
      </trkpt>
      <trkpt lat="43.59201" lon="0.50949">
        <ele>224</ele>
        <time>2020-01-12T13:23:32.000Z</time>
      </trkpt>
      <trkpt lat="43.592" lon="0.50951">
        <ele>224</ele>
        <time>2020-01-12T13:23:34.000Z</time>
      </trkpt>
      <trkpt lat="43.59199" lon="0.50953">
        <ele>225</ele>
        <time>2020-01-12T13:23:36.000Z</time>
      </trkpt>
      <trkpt lat="43.59197" lon="0.50956">
        <ele>225</ele>
        <time>2020-01-12T13:23:38.000Z</time>
      </trkpt>
      <trkpt lat="43.59196" lon="0.50959">
        <ele>225</ele>
        <time>2020-01-12T13:23:40.000Z</time>
      </trkpt>
      <trkpt lat="43.59196" lon="0.50961">
        <ele>225</ele>
        <time>2020-01-12T13:23:42.000Z</time>
      </trkpt>
      <trkpt lat="43.59194" lon="0.50964">
        <ele>225</ele>
        <time>2020-01-12T13:23:44.000Z</time>
      </trkpt>
      <trkpt lat="43.59194" lon="0.50966">
        <ele>226</ele>
        <time>2020-01-12T13:23:46.000Z</time>
      </trkpt>
      <trkpt lat="43.59193" lon="0.5097">
        <ele>226</ele>
        <time>2020-01-12T13:23:48.000Z</time>
      </trkpt>
      <trkpt lat="43.59192" lon="0.50972">
        <ele>226</ele>
        <time>2020-01-12T13:23:50.000Z</time>
      </trkpt>
      <trkpt lat="43.59191" lon="0.50975">
        <ele>226</ele>
        <time>2020-01-12T13:23:52.000Z</time>
      </trkpt>
      <trkpt lat="43.5919" lon="0.50978">
        <ele>226</ele>
        <time>2020-01-12T13:23:54.000Z</time>
      </trkpt>
      <trkpt lat="43.59189" lon="0.50981">
        <ele>226</ele>
        <time>2020-01-12T13:23:56.000Z</time>
      </trkpt>
      <trkpt lat="43.59188" lon="0.50983">
        <ele>226</ele>
        <time>2020-01-12T13:23:58.000Z</time>
      </trkpt>
      <trkpt lat="43.59187" lon="0.50987">
        <ele>227</ele>
        <time>2020-01-12T13:24:00.000Z</time>
      </trkpt>
      <trkpt lat="43.59186" lon="0.5099">
        <ele>227</ele>
        <time>2020-01-12T13:24:02.000Z</time>
      </trkpt>
      <trkpt lat="43.59185" lon="0.50993">
        <ele>227</ele>
        <time>2020-01-12T13:24:04.000Z</time>
      </trkpt>
      <trkpt lat="43.59185" lon="0.50996">
        <ele>227</ele>
        <time>2020-01-12T13:24:06.000Z</time>
      </trkpt>
      <trkpt lat="43.59184" lon="0.50998">
        <ele>227</ele>
        <time>2020-01-12T13:24:08.000Z</time>
      </trkpt>
      <trkpt lat="43.59184" lon="0.51001">
        <ele>228</ele>
        <time>2020-01-12T13:24:10.000Z</time>
      </trkpt>
      <trkpt lat="43.59183" lon="0.51003">
        <ele>228</ele>
        <time>2020-01-12T13:24:12.000Z</time>
      </trkpt>
      <trkpt lat="43.59182" lon="0.51007">
        <ele>228</ele>
        <time>2020-01-12T13:24:14.000Z</time>
      </trkpt>
      <trkpt lat="43.59181" lon="0.5101">
        <ele>229</ele>
        <time>2020-01-12T13:24:16.000Z</time>
      </trkpt>
      <trkpt lat="43.59179" lon="0.51014">
        <ele>229</ele>
        <time>2020-01-12T13:24:18.000Z</time>
      </trkpt>
      <trkpt lat="43.59177" lon="0.51017">
        <ele>230</ele>
        <time>2020-01-12T13:24:20.000Z</time>
      </trkpt>
      <trkpt lat="43.59175" lon="0.5102">
        <ele>231</ele>
        <time>2020-01-12T13:24:22.000Z</time>
      </trkpt>
      <trkpt lat="43.59173" lon="0.51024">
        <ele>231</ele>
        <time>2020-01-12T13:24:24.000Z</time>
      </trkpt>
      <trkpt lat="43.59172" lon="0.51027">
        <ele>232</ele>
        <time>2020-01-12T13:24:26.000Z</time>
      </trkpt>
      <trkpt lat="43.59171" lon="0.51031">
        <ele>232</ele>
        <time>2020-01-12T13:24:28.000Z</time>
      </trkpt>
      <trkpt lat="43.5917" lon="0.51034">
        <ele>232</ele>
        <time>2020-01-12T13:24:30.000Z</time>
      </trkpt>
      <trkpt lat="43.59169" lon="0.51038">
        <ele>232</ele>
        <time>2020-01-12T13:24:32.000Z</time>
      </trkpt>
      <trkpt lat="43.59168" lon="0.51041">
        <ele>233</ele>
        <time>2020-01-12T13:24:34.000Z</time>
      </trkpt>
      <trkpt lat="43.59168" lon="0.51045">
        <ele>233</ele>
        <time>2020-01-12T13:24:36.000Z</time>
      </trkpt>
      <trkpt lat="43.59167" lon="0.51049">
        <ele>233</ele>
        <time>2020-01-12T13:24:38.000Z</time>
      </trkpt>
      <trkpt lat="43.59166" lon="0.51052">
        <ele>233</ele>
        <time>2020-01-12T13:24:40.000Z</time>
      </trkpt>
      <trkpt lat="43.59165" lon="0.51055">
        <ele>233</ele>
        <time>2020-01-12T13:24:42.000Z</time>
      </trkpt>
      <trkpt lat="43.59163" lon="0.51057">
        <ele>233</ele>
        <time>2020-01-12T13:24:44.000Z</time>
      </trkpt>
      <trkpt lat="43.5916" lon="0.5106">
        <ele>233</ele>
        <time>2020-01-12T13:24:46.000Z</time>
      </trkpt>
      <trkpt lat="43.59159" lon="0.51063">
        <ele>233</ele>
        <time>2020-01-12T13:24:48.000Z</time>
      </trkpt>
      <trkpt lat="43.59158" lon="0.51066">
        <ele>233</ele>
        <time>2020-01-12T13:24:50.000Z</time>
      </trkpt>
      <trkpt lat="43.59156" lon="0.51068">
        <ele>233</ele>
        <time>2020-01-12T13:24:52.000Z</time>
      </trkpt>
      <trkpt lat="43.59155" lon="0.51071">
        <ele>233</ele>
        <time>2020-01-12T13:24:54.000Z</time>
      </trkpt>
      <trkpt lat="43.59152" lon="0.51074">
        <ele>234</ele>
        <time>2020-01-12T13:24:56.000Z</time>
      </trkpt>
      <trkpt lat="43.59149" lon="0.51078">
        <ele>234</ele>
        <time>2020-01-12T13:24:58.000Z</time>
      </trkpt>
      <trkpt lat="43.59147" lon="0.51081">
        <ele>234</ele>
        <time>2020-01-12T13:25:00.000Z</time>
      </trkpt>
      <trkpt lat="43.59146" lon="0.51084">
        <ele>234</ele>
        <time>2020-01-12T13:25:02.000Z</time>
      </trkpt>
      <trkpt lat="43.59144" lon="0.51087">
        <ele>234</ele>
        <time>2020-01-12T13:25:04.000Z</time>
      </trkpt>
      <trkpt lat="43.59142" lon="0.5109">
        <ele>234</ele>
        <time>2020-01-12T13:25:06.000Z</time>
      </trkpt>
      <trkpt lat="43.59139" lon="0.51094">
        <ele>234</ele>
        <time>2020-01-12T13:25:08.000Z</time>
      </trkpt>
      <trkpt lat="43.59138" lon="0.51097">
        <ele>234</ele>
        <time>2020-01-12T13:25:10.000Z</time>
      </trkpt>
      <trkpt lat="43.59136" lon="0.511">
        <ele>234</ele>
        <time>2020-01-12T13:25:12.000Z</time>
      </trkpt>
      <trkpt lat="43.59135" lon="0.51103">
        <ele>234</ele>
        <time>2020-01-12T13:25:14.000Z</time>
      </trkpt>
      <trkpt lat="43.59133" lon="0.51107">
        <ele>234</ele>
        <time>2020-01-12T13:25:16.000Z</time>
      </trkpt>
      <trkpt lat="43.5913" lon="0.51111">
        <ele>234</ele>
        <time>2020-01-12T13:25:18.000Z</time>
      </trkpt>
      <trkpt lat="43.59128" lon="0.51115">
        <ele>233</ele>
        <time>2020-01-12T13:25:20.000Z</time>
      </trkpt>
      <trkpt lat="43.59127" lon="0.5112">
        <ele>233</ele>
        <time>2020-01-12T13:25:22.000Z</time>
      </trkpt>
      <trkpt lat="43.59125" lon="0.51124">
        <ele>233</ele>
        <time>2020-01-12T13:25:24.000Z</time>
      </trkpt>
      <trkpt lat="43.59124" lon="0.51127">
        <ele>233</ele>
        <time>2020-01-12T13:25:26.000Z</time>
      </trkpt>
      <trkpt lat="43.59122" lon="0.5113">
        <ele>233</ele>
        <time>2020-01-12T13:25:28.000Z</time>
      </trkpt>
      <trkpt lat="43.5912" lon="0.51133">
        <ele>233</ele>
        <time>2020-01-12T13:25:30.000Z</time>
      </trkpt>
      <trkpt lat="43.59118" lon="0.51136">
        <ele>233</ele>
        <time>2020-01-12T13:25:32.000Z</time>
      </trkpt>
      <trkpt lat="43.59115" lon="0.51137">
        <ele>233</ele>
        <time>2020-01-12T13:25:34.000Z</time>
      </trkpt>
      <trkpt lat="43.59112" lon="0.51138">
        <ele>233</ele>
        <time>2020-01-12T13:25:36.000Z</time>
      </trkpt>
      <trkpt lat="43.59111" lon="0.51139">
        <ele>233</ele>
        <time>2020-01-12T13:25:38.000Z</time>
      </trkpt>
      <trkpt lat="43.59109" lon="0.51139">
        <ele>234</ele>
        <time>2020-01-12T13:25:40.000Z</time>
      </trkpt>
      <trkpt lat="43.59107" lon="0.5114">
        <ele>234</ele>
        <time>2020-01-12T13:25:42.000Z</time>
      </trkpt>
      <trkpt lat="43.59106" lon="0.5114">
        <ele>234</ele>
        <time>2020-01-12T13:25:44.000Z</time>
      </trkpt>
      <trkpt lat="43.59104" lon="0.51141">
        <ele>234</ele>
        <time>2020-01-12T13:25:46.000Z</time>
      </trkpt>
      <trkpt lat="43.59102" lon="0.51142">
        <ele>234</ele>
        <time>2020-01-12T13:25:48.000Z</time>
      </trkpt>
      <trkpt lat="43.59101" lon="0.51142">
        <ele>234</ele>
        <time>2020-01-12T13:25:50.000Z</time>
      </trkpt>
      <trkpt lat="43.59101" lon="0.51142">
        <ele>234</ele>
        <time>2020-01-12T13:25:52.000Z</time>
      </trkpt>
      <trkpt lat="43.59101" lon="0.51143">
        <ele>234</ele>
        <time>2020-01-12T13:25:54.000Z</time>
      </trkpt>
      <trkpt lat="43.591" lon="0.51143">
        <ele>234</ele>
        <time>2020-01-12T13:25:56.000Z</time>
      </trkpt>
      <trkpt lat="43.591" lon="0.51143">
        <ele>234</ele>
        <time>2020-01-12T13:25:58.000Z</time>
      </trkpt>
      <trkpt lat="43.591" lon="0.51143">
        <ele>234</ele>
        <time>2020-01-12T13:26:00.000Z</time>
      </trkpt>
      <trkpt lat="43.591" lon="0.51143">
        <ele>234</ele>
        <time>2020-01-12T13:26:02.000Z</time>
      </trkpt>
      <trkpt lat="43.591" lon="0.51143">
        <ele>234</ele>
        <time>2020-01-12T13:26:04.000Z</time>
      </trkpt>
      <trkpt lat="43.591" lon="0.51143">
        <ele>234</ele>
        <time>2020-01-12T13:26:06.000Z</time>
      </trkpt>
      <trkpt lat="43.591" lon="0.51143">
        <ele>234</ele>
        <time>2020-01-12T13:26:08.000Z</time>
      </trkpt>
      <trkpt lat="43.59099" lon="0.51143">
        <ele>234</ele>
        <time>2020-01-12T13:26:10.000Z</time>
      </trkpt>
      <trkpt lat="43.591" lon="0.51142">
        <ele>234</ele>
        <time>2020-01-12T13:26:12.000Z</time>
      </trkpt>
      <trkpt lat="43.59099" lon="0.51142">
        <ele>234</ele>
        <time>2020-01-12T13:26:14.000Z</time>
      </trkpt>
      <trkpt lat="43.59099" lon="0.51142">
        <ele>234</ele>
        <time>2020-01-12T13:26:16.000Z</time>
      </trkpt>
      <trkpt lat="43.59099" lon="0.51142">
        <ele>234</ele>
        <time>2020-01-12T13:26:18.000Z</time>
      </trkpt>
      <trkpt lat="43.59099" lon="0.51142">
        <ele>234</ele>
        <time>2020-01-12T13:26:20.000Z</time>
      </trkpt>
      <trkpt lat="43.59099" lon="0.51142">
        <ele>234</ele>
        <time>2020-01-12T13:26:22.000Z</time>
      </trkpt>
      <trkpt lat="43.591" lon="0.51142">
        <ele>234</ele>
        <time>2020-01-12T13:26:24.000Z</time>
      </trkpt>
      <trkpt lat="43.591" lon="0.51142">
        <ele>234</ele>
        <time>2020-01-12T13:26:26.000Z</time>
      </trkpt>
      <trkpt lat="43.591" lon="0.51142">
        <ele>234</ele>
        <time>2020-01-12T13:26:28.000Z</time>
      </trkpt>
      <trkpt lat="43.591" lon="0.51142">
        <ele>234</ele>
        <time>2020-01-12T13:26:30.000Z</time>
      </trkpt>
      <trkpt lat="43.591" lon="0.51142">
        <ele>234</ele>
        <time>2020-01-12T13:26:32.000Z</time>
      </trkpt>
      <trkpt lat="43.591" lon="0.51142">
        <ele>234</ele>
        <time>2020-01-12T13:26:34.000Z</time>
      </trkpt>
      <trkpt lat="43.591" lon="0.51141">
        <ele>234</ele>
        <time>2020-01-12T13:26:36.000Z</time>
      </trkpt>
      <trkpt lat="43.591" lon="0.51141">
        <ele>234</ele>
        <time>2020-01-12T13:26:38.000Z</time>
      </trkpt>
      <trkpt lat="43.591" lon="0.51141">
        <ele>234</ele>
        <time>2020-01-12T13:26:40.000Z</time>
      </trkpt>
      <trkpt lat="43.591" lon="0.51141">
        <ele>234</ele>
        <time>2020-01-12T13:26:42.000Z</time>
      </trkpt>
      <trkpt lat="43.591" lon="0.5114">
        <ele>234</ele>
        <time>2020-01-12T13:26:44.000Z</time>
      </trkpt>
      <trkpt lat="43.59099" lon="0.5114">
        <ele>234</ele>
        <time>2020-01-12T13:26:46.000Z</time>
      </trkpt>
      <trkpt lat="43.59099" lon="0.5114">
        <ele>234</ele>
        <time>2020-01-12T13:26:48.000Z</time>
      </trkpt>
      <trkpt lat="43.59099" lon="0.5114">
        <ele>234</ele>
        <time>2020-01-12T13:26:50.000Z</time>
      </trkpt>
      <trkpt lat="43.59099" lon="0.51139">
        <ele>235</ele>
        <time>2020-01-12T13:26:52.000Z</time>
      </trkpt>
      <trkpt lat="43.59099" lon="0.51139">
        <ele>234</ele>
        <time>2020-01-12T13:26:54.000Z</time>
      </trkpt>
      <trkpt lat="43.59099" lon="0.51139">
        <ele>234</ele>
        <time>2020-01-12T13:26:56.000Z</time>
      </trkpt>
      <trkpt lat="43.59099" lon="0.51139">
        <ele>235</ele>
        <time>2020-01-12T13:26:58.000Z</time>
      </trkpt>
      <trkpt lat="43.59099" lon="0.51139">
        <ele>235</ele>
        <time>2020-01-12T13:27:00.000Z</time>
      </trkpt>
      <trkpt lat="43.59099" lon="0.51139">
        <ele>235</ele>
        <time>2020-01-12T13:27:02.000Z</time>
      </trkpt>
      <trkpt lat="43.59099" lon="0.51139">
        <ele>234</ele>
        <time>2020-01-12T13:27:04.000Z</time>
      </trkpt>
      <trkpt lat="43.59099" lon="0.51138">
        <ele>234</ele>
        <time>2020-01-12T13:27:06.000Z</time>
      </trkpt>
      <trkpt lat="43.59099" lon="0.51138">
        <ele>234</ele>
        <time>2020-01-12T13:27:08.000Z</time>
      </trkpt>
      <trkpt lat="43.59099" lon="0.51138">
        <ele>234</ele>
        <time>2020-01-12T13:27:10.000Z</time>
      </trkpt>
      <trkpt lat="43.59099" lon="0.51139">
        <ele>234</ele>
        <time>2020-01-12T13:27:12.000Z</time>
      </trkpt>
      <trkpt lat="43.591" lon="0.51139">
        <ele>234</ele>
        <time>2020-01-12T13:27:14.000Z</time>
      </trkpt>
      <trkpt lat="43.591" lon="0.51139">
        <ele>234</ele>
        <time>2020-01-12T13:27:16.000Z</time>
      </trkpt>
      <trkpt lat="43.591" lon="0.51138">
        <ele>234</ele>
        <time>2020-01-12T13:27:18.000Z</time>
      </trkpt>
      <trkpt lat="43.591" lon="0.51138">
        <ele>234</ele>
        <time>2020-01-12T13:27:20.000Z</time>
      </trkpt>
      <trkpt lat="43.591" lon="0.51139">
        <ele>234</ele>
        <time>2020-01-12T13:27:22.000Z</time>
      </trkpt>
      <trkpt lat="43.591" lon="0.51139">
        <ele>234</ele>
        <time>2020-01-12T13:27:24.000Z</time>
      </trkpt>
      <trkpt lat="43.591" lon="0.51139">
        <ele>234</ele>
        <time>2020-01-12T13:27:26.000Z</time>
      </trkpt>
      <trkpt lat="43.591" lon="0.5114">
        <ele>234</ele>
        <time>2020-01-12T13:27:28.000Z</time>
      </trkpt>
      <trkpt lat="43.591" lon="0.5114">
        <ele>234</ele>
        <time>2020-01-12T13:27:30.000Z</time>
      </trkpt>
      <trkpt lat="43.591" lon="0.5114">
        <ele>234</ele>
        <time>2020-01-12T13:27:32.000Z</time>
      </trkpt>
      <trkpt lat="43.591" lon="0.51141">
        <ele>234</ele>
        <time>2020-01-12T13:27:34.000Z</time>
      </trkpt>
      <trkpt lat="43.591" lon="0.5114">
        <ele>234</ele>
        <time>2020-01-12T13:27:36.000Z</time>
      </trkpt>
      <trkpt lat="43.59101" lon="0.5114">
        <ele>234</ele>
        <time>2020-01-12T13:27:38.000Z</time>
      </trkpt>
      <trkpt lat="43.591" lon="0.5114">
        <ele>234</ele>
        <time>2020-01-12T13:27:40.000Z</time>
      </trkpt>
      <trkpt lat="43.591" lon="0.5114">
        <ele>234</ele>
        <time>2020-01-12T13:27:42.000Z</time>
      </trkpt>
      <trkpt lat="43.591" lon="0.5114">
        <ele>234</ele>
        <time>2020-01-12T13:27:44.000Z</time>
      </trkpt>
      <trkpt lat="43.591" lon="0.5114">
        <ele>234</ele>
        <time>2020-01-12T13:27:46.000Z</time>
      </trkpt>
      <trkpt lat="43.591" lon="0.51141">
        <ele>234</ele>
        <time>2020-01-12T13:27:48.000Z</time>
      </trkpt>
      <trkpt lat="43.591" lon="0.51141">
        <ele>234</ele>
        <time>2020-01-12T13:27:50.000Z</time>
      </trkpt>
      <trkpt lat="43.591" lon="0.51141">
        <ele>234</ele>
        <time>2020-01-12T13:27:52.000Z</time>
      </trkpt>
      <trkpt lat="43.591" lon="0.51141">
        <ele>234</ele>
        <time>2020-01-12T13:27:54.000Z</time>
      </trkpt>
      <trkpt lat="43.591" lon="0.51141">
        <ele>234</ele>
        <time>2020-01-12T13:27:56.000Z</time>
      </trkpt>
      <trkpt lat="43.591" lon="0.51141">
        <ele>234</ele>
        <time>2020-01-12T13:27:58.000Z</time>
      </trkpt>
      <trkpt lat="43.59101" lon="0.51141">
        <ele>234</ele>
        <time>2020-01-12T13:28:00.000Z</time>
      </trkpt>
      <trkpt lat="43.59101" lon="0.51141">
        <ele>234</ele>
        <time>2020-01-12T13:28:02.000Z</time>
      </trkpt>
      <trkpt lat="43.59101" lon="0.51141">
        <ele>234</ele>
        <time>2020-01-12T13:28:04.000Z</time>
      </trkpt>
      <trkpt lat="43.59101" lon="0.51141">
        <ele>234</ele>
        <time>2020-01-12T13:28:06.000Z</time>
      </trkpt>
      <trkpt lat="43.59101" lon="0.51141">
        <ele>234</ele>
        <time>2020-01-12T13:28:08.000Z</time>
      </trkpt>
      <trkpt lat="43.59102" lon="0.51141">
        <ele>234</ele>
        <time>2020-01-12T13:28:10.000Z</time>
      </trkpt>
      <trkpt lat="43.59102" lon="0.51141">
        <ele>234</ele>
        <time>2020-01-12T13:28:12.000Z</time>
      </trkpt>
      <trkpt lat="43.59102" lon="0.51141">
        <ele>234</ele>
        <time>2020-01-12T13:28:14.000Z</time>
      </trkpt>
      <trkpt lat="43.59102" lon="0.51141">
        <ele>234</ele>
        <time>2020-01-12T13:28:16.000Z</time>
      </trkpt>
      <trkpt lat="43.59102" lon="0.51141">
        <ele>234</ele>
        <time>2020-01-12T13:28:18.000Z</time>
      </trkpt>
      <trkpt lat="43.59102" lon="0.51141">
        <ele>234</ele>
        <time>2020-01-12T13:28:20.000Z</time>
      </trkpt>
      <trkpt lat="43.59102" lon="0.51141">
        <ele>234</ele>
        <time>2020-01-12T13:28:22.000Z</time>
      </trkpt>
      <trkpt lat="43.59102" lon="0.51141">
        <ele>234</ele>
        <time>2020-01-12T13:28:24.000Z</time>
      </trkpt>
      <trkpt lat="43.59101" lon="0.5114">
        <ele>234</ele>
        <time>2020-01-12T13:28:26.000Z</time>
      </trkpt>
      <trkpt lat="43.59101" lon="0.51141">
        <ele>234</ele>
        <time>2020-01-12T13:28:28.000Z</time>
      </trkpt>
      <trkpt lat="43.59101" lon="0.51141">
        <ele>234</ele>
        <time>2020-01-12T13:28:30.000Z</time>
      </trkpt>
      <trkpt lat="43.59101" lon="0.5114">
        <ele>234</ele>
        <time>2020-01-12T13:28:32.000Z</time>
      </trkpt>
      <trkpt lat="43.591" lon="0.5114">
        <ele>234</ele>
        <time>2020-01-12T13:28:34.000Z</time>
      </trkpt>
      <trkpt lat="43.591" lon="0.51141">
        <ele>234</ele>
        <time>2020-01-12T13:28:36.000Z</time>
      </trkpt>
      <trkpt lat="43.591" lon="0.51141">
        <ele>234</ele>
        <time>2020-01-12T13:28:38.000Z</time>
      </trkpt>
      <trkpt lat="43.591" lon="0.51141">
        <ele>234</ele>
        <time>2020-01-12T13:28:40.000Z</time>
      </trkpt>
      <trkpt lat="43.59101" lon="0.51141">
        <ele>234</ele>
        <time>2020-01-12T13:28:42.000Z</time>
      </trkpt>
      <trkpt lat="43.591" lon="0.5114">
        <ele>234</ele>
        <time>2020-01-12T13:28:44.000Z</time>
      </trkpt>
      <trkpt lat="43.591" lon="0.5114">
        <ele>234</ele>
        <time>2020-01-12T13:28:46.000Z</time>
      </trkpt>
      <trkpt lat="43.591" lon="0.51141">
        <ele>234</ele>
        <time>2020-01-12T13:28:48.000Z</time>
      </trkpt>
      <trkpt lat="43.591" lon="0.51141">
        <ele>234</ele>
        <time>2020-01-12T13:28:50.000Z</time>
      </trkpt>
      <trkpt lat="43.591" lon="0.5114">
        <ele>234</ele>
        <time>2020-01-12T13:28:52.000Z</time>
      </trkpt>
      <trkpt lat="43.591" lon="0.51141">
        <ele>234</ele>
        <time>2020-01-12T13:28:54.000Z</time>
      </trkpt>
      <trkpt lat="43.59099" lon="0.51141">
        <ele>234</ele>
        <time>2020-01-12T13:28:56.000Z</time>
      </trkpt>
      <trkpt lat="43.59099" lon="0.51141">
        <ele>235</ele>
        <time>2020-01-12T13:28:58.000Z</time>
      </trkpt>
      <trkpt lat="43.59098" lon="0.51142">
        <ele>235</ele>
        <time>2020-01-12T13:29:00.000Z</time>
      </trkpt>
      <trkpt lat="43.59097" lon="0.51143">
        <ele>235</ele>
        <time>2020-01-12T13:29:02.000Z</time>
      </trkpt>
      <trkpt lat="43.59097" lon="0.51142">
        <ele>235</ele>
        <time>2020-01-12T13:29:04.000Z</time>
      </trkpt>
      <trkpt lat="43.59097" lon="0.51143">
        <ele>235</ele>
        <time>2020-01-12T13:29:06.000Z</time>
      </trkpt>
      <trkpt lat="43.59097" lon="0.51143">
        <ele>235</ele>
        <time>2020-01-12T13:29:08.000Z</time>
      </trkpt>
      <trkpt lat="43.59097" lon="0.51143">
        <ele>235</ele>
        <time>2020-01-12T13:29:10.000Z</time>
      </trkpt>
      <trkpt lat="43.59097" lon="0.51144">
        <ele>235</ele>
        <time>2020-01-12T13:29:12.000Z</time>
      </trkpt>
      <trkpt lat="43.59097" lon="0.51144">
        <ele>235</ele>
        <time>2020-01-12T13:29:14.000Z</time>
      </trkpt>
      <trkpt lat="43.59097" lon="0.51144">
        <ele>235</ele>
        <time>2020-01-12T13:29:16.000Z</time>
      </trkpt>
      <trkpt lat="43.59097" lon="0.51144">
        <ele>235</ele>
        <time>2020-01-12T13:29:18.000Z</time>
      </trkpt>
      <trkpt lat="43.59097" lon="0.51144">
        <ele>235</ele>
        <time>2020-01-12T13:29:20.000Z</time>
      </trkpt>
      <trkpt lat="43.59097" lon="0.51144">
        <ele>235</ele>
        <time>2020-01-12T13:29:22.000Z</time>
      </trkpt>
      <trkpt lat="43.59097" lon="0.51144">
        <ele>235</ele>
        <time>2020-01-12T13:29:24.000Z</time>
      </trkpt>
      <trkpt lat="43.59097" lon="0.51144">
        <ele>235</ele>
        <time>2020-01-12T13:29:26.000Z</time>
      </trkpt>
      <trkpt lat="43.59096" lon="0.51144">
        <ele>235</ele>
        <time>2020-01-12T13:29:28.000Z</time>
      </trkpt>
      <trkpt lat="43.59096" lon="0.51144">
        <ele>235</ele>
        <time>2020-01-12T13:29:30.000Z</time>
      </trkpt>
      <trkpt lat="43.59096" lon="0.51144">
        <ele>235</ele>
        <time>2020-01-12T13:29:32.000Z</time>
      </trkpt>
      <trkpt lat="43.59096" lon="0.51144">
        <ele>235</ele>
        <time>2020-01-12T13:29:34.000Z</time>
      </trkpt>
      <trkpt lat="43.59096" lon="0.51144">
        <ele>235</ele>
        <time>2020-01-12T13:29:36.000Z</time>
      </trkpt>
      <trkpt lat="43.59095" lon="0.51143">
        <ele>235</ele>
        <time>2020-01-12T13:29:38.000Z</time>
      </trkpt>
      <trkpt lat="43.59094" lon="0.51145">
        <ele>236</ele>
        <time>2020-01-12T13:29:40.000Z</time>
      </trkpt>
      <trkpt lat="43.59092" lon="0.51146">
        <ele>236</ele>
        <time>2020-01-12T13:29:42.000Z</time>
      </trkpt>
      <trkpt lat="43.5909" lon="0.51147">
        <ele>236</ele>
        <time>2020-01-12T13:29:44.000Z</time>
      </trkpt>
      <trkpt lat="43.59089" lon="0.51148">
        <ele>236</ele>
        <time>2020-01-12T13:29:46.000Z</time>
      </trkpt>
      <trkpt lat="43.59088" lon="0.51148">
        <ele>237</ele>
        <time>2020-01-12T13:29:48.000Z</time>
      </trkpt>
      <trkpt lat="43.59086" lon="0.51149">
        <ele>237</ele>
        <time>2020-01-12T13:29:50.000Z</time>
      </trkpt>
      <trkpt lat="43.59084" lon="0.51151">
        <ele>237</ele>
        <time>2020-01-12T13:29:52.000Z</time>
      </trkpt>
      <trkpt lat="43.59082" lon="0.51152">
        <ele>238</ele>
        <time>2020-01-12T13:29:54.000Z</time>
      </trkpt>
      <trkpt lat="43.5908" lon="0.51153">
        <ele>238</ele>
        <time>2020-01-12T13:29:56.000Z</time>
      </trkpt>
      <trkpt lat="43.59078" lon="0.51154">
        <ele>238</ele>
        <time>2020-01-12T13:29:58.000Z</time>
      </trkpt>
      <trkpt lat="43.59077" lon="0.51155">
        <ele>239</ele>
        <time>2020-01-12T13:30:00.000Z</time>
      </trkpt>
      <trkpt lat="43.59075" lon="0.51157">
        <ele>239</ele>
        <time>2020-01-12T13:30:02.000Z</time>
      </trkpt>
      <trkpt lat="43.59073" lon="0.51158">
        <ele>239</ele>
        <time>2020-01-12T13:30:04.000Z</time>
      </trkpt>
      <trkpt lat="43.59072" lon="0.51161">
        <ele>240</ele>
        <time>2020-01-12T13:30:06.000Z</time>
      </trkpt>
      <trkpt lat="43.59071" lon="0.51162">
        <ele>240</ele>
        <time>2020-01-12T13:30:08.000Z</time>
      </trkpt>
      <trkpt lat="43.5907" lon="0.51164">
        <ele>240</ele>
        <time>2020-01-12T13:30:10.000Z</time>
      </trkpt>
      <trkpt lat="43.59069" lon="0.51166">
        <ele>240</ele>
        <time>2020-01-12T13:30:12.000Z</time>
      </trkpt>
      <trkpt lat="43.59067" lon="0.51168">
        <ele>241</ele>
        <time>2020-01-12T13:30:14.000Z</time>
      </trkpt>
      <trkpt lat="43.59066" lon="0.5117">
        <ele>241</ele>
        <time>2020-01-12T13:30:16.000Z</time>
      </trkpt>
      <trkpt lat="43.59064" lon="0.51171">
        <ele>241</ele>
        <time>2020-01-12T13:30:18.000Z</time>
      </trkpt>
      <trkpt lat="43.59063" lon="0.51173">
        <ele>241</ele>
        <time>2020-01-12T13:30:20.000Z</time>
      </trkpt>
      <trkpt lat="43.59061" lon="0.51175">
        <ele>242</ele>
        <time>2020-01-12T13:30:22.000Z</time>
      </trkpt>
      <trkpt lat="43.5906" lon="0.51176">
        <ele>242</ele>
        <time>2020-01-12T13:30:24.000Z</time>
      </trkpt>
      <trkpt lat="43.59059" lon="0.51178">
        <ele>242</ele>
        <time>2020-01-12T13:30:26.000Z</time>
      </trkpt>
      <trkpt lat="43.59057" lon="0.5118">
        <ele>242</ele>
        <time>2020-01-12T13:30:28.000Z</time>
      </trkpt>
      <trkpt lat="43.59056" lon="0.51182">
        <ele>242</ele>
        <time>2020-01-12T13:30:30.000Z</time>
      </trkpt>
      <trkpt lat="43.59054" lon="0.51183">
        <ele>242</ele>
        <time>2020-01-12T13:30:32.000Z</time>
      </trkpt>
      <trkpt lat="43.59053" lon="0.51184">
        <ele>242</ele>
        <time>2020-01-12T13:30:34.000Z</time>
      </trkpt>
      <trkpt lat="43.59051" lon="0.51187">
        <ele>242</ele>
        <time>2020-01-12T13:30:36.000Z</time>
      </trkpt>
      <trkpt lat="43.59049" lon="0.51189">
        <ele>243</ele>
        <time>2020-01-12T13:30:38.000Z</time>
      </trkpt>
      <trkpt lat="43.59048" lon="0.51191">
        <ele>243</ele>
        <time>2020-01-12T13:30:40.000Z</time>
      </trkpt>
      <trkpt lat="43.59047" lon="0.51192">
        <ele>243</ele>
        <time>2020-01-12T13:30:42.000Z</time>
      </trkpt>
      <trkpt lat="43.59045" lon="0.51193">
        <ele>243</ele>
        <time>2020-01-12T13:30:44.000Z</time>
      </trkpt>
      <trkpt lat="43.59044" lon="0.51195">
        <ele>243</ele>
        <time>2020-01-12T13:30:46.000Z</time>
      </trkpt>
      <trkpt lat="43.59042" lon="0.51196">
        <ele>243</ele>
        <time>2020-01-12T13:30:48.000Z</time>
      </trkpt>
      <trkpt lat="43.59041" lon="0.51198">
        <ele>243</ele>
        <time>2020-01-12T13:30:50.000Z</time>
      </trkpt>
      <trkpt lat="43.59039" lon="0.512">
        <ele>243</ele>
        <time>2020-01-12T13:30:52.000Z</time>
      </trkpt>
      <trkpt lat="43.59037" lon="0.51202">
        <ele>243</ele>
        <time>2020-01-12T13:30:54.000Z</time>
      </trkpt>
      <trkpt lat="43.59036" lon="0.51203">
        <ele>243</ele>
        <time>2020-01-12T13:30:56.000Z</time>
      </trkpt>
      <trkpt lat="43.59035" lon="0.51205">
        <ele>244</ele>
        <time>2020-01-12T13:30:58.000Z</time>
      </trkpt>
      <trkpt lat="43.59033" lon="0.51208">
        <ele>244</ele>
        <time>2020-01-12T13:31:00.000Z</time>
      </trkpt>
      <trkpt lat="43.59031" lon="0.51209">
        <ele>244</ele>
        <time>2020-01-12T13:31:02.000Z</time>
      </trkpt>
      <trkpt lat="43.5903" lon="0.51211">
        <ele>244</ele>
        <time>2020-01-12T13:31:04.000Z</time>
      </trkpt>
      <trkpt lat="43.59029" lon="0.51213">
        <ele>244</ele>
        <time>2020-01-12T13:31:06.000Z</time>
      </trkpt>
      <trkpt lat="43.59028" lon="0.51214">
        <ele>244</ele>
        <time>2020-01-12T13:31:08.000Z</time>
      </trkpt>
      <trkpt lat="43.59026" lon="0.51216">
        <ele>244</ele>
        <time>2020-01-12T13:31:10.000Z</time>
      </trkpt>
      <trkpt lat="43.59025" lon="0.51218">
        <ele>244</ele>
        <time>2020-01-12T13:31:12.000Z</time>
      </trkpt>
      <trkpt lat="43.59024" lon="0.51219">
        <ele>244</ele>
        <time>2020-01-12T13:31:14.000Z</time>
      </trkpt>
      <trkpt lat="43.59023" lon="0.51221">
        <ele>245</ele>
        <time>2020-01-12T13:31:16.000Z</time>
      </trkpt>
      <trkpt lat="43.59021" lon="0.51223">
        <ele>245</ele>
        <time>2020-01-12T13:31:18.000Z</time>
      </trkpt>
      <trkpt lat="43.5902" lon="0.51225">
        <ele>245</ele>
        <time>2020-01-12T13:31:20.000Z</time>
      </trkpt>
      <trkpt lat="43.59019" lon="0.51227">
        <ele>245</ele>
        <time>2020-01-12T13:31:22.000Z</time>
      </trkpt>
      <trkpt lat="43.59018" lon="0.51229">
        <ele>245</ele>
        <time>2020-01-12T13:31:24.000Z</time>
      </trkpt>
      <trkpt lat="43.59017" lon="0.5123">
        <ele>245</ele>
        <time>2020-01-12T13:31:26.000Z</time>
      </trkpt>
      <trkpt lat="43.59015" lon="0.51232">
        <ele>245</ele>
        <time>2020-01-12T13:31:28.000Z</time>
      </trkpt>
      <trkpt lat="43.59015" lon="0.51234">
        <ele>245</ele>
        <time>2020-01-12T13:31:30.000Z</time>
      </trkpt>
      <trkpt lat="43.59014" lon="0.51237">
        <ele>245</ele>
        <time>2020-01-12T13:31:32.000Z</time>
      </trkpt>
      <trkpt lat="43.59012" lon="0.51238">
        <ele>245</ele>
        <time>2020-01-12T13:31:34.000Z</time>
      </trkpt>
      <trkpt lat="43.59011" lon="0.5124">
        <ele>245</ele>
        <time>2020-01-12T13:31:36.000Z</time>
      </trkpt>
      <trkpt lat="43.59009" lon="0.51242">
        <ele>245</ele>
        <time>2020-01-12T13:31:38.000Z</time>
      </trkpt>
      <trkpt lat="43.59008" lon="0.51244">
        <ele>245</ele>
        <time>2020-01-12T13:31:40.000Z</time>
      </trkpt>
      <trkpt lat="43.59007" lon="0.51246">
        <ele>245</ele>
        <time>2020-01-12T13:31:42.000Z</time>
      </trkpt>
      <trkpt lat="43.59007" lon="0.51248">
        <ele>245</ele>
        <time>2020-01-12T13:31:44.000Z</time>
      </trkpt>
      <trkpt lat="43.59007" lon="0.51251">
        <ele>245</ele>
        <time>2020-01-12T13:31:46.000Z</time>
      </trkpt>
      <trkpt lat="43.59006" lon="0.51253">
        <ele>245</ele>
        <time>2020-01-12T13:31:48.000Z</time>
      </trkpt>
      <trkpt lat="43.59005" lon="0.51256">
        <ele>245</ele>
        <time>2020-01-12T13:31:50.000Z</time>
      </trkpt>
      <trkpt lat="43.59004" lon="0.51258">
        <ele>245</ele>
        <time>2020-01-12T13:31:52.000Z</time>
      </trkpt>
      <trkpt lat="43.59003" lon="0.51261">
        <ele>245</ele>
        <time>2020-01-12T13:31:54.000Z</time>
      </trkpt>
      <trkpt lat="43.59002" lon="0.51264">
        <ele>245</ele>
        <time>2020-01-12T13:31:56.000Z</time>
      </trkpt>
      <trkpt lat="43.59001" lon="0.51266">
        <ele>245</ele>
        <time>2020-01-12T13:31:58.000Z</time>
      </trkpt>
      <trkpt lat="43.59" lon="0.51268">
        <ele>245</ele>
        <time>2020-01-12T13:32:00.000Z</time>
      </trkpt>
      <trkpt lat="43.58999" lon="0.51271">
        <ele>245</ele>
        <time>2020-01-12T13:32:02.000Z</time>
      </trkpt>
      <trkpt lat="43.58998" lon="0.51273">
        <ele>245</ele>
        <time>2020-01-12T13:32:04.000Z</time>
      </trkpt>
      <trkpt lat="43.58997" lon="0.51275">
        <ele>245</ele>
        <time>2020-01-12T13:32:06.000Z</time>
      </trkpt>
      <trkpt lat="43.58996" lon="0.51278">
        <ele>245</ele>
        <time>2020-01-12T13:32:08.000Z</time>
      </trkpt>
      <trkpt lat="43.58996" lon="0.5128">
        <ele>245</ele>
        <time>2020-01-12T13:32:10.000Z</time>
      </trkpt>
      <trkpt lat="43.58995" lon="0.51282">
        <ele>245</ele>
        <time>2020-01-12T13:32:12.000Z</time>
      </trkpt>
      <trkpt lat="43.58994" lon="0.51284">
        <ele>245</ele>
        <time>2020-01-12T13:32:14.000Z</time>
      </trkpt>
      <trkpt lat="43.58992" lon="0.51286">
        <ele>245</ele>
        <time>2020-01-12T13:32:16.000Z</time>
      </trkpt>
      <trkpt lat="43.58992" lon="0.51289">
        <ele>245</ele>
        <time>2020-01-12T13:32:18.000Z</time>
      </trkpt>
      <trkpt lat="43.58991" lon="0.51291">
        <ele>245</ele>
        <time>2020-01-12T13:32:20.000Z</time>
      </trkpt>
      <trkpt lat="43.5899" lon="0.51293">
        <ele>245</ele>
        <time>2020-01-12T13:32:22.000Z</time>
      </trkpt>
      <trkpt lat="43.58989" lon="0.51295">
        <ele>246</ele>
        <time>2020-01-12T13:32:24.000Z</time>
      </trkpt>
      <trkpt lat="43.58988" lon="0.51298">
        <ele>246</ele>
        <time>2020-01-12T13:32:26.000Z</time>
      </trkpt>
      <trkpt lat="43.58987" lon="0.513">
        <ele>246</ele>
        <time>2020-01-12T13:32:28.000Z</time>
      </trkpt>
      <trkpt lat="43.58986" lon="0.51302">
        <ele>246</ele>
        <time>2020-01-12T13:32:30.000Z</time>
      </trkpt>
      <trkpt lat="43.58985" lon="0.51304">
        <ele>246</ele>
        <time>2020-01-12T13:32:32.000Z</time>
      </trkpt>
      <trkpt lat="43.58984" lon="0.51307">
        <ele>246</ele>
        <time>2020-01-12T13:32:34.000Z</time>
      </trkpt>
      <trkpt lat="43.58983" lon="0.5131">
        <ele>247</ele>
        <time>2020-01-12T13:32:36.000Z</time>
      </trkpt>
      <trkpt lat="43.58982" lon="0.51312">
        <ele>247</ele>
        <time>2020-01-12T13:32:38.000Z</time>
      </trkpt>
      <trkpt lat="43.58981" lon="0.51314">
        <ele>247</ele>
        <time>2020-01-12T13:32:40.000Z</time>
      </trkpt>
      <trkpt lat="43.5898" lon="0.51317">
        <ele>247</ele>
        <time>2020-01-12T13:32:42.000Z</time>
      </trkpt>
      <trkpt lat="43.58979" lon="0.51319">
        <ele>247</ele>
        <time>2020-01-12T13:32:44.000Z</time>
      </trkpt>
      <trkpt lat="43.58978" lon="0.51322">
        <ele>248</ele>
        <time>2020-01-12T13:32:46.000Z</time>
      </trkpt>
      <trkpt lat="43.58977" lon="0.51324">
        <ele>248</ele>
        <time>2020-01-12T13:32:48.000Z</time>
      </trkpt>
      <trkpt lat="43.58976" lon="0.51326">
        <ele>248</ele>
        <time>2020-01-12T13:32:50.000Z</time>
      </trkpt>
      <trkpt lat="43.58976" lon="0.51328">
        <ele>248</ele>
        <time>2020-01-12T13:32:52.000Z</time>
      </trkpt>
      <trkpt lat="43.58975" lon="0.51329">
        <ele>248</ele>
        <time>2020-01-12T13:32:54.000Z</time>
      </trkpt>
      <trkpt lat="43.58974" lon="0.51332">
        <ele>248</ele>
        <time>2020-01-12T13:32:56.000Z</time>
      </trkpt>
      <trkpt lat="43.58974" lon="0.51334">
        <ele>248</ele>
        <time>2020-01-12T13:32:58.000Z</time>
      </trkpt>
      <trkpt lat="43.58974" lon="0.51337">
        <ele>249</ele>
        <time>2020-01-12T13:33:00.000Z</time>
      </trkpt>
      <trkpt lat="43.58972" lon="0.51339">
        <ele>249</ele>
        <time>2020-01-12T13:33:02.000Z</time>
      </trkpt>
      <trkpt lat="43.58971" lon="0.51342">
        <ele>249</ele>
        <time>2020-01-12T13:33:04.000Z</time>
      </trkpt>
      <trkpt lat="43.58969" lon="0.51345">
        <ele>249</ele>
        <time>2020-01-12T13:33:06.000Z</time>
      </trkpt>
      <trkpt lat="43.58968" lon="0.51347">
        <ele>249</ele>
        <time>2020-01-12T13:33:08.000Z</time>
      </trkpt>
      <trkpt lat="43.58967" lon="0.51349">
        <ele>249</ele>
        <time>2020-01-12T13:33:10.000Z</time>
      </trkpt>
      <trkpt lat="43.58966" lon="0.51351">
        <ele>249</ele>
        <time>2020-01-12T13:33:12.000Z</time>
      </trkpt>
      <trkpt lat="43.58966" lon="0.51353">
        <ele>249</ele>
        <time>2020-01-12T13:33:14.000Z</time>
      </trkpt>
      <trkpt lat="43.58966" lon="0.51355">
        <ele>249</ele>
        <time>2020-01-12T13:33:16.000Z</time>
      </trkpt>
      <trkpt lat="43.58965" lon="0.51357">
        <ele>248</ele>
        <time>2020-01-12T13:33:18.000Z</time>
      </trkpt>
      <trkpt lat="43.58965" lon="0.5136">
        <ele>248</ele>
        <time>2020-01-12T13:33:20.000Z</time>
      </trkpt>
      <trkpt lat="43.58964" lon="0.51362">
        <ele>248</ele>
        <time>2020-01-12T13:33:22.000Z</time>
      </trkpt>
      <trkpt lat="43.58963" lon="0.51365">
        <ele>248</ele>
        <time>2020-01-12T13:33:24.000Z</time>
      </trkpt>
      <trkpt lat="43.58962" lon="0.51368">
        <ele>248</ele>
        <time>2020-01-12T13:33:26.000Z</time>
      </trkpt>
      <trkpt lat="43.58961" lon="0.5137">
        <ele>248</ele>
        <time>2020-01-12T13:33:28.000Z</time>
      </trkpt>
      <trkpt lat="43.5896" lon="0.51373">
        <ele>248</ele>
        <time>2020-01-12T13:33:30.000Z</time>
      </trkpt>
      <trkpt lat="43.58959" lon="0.51375">
        <ele>248</ele>
        <time>2020-01-12T13:33:32.000Z</time>
      </trkpt>
      <trkpt lat="43.58958" lon="0.51378">
        <ele>248</ele>
        <time>2020-01-12T13:33:34.000Z</time>
      </trkpt>
      <trkpt lat="43.58957" lon="0.5138">
        <ele>248</ele>
        <time>2020-01-12T13:33:36.000Z</time>
      </trkpt>
      <trkpt lat="43.58955" lon="0.51382">
        <ele>248</ele>
        <time>2020-01-12T13:33:38.000Z</time>
      </trkpt>
      <trkpt lat="43.58954" lon="0.51384">
        <ele>248</ele>
        <time>2020-01-12T13:33:40.000Z</time>
      </trkpt>
      <trkpt lat="43.58953" lon="0.51387">
        <ele>248</ele>
        <time>2020-01-12T13:33:42.000Z</time>
      </trkpt>
      <trkpt lat="43.58952" lon="0.51389">
        <ele>248</ele>
        <time>2020-01-12T13:33:44.000Z</time>
      </trkpt>
      <trkpt lat="43.58951" lon="0.51392">
        <ele>249</ele>
        <time>2020-01-12T13:33:46.000Z</time>
      </trkpt>
      <trkpt lat="43.5895" lon="0.51394">
        <ele>249</ele>
        <time>2020-01-12T13:33:48.000Z</time>
      </trkpt>
      <trkpt lat="43.5895" lon="0.51397">
        <ele>249</ele>
        <time>2020-01-12T13:33:50.000Z</time>
      </trkpt>
      <trkpt lat="43.58949" lon="0.514">
        <ele>249</ele>
        <time>2020-01-12T13:33:52.000Z</time>
      </trkpt>
      <trkpt lat="43.58948" lon="0.51403">
        <ele>249</ele>
        <time>2020-01-12T13:33:54.000Z</time>
      </trkpt>
      <trkpt lat="43.58948" lon="0.51406">
        <ele>248</ele>
        <time>2020-01-12T13:33:56.000Z</time>
      </trkpt>
      <trkpt lat="43.58947" lon="0.51409">
        <ele>248</ele>
        <time>2020-01-12T13:33:58.000Z</time>
      </trkpt>
      <trkpt lat="43.58947" lon="0.51412">
        <ele>248</ele>
        <time>2020-01-12T13:34:00.000Z</time>
      </trkpt>
      <trkpt lat="43.58946" lon="0.51415">
        <ele>248</ele>
        <time>2020-01-12T13:34:02.000Z</time>
      </trkpt>
      <trkpt lat="43.58945" lon="0.51417">
        <ele>248</ele>
        <time>2020-01-12T13:34:04.000Z</time>
      </trkpt>
      <trkpt lat="43.58945" lon="0.51421">
        <ele>248</ele>
        <time>2020-01-12T13:34:06.000Z</time>
      </trkpt>
      <trkpt lat="43.58944" lon="0.51422">
        <ele>248</ele>
        <time>2020-01-12T13:34:08.000Z</time>
      </trkpt>
      <trkpt lat="43.58944" lon="0.51423">
        <ele>247</ele>
        <time>2020-01-12T13:34:10.000Z</time>
      </trkpt>
      <trkpt lat="43.58943" lon="0.51426">
        <ele>247</ele>
        <time>2020-01-12T13:34:12.000Z</time>
      </trkpt>
      <trkpt lat="43.58942" lon="0.51428">
        <ele>247</ele>
        <time>2020-01-12T13:34:14.000Z</time>
      </trkpt>
      <trkpt lat="43.58942" lon="0.51431">
        <ele>247</ele>
        <time>2020-01-12T13:34:16.000Z</time>
      </trkpt>
      <trkpt lat="43.58941" lon="0.51434">
        <ele>247</ele>
        <time>2020-01-12T13:34:18.000Z</time>
      </trkpt>
      <trkpt lat="43.58941" lon="0.51436">
        <ele>247</ele>
        <time>2020-01-12T13:34:20.000Z</time>
      </trkpt>
      <trkpt lat="43.5894" lon="0.51438">
        <ele>247</ele>
        <time>2020-01-12T13:34:22.000Z</time>
      </trkpt>
      <trkpt lat="43.58939" lon="0.51441">
        <ele>246</ele>
        <time>2020-01-12T13:34:24.000Z</time>
      </trkpt>
      <trkpt lat="43.58938" lon="0.51443">
        <ele>246</ele>
        <time>2020-01-12T13:34:26.000Z</time>
      </trkpt>
      <trkpt lat="43.58937" lon="0.51445">
        <ele>246</ele>
        <time>2020-01-12T13:34:28.000Z</time>
      </trkpt>
      <trkpt lat="43.58936" lon="0.51447">
        <ele>246</ele>
        <time>2020-01-12T13:34:30.000Z</time>
      </trkpt>
      <trkpt lat="43.58935" lon="0.51449">
        <ele>246</ele>
        <time>2020-01-12T13:34:32.000Z</time>
      </trkpt>
      <trkpt lat="43.58934" lon="0.51451">
        <ele>246</ele>
        <time>2020-01-12T13:34:34.000Z</time>
      </trkpt>
      <trkpt lat="43.58934" lon="0.51453">
        <ele>246</ele>
        <time>2020-01-12T13:34:36.000Z</time>
      </trkpt>
      <trkpt lat="43.58933" lon="0.51455">
        <ele>245</ele>
        <time>2020-01-12T13:34:38.000Z</time>
      </trkpt>
      <trkpt lat="43.58932" lon="0.51458">
        <ele>245</ele>
        <time>2020-01-12T13:34:40.000Z</time>
      </trkpt>
      <trkpt lat="43.58931" lon="0.5146">
        <ele>245</ele>
        <time>2020-01-12T13:34:42.000Z</time>
      </trkpt>
      <trkpt lat="43.5893" lon="0.51462">
        <ele>245</ele>
        <time>2020-01-12T13:34:44.000Z</time>
      </trkpt>
      <trkpt lat="43.5893" lon="0.51465">
        <ele>244</ele>
        <time>2020-01-12T13:34:46.000Z</time>
      </trkpt>
      <trkpt lat="43.58929" lon="0.51467">
        <ele>244</ele>
        <time>2020-01-12T13:34:48.000Z</time>
      </trkpt>
      <trkpt lat="43.58928" lon="0.5147">
        <ele>244</ele>
        <time>2020-01-12T13:34:50.000Z</time>
      </trkpt>
      <trkpt lat="43.58926" lon="0.51472">
        <ele>244</ele>
        <time>2020-01-12T13:34:52.000Z</time>
      </trkpt>
      <trkpt lat="43.58925" lon="0.51473">
        <ele>243</ele>
        <time>2020-01-12T13:34:54.000Z</time>
      </trkpt>
      <trkpt lat="43.58924" lon="0.51475">
        <ele>243</ele>
        <time>2020-01-12T13:34:56.000Z</time>
      </trkpt>
      <trkpt lat="43.58923" lon="0.51477">
        <ele>243</ele>
        <time>2020-01-12T13:34:58.000Z</time>
      </trkpt>
      <trkpt lat="43.58922" lon="0.51479">
        <ele>243</ele>
        <time>2020-01-12T13:35:00.000Z</time>
      </trkpt>
      <trkpt lat="43.58921" lon="0.51482">
        <ele>243</ele>
        <time>2020-01-12T13:35:02.000Z</time>
      </trkpt>
      <trkpt lat="43.58921" lon="0.51484">
        <ele>243</ele>
        <time>2020-01-12T13:35:04.000Z</time>
      </trkpt>
      <trkpt lat="43.58921" lon="0.51487">
        <ele>243</ele>
        <time>2020-01-12T13:35:06.000Z</time>
      </trkpt>
      <trkpt lat="43.58921" lon="0.51488">
        <ele>243</ele>
        <time>2020-01-12T13:35:08.000Z</time>
      </trkpt>
      <trkpt lat="43.5892" lon="0.51489">
        <ele>243</ele>
        <time>2020-01-12T13:35:10.000Z</time>
      </trkpt>
      <trkpt lat="43.5892" lon="0.5149">
        <ele>243</ele>
        <time>2020-01-12T13:35:12.000Z</time>
      </trkpt>
      <trkpt lat="43.58921" lon="0.5149">
        <ele>243</ele>
        <time>2020-01-12T13:35:14.000Z</time>
      </trkpt>
      <trkpt lat="43.58921" lon="0.51491">
        <ele>243</ele>
        <time>2020-01-12T13:35:16.000Z</time>
      </trkpt>
      <trkpt lat="43.58921" lon="0.51491">
        <ele>243</ele>
        <time>2020-01-12T13:35:18.000Z</time>
      </trkpt>
      <trkpt lat="43.58921" lon="0.51491">
        <ele>243</ele>
        <time>2020-01-12T13:35:20.000Z</time>
      </trkpt>
      <trkpt lat="43.58921" lon="0.51492">
        <ele>243</ele>
        <time>2020-01-12T13:35:22.000Z</time>
      </trkpt>
      <trkpt lat="43.58921" lon="0.51492">
        <ele>243</ele>
        <time>2020-01-12T13:35:24.000Z</time>
      </trkpt>
      <trkpt lat="43.58921" lon="0.51492">
        <ele>243</ele>
        <time>2020-01-12T13:35:26.000Z</time>
      </trkpt>
      <trkpt lat="43.58921" lon="0.51493">
        <ele>243</ele>
        <time>2020-01-12T13:35:28.000Z</time>
      </trkpt>
      <trkpt lat="43.5892" lon="0.51493">
        <ele>243</ele>
        <time>2020-01-12T13:35:30.000Z</time>
      </trkpt>
      <trkpt lat="43.5892" lon="0.51492">
        <ele>243</ele>
        <time>2020-01-12T13:35:32.000Z</time>
      </trkpt>
      <trkpt lat="43.5892" lon="0.51492">
        <ele>243</ele>
        <time>2020-01-12T13:35:34.000Z</time>
      </trkpt>
      <trkpt lat="43.5892" lon="0.51493">
        <ele>243</ele>
        <time>2020-01-12T13:35:36.000Z</time>
      </trkpt>
      <trkpt lat="43.58921" lon="0.51493">
        <ele>243</ele>
        <time>2020-01-12T13:35:38.000Z</time>
      </trkpt>
      <trkpt lat="43.5892" lon="0.51493">
        <ele>243</ele>
        <time>2020-01-12T13:35:40.000Z</time>
      </trkpt>
      <trkpt lat="43.5892" lon="0.51493">
        <ele>243</ele>
        <time>2020-01-12T13:35:42.000Z</time>
      </trkpt>
      <trkpt lat="43.5892" lon="0.51493">
        <ele>243</ele>
        <time>2020-01-12T13:35:44.000Z</time>
      </trkpt>
      <trkpt lat="43.5892" lon="0.51493">
        <ele>243</ele>
        <time>2020-01-12T13:35:46.000Z</time>
      </trkpt>
      <trkpt lat="43.5892" lon="0.51493">
        <ele>242</ele>
        <time>2020-01-12T13:35:48.000Z</time>
      </trkpt>
      <trkpt lat="43.5892" lon="0.51494">
        <ele>242</ele>
        <time>2020-01-12T13:35:50.000Z</time>
      </trkpt>
      <trkpt lat="43.5892" lon="0.51494">
        <ele>242</ele>
        <time>2020-01-12T13:35:52.000Z</time>
      </trkpt>
      <trkpt lat="43.5892" lon="0.51494">
        <ele>242</ele>
        <time>2020-01-12T13:35:54.000Z</time>
      </trkpt>
      <trkpt lat="43.5892" lon="0.51494">
        <ele>242</ele>
        <time>2020-01-12T13:35:56.000Z</time>
      </trkpt>
      <trkpt lat="43.5892" lon="0.51494">
        <ele>242</ele>
        <time>2020-01-12T13:35:58.000Z</time>
      </trkpt>
      <trkpt lat="43.5892" lon="0.51494">
        <ele>242</ele>
        <time>2020-01-12T13:36:00.000Z</time>
      </trkpt>
      <trkpt lat="43.5892" lon="0.51494">
        <ele>242</ele>
        <time>2020-01-12T13:36:02.000Z</time>
      </trkpt>
      <trkpt lat="43.58919" lon="0.51494">
        <ele>242</ele>
        <time>2020-01-12T13:36:04.000Z</time>
      </trkpt>
      <trkpt lat="43.58919" lon="0.51494">
        <ele>242</ele>
        <time>2020-01-12T13:36:06.000Z</time>
      </trkpt>
      <trkpt lat="43.58919" lon="0.51494">
        <ele>242</ele>
        <time>2020-01-12T13:36:08.000Z</time>
      </trkpt>
      <trkpt lat="43.58919" lon="0.51494">
        <ele>242</ele>
        <time>2020-01-12T13:36:10.000Z</time>
      </trkpt>
      <trkpt lat="43.58919" lon="0.51494">
        <ele>242</ele>
        <time>2020-01-12T13:36:12.000Z</time>
      </trkpt>
      <trkpt lat="43.58919" lon="0.51494">
        <ele>242</ele>
        <time>2020-01-12T13:36:14.000Z</time>
      </trkpt>
      <trkpt lat="43.58919" lon="0.51494">
        <ele>242</ele>
        <time>2020-01-12T13:36:16.000Z</time>
      </trkpt>
      <trkpt lat="43.58919" lon="0.51494">
        <ele>242</ele>
        <time>2020-01-12T13:36:18.000Z</time>
      </trkpt>
      <trkpt lat="43.58919" lon="0.51494">
        <ele>242</ele>
        <time>2020-01-12T13:36:20.000Z</time>
      </trkpt>
      <trkpt lat="43.58919" lon="0.51494">
        <ele>242</ele>
        <time>2020-01-12T13:36:22.000Z</time>
      </trkpt>
      <trkpt lat="43.58919" lon="0.51494">
        <ele>242</ele>
        <time>2020-01-12T13:36:24.000Z</time>
      </trkpt>
      <trkpt lat="43.58919" lon="0.51494">
        <ele>242</ele>
        <time>2020-01-12T13:36:26.000Z</time>
      </trkpt>
      <trkpt lat="43.58919" lon="0.51494">
        <ele>242</ele>
        <time>2020-01-12T13:36:28.000Z</time>
      </trkpt>
      <trkpt lat="43.58919" lon="0.51494">
        <ele>242</ele>
        <time>2020-01-12T13:36:30.000Z</time>
      </trkpt>
      <trkpt lat="43.58919" lon="0.51493">
        <ele>242</ele>
        <time>2020-01-12T13:36:32.000Z</time>
      </trkpt>
      <trkpt lat="43.58919" lon="0.51493">
        <ele>242</ele>
        <time>2020-01-12T13:36:34.000Z</time>
      </trkpt>
      <trkpt lat="43.58919" lon="0.51493">
        <ele>242</ele>
        <time>2020-01-12T13:36:36.000Z</time>
      </trkpt>
      <trkpt lat="43.58919" lon="0.51493">
        <ele>242</ele>
        <time>2020-01-12T13:36:38.000Z</time>
      </trkpt>
      <trkpt lat="43.58919" lon="0.51493">
        <ele>242</ele>
        <time>2020-01-12T13:36:40.000Z</time>
      </trkpt>
      <trkpt lat="43.58919" lon="0.51493">
        <ele>242</ele>
        <time>2020-01-12T13:36:42.000Z</time>
      </trkpt>
      <trkpt lat="43.58919" lon="0.51493">
        <ele>242</ele>
        <time>2020-01-12T13:36:44.000Z</time>
      </trkpt>
      <trkpt lat="43.58919" lon="0.51493">
        <ele>242</ele>
        <time>2020-01-12T13:36:46.000Z</time>
      </trkpt>
      <trkpt lat="43.58919" lon="0.51493">
        <ele>242</ele>
        <time>2020-01-12T13:36:48.000Z</time>
      </trkpt>
      <trkpt lat="43.5892" lon="0.51493">
        <ele>242</ele>
        <time>2020-01-12T13:36:50.000Z</time>
      </trkpt>
      <trkpt lat="43.58919" lon="0.51493">
        <ele>242</ele>
        <time>2020-01-12T13:36:52.000Z</time>
      </trkpt>
      <trkpt lat="43.5892" lon="0.51493">
        <ele>242</ele>
        <time>2020-01-12T13:36:54.000Z</time>
      </trkpt>
      <trkpt lat="43.5892" lon="0.51494">
        <ele>242</ele>
        <time>2020-01-12T13:36:56.000Z</time>
      </trkpt>
      <trkpt lat="43.5892" lon="0.51494">
        <ele>242</ele>
        <time>2020-01-12T13:36:58.000Z</time>
      </trkpt>
      <trkpt lat="43.5892" lon="0.51496">
        <ele>242</ele>
        <time>2020-01-12T13:37:00.000Z</time>
      </trkpt>
      <trkpt lat="43.5892" lon="0.51499">
        <ele>242</ele>
        <time>2020-01-12T13:37:02.000Z</time>
      </trkpt>
      <trkpt lat="43.58919" lon="0.51502">
        <ele>242</ele>
        <time>2020-01-12T13:37:04.000Z</time>
      </trkpt>
      <trkpt lat="43.58919" lon="0.51504">
        <ele>242</ele>
        <time>2020-01-12T13:37:06.000Z</time>
      </trkpt>
      <trkpt lat="43.58919" lon="0.51508">
        <ele>242</ele>
        <time>2020-01-12T13:37:08.000Z</time>
      </trkpt>
      <trkpt lat="43.58919" lon="0.51511">
        <ele>242</ele>
        <time>2020-01-12T13:37:10.000Z</time>
      </trkpt>
      <trkpt lat="43.58919" lon="0.51514">
        <ele>242</ele>
        <time>2020-01-12T13:37:12.000Z</time>
      </trkpt>
      <trkpt lat="43.58919" lon="0.51517">
        <ele>242</ele>
        <time>2020-01-12T13:37:14.000Z</time>
      </trkpt>
      <trkpt lat="43.58919" lon="0.5152">
        <ele>242</ele>
        <time>2020-01-12T13:37:16.000Z</time>
      </trkpt>
      <trkpt lat="43.58918" lon="0.51522">
        <ele>242</ele>
        <time>2020-01-12T13:37:18.000Z</time>
      </trkpt>
      <trkpt lat="43.58918" lon="0.51525">
        <ele>242</ele>
        <time>2020-01-12T13:37:20.000Z</time>
      </trkpt>
      <trkpt lat="43.58918" lon="0.51527">
        <ele>242</ele>
        <time>2020-01-12T13:37:22.000Z</time>
      </trkpt>
      <trkpt lat="43.58918" lon="0.5153">
        <ele>242</ele>
        <time>2020-01-12T13:37:24.000Z</time>
      </trkpt>
      <trkpt lat="43.58918" lon="0.51532">
        <ele>242</ele>
        <time>2020-01-12T13:37:26.000Z</time>
      </trkpt>
      <trkpt lat="43.58919" lon="0.51535">
        <ele>242</ele>
        <time>2020-01-12T13:37:28.000Z</time>
      </trkpt>
      <trkpt lat="43.58918" lon="0.51537">
        <ele>242</ele>
        <time>2020-01-12T13:37:30.000Z</time>
      </trkpt>
      <trkpt lat="43.58918" lon="0.5154">
        <ele>242</ele>
        <time>2020-01-12T13:37:32.000Z</time>
      </trkpt>
      <trkpt lat="43.58918" lon="0.51543">
        <ele>242</ele>
        <time>2020-01-12T13:37:34.000Z</time>
      </trkpt>
      <trkpt lat="43.58918" lon="0.51545">
        <ele>242</ele>
        <time>2020-01-12T13:37:36.000Z</time>
      </trkpt>
      <trkpt lat="43.58917" lon="0.51548">
        <ele>242</ele>
        <time>2020-01-12T13:37:38.000Z</time>
      </trkpt>
      <trkpt lat="43.58917" lon="0.51551">
        <ele>242</ele>
        <time>2020-01-12T13:37:40.000Z</time>
      </trkpt>
      <trkpt lat="43.58916" lon="0.51553">
        <ele>242</ele>
        <time>2020-01-12T13:37:42.000Z</time>
      </trkpt>
      <trkpt lat="43.58917" lon="0.51556">
        <ele>242</ele>
        <time>2020-01-12T13:37:44.000Z</time>
      </trkpt>
      <trkpt lat="43.58917" lon="0.51558">
        <ele>242</ele>
        <time>2020-01-12T13:37:46.000Z</time>
      </trkpt>
      <trkpt lat="43.58916" lon="0.51561">
        <ele>242</ele>
        <time>2020-01-12T13:37:48.000Z</time>
      </trkpt>
      <trkpt lat="43.58916" lon="0.51563">
        <ele>242</ele>
        <time>2020-01-12T13:37:50.000Z</time>
      </trkpt>
      <trkpt lat="43.58916" lon="0.51566">
        <ele>242</ele>
        <time>2020-01-12T13:37:52.000Z</time>
      </trkpt>
      <trkpt lat="43.58916" lon="0.51569">
        <ele>242</ele>
        <time>2020-01-12T13:37:54.000Z</time>
      </trkpt>
      <trkpt lat="43.58915" lon="0.51572">
        <ele>242</ele>
        <time>2020-01-12T13:37:56.000Z</time>
      </trkpt>
      <trkpt lat="43.58916" lon="0.51574">
        <ele>242</ele>
        <time>2020-01-12T13:37:58.000Z</time>
      </trkpt>
      <trkpt lat="43.58916" lon="0.51577">
        <ele>242</ele>
        <time>2020-01-12T13:38:00.000Z</time>
      </trkpt>
      <trkpt lat="43.58915" lon="0.5158">
        <ele>241</ele>
        <time>2020-01-12T13:38:02.000Z</time>
      </trkpt>
      <trkpt lat="43.58915" lon="0.51583">
        <ele>241</ele>
        <time>2020-01-12T13:38:04.000Z</time>
      </trkpt>
      <trkpt lat="43.58915" lon="0.51585">
        <ele>241</ele>
        <time>2020-01-12T13:38:06.000Z</time>
      </trkpt>
      <trkpt lat="43.58914" lon="0.51588">
        <ele>241</ele>
        <time>2020-01-12T13:38:08.000Z</time>
      </trkpt>
      <trkpt lat="43.58914" lon="0.51591">
        <ele>241</ele>
        <time>2020-01-12T13:38:10.000Z</time>
      </trkpt>
      <trkpt lat="43.58913" lon="0.51593">
        <ele>241</ele>
        <time>2020-01-12T13:38:12.000Z</time>
      </trkpt>
      <trkpt lat="43.58913" lon="0.51596">
        <ele>241</ele>
        <time>2020-01-12T13:38:14.000Z</time>
      </trkpt>
      <trkpt lat="43.58912" lon="0.51599">
        <ele>241</ele>
        <time>2020-01-12T13:38:16.000Z</time>
      </trkpt>
      <trkpt lat="43.58912" lon="0.51601">
        <ele>241</ele>
        <time>2020-01-12T13:38:18.000Z</time>
      </trkpt>
      <trkpt lat="43.58912" lon="0.51604">
        <ele>241</ele>
        <time>2020-01-12T13:38:20.000Z</time>
      </trkpt>
      <trkpt lat="43.58912" lon="0.51607">
        <ele>241</ele>
        <time>2020-01-12T13:38:22.000Z</time>
      </trkpt>
      <trkpt lat="43.58911" lon="0.5161">
        <ele>241</ele>
        <time>2020-01-12T13:38:24.000Z</time>
      </trkpt>
      <trkpt lat="43.58911" lon="0.51612">
        <ele>241</ele>
        <time>2020-01-12T13:38:26.000Z</time>
      </trkpt>
      <trkpt lat="43.58911" lon="0.51615">
        <ele>241</ele>
        <time>2020-01-12T13:38:28.000Z</time>
      </trkpt>
      <trkpt lat="43.58911" lon="0.51618">
        <ele>241</ele>
        <time>2020-01-12T13:38:30.000Z</time>
      </trkpt>
      <trkpt lat="43.58911" lon="0.5162">
        <ele>241</ele>
        <time>2020-01-12T13:38:32.000Z</time>
      </trkpt>
      <trkpt lat="43.58911" lon="0.51623">
        <ele>241</ele>
        <time>2020-01-12T13:38:34.000Z</time>
      </trkpt>
      <trkpt lat="43.58911" lon="0.51625">
        <ele>241</ele>
        <time>2020-01-12T13:38:36.000Z</time>
      </trkpt>
      <trkpt lat="43.58911" lon="0.51628">
        <ele>241</ele>
        <time>2020-01-12T13:38:38.000Z</time>
      </trkpt>
      <trkpt lat="43.5891" lon="0.51631">
        <ele>241</ele>
        <time>2020-01-12T13:38:40.000Z</time>
      </trkpt>
      <trkpt lat="43.5891" lon="0.51633">
        <ele>241</ele>
        <time>2020-01-12T13:38:42.000Z</time>
      </trkpt>
      <trkpt lat="43.5891" lon="0.51636">
        <ele>240</ele>
        <time>2020-01-12T13:38:44.000Z</time>
      </trkpt>
      <trkpt lat="43.58909" lon="0.51639">
        <ele>240</ele>
        <time>2020-01-12T13:38:46.000Z</time>
      </trkpt>
      <trkpt lat="43.58909" lon="0.51641">
        <ele>240</ele>
        <time>2020-01-12T13:38:48.000Z</time>
      </trkpt>
      <trkpt lat="43.58909" lon="0.51643">
        <ele>239</ele>
        <time>2020-01-12T13:38:50.000Z</time>
      </trkpt>
      <trkpt lat="43.58909" lon="0.51645">
        <ele>239</ele>
        <time>2020-01-12T13:38:52.000Z</time>
      </trkpt>
      <trkpt lat="43.58908" lon="0.51645">
        <ele>239</ele>
        <time>2020-01-12T13:38:54.000Z</time>
      </trkpt>
      <trkpt lat="43.58908" lon="0.51645">
        <ele>239</ele>
        <time>2020-01-12T13:38:56.000Z</time>
      </trkpt>
      <trkpt lat="43.58908" lon="0.51646">
        <ele>239</ele>
        <time>2020-01-12T13:38:58.000Z</time>
      </trkpt>
      <trkpt lat="43.58907" lon="0.51646">
        <ele>239</ele>
        <time>2020-01-12T13:39:00.000Z</time>
      </trkpt>
      <trkpt lat="43.58908" lon="0.51646">
        <ele>239</ele>
        <time>2020-01-12T13:39:02.000Z</time>
      </trkpt>
      <trkpt lat="43.58907" lon="0.51646">
        <ele>239</ele>
        <time>2020-01-12T13:39:04.000Z</time>
      </trkpt>
      <trkpt lat="43.58908" lon="0.51647">
        <ele>239</ele>
        <time>2020-01-12T13:39:06.000Z</time>
      </trkpt>
      <trkpt lat="43.58908" lon="0.51649">
        <ele>239</ele>
        <time>2020-01-12T13:39:08.000Z</time>
      </trkpt>
      <trkpt lat="43.58909" lon="0.51652">
        <ele>239</ele>
        <time>2020-01-12T13:39:10.000Z</time>
      </trkpt>
      <trkpt lat="43.5891" lon="0.51653">
        <ele>239</ele>
        <time>2020-01-12T13:39:12.000Z</time>
      </trkpt>
      <trkpt lat="43.5891" lon="0.51656">
        <ele>238</ele>
        <time>2020-01-12T13:39:14.000Z</time>
      </trkpt>
      <trkpt lat="43.58911" lon="0.51658">
        <ele>238</ele>
        <time>2020-01-12T13:39:16.000Z</time>
      </trkpt>
      <trkpt lat="43.58911" lon="0.51659">
        <ele>238</ele>
        <time>2020-01-12T13:39:18.000Z</time>
      </trkpt>
      <trkpt lat="43.5891" lon="0.51661">
        <ele>238</ele>
        <time>2020-01-12T13:39:20.000Z</time>
      </trkpt>
      <trkpt lat="43.58909" lon="0.51662">
        <ele>238</ele>
        <time>2020-01-12T13:39:22.000Z</time>
      </trkpt>
      <trkpt lat="43.58909" lon="0.51662">
        <ele>238</ele>
        <time>2020-01-12T13:39:24.000Z</time>
      </trkpt>
      <trkpt lat="43.58908" lon="0.51662">
        <ele>237</ele>
        <time>2020-01-12T13:39:26.000Z</time>
      </trkpt>
      <trkpt lat="43.58909" lon="0.51662">
        <ele>238</ele>
        <time>2020-01-12T13:39:28.000Z</time>
      </trkpt>
      <trkpt lat="43.58909" lon="0.51663">
        <ele>238</ele>
        <time>2020-01-12T13:39:30.000Z</time>
      </trkpt>
      <trkpt lat="43.58909" lon="0.51664">
        <ele>237</ele>
        <time>2020-01-12T13:39:32.000Z</time>
      </trkpt>
      <trkpt lat="43.58909" lon="0.51666">
        <ele>237</ele>
        <time>2020-01-12T13:39:34.000Z</time>
      </trkpt>
      <trkpt lat="43.58908" lon="0.51667">
        <ele>237</ele>
        <time>2020-01-12T13:39:36.000Z</time>
      </trkpt>
      <trkpt lat="43.58909" lon="0.51668">
        <ele>237</ele>
        <time>2020-01-12T13:39:38.000Z</time>
      </trkpt>
      <trkpt lat="43.58909" lon="0.51668">
        <ele>237</ele>
        <time>2020-01-12T13:39:40.000Z</time>
      </trkpt>
      <trkpt lat="43.58909" lon="0.51667">
        <ele>237</ele>
        <time>2020-01-12T13:39:42.000Z</time>
      </trkpt>
      <trkpt lat="43.58909" lon="0.51667">
        <ele>237</ele>
        <time>2020-01-12T13:39:44.000Z</time>
      </trkpt>
      <trkpt lat="43.58909" lon="0.51668">
        <ele>237</ele>
        <time>2020-01-12T13:39:46.000Z</time>
      </trkpt>
      <trkpt lat="43.58909" lon="0.51668">
        <ele>237</ele>
        <time>2020-01-12T13:39:48.000Z</time>
      </trkpt>
      <trkpt lat="43.58909" lon="0.51668">
        <ele>237</ele>
        <time>2020-01-12T13:39:50.000Z</time>
      </trkpt>
      <trkpt lat="43.58909" lon="0.51668">
        <ele>237</ele>
        <time>2020-01-12T13:39:52.000Z</time>
      </trkpt>
      <trkpt lat="43.58908" lon="0.51669">
        <ele>237</ele>
        <time>2020-01-12T13:39:54.000Z</time>
      </trkpt>
      <trkpt lat="43.58908" lon="0.51669">
        <ele>237</ele>
        <time>2020-01-12T13:39:56.000Z</time>
      </trkpt>
      <trkpt lat="43.58908" lon="0.51669">
        <ele>237</ele>
        <time>2020-01-12T13:39:58.000Z</time>
      </trkpt>
      <trkpt lat="43.58908" lon="0.51669">
        <ele>237</ele>
        <time>2020-01-12T13:40:00.000Z</time>
      </trkpt>
      <trkpt lat="43.58908" lon="0.51669">
        <ele>237</ele>
        <time>2020-01-12T13:40:02.000Z</time>
      </trkpt>
      <trkpt lat="43.58908" lon="0.5167">
        <ele>237</ele>
        <time>2020-01-12T13:40:04.000Z</time>
      </trkpt>
      <trkpt lat="43.58908" lon="0.51669">
        <ele>237</ele>
        <time>2020-01-12T13:40:06.000Z</time>
      </trkpt>
      <trkpt lat="43.58908" lon="0.51669">
        <ele>237</ele>
        <time>2020-01-12T13:40:08.000Z</time>
      </trkpt>
      <trkpt lat="43.58908" lon="0.51669">
        <ele>237</ele>
        <time>2020-01-12T13:40:10.000Z</time>
      </trkpt>
      <trkpt lat="43.58909" lon="0.51668">
        <ele>237</ele>
        <time>2020-01-12T13:40:12.000Z</time>
      </trkpt>
      <trkpt lat="43.58908" lon="0.51668">
        <ele>237</ele>
        <time>2020-01-12T13:40:14.000Z</time>
      </trkpt>
      <trkpt lat="43.58908" lon="0.51668">
        <ele>237</ele>
        <time>2020-01-12T13:40:16.000Z</time>
      </trkpt>
      <trkpt lat="43.58908" lon="0.51668">
        <ele>237</ele>
        <time>2020-01-12T13:40:18.000Z</time>
      </trkpt>
      <trkpt lat="43.58908" lon="0.51668">
        <ele>237</ele>
        <time>2020-01-12T13:40:20.000Z</time>
      </trkpt>
      <trkpt lat="43.58908" lon="0.51667">
        <ele>237</ele>
        <time>2020-01-12T13:40:22.000Z</time>
      </trkpt>
      <trkpt lat="43.58908" lon="0.51668">
        <ele>237</ele>
        <time>2020-01-12T13:40:24.000Z</time>
      </trkpt>
      <trkpt lat="43.58908" lon="0.51668">
        <ele>237</ele>
        <time>2020-01-12T13:40:26.000Z</time>
      </trkpt>
      <trkpt lat="43.58908" lon="0.51668">
        <ele>237</ele>
        <time>2020-01-12T13:40:28.000Z</time>
      </trkpt>
      <trkpt lat="43.58908" lon="0.51668">
        <ele>237</ele>
        <time>2020-01-12T13:40:30.000Z</time>
      </trkpt>
      <trkpt lat="43.58908" lon="0.51668">
        <ele>237</ele>
        <time>2020-01-12T13:40:32.000Z</time>
      </trkpt>
      <trkpt lat="43.58908" lon="0.51668">
        <ele>237</ele>
        <time>2020-01-12T13:40:34.000Z</time>
      </trkpt>
      <trkpt lat="43.58908" lon="0.51668">
        <ele>237</ele>
        <time>2020-01-12T13:40:36.000Z</time>
      </trkpt>
      <trkpt lat="43.58908" lon="0.51668">
        <ele>237</ele>
        <time>2020-01-12T13:40:38.000Z</time>
      </trkpt>
      <trkpt lat="43.58908" lon="0.51668">
        <ele>237</ele>
        <time>2020-01-12T13:40:40.000Z</time>
      </trkpt>
      <trkpt lat="43.58908" lon="0.51668">
        <ele>237</ele>
        <time>2020-01-12T13:40:42.000Z</time>
      </trkpt>
      <trkpt lat="43.58908" lon="0.51668">
        <ele>237</ele>
        <time>2020-01-12T13:40:44.000Z</time>
      </trkpt>
      <trkpt lat="43.58908" lon="0.51668">
        <ele>237</ele>
        <time>2020-01-12T13:40:46.000Z</time>
      </trkpt>
      <trkpt lat="43.58908" lon="0.51668">
        <ele>237</ele>
        <time>2020-01-12T13:40:48.000Z</time>
      </trkpt>
      <trkpt lat="43.58908" lon="0.51669">
        <ele>237</ele>
        <time>2020-01-12T13:40:50.000Z</time>
      </trkpt>
      <trkpt lat="43.58908" lon="0.51669">
        <ele>237</ele>
        <time>2020-01-12T13:40:52.000Z</time>
      </trkpt>
      <trkpt lat="43.58908" lon="0.51669">
        <ele>237</ele>
        <time>2020-01-12T13:40:54.000Z</time>
      </trkpt>
      <trkpt lat="43.58908" lon="0.5167">
        <ele>237</ele>
        <time>2020-01-12T13:40:56.000Z</time>
      </trkpt>
      <trkpt lat="43.58908" lon="0.5167">
        <ele>237</ele>
        <time>2020-01-12T13:40:58.000Z</time>
      </trkpt>
      <trkpt lat="43.58908" lon="0.5167">
        <ele>237</ele>
        <time>2020-01-12T13:41:00.000Z</time>
      </trkpt>
      <trkpt lat="43.58908" lon="0.5167">
        <ele>237</ele>
        <time>2020-01-12T13:41:02.000Z</time>
      </trkpt>
      <trkpt lat="43.58908" lon="0.51669">
        <ele>237</ele>
        <time>2020-01-12T13:41:04.000Z</time>
      </trkpt>
      <trkpt lat="43.58908" lon="0.51669">
        <ele>237</ele>
        <time>2020-01-12T13:41:06.000Z</time>
      </trkpt>
      <trkpt lat="43.58908" lon="0.51668">
        <ele>237</ele>
        <time>2020-01-12T13:41:08.000Z</time>
      </trkpt>
      <trkpt lat="43.58908" lon="0.51668">
        <ele>237</ele>
        <time>2020-01-12T13:41:10.000Z</time>
      </trkpt>
      <trkpt lat="43.58908" lon="0.51668">
        <ele>237</ele>
        <time>2020-01-12T13:41:12.000Z</time>
      </trkpt>
      <trkpt lat="43.58908" lon="0.51668">
        <ele>237</ele>
        <time>2020-01-12T13:41:14.000Z</time>
      </trkpt>
      <trkpt lat="43.58908" lon="0.51668">
        <ele>237</ele>
        <time>2020-01-12T13:41:16.000Z</time>
      </trkpt>
      <trkpt lat="43.58908" lon="0.51668">
        <ele>237</ele>
        <time>2020-01-12T13:41:18.000Z</time>
      </trkpt>
      <trkpt lat="43.58909" lon="0.51668">
        <ele>237</ele>
        <time>2020-01-12T13:41:20.000Z</time>
      </trkpt>
      <trkpt lat="43.58909" lon="0.51668">
        <ele>237</ele>
        <time>2020-01-12T13:41:22.000Z</time>
      </trkpt>
      <trkpt lat="43.58908" lon="0.51668">
        <ele>237</ele>
        <time>2020-01-12T13:41:24.000Z</time>
      </trkpt>
      <trkpt lat="43.58909" lon="0.51668">
        <ele>237</ele>
        <time>2020-01-12T13:41:26.000Z</time>
      </trkpt>
      <trkpt lat="43.58909" lon="0.51668">
        <ele>237</ele>
        <time>2020-01-12T13:41:28.000Z</time>
      </trkpt>
      <trkpt lat="43.58909" lon="0.51668">
        <ele>237</ele>
        <time>2020-01-12T13:41:30.000Z</time>
      </trkpt>
      <trkpt lat="43.58909" lon="0.51668">
        <ele>237</ele>
        <time>2020-01-12T13:41:32.000Z</time>
      </trkpt>
      <trkpt lat="43.58909" lon="0.51668">
        <ele>237</ele>
        <time>2020-01-12T13:41:34.000Z</time>
      </trkpt>
      <trkpt lat="43.58909" lon="0.51669">
        <ele>237</ele>
        <time>2020-01-12T13:41:36.000Z</time>
      </trkpt>
      <trkpt lat="43.58908" lon="0.51668">
        <ele>237</ele>
        <time>2020-01-12T13:41:38.000Z</time>
      </trkpt>
      <trkpt lat="43.58908" lon="0.51669">
        <ele>237</ele>
        <time>2020-01-12T13:41:40.000Z</time>
      </trkpt>
      <trkpt lat="43.58909" lon="0.51669">
        <ele>237</ele>
        <time>2020-01-12T13:41:42.000Z</time>
      </trkpt>
      <trkpt lat="43.58909" lon="0.51669">
        <ele>237</ele>
        <time>2020-01-12T13:41:44.000Z</time>
      </trkpt>
      <trkpt lat="43.58909" lon="0.51669">
        <ele>237</ele>
        <time>2020-01-12T13:41:46.000Z</time>
      </trkpt>
      <trkpt lat="43.58909" lon="0.51669">
        <ele>237</ele>
        <time>2020-01-12T13:41:48.000Z</time>
      </trkpt>
      <trkpt lat="43.58909" lon="0.51669">
        <ele>237</ele>
        <time>2020-01-12T13:41:50.000Z</time>
      </trkpt>
      <trkpt lat="43.58909" lon="0.51669">
        <ele>237</ele>
        <time>2020-01-12T13:41:52.000Z</time>
      </trkpt>
      <trkpt lat="43.58909" lon="0.51668">
        <ele>237</ele>
        <time>2020-01-12T13:41:54.000Z</time>
      </trkpt>
      <trkpt lat="43.58908" lon="0.51668">
        <ele>237</ele>
        <time>2020-01-12T13:41:56.000Z</time>
      </trkpt>
      <trkpt lat="43.58908" lon="0.51669">
        <ele>237</ele>
        <time>2020-01-12T13:41:58.000Z</time>
      </trkpt>
      <trkpt lat="43.58908" lon="0.51669">
        <ele>237</ele>
        <time>2020-01-12T13:42:00.000Z</time>
      </trkpt>
      <trkpt lat="43.58908" lon="0.51669">
        <ele>237</ele>
        <time>2020-01-12T13:42:02.000Z</time>
      </trkpt>
      <trkpt lat="43.58908" lon="0.51669">
        <ele>237</ele>
        <time>2020-01-12T13:42:04.000Z</time>
      </trkpt>
      <trkpt lat="43.58908" lon="0.51669">
        <ele>237</ele>
        <time>2020-01-12T13:42:06.000Z</time>
      </trkpt>
      <trkpt lat="43.58908" lon="0.51669">
        <ele>237</ele>
        <time>2020-01-12T13:42:08.000Z</time>
      </trkpt>
      <trkpt lat="43.58907" lon="0.51669">
        <ele>237</ele>
        <time>2020-01-12T13:42:10.000Z</time>
      </trkpt>
      <trkpt lat="43.58907" lon="0.5167">
        <ele>236</ele>
        <time>2020-01-12T13:42:12.000Z</time>
      </trkpt>
      <trkpt lat="43.58906" lon="0.51672">
        <ele>236</ele>
        <time>2020-01-12T13:42:14.000Z</time>
      </trkpt>
      <trkpt lat="43.58905" lon="0.51674">
        <ele>236</ele>
        <time>2020-01-12T13:42:16.000Z</time>
      </trkpt>
      <trkpt lat="43.58904" lon="0.51676">
        <ele>235</ele>
        <time>2020-01-12T13:42:18.000Z</time>
      </trkpt>
      <trkpt lat="43.58903" lon="0.51679">
        <ele>235</ele>
        <time>2020-01-12T13:42:20.000Z</time>
      </trkpt>
      <trkpt lat="43.58902" lon="0.51682">
        <ele>234</ele>
        <time>2020-01-12T13:42:22.000Z</time>
      </trkpt>
      <trkpt lat="43.58901" lon="0.51685">
        <ele>234</ele>
        <time>2020-01-12T13:42:24.000Z</time>
      </trkpt>
      <trkpt lat="43.589" lon="0.51687">
        <ele>234</ele>
        <time>2020-01-12T13:42:26.000Z</time>
      </trkpt>
      <trkpt lat="43.58899" lon="0.51689">
        <ele>234</ele>
        <time>2020-01-12T13:42:28.000Z</time>
      </trkpt>
      <trkpt lat="43.58898" lon="0.51691">
        <ele>235</ele>
        <time>2020-01-12T13:42:30.000Z</time>
      </trkpt>
      <trkpt lat="43.58897" lon="0.51694">
        <ele>235</ele>
        <time>2020-01-12T13:42:32.000Z</time>
      </trkpt>
      <trkpt lat="43.58896" lon="0.51696">
        <ele>235</ele>
        <time>2020-01-12T13:42:34.000Z</time>
      </trkpt>
      <trkpt lat="43.58895" lon="0.51698">
        <ele>235</ele>
        <time>2020-01-12T13:42:36.000Z</time>
      </trkpt>
      <trkpt lat="43.58893" lon="0.517">
        <ele>235</ele>
        <time>2020-01-12T13:42:38.000Z</time>
      </trkpt>
      <trkpt lat="43.58892" lon="0.51703">
        <ele>235</ele>
        <time>2020-01-12T13:42:40.000Z</time>
      </trkpt>
      <trkpt lat="43.58891" lon="0.51705">
        <ele>235</ele>
        <time>2020-01-12T13:42:42.000Z</time>
      </trkpt>
      <trkpt lat="43.5889" lon="0.51705">
        <ele>235</ele>
        <time>2020-01-12T13:42:44.000Z</time>
      </trkpt>
      <trkpt lat="43.58889" lon="0.51705">
        <ele>235</ele>
        <time>2020-01-12T13:42:46.000Z</time>
      </trkpt>
      <trkpt lat="43.58889" lon="0.51707">
        <ele>235</ele>
        <time>2020-01-12T13:42:48.000Z</time>
      </trkpt>
      <trkpt lat="43.58888" lon="0.51709">
        <ele>235</ele>
        <time>2020-01-12T13:42:50.000Z</time>
      </trkpt>
      <trkpt lat="43.58887" lon="0.5171">
        <ele>235</ele>
        <time>2020-01-12T13:42:52.000Z</time>
      </trkpt>
      <trkpt lat="43.58886" lon="0.51712">
        <ele>236</ele>
        <time>2020-01-12T13:42:54.000Z</time>
      </trkpt>
      <trkpt lat="43.58885" lon="0.51714">
        <ele>236</ele>
        <time>2020-01-12T13:42:56.000Z</time>
      </trkpt>
      <trkpt lat="43.58884" lon="0.51716">
        <ele>236</ele>
        <time>2020-01-12T13:42:58.000Z</time>
      </trkpt>
      <trkpt lat="43.58883" lon="0.51718">
        <ele>236</ele>
        <time>2020-01-12T13:43:00.000Z</time>
      </trkpt>
      <trkpt lat="43.58881" lon="0.5172">
        <ele>235</ele>
        <time>2020-01-12T13:43:02.000Z</time>
      </trkpt>
      <trkpt lat="43.5888" lon="0.51722">
        <ele>235</ele>
        <time>2020-01-12T13:43:04.000Z</time>
      </trkpt>
      <trkpt lat="43.58879" lon="0.51724">
        <ele>235</ele>
        <time>2020-01-12T13:43:06.000Z</time>
      </trkpt>
      <trkpt lat="43.58879" lon="0.51726">
        <ele>235</ele>
        <time>2020-01-12T13:43:08.000Z</time>
      </trkpt>
      <trkpt lat="43.58878" lon="0.51728">
        <ele>235</ele>
        <time>2020-01-12T13:43:10.000Z</time>
      </trkpt>
      <trkpt lat="43.58877" lon="0.51731">
        <ele>235</ele>
        <time>2020-01-12T13:43:12.000Z</time>
      </trkpt>
      <trkpt lat="43.58876" lon="0.51733">
        <ele>234</ele>
        <time>2020-01-12T13:43:14.000Z</time>
      </trkpt>
      <trkpt lat="43.58875" lon="0.51736">
        <ele>234</ele>
        <time>2020-01-12T13:43:16.000Z</time>
      </trkpt>
      <trkpt lat="43.58873" lon="0.51738">
        <ele>234</ele>
        <time>2020-01-12T13:43:18.000Z</time>
      </trkpt>
      <trkpt lat="43.58872" lon="0.51741">
        <ele>234</ele>
        <time>2020-01-12T13:43:20.000Z</time>
      </trkpt>
      <trkpt lat="43.58871" lon="0.51744">
        <ele>234</ele>
        <time>2020-01-12T13:43:22.000Z</time>
      </trkpt>
      <trkpt lat="43.5887" lon="0.51746">
        <ele>235</ele>
        <time>2020-01-12T13:43:24.000Z</time>
      </trkpt>
      <trkpt lat="43.58869" lon="0.51748">
        <ele>235</ele>
        <time>2020-01-12T13:43:26.000Z</time>
      </trkpt>
      <trkpt lat="43.58868" lon="0.5175">
        <ele>235</ele>
        <time>2020-01-12T13:43:28.000Z</time>
      </trkpt>
      <trkpt lat="43.58866" lon="0.51752">
        <ele>235</ele>
        <time>2020-01-12T13:43:30.000Z</time>
      </trkpt>
      <trkpt lat="43.58865" lon="0.51755">
        <ele>235</ele>
        <time>2020-01-12T13:43:32.000Z</time>
      </trkpt>
      <trkpt lat="43.58864" lon="0.51757">
        <ele>235</ele>
        <time>2020-01-12T13:43:34.000Z</time>
      </trkpt>
      <trkpt lat="43.58862" lon="0.5176">
        <ele>236</ele>
        <time>2020-01-12T13:43:36.000Z</time>
      </trkpt>
      <trkpt lat="43.58861" lon="0.51762">
        <ele>236</ele>
        <time>2020-01-12T13:43:38.000Z</time>
      </trkpt>
      <trkpt lat="43.5886" lon="0.51765">
        <ele>236</ele>
        <time>2020-01-12T13:43:40.000Z</time>
      </trkpt>
      <trkpt lat="43.58858" lon="0.51768">
        <ele>236</ele>
        <time>2020-01-12T13:43:42.000Z</time>
      </trkpt>
      <trkpt lat="43.58857" lon="0.51771">
        <ele>236</ele>
        <time>2020-01-12T13:43:44.000Z</time>
      </trkpt>
      <trkpt lat="43.58855" lon="0.51774">
        <ele>237</ele>
        <time>2020-01-12T13:43:46.000Z</time>
      </trkpt>
      <trkpt lat="43.58854" lon="0.51776">
        <ele>237</ele>
        <time>2020-01-12T13:43:48.000Z</time>
      </trkpt>
      <trkpt lat="43.58852" lon="0.51779">
        <ele>237</ele>
        <time>2020-01-12T13:43:50.000Z</time>
      </trkpt>
      <trkpt lat="43.58852" lon="0.51782">
        <ele>237</ele>
        <time>2020-01-12T13:43:52.000Z</time>
      </trkpt>
      <trkpt lat="43.58851" lon="0.51785">
        <ele>237</ele>
        <time>2020-01-12T13:43:54.000Z</time>
      </trkpt>
      <trkpt lat="43.5885" lon="0.51787">
        <ele>237</ele>
        <time>2020-01-12T13:43:56.000Z</time>
      </trkpt>
      <trkpt lat="43.58848" lon="0.5179">
        <ele>237</ele>
        <time>2020-01-12T13:43:58.000Z</time>
      </trkpt>
      <trkpt lat="43.58847" lon="0.51793">
        <ele>237</ele>
        <time>2020-01-12T13:44:00.000Z</time>
      </trkpt>
      <trkpt lat="43.58846" lon="0.51796">
        <ele>237</ele>
        <time>2020-01-12T13:44:02.000Z</time>
      </trkpt>
      <trkpt lat="43.58845" lon="0.51798">
        <ele>237</ele>
        <time>2020-01-12T13:44:04.000Z</time>
      </trkpt>
      <trkpt lat="43.58844" lon="0.51801">
        <ele>237</ele>
        <time>2020-01-12T13:44:06.000Z</time>
      </trkpt>
      <trkpt lat="43.58843" lon="0.51804">
        <ele>237</ele>
        <time>2020-01-12T13:44:08.000Z</time>
      </trkpt>
      <trkpt lat="43.58841" lon="0.51807">
        <ele>237</ele>
        <time>2020-01-12T13:44:10.000Z</time>
      </trkpt>
      <trkpt lat="43.58841" lon="0.51809">
        <ele>236</ele>
        <time>2020-01-12T13:44:12.000Z</time>
      </trkpt>
      <trkpt lat="43.5884" lon="0.51812">
        <ele>236</ele>
        <time>2020-01-12T13:44:14.000Z</time>
      </trkpt>
      <trkpt lat="43.58838" lon="0.51815">
        <ele>236</ele>
        <time>2020-01-12T13:44:16.000Z</time>
      </trkpt>
      <trkpt lat="43.58837" lon="0.51818">
        <ele>236</ele>
        <time>2020-01-12T13:44:18.000Z</time>
      </trkpt>
      <trkpt lat="43.58836" lon="0.5182">
        <ele>235</ele>
        <time>2020-01-12T13:44:20.000Z</time>
      </trkpt>
      <trkpt lat="43.58835" lon="0.51823">
        <ele>235</ele>
        <time>2020-01-12T13:44:22.000Z</time>
      </trkpt>
      <trkpt lat="43.58834" lon="0.51826">
        <ele>235</ele>
        <time>2020-01-12T13:44:24.000Z</time>
      </trkpt>
      <trkpt lat="43.58833" lon="0.51828">
        <ele>235</ele>
        <time>2020-01-12T13:44:26.000Z</time>
      </trkpt>
      <trkpt lat="43.58832" lon="0.51831">
        <ele>234</ele>
        <time>2020-01-12T13:44:28.000Z</time>
      </trkpt>
      <trkpt lat="43.58832" lon="0.51833">
        <ele>234</ele>
        <time>2020-01-12T13:44:30.000Z</time>
      </trkpt>
      <trkpt lat="43.58831" lon="0.51835">
        <ele>234</ele>
        <time>2020-01-12T13:44:32.000Z</time>
      </trkpt>
      <trkpt lat="43.58831" lon="0.51838">
        <ele>234</ele>
        <time>2020-01-12T13:44:34.000Z</time>
      </trkpt>
      <trkpt lat="43.5883" lon="0.51841">
        <ele>233</ele>
        <time>2020-01-12T13:44:36.000Z</time>
      </trkpt>
      <trkpt lat="43.58828" lon="0.51844">
        <ele>233</ele>
        <time>2020-01-12T13:44:38.000Z</time>
      </trkpt>
      <trkpt lat="43.58826" lon="0.51846">
        <ele>233</ele>
        <time>2020-01-12T13:44:40.000Z</time>
      </trkpt>
      <trkpt lat="43.58825" lon="0.51849">
        <ele>232</ele>
        <time>2020-01-12T13:44:42.000Z</time>
      </trkpt>
      <trkpt lat="43.58823" lon="0.51852">
        <ele>232</ele>
        <time>2020-01-12T13:44:44.000Z</time>
      </trkpt>
      <trkpt lat="43.58821" lon="0.51855">
        <ele>232</ele>
        <time>2020-01-12T13:44:46.000Z</time>
      </trkpt>
      <trkpt lat="43.5882" lon="0.51858">
        <ele>232</ele>
        <time>2020-01-12T13:44:48.000Z</time>
      </trkpt>
      <trkpt lat="43.58819" lon="0.51861">
        <ele>233</ele>
        <time>2020-01-12T13:44:50.000Z</time>
      </trkpt>
      <trkpt lat="43.58817" lon="0.51864">
        <ele>233</ele>
        <time>2020-01-12T13:44:52.000Z</time>
      </trkpt>
      <trkpt lat="43.58817" lon="0.51867">
        <ele>233</ele>
        <time>2020-01-12T13:44:54.000Z</time>
      </trkpt>
      <trkpt lat="43.58816" lon="0.51869">
        <ele>234</ele>
        <time>2020-01-12T13:44:56.000Z</time>
      </trkpt>
      <trkpt lat="43.58814" lon="0.51873">
        <ele>234</ele>
        <time>2020-01-12T13:44:58.000Z</time>
      </trkpt>
      <trkpt lat="43.58812" lon="0.51876">
        <ele>234</ele>
        <time>2020-01-12T13:45:00.000Z</time>
      </trkpt>
      <trkpt lat="43.58811" lon="0.51878">
        <ele>235</ele>
        <time>2020-01-12T13:45:02.000Z</time>
      </trkpt>
      <trkpt lat="43.5881" lon="0.51881">
        <ele>235</ele>
        <time>2020-01-12T13:45:04.000Z</time>
      </trkpt>
      <trkpt lat="43.58809" lon="0.51884">
        <ele>235</ele>
        <time>2020-01-12T13:45:06.000Z</time>
      </trkpt>
      <trkpt lat="43.58808" lon="0.51887">
        <ele>235</ele>
        <time>2020-01-12T13:45:08.000Z</time>
      </trkpt>
      <trkpt lat="43.58808" lon="0.51889">
        <ele>235</ele>
        <time>2020-01-12T13:45:10.000Z</time>
      </trkpt>
      <trkpt lat="43.58807" lon="0.5189">
        <ele>234</ele>
        <time>2020-01-12T13:45:12.000Z</time>
      </trkpt>
      <trkpt lat="43.58807" lon="0.51892">
        <ele>234</ele>
        <time>2020-01-12T13:45:14.000Z</time>
      </trkpt>
      <trkpt lat="43.58805" lon="0.51895">
        <ele>234</ele>
        <time>2020-01-12T13:45:16.000Z</time>
      </trkpt>
      <trkpt lat="43.58804" lon="0.51898">
        <ele>234</ele>
        <time>2020-01-12T13:45:18.000Z</time>
      </trkpt>
      <trkpt lat="43.58802" lon="0.519">
        <ele>234</ele>
        <time>2020-01-12T13:45:20.000Z</time>
      </trkpt>
      <trkpt lat="43.58801" lon="0.51903">
        <ele>233</ele>
        <time>2020-01-12T13:45:22.000Z</time>
      </trkpt>
      <trkpt lat="43.58799" lon="0.51905">
        <ele>233</ele>
        <time>2020-01-12T13:45:24.000Z</time>
      </trkpt>
      <trkpt lat="43.58798" lon="0.51907">
        <ele>233</ele>
        <time>2020-01-12T13:45:26.000Z</time>
      </trkpt>
      <trkpt lat="43.58797" lon="0.51909">
        <ele>233</ele>
        <time>2020-01-12T13:45:28.000Z</time>
      </trkpt>
      <trkpt lat="43.58795" lon="0.51911">
        <ele>233</ele>
        <time>2020-01-12T13:45:30.000Z</time>
      </trkpt>
      <trkpt lat="43.58794" lon="0.51913">
        <ele>233</ele>
        <time>2020-01-12T13:45:32.000Z</time>
      </trkpt>
      <trkpt lat="43.58792" lon="0.51915">
        <ele>233</ele>
        <time>2020-01-12T13:45:34.000Z</time>
      </trkpt>
      <trkpt lat="43.5879" lon="0.51917">
        <ele>233</ele>
        <time>2020-01-12T13:45:36.000Z</time>
      </trkpt>
      <trkpt lat="43.58789" lon="0.5192">
        <ele>233</ele>
        <time>2020-01-12T13:45:38.000Z</time>
      </trkpt>
      <trkpt lat="43.58787" lon="0.51922">
        <ele>234</ele>
        <time>2020-01-12T13:45:40.000Z</time>
      </trkpt>
      <trkpt lat="43.58785" lon="0.51925">
        <ele>234</ele>
        <time>2020-01-12T13:45:42.000Z</time>
      </trkpt>
      <trkpt lat="43.58783" lon="0.51927">
        <ele>234</ele>
        <time>2020-01-12T13:45:44.000Z</time>
      </trkpt>
      <trkpt lat="43.58782" lon="0.5193">
        <ele>234</ele>
        <time>2020-01-12T13:45:46.000Z</time>
      </trkpt>
      <trkpt lat="43.5878" lon="0.51932">
        <ele>234</ele>
        <time>2020-01-12T13:45:48.000Z</time>
      </trkpt>
      <trkpt lat="43.58778" lon="0.51934">
        <ele>234</ele>
        <time>2020-01-12T13:45:50.000Z</time>
      </trkpt>
      <trkpt lat="43.58777" lon="0.51937">
        <ele>235</ele>
        <time>2020-01-12T13:45:52.000Z</time>
      </trkpt>
      <trkpt lat="43.58775" lon="0.51939">
        <ele>235</ele>
        <time>2020-01-12T13:45:54.000Z</time>
      </trkpt>
      <trkpt lat="43.58774" lon="0.51942">
        <ele>235</ele>
        <time>2020-01-12T13:45:56.000Z</time>
      </trkpt>
      <trkpt lat="43.58772" lon="0.51944">
        <ele>235</ele>
        <time>2020-01-12T13:45:58.000Z</time>
      </trkpt>
      <trkpt lat="43.58771" lon="0.51946">
        <ele>235</ele>
        <time>2020-01-12T13:46:00.000Z</time>
      </trkpt>
      <trkpt lat="43.58769" lon="0.51949">
        <ele>235</ele>
        <time>2020-01-12T13:46:02.000Z</time>
      </trkpt>
      <trkpt lat="43.58767" lon="0.51952">
        <ele>235</ele>
        <time>2020-01-12T13:46:04.000Z</time>
      </trkpt>
      <trkpt lat="43.58765" lon="0.51955">
        <ele>235</ele>
        <time>2020-01-12T13:46:06.000Z</time>
      </trkpt>
      <trkpt lat="43.58764" lon="0.51958">
        <ele>234</ele>
        <time>2020-01-12T13:46:08.000Z</time>
      </trkpt>
      <trkpt lat="43.58763" lon="0.5196">
        <ele>234</ele>
        <time>2020-01-12T13:46:10.000Z</time>
      </trkpt>
      <trkpt lat="43.58762" lon="0.51963">
        <ele>234</ele>
        <time>2020-01-12T13:46:12.000Z</time>
      </trkpt>
      <trkpt lat="43.58761" lon="0.51965">
        <ele>234</ele>
        <time>2020-01-12T13:46:14.000Z</time>
      </trkpt>
      <trkpt lat="43.58759" lon="0.51968">
        <ele>234</ele>
        <time>2020-01-12T13:46:16.000Z</time>
      </trkpt>
      <trkpt lat="43.58757" lon="0.51971">
        <ele>234</ele>
        <time>2020-01-12T13:46:18.000Z</time>
      </trkpt>
      <trkpt lat="43.58754" lon="0.51973">
        <ele>234</ele>
        <time>2020-01-12T13:46:20.000Z</time>
      </trkpt>
      <trkpt lat="43.58753" lon="0.51974">
        <ele>234</ele>
        <time>2020-01-12T13:46:22.000Z</time>
      </trkpt>
      <trkpt lat="43.58753" lon="0.51976">
        <ele>233</ele>
        <time>2020-01-12T13:46:24.000Z</time>
      </trkpt>
      <trkpt lat="43.58752" lon="0.51977">
        <ele>233</ele>
        <time>2020-01-12T13:46:26.000Z</time>
      </trkpt>
      <trkpt lat="43.5875" lon="0.51977">
        <ele>233</ele>
        <time>2020-01-12T13:46:28.000Z</time>
      </trkpt>
      <trkpt lat="43.58748" lon="0.51978">
        <ele>233</ele>
        <time>2020-01-12T13:46:30.000Z</time>
      </trkpt>
      <trkpt lat="43.58747" lon="0.51979">
        <ele>233</ele>
        <time>2020-01-12T13:46:32.000Z</time>
      </trkpt>
      <trkpt lat="43.58745" lon="0.51979">
        <ele>233</ele>
        <time>2020-01-12T13:46:34.000Z</time>
      </trkpt>
      <trkpt lat="43.58745" lon="0.5198">
        <ele>233</ele>
        <time>2020-01-12T13:46:36.000Z</time>
      </trkpt>
      <trkpt lat="43.58744" lon="0.51981">
        <ele>233</ele>
        <time>2020-01-12T13:46:38.000Z</time>
      </trkpt>
      <trkpt lat="43.58743" lon="0.5198">
        <ele>233</ele>
        <time>2020-01-12T13:46:40.000Z</time>
      </trkpt>
      <trkpt lat="43.58742" lon="0.5198">
        <ele>232</ele>
        <time>2020-01-12T13:46:42.000Z</time>
      </trkpt>
      <trkpt lat="43.58741" lon="0.51981">
        <ele>232</ele>
        <time>2020-01-12T13:46:44.000Z</time>
      </trkpt>
      <trkpt lat="43.5874" lon="0.51983">
        <ele>232</ele>
        <time>2020-01-12T13:46:46.000Z</time>
      </trkpt>
      <trkpt lat="43.58738" lon="0.51984">
        <ele>232</ele>
        <time>2020-01-12T13:46:48.000Z</time>
      </trkpt>
      <trkpt lat="43.58737" lon="0.51985">
        <ele>232</ele>
        <time>2020-01-12T13:46:50.000Z</time>
      </trkpt>
      <trkpt lat="43.58736" lon="0.51986">
        <ele>232</ele>
        <time>2020-01-12T13:46:52.000Z</time>
      </trkpt>
      <trkpt lat="43.58735" lon="0.51986">
        <ele>232</ele>
        <time>2020-01-12T13:46:54.000Z</time>
      </trkpt>
      <trkpt lat="43.58734" lon="0.51987">
        <ele>231</ele>
        <time>2020-01-12T13:46:56.000Z</time>
      </trkpt>
      <trkpt lat="43.58733" lon="0.51988">
        <ele>231</ele>
        <time>2020-01-12T13:46:58.000Z</time>
      </trkpt>
      <trkpt lat="43.58733" lon="0.51989">
        <ele>231</ele>
        <time>2020-01-12T13:47:00.000Z</time>
      </trkpt>
      <trkpt lat="43.58732" lon="0.51989">
        <ele>231</ele>
        <time>2020-01-12T13:47:02.000Z</time>
      </trkpt>
      <trkpt lat="43.58733" lon="0.5199">
        <ele>231</ele>
        <time>2020-01-12T13:47:04.000Z</time>
      </trkpt>
      <trkpt lat="43.58732" lon="0.51991">
        <ele>231</ele>
        <time>2020-01-12T13:47:06.000Z</time>
      </trkpt>
      <trkpt lat="43.58731" lon="0.51993">
        <ele>231</ele>
        <time>2020-01-12T13:47:08.000Z</time>
      </trkpt>
      <trkpt lat="43.58729" lon="0.51994">
        <ele>231</ele>
        <time>2020-01-12T13:47:10.000Z</time>
      </trkpt>
      <trkpt lat="43.58726" lon="0.51995">
        <ele>230</ele>
        <time>2020-01-12T13:47:12.000Z</time>
      </trkpt>
      <trkpt lat="43.58725" lon="0.51996">
        <ele>230</ele>
        <time>2020-01-12T13:47:14.000Z</time>
      </trkpt>
      <trkpt lat="43.58722" lon="0.51998">
        <ele>230</ele>
        <time>2020-01-12T13:47:16.000Z</time>
      </trkpt>
      <trkpt lat="43.58721" lon="0.51999">
        <ele>230</ele>
        <time>2020-01-12T13:47:18.000Z</time>
      </trkpt>
      <trkpt lat="43.5872" lon="0.52">
        <ele>229</ele>
        <time>2020-01-12T13:47:20.000Z</time>
      </trkpt>
      <trkpt lat="43.58719" lon="0.52002">
        <ele>229</ele>
        <time>2020-01-12T13:47:22.000Z</time>
      </trkpt>
      <trkpt lat="43.58719" lon="0.52003">
        <ele>230</ele>
        <time>2020-01-12T13:47:24.000Z</time>
      </trkpt>
      <trkpt lat="43.58717" lon="0.52005">
        <ele>230</ele>
        <time>2020-01-12T13:47:26.000Z</time>
      </trkpt>
      <trkpt lat="43.58716" lon="0.52007">
        <ele>230</ele>
        <time>2020-01-12T13:47:28.000Z</time>
      </trkpt>
      <trkpt lat="43.58715" lon="0.52009">
        <ele>230</ele>
        <time>2020-01-12T13:47:30.000Z</time>
      </trkpt>
      <trkpt lat="43.58714" lon="0.5201">
        <ele>231</ele>
        <time>2020-01-12T13:47:32.000Z</time>
      </trkpt>
      <trkpt lat="43.58713" lon="0.52012">
        <ele>231</ele>
        <time>2020-01-12T13:47:34.000Z</time>
      </trkpt>
      <trkpt lat="43.58713" lon="0.52014">
        <ele>231</ele>
        <time>2020-01-12T13:47:36.000Z</time>
      </trkpt>
      <trkpt lat="43.58712" lon="0.52016">
        <ele>231</ele>
        <time>2020-01-12T13:47:38.000Z</time>
      </trkpt>
      <trkpt lat="43.5871" lon="0.52018">
        <ele>232</ele>
        <time>2020-01-12T13:47:40.000Z</time>
      </trkpt>
      <trkpt lat="43.58708" lon="0.52021">
        <ele>232</ele>
        <time>2020-01-12T13:47:42.000Z</time>
      </trkpt>
      <trkpt lat="43.58707" lon="0.52023">
        <ele>232</ele>
        <time>2020-01-12T13:47:44.000Z</time>
      </trkpt>
      <trkpt lat="43.58705" lon="0.52025">
        <ele>233</ele>
        <time>2020-01-12T13:47:46.000Z</time>
      </trkpt>
      <trkpt lat="43.58704" lon="0.52027">
        <ele>233</ele>
        <time>2020-01-12T13:47:48.000Z</time>
      </trkpt>
      <trkpt lat="43.58702" lon="0.52029">
        <ele>233</ele>
        <time>2020-01-12T13:47:50.000Z</time>
      </trkpt>
      <trkpt lat="43.58701" lon="0.52031">
        <ele>234</ele>
        <time>2020-01-12T13:47:52.000Z</time>
      </trkpt>
      <trkpt lat="43.58701" lon="0.52033">
        <ele>234</ele>
        <time>2020-01-12T13:47:54.000Z</time>
      </trkpt>
      <trkpt lat="43.58699" lon="0.52035">
        <ele>234</ele>
        <time>2020-01-12T13:47:56.000Z</time>
      </trkpt>
      <trkpt lat="43.58698" lon="0.52037">
        <ele>234</ele>
        <time>2020-01-12T13:47:58.000Z</time>
      </trkpt>
      <trkpt lat="43.58697" lon="0.52039">
        <ele>235</ele>
        <time>2020-01-12T13:48:00.000Z</time>
      </trkpt>
      <trkpt lat="43.58696" lon="0.52042">
        <ele>235</ele>
        <time>2020-01-12T13:48:02.000Z</time>
      </trkpt>
      <trkpt lat="43.58695" lon="0.52044">
        <ele>235</ele>
        <time>2020-01-12T13:48:04.000Z</time>
      </trkpt>
      <trkpt lat="43.58694" lon="0.52047">
        <ele>236</ele>
        <time>2020-01-12T13:48:06.000Z</time>
      </trkpt>
      <trkpt lat="43.58693" lon="0.52048">
        <ele>236</ele>
        <time>2020-01-12T13:48:08.000Z</time>
      </trkpt>
      <trkpt lat="43.58692" lon="0.5205">
        <ele>236</ele>
        <time>2020-01-12T13:48:10.000Z</time>
      </trkpt>
      <trkpt lat="43.58691" lon="0.52052">
        <ele>236</ele>
        <time>2020-01-12T13:48:12.000Z</time>
      </trkpt>
      <trkpt lat="43.5869" lon="0.52055">
        <ele>236</ele>
        <time>2020-01-12T13:48:14.000Z</time>
      </trkpt>
      <trkpt lat="43.58689" lon="0.52057">
        <ele>236</ele>
        <time>2020-01-12T13:48:16.000Z</time>
      </trkpt>
      <trkpt lat="43.58688" lon="0.5206">
        <ele>236</ele>
        <time>2020-01-12T13:48:18.000Z</time>
      </trkpt>
      <trkpt lat="43.58687" lon="0.52062">
        <ele>236</ele>
        <time>2020-01-12T13:48:20.000Z</time>
      </trkpt>
      <trkpt lat="43.58686" lon="0.52065">
        <ele>236</ele>
        <time>2020-01-12T13:48:22.000Z</time>
      </trkpt>
      <trkpt lat="43.58684" lon="0.52067">
        <ele>236</ele>
        <time>2020-01-12T13:48:24.000Z</time>
      </trkpt>
      <trkpt lat="43.58683" lon="0.52069">
        <ele>236</ele>
        <time>2020-01-12T13:48:26.000Z</time>
      </trkpt>
      <trkpt lat="43.58681" lon="0.5207">
        <ele>235</ele>
        <time>2020-01-12T13:48:28.000Z</time>
      </trkpt>
      <trkpt lat="43.5868" lon="0.52072">
        <ele>235</ele>
        <time>2020-01-12T13:48:30.000Z</time>
      </trkpt>
      <trkpt lat="43.58679" lon="0.52074">
        <ele>235</ele>
        <time>2020-01-12T13:48:32.000Z</time>
      </trkpt>
      <trkpt lat="43.58678" lon="0.52075">
        <ele>235</ele>
        <time>2020-01-12T13:48:34.000Z</time>
      </trkpt>
      <trkpt lat="43.58677" lon="0.52077">
        <ele>234</ele>
        <time>2020-01-12T13:48:36.000Z</time>
      </trkpt>
      <trkpt lat="43.58676" lon="0.52079">
        <ele>234</ele>
        <time>2020-01-12T13:48:38.000Z</time>
      </trkpt>
      <trkpt lat="43.58674" lon="0.52082">
        <ele>234</ele>
        <time>2020-01-12T13:48:40.000Z</time>
      </trkpt>
      <trkpt lat="43.58673" lon="0.52084">
        <ele>234</ele>
        <time>2020-01-12T13:48:42.000Z</time>
      </trkpt>
      <trkpt lat="43.58671" lon="0.52086">
        <ele>233</ele>
        <time>2020-01-12T13:48:44.000Z</time>
      </trkpt>
      <trkpt lat="43.58669" lon="0.52088">
        <ele>233</ele>
        <time>2020-01-12T13:48:46.000Z</time>
      </trkpt>
      <trkpt lat="43.58668" lon="0.5209">
        <ele>233</ele>
        <time>2020-01-12T13:48:48.000Z</time>
      </trkpt>
      <trkpt lat="43.58667" lon="0.52092">
        <ele>233</ele>
        <time>2020-01-12T13:48:50.000Z</time>
      </trkpt>
      <trkpt lat="43.58665" lon="0.52093">
        <ele>232</ele>
        <time>2020-01-12T13:48:52.000Z</time>
      </trkpt>
      <trkpt lat="43.58664" lon="0.52095">
        <ele>232</ele>
        <time>2020-01-12T13:48:54.000Z</time>
      </trkpt>
      <trkpt lat="43.58662" lon="0.52097">
        <ele>232</ele>
        <time>2020-01-12T13:48:56.000Z</time>
      </trkpt>
      <trkpt lat="43.58661" lon="0.52099">
        <ele>232</ele>
        <time>2020-01-12T13:48:58.000Z</time>
      </trkpt>
      <trkpt lat="43.5866" lon="0.52101">
        <ele>232</ele>
        <time>2020-01-12T13:49:00.000Z</time>
      </trkpt>
      <trkpt lat="43.58658" lon="0.52103">
        <ele>231</ele>
        <time>2020-01-12T13:49:02.000Z</time>
      </trkpt>
      <trkpt lat="43.58657" lon="0.52105">
        <ele>231</ele>
        <time>2020-01-12T13:49:04.000Z</time>
      </trkpt>
      <trkpt lat="43.58656" lon="0.52107">
        <ele>231</ele>
        <time>2020-01-12T13:49:06.000Z</time>
      </trkpt>
      <trkpt lat="43.58655" lon="0.52109">
        <ele>231</ele>
        <time>2020-01-12T13:49:08.000Z</time>
      </trkpt>
      <trkpt lat="43.58653" lon="0.52111">
        <ele>232</ele>
        <time>2020-01-12T13:49:10.000Z</time>
      </trkpt>
      <trkpt lat="43.58651" lon="0.52114">
        <ele>232</ele>
        <time>2020-01-12T13:49:12.000Z</time>
      </trkpt>
      <trkpt lat="43.58649" lon="0.52116">
        <ele>232</ele>
        <time>2020-01-12T13:49:14.000Z</time>
      </trkpt>
      <trkpt lat="43.58648" lon="0.52119">
        <ele>232</ele>
        <time>2020-01-12T13:49:16.000Z</time>
      </trkpt>
      <trkpt lat="43.58646" lon="0.52122">
        <ele>233</ele>
        <time>2020-01-12T13:49:18.000Z</time>
      </trkpt>
      <trkpt lat="43.58645" lon="0.52124">
        <ele>233</ele>
        <time>2020-01-12T13:49:20.000Z</time>
      </trkpt>
      <trkpt lat="43.58643" lon="0.52126">
        <ele>233</ele>
        <time>2020-01-12T13:49:22.000Z</time>
      </trkpt>
      <trkpt lat="43.58642" lon="0.52128">
        <ele>233</ele>
        <time>2020-01-12T13:49:24.000Z</time>
      </trkpt>
      <trkpt lat="43.5864" lon="0.5213">
        <ele>233</ele>
        <time>2020-01-12T13:49:26.000Z</time>
      </trkpt>
      <trkpt lat="43.58638" lon="0.52132">
        <ele>234</ele>
        <time>2020-01-12T13:49:28.000Z</time>
      </trkpt>
      <trkpt lat="43.58636" lon="0.52134">
        <ele>234</ele>
        <time>2020-01-12T13:49:30.000Z</time>
      </trkpt>
      <trkpt lat="43.58635" lon="0.52135">
        <ele>234</ele>
        <time>2020-01-12T13:49:32.000Z</time>
      </trkpt>
      <trkpt lat="43.58634" lon="0.52137">
        <ele>233</ele>
        <time>2020-01-12T13:49:34.000Z</time>
      </trkpt>
      <trkpt lat="43.58633" lon="0.52139">
        <ele>233</ele>
        <time>2020-01-12T13:49:36.000Z</time>
      </trkpt>
      <trkpt lat="43.58631" lon="0.5214">
        <ele>233</ele>
        <time>2020-01-12T13:49:38.000Z</time>
      </trkpt>
      <trkpt lat="43.5863" lon="0.52142">
        <ele>233</ele>
        <time>2020-01-12T13:49:40.000Z</time>
      </trkpt>
      <trkpt lat="43.58628" lon="0.52144">
        <ele>233</ele>
        <time>2020-01-12T13:49:42.000Z</time>
      </trkpt>
      <trkpt lat="43.58626" lon="0.52147">
        <ele>232</ele>
        <time>2020-01-12T13:49:44.000Z</time>
      </trkpt>
      <trkpt lat="43.58625" lon="0.52148">
        <ele>232</ele>
        <time>2020-01-12T13:49:46.000Z</time>
      </trkpt>
      <trkpt lat="43.58624" lon="0.52149">
        <ele>232</ele>
        <time>2020-01-12T13:49:48.000Z</time>
      </trkpt>
      <trkpt lat="43.58623" lon="0.52151">
        <ele>232</ele>
        <time>2020-01-12T13:49:50.000Z</time>
      </trkpt>
      <trkpt lat="43.58622" lon="0.52153">
        <ele>232</ele>
        <time>2020-01-12T13:49:52.000Z</time>
      </trkpt>
      <trkpt lat="43.5862" lon="0.52154">
        <ele>232</ele>
        <time>2020-01-12T13:49:54.000Z</time>
      </trkpt>
      <trkpt lat="43.58619" lon="0.52156">
        <ele>232</ele>
        <time>2020-01-12T13:49:56.000Z</time>
      </trkpt>
      <trkpt lat="43.58617" lon="0.52157">
        <ele>232</ele>
        <time>2020-01-12T13:49:58.000Z</time>
      </trkpt>
      <trkpt lat="43.58616" lon="0.52159">
        <ele>232</ele>
        <time>2020-01-12T13:50:00.000Z</time>
      </trkpt>
      <trkpt lat="43.58615" lon="0.52161">
        <ele>232</ele>
        <time>2020-01-12T13:50:02.000Z</time>
      </trkpt>
      <trkpt lat="43.58614" lon="0.52163">
        <ele>232</ele>
        <time>2020-01-12T13:50:04.000Z</time>
      </trkpt>
      <trkpt lat="43.58612" lon="0.52165">
        <ele>232</ele>
        <time>2020-01-12T13:50:06.000Z</time>
      </trkpt>
      <trkpt lat="43.58611" lon="0.52168">
        <ele>232</ele>
        <time>2020-01-12T13:50:08.000Z</time>
      </trkpt>
      <trkpt lat="43.58609" lon="0.52169">
        <ele>233</ele>
        <time>2020-01-12T13:50:10.000Z</time>
      </trkpt>
      <trkpt lat="43.58608" lon="0.52171">
        <ele>233</ele>
        <time>2020-01-12T13:50:12.000Z</time>
      </trkpt>
      <trkpt lat="43.58606" lon="0.52173">
        <ele>233</ele>
        <time>2020-01-12T13:50:14.000Z</time>
      </trkpt>
      <trkpt lat="43.58605" lon="0.52174">
        <ele>233</ele>
        <time>2020-01-12T13:50:16.000Z</time>
      </trkpt>
      <trkpt lat="43.58603" lon="0.52176">
        <ele>233</ele>
        <time>2020-01-12T13:50:18.000Z</time>
      </trkpt>
      <trkpt lat="43.58602" lon="0.52178">
        <ele>233</ele>
        <time>2020-01-12T13:50:20.000Z</time>
      </trkpt>
      <trkpt lat="43.58601" lon="0.5218">
        <ele>233</ele>
        <time>2020-01-12T13:50:22.000Z</time>
      </trkpt>
      <trkpt lat="43.58599" lon="0.52182">
        <ele>233</ele>
        <time>2020-01-12T13:50:24.000Z</time>
      </trkpt>
      <trkpt lat="43.58598" lon="0.52182">
        <ele>232</ele>
        <time>2020-01-12T13:50:26.000Z</time>
      </trkpt>
      <trkpt lat="43.58596" lon="0.52184">
        <ele>232</ele>
        <time>2020-01-12T13:50:28.000Z</time>
      </trkpt>
      <trkpt lat="43.58594" lon="0.52185">
        <ele>232</ele>
        <time>2020-01-12T13:50:30.000Z</time>
      </trkpt>
      <trkpt lat="43.58592" lon="0.52187">
        <ele>231</ele>
        <time>2020-01-12T13:50:32.000Z</time>
      </trkpt>
      <trkpt lat="43.58589" lon="0.52189">
        <ele>231</ele>
        <time>2020-01-12T13:50:34.000Z</time>
      </trkpt>
      <trkpt lat="43.58588" lon="0.5219">
        <ele>230</ele>
        <time>2020-01-12T13:50:36.000Z</time>
      </trkpt>
      <trkpt lat="43.58586" lon="0.52191">
        <ele>230</ele>
        <time>2020-01-12T13:50:38.000Z</time>
      </trkpt>
      <trkpt lat="43.58584" lon="0.52193">
        <ele>230</ele>
        <time>2020-01-12T13:50:40.000Z</time>
      </trkpt>
      <trkpt lat="43.58581" lon="0.52194">
        <ele>229</ele>
        <time>2020-01-12T13:50:42.000Z</time>
      </trkpt>
      <trkpt lat="43.5858" lon="0.52196">
        <ele>229</ele>
        <time>2020-01-12T13:50:44.000Z</time>
      </trkpt>
      <trkpt lat="43.58578" lon="0.52197">
        <ele>229</ele>
        <time>2020-01-12T13:50:46.000Z</time>
      </trkpt>
      <trkpt lat="43.58576" lon="0.52198">
        <ele>229</ele>
        <time>2020-01-12T13:50:48.000Z</time>
      </trkpt>
      <trkpt lat="43.58574" lon="0.522">
        <ele>229</ele>
        <time>2020-01-12T13:50:50.000Z</time>
      </trkpt>
      <trkpt lat="43.58573" lon="0.52201">
        <ele>229</ele>
        <time>2020-01-12T13:50:52.000Z</time>
      </trkpt>
      <trkpt lat="43.58571" lon="0.52203">
        <ele>229</ele>
        <time>2020-01-12T13:50:54.000Z</time>
      </trkpt>
      <trkpt lat="43.58569" lon="0.52205">
        <ele>229</ele>
        <time>2020-01-12T13:50:56.000Z</time>
      </trkpt>
      <trkpt lat="43.58568" lon="0.52207">
        <ele>229</ele>
        <time>2020-01-12T13:50:58.000Z</time>
      </trkpt>
      <trkpt lat="43.58567" lon="0.52209">
        <ele>229</ele>
        <time>2020-01-12T13:51:00.000Z</time>
      </trkpt>
      <trkpt lat="43.58565" lon="0.5221">
        <ele>229</ele>
        <time>2020-01-12T13:51:02.000Z</time>
      </trkpt>
      <trkpt lat="43.58563" lon="0.52212">
        <ele>229</ele>
        <time>2020-01-12T13:51:04.000Z</time>
      </trkpt>
      <trkpt lat="43.58562" lon="0.52212">
        <ele>229</ele>
        <time>2020-01-12T13:51:06.000Z</time>
      </trkpt>
      <trkpt lat="43.58561" lon="0.52212">
        <ele>229</ele>
        <time>2020-01-12T13:51:08.000Z</time>
      </trkpt>
      <trkpt lat="43.5856" lon="0.52213">
        <ele>229</ele>
        <time>2020-01-12T13:51:10.000Z</time>
      </trkpt>
      <trkpt lat="43.58561" lon="0.52213">
        <ele>229</ele>
        <time>2020-01-12T13:51:12.000Z</time>
      </trkpt>
      <trkpt lat="43.58561" lon="0.52213">
        <ele>229</ele>
        <time>2020-01-12T13:51:14.000Z</time>
      </trkpt>
      <trkpt lat="43.58561" lon="0.52214">
        <ele>229</ele>
        <time>2020-01-12T13:51:16.000Z</time>
      </trkpt>
      <trkpt lat="43.58561" lon="0.52214">
        <ele>229</ele>
        <time>2020-01-12T13:51:18.000Z</time>
      </trkpt>
      <trkpt lat="43.58561" lon="0.52215">
        <ele>229</ele>
        <time>2020-01-12T13:51:20.000Z</time>
      </trkpt>
      <trkpt lat="43.5856" lon="0.52216">
        <ele>229</ele>
        <time>2020-01-12T13:51:22.000Z</time>
      </trkpt>
      <trkpt lat="43.58559" lon="0.52216">
        <ele>229</ele>
        <time>2020-01-12T13:51:24.000Z</time>
      </trkpt>
      <trkpt lat="43.58559" lon="0.52216">
        <ele>229</ele>
        <time>2020-01-12T13:51:26.000Z</time>
      </trkpt>
      <trkpt lat="43.58558" lon="0.52216">
        <ele>229</ele>
        <time>2020-01-12T13:51:28.000Z</time>
      </trkpt>
      <trkpt lat="43.58558" lon="0.52216">
        <ele>229</ele>
        <time>2020-01-12T13:51:30.000Z</time>
      </trkpt>
      <trkpt lat="43.58558" lon="0.52215">
        <ele>229</ele>
        <time>2020-01-12T13:51:32.000Z</time>
      </trkpt>
      <trkpt lat="43.58557" lon="0.52215">
        <ele>229</ele>
        <time>2020-01-12T13:51:34.000Z</time>
      </trkpt>
      <trkpt lat="43.58556" lon="0.52216">
        <ele>229</ele>
        <time>2020-01-12T13:51:36.000Z</time>
      </trkpt>
      <trkpt lat="43.58556" lon="0.52216">
        <ele>229</ele>
        <time>2020-01-12T13:51:38.000Z</time>
      </trkpt>
      <trkpt lat="43.58556" lon="0.52216">
        <ele>229</ele>
        <time>2020-01-12T13:51:40.000Z</time>
      </trkpt>
      <trkpt lat="43.58556" lon="0.52216">
        <ele>229</ele>
        <time>2020-01-12T13:51:42.000Z</time>
      </trkpt>
      <trkpt lat="43.58556" lon="0.52217">
        <ele>229</ele>
        <time>2020-01-12T13:51:44.000Z</time>
      </trkpt>
      <trkpt lat="43.58555" lon="0.52217">
        <ele>229</ele>
        <time>2020-01-12T13:51:46.000Z</time>
      </trkpt>
      <trkpt lat="43.58555" lon="0.52217">
        <ele>229</ele>
        <time>2020-01-12T13:51:48.000Z</time>
      </trkpt>
      <trkpt lat="43.58554" lon="0.52217">
        <ele>229</ele>
        <time>2020-01-12T13:51:50.000Z</time>
      </trkpt>
      <trkpt lat="43.58554" lon="0.52218">
        <ele>229</ele>
        <time>2020-01-12T13:51:52.000Z</time>
      </trkpt>
      <trkpt lat="43.58553" lon="0.52218">
        <ele>229</ele>
        <time>2020-01-12T13:51:54.000Z</time>
      </trkpt>
      <trkpt lat="43.58553" lon="0.52218">
        <ele>229</ele>
        <time>2020-01-12T13:51:56.000Z</time>
      </trkpt>
      <trkpt lat="43.58553" lon="0.52218">
        <ele>228</ele>
        <time>2020-01-12T13:51:58.000Z</time>
      </trkpt>
      <trkpt lat="43.58553" lon="0.52218">
        <ele>228</ele>
        <time>2020-01-12T13:52:00.000Z</time>
      </trkpt>
      <trkpt lat="43.58553" lon="0.52218">
        <ele>228</ele>
        <time>2020-01-12T13:52:02.000Z</time>
      </trkpt>
      <trkpt lat="43.58553" lon="0.52218">
        <ele>228</ele>
        <time>2020-01-12T13:52:04.000Z</time>
      </trkpt>
      <trkpt lat="43.58553" lon="0.52218">
        <ele>229</ele>
        <time>2020-01-12T13:52:06.000Z</time>
      </trkpt>
      <trkpt lat="43.58552" lon="0.52218">
        <ele>228</ele>
        <time>2020-01-12T13:52:08.000Z</time>
      </trkpt>
      <trkpt lat="43.58552" lon="0.52219">
        <ele>228</ele>
        <time>2020-01-12T13:52:10.000Z</time>
      </trkpt>
      <trkpt lat="43.58552" lon="0.52219">
        <ele>228</ele>
        <time>2020-01-12T13:52:12.000Z</time>
      </trkpt>
      <trkpt lat="43.58552" lon="0.5222">
        <ele>228</ele>
        <time>2020-01-12T13:52:14.000Z</time>
      </trkpt>
      <trkpt lat="43.58551" lon="0.52221">
        <ele>228</ele>
        <time>2020-01-12T13:52:16.000Z</time>
      </trkpt>
      <trkpt lat="43.58551" lon="0.5222">
        <ele>228</ele>
        <time>2020-01-12T13:52:18.000Z</time>
      </trkpt>
      <trkpt lat="43.58551" lon="0.5222">
        <ele>228</ele>
        <time>2020-01-12T13:52:20.000Z</time>
      </trkpt>
      <trkpt lat="43.58551" lon="0.5222">
        <ele>228</ele>
        <time>2020-01-12T13:52:22.000Z</time>
      </trkpt>
      <trkpt lat="43.58551" lon="0.5222">
        <ele>228</ele>
        <time>2020-01-12T13:52:24.000Z</time>
      </trkpt>
      <trkpt lat="43.58551" lon="0.5222">
        <ele>228</ele>
        <time>2020-01-12T13:52:26.000Z</time>
      </trkpt>
      <trkpt lat="43.58551" lon="0.5222">
        <ele>228</ele>
        <time>2020-01-12T13:52:28.000Z</time>
      </trkpt>
      <trkpt lat="43.58551" lon="0.5222">
        <ele>228</ele>
        <time>2020-01-12T13:52:30.000Z</time>
      </trkpt>
      <trkpt lat="43.5855" lon="0.5222">
        <ele>228</ele>
        <time>2020-01-12T13:52:32.000Z</time>
      </trkpt>
      <trkpt lat="43.5855" lon="0.5222">
        <ele>228</ele>
        <time>2020-01-12T13:52:34.000Z</time>
      </trkpt>
      <trkpt lat="43.58551" lon="0.5222">
        <ele>228</ele>
        <time>2020-01-12T13:52:36.000Z</time>
      </trkpt>
      <trkpt lat="43.58551" lon="0.5222">
        <ele>228</ele>
        <time>2020-01-12T13:52:38.000Z</time>
      </trkpt>
      <trkpt lat="43.58551" lon="0.5222">
        <ele>228</ele>
        <time>2020-01-12T13:52:40.000Z</time>
      </trkpt>
      <trkpt lat="43.58551" lon="0.5222">
        <ele>228</ele>
        <time>2020-01-12T13:52:42.000Z</time>
      </trkpt>
      <trkpt lat="43.58551" lon="0.52219">
        <ele>228</ele>
        <time>2020-01-12T13:52:44.000Z</time>
      </trkpt>
      <trkpt lat="43.58551" lon="0.52219">
        <ele>228</ele>
        <time>2020-01-12T13:52:46.000Z</time>
      </trkpt>
      <trkpt lat="43.58551" lon="0.52219">
        <ele>228</ele>
        <time>2020-01-12T13:52:48.000Z</time>
      </trkpt>
      <trkpt lat="43.58551" lon="0.52219">
        <ele>228</ele>
        <time>2020-01-12T13:52:50.000Z</time>
      </trkpt>
      <trkpt lat="43.5855" lon="0.52219">
        <ele>228</ele>
        <time>2020-01-12T13:52:52.000Z</time>
      </trkpt>
      <trkpt lat="43.58549" lon="0.52219">
        <ele>228</ele>
        <time>2020-01-12T13:52:54.000Z</time>
      </trkpt>
      <trkpt lat="43.58549" lon="0.52219">
        <ele>228</ele>
        <time>2020-01-12T13:52:56.000Z</time>
      </trkpt>
      <trkpt lat="43.58548" lon="0.52219">
        <ele>228</ele>
        <time>2020-01-12T13:52:58.000Z</time>
      </trkpt>
      <trkpt lat="43.58548" lon="0.5222">
        <ele>228</ele>
        <time>2020-01-12T13:53:00.000Z</time>
      </trkpt>
      <trkpt lat="43.58546" lon="0.5222">
        <ele>228</ele>
        <time>2020-01-12T13:53:02.000Z</time>
      </trkpt>
      <trkpt lat="43.58545" lon="0.52222">
        <ele>227</ele>
        <time>2020-01-12T13:53:04.000Z</time>
      </trkpt>
      <trkpt lat="43.58543" lon="0.52224">
        <ele>227</ele>
        <time>2020-01-12T13:53:06.000Z</time>
      </trkpt>
      <trkpt lat="43.58542" lon="0.52226">
        <ele>227</ele>
        <time>2020-01-12T13:53:08.000Z</time>
      </trkpt>
      <trkpt lat="43.5854" lon="0.52227">
        <ele>226</ele>
        <time>2020-01-12T13:53:10.000Z</time>
      </trkpt>
      <trkpt lat="43.58539" lon="0.52229">
        <ele>226</ele>
        <time>2020-01-12T13:53:12.000Z</time>
      </trkpt>
      <trkpt lat="43.58537" lon="0.52231">
        <ele>226</ele>
        <time>2020-01-12T13:53:14.000Z</time>
      </trkpt>
      <trkpt lat="43.58536" lon="0.52232">
        <ele>225</ele>
        <time>2020-01-12T13:53:16.000Z</time>
      </trkpt>
      <trkpt lat="43.58534" lon="0.52234">
        <ele>225</ele>
        <time>2020-01-12T13:53:18.000Z</time>
      </trkpt>
      <trkpt lat="43.58532" lon="0.52236">
        <ele>225</ele>
        <time>2020-01-12T13:53:20.000Z</time>
      </trkpt>
      <trkpt lat="43.58531" lon="0.52237">
        <ele>225</ele>
        <time>2020-01-12T13:53:22.000Z</time>
      </trkpt>
      <trkpt lat="43.58529" lon="0.52239">
        <ele>225</ele>
        <time>2020-01-12T13:53:24.000Z</time>
      </trkpt>
      <trkpt lat="43.58527" lon="0.52241">
        <ele>225</ele>
        <time>2020-01-12T13:53:26.000Z</time>
      </trkpt>
      <trkpt lat="43.58526" lon="0.52242">
        <ele>226</ele>
        <time>2020-01-12T13:53:28.000Z</time>
      </trkpt>
      <trkpt lat="43.58524" lon="0.52244">
        <ele>226</ele>
        <time>2020-01-12T13:53:30.000Z</time>
      </trkpt>
      <trkpt lat="43.58523" lon="0.52245">
        <ele>226</ele>
        <time>2020-01-12T13:53:32.000Z</time>
      </trkpt>
      <trkpt lat="43.58521" lon="0.52246">
        <ele>226</ele>
        <time>2020-01-12T13:53:34.000Z</time>
      </trkpt>
      <trkpt lat="43.58519" lon="0.52248">
        <ele>226</ele>
        <time>2020-01-12T13:53:36.000Z</time>
      </trkpt>
      <trkpt lat="43.58517" lon="0.52249">
        <ele>226</ele>
        <time>2020-01-12T13:53:38.000Z</time>
      </trkpt>
      <trkpt lat="43.58515" lon="0.52251">
        <ele>226</ele>
        <time>2020-01-12T13:53:40.000Z</time>
      </trkpt>
      <trkpt lat="43.58513" lon="0.52252">
        <ele>225</ele>
        <time>2020-01-12T13:53:42.000Z</time>
      </trkpt>
      <trkpt lat="43.58511" lon="0.52253">
        <ele>225</ele>
        <time>2020-01-12T13:53:44.000Z</time>
      </trkpt>
      <trkpt lat="43.58509" lon="0.52255">
        <ele>225</ele>
        <time>2020-01-12T13:53:46.000Z</time>
      </trkpt>
      <trkpt lat="43.58508" lon="0.52257">
        <ele>225</ele>
        <time>2020-01-12T13:53:48.000Z</time>
      </trkpt>
      <trkpt lat="43.58506" lon="0.52259">
        <ele>224</ele>
        <time>2020-01-12T13:53:50.000Z</time>
      </trkpt>
      <trkpt lat="43.58504" lon="0.5226">
        <ele>224</ele>
        <time>2020-01-12T13:53:52.000Z</time>
      </trkpt>
      <trkpt lat="43.58502" lon="0.52262">
        <ele>224</ele>
        <time>2020-01-12T13:53:54.000Z</time>
      </trkpt>
      <trkpt lat="43.585" lon="0.52263">
        <ele>224</ele>
        <time>2020-01-12T13:53:56.000Z</time>
      </trkpt>
      <trkpt lat="43.58499" lon="0.52264">
        <ele>224</ele>
        <time>2020-01-12T13:53:58.000Z</time>
      </trkpt>
      <trkpt lat="43.58498" lon="0.52266">
        <ele>224</ele>
        <time>2020-01-12T13:54:00.000Z</time>
      </trkpt>
      <trkpt lat="43.58496" lon="0.52267">
        <ele>223</ele>
        <time>2020-01-12T13:54:02.000Z</time>
      </trkpt>
      <trkpt lat="43.58494" lon="0.52269">
        <ele>223</ele>
        <time>2020-01-12T13:54:04.000Z</time>
      </trkpt>
      <trkpt lat="43.58492" lon="0.52271">
        <ele>223</ele>
        <time>2020-01-12T13:54:06.000Z</time>
      </trkpt>
      <trkpt lat="43.58491" lon="0.52272">
        <ele>223</ele>
        <time>2020-01-12T13:54:08.000Z</time>
      </trkpt>
      <trkpt lat="43.58489" lon="0.52274">
        <ele>223</ele>
        <time>2020-01-12T13:54:10.000Z</time>
      </trkpt>
      <trkpt lat="43.58487" lon="0.52276">
        <ele>223</ele>
        <time>2020-01-12T13:54:12.000Z</time>
      </trkpt>
      <trkpt lat="43.58485" lon="0.52277">
        <ele>223</ele>
        <time>2020-01-12T13:54:14.000Z</time>
      </trkpt>
      <trkpt lat="43.58484" lon="0.52278">
        <ele>223</ele>
        <time>2020-01-12T13:54:16.000Z</time>
      </trkpt>
      <trkpt lat="43.58482" lon="0.5228">
        <ele>223</ele>
        <time>2020-01-12T13:54:18.000Z</time>
      </trkpt>
      <trkpt lat="43.5848" lon="0.52282">
        <ele>223</ele>
        <time>2020-01-12T13:54:20.000Z</time>
      </trkpt>
      <trkpt lat="43.58478" lon="0.52283">
        <ele>223</ele>
        <time>2020-01-12T13:54:22.000Z</time>
      </trkpt>
      <trkpt lat="43.58477" lon="0.52285">
        <ele>223</ele>
        <time>2020-01-12T13:54:24.000Z</time>
      </trkpt>
      <trkpt lat="43.58475" lon="0.52286">
        <ele>223</ele>
        <time>2020-01-12T13:54:26.000Z</time>
      </trkpt>
      <trkpt lat="43.58473" lon="0.52288">
        <ele>223</ele>
        <time>2020-01-12T13:54:28.000Z</time>
      </trkpt>
      <trkpt lat="43.58471" lon="0.52289">
        <ele>223</ele>
        <time>2020-01-12T13:54:30.000Z</time>
      </trkpt>
      <trkpt lat="43.5847" lon="0.5229">
        <ele>223</ele>
        <time>2020-01-12T13:54:32.000Z</time>
      </trkpt>
      <trkpt lat="43.58468" lon="0.52291">
        <ele>223</ele>
        <time>2020-01-12T13:54:34.000Z</time>
      </trkpt>
      <trkpt lat="43.58467" lon="0.52292">
        <ele>223</ele>
        <time>2020-01-12T13:54:36.000Z</time>
      </trkpt>
      <trkpt lat="43.58465" lon="0.52294">
        <ele>223</ele>
        <time>2020-01-12T13:54:38.000Z</time>
      </trkpt>
      <trkpt lat="43.58464" lon="0.52295">
        <ele>223</ele>
        <time>2020-01-12T13:54:40.000Z</time>
      </trkpt>
      <trkpt lat="43.58462" lon="0.52297">
        <ele>223</ele>
        <time>2020-01-12T13:54:42.000Z</time>
      </trkpt>
      <trkpt lat="43.58461" lon="0.52299">
        <ele>223</ele>
        <time>2020-01-12T13:54:44.000Z</time>
      </trkpt>
      <trkpt lat="43.58459" lon="0.52301">
        <ele>223</ele>
        <time>2020-01-12T13:54:46.000Z</time>
      </trkpt>
      <trkpt lat="43.58458" lon="0.52302">
        <ele>223</ele>
        <time>2020-01-12T13:54:48.000Z</time>
      </trkpt>
      <trkpt lat="43.58456" lon="0.52304">
        <ele>223</ele>
        <time>2020-01-12T13:54:50.000Z</time>
      </trkpt>
      <trkpt lat="43.58455" lon="0.52305">
        <ele>222</ele>
        <time>2020-01-12T13:54:52.000Z</time>
      </trkpt>
      <trkpt lat="43.58454" lon="0.52306">
        <ele>222</ele>
        <time>2020-01-12T13:54:54.000Z</time>
      </trkpt>
      <trkpt lat="43.58453" lon="0.52308">
        <ele>222</ele>
        <time>2020-01-12T13:54:56.000Z</time>
      </trkpt>
      <trkpt lat="43.58451" lon="0.52309">
        <ele>222</ele>
        <time>2020-01-12T13:54:58.000Z</time>
      </trkpt>
      <trkpt lat="43.5845" lon="0.52311">
        <ele>221</ele>
        <time>2020-01-12T13:55:00.000Z</time>
      </trkpt>
      <trkpt lat="43.58448" lon="0.52313">
        <ele>221</ele>
        <time>2020-01-12T13:55:02.000Z</time>
      </trkpt>
      <trkpt lat="43.58447" lon="0.52315">
        <ele>221</ele>
        <time>2020-01-12T13:55:04.000Z</time>
      </trkpt>
      <trkpt lat="43.58446" lon="0.52316">
        <ele>221</ele>
        <time>2020-01-12T13:55:06.000Z</time>
      </trkpt>
      <trkpt lat="43.58446" lon="0.52316">
        <ele>221</ele>
        <time>2020-01-12T13:55:08.000Z</time>
      </trkpt>
      <trkpt lat="43.58445" lon="0.52316">
        <ele>221</ele>
        <time>2020-01-12T13:55:10.000Z</time>
      </trkpt>
      <trkpt lat="43.58445" lon="0.52316">
        <ele>221</ele>
        <time>2020-01-12T13:55:12.000Z</time>
      </trkpt>
      <trkpt lat="43.58445" lon="0.52316">
        <ele>221</ele>
        <time>2020-01-12T13:55:14.000Z</time>
      </trkpt>
      <trkpt lat="43.58444" lon="0.52316">
        <ele>221</ele>
        <time>2020-01-12T13:55:16.000Z</time>
      </trkpt>
      <trkpt lat="43.58444" lon="0.52316">
        <ele>221</ele>
        <time>2020-01-12T13:55:18.000Z</time>
      </trkpt>
      <trkpt lat="43.58445" lon="0.52316">
        <ele>221</ele>
        <time>2020-01-12T13:55:20.000Z</time>
      </trkpt>
      <trkpt lat="43.58445" lon="0.52316">
        <ele>221</ele>
        <time>2020-01-12T13:55:22.000Z</time>
      </trkpt>
      <trkpt lat="43.58445" lon="0.52316">
        <ele>221</ele>
        <time>2020-01-12T13:55:24.000Z</time>
      </trkpt>
      <trkpt lat="43.58445" lon="0.52316">
        <ele>221</ele>
        <time>2020-01-12T13:55:26.000Z</time>
      </trkpt>
      <trkpt lat="43.58445" lon="0.52316">
        <ele>221</ele>
        <time>2020-01-12T13:55:28.000Z</time>
      </trkpt>
      <trkpt lat="43.58446" lon="0.52316">
        <ele>221</ele>
        <time>2020-01-12T13:55:30.000Z</time>
      </trkpt>
      <trkpt lat="43.58446" lon="0.52317">
        <ele>221</ele>
        <time>2020-01-12T13:55:32.000Z</time>
      </trkpt>
      <trkpt lat="43.58445" lon="0.52316">
        <ele>221</ele>
        <time>2020-01-12T13:55:34.000Z</time>
      </trkpt>
      <trkpt lat="43.58445" lon="0.52316">
        <ele>221</ele>
        <time>2020-01-12T13:55:36.000Z</time>
      </trkpt>
      <trkpt lat="43.58445" lon="0.52317">
        <ele>221</ele>
        <time>2020-01-12T13:55:38.000Z</time>
      </trkpt>
      <trkpt lat="43.58444" lon="0.52318">
        <ele>221</ele>
        <time>2020-01-12T13:55:40.000Z</time>
      </trkpt>
      <trkpt lat="43.58443" lon="0.52319">
        <ele>221</ele>
        <time>2020-01-12T13:55:42.000Z</time>
      </trkpt>
      <trkpt lat="43.58442" lon="0.52321">
        <ele>220</ele>
        <time>2020-01-12T13:55:44.000Z</time>
      </trkpt>
      <trkpt lat="43.58441" lon="0.52323">
        <ele>220</ele>
        <time>2020-01-12T13:55:46.000Z</time>
      </trkpt>
      <trkpt lat="43.58439" lon="0.52325">
        <ele>220</ele>
        <time>2020-01-12T13:55:48.000Z</time>
      </trkpt>
      <trkpt lat="43.58438" lon="0.52327">
        <ele>220</ele>
        <time>2020-01-12T13:55:50.000Z</time>
      </trkpt>
      <trkpt lat="43.58436" lon="0.52329">
        <ele>220</ele>
        <time>2020-01-12T13:55:52.000Z</time>
      </trkpt>
      <trkpt lat="43.58435" lon="0.52331">
        <ele>220</ele>
        <time>2020-01-12T13:55:54.000Z</time>
      </trkpt>
      <trkpt lat="43.58434" lon="0.52334">
        <ele>219</ele>
        <time>2020-01-12T13:55:56.000Z</time>
      </trkpt>
      <trkpt lat="43.58432" lon="0.52335">
        <ele>219</ele>
        <time>2020-01-12T13:55:58.000Z</time>
      </trkpt>
      <trkpt lat="43.58431" lon="0.52338">
        <ele>218</ele>
        <time>2020-01-12T13:56:00.000Z</time>
      </trkpt>
      <trkpt lat="43.58429" lon="0.5234">
        <ele>218</ele>
        <time>2020-01-12T13:56:02.000Z</time>
      </trkpt>
      <trkpt lat="43.58428" lon="0.52342">
        <ele>217</ele>
        <time>2020-01-12T13:56:04.000Z</time>
      </trkpt>
      <trkpt lat="43.58426" lon="0.52344">
        <ele>217</ele>
        <time>2020-01-12T13:56:06.000Z</time>
      </trkpt>
      <trkpt lat="43.58424" lon="0.52347">
        <ele>216</ele>
        <time>2020-01-12T13:56:08.000Z</time>
      </trkpt>
      <trkpt lat="43.58422" lon="0.52349">
        <ele>216</ele>
        <time>2020-01-12T13:56:10.000Z</time>
      </trkpt>
      <trkpt lat="43.58421" lon="0.52352">
        <ele>215</ele>
        <time>2020-01-12T13:56:12.000Z</time>
      </trkpt>
      <trkpt lat="43.58419" lon="0.52354">
        <ele>215</ele>
        <time>2020-01-12T13:56:14.000Z</time>
      </trkpt>
      <trkpt lat="43.58418" lon="0.52355">
        <ele>215</ele>
        <time>2020-01-12T13:56:16.000Z</time>
      </trkpt>
      <trkpt lat="43.58417" lon="0.52358">
        <ele>214</ele>
        <time>2020-01-12T13:56:18.000Z</time>
      </trkpt>
      <trkpt lat="43.58416" lon="0.5236">
        <ele>214</ele>
        <time>2020-01-12T13:56:20.000Z</time>
      </trkpt>
      <trkpt lat="43.58414" lon="0.52362">
        <ele>213</ele>
        <time>2020-01-12T13:56:22.000Z</time>
      </trkpt>
      <trkpt lat="43.58413" lon="0.52364">
        <ele>213</ele>
        <time>2020-01-12T13:56:24.000Z</time>
      </trkpt>
      <trkpt lat="43.58412" lon="0.52366">
        <ele>213</ele>
        <time>2020-01-12T13:56:26.000Z</time>
      </trkpt>
      <trkpt lat="43.58411" lon="0.52367">
        <ele>213</ele>
        <time>2020-01-12T13:56:28.000Z</time>
      </trkpt>
      <trkpt lat="43.5841" lon="0.52369">
        <ele>213</ele>
        <time>2020-01-12T13:56:30.000Z</time>
      </trkpt>
      <trkpt lat="43.58409" lon="0.52371">
        <ele>214</ele>
        <time>2020-01-12T13:56:32.000Z</time>
      </trkpt>
      <trkpt lat="43.58408" lon="0.52373">
        <ele>214</ele>
        <time>2020-01-12T13:56:34.000Z</time>
      </trkpt>
      <trkpt lat="43.58407" lon="0.52375">
        <ele>214</ele>
        <time>2020-01-12T13:56:36.000Z</time>
      </trkpt>
      <trkpt lat="43.58405" lon="0.52378">
        <ele>214</ele>
        <time>2020-01-12T13:56:38.000Z</time>
      </trkpt>
      <trkpt lat="43.58405" lon="0.52379">
        <ele>214</ele>
        <time>2020-01-12T13:56:40.000Z</time>
      </trkpt>
      <trkpt lat="43.58403" lon="0.52382">
        <ele>214</ele>
        <time>2020-01-12T13:56:42.000Z</time>
      </trkpt>
      <trkpt lat="43.58403" lon="0.52384">
        <ele>214</ele>
        <time>2020-01-12T13:56:44.000Z</time>
      </trkpt>
      <trkpt lat="43.58401" lon="0.52386">
        <ele>214</ele>
        <time>2020-01-12T13:56:46.000Z</time>
      </trkpt>
      <trkpt lat="43.58401" lon="0.52388">
        <ele>214</ele>
        <time>2020-01-12T13:56:48.000Z</time>
      </trkpt>
      <trkpt lat="43.58401" lon="0.52389">
        <ele>213</ele>
        <time>2020-01-12T13:56:50.000Z</time>
      </trkpt>
      <trkpt lat="43.584" lon="0.52391">
        <ele>213</ele>
        <time>2020-01-12T13:56:52.000Z</time>
      </trkpt>
      <trkpt lat="43.584" lon="0.52393">
        <ele>213</ele>
        <time>2020-01-12T13:56:54.000Z</time>
      </trkpt>
      <trkpt lat="43.58399" lon="0.52395">
        <ele>213</ele>
        <time>2020-01-12T13:56:56.000Z</time>
      </trkpt>
      <trkpt lat="43.58398" lon="0.52397">
        <ele>212</ele>
        <time>2020-01-12T13:56:58.000Z</time>
      </trkpt>
      <trkpt lat="43.58397" lon="0.52398">
        <ele>212</ele>
        <time>2020-01-12T13:57:00.000Z</time>
      </trkpt>
      <trkpt lat="43.58396" lon="0.52401">
        <ele>212</ele>
        <time>2020-01-12T13:57:02.000Z</time>
      </trkpt>
      <trkpt lat="43.58394" lon="0.52403">
        <ele>212</ele>
        <time>2020-01-12T13:57:04.000Z</time>
      </trkpt>
      <trkpt lat="43.58393" lon="0.52405">
        <ele>211</ele>
        <time>2020-01-12T13:57:06.000Z</time>
      </trkpt>
      <trkpt lat="43.58392" lon="0.52407">
        <ele>211</ele>
        <time>2020-01-12T13:57:08.000Z</time>
      </trkpt>
      <trkpt lat="43.58391" lon="0.52409">
        <ele>211</ele>
        <time>2020-01-12T13:57:10.000Z</time>
      </trkpt>
      <trkpt lat="43.5839" lon="0.52411">
        <ele>211</ele>
        <time>2020-01-12T13:57:12.000Z</time>
      </trkpt>
      <trkpt lat="43.58389" lon="0.52413">
        <ele>211</ele>
        <time>2020-01-12T13:57:14.000Z</time>
      </trkpt>
      <trkpt lat="43.58387" lon="0.52415">
        <ele>210</ele>
        <time>2020-01-12T13:57:16.000Z</time>
      </trkpt>
      <trkpt lat="43.58386" lon="0.52417">
        <ele>210</ele>
        <time>2020-01-12T13:57:18.000Z</time>
      </trkpt>
      <trkpt lat="43.58385" lon="0.52419">
        <ele>210</ele>
        <time>2020-01-12T13:57:20.000Z</time>
      </trkpt>
      <trkpt lat="43.58384" lon="0.52421">
        <ele>210</ele>
        <time>2020-01-12T13:57:22.000Z</time>
      </trkpt>
      <trkpt lat="43.58383" lon="0.52423">
        <ele>210</ele>
        <time>2020-01-12T13:57:24.000Z</time>
      </trkpt>
      <trkpt lat="43.58382" lon="0.52425">
        <ele>210</ele>
        <time>2020-01-12T13:57:26.000Z</time>
      </trkpt>
      <trkpt lat="43.58381" lon="0.52428">
        <ele>210</ele>
        <time>2020-01-12T13:57:28.000Z</time>
      </trkpt>
      <trkpt lat="43.58379" lon="0.5243">
        <ele>210</ele>
        <time>2020-01-12T13:57:30.000Z</time>
      </trkpt>
      <trkpt lat="43.58378" lon="0.52432">
        <ele>211</ele>
        <time>2020-01-12T13:57:32.000Z</time>
      </trkpt>
      <trkpt lat="43.58376" lon="0.52435">
        <ele>211</ele>
        <time>2020-01-12T13:57:34.000Z</time>
      </trkpt>
      <trkpt lat="43.58375" lon="0.52437">
        <ele>211</ele>
        <time>2020-01-12T13:57:36.000Z</time>
      </trkpt>
      <trkpt lat="43.58373" lon="0.5244">
        <ele>211</ele>
        <time>2020-01-12T13:57:39.000Z</time>
      </trkpt>
      <trkpt lat="43.58372" lon="0.52442">
        <ele>211</ele>
        <time>2020-01-12T13:57:41.000Z</time>
      </trkpt>
      <trkpt lat="43.5837" lon="0.52445">
        <ele>211</ele>
        <time>2020-01-12T13:57:43.000Z</time>
      </trkpt>
      <trkpt lat="43.58369" lon="0.52447">
        <ele>211</ele>
        <time>2020-01-12T13:57:45.000Z</time>
      </trkpt>
      <trkpt lat="43.58368" lon="0.52449">
        <ele>211</ele>
        <time>2020-01-12T13:57:47.000Z</time>
      </trkpt>
      <trkpt lat="43.58366" lon="0.52451">
        <ele>212</ele>
        <time>2020-01-12T13:57:49.000Z</time>
      </trkpt>
      <trkpt lat="43.58365" lon="0.52454">
        <ele>212</ele>
        <time>2020-01-12T13:57:51.000Z</time>
      </trkpt>
      <trkpt lat="43.58364" lon="0.52457">
        <ele>212</ele>
        <time>2020-01-12T13:57:53.000Z</time>
      </trkpt>
      <trkpt lat="43.58362" lon="0.52459">
        <ele>212</ele>
        <time>2020-01-12T13:57:55.000Z</time>
      </trkpt>
      <trkpt lat="43.58361" lon="0.52462">
        <ele>212</ele>
        <time>2020-01-12T13:57:57.000Z</time>
      </trkpt>
      <trkpt lat="43.5836" lon="0.52464">
        <ele>212</ele>
        <time>2020-01-12T13:57:59.000Z</time>
      </trkpt>
      <trkpt lat="43.58359" lon="0.52467">
        <ele>212</ele>
        <time>2020-01-12T13:58:01.000Z</time>
      </trkpt>
      <trkpt lat="43.58358" lon="0.52469">
        <ele>212</ele>
        <time>2020-01-12T13:58:03.000Z</time>
      </trkpt>
      <trkpt lat="43.58357" lon="0.52471">
        <ele>212</ele>
        <time>2020-01-12T13:58:05.000Z</time>
      </trkpt>
      <trkpt lat="43.58356" lon="0.52474">
        <ele>212</ele>
        <time>2020-01-12T13:58:07.000Z</time>
      </trkpt>
      <trkpt lat="43.58355" lon="0.52476">
        <ele>212</ele>
        <time>2020-01-12T13:58:09.000Z</time>
      </trkpt>
      <trkpt lat="43.58354" lon="0.52478">
        <ele>212</ele>
        <time>2020-01-12T13:58:11.000Z</time>
      </trkpt>
      <trkpt lat="43.58352" lon="0.5248">
        <ele>212</ele>
        <time>2020-01-12T13:58:13.000Z</time>
      </trkpt>
      <trkpt lat="43.58351" lon="0.52482">
        <ele>212</ele>
        <time>2020-01-12T13:58:15.000Z</time>
      </trkpt>
      <trkpt lat="43.5835" lon="0.52484">
        <ele>211</ele>
        <time>2020-01-12T13:58:17.000Z</time>
      </trkpt>
      <trkpt lat="43.58349" lon="0.52486">
        <ele>211</ele>
        <time>2020-01-12T13:58:19.000Z</time>
      </trkpt>
      <trkpt lat="43.58348" lon="0.52489">
        <ele>211</ele>
        <time>2020-01-12T13:58:21.000Z</time>
      </trkpt>
      <trkpt lat="43.58347" lon="0.5249">
        <ele>210</ele>
        <time>2020-01-12T13:58:23.000Z</time>
      </trkpt>
      <trkpt lat="43.58346" lon="0.52493">
        <ele>210</ele>
        <time>2020-01-12T13:58:25.000Z</time>
      </trkpt>
      <trkpt lat="43.58345" lon="0.52495">
        <ele>210</ele>
        <time>2020-01-12T13:58:27.000Z</time>
      </trkpt>
      <trkpt lat="43.58343" lon="0.52496">
        <ele>209</ele>
        <time>2020-01-12T13:58:29.000Z</time>
      </trkpt>
      <trkpt lat="43.58343" lon="0.52499">
        <ele>209</ele>
        <time>2020-01-12T13:58:31.000Z</time>
      </trkpt>
      <trkpt lat="43.58341" lon="0.52502">
        <ele>209</ele>
        <time>2020-01-12T13:58:33.000Z</time>
      </trkpt>
      <trkpt lat="43.5834" lon="0.52504">
        <ele>208</ele>
        <time>2020-01-12T13:58:35.000Z</time>
      </trkpt>
      <trkpt lat="43.58339" lon="0.52506">
        <ele>208</ele>
        <time>2020-01-12T13:58:37.000Z</time>
      </trkpt>
      <trkpt lat="43.58338" lon="0.52508">
        <ele>208</ele>
        <time>2020-01-12T13:58:39.000Z</time>
      </trkpt>
      <trkpt lat="43.58337" lon="0.52511">
        <ele>207</ele>
        <time>2020-01-12T13:58:41.000Z</time>
      </trkpt>
      <trkpt lat="43.58337" lon="0.52513">
        <ele>207</ele>
        <time>2020-01-12T13:58:43.000Z</time>
      </trkpt>
      <trkpt lat="43.58336" lon="0.52515">
        <ele>207</ele>
        <time>2020-01-12T13:58:45.000Z</time>
      </trkpt>
      <trkpt lat="43.58335" lon="0.52518">
        <ele>206</ele>
        <time>2020-01-12T13:58:47.000Z</time>
      </trkpt>
      <trkpt lat="43.58334" lon="0.5252">
        <ele>206</ele>
        <time>2020-01-12T13:58:49.000Z</time>
      </trkpt>
      <trkpt lat="43.58333" lon="0.52523">
        <ele>206</ele>
        <time>2020-01-12T13:58:51.000Z</time>
      </trkpt>
      <trkpt lat="43.58332" lon="0.52525">
        <ele>205</ele>
        <time>2020-01-12T13:58:53.000Z</time>
      </trkpt>
      <trkpt lat="43.58331" lon="0.52528">
        <ele>205</ele>
        <time>2020-01-12T13:58:55.000Z</time>
      </trkpt>
      <trkpt lat="43.5833" lon="0.52531">
        <ele>205</ele>
        <time>2020-01-12T13:58:57.000Z</time>
      </trkpt>
      <trkpt lat="43.58329" lon="0.52534">
        <ele>205</ele>
        <time>2020-01-12T13:58:59.000Z</time>
      </trkpt>
      <trkpt lat="43.58327" lon="0.52535">
        <ele>205</ele>
        <time>2020-01-12T13:59:01.000Z</time>
      </trkpt>
      <trkpt lat="43.58327" lon="0.52538">
        <ele>205</ele>
        <time>2020-01-12T13:59:03.000Z</time>
      </trkpt>
      <trkpt lat="43.58326" lon="0.5254">
        <ele>206</ele>
        <time>2020-01-12T13:59:05.000Z</time>
      </trkpt>
      <trkpt lat="43.58325" lon="0.52543">
        <ele>206</ele>
        <time>2020-01-12T13:59:07.000Z</time>
      </trkpt>
      <trkpt lat="43.58324" lon="0.52545">
        <ele>206</ele>
        <time>2020-01-12T13:59:09.000Z</time>
      </trkpt>
      <trkpt lat="43.58323" lon="0.52548">
        <ele>206</ele>
        <time>2020-01-12T13:59:11.000Z</time>
      </trkpt>
      <trkpt lat="43.58323" lon="0.5255">
        <ele>206</ele>
        <time>2020-01-12T13:59:13.000Z</time>
      </trkpt>
      <trkpt lat="43.58322" lon="0.52552">
        <ele>206</ele>
        <time>2020-01-12T13:59:15.000Z</time>
      </trkpt>
      <trkpt lat="43.58321" lon="0.52555">
        <ele>206</ele>
        <time>2020-01-12T13:59:17.000Z</time>
      </trkpt>
      <trkpt lat="43.5832" lon="0.52557">
        <ele>206</ele>
        <time>2020-01-12T13:59:19.000Z</time>
      </trkpt>
      <trkpt lat="43.5832" lon="0.52559">
        <ele>205</ele>
        <time>2020-01-12T13:59:21.000Z</time>
      </trkpt>
      <trkpt lat="43.58318" lon="0.52561">
        <ele>205</ele>
        <time>2020-01-12T13:59:23.000Z</time>
      </trkpt>
      <trkpt lat="43.58318" lon="0.52563">
        <ele>205</ele>
        <time>2020-01-12T13:59:25.000Z</time>
      </trkpt>
      <trkpt lat="43.58316" lon="0.52565">
        <ele>205</ele>
        <time>2020-01-12T13:59:27.000Z</time>
      </trkpt>
      <trkpt lat="43.58315" lon="0.52567">
        <ele>205</ele>
        <time>2020-01-12T13:59:29.000Z</time>
      </trkpt>
      <trkpt lat="43.58313" lon="0.52568">
        <ele>205</ele>
        <time>2020-01-12T13:59:31.000Z</time>
      </trkpt>
      <trkpt lat="43.58312" lon="0.5257">
        <ele>204</ele>
        <time>2020-01-12T13:59:33.000Z</time>
      </trkpt>
      <trkpt lat="43.58311" lon="0.52572">
        <ele>204</ele>
        <time>2020-01-12T13:59:35.000Z</time>
      </trkpt>
      <trkpt lat="43.5831" lon="0.52574">
        <ele>204</ele>
        <time>2020-01-12T13:59:37.000Z</time>
      </trkpt>
      <trkpt lat="43.58308" lon="0.52576">
        <ele>204</ele>
        <time>2020-01-12T13:59:39.000Z</time>
      </trkpt>
      <trkpt lat="43.58307" lon="0.52578">
        <ele>204</ele>
        <time>2020-01-12T13:59:41.000Z</time>
      </trkpt>
      <trkpt lat="43.58306" lon="0.5258">
        <ele>203</ele>
        <time>2020-01-12T13:59:43.000Z</time>
      </trkpt>
      <trkpt lat="43.58304" lon="0.52582">
        <ele>203</ele>
        <time>2020-01-12T13:59:45.000Z</time>
      </trkpt>
      <trkpt lat="43.58303" lon="0.52584">
        <ele>203</ele>
        <time>2020-01-12T13:59:47.000Z</time>
      </trkpt>
      <trkpt lat="43.58302" lon="0.52586">
        <ele>203</ele>
        <time>2020-01-12T13:59:49.000Z</time>
      </trkpt>
      <trkpt lat="43.583" lon="0.52589">
        <ele>203</ele>
        <time>2020-01-12T13:59:51.000Z</time>
      </trkpt>
      <trkpt lat="43.58299" lon="0.5259">
        <ele>203</ele>
        <time>2020-01-12T13:59:53.000Z</time>
      </trkpt>
      <trkpt lat="43.58299" lon="0.52593">
        <ele>203</ele>
        <time>2020-01-12T13:59:55.000Z</time>
      </trkpt>
      <trkpt lat="43.58297" lon="0.52595">
        <ele>204</ele>
        <time>2020-01-12T13:59:57.000Z</time>
      </trkpt>
      <trkpt lat="43.58296" lon="0.52597">
        <ele>204</ele>
        <time>2020-01-12T13:59:59.000Z</time>
      </trkpt>
      <trkpt lat="43.58295" lon="0.526">
        <ele>204</ele>
        <time>2020-01-12T14:00:01.000Z</time>
      </trkpt>
      <trkpt lat="43.58294" lon="0.52602">
        <ele>204</ele>
        <time>2020-01-12T14:00:03.000Z</time>
      </trkpt>
      <trkpt lat="43.58294" lon="0.52605">
        <ele>204</ele>
        <time>2020-01-12T14:00:05.000Z</time>
      </trkpt>
      <trkpt lat="43.58293" lon="0.52607">
        <ele>204</ele>
        <time>2020-01-12T14:00:07.000Z</time>
      </trkpt>
      <trkpt lat="43.58292" lon="0.5261">
        <ele>204</ele>
        <time>2020-01-12T14:00:09.000Z</time>
      </trkpt>
      <trkpt lat="43.58292" lon="0.52612">
        <ele>204</ele>
        <time>2020-01-12T14:00:11.000Z</time>
      </trkpt>
      <trkpt lat="43.58291" lon="0.52614">
        <ele>204</ele>
        <time>2020-01-12T14:00:13.000Z</time>
      </trkpt>
      <trkpt lat="43.58291" lon="0.52616">
        <ele>204</ele>
        <time>2020-01-12T14:00:15.000Z</time>
      </trkpt>
      <trkpt lat="43.5829" lon="0.52617">
        <ele>204</ele>
        <time>2020-01-12T14:00:17.000Z</time>
      </trkpt>
      <trkpt lat="43.5829" lon="0.52618">
        <ele>204</ele>
        <time>2020-01-12T14:00:19.000Z</time>
      </trkpt>
      <trkpt lat="43.5829" lon="0.52619">
        <ele>204</ele>
        <time>2020-01-12T14:00:21.000Z</time>
      </trkpt>
      <trkpt lat="43.5829" lon="0.5262">
        <ele>204</ele>
        <time>2020-01-12T14:00:23.000Z</time>
      </trkpt>
      <trkpt lat="43.5829" lon="0.5262">
        <ele>204</ele>
        <time>2020-01-12T14:00:25.000Z</time>
      </trkpt>
      <trkpt lat="43.5829" lon="0.5262">
        <ele>204</ele>
        <time>2020-01-12T14:00:27.000Z</time>
      </trkpt>
      <trkpt lat="43.58289" lon="0.5262">
        <ele>204</ele>
        <time>2020-01-12T14:00:29.000Z</time>
      </trkpt>
      <trkpt lat="43.58289" lon="0.52621">
        <ele>205</ele>
        <time>2020-01-12T14:00:31.000Z</time>
      </trkpt>
      <trkpt lat="43.58288" lon="0.52622">
        <ele>205</ele>
        <time>2020-01-12T14:00:33.000Z</time>
      </trkpt>
      <trkpt lat="43.58288" lon="0.52624">
        <ele>205</ele>
        <time>2020-01-12T14:00:35.000Z</time>
      </trkpt>
      <trkpt lat="43.58287" lon="0.52626">
        <ele>205</ele>
        <time>2020-01-12T14:00:37.000Z</time>
      </trkpt>
      <trkpt lat="43.58286" lon="0.52628">
        <ele>205</ele>
        <time>2020-01-12T14:00:39.000Z</time>
      </trkpt>
      <trkpt lat="43.58285" lon="0.5263">
        <ele>205</ele>
        <time>2020-01-12T14:00:41.000Z</time>
      </trkpt>
      <trkpt lat="43.58284" lon="0.52632">
        <ele>205</ele>
        <time>2020-01-12T14:00:43.000Z</time>
      </trkpt>
      <trkpt lat="43.58283" lon="0.52634">
        <ele>205</ele>
        <time>2020-01-12T14:00:45.000Z</time>
      </trkpt>
      <trkpt lat="43.58282" lon="0.52637">
        <ele>205</ele>
        <time>2020-01-12T14:00:47.000Z</time>
      </trkpt>
      <trkpt lat="43.58281" lon="0.52639">
        <ele>205</ele>
        <time>2020-01-12T14:00:49.000Z</time>
      </trkpt>
      <trkpt lat="43.5828" lon="0.52641">
        <ele>205</ele>
        <time>2020-01-12T14:00:51.000Z</time>
      </trkpt>
      <trkpt lat="43.58279" lon="0.52643">
        <ele>205</ele>
        <time>2020-01-12T14:00:53.000Z</time>
      </trkpt>
      <trkpt lat="43.58278" lon="0.52646">
        <ele>205</ele>
        <time>2020-01-12T14:00:55.000Z</time>
      </trkpt>
      <trkpt lat="43.58278" lon="0.52647">
        <ele>205</ele>
        <time>2020-01-12T14:00:57.000Z</time>
      </trkpt>
      <trkpt lat="43.58277" lon="0.52649">
        <ele>205</ele>
        <time>2020-01-12T14:00:59.000Z</time>
      </trkpt>
      <trkpt lat="43.58277" lon="0.52651">
        <ele>205</ele>
        <time>2020-01-12T14:01:01.000Z</time>
      </trkpt>
      <trkpt lat="43.58276" lon="0.52653">
        <ele>205</ele>
        <time>2020-01-12T14:01:03.000Z</time>
      </trkpt>
      <trkpt lat="43.58275" lon="0.52656">
        <ele>205</ele>
        <time>2020-01-12T14:01:05.000Z</time>
      </trkpt>
      <trkpt lat="43.58274" lon="0.52658">
        <ele>205</ele>
        <time>2020-01-12T14:01:07.000Z</time>
      </trkpt>
      <trkpt lat="43.58272" lon="0.52661">
        <ele>205</ele>
        <time>2020-01-12T14:01:09.000Z</time>
      </trkpt>
      <trkpt lat="43.58271" lon="0.52663">
        <ele>205</ele>
        <time>2020-01-12T14:01:11.000Z</time>
      </trkpt>
      <trkpt lat="43.58269" lon="0.52666">
        <ele>205</ele>
        <time>2020-01-12T14:01:13.000Z</time>
      </trkpt>
      <trkpt lat="43.58268" lon="0.52668">
        <ele>204</ele>
        <time>2020-01-12T14:01:15.000Z</time>
      </trkpt>
      <trkpt lat="43.58266" lon="0.52671">
        <ele>204</ele>
        <time>2020-01-12T14:01:17.000Z</time>
      </trkpt>
      <trkpt lat="43.58264" lon="0.52673">
        <ele>204</ele>
        <time>2020-01-12T14:01:19.000Z</time>
      </trkpt>
      <trkpt lat="43.58263" lon="0.52676">
        <ele>204</ele>
        <time>2020-01-12T14:01:21.000Z</time>
      </trkpt>
      <trkpt lat="43.58261" lon="0.52678">
        <ele>203</ele>
        <time>2020-01-12T14:01:23.000Z</time>
      </trkpt>
      <trkpt lat="43.58259" lon="0.5268">
        <ele>203</ele>
        <time>2020-01-12T14:01:25.000Z</time>
      </trkpt>
      <trkpt lat="43.58257" lon="0.52682">
        <ele>203</ele>
        <time>2020-01-12T14:01:27.000Z</time>
      </trkpt>
      <trkpt lat="43.58256" lon="0.52685">
        <ele>202</ele>
        <time>2020-01-12T14:01:29.000Z</time>
      </trkpt>
      <trkpt lat="43.58254" lon="0.52687">
        <ele>202</ele>
        <time>2020-01-12T14:01:31.000Z</time>
      </trkpt>
      <trkpt lat="43.58253" lon="0.5269">
        <ele>202</ele>
        <time>2020-01-12T14:01:33.000Z</time>
      </trkpt>
      <trkpt lat="43.58252" lon="0.52693">
        <ele>201</ele>
        <time>2020-01-12T14:01:35.000Z</time>
      </trkpt>
      <trkpt lat="43.58251" lon="0.52695">
        <ele>201</ele>
        <time>2020-01-12T14:01:37.000Z</time>
      </trkpt>
      <trkpt lat="43.5825" lon="0.52698">
        <ele>201</ele>
        <time>2020-01-12T14:01:39.000Z</time>
      </trkpt>
      <trkpt lat="43.5825" lon="0.52702">
        <ele>201</ele>
        <time>2020-01-12T14:01:41.000Z</time>
      </trkpt>
      <trkpt lat="43.5825" lon="0.52705">
        <ele>201</ele>
        <time>2020-01-12T14:01:43.000Z</time>
      </trkpt>
      <trkpt lat="43.58249" lon="0.52708">
        <ele>201</ele>
        <time>2020-01-12T14:01:45.000Z</time>
      </trkpt>
      <trkpt lat="43.58249" lon="0.52711">
        <ele>201</ele>
        <time>2020-01-12T14:01:47.000Z</time>
      </trkpt>
      <trkpt lat="43.58249" lon="0.52714">
        <ele>201</ele>
        <time>2020-01-12T14:01:49.000Z</time>
      </trkpt>
      <trkpt lat="43.58249" lon="0.52718">
        <ele>201</ele>
        <time>2020-01-12T14:01:51.000Z</time>
      </trkpt>
      <trkpt lat="43.58248" lon="0.52721">
        <ele>200</ele>
        <time>2020-01-12T14:01:53.000Z</time>
      </trkpt>
      <trkpt lat="43.58248" lon="0.52724">
        <ele>200</ele>
        <time>2020-01-12T14:01:55.000Z</time>
      </trkpt>
      <trkpt lat="43.58248" lon="0.52727">
        <ele>200</ele>
        <time>2020-01-12T14:01:57.000Z</time>
      </trkpt>
      <trkpt lat="43.58248" lon="0.5273">
        <ele>200</ele>
        <time>2020-01-12T14:01:59.000Z</time>
      </trkpt>
      <trkpt lat="43.58248" lon="0.52731">
        <ele>200</ele>
        <time>2020-01-12T14:02:01.000Z</time>
      </trkpt>
      <trkpt lat="43.58248" lon="0.52733">
        <ele>199</ele>
        <time>2020-01-12T14:02:03.000Z</time>
      </trkpt>
      <trkpt lat="43.58248" lon="0.52733">
        <ele>199</ele>
        <time>2020-01-12T14:02:05.000Z</time>
      </trkpt>
      <trkpt lat="43.58249" lon="0.52734">
        <ele>199</ele>
        <time>2020-01-12T14:02:07.000Z</time>
      </trkpt>
      <trkpt lat="43.58249" lon="0.52735">
        <ele>199</ele>
        <time>2020-01-12T14:02:09.000Z</time>
      </trkpt>
      <trkpt lat="43.58249" lon="0.52735">
        <ele>199</ele>
        <time>2020-01-12T14:02:11.000Z</time>
      </trkpt>
      <trkpt lat="43.58249" lon="0.52735">
        <ele>199</ele>
        <time>2020-01-12T14:02:13.000Z</time>
      </trkpt>
      <trkpt lat="43.58249" lon="0.52735">
        <ele>199</ele>
        <time>2020-01-12T14:02:15.000Z</time>
      </trkpt>
      <trkpt lat="43.58249" lon="0.52735">
        <ele>199</ele>
        <time>2020-01-12T14:02:17.000Z</time>
      </trkpt>
      <trkpt lat="43.58249" lon="0.52735">
        <ele>199</ele>
        <time>2020-01-12T14:02:19.000Z</time>
      </trkpt>
      <trkpt lat="43.58249" lon="0.52735">
        <ele>199</ele>
        <time>2020-01-12T14:02:21.000Z</time>
      </trkpt>
      <trkpt lat="43.58249" lon="0.52736">
        <ele>199</ele>
        <time>2020-01-12T14:02:23.000Z</time>
      </trkpt>
      <trkpt lat="43.58249" lon="0.52736">
        <ele>199</ele>
        <time>2020-01-12T14:02:25.000Z</time>
      </trkpt>
      <trkpt lat="43.58249" lon="0.52736">
        <ele>199</ele>
        <time>2020-01-12T14:02:27.000Z</time>
      </trkpt>
      <trkpt lat="43.58249" lon="0.52736">
        <ele>199</ele>
        <time>2020-01-12T14:02:29.000Z</time>
      </trkpt>
      <trkpt lat="43.58249" lon="0.52737">
        <ele>199</ele>
        <time>2020-01-12T14:02:31.000Z</time>
      </trkpt>
      <trkpt lat="43.58248" lon="0.52736">
        <ele>199</ele>
        <time>2020-01-12T14:02:33.000Z</time>
      </trkpt>
      <trkpt lat="43.58248" lon="0.52737">
        <ele>199</ele>
        <time>2020-01-12T14:02:35.000Z</time>
      </trkpt>
      <trkpt lat="43.58248" lon="0.52737">
        <ele>199</ele>
        <time>2020-01-12T14:02:37.000Z</time>
      </trkpt>
      <trkpt lat="43.58249" lon="0.52736">
        <ele>199</ele>
        <time>2020-01-12T14:02:39.000Z</time>
      </trkpt>
      <trkpt lat="43.58249" lon="0.52736">
        <ele>199</ele>
        <time>2020-01-12T14:02:41.000Z</time>
      </trkpt>
      <trkpt lat="43.58249" lon="0.52736">
        <ele>199</ele>
        <time>2020-01-12T14:02:43.000Z</time>
      </trkpt>
      <trkpt lat="43.58249" lon="0.52737">
        <ele>199</ele>
        <time>2020-01-12T14:02:45.000Z</time>
      </trkpt>
      <trkpt lat="43.5825" lon="0.52737">
        <ele>199</ele>
        <time>2020-01-12T14:02:47.000Z</time>
      </trkpt>
      <trkpt lat="43.5825" lon="0.52737">
        <ele>199</ele>
        <time>2020-01-12T14:02:49.000Z</time>
      </trkpt>
      <trkpt lat="43.5825" lon="0.52737">
        <ele>199</ele>
        <time>2020-01-12T14:02:51.000Z</time>
      </trkpt>
      <trkpt lat="43.5825" lon="0.52737">
        <ele>199</ele>
        <time>2020-01-12T14:02:53.000Z</time>
      </trkpt>
      <trkpt lat="43.5825" lon="0.52737">
        <ele>199</ele>
        <time>2020-01-12T14:02:55.000Z</time>
      </trkpt>
      <trkpt lat="43.5825" lon="0.52737">
        <ele>199</ele>
        <time>2020-01-12T14:02:57.000Z</time>
      </trkpt>
      <trkpt lat="43.5825" lon="0.52737">
        <ele>199</ele>
        <time>2020-01-12T14:02:59.000Z</time>
      </trkpt>
      <trkpt lat="43.5825" lon="0.52737">
        <ele>199</ele>
        <time>2020-01-12T14:03:01.000Z</time>
      </trkpt>
      <trkpt lat="43.5825" lon="0.52737">
        <ele>199</ele>
        <time>2020-01-12T14:03:03.000Z</time>
      </trkpt>
      <trkpt lat="43.5825" lon="0.52737">
        <ele>199</ele>
        <time>2020-01-12T14:03:05.000Z</time>
      </trkpt>
      <trkpt lat="43.58249" lon="0.52736">
        <ele>199</ele>
        <time>2020-01-12T14:03:07.000Z</time>
      </trkpt>
      <trkpt lat="43.58248" lon="0.52736">
        <ele>199</ele>
        <time>2020-01-12T14:03:09.000Z</time>
      </trkpt>
      <trkpt lat="43.58248" lon="0.52736">
        <ele>199</ele>
        <time>2020-01-12T14:03:11.000Z</time>
      </trkpt>
      <trkpt lat="43.58248" lon="0.52736">
        <ele>199</ele>
        <time>2020-01-12T14:03:13.000Z</time>
      </trkpt>
      <trkpt lat="43.58248" lon="0.52736">
        <ele>199</ele>
        <time>2020-01-12T14:03:15.000Z</time>
      </trkpt>
      <trkpt lat="43.58249" lon="0.52736">
        <ele>199</ele>
        <time>2020-01-12T14:03:17.000Z</time>
      </trkpt>
      <trkpt lat="43.58249" lon="0.52736">
        <ele>199</ele>
        <time>2020-01-12T14:03:19.000Z</time>
      </trkpt>
      <trkpt lat="43.58249" lon="0.52737">
        <ele>199</ele>
        <time>2020-01-12T14:03:21.000Z</time>
      </trkpt>
      <trkpt lat="43.58249" lon="0.52737">
        <ele>199</ele>
        <time>2020-01-12T14:03:23.000Z</time>
      </trkpt>
      <trkpt lat="43.58249" lon="0.52736">
        <ele>199</ele>
        <time>2020-01-12T14:03:25.000Z</time>
      </trkpt>
      <trkpt lat="43.58249" lon="0.52737">
        <ele>199</ele>
        <time>2020-01-12T14:03:27.000Z</time>
      </trkpt>
      <trkpt lat="43.58249" lon="0.52737">
        <ele>199</ele>
        <time>2020-01-12T14:03:29.000Z</time>
      </trkpt>
      <trkpt lat="43.58249" lon="0.52736">
        <ele>199</ele>
        <time>2020-01-12T14:03:31.000Z</time>
      </trkpt>
      <trkpt lat="43.58249" lon="0.52736">
        <ele>199</ele>
        <time>2020-01-12T14:03:33.000Z</time>
      </trkpt>
      <trkpt lat="43.58249" lon="0.52736">
        <ele>199</ele>
        <time>2020-01-12T14:03:35.000Z</time>
      </trkpt>
      <trkpt lat="43.5825" lon="0.52736">
        <ele>199</ele>
        <time>2020-01-12T14:03:37.000Z</time>
      </trkpt>
      <trkpt lat="43.58251" lon="0.52736">
        <ele>199</ele>
        <time>2020-01-12T14:03:39.000Z</time>
      </trkpt>
      <trkpt lat="43.58253" lon="0.52737">
        <ele>199</ele>
        <time>2020-01-12T14:03:41.000Z</time>
      </trkpt>
      <trkpt lat="43.58254" lon="0.52738">
        <ele>199</ele>
        <time>2020-01-12T14:03:43.000Z</time>
      </trkpt>
      <trkpt lat="43.58256" lon="0.52739">
        <ele>199</ele>
        <time>2020-01-12T14:03:45.000Z</time>
      </trkpt>
      <trkpt lat="43.58257" lon="0.5274">
        <ele>199</ele>
        <time>2020-01-12T14:03:47.000Z</time>
      </trkpt>
      <trkpt lat="43.58259" lon="0.52741">
        <ele>199</ele>
        <time>2020-01-12T14:03:49.000Z</time>
      </trkpt>
      <trkpt lat="43.5826" lon="0.52742">
        <ele>199</ele>
        <time>2020-01-12T14:03:51.000Z</time>
      </trkpt>
      <trkpt lat="43.5826" lon="0.52742">
        <ele>199</ele>
        <time>2020-01-12T14:03:53.000Z</time>
      </trkpt>
      <trkpt lat="43.5826" lon="0.52742">
        <ele>199</ele>
        <time>2020-01-12T14:03:55.000Z</time>
      </trkpt>
      <trkpt lat="43.5826" lon="0.52742">
        <ele>199</ele>
        <time>2020-01-12T14:03:57.000Z</time>
      </trkpt>
      <trkpt lat="43.5826" lon="0.52742">
        <ele>199</ele>
        <time>2020-01-12T14:03:59.000Z</time>
      </trkpt>
      <trkpt lat="43.5826" lon="0.52742">
        <ele>199</ele>
        <time>2020-01-12T14:04:01.000Z</time>
      </trkpt>
      <trkpt lat="43.5826" lon="0.52742">
        <ele>199</ele>
        <time>2020-01-12T14:04:03.000Z</time>
      </trkpt>
      <trkpt lat="43.5826" lon="0.52743">
        <ele>199</ele>
        <time>2020-01-12T14:04:05.000Z</time>
      </trkpt>
      <trkpt lat="43.5826" lon="0.52743">
        <ele>199</ele>
        <time>2020-01-12T14:04:07.000Z</time>
      </trkpt>
      <trkpt lat="43.5826" lon="0.52743">
        <ele>199</ele>
        <time>2020-01-12T14:04:09.000Z</time>
      </trkpt>
      <trkpt lat="43.58262" lon="0.52742">
        <ele>199</ele>
        <time>2020-01-12T14:04:11.000Z</time>
      </trkpt>
      <trkpt lat="43.58263" lon="0.52742">
        <ele>199</ele>
        <time>2020-01-12T14:04:13.000Z</time>
      </trkpt>
      <trkpt lat="43.58265" lon="0.52743">
        <ele>199</ele>
        <time>2020-01-12T14:04:15.000Z</time>
      </trkpt>
      <trkpt lat="43.58267" lon="0.52744">
        <ele>199</ele>
        <time>2020-01-12T14:04:17.000Z</time>
      </trkpt>
      <trkpt lat="43.58268" lon="0.52745">
        <ele>199</ele>
        <time>2020-01-12T14:04:19.000Z</time>
      </trkpt>
      <trkpt lat="43.58269" lon="0.52745">
        <ele>199</ele>
        <time>2020-01-12T14:04:21.000Z</time>
      </trkpt>
      <trkpt lat="43.58271" lon="0.52746">
        <ele>198</ele>
        <time>2020-01-12T14:04:23.000Z</time>
      </trkpt>
      <trkpt lat="43.58272" lon="0.52748">
        <ele>198</ele>
        <time>2020-01-12T14:04:25.000Z</time>
      </trkpt>
      <trkpt lat="43.58272" lon="0.52748">
        <ele>198</ele>
        <time>2020-01-12T14:04:27.000Z</time>
      </trkpt>
      <trkpt lat="43.58273" lon="0.5275">
        <ele>198</ele>
        <time>2020-01-12T14:04:29.000Z</time>
      </trkpt>
      <trkpt lat="43.58274" lon="0.52751">
        <ele>198</ele>
        <time>2020-01-12T14:04:31.000Z</time>
      </trkpt>
      <trkpt lat="43.58276" lon="0.52752">
        <ele>198</ele>
        <time>2020-01-12T14:04:33.000Z</time>
      </trkpt>
      <trkpt lat="43.58276" lon="0.52753">
        <ele>197</ele>
        <time>2020-01-12T14:04:35.000Z</time>
      </trkpt>
      <trkpt lat="43.58277" lon="0.52754">
        <ele>197</ele>
        <time>2020-01-12T14:04:37.000Z</time>
      </trkpt>
      <trkpt lat="43.58278" lon="0.52756">
        <ele>197</ele>
        <time>2020-01-12T14:04:39.000Z</time>
      </trkpt>
      <trkpt lat="43.58279" lon="0.52758">
        <ele>197</ele>
        <time>2020-01-12T14:04:41.000Z</time>
      </trkpt>
      <trkpt lat="43.5828" lon="0.5276">
        <ele>197</ele>
        <time>2020-01-12T14:04:43.000Z</time>
      </trkpt>
      <trkpt lat="43.58281" lon="0.52761">
        <ele>197</ele>
        <time>2020-01-12T14:04:45.000Z</time>
      </trkpt>
      <trkpt lat="43.58282" lon="0.52762">
        <ele>196</ele>
        <time>2020-01-12T14:04:47.000Z</time>
      </trkpt>
      <trkpt lat="43.58283" lon="0.52763">
        <ele>196</ele>
        <time>2020-01-12T14:04:49.000Z</time>
      </trkpt>
      <trkpt lat="43.58284" lon="0.52765">
        <ele>196</ele>
        <time>2020-01-12T14:04:51.000Z</time>
      </trkpt>
      <trkpt lat="43.58284" lon="0.52767">
        <ele>196</ele>
        <time>2020-01-12T14:04:53.000Z</time>
      </trkpt>
      <trkpt lat="43.58286" lon="0.52769">
        <ele>196</ele>
        <time>2020-01-12T14:04:55.000Z</time>
      </trkpt>
      <trkpt lat="43.58287" lon="0.52771">
        <ele>195</ele>
        <time>2020-01-12T14:04:57.000Z</time>
      </trkpt>
      <trkpt lat="43.58289" lon="0.52773">
        <ele>195</ele>
        <time>2020-01-12T14:04:59.000Z</time>
      </trkpt>
      <trkpt lat="43.5829" lon="0.52774">
        <ele>195</ele>
        <time>2020-01-12T14:05:01.000Z</time>
      </trkpt>
      <trkpt lat="43.58292" lon="0.52776">
        <ele>195</ele>
        <time>2020-01-12T14:05:03.000Z</time>
      </trkpt>
      <trkpt lat="43.58293" lon="0.52777">
        <ele>194</ele>
        <time>2020-01-12T14:05:05.000Z</time>
      </trkpt>
      <trkpt lat="43.58294" lon="0.52778">
        <ele>194</ele>
        <time>2020-01-12T14:05:07.000Z</time>
      </trkpt>
      <trkpt lat="43.58295" lon="0.5278">
        <ele>194</ele>
        <time>2020-01-12T14:05:09.000Z</time>
      </trkpt>
      <trkpt lat="43.58296" lon="0.52781">
        <ele>194</ele>
        <time>2020-01-12T14:05:11.000Z</time>
      </trkpt>
      <trkpt lat="43.58297" lon="0.52782">
        <ele>194</ele>
        <time>2020-01-12T14:05:13.000Z</time>
      </trkpt>
      <trkpt lat="43.58298" lon="0.52783">
        <ele>194</ele>
        <time>2020-01-12T14:05:15.000Z</time>
      </trkpt>
      <trkpt lat="43.58299" lon="0.52784">
        <ele>193</ele>
        <time>2020-01-12T14:05:17.000Z</time>
      </trkpt>
      <trkpt lat="43.583" lon="0.52786">
        <ele>193</ele>
        <time>2020-01-12T14:05:19.000Z</time>
      </trkpt>
      <trkpt lat="43.58302" lon="0.52787">
        <ele>193</ele>
        <time>2020-01-12T14:05:21.000Z</time>
      </trkpt>
      <trkpt lat="43.58303" lon="0.52788">
        <ele>193</ele>
        <time>2020-01-12T14:05:23.000Z</time>
      </trkpt>
      <trkpt lat="43.58305" lon="0.52789">
        <ele>193</ele>
        <time>2020-01-12T14:05:25.000Z</time>
      </trkpt>
      <trkpt lat="43.58306" lon="0.5279">
        <ele>193</ele>
        <time>2020-01-12T14:05:27.000Z</time>
      </trkpt>
      <trkpt lat="43.58308" lon="0.52791">
        <ele>192</ele>
        <time>2020-01-12T14:05:29.000Z</time>
      </trkpt>
      <trkpt lat="43.58309" lon="0.52791">
        <ele>192</ele>
        <time>2020-01-12T14:05:31.000Z</time>
      </trkpt>
      <trkpt lat="43.58311" lon="0.52792">
        <ele>192</ele>
        <time>2020-01-12T14:05:33.000Z</time>
      </trkpt>
      <trkpt lat="43.58313" lon="0.52793">
        <ele>192</ele>
        <time>2020-01-12T14:05:35.000Z</time>
      </trkpt>
      <trkpt lat="43.58315" lon="0.52794">
        <ele>192</ele>
        <time>2020-01-12T14:05:37.000Z</time>
      </trkpt>
      <trkpt lat="43.58317" lon="0.52796">
        <ele>191</ele>
        <time>2020-01-12T14:05:39.000Z</time>
      </trkpt>
      <trkpt lat="43.58319" lon="0.52797">
        <ele>191</ele>
        <time>2020-01-12T14:05:41.000Z</time>
      </trkpt>
      <trkpt lat="43.5832" lon="0.52798">
        <ele>191</ele>
        <time>2020-01-12T14:05:43.000Z</time>
      </trkpt>
      <trkpt lat="43.58322" lon="0.52799">
        <ele>191</ele>
        <time>2020-01-12T14:05:45.000Z</time>
      </trkpt>
      <trkpt lat="43.58324" lon="0.528">
        <ele>191</ele>
        <time>2020-01-12T14:05:47.000Z</time>
      </trkpt>
      <trkpt lat="43.58326" lon="0.52801">
        <ele>191</ele>
        <time>2020-01-12T14:05:49.000Z</time>
      </trkpt>
      <trkpt lat="43.58328" lon="0.52802">
        <ele>190</ele>
        <time>2020-01-12T14:05:51.000Z</time>
      </trkpt>
      <trkpt lat="43.5833" lon="0.52802">
        <ele>190</ele>
        <time>2020-01-12T14:05:53.000Z</time>
      </trkpt>
      <trkpt lat="43.58331" lon="0.52804">
        <ele>190</ele>
        <time>2020-01-12T14:05:55.000Z</time>
      </trkpt>
      <trkpt lat="43.58334" lon="0.52804">
        <ele>190</ele>
        <time>2020-01-12T14:05:57.000Z</time>
      </trkpt>
      <trkpt lat="43.58335" lon="0.52806">
        <ele>190</ele>
        <time>2020-01-12T14:05:59.000Z</time>
      </trkpt>
      <trkpt lat="43.58337" lon="0.52807">
        <ele>190</ele>
        <time>2020-01-12T14:06:01.000Z</time>
      </trkpt>
      <trkpt lat="43.5834" lon="0.52807">
        <ele>189</ele>
        <time>2020-01-12T14:06:03.000Z</time>
      </trkpt>
      <trkpt lat="43.58341" lon="0.52808">
        <ele>189</ele>
        <time>2020-01-12T14:06:05.000Z</time>
      </trkpt>
      <trkpt lat="43.58344" lon="0.52809">
        <ele>189</ele>
        <time>2020-01-12T14:06:07.000Z</time>
      </trkpt>
      <trkpt lat="43.58345" lon="0.5281">
        <ele>189</ele>
        <time>2020-01-12T14:06:09.000Z</time>
      </trkpt>
      <trkpt lat="43.58347" lon="0.52811">
        <ele>189</ele>
        <time>2020-01-12T14:06:11.000Z</time>
      </trkpt>
      <trkpt lat="43.58349" lon="0.52813">
        <ele>189</ele>
        <time>2020-01-12T14:06:13.000Z</time>
      </trkpt>
      <trkpt lat="43.58351" lon="0.52814">
        <ele>189</ele>
        <time>2020-01-12T14:06:15.000Z</time>
      </trkpt>
      <trkpt lat="43.58353" lon="0.52814">
        <ele>189</ele>
        <time>2020-01-12T14:06:17.000Z</time>
      </trkpt>
      <trkpt lat="43.58355" lon="0.52815">
        <ele>189</ele>
        <time>2020-01-12T14:06:19.000Z</time>
      </trkpt>
      <trkpt lat="43.58357" lon="0.52815">
        <ele>189</ele>
        <time>2020-01-12T14:06:21.000Z</time>
      </trkpt>
      <trkpt lat="43.58359" lon="0.52816">
        <ele>189</ele>
        <time>2020-01-12T14:06:23.000Z</time>
      </trkpt>
      <trkpt lat="43.5836" lon="0.52817">
        <ele>189</ele>
        <time>2020-01-12T14:06:25.000Z</time>
      </trkpt>
      <trkpt lat="43.58363" lon="0.52818">
        <ele>189</ele>
        <time>2020-01-12T14:06:27.000Z</time>
      </trkpt>
      <trkpt lat="43.58365" lon="0.52819">
        <ele>189</ele>
        <time>2020-01-12T14:06:29.000Z</time>
      </trkpt>
      <trkpt lat="43.58367" lon="0.5282">
        <ele>189</ele>
        <time>2020-01-12T14:06:31.000Z</time>
      </trkpt>
      <trkpt lat="43.58369" lon="0.5282">
        <ele>189</ele>
        <time>2020-01-12T14:06:33.000Z</time>
      </trkpt>
      <trkpt lat="43.58371" lon="0.52822">
        <ele>189</ele>
        <time>2020-01-12T14:06:35.000Z</time>
      </trkpt>
      <trkpt lat="43.58373" lon="0.52823">
        <ele>189</ele>
        <time>2020-01-12T14:06:37.000Z</time>
      </trkpt>
      <trkpt lat="43.58375" lon="0.52824">
        <ele>189</ele>
        <time>2020-01-12T14:06:39.000Z</time>
      </trkpt>
      <trkpt lat="43.58377" lon="0.52825">
        <ele>189</ele>
        <time>2020-01-12T14:06:41.000Z</time>
      </trkpt>
      <trkpt lat="43.58378" lon="0.52826">
        <ele>189</ele>
        <time>2020-01-12T14:06:43.000Z</time>
      </trkpt>
      <trkpt lat="43.5838" lon="0.52827">
        <ele>189</ele>
        <time>2020-01-12T14:06:45.000Z</time>
      </trkpt>
      <trkpt lat="43.58382" lon="0.52828">
        <ele>189</ele>
        <time>2020-01-12T14:06:47.000Z</time>
      </trkpt>
      <trkpt lat="43.58383" lon="0.52829">
        <ele>189</ele>
        <time>2020-01-12T14:06:49.000Z</time>
      </trkpt>
      <trkpt lat="43.58385" lon="0.5283">
        <ele>189</ele>
        <time>2020-01-12T14:06:51.000Z</time>
      </trkpt>
      <trkpt lat="43.58387" lon="0.52831">
        <ele>189</ele>
        <time>2020-01-12T14:06:53.000Z</time>
      </trkpt>
      <trkpt lat="43.58388" lon="0.52832">
        <ele>189</ele>
        <time>2020-01-12T14:06:55.000Z</time>
      </trkpt>
      <trkpt lat="43.5839" lon="0.52833">
        <ele>189</ele>
        <time>2020-01-12T14:06:57.000Z</time>
      </trkpt>
      <trkpt lat="43.58392" lon="0.52834">
        <ele>189</ele>
        <time>2020-01-12T14:06:59.000Z</time>
      </trkpt>
      <trkpt lat="43.58393" lon="0.52834">
        <ele>189</ele>
        <time>2020-01-12T14:07:01.000Z</time>
      </trkpt>
      <trkpt lat="43.58395" lon="0.52835">
        <ele>189</ele>
        <time>2020-01-12T14:07:03.000Z</time>
      </trkpt>
      <trkpt lat="43.58397" lon="0.52836">
        <ele>189</ele>
        <time>2020-01-12T14:07:05.000Z</time>
      </trkpt>
      <trkpt lat="43.58399" lon="0.52838">
        <ele>189</ele>
        <time>2020-01-12T14:07:07.000Z</time>
      </trkpt>
      <trkpt lat="43.584" lon="0.52839">
        <ele>189</ele>
        <time>2020-01-12T14:07:09.000Z</time>
      </trkpt>
      <trkpt lat="43.58402" lon="0.5284">
        <ele>189</ele>
        <time>2020-01-12T14:07:11.000Z</time>
      </trkpt>
      <trkpt lat="43.58404" lon="0.52841">
        <ele>189</ele>
        <time>2020-01-12T14:07:13.000Z</time>
      </trkpt>
      <trkpt lat="43.58406" lon="0.52842">
        <ele>189</ele>
        <time>2020-01-12T14:07:15.000Z</time>
      </trkpt>
      <trkpt lat="43.58408" lon="0.52844">
        <ele>189</ele>
        <time>2020-01-12T14:07:17.000Z</time>
      </trkpt>
      <trkpt lat="43.5841" lon="0.52845">
        <ele>189</ele>
        <time>2020-01-12T14:07:19.000Z</time>
      </trkpt>
      <trkpt lat="43.58411" lon="0.52846">
        <ele>189</ele>
        <time>2020-01-12T14:07:21.000Z</time>
      </trkpt>
      <trkpt lat="43.58413" lon="0.52847">
        <ele>189</ele>
        <time>2020-01-12T14:07:23.000Z</time>
      </trkpt>
      <trkpt lat="43.58415" lon="0.52848">
        <ele>189</ele>
        <time>2020-01-12T14:07:25.000Z</time>
      </trkpt>
      <trkpt lat="43.58416" lon="0.52849">
        <ele>189</ele>
        <time>2020-01-12T14:07:27.000Z</time>
      </trkpt>
      <trkpt lat="43.58418" lon="0.5285">
        <ele>189</ele>
        <time>2020-01-12T14:07:29.000Z</time>
      </trkpt>
      <trkpt lat="43.58419" lon="0.52851">
        <ele>189</ele>
        <time>2020-01-12T14:07:31.000Z</time>
      </trkpt>
      <trkpt lat="43.58421" lon="0.52853">
        <ele>189</ele>
        <time>2020-01-12T14:07:33.000Z</time>
      </trkpt>
      <trkpt lat="43.58422" lon="0.52854">
        <ele>189</ele>
        <time>2020-01-12T14:07:35.000Z</time>
      </trkpt>
      <trkpt lat="43.58425" lon="0.52855">
        <ele>189</ele>
        <time>2020-01-12T14:07:37.000Z</time>
      </trkpt>
      <trkpt lat="43.58426" lon="0.52856">
        <ele>189</ele>
        <time>2020-01-12T14:07:39.000Z</time>
      </trkpt>
      <trkpt lat="43.58428" lon="0.52856">
        <ele>189</ele>
        <time>2020-01-12T14:07:41.000Z</time>
      </trkpt>
      <trkpt lat="43.5843" lon="0.52857">
        <ele>189</ele>
        <time>2020-01-12T14:07:43.000Z</time>
      </trkpt>
      <trkpt lat="43.58431" lon="0.52857">
        <ele>189</ele>
        <time>2020-01-12T14:07:45.000Z</time>
      </trkpt>
      <trkpt lat="43.58433" lon="0.52858">
        <ele>189</ele>
        <time>2020-01-12T14:07:47.000Z</time>
      </trkpt>
      <trkpt lat="43.58435" lon="0.52859">
        <ele>189</ele>
        <time>2020-01-12T14:07:49.000Z</time>
      </trkpt>
      <trkpt lat="43.58436" lon="0.5286">
        <ele>189</ele>
        <time>2020-01-12T14:07:51.000Z</time>
      </trkpt>
      <trkpt lat="43.58438" lon="0.52861">
        <ele>189</ele>
        <time>2020-01-12T14:07:53.000Z</time>
      </trkpt>
      <trkpt lat="43.5844" lon="0.52862">
        <ele>189</ele>
        <time>2020-01-12T14:07:55.000Z</time>
      </trkpt>
      <trkpt lat="43.58441" lon="0.52863">
        <ele>189</ele>
        <time>2020-01-12T14:07:57.000Z</time>
      </trkpt>
      <trkpt lat="43.58443" lon="0.52863">
        <ele>188</ele>
        <time>2020-01-12T14:07:59.000Z</time>
      </trkpt>
      <trkpt lat="43.58445" lon="0.52864">
        <ele>188</ele>
        <time>2020-01-12T14:08:01.000Z</time>
      </trkpt>
      <trkpt lat="43.58446" lon="0.52865">
        <ele>188</ele>
        <time>2020-01-12T14:08:03.000Z</time>
      </trkpt>
      <trkpt lat="43.58448" lon="0.52866">
        <ele>188</ele>
        <time>2020-01-12T14:08:05.000Z</time>
      </trkpt>
      <trkpt lat="43.58449" lon="0.52867">
        <ele>188</ele>
        <time>2020-01-12T14:08:07.000Z</time>
      </trkpt>
      <trkpt lat="43.58451" lon="0.52869">
        <ele>188</ele>
        <time>2020-01-12T14:08:09.000Z</time>
      </trkpt>
      <trkpt lat="43.58453" lon="0.52869">
        <ele>188</ele>
        <time>2020-01-12T14:08:11.000Z</time>
      </trkpt>
      <trkpt lat="43.58454" lon="0.52871">
        <ele>188</ele>
        <time>2020-01-12T14:08:13.000Z</time>
      </trkpt>
      <trkpt lat="43.58456" lon="0.52872">
        <ele>188</ele>
        <time>2020-01-12T14:08:15.000Z</time>
      </trkpt>
      <trkpt lat="43.58458" lon="0.52873">
        <ele>188</ele>
        <time>2020-01-12T14:08:17.000Z</time>
      </trkpt>
      <trkpt lat="43.5846" lon="0.52874">
        <ele>188</ele>
        <time>2020-01-12T14:08:19.000Z</time>
      </trkpt>
      <trkpt lat="43.58461" lon="0.52874">
        <ele>188</ele>
        <time>2020-01-12T14:08:21.000Z</time>
      </trkpt>
      <trkpt lat="43.58462" lon="0.52875">
        <ele>188</ele>
        <time>2020-01-12T14:08:23.000Z</time>
      </trkpt>
      <trkpt lat="43.58463" lon="0.52875">
        <ele>188</ele>
        <time>2020-01-12T14:08:25.000Z</time>
      </trkpt>
      <trkpt lat="43.58465" lon="0.52876">
        <ele>188</ele>
        <time>2020-01-12T14:08:27.000Z</time>
      </trkpt>
      <trkpt lat="43.58467" lon="0.52876">
        <ele>188</ele>
        <time>2020-01-12T14:08:29.000Z</time>
      </trkpt>
      <trkpt lat="43.58468" lon="0.52877">
        <ele>188</ele>
        <time>2020-01-12T14:08:31.000Z</time>
      </trkpt>
      <trkpt lat="43.58469" lon="0.52878">
        <ele>188</ele>
        <time>2020-01-12T14:08:33.000Z</time>
      </trkpt>
      <trkpt lat="43.58471" lon="0.52878">
        <ele>188</ele>
        <time>2020-01-12T14:08:35.000Z</time>
      </trkpt>
      <trkpt lat="43.58472" lon="0.52879">
        <ele>188</ele>
        <time>2020-01-12T14:08:37.000Z</time>
      </trkpt>
      <trkpt lat="43.58474" lon="0.5288">
        <ele>188</ele>
        <time>2020-01-12T14:08:39.000Z</time>
      </trkpt>
      <trkpt lat="43.58476" lon="0.52882">
        <ele>188</ele>
        <time>2020-01-12T14:08:41.000Z</time>
      </trkpt>
      <trkpt lat="43.58478" lon="0.52883">
        <ele>188</ele>
        <time>2020-01-12T14:08:43.000Z</time>
      </trkpt>
      <trkpt lat="43.5848" lon="0.52884">
        <ele>188</ele>
        <time>2020-01-12T14:08:45.000Z</time>
      </trkpt>
      <trkpt lat="43.58481" lon="0.52885">
        <ele>188</ele>
        <time>2020-01-12T14:08:47.000Z</time>
      </trkpt>
      <trkpt lat="43.58483" lon="0.52885">
        <ele>188</ele>
        <time>2020-01-12T14:08:49.000Z</time>
      </trkpt>
      <trkpt lat="43.58484" lon="0.52886">
        <ele>188</ele>
        <time>2020-01-12T14:08:51.000Z</time>
      </trkpt>
      <trkpt lat="43.58486" lon="0.52887">
        <ele>188</ele>
        <time>2020-01-12T14:08:53.000Z</time>
      </trkpt>
      <trkpt lat="43.58488" lon="0.52889">
        <ele>188</ele>
        <time>2020-01-12T14:08:55.000Z</time>
      </trkpt>
      <trkpt lat="43.58489" lon="0.5289">
        <ele>188</ele>
        <time>2020-01-12T14:08:57.000Z</time>
      </trkpt>
      <trkpt lat="43.58491" lon="0.52891">
        <ele>188</ele>
        <time>2020-01-12T14:08:59.000Z</time>
      </trkpt>
      <trkpt lat="43.58493" lon="0.52891">
        <ele>188</ele>
        <time>2020-01-12T14:09:01.000Z</time>
      </trkpt>
      <trkpt lat="43.58494" lon="0.52892">
        <ele>188</ele>
        <time>2020-01-12T14:09:03.000Z</time>
      </trkpt>
      <trkpt lat="43.58496" lon="0.52893">
        <ele>188</ele>
        <time>2020-01-12T14:09:05.000Z</time>
      </trkpt>
      <trkpt lat="43.58498" lon="0.52894">
        <ele>188</ele>
        <time>2020-01-12T14:09:07.000Z</time>
      </trkpt>
      <trkpt lat="43.58498" lon="0.52895">
        <ele>188</ele>
        <time>2020-01-12T14:09:09.000Z</time>
      </trkpt>
      <trkpt lat="43.585" lon="0.52896">
        <ele>188</ele>
        <time>2020-01-12T14:09:11.000Z</time>
      </trkpt>
      <trkpt lat="43.58501" lon="0.52896">
        <ele>188</ele>
        <time>2020-01-12T14:09:13.000Z</time>
      </trkpt>
      <trkpt lat="43.58501" lon="0.52896">
        <ele>188</ele>
        <time>2020-01-12T14:09:15.000Z</time>
      </trkpt>
      <trkpt lat="43.58503" lon="0.52897">
        <ele>188</ele>
        <time>2020-01-12T14:09:17.000Z</time>
      </trkpt>
      <trkpt lat="43.58504" lon="0.52898">
        <ele>188</ele>
        <time>2020-01-12T14:09:19.000Z</time>
      </trkpt>
      <trkpt lat="43.58505" lon="0.52899">
        <ele>188</ele>
        <time>2020-01-12T14:09:21.000Z</time>
      </trkpt>
      <trkpt lat="43.58506" lon="0.529">
        <ele>188</ele>
        <time>2020-01-12T14:09:23.000Z</time>
      </trkpt>
      <trkpt lat="43.58507" lon="0.52901">
        <ele>188</ele>
        <time>2020-01-12T14:09:25.000Z</time>
      </trkpt>
      <trkpt lat="43.58509" lon="0.52903">
        <ele>188</ele>
        <time>2020-01-12T14:09:27.000Z</time>
      </trkpt>
      <trkpt lat="43.58511" lon="0.52903">
        <ele>188</ele>
        <time>2020-01-12T14:09:29.000Z</time>
      </trkpt>
      <trkpt lat="43.58512" lon="0.52904">
        <ele>188</ele>
        <time>2020-01-12T14:09:31.000Z</time>
      </trkpt>
      <trkpt lat="43.58513" lon="0.52905">
        <ele>187</ele>
        <time>2020-01-12T14:09:33.000Z</time>
      </trkpt>
      <trkpt lat="43.58515" lon="0.52907">
        <ele>187</ele>
        <time>2020-01-12T14:09:35.000Z</time>
      </trkpt>
      <trkpt lat="43.58516" lon="0.52908">
        <ele>187</ele>
        <time>2020-01-12T14:09:37.000Z</time>
      </trkpt>
      <trkpt lat="43.58518" lon="0.52909">
        <ele>187</ele>
        <time>2020-01-12T14:09:39.000Z</time>
      </trkpt>
      <trkpt lat="43.58519" lon="0.5291">
        <ele>187</ele>
        <time>2020-01-12T14:09:41.000Z</time>
      </trkpt>
      <trkpt lat="43.5852" lon="0.52911">
        <ele>187</ele>
        <time>2020-01-12T14:09:43.000Z</time>
      </trkpt>
      <trkpt lat="43.58521" lon="0.52912">
        <ele>187</ele>
        <time>2020-01-12T14:09:45.000Z</time>
      </trkpt>
      <trkpt lat="43.58522" lon="0.52913">
        <ele>187</ele>
        <time>2020-01-12T14:09:47.000Z</time>
      </trkpt>
      <trkpt lat="43.58523" lon="0.52913">
        <ele>187</ele>
        <time>2020-01-12T14:09:49.000Z</time>
      </trkpt>
      <trkpt lat="43.58524" lon="0.52914">
        <ele>187</ele>
        <time>2020-01-12T14:09:51.000Z</time>
      </trkpt>
      <trkpt lat="43.58526" lon="0.52914">
        <ele>187</ele>
        <time>2020-01-12T14:09:53.000Z</time>
      </trkpt>
      <trkpt lat="43.58527" lon="0.52914">
        <ele>186</ele>
        <time>2020-01-12T14:09:55.000Z</time>
      </trkpt>
      <trkpt lat="43.58528" lon="0.52915">
        <ele>186</ele>
        <time>2020-01-12T14:09:57.000Z</time>
      </trkpt>
      <trkpt lat="43.5853" lon="0.52914">
        <ele>186</ele>
        <time>2020-01-12T14:09:59.000Z</time>
      </trkpt>
      <trkpt lat="43.58532" lon="0.52915">
        <ele>186</ele>
        <time>2020-01-12T14:10:01.000Z</time>
      </trkpt>
      <trkpt lat="43.58533" lon="0.52915">
        <ele>186</ele>
        <time>2020-01-12T14:10:03.000Z</time>
      </trkpt>
      <trkpt lat="43.58533" lon="0.52915">
        <ele>186</ele>
        <time>2020-01-12T14:10:05.000Z</time>
      </trkpt>
      <trkpt lat="43.58532" lon="0.52915">
        <ele>186</ele>
        <time>2020-01-12T14:10:07.000Z</time>
      </trkpt>
      <trkpt lat="43.58532" lon="0.52914">
        <ele>186</ele>
        <time>2020-01-12T14:10:09.000Z</time>
      </trkpt>
      <trkpt lat="43.58532" lon="0.52914">
        <ele>186</ele>
        <time>2020-01-12T14:10:11.000Z</time>
      </trkpt>
      <trkpt lat="43.58533" lon="0.52914">
        <ele>186</ele>
        <time>2020-01-12T14:10:13.000Z</time>
      </trkpt>
      <trkpt lat="43.58534" lon="0.52914">
        <ele>186</ele>
        <time>2020-01-12T14:10:15.000Z</time>
      </trkpt>
      <trkpt lat="43.58536" lon="0.52914">
        <ele>186</ele>
        <time>2020-01-12T14:10:17.000Z</time>
      </trkpt>
      <trkpt lat="43.58537" lon="0.52914">
        <ele>186</ele>
        <time>2020-01-12T14:10:19.000Z</time>
      </trkpt>
      <trkpt lat="43.58538" lon="0.52913">
        <ele>186</ele>
        <time>2020-01-12T14:10:21.000Z</time>
      </trkpt>
      <trkpt lat="43.5854" lon="0.52913">
        <ele>186</ele>
        <time>2020-01-12T14:10:23.000Z</time>
      </trkpt>
      <trkpt lat="43.58541" lon="0.52912">
        <ele>185</ele>
        <time>2020-01-12T14:10:25.000Z</time>
      </trkpt>
      <trkpt lat="43.58543" lon="0.52911">
        <ele>185</ele>
        <time>2020-01-12T14:10:27.000Z</time>
      </trkpt>
      <trkpt lat="43.58545" lon="0.52911">
        <ele>185</ele>
        <time>2020-01-12T14:10:29.000Z</time>
      </trkpt>
      <trkpt lat="43.58546" lon="0.5291">
        <ele>185</ele>
        <time>2020-01-12T14:10:31.000Z</time>
      </trkpt>
      <trkpt lat="43.58548" lon="0.52909">
        <ele>185</ele>
        <time>2020-01-12T14:10:33.000Z</time>
      </trkpt>
      <trkpt lat="43.5855" lon="0.52909">
        <ele>185</ele>
        <time>2020-01-12T14:10:35.000Z</time>
      </trkpt>
      <trkpt lat="43.58551" lon="0.52908">
        <ele>185</ele>
        <time>2020-01-12T14:10:37.000Z</time>
      </trkpt>
      <trkpt lat="43.58553" lon="0.52907">
        <ele>185</ele>
        <time>2020-01-12T14:10:39.000Z</time>
      </trkpt>
      <trkpt lat="43.58554" lon="0.52906">
        <ele>185</ele>
        <time>2020-01-12T14:10:41.000Z</time>
      </trkpt>
      <trkpt lat="43.58555" lon="0.52906">
        <ele>185</ele>
        <time>2020-01-12T14:10:43.000Z</time>
      </trkpt>
      <trkpt lat="43.58556" lon="0.52906">
        <ele>185</ele>
        <time>2020-01-12T14:10:45.000Z</time>
      </trkpt>
      <trkpt lat="43.58557" lon="0.52905">
        <ele>185</ele>
        <time>2020-01-12T14:10:47.000Z</time>
      </trkpt>
      <trkpt lat="43.58559" lon="0.52905">
        <ele>185</ele>
        <time>2020-01-12T14:10:49.000Z</time>
      </trkpt>
      <trkpt lat="43.58559" lon="0.52905">
        <ele>184</ele>
        <time>2020-01-12T14:10:51.000Z</time>
      </trkpt>
      <trkpt lat="43.58559" lon="0.52905">
        <ele>185</ele>
        <time>2020-01-12T14:10:53.000Z</time>
      </trkpt>
      <trkpt lat="43.5856" lon="0.52905">
        <ele>184</ele>
        <time>2020-01-12T14:10:55.000Z</time>
      </trkpt>
      <trkpt lat="43.58561" lon="0.52905">
        <ele>184</ele>
        <time>2020-01-12T14:10:57.000Z</time>
      </trkpt>
      <trkpt lat="43.58562" lon="0.52904">
        <ele>184</ele>
        <time>2020-01-12T14:10:59.000Z</time>
      </trkpt>
      <trkpt lat="43.58563" lon="0.52905">
        <ele>184</ele>
        <time>2020-01-12T14:11:01.000Z</time>
      </trkpt>
      <trkpt lat="43.58564" lon="0.52907">
        <ele>184</ele>
        <time>2020-01-12T14:11:03.000Z</time>
      </trkpt>
      <trkpt lat="43.58566" lon="0.5291">
        <ele>184</ele>
        <time>2020-01-12T14:11:05.000Z</time>
      </trkpt>
      <trkpt lat="43.58567" lon="0.52912">
        <ele>184</ele>
        <time>2020-01-12T14:11:07.000Z</time>
      </trkpt>
      <trkpt lat="43.58568" lon="0.52915">
        <ele>184</ele>
        <time>2020-01-12T14:11:09.000Z</time>
      </trkpt>
      <trkpt lat="43.58568" lon="0.52918">
        <ele>183</ele>
        <time>2020-01-12T14:11:11.000Z</time>
      </trkpt>
      <trkpt lat="43.58569" lon="0.5292">
        <ele>183</ele>
        <time>2020-01-12T14:11:13.000Z</time>
      </trkpt>
      <trkpt lat="43.5857" lon="0.52923">
        <ele>183</ele>
        <time>2020-01-12T14:11:15.000Z</time>
      </trkpt>
      <trkpt lat="43.58571" lon="0.52925">
        <ele>183</ele>
        <time>2020-01-12T14:11:17.000Z</time>
      </trkpt>
      <trkpt lat="43.58572" lon="0.52927">
        <ele>183</ele>
        <time>2020-01-12T14:11:19.000Z</time>
      </trkpt>
      <trkpt lat="43.58573" lon="0.52929">
        <ele>183</ele>
        <time>2020-01-12T14:11:21.000Z</time>
      </trkpt>
      <trkpt lat="43.58574" lon="0.52931">
        <ele>182</ele>
        <time>2020-01-12T14:11:23.000Z</time>
      </trkpt>
      <trkpt lat="43.58575" lon="0.52934">
        <ele>182</ele>
        <time>2020-01-12T14:11:25.000Z</time>
      </trkpt>
      <trkpt lat="43.58576" lon="0.52936">
        <ele>182</ele>
        <time>2020-01-12T14:11:27.000Z</time>
      </trkpt>
      <trkpt lat="43.58577" lon="0.52938">
        <ele>182</ele>
        <time>2020-01-12T14:11:29.000Z</time>
      </trkpt>
      <trkpt lat="43.58578" lon="0.5294">
        <ele>182</ele>
        <time>2020-01-12T14:11:31.000Z</time>
      </trkpt>
      <trkpt lat="43.58579" lon="0.52942">
        <ele>182</ele>
        <time>2020-01-12T14:11:33.000Z</time>
      </trkpt>
      <trkpt lat="43.5858" lon="0.52943">
        <ele>181</ele>
        <time>2020-01-12T14:11:35.000Z</time>
      </trkpt>
      <trkpt lat="43.5858" lon="0.52945">
        <ele>181</ele>
        <time>2020-01-12T14:11:37.000Z</time>
      </trkpt>
      <trkpt lat="43.58581" lon="0.52947">
        <ele>181</ele>
        <time>2020-01-12T14:11:39.000Z</time>
      </trkpt>
      <trkpt lat="43.58582" lon="0.52949">
        <ele>181</ele>
        <time>2020-01-12T14:11:41.000Z</time>
      </trkpt>
      <trkpt lat="43.58583" lon="0.5295">
        <ele>181</ele>
        <time>2020-01-12T14:11:43.000Z</time>
      </trkpt>
      <trkpt lat="43.58585" lon="0.52952">
        <ele>181</ele>
        <time>2020-01-12T14:11:45.000Z</time>
      </trkpt>
      <trkpt lat="43.58586" lon="0.52954">
        <ele>181</ele>
        <time>2020-01-12T14:11:47.000Z</time>
      </trkpt>
      <trkpt lat="43.58587" lon="0.52956">
        <ele>181</ele>
        <time>2020-01-12T14:11:49.000Z</time>
      </trkpt>
      <trkpt lat="43.58588" lon="0.52958">
        <ele>180</ele>
        <time>2020-01-12T14:11:51.000Z</time>
      </trkpt>
      <trkpt lat="43.58588" lon="0.5296">
        <ele>180</ele>
        <time>2020-01-12T14:11:53.000Z</time>
      </trkpt>
      <trkpt lat="43.58589" lon="0.52962">
        <ele>180</ele>
        <time>2020-01-12T14:11:55.000Z</time>
      </trkpt>
      <trkpt lat="43.5859" lon="0.52963">
        <ele>180</ele>
        <time>2020-01-12T14:11:57.000Z</time>
      </trkpt>
      <trkpt lat="43.5859" lon="0.52965">
        <ele>180</ele>
        <time>2020-01-12T14:11:59.000Z</time>
      </trkpt>
      <trkpt lat="43.5859" lon="0.52966">
        <ele>180</ele>
        <time>2020-01-12T14:12:01.000Z</time>
      </trkpt>
      <trkpt lat="43.58591" lon="0.52968">
        <ele>180</ele>
        <time>2020-01-12T14:12:03.000Z</time>
      </trkpt>
      <trkpt lat="43.58592" lon="0.52969">
        <ele>180</ele>
        <time>2020-01-12T14:12:05.000Z</time>
      </trkpt>
      <trkpt lat="43.58592" lon="0.52971">
        <ele>180</ele>
        <time>2020-01-12T14:12:07.000Z</time>
      </trkpt>
      <trkpt lat="43.58594" lon="0.52972">
        <ele>180</ele>
        <time>2020-01-12T14:12:09.000Z</time>
      </trkpt>
      <trkpt lat="43.58595" lon="0.52973">
        <ele>180</ele>
        <time>2020-01-12T14:12:11.000Z</time>
      </trkpt>
      <trkpt lat="43.58596" lon="0.52974">
        <ele>180</ele>
        <time>2020-01-12T14:12:13.000Z</time>
      </trkpt>
      <trkpt lat="43.58596" lon="0.52975">
        <ele>179</ele>
        <time>2020-01-12T14:12:15.000Z</time>
      </trkpt>
      <trkpt lat="43.58597" lon="0.52977">
        <ele>179</ele>
        <time>2020-01-12T14:12:17.000Z</time>
      </trkpt>
      <trkpt lat="43.58598" lon="0.52979">
        <ele>179</ele>
        <time>2020-01-12T14:12:19.000Z</time>
      </trkpt>
      <trkpt lat="43.58598" lon="0.5298">
        <ele>179</ele>
        <time>2020-01-12T14:12:21.000Z</time>
      </trkpt>
      <trkpt lat="43.58599" lon="0.52982">
        <ele>179</ele>
        <time>2020-01-12T14:12:23.000Z</time>
      </trkpt>
      <trkpt lat="43.586" lon="0.52983">
        <ele>179</ele>
        <time>2020-01-12T14:12:25.000Z</time>
      </trkpt>
      <trkpt lat="43.58601" lon="0.52985">
        <ele>179</ele>
        <time>2020-01-12T14:12:27.000Z</time>
      </trkpt>
      <trkpt lat="43.58602" lon="0.52986">
        <ele>179</ele>
        <time>2020-01-12T14:12:29.000Z</time>
      </trkpt>
      <trkpt lat="43.58602" lon="0.52988">
        <ele>179</ele>
        <time>2020-01-12T14:12:31.000Z</time>
      </trkpt>
      <trkpt lat="43.58603" lon="0.52989">
        <ele>179</ele>
        <time>2020-01-12T14:12:33.000Z</time>
      </trkpt>
      <trkpt lat="43.58604" lon="0.52991">
        <ele>179</ele>
        <time>2020-01-12T14:12:35.000Z</time>
      </trkpt>
      <trkpt lat="43.58605" lon="0.52993">
        <ele>179</ele>
        <time>2020-01-12T14:12:37.000Z</time>
      </trkpt>
      <trkpt lat="43.58606" lon="0.52994">
        <ele>179</ele>
        <time>2020-01-12T14:12:39.000Z</time>
      </trkpt>
      <trkpt lat="43.58607" lon="0.52996">
        <ele>179</ele>
        <time>2020-01-12T14:12:41.000Z</time>
      </trkpt>
      <trkpt lat="43.58608" lon="0.52997">
        <ele>180</ele>
        <time>2020-01-12T14:12:43.000Z</time>
      </trkpt>
      <trkpt lat="43.58608" lon="0.52998">
        <ele>180</ele>
        <time>2020-01-12T14:12:45.000Z</time>
      </trkpt>
      <trkpt lat="43.58609" lon="0.52999">
        <ele>180</ele>
        <time>2020-01-12T14:12:47.000Z</time>
      </trkpt>
      <trkpt lat="43.5861" lon="0.53001">
        <ele>180</ele>
        <time>2020-01-12T14:12:49.000Z</time>
      </trkpt>
      <trkpt lat="43.58612" lon="0.53002">
        <ele>180</ele>
        <time>2020-01-12T14:12:51.000Z</time>
      </trkpt>
      <trkpt lat="43.58613" lon="0.53003">
        <ele>180</ele>
        <time>2020-01-12T14:12:53.000Z</time>
      </trkpt>
      <trkpt lat="43.58615" lon="0.53004">
        <ele>180</ele>
        <time>2020-01-12T14:12:55.000Z</time>
      </trkpt>
      <trkpt lat="43.58616" lon="0.53005">
        <ele>180</ele>
        <time>2020-01-12T14:12:57.000Z</time>
      </trkpt>
      <trkpt lat="43.58618" lon="0.53006">
        <ele>180</ele>
        <time>2020-01-12T14:12:59.000Z</time>
      </trkpt>
      <trkpt lat="43.5862" lon="0.53007">
        <ele>181</ele>
        <time>2020-01-12T14:13:01.000Z</time>
      </trkpt>
      <trkpt lat="43.58621" lon="0.53008">
        <ele>181</ele>
        <time>2020-01-12T14:13:03.000Z</time>
      </trkpt>
      <trkpt lat="43.58623" lon="0.53008">
        <ele>181</ele>
        <time>2020-01-12T14:13:05.000Z</time>
      </trkpt>
      <trkpt lat="43.58625" lon="0.53009">
        <ele>181</ele>
        <time>2020-01-12T14:13:07.000Z</time>
      </trkpt>
      <trkpt lat="43.58627" lon="0.53009">
        <ele>181</ele>
        <time>2020-01-12T14:13:09.000Z</time>
      </trkpt>
      <trkpt lat="43.58629" lon="0.53009">
        <ele>181</ele>
        <time>2020-01-12T14:13:11.000Z</time>
      </trkpt>
      <trkpt lat="43.58631" lon="0.53009">
        <ele>182</ele>
        <time>2020-01-12T14:13:13.000Z</time>
      </trkpt>
      <trkpt lat="43.58633" lon="0.53009">
        <ele>182</ele>
        <time>2020-01-12T14:13:15.000Z</time>
      </trkpt>
      <trkpt lat="43.58635" lon="0.53009">
        <ele>182</ele>
        <time>2020-01-12T14:13:17.000Z</time>
      </trkpt>
      <trkpt lat="43.58637" lon="0.53008">
        <ele>182</ele>
        <time>2020-01-12T14:13:19.000Z</time>
      </trkpt>
      <trkpt lat="43.58639" lon="0.53008">
        <ele>182</ele>
        <time>2020-01-12T14:13:21.000Z</time>
      </trkpt>
      <trkpt lat="43.5864" lon="0.53008">
        <ele>182</ele>
        <time>2020-01-12T14:13:23.000Z</time>
      </trkpt>
      <trkpt lat="43.58642" lon="0.53008">
        <ele>182</ele>
        <time>2020-01-12T14:13:25.000Z</time>
      </trkpt>
      <trkpt lat="43.58643" lon="0.53008">
        <ele>182</ele>
        <time>2020-01-12T14:13:27.000Z</time>
      </trkpt>
      <trkpt lat="43.58644" lon="0.53008">
        <ele>183</ele>
        <time>2020-01-12T14:13:29.000Z</time>
      </trkpt>
      <trkpt lat="43.58646" lon="0.53007">
        <ele>183</ele>
        <time>2020-01-12T14:13:31.000Z</time>
      </trkpt>
      <trkpt lat="43.58647" lon="0.53008">
        <ele>183</ele>
        <time>2020-01-12T14:13:33.000Z</time>
      </trkpt>
      <trkpt lat="43.58649" lon="0.53008">
        <ele>183</ele>
        <time>2020-01-12T14:13:35.000Z</time>
      </trkpt>
      <trkpt lat="43.5865" lon="0.53008">
        <ele>183</ele>
        <time>2020-01-12T14:13:37.000Z</time>
      </trkpt>
      <trkpt lat="43.58652" lon="0.53008">
        <ele>184</ele>
        <time>2020-01-12T14:13:39.000Z</time>
      </trkpt>
      <trkpt lat="43.58654" lon="0.53008">
        <ele>184</ele>
        <time>2020-01-12T14:13:41.000Z</time>
      </trkpt>
      <trkpt lat="43.58656" lon="0.53009">
        <ele>184</ele>
        <time>2020-01-12T14:13:43.000Z</time>
      </trkpt>
      <trkpt lat="43.58657" lon="0.53009">
        <ele>184</ele>
        <time>2020-01-12T14:13:45.000Z</time>
      </trkpt>
      <trkpt lat="43.58658" lon="0.53009">
        <ele>184</ele>
        <time>2020-01-12T14:13:47.000Z</time>
      </trkpt>
      <trkpt lat="43.5866" lon="0.53009">
        <ele>184</ele>
        <time>2020-01-12T14:13:49.000Z</time>
      </trkpt>
      <trkpt lat="43.58661" lon="0.53008">
        <ele>185</ele>
        <time>2020-01-12T14:13:51.000Z</time>
      </trkpt>
      <trkpt lat="43.58662" lon="0.53007">
        <ele>185</ele>
        <time>2020-01-12T14:13:53.000Z</time>
      </trkpt>
      <trkpt lat="43.58662" lon="0.53007">
        <ele>185</ele>
        <time>2020-01-12T14:13:55.000Z</time>
      </trkpt>
      <trkpt lat="43.58663" lon="0.53007">
        <ele>185</ele>
        <time>2020-01-12T14:13:57.000Z</time>
      </trkpt>
      <trkpt lat="43.58662" lon="0.53007">
        <ele>185</ele>
        <time>2020-01-12T14:13:59.000Z</time>
      </trkpt>
      <trkpt lat="43.58662" lon="0.53007">
        <ele>185</ele>
        <time>2020-01-12T14:14:01.000Z</time>
      </trkpt>
      <trkpt lat="43.58662" lon="0.53007">
        <ele>185</ele>
        <time>2020-01-12T14:14:03.000Z</time>
      </trkpt>
      <trkpt lat="43.58662" lon="0.53008">
        <ele>185</ele>
        <time>2020-01-12T14:14:05.000Z</time>
      </trkpt>
      <trkpt lat="43.58662" lon="0.53007">
        <ele>185</ele>
        <time>2020-01-12T14:14:07.000Z</time>
      </trkpt>
      <trkpt lat="43.58663" lon="0.53007">
        <ele>185</ele>
        <time>2020-01-12T14:14:09.000Z</time>
      </trkpt>
      <trkpt lat="43.58663" lon="0.53007">
        <ele>185</ele>
        <time>2020-01-12T14:14:11.000Z</time>
      </trkpt>
      <trkpt lat="43.58663" lon="0.53007">
        <ele>185</ele>
        <time>2020-01-12T14:14:13.000Z</time>
      </trkpt>
      <trkpt lat="43.58663" lon="0.53007">
        <ele>185</ele>
        <time>2020-01-12T14:14:15.000Z</time>
      </trkpt>
      <trkpt lat="43.58664" lon="0.53007">
        <ele>185</ele>
        <time>2020-01-12T14:14:17.000Z</time>
      </trkpt>
      <trkpt lat="43.58664" lon="0.53007">
        <ele>185</ele>
        <time>2020-01-12T14:14:19.000Z</time>
      </trkpt>
      <trkpt lat="43.58664" lon="0.53007">
        <ele>185</ele>
        <time>2020-01-12T14:14:21.000Z</time>
      </trkpt>
      <trkpt lat="43.58665" lon="0.53007">
        <ele>185</ele>
        <time>2020-01-12T14:14:23.000Z</time>
      </trkpt>
      <trkpt lat="43.58665" lon="0.53007">
        <ele>185</ele>
        <time>2020-01-12T14:14:25.000Z</time>
      </trkpt>
      <trkpt lat="43.58666" lon="0.53008">
        <ele>185</ele>
        <time>2020-01-12T14:14:27.000Z</time>
      </trkpt>
      <trkpt lat="43.58666" lon="0.53008">
        <ele>185</ele>
        <time>2020-01-12T14:14:29.000Z</time>
      </trkpt>
      <trkpt lat="43.58667" lon="0.53008">
        <ele>185</ele>
        <time>2020-01-12T14:14:31.000Z</time>
      </trkpt>
      <trkpt lat="43.58667" lon="0.53009">
        <ele>185</ele>
        <time>2020-01-12T14:14:33.000Z</time>
      </trkpt>
      <trkpt lat="43.58666" lon="0.5301">
        <ele>185</ele>
        <time>2020-01-12T14:14:35.000Z</time>
      </trkpt>
      <trkpt lat="43.58666" lon="0.53012">
        <ele>185</ele>
        <time>2020-01-12T14:14:37.000Z</time>
      </trkpt>
      <trkpt lat="43.58666" lon="0.53012">
        <ele>185</ele>
        <time>2020-01-12T14:14:39.000Z</time>
      </trkpt>
      <trkpt lat="43.58665" lon="0.53013">
        <ele>185</ele>
        <time>2020-01-12T14:14:41.000Z</time>
      </trkpt>
      <trkpt lat="43.58664" lon="0.53014">
        <ele>185</ele>
        <time>2020-01-12T14:14:43.000Z</time>
      </trkpt>
      <trkpt lat="43.58664" lon="0.53015">
        <ele>185</ele>
        <time>2020-01-12T14:14:45.000Z</time>
      </trkpt>
      <trkpt lat="43.58663" lon="0.53015">
        <ele>185</ele>
        <time>2020-01-12T14:14:47.000Z</time>
      </trkpt>
      <trkpt lat="43.58662" lon="0.53015">
        <ele>185</ele>
        <time>2020-01-12T14:14:49.000Z</time>
      </trkpt>
      <trkpt lat="43.58662" lon="0.53016">
        <ele>185</ele>
        <time>2020-01-12T14:14:51.000Z</time>
      </trkpt>
      <trkpt lat="43.58662" lon="0.53016">
        <ele>184</ele>
        <time>2020-01-12T14:14:53.000Z</time>
      </trkpt>
      <trkpt lat="43.58661" lon="0.53016">
        <ele>184</ele>
        <time>2020-01-12T14:14:55.000Z</time>
      </trkpt>
      <trkpt lat="43.58663" lon="0.53015">
        <ele>185</ele>
        <time>2020-01-12T14:14:57.000Z</time>
      </trkpt>
      <trkpt lat="43.58664" lon="0.53016">
        <ele>185</ele>
        <time>2020-01-12T14:14:59.000Z</time>
      </trkpt>
      <trkpt lat="43.58666" lon="0.53016">
        <ele>185</ele>
        <time>2020-01-12T14:15:01.000Z</time>
      </trkpt>
      <trkpt lat="43.58668" lon="0.53017">
        <ele>185</ele>
        <time>2020-01-12T14:15:03.000Z</time>
      </trkpt>
      <trkpt lat="43.58669" lon="0.53018">
        <ele>185</ele>
        <time>2020-01-12T14:15:05.000Z</time>
      </trkpt>
      <trkpt lat="43.5867" lon="0.53019">
        <ele>185</ele>
        <time>2020-01-12T14:15:07.000Z</time>
      </trkpt>
      <trkpt lat="43.58671" lon="0.5302">
        <ele>185</ele>
        <time>2020-01-12T14:15:09.000Z</time>
      </trkpt>
      <trkpt lat="43.58672" lon="0.5302">
        <ele>186</ele>
        <time>2020-01-12T14:15:11.000Z</time>
      </trkpt>
      <trkpt lat="43.58673" lon="0.5302">
        <ele>186</ele>
        <time>2020-01-12T14:15:13.000Z</time>
      </trkpt>
      <trkpt lat="43.58674" lon="0.53021">
        <ele>186</ele>
        <time>2020-01-12T14:15:15.000Z</time>
      </trkpt>
      <trkpt lat="43.58677" lon="0.53023">
        <ele>186</ele>
        <time>2020-01-12T14:15:17.000Z</time>
      </trkpt>
      <trkpt lat="43.58678" lon="0.53024">
        <ele>186</ele>
        <time>2020-01-12T14:15:19.000Z</time>
      </trkpt>
      <trkpt lat="43.58679" lon="0.53025">
        <ele>186</ele>
        <time>2020-01-12T14:15:21.000Z</time>
      </trkpt>
      <trkpt lat="43.5868" lon="0.53025">
        <ele>186</ele>
        <time>2020-01-12T14:15:23.000Z</time>
      </trkpt>
      <trkpt lat="43.58682" lon="0.53026">
        <ele>187</ele>
        <time>2020-01-12T14:15:25.000Z</time>
      </trkpt>
      <trkpt lat="43.58683" lon="0.53028">
        <ele>187</ele>
        <time>2020-01-12T14:15:27.000Z</time>
      </trkpt>
      <trkpt lat="43.58684" lon="0.5303">
        <ele>187</ele>
        <time>2020-01-12T14:15:29.000Z</time>
      </trkpt>
      <trkpt lat="43.58685" lon="0.53031">
        <ele>187</ele>
        <time>2020-01-12T14:15:31.000Z</time>
      </trkpt>
      <trkpt lat="43.58687" lon="0.53032">
        <ele>187</ele>
        <time>2020-01-12T14:15:33.000Z</time>
      </trkpt>
      <trkpt lat="43.58688" lon="0.53032">
        <ele>187</ele>
        <time>2020-01-12T14:15:35.000Z</time>
      </trkpt>
      <trkpt lat="43.5869" lon="0.53033">
        <ele>187</ele>
        <time>2020-01-12T14:15:37.000Z</time>
      </trkpt>
      <trkpt lat="43.58692" lon="0.53033">
        <ele>187</ele>
        <time>2020-01-12T14:15:39.000Z</time>
      </trkpt>
      <trkpt lat="43.58693" lon="0.53033">
        <ele>187</ele>
        <time>2020-01-12T14:15:41.000Z</time>
      </trkpt>
      <trkpt lat="43.58695" lon="0.53034">
        <ele>187</ele>
        <time>2020-01-12T14:15:43.000Z</time>
      </trkpt>
      <trkpt lat="43.58697" lon="0.53035">
        <ele>187</ele>
        <time>2020-01-12T14:15:45.000Z</time>
      </trkpt>
      <trkpt lat="43.58699" lon="0.53037">
        <ele>187</ele>
        <time>2020-01-12T14:15:47.000Z</time>
      </trkpt>
      <trkpt lat="43.587" lon="0.53037">
        <ele>187</ele>
        <time>2020-01-12T14:15:49.000Z</time>
      </trkpt>
      <trkpt lat="43.58702" lon="0.53038">
        <ele>187</ele>
        <time>2020-01-12T14:15:51.000Z</time>
      </trkpt>
      <trkpt lat="43.58703" lon="0.53039">
        <ele>187</ele>
        <time>2020-01-12T14:15:53.000Z</time>
      </trkpt>
      <trkpt lat="43.58705" lon="0.5304">
        <ele>187</ele>
        <time>2020-01-12T14:15:55.000Z</time>
      </trkpt>
      <trkpt lat="43.58706" lon="0.53041">
        <ele>187</ele>
        <time>2020-01-12T14:15:57.000Z</time>
      </trkpt>
      <trkpt lat="43.58708" lon="0.53042">
        <ele>187</ele>
        <time>2020-01-12T14:15:59.000Z</time>
      </trkpt>
      <trkpt lat="43.58709" lon="0.53043">
        <ele>187</ele>
        <time>2020-01-12T14:16:01.000Z</time>
      </trkpt>
      <trkpt lat="43.58711" lon="0.53043">
        <ele>187</ele>
        <time>2020-01-12T14:16:03.000Z</time>
      </trkpt>
      <trkpt lat="43.58712" lon="0.53044">
        <ele>188</ele>
        <time>2020-01-12T14:16:05.000Z</time>
      </trkpt>
      <trkpt lat="43.58713" lon="0.53045">
        <ele>188</ele>
        <time>2020-01-12T14:16:07.000Z</time>
      </trkpt>
      <trkpt lat="43.58713" lon="0.53045">
        <ele>188</ele>
        <time>2020-01-12T14:16:09.000Z</time>
      </trkpt>
      <trkpt lat="43.58715" lon="0.53045">
        <ele>188</ele>
        <time>2020-01-12T14:16:11.000Z</time>
      </trkpt>
      <trkpt lat="43.58716" lon="0.53046">
        <ele>188</ele>
        <time>2020-01-12T14:16:13.000Z</time>
      </trkpt>
      <trkpt lat="43.58716" lon="0.53046">
        <ele>188</ele>
        <time>2020-01-12T14:16:15.000Z</time>
      </trkpt>
      <trkpt lat="43.58717" lon="0.53047">
        <ele>188</ele>
        <time>2020-01-12T14:16:17.000Z</time>
      </trkpt>
      <trkpt lat="43.58717" lon="0.53047">
        <ele>188</ele>
        <time>2020-01-12T14:16:19.000Z</time>
      </trkpt>
      <trkpt lat="43.58717" lon="0.53047">
        <ele>188</ele>
        <time>2020-01-12T14:16:21.000Z</time>
      </trkpt>
      <trkpt lat="43.58717" lon="0.53046">
        <ele>188</ele>
        <time>2020-01-12T14:16:23.000Z</time>
      </trkpt>
      <trkpt lat="43.58717" lon="0.53047">
        <ele>188</ele>
        <time>2020-01-12T14:16:25.000Z</time>
      </trkpt>
      <trkpt lat="43.58718" lon="0.53048">
        <ele>188</ele>
        <time>2020-01-12T14:16:27.000Z</time>
      </trkpt>
      <trkpt lat="43.58718" lon="0.53049">
        <ele>188</ele>
        <time>2020-01-12T14:16:29.000Z</time>
      </trkpt>
      <trkpt lat="43.58719" lon="0.53049">
        <ele>188</ele>
        <time>2020-01-12T14:16:31.000Z</time>
      </trkpt>
      <trkpt lat="43.58719" lon="0.5305">
        <ele>188</ele>
        <time>2020-01-12T14:16:33.000Z</time>
      </trkpt>
      <trkpt lat="43.58719" lon="0.5305">
        <ele>188</ele>
        <time>2020-01-12T14:16:35.000Z</time>
      </trkpt>
      <trkpt lat="43.5872" lon="0.5305">
        <ele>188</ele>
        <time>2020-01-12T14:16:37.000Z</time>
      </trkpt>
      <trkpt lat="43.5872" lon="0.53051">
        <ele>188</ele>
        <time>2020-01-12T14:16:39.000Z</time>
      </trkpt>
      <trkpt lat="43.58721" lon="0.53053">
        <ele>188</ele>
        <time>2020-01-12T14:16:41.000Z</time>
      </trkpt>
      <trkpt lat="43.58722" lon="0.53054">
        <ele>188</ele>
        <time>2020-01-12T14:16:43.000Z</time>
      </trkpt>
      <trkpt lat="43.58722" lon="0.53054">
        <ele>188</ele>
        <time>2020-01-12T14:16:45.000Z</time>
      </trkpt>
      <trkpt lat="43.58723" lon="0.53056">
        <ele>188</ele>
        <time>2020-01-12T14:16:47.000Z</time>
      </trkpt>
      <trkpt lat="43.58724" lon="0.53057">
        <ele>188</ele>
        <time>2020-01-12T14:16:49.000Z</time>
      </trkpt>
      <trkpt lat="43.58724" lon="0.53058">
        <ele>188</ele>
        <time>2020-01-12T14:16:51.000Z</time>
      </trkpt>
      <trkpt lat="43.58725" lon="0.53061">
        <ele>188</ele>
        <time>2020-01-12T14:16:53.000Z</time>
      </trkpt>
      <trkpt lat="43.58726" lon="0.53063">
        <ele>188</ele>
        <time>2020-01-12T14:16:55.000Z</time>
      </trkpt>
      <trkpt lat="43.58727" lon="0.53065">
        <ele>189</ele>
        <time>2020-01-12T14:16:57.000Z</time>
      </trkpt>
      <trkpt lat="43.58728" lon="0.53066">
        <ele>189</ele>
        <time>2020-01-12T14:16:59.000Z</time>
      </trkpt>
      <trkpt lat="43.58729" lon="0.53067">
        <ele>189</ele>
        <time>2020-01-12T14:17:01.000Z</time>
      </trkpt>
      <trkpt lat="43.58729" lon="0.53068">
        <ele>189</ele>
        <time>2020-01-12T14:17:03.000Z</time>
      </trkpt>
      <trkpt lat="43.5873" lon="0.53069">
        <ele>189</ele>
        <time>2020-01-12T14:17:05.000Z</time>
      </trkpt>
      <trkpt lat="43.58731" lon="0.5307">
        <ele>189</ele>
        <time>2020-01-12T14:17:07.000Z</time>
      </trkpt>
      <trkpt lat="43.58731" lon="0.53072">
        <ele>189</ele>
        <time>2020-01-12T14:17:09.000Z</time>
      </trkpt>
      <trkpt lat="43.58733" lon="0.53073">
        <ele>189</ele>
        <time>2020-01-12T14:17:11.000Z</time>
      </trkpt>
      <trkpt lat="43.58733" lon="0.53074">
        <ele>189</ele>
        <time>2020-01-12T14:17:13.000Z</time>
      </trkpt>
      <trkpt lat="43.58734" lon="0.53075">
        <ele>189</ele>
        <time>2020-01-12T14:17:15.000Z</time>
      </trkpt>
      <trkpt lat="43.58735" lon="0.53076">
        <ele>189</ele>
        <time>2020-01-12T14:17:17.000Z</time>
      </trkpt>
      <trkpt lat="43.58736" lon="0.53078">
        <ele>189</ele>
        <time>2020-01-12T14:17:19.000Z</time>
      </trkpt>
      <trkpt lat="43.58737" lon="0.53079">
        <ele>190</ele>
        <time>2020-01-12T14:17:21.000Z</time>
      </trkpt>
      <trkpt lat="43.58738" lon="0.5308">
        <ele>190</ele>
        <time>2020-01-12T14:17:23.000Z</time>
      </trkpt>
      <trkpt lat="43.58738" lon="0.53081">
        <ele>190</ele>
        <time>2020-01-12T14:17:25.000Z</time>
      </trkpt>
      <trkpt lat="43.58739" lon="0.53082">
        <ele>190</ele>
        <time>2020-01-12T14:17:27.000Z</time>
      </trkpt>
      <trkpt lat="43.58739" lon="0.53083">
        <ele>190</ele>
        <time>2020-01-12T14:17:29.000Z</time>
      </trkpt>
      <trkpt lat="43.5874" lon="0.53085">
        <ele>190</ele>
        <time>2020-01-12T14:17:31.000Z</time>
      </trkpt>
      <trkpt lat="43.58742" lon="0.53087">
        <ele>190</ele>
        <time>2020-01-12T14:17:33.000Z</time>
      </trkpt>
      <trkpt lat="43.58743" lon="0.53088">
        <ele>190</ele>
        <time>2020-01-12T14:17:35.000Z</time>
      </trkpt>
      <trkpt lat="43.58744" lon="0.5309">
        <ele>190</ele>
        <time>2020-01-12T14:17:37.000Z</time>
      </trkpt>
      <trkpt lat="43.58745" lon="0.53092">
        <ele>190</ele>
        <time>2020-01-12T14:17:39.000Z</time>
      </trkpt>
      <trkpt lat="43.58746" lon="0.53093">
        <ele>190</ele>
        <time>2020-01-12T14:17:41.000Z</time>
      </trkpt>
      <trkpt lat="43.58746" lon="0.53095">
        <ele>191</ele>
        <time>2020-01-12T14:17:43.000Z</time>
      </trkpt>
      <trkpt lat="43.58747" lon="0.53096">
        <ele>191</ele>
        <time>2020-01-12T14:17:45.000Z</time>
      </trkpt>
      <trkpt lat="43.58748" lon="0.53098">
        <ele>191</ele>
        <time>2020-01-12T14:17:47.000Z</time>
      </trkpt>
      <trkpt lat="43.58749" lon="0.531">
        <ele>191</ele>
        <time>2020-01-12T14:17:49.000Z</time>
      </trkpt>
      <trkpt lat="43.5875" lon="0.53102">
        <ele>191</ele>
        <time>2020-01-12T14:17:51.000Z</time>
      </trkpt>
      <trkpt lat="43.5875" lon="0.53104">
        <ele>191</ele>
        <time>2020-01-12T14:17:53.000Z</time>
      </trkpt>
      <trkpt lat="43.58751" lon="0.53106">
        <ele>191</ele>
        <time>2020-01-12T14:17:55.000Z</time>
      </trkpt>
      <trkpt lat="43.58752" lon="0.53108">
        <ele>191</ele>
        <time>2020-01-12T14:17:57.000Z</time>
      </trkpt>
      <trkpt lat="43.58752" lon="0.53111">
        <ele>191</ele>
        <time>2020-01-12T14:17:59.000Z</time>
      </trkpt>
      <trkpt lat="43.58753" lon="0.53112">
        <ele>192</ele>
        <time>2020-01-12T14:18:01.000Z</time>
      </trkpt>
      <trkpt lat="43.58754" lon="0.53114">
        <ele>192</ele>
        <time>2020-01-12T14:18:03.000Z</time>
      </trkpt>
      <trkpt lat="43.58755" lon="0.53117">
        <ele>192</ele>
        <time>2020-01-12T14:18:05.000Z</time>
      </trkpt>
      <trkpt lat="43.58756" lon="0.53119">
        <ele>192</ele>
        <time>2020-01-12T14:18:07.000Z</time>
      </trkpt>
      <trkpt lat="43.58757" lon="0.53121">
        <ele>192</ele>
        <time>2020-01-12T14:18:09.000Z</time>
      </trkpt>
      <trkpt lat="43.58758" lon="0.53122">
        <ele>192</ele>
        <time>2020-01-12T14:18:11.000Z</time>
      </trkpt>
      <trkpt lat="43.58759" lon="0.53124">
        <ele>192</ele>
        <time>2020-01-12T14:18:13.000Z</time>
      </trkpt>
      <trkpt lat="43.58759" lon="0.53126">
        <ele>192</ele>
        <time>2020-01-12T14:18:15.000Z</time>
      </trkpt>
      <trkpt lat="43.5876" lon="0.53128">
        <ele>192</ele>
        <time>2020-01-12T14:18:17.000Z</time>
      </trkpt>
      <trkpt lat="43.58761" lon="0.53129">
        <ele>193</ele>
        <time>2020-01-12T14:18:19.000Z</time>
      </trkpt>
      <trkpt lat="43.58762" lon="0.53131">
        <ele>193</ele>
        <time>2020-01-12T14:18:21.000Z</time>
      </trkpt>
      <trkpt lat="43.58763" lon="0.53133">
        <ele>193</ele>
        <time>2020-01-12T14:18:23.000Z</time>
      </trkpt>
      <trkpt lat="43.58764" lon="0.53135">
        <ele>193</ele>
        <time>2020-01-12T14:18:25.000Z</time>
      </trkpt>
      <trkpt lat="43.58765" lon="0.53137">
        <ele>193</ele>
        <time>2020-01-12T14:18:27.000Z</time>
      </trkpt>
      <trkpt lat="43.58766" lon="0.53139">
        <ele>193</ele>
        <time>2020-01-12T14:18:29.000Z</time>
      </trkpt>
      <trkpt lat="43.58766" lon="0.53141">
        <ele>193</ele>
        <time>2020-01-12T14:18:31.000Z</time>
      </trkpt>
      <trkpt lat="43.58767" lon="0.53144">
        <ele>193</ele>
        <time>2020-01-12T14:18:33.000Z</time>
      </trkpt>
      <trkpt lat="43.58768" lon="0.53146">
        <ele>193</ele>
        <time>2020-01-12T14:18:35.000Z</time>
      </trkpt>
      <trkpt lat="43.58769" lon="0.53148">
        <ele>193</ele>
        <time>2020-01-12T14:18:37.000Z</time>
      </trkpt>
      <trkpt lat="43.5877" lon="0.5315">
        <ele>194</ele>
        <time>2020-01-12T14:18:39.000Z</time>
      </trkpt>
      <trkpt lat="43.58771" lon="0.53152">
        <ele>194</ele>
        <time>2020-01-12T14:18:41.000Z</time>
      </trkpt>
      <trkpt lat="43.58771" lon="0.53154">
        <ele>194</ele>
        <time>2020-01-12T14:18:43.000Z</time>
      </trkpt>
      <trkpt lat="43.58772" lon="0.53155">
        <ele>194</ele>
        <time>2020-01-12T14:18:45.000Z</time>
      </trkpt>
      <trkpt lat="43.58772" lon="0.53157">
        <ele>194</ele>
        <time>2020-01-12T14:18:47.000Z</time>
      </trkpt>
      <trkpt lat="43.58773" lon="0.53158">
        <ele>194</ele>
        <time>2020-01-12T14:18:49.000Z</time>
      </trkpt>
      <trkpt lat="43.58774" lon="0.5316">
        <ele>194</ele>
        <time>2020-01-12T14:18:51.000Z</time>
      </trkpt>
      <trkpt lat="43.58774" lon="0.53162">
        <ele>194</ele>
        <time>2020-01-12T14:18:53.000Z</time>
      </trkpt>
      <trkpt lat="43.58775" lon="0.53165">
        <ele>195</ele>
        <time>2020-01-12T14:18:55.000Z</time>
      </trkpt>
      <trkpt lat="43.58776" lon="0.53167">
        <ele>195</ele>
        <time>2020-01-12T14:18:57.000Z</time>
      </trkpt>
      <trkpt lat="43.58777" lon="0.5317">
        <ele>195</ele>
        <time>2020-01-12T14:18:59.000Z</time>
      </trkpt>
      <trkpt lat="43.58777" lon="0.53171">
        <ele>195</ele>
        <time>2020-01-12T14:19:01.000Z</time>
      </trkpt>
      <trkpt lat="43.58778" lon="0.53174">
        <ele>195</ele>
        <time>2020-01-12T14:19:03.000Z</time>
      </trkpt>
      <trkpt lat="43.58778" lon="0.53176">
        <ele>195</ele>
        <time>2020-01-12T14:19:05.000Z</time>
      </trkpt>
      <trkpt lat="43.58779" lon="0.53178">
        <ele>195</ele>
        <time>2020-01-12T14:19:07.000Z</time>
      </trkpt>
      <trkpt lat="43.5878" lon="0.5318">
        <ele>196</ele>
        <time>2020-01-12T14:19:09.000Z</time>
      </trkpt>
      <trkpt lat="43.5878" lon="0.53182">
        <ele>196</ele>
        <time>2020-01-12T14:19:11.000Z</time>
      </trkpt>
      <trkpt lat="43.58781" lon="0.53185">
        <ele>196</ele>
        <time>2020-01-12T14:19:13.000Z</time>
      </trkpt>
      <trkpt lat="43.58782" lon="0.53187">
        <ele>196</ele>
        <time>2020-01-12T14:19:15.000Z</time>
      </trkpt>
      <trkpt lat="43.58782" lon="0.53189">
        <ele>196</ele>
        <time>2020-01-12T14:19:17.000Z</time>
      </trkpt>
      <trkpt lat="43.58783" lon="0.53191">
        <ele>196</ele>
        <time>2020-01-12T14:19:19.000Z</time>
      </trkpt>
      <trkpt lat="43.58783" lon="0.53194">
        <ele>196</ele>
        <time>2020-01-12T14:19:21.000Z</time>
      </trkpt>
      <trkpt lat="43.58784" lon="0.53196">
        <ele>196</ele>
        <time>2020-01-12T14:19:23.000Z</time>
      </trkpt>
      <trkpt lat="43.58785" lon="0.53198">
        <ele>197</ele>
        <time>2020-01-12T14:19:25.000Z</time>
      </trkpt>
      <trkpt lat="43.58786" lon="0.532">
        <ele>197</ele>
        <time>2020-01-12T14:19:27.000Z</time>
      </trkpt>
      <trkpt lat="43.58787" lon="0.53202">
        <ele>197</ele>
        <time>2020-01-12T14:19:29.000Z</time>
      </trkpt>
      <trkpt lat="43.58786" lon="0.53204">
        <ele>197</ele>
        <time>2020-01-12T14:19:31.000Z</time>
      </trkpt>
      <trkpt lat="43.58786" lon="0.53206">
        <ele>197</ele>
        <time>2020-01-12T14:19:33.000Z</time>
      </trkpt>
      <trkpt lat="43.58787" lon="0.53208">
        <ele>197</ele>
        <time>2020-01-12T14:19:35.000Z</time>
      </trkpt>
      <trkpt lat="43.58788" lon="0.5321">
        <ele>197</ele>
        <time>2020-01-12T14:19:37.000Z</time>
      </trkpt>
      <trkpt lat="43.58788" lon="0.53212">
        <ele>197</ele>
        <time>2020-01-12T14:19:39.000Z</time>
      </trkpt>
      <trkpt lat="43.58789" lon="0.53215">
        <ele>197</ele>
        <time>2020-01-12T14:19:41.000Z</time>
      </trkpt>
      <trkpt lat="43.58789" lon="0.53217">
        <ele>197</ele>
        <time>2020-01-12T14:19:43.000Z</time>
      </trkpt>
      <trkpt lat="43.5879" lon="0.53219">
        <ele>198</ele>
        <time>2020-01-12T14:19:45.000Z</time>
      </trkpt>
      <trkpt lat="43.5879" lon="0.53221">
        <ele>198</ele>
        <time>2020-01-12T14:19:47.000Z</time>
      </trkpt>
      <trkpt lat="43.58791" lon="0.53222">
        <ele>198</ele>
        <time>2020-01-12T14:19:49.000Z</time>
      </trkpt>
      <trkpt lat="43.58791" lon="0.53225">
        <ele>198</ele>
        <time>2020-01-12T14:19:51.000Z</time>
      </trkpt>
      <trkpt lat="43.58792" lon="0.53227">
        <ele>198</ele>
        <time>2020-01-12T14:19:53.000Z</time>
      </trkpt>
      <trkpt lat="43.58793" lon="0.53229">
        <ele>198</ele>
        <time>2020-01-12T14:19:55.000Z</time>
      </trkpt>
      <trkpt lat="43.58793" lon="0.53231">
        <ele>198</ele>
        <time>2020-01-12T14:19:57.000Z</time>
      </trkpt>
      <trkpt lat="43.58794" lon="0.53233">
        <ele>198</ele>
        <time>2020-01-12T14:19:59.000Z</time>
      </trkpt>
      <trkpt lat="43.58794" lon="0.53235">
        <ele>199</ele>
        <time>2020-01-12T14:20:01.000Z</time>
      </trkpt>
      <trkpt lat="43.58795" lon="0.53237">
        <ele>199</ele>
        <time>2020-01-12T14:20:03.000Z</time>
      </trkpt>
      <trkpt lat="43.58796" lon="0.53238">
        <ele>199</ele>
        <time>2020-01-12T14:20:05.000Z</time>
      </trkpt>
      <trkpt lat="43.58796" lon="0.53241">
        <ele>199</ele>
        <time>2020-01-12T14:20:07.000Z</time>
      </trkpt>
      <trkpt lat="43.58797" lon="0.53243">
        <ele>199</ele>
        <time>2020-01-12T14:20:09.000Z</time>
      </trkpt>
      <trkpt lat="43.58798" lon="0.53245">
        <ele>199</ele>
        <time>2020-01-12T14:20:11.000Z</time>
      </trkpt>
      <trkpt lat="43.58799" lon="0.53248">
        <ele>199</ele>
        <time>2020-01-12T14:20:13.000Z</time>
      </trkpt>
      <trkpt lat="43.58799" lon="0.5325">
        <ele>200</ele>
        <time>2020-01-12T14:20:15.000Z</time>
      </trkpt>
      <trkpt lat="43.588" lon="0.53252">
        <ele>200</ele>
        <time>2020-01-12T14:20:17.000Z</time>
      </trkpt>
      <trkpt lat="43.58801" lon="0.53254">
        <ele>200</ele>
        <time>2020-01-12T14:20:19.000Z</time>
      </trkpt>
      <trkpt lat="43.58801" lon="0.53257">
        <ele>200</ele>
        <time>2020-01-12T14:20:21.000Z</time>
      </trkpt>
      <trkpt lat="43.58802" lon="0.53259">
        <ele>200</ele>
        <time>2020-01-12T14:20:23.000Z</time>
      </trkpt>
      <trkpt lat="43.58803" lon="0.53261">
        <ele>200</ele>
        <time>2020-01-12T14:20:25.000Z</time>
      </trkpt>
      <trkpt lat="43.58804" lon="0.53263">
        <ele>200</ele>
        <time>2020-01-12T14:20:27.000Z</time>
      </trkpt>
      <trkpt lat="43.58805" lon="0.53265">
        <ele>201</ele>
        <time>2020-01-12T14:20:29.000Z</time>
      </trkpt>
      <trkpt lat="43.58805" lon="0.53267">
        <ele>201</ele>
        <time>2020-01-12T14:20:31.000Z</time>
      </trkpt>
      <trkpt lat="43.58806" lon="0.53269">
        <ele>201</ele>
        <time>2020-01-12T14:20:33.000Z</time>
      </trkpt>
      <trkpt lat="43.58806" lon="0.53271">
        <ele>201</ele>
        <time>2020-01-12T14:20:35.000Z</time>
      </trkpt>
      <trkpt lat="43.58807" lon="0.53273">
        <ele>201</ele>
        <time>2020-01-12T14:20:37.000Z</time>
      </trkpt>
      <trkpt lat="43.58809" lon="0.53275">
        <ele>201</ele>
        <time>2020-01-12T14:20:39.000Z</time>
      </trkpt>
      <trkpt lat="43.5881" lon="0.53277">
        <ele>201</ele>
        <time>2020-01-12T14:20:41.000Z</time>
      </trkpt>
      <trkpt lat="43.5881" lon="0.53279">
        <ele>202</ele>
        <time>2020-01-12T14:20:43.000Z</time>
      </trkpt>
      <trkpt lat="43.5881" lon="0.53281">
        <ele>202</ele>
        <time>2020-01-12T14:20:45.000Z</time>
      </trkpt>
      <trkpt lat="43.5881" lon="0.53283">
        <ele>202</ele>
        <time>2020-01-12T14:20:47.000Z</time>
      </trkpt>
      <trkpt lat="43.5881" lon="0.53285">
        <ele>202</ele>
        <time>2020-01-12T14:20:49.000Z</time>
      </trkpt>
      <trkpt lat="43.5881" lon="0.53287">
        <ele>202</ele>
        <time>2020-01-12T14:20:51.000Z</time>
      </trkpt>
      <trkpt lat="43.58811" lon="0.53289">
        <ele>202</ele>
        <time>2020-01-12T14:20:53.000Z</time>
      </trkpt>
      <trkpt lat="43.58811" lon="0.53291">
        <ele>202</ele>
        <time>2020-01-12T14:20:55.000Z</time>
      </trkpt>
      <trkpt lat="43.58812" lon="0.53294">
        <ele>202</ele>
        <time>2020-01-12T14:20:57.000Z</time>
      </trkpt>
      <trkpt lat="43.58813" lon="0.53296">
        <ele>202</ele>
        <time>2020-01-12T14:20:59.000Z</time>
      </trkpt>
      <trkpt lat="43.58813" lon="0.53298">
        <ele>202</ele>
        <time>2020-01-12T14:21:01.000Z</time>
      </trkpt>
      <trkpt lat="43.58814" lon="0.533">
        <ele>203</ele>
        <time>2020-01-12T14:21:03.000Z</time>
      </trkpt>
      <trkpt lat="43.58815" lon="0.53302">
        <ele>203</ele>
        <time>2020-01-12T14:21:05.000Z</time>
      </trkpt>
      <trkpt lat="43.58816" lon="0.53303">
        <ele>203</ele>
        <time>2020-01-12T14:21:07.000Z</time>
      </trkpt>
      <trkpt lat="43.58816" lon="0.53305">
        <ele>203</ele>
        <time>2020-01-12T14:21:09.000Z</time>
      </trkpt>
      <trkpt lat="43.58816" lon="0.53307">
        <ele>202</ele>
        <time>2020-01-12T14:21:11.000Z</time>
      </trkpt>
      <trkpt lat="43.58816" lon="0.53309">
        <ele>202</ele>
        <time>2020-01-12T14:21:13.000Z</time>
      </trkpt>
      <trkpt lat="43.58817" lon="0.53312">
        <ele>202</ele>
        <time>2020-01-12T14:21:15.000Z</time>
      </trkpt>
      <trkpt lat="43.58818" lon="0.53314">
        <ele>202</ele>
        <time>2020-01-12T14:21:17.000Z</time>
      </trkpt>
      <trkpt lat="43.58818" lon="0.53316">
        <ele>202</ele>
        <time>2020-01-12T14:21:19.000Z</time>
      </trkpt>
      <trkpt lat="43.58819" lon="0.53318">
        <ele>202</ele>
        <time>2020-01-12T14:21:21.000Z</time>
      </trkpt>
      <trkpt lat="43.5882" lon="0.53321">
        <ele>202</ele>
        <time>2020-01-12T14:21:23.000Z</time>
      </trkpt>
      <trkpt lat="43.5882" lon="0.53322">
        <ele>202</ele>
        <time>2020-01-12T14:21:25.000Z</time>
      </trkpt>
      <trkpt lat="43.5882" lon="0.53324">
        <ele>202</ele>
        <time>2020-01-12T14:21:27.000Z</time>
      </trkpt>
      <trkpt lat="43.58821" lon="0.53327">
        <ele>202</ele>
        <time>2020-01-12T14:21:29.000Z</time>
      </trkpt>
      <trkpt lat="43.58821" lon="0.53329">
        <ele>202</ele>
        <time>2020-01-12T14:21:31.000Z</time>
      </trkpt>
      <trkpt lat="43.58822" lon="0.5333">
        <ele>202</ele>
        <time>2020-01-12T14:21:33.000Z</time>
      </trkpt>
      <trkpt lat="43.58823" lon="0.53332">
        <ele>202</ele>
        <time>2020-01-12T14:21:35.000Z</time>
      </trkpt>
      <trkpt lat="43.58823" lon="0.53334">
        <ele>202</ele>
        <time>2020-01-12T14:21:37.000Z</time>
      </trkpt>
      <trkpt lat="43.58824" lon="0.53336">
        <ele>202</ele>
        <time>2020-01-12T14:21:39.000Z</time>
      </trkpt>
      <trkpt lat="43.58825" lon="0.53338">
        <ele>202</ele>
        <time>2020-01-12T14:21:41.000Z</time>
      </trkpt>
      <trkpt lat="43.58825" lon="0.5334">
        <ele>202</ele>
        <time>2020-01-12T14:21:43.000Z</time>
      </trkpt>
      <trkpt lat="43.58827" lon="0.53342">
        <ele>203</ele>
        <time>2020-01-12T14:21:45.000Z</time>
      </trkpt>
      <trkpt lat="43.58828" lon="0.53344">
        <ele>203</ele>
        <time>2020-01-12T14:21:47.000Z</time>
      </trkpt>
      <trkpt lat="43.58828" lon="0.53345">
        <ele>203</ele>
        <time>2020-01-12T14:21:49.000Z</time>
      </trkpt>
      <trkpt lat="43.58829" lon="0.53347">
        <ele>203</ele>
        <time>2020-01-12T14:21:51.000Z</time>
      </trkpt>
      <trkpt lat="43.5883" lon="0.53349">
        <ele>203</ele>
        <time>2020-01-12T14:21:53.000Z</time>
      </trkpt>
      <trkpt lat="43.5883" lon="0.53351">
        <ele>203</ele>
        <time>2020-01-12T14:21:55.000Z</time>
      </trkpt>
      <trkpt lat="43.5883" lon="0.53353">
        <ele>203</ele>
        <time>2020-01-12T14:21:57.000Z</time>
      </trkpt>
      <trkpt lat="43.58831" lon="0.53356">
        <ele>203</ele>
        <time>2020-01-12T14:21:59.000Z</time>
      </trkpt>
      <trkpt lat="43.58831" lon="0.53357">
        <ele>202</ele>
        <time>2020-01-12T14:22:01.000Z</time>
      </trkpt>
      <trkpt lat="43.58831" lon="0.53359">
        <ele>202</ele>
        <time>2020-01-12T14:22:03.000Z</time>
      </trkpt>
      <trkpt lat="43.58831" lon="0.53362">
        <ele>202</ele>
        <time>2020-01-12T14:22:05.000Z</time>
      </trkpt>
      <trkpt lat="43.58832" lon="0.53364">
        <ele>202</ele>
        <time>2020-01-12T14:22:07.000Z</time>
      </trkpt>
      <trkpt lat="43.58831" lon="0.53366">
        <ele>202</ele>
        <time>2020-01-12T14:22:09.000Z</time>
      </trkpt>
      <trkpt lat="43.58832" lon="0.53368">
        <ele>202</ele>
        <time>2020-01-12T14:22:11.000Z</time>
      </trkpt>
      <trkpt lat="43.58832" lon="0.5337">
        <ele>202</ele>
        <time>2020-01-12T14:22:13.000Z</time>
      </trkpt>
      <trkpt lat="43.58832" lon="0.53373">
        <ele>202</ele>
        <time>2020-01-12T14:22:15.000Z</time>
      </trkpt>
      <trkpt lat="43.58833" lon="0.53375">
        <ele>202</ele>
        <time>2020-01-12T14:22:17.000Z</time>
      </trkpt>
      <trkpt lat="43.58833" lon="0.53377">
        <ele>202</ele>
        <time>2020-01-12T14:22:19.000Z</time>
      </trkpt>
      <trkpt lat="43.58833" lon="0.5338">
        <ele>202</ele>
        <time>2020-01-12T14:22:21.000Z</time>
      </trkpt>
      <trkpt lat="43.58834" lon="0.53382">
        <ele>203</ele>
        <time>2020-01-12T14:22:23.000Z</time>
      </trkpt>
      <trkpt lat="43.58834" lon="0.53384">
        <ele>203</ele>
        <time>2020-01-12T14:22:25.000Z</time>
      </trkpt>
      <trkpt lat="43.58836" lon="0.53386">
        <ele>203</ele>
        <time>2020-01-12T14:22:27.000Z</time>
      </trkpt>
      <trkpt lat="43.58837" lon="0.53389">
        <ele>203</ele>
        <time>2020-01-12T14:22:29.000Z</time>
      </trkpt>
      <trkpt lat="43.58838" lon="0.53392">
        <ele>202</ele>
        <time>2020-01-12T14:22:31.000Z</time>
      </trkpt>
      <trkpt lat="43.58839" lon="0.53395">
        <ele>202</ele>
        <time>2020-01-12T14:22:33.000Z</time>
      </trkpt>
      <trkpt lat="43.5884" lon="0.53397">
        <ele>202</ele>
        <time>2020-01-12T14:22:35.000Z</time>
      </trkpt>
      <trkpt lat="43.5884" lon="0.53398">
        <ele>202</ele>
        <time>2020-01-12T14:22:37.000Z</time>
      </trkpt>
      <trkpt lat="43.5884" lon="0.53398">
        <ele>202</ele>
        <time>2020-01-12T14:22:39.000Z</time>
      </trkpt>
      <trkpt lat="43.5884" lon="0.53398">
        <ele>202</ele>
        <time>2020-01-12T14:22:41.000Z</time>
      </trkpt>
      <trkpt lat="43.5884" lon="0.53398">
        <ele>202</ele>
        <time>2020-01-12T14:22:43.000Z</time>
      </trkpt>
      <trkpt lat="43.5884" lon="0.53399">
        <ele>202</ele>
        <time>2020-01-12T14:22:45.000Z</time>
      </trkpt>
      <trkpt lat="43.58841" lon="0.53399">
        <ele>202</ele>
        <time>2020-01-12T14:22:47.000Z</time>
      </trkpt>
      <trkpt lat="43.58841" lon="0.53401">
        <ele>202</ele>
        <time>2020-01-12T14:22:49.000Z</time>
      </trkpt>
      <trkpt lat="43.58842" lon="0.53402">
        <ele>202</ele>
        <time>2020-01-12T14:22:51.000Z</time>
      </trkpt>
      <trkpt lat="43.58842" lon="0.53404">
        <ele>202</ele>
        <time>2020-01-12T14:22:53.000Z</time>
      </trkpt>
      <trkpt lat="43.58843" lon="0.53406">
        <ele>202</ele>
        <time>2020-01-12T14:22:55.000Z</time>
      </trkpt>
      <trkpt lat="43.58843" lon="0.53409">
        <ele>202</ele>
        <time>2020-01-12T14:22:57.000Z</time>
      </trkpt>
      <trkpt lat="43.58842" lon="0.53411">
        <ele>202</ele>
        <time>2020-01-12T14:22:59.000Z</time>
      </trkpt>
      <trkpt lat="43.58842" lon="0.53413">
        <ele>202</ele>
        <time>2020-01-12T14:23:01.000Z</time>
      </trkpt>
      <trkpt lat="43.58842" lon="0.53414">
        <ele>202</ele>
        <time>2020-01-12T14:23:03.000Z</time>
      </trkpt>
      <trkpt lat="43.58842" lon="0.53415">
        <ele>202</ele>
        <time>2020-01-12T14:23:05.000Z</time>
      </trkpt>
      <trkpt lat="43.58842" lon="0.53415">
        <ele>202</ele>
        <time>2020-01-12T14:23:07.000Z</time>
      </trkpt>
      <trkpt lat="43.58842" lon="0.53415">
        <ele>202</ele>
        <time>2020-01-12T14:23:09.000Z</time>
      </trkpt>
      <trkpt lat="43.58842" lon="0.53415">
        <ele>202</ele>
        <time>2020-01-12T14:23:11.000Z</time>
      </trkpt>
      <trkpt lat="43.58842" lon="0.53416">
        <ele>202</ele>
        <time>2020-01-12T14:23:13.000Z</time>
      </trkpt>
      <trkpt lat="43.58842" lon="0.53416">
        <ele>202</ele>
        <time>2020-01-12T14:23:15.000Z</time>
      </trkpt>
      <trkpt lat="43.58842" lon="0.53416">
        <ele>202</ele>
        <time>2020-01-12T14:23:17.000Z</time>
      </trkpt>
      <trkpt lat="43.58842" lon="0.53416">
        <ele>202</ele>
        <time>2020-01-12T14:23:19.000Z</time>
      </trkpt>
      <trkpt lat="43.58842" lon="0.53417">
        <ele>202</ele>
        <time>2020-01-12T14:23:21.000Z</time>
      </trkpt>
      <trkpt lat="43.58842" lon="0.53417">
        <ele>202</ele>
        <time>2020-01-12T14:23:23.000Z</time>
      </trkpt>
      <trkpt lat="43.58842" lon="0.53417">
        <ele>202</ele>
        <time>2020-01-12T14:23:25.000Z</time>
      </trkpt>
      <trkpt lat="43.58842" lon="0.53416">
        <ele>202</ele>
        <time>2020-01-12T14:23:27.000Z</time>
      </trkpt>
      <trkpt lat="43.58842" lon="0.53416">
        <ele>202</ele>
        <time>2020-01-12T14:23:29.000Z</time>
      </trkpt>
      <trkpt lat="43.58841" lon="0.53416">
        <ele>202</ele>
        <time>2020-01-12T14:23:31.000Z</time>
      </trkpt>
      <trkpt lat="43.58841" lon="0.53416">
        <ele>202</ele>
        <time>2020-01-12T14:23:33.000Z</time>
      </trkpt>
      <trkpt lat="43.58841" lon="0.53416">
        <ele>202</ele>
        <time>2020-01-12T14:23:35.000Z</time>
      </trkpt>
      <trkpt lat="43.5884" lon="0.53417">
        <ele>201</ele>
        <time>2020-01-12T14:23:37.000Z</time>
      </trkpt>
      <trkpt lat="43.5884" lon="0.53417">
        <ele>201</ele>
        <time>2020-01-12T14:23:39.000Z</time>
      </trkpt>
      <trkpt lat="43.5884" lon="0.53416">
        <ele>202</ele>
        <time>2020-01-12T14:23:41.000Z</time>
      </trkpt>
      <trkpt lat="43.5884" lon="0.53416">
        <ele>201</ele>
        <time>2020-01-12T14:23:43.000Z</time>
      </trkpt>
      <trkpt lat="43.5884" lon="0.53416">
        <ele>201</ele>
        <time>2020-01-12T14:23:45.000Z</time>
      </trkpt>
      <trkpt lat="43.5884" lon="0.53416">
        <ele>201</ele>
        <time>2020-01-12T14:23:47.000Z</time>
      </trkpt>
      <trkpt lat="43.58839" lon="0.53416">
        <ele>201</ele>
        <time>2020-01-12T14:23:49.000Z</time>
      </trkpt>
      <trkpt lat="43.58839" lon="0.53415">
        <ele>201</ele>
        <time>2020-01-12T14:23:51.000Z</time>
      </trkpt>
      <trkpt lat="43.5884" lon="0.53415">
        <ele>201</ele>
        <time>2020-01-12T14:23:53.000Z</time>
      </trkpt>
      <trkpt lat="43.5884" lon="0.53415">
        <ele>202</ele>
        <time>2020-01-12T14:23:55.000Z</time>
      </trkpt>
      <trkpt lat="43.58841" lon="0.53415">
        <ele>202</ele>
        <time>2020-01-12T14:23:57.000Z</time>
      </trkpt>
      <trkpt lat="43.58841" lon="0.53415">
        <ele>202</ele>
        <time>2020-01-12T14:23:59.000Z</time>
      </trkpt>
      <trkpt lat="43.58841" lon="0.53416">
        <ele>202</ele>
        <time>2020-01-12T14:24:01.000Z</time>
      </trkpt>
      <trkpt lat="43.58841" lon="0.53416">
        <ele>202</ele>
        <time>2020-01-12T14:24:03.000Z</time>
      </trkpt>
      <trkpt lat="43.5884" lon="0.53416">
        <ele>202</ele>
        <time>2020-01-12T14:24:05.000Z</time>
      </trkpt>
      <trkpt lat="43.5884" lon="0.53416">
        <ele>202</ele>
        <time>2020-01-12T14:24:07.000Z</time>
      </trkpt>
      <trkpt lat="43.5884" lon="0.53416">
        <ele>201</ele>
        <time>2020-01-12T14:24:09.000Z</time>
      </trkpt>
      <trkpt lat="43.5884" lon="0.53417">
        <ele>201</ele>
        <time>2020-01-12T14:24:11.000Z</time>
      </trkpt>
      <trkpt lat="43.5884" lon="0.53417">
        <ele>201</ele>
        <time>2020-01-12T14:24:13.000Z</time>
      </trkpt>
      <trkpt lat="43.5884" lon="0.53416">
        <ele>201</ele>
        <time>2020-01-12T14:24:15.000Z</time>
      </trkpt>
      <trkpt lat="43.5884" lon="0.53417">
        <ele>201</ele>
        <time>2020-01-12T14:24:17.000Z</time>
      </trkpt>
      <trkpt lat="43.5884" lon="0.53417">
        <ele>201</ele>
        <time>2020-01-12T14:24:19.000Z</time>
      </trkpt>
      <trkpt lat="43.5884" lon="0.53417">
        <ele>201</ele>
        <time>2020-01-12T14:24:21.000Z</time>
      </trkpt>
      <trkpt lat="43.5884" lon="0.53417">
        <ele>201</ele>
        <time>2020-01-12T14:24:23.000Z</time>
      </trkpt>
      <trkpt lat="43.5884" lon="0.53417">
        <ele>201</ele>
        <time>2020-01-12T14:24:25.000Z</time>
      </trkpt>
      <trkpt lat="43.5884" lon="0.53417">
        <ele>201</ele>
        <time>2020-01-12T14:24:27.000Z</time>
      </trkpt>
      <trkpt lat="43.58839" lon="0.53417">
        <ele>201</ele>
        <time>2020-01-12T14:24:29.000Z</time>
      </trkpt>
      <trkpt lat="43.5884" lon="0.53416">
        <ele>201</ele>
        <time>2020-01-12T14:24:31.000Z</time>
      </trkpt>
      <trkpt lat="43.58839" lon="0.53417">
        <ele>201</ele>
        <time>2020-01-12T14:24:33.000Z</time>
      </trkpt>
      <trkpt lat="43.58839" lon="0.53417">
        <ele>201</ele>
        <time>2020-01-12T14:24:35.000Z</time>
      </trkpt>
      <trkpt lat="43.58839" lon="0.53417">
        <ele>201</ele>
        <time>2020-01-12T14:24:37.000Z</time>
      </trkpt>
      <trkpt lat="43.58839" lon="0.53416">
        <ele>201</ele>
        <time>2020-01-12T14:24:39.000Z</time>
      </trkpt>
      <trkpt lat="43.5884" lon="0.53417">
        <ele>201</ele>
        <time>2020-01-12T14:24:41.000Z</time>
      </trkpt>
      <trkpt lat="43.5884" lon="0.53417">
        <ele>201</ele>
        <time>2020-01-12T14:24:43.000Z</time>
      </trkpt>
      <trkpt lat="43.5884" lon="0.53417">
        <ele>201</ele>
        <time>2020-01-12T14:24:45.000Z</time>
      </trkpt>
      <trkpt lat="43.5884" lon="0.53417">
        <ele>201</ele>
        <time>2020-01-12T14:24:47.000Z</time>
      </trkpt>
      <trkpt lat="43.5884" lon="0.53417">
        <ele>201</ele>
        <time>2020-01-12T14:24:49.000Z</time>
      </trkpt>
      <trkpt lat="43.5884" lon="0.53417">
        <ele>201</ele>
        <time>2020-01-12T14:24:51.000Z</time>
      </trkpt>
      <trkpt lat="43.5884" lon="0.53417">
        <ele>201</ele>
        <time>2020-01-12T14:24:53.000Z</time>
      </trkpt>
      <trkpt lat="43.5884" lon="0.53417">
        <ele>201</ele>
        <time>2020-01-12T14:24:55.000Z</time>
      </trkpt>
      <trkpt lat="43.58841" lon="0.53417">
        <ele>201</ele>
        <time>2020-01-12T14:24:57.000Z</time>
      </trkpt>
      <trkpt lat="43.58842" lon="0.53418">
        <ele>202</ele>
        <time>2020-01-12T14:24:59.000Z</time>
      </trkpt>
      <trkpt lat="43.58843" lon="0.5342">
        <ele>202</ele>
        <time>2020-01-12T14:25:01.000Z</time>
      </trkpt>
      <trkpt lat="43.58845" lon="0.53421">
        <ele>202</ele>
        <time>2020-01-12T14:25:03.000Z</time>
      </trkpt>
      <trkpt lat="43.58846" lon="0.53422">
        <ele>202</ele>
        <time>2020-01-12T14:25:05.000Z</time>
      </trkpt>
      <trkpt lat="43.58847" lon="0.53423">
        <ele>202</ele>
        <time>2020-01-12T14:25:07.000Z</time>
      </trkpt>
      <trkpt lat="43.58849" lon="0.53424">
        <ele>202</ele>
        <time>2020-01-12T14:25:09.000Z</time>
      </trkpt>
      <trkpt lat="43.58851" lon="0.53425">
        <ele>202</ele>
        <time>2020-01-12T14:25:11.000Z</time>
      </trkpt>
      <trkpt lat="43.58852" lon="0.53427">
        <ele>202</ele>
        <time>2020-01-12T14:25:13.000Z</time>
      </trkpt>
      <trkpt lat="43.58852" lon="0.5343">
        <ele>202</ele>
        <time>2020-01-12T14:25:15.000Z</time>
      </trkpt>
      <trkpt lat="43.58852" lon="0.53432">
        <ele>202</ele>
        <time>2020-01-12T14:25:17.000Z</time>
      </trkpt>
      <trkpt lat="43.58851" lon="0.53435">
        <ele>201</ele>
        <time>2020-01-12T14:25:19.000Z</time>
      </trkpt>
      <trkpt lat="43.58851" lon="0.53438">
        <ele>201</ele>
        <time>2020-01-12T14:25:21.000Z</time>
      </trkpt>
      <trkpt lat="43.5885" lon="0.5344">
        <ele>201</ele>
        <time>2020-01-12T14:25:23.000Z</time>
      </trkpt>
      <trkpt lat="43.58849" lon="0.53443">
        <ele>201</ele>
        <time>2020-01-12T14:25:25.000Z</time>
      </trkpt>
      <trkpt lat="43.58849" lon="0.53446">
        <ele>201</ele>
        <time>2020-01-12T14:25:27.000Z</time>
      </trkpt>
      <trkpt lat="43.58848" lon="0.5345">
        <ele>201</ele>
        <time>2020-01-12T14:25:29.000Z</time>
      </trkpt>
      <trkpt lat="43.58847" lon="0.53453">
        <ele>200</ele>
        <time>2020-01-12T14:25:31.000Z</time>
      </trkpt>
      <trkpt lat="43.58847" lon="0.53456">
        <ele>200</ele>
        <time>2020-01-12T14:25:33.000Z</time>
      </trkpt>
      <trkpt lat="43.58846" lon="0.53459">
        <ele>200</ele>
        <time>2020-01-12T14:25:35.000Z</time>
      </trkpt>
      <trkpt lat="43.58846" lon="0.53461">
        <ele>200</ele>
        <time>2020-01-12T14:25:37.000Z</time>
      </trkpt>
      <trkpt lat="43.58846" lon="0.53463">
        <ele>200</ele>
        <time>2020-01-12T14:25:39.000Z</time>
      </trkpt>
      <trkpt lat="43.58846" lon="0.53465">
        <ele>200</ele>
        <time>2020-01-12T14:25:41.000Z</time>
      </trkpt>
      <trkpt lat="43.58847" lon="0.53465">
        <ele>200</ele>
        <time>2020-01-12T14:25:43.000Z</time>
      </trkpt>
      <trkpt lat="43.58847" lon="0.53465">
        <ele>200</ele>
        <time>2020-01-12T14:25:45.000Z</time>
      </trkpt>
      <trkpt lat="43.58847" lon="0.53465">
        <ele>200</ele>
        <time>2020-01-12T14:25:47.000Z</time>
      </trkpt>
      <trkpt lat="43.58847" lon="0.53465">
        <ele>200</ele>
        <time>2020-01-12T14:25:49.000Z</time>
      </trkpt>
      <trkpt lat="43.58846" lon="0.53465">
        <ele>200</ele>
        <time>2020-01-12T14:25:51.000Z</time>
      </trkpt>
      <trkpt lat="43.58846" lon="0.53465">
        <ele>200</ele>
        <time>2020-01-12T14:25:53.000Z</time>
      </trkpt>
      <trkpt lat="43.58846" lon="0.53464">
        <ele>200</ele>
        <time>2020-01-12T14:25:55.000Z</time>
      </trkpt>
      <trkpt lat="43.58846" lon="0.53464">
        <ele>200</ele>
        <time>2020-01-12T14:25:57.000Z</time>
      </trkpt>
      <trkpt lat="43.58846" lon="0.53464">
        <ele>200</ele>
        <time>2020-01-12T14:25:59.000Z</time>
      </trkpt>
      <trkpt lat="43.58846" lon="0.53463">
        <ele>200</ele>
        <time>2020-01-12T14:26:01.000Z</time>
      </trkpt>
      <trkpt lat="43.58845" lon="0.5346">
        <ele>200</ele>
        <time>2020-01-12T14:26:03.000Z</time>
      </trkpt>
      <trkpt lat="43.58845" lon="0.53457">
        <ele>200</ele>
        <time>2020-01-12T14:26:05.000Z</time>
      </trkpt>
      <trkpt lat="43.58846" lon="0.53454">
        <ele>200</ele>
        <time>2020-01-12T14:26:07.000Z</time>
      </trkpt>
      <trkpt lat="43.58846" lon="0.53452">
        <ele>200</ele>
        <time>2020-01-12T14:26:09.000Z</time>
      </trkpt>
      <trkpt lat="43.58848" lon="0.5345">
        <ele>201</ele>
        <time>2020-01-12T14:26:11.000Z</time>
      </trkpt>
      <trkpt lat="43.58849" lon="0.53452">
        <ele>201</ele>
        <time>2020-01-12T14:26:13.000Z</time>
      </trkpt>
      <trkpt lat="43.5885" lon="0.53455">
        <ele>200</ele>
        <time>2020-01-12T14:26:15.000Z</time>
      </trkpt>
      <trkpt lat="43.58851" lon="0.53458">
        <ele>200</ele>
        <time>2020-01-12T14:26:17.000Z</time>
      </trkpt>
      <trkpt lat="43.58852" lon="0.5346">
        <ele>200</ele>
        <time>2020-01-12T14:26:19.000Z</time>
      </trkpt>
      <trkpt lat="43.58853" lon="0.53463">
        <ele>200</ele>
        <time>2020-01-12T14:26:21.000Z</time>
      </trkpt>
      <trkpt lat="43.58855" lon="0.53465">
        <ele>200</ele>
        <time>2020-01-12T14:26:23.000Z</time>
      </trkpt>
      <trkpt lat="43.58856" lon="0.53468">
        <ele>200</ele>
        <time>2020-01-12T14:26:25.000Z</time>
      </trkpt>
      <trkpt lat="43.58858" lon="0.5347">
        <ele>199</ele>
        <time>2020-01-12T14:26:27.000Z</time>
      </trkpt>
      <trkpt lat="43.58861" lon="0.53471">
        <ele>199</ele>
        <time>2020-01-12T14:26:29.000Z</time>
      </trkpt>
      <trkpt lat="43.58863" lon="0.53474">
        <ele>199</ele>
        <time>2020-01-12T14:26:31.000Z</time>
      </trkpt>
      <trkpt lat="43.58865" lon="0.53476">
        <ele>199</ele>
        <time>2020-01-12T14:26:33.000Z</time>
      </trkpt>
      <trkpt lat="43.58867" lon="0.53478">
        <ele>199</ele>
        <time>2020-01-12T14:26:35.000Z</time>
      </trkpt>
      <trkpt lat="43.58869" lon="0.5348">
        <ele>198</ele>
        <time>2020-01-12T14:26:37.000Z</time>
      </trkpt>
      <trkpt lat="43.5887" lon="0.53482">
        <ele>198</ele>
        <time>2020-01-12T14:26:39.000Z</time>
      </trkpt>
      <trkpt lat="43.58872" lon="0.53484">
        <ele>198</ele>
        <time>2020-01-12T14:26:41.000Z</time>
      </trkpt>
      <trkpt lat="43.58873" lon="0.53486">
        <ele>198</ele>
        <time>2020-01-12T14:26:43.000Z</time>
      </trkpt>
      <trkpt lat="43.58875" lon="0.53488">
        <ele>198</ele>
        <time>2020-01-12T14:26:45.000Z</time>
      </trkpt>
      <trkpt lat="43.58877" lon="0.53489">
        <ele>197</ele>
        <time>2020-01-12T14:26:47.000Z</time>
      </trkpt>
      <trkpt lat="43.58879" lon="0.53491">
        <ele>197</ele>
        <time>2020-01-12T14:26:49.000Z</time>
      </trkpt>
      <trkpt lat="43.58881" lon="0.53493">
        <ele>197</ele>
        <time>2020-01-12T14:26:51.000Z</time>
      </trkpt>
      <trkpt lat="43.58883" lon="0.53495">
        <ele>197</ele>
        <time>2020-01-12T14:26:53.000Z</time>
      </trkpt>
      <trkpt lat="43.58885" lon="0.53497">
        <ele>197</ele>
        <time>2020-01-12T14:26:55.000Z</time>
      </trkpt>
      <trkpt lat="43.58887" lon="0.53499">
        <ele>196</ele>
        <time>2020-01-12T14:26:57.000Z</time>
      </trkpt>
      <trkpt lat="43.58889" lon="0.535">
        <ele>196</ele>
        <time>2020-01-12T14:26:59.000Z</time>
      </trkpt>
      <trkpt lat="43.58891" lon="0.53502">
        <ele>196</ele>
        <time>2020-01-12T14:27:01.000Z</time>
      </trkpt>
      <trkpt lat="43.58892" lon="0.53503">
        <ele>196</ele>
        <time>2020-01-12T14:27:03.000Z</time>
      </trkpt>
      <trkpt lat="43.58894" lon="0.53505">
        <ele>196</ele>
        <time>2020-01-12T14:27:05.000Z</time>
      </trkpt>
      <trkpt lat="43.58896" lon="0.53506">
        <ele>195</ele>
        <time>2020-01-12T14:27:07.000Z</time>
      </trkpt>
      <trkpt lat="43.58898" lon="0.53508">
        <ele>195</ele>
        <time>2020-01-12T14:27:09.000Z</time>
      </trkpt>
      <trkpt lat="43.589" lon="0.5351">
        <ele>195</ele>
        <time>2020-01-12T14:27:11.000Z</time>
      </trkpt>
      <trkpt lat="43.58902" lon="0.53512">
        <ele>195</ele>
        <time>2020-01-12T14:27:13.000Z</time>
      </trkpt>
      <trkpt lat="43.58904" lon="0.53513">
        <ele>195</ele>
        <time>2020-01-12T14:27:15.000Z</time>
      </trkpt>
      <trkpt lat="43.58906" lon="0.53515">
        <ele>194</ele>
        <time>2020-01-12T14:27:17.000Z</time>
      </trkpt>
      <trkpt lat="43.58908" lon="0.53517">
        <ele>194</ele>
        <time>2020-01-12T14:27:19.000Z</time>
      </trkpt>
      <trkpt lat="43.5891" lon="0.53519">
        <ele>194</ele>
        <time>2020-01-12T14:27:21.000Z</time>
      </trkpt>
      <trkpt lat="43.58912" lon="0.53521">
        <ele>194</ele>
        <time>2020-01-12T14:27:23.000Z</time>
      </trkpt>
      <trkpt lat="43.58915" lon="0.53524">
        <ele>193</ele>
        <time>2020-01-12T14:27:25.000Z</time>
      </trkpt>
      <trkpt lat="43.58917" lon="0.53525">
        <ele>193</ele>
        <time>2020-01-12T14:27:27.000Z</time>
      </trkpt>
      <trkpt lat="43.5892" lon="0.53527">
        <ele>193</ele>
        <time>2020-01-12T14:27:29.000Z</time>
      </trkpt>
      <trkpt lat="43.58922" lon="0.5353">
        <ele>193</ele>
        <time>2020-01-12T14:27:31.000Z</time>
      </trkpt>
      <trkpt lat="43.58925" lon="0.53532">
        <ele>193</ele>
        <time>2020-01-12T14:27:33.000Z</time>
      </trkpt>
      <trkpt lat="43.58927" lon="0.53534">
        <ele>192</ele>
        <time>2020-01-12T14:27:35.000Z</time>
      </trkpt>
      <trkpt lat="43.58929" lon="0.53537">
        <ele>192</ele>
        <time>2020-01-12T14:27:37.000Z</time>
      </trkpt>
      <trkpt lat="43.58931" lon="0.53539">
        <ele>192</ele>
        <time>2020-01-12T14:27:39.000Z</time>
      </trkpt>
      <trkpt lat="43.58933" lon="0.53541">
        <ele>192</ele>
        <time>2020-01-12T14:27:41.000Z</time>
      </trkpt>
      <trkpt lat="43.58935" lon="0.53543">
        <ele>191</ele>
        <time>2020-01-12T14:27:43.000Z</time>
      </trkpt>
      <trkpt lat="43.58938" lon="0.53546">
        <ele>191</ele>
        <time>2020-01-12T14:27:45.000Z</time>
      </trkpt>
      <trkpt lat="43.5894" lon="0.53548">
        <ele>191</ele>
        <time>2020-01-12T14:27:47.000Z</time>
      </trkpt>
      <trkpt lat="43.58942" lon="0.5355">
        <ele>192</ele>
        <time>2020-01-12T14:27:49.000Z</time>
      </trkpt>
      <trkpt lat="43.58945" lon="0.53553">
        <ele>192</ele>
        <time>2020-01-12T14:27:51.000Z</time>
      </trkpt>
      <trkpt lat="43.58947" lon="0.53554">
        <ele>192</ele>
        <time>2020-01-12T14:27:53.000Z</time>
      </trkpt>
      <trkpt lat="43.58949" lon="0.53556">
        <ele>192</ele>
        <time>2020-01-12T14:27:55.000Z</time>
      </trkpt>
      <trkpt lat="43.58952" lon="0.53559">
        <ele>192</ele>
        <time>2020-01-12T14:27:57.000Z</time>
      </trkpt>
      <trkpt lat="43.58954" lon="0.5356">
        <ele>192</ele>
        <time>2020-01-12T14:27:59.000Z</time>
      </trkpt>
      <trkpt lat="43.58956" lon="0.53562">
        <ele>192</ele>
        <time>2020-01-12T14:28:01.000Z</time>
      </trkpt>
      <trkpt lat="43.58959" lon="0.53564">
        <ele>192</ele>
        <time>2020-01-12T14:28:03.000Z</time>
      </trkpt>
      <trkpt lat="43.58961" lon="0.53567">
        <ele>192</ele>
        <time>2020-01-12T14:28:05.000Z</time>
      </trkpt>
      <trkpt lat="43.58963" lon="0.5357">
        <ele>192</ele>
        <time>2020-01-12T14:28:07.000Z</time>
      </trkpt>
      <trkpt lat="43.58965" lon="0.53571">
        <ele>192</ele>
        <time>2020-01-12T14:28:09.000Z</time>
      </trkpt>
      <trkpt lat="43.58967" lon="0.53573">
        <ele>192</ele>
        <time>2020-01-12T14:28:11.000Z</time>
      </trkpt>
      <trkpt lat="43.58968" lon="0.53575">
        <ele>193</ele>
        <time>2020-01-12T14:28:13.000Z</time>
      </trkpt>
      <trkpt lat="43.5897" lon="0.53578">
        <ele>193</ele>
        <time>2020-01-12T14:28:15.000Z</time>
      </trkpt>
      <trkpt lat="43.58972" lon="0.5358">
        <ele>193</ele>
        <time>2020-01-12T14:28:17.000Z</time>
      </trkpt>
      <trkpt lat="43.58974" lon="0.53582">
        <ele>193</ele>
        <time>2020-01-12T14:28:19.000Z</time>
      </trkpt>
      <trkpt lat="43.58976" lon="0.53584">
        <ele>193</ele>
        <time>2020-01-12T14:28:21.000Z</time>
      </trkpt>
      <trkpt lat="43.58978" lon="0.53586">
        <ele>193</ele>
        <time>2020-01-12T14:28:23.000Z</time>
      </trkpt>
      <trkpt lat="43.5898" lon="0.53588">
        <ele>193</ele>
        <time>2020-01-12T14:28:25.000Z</time>
      </trkpt>
      <trkpt lat="43.58982" lon="0.5359">
        <ele>193</ele>
        <time>2020-01-12T14:28:27.000Z</time>
      </trkpt>
      <trkpt lat="43.58983" lon="0.53591">
        <ele>193</ele>
        <time>2020-01-12T14:28:29.000Z</time>
      </trkpt>
      <trkpt lat="43.58984" lon="0.53592">
        <ele>193</ele>
        <time>2020-01-12T14:28:31.000Z</time>
      </trkpt>
      <trkpt lat="43.58986" lon="0.53593">
        <ele>193</ele>
        <time>2020-01-12T14:28:33.000Z</time>
      </trkpt>
      <trkpt lat="43.58988" lon="0.53595">
        <ele>193</ele>
        <time>2020-01-12T14:28:35.000Z</time>
      </trkpt>
      <trkpt lat="43.5899" lon="0.53597">
        <ele>193</ele>
        <time>2020-01-12T14:28:37.000Z</time>
      </trkpt>
      <trkpt lat="43.58991" lon="0.53598">
        <ele>193</ele>
        <time>2020-01-12T14:28:39.000Z</time>
      </trkpt>
      <trkpt lat="43.58993" lon="0.536">
        <ele>193</ele>
        <time>2020-01-12T14:28:41.000Z</time>
      </trkpt>
      <trkpt lat="43.58995" lon="0.53603">
        <ele>193</ele>
        <time>2020-01-12T14:28:43.000Z</time>
      </trkpt>
      <trkpt lat="43.58997" lon="0.53604">
        <ele>194</ele>
        <time>2020-01-12T14:28:45.000Z</time>
      </trkpt>
      <trkpt lat="43.58999" lon="0.53606">
        <ele>194</ele>
        <time>2020-01-12T14:28:47.000Z</time>
      </trkpt>
      <trkpt lat="43.59001" lon="0.53608">
        <ele>194</ele>
        <time>2020-01-12T14:28:49.000Z</time>
      </trkpt>
      <trkpt lat="43.59003" lon="0.5361">
        <ele>194</ele>
        <time>2020-01-12T14:28:51.000Z</time>
      </trkpt>
      <trkpt lat="43.59005" lon="0.53611">
        <ele>194</ele>
        <time>2020-01-12T14:28:53.000Z</time>
      </trkpt>
      <trkpt lat="43.59007" lon="0.53614">
        <ele>194</ele>
        <time>2020-01-12T14:28:55.000Z</time>
      </trkpt>
      <trkpt lat="43.59008" lon="0.53615">
        <ele>194</ele>
        <time>2020-01-12T14:28:57.000Z</time>
      </trkpt>
      <trkpt lat="43.5901" lon="0.53617">
        <ele>194</ele>
        <time>2020-01-12T14:28:59.000Z</time>
      </trkpt>
      <trkpt lat="43.59011" lon="0.53618">
        <ele>194</ele>
        <time>2020-01-12T14:29:01.000Z</time>
      </trkpt>
      <trkpt lat="43.59013" lon="0.53619">
        <ele>194</ele>
        <time>2020-01-12T14:29:03.000Z</time>
      </trkpt>
      <trkpt lat="43.59015" lon="0.5362">
        <ele>194</ele>
        <time>2020-01-12T14:29:05.000Z</time>
      </trkpt>
      <trkpt lat="43.59016" lon="0.53621">
        <ele>194</ele>
        <time>2020-01-12T14:29:07.000Z</time>
      </trkpt>
      <trkpt lat="43.59017" lon="0.53622">
        <ele>194</ele>
        <time>2020-01-12T14:29:09.000Z</time>
      </trkpt>
      <trkpt lat="43.59017" lon="0.53623">
        <ele>194</ele>
        <time>2020-01-12T14:29:11.000Z</time>
      </trkpt>
      <trkpt lat="43.59018" lon="0.53625">
        <ele>194</ele>
        <time>2020-01-12T14:29:13.000Z</time>
      </trkpt>
      <trkpt lat="43.59019" lon="0.53627">
        <ele>194</ele>
        <time>2020-01-12T14:29:15.000Z</time>
      </trkpt>
      <trkpt lat="43.59021" lon="0.53629">
        <ele>194</ele>
        <time>2020-01-12T14:29:17.000Z</time>
      </trkpt>
      <trkpt lat="43.59022" lon="0.5363">
        <ele>194</ele>
        <time>2020-01-12T14:29:19.000Z</time>
      </trkpt>
      <trkpt lat="43.59023" lon="0.53632">
        <ele>194</ele>
        <time>2020-01-12T14:29:21.000Z</time>
      </trkpt>
      <trkpt lat="43.59024" lon="0.53634">
        <ele>194</ele>
        <time>2020-01-12T14:29:23.000Z</time>
      </trkpt>
      <trkpt lat="43.59026" lon="0.53636">
        <ele>194</ele>
        <time>2020-01-12T14:29:25.000Z</time>
      </trkpt>
      <trkpt lat="43.59027" lon="0.53637">
        <ele>194</ele>
        <time>2020-01-12T14:29:27.000Z</time>
      </trkpt>
      <trkpt lat="43.59029" lon="0.53638">
        <ele>194</ele>
        <time>2020-01-12T14:29:29.000Z</time>
      </trkpt>
      <trkpt lat="43.59031" lon="0.53638">
        <ele>194</ele>
        <time>2020-01-12T14:29:31.000Z</time>
      </trkpt>
      <trkpt lat="43.59033" lon="0.53639">
        <ele>195</ele>
        <time>2020-01-12T14:29:33.000Z</time>
      </trkpt>
      <trkpt lat="43.59036" lon="0.53639">
        <ele>195</ele>
        <time>2020-01-12T14:29:35.000Z</time>
      </trkpt>
      <trkpt lat="43.59038" lon="0.53639">
        <ele>195</ele>
        <time>2020-01-12T14:29:37.000Z</time>
      </trkpt>
      <trkpt lat="43.5904" lon="0.53639">
        <ele>195</ele>
        <time>2020-01-12T14:29:39.000Z</time>
      </trkpt>
      <trkpt lat="43.59041" lon="0.5364">
        <ele>195</ele>
        <time>2020-01-12T14:29:41.000Z</time>
      </trkpt>
      <trkpt lat="43.59044" lon="0.5364">
        <ele>195</ele>
        <time>2020-01-12T14:29:43.000Z</time>
      </trkpt>
      <trkpt lat="43.59045" lon="0.5364">
        <ele>195</ele>
        <time>2020-01-12T14:29:45.000Z</time>
      </trkpt>
      <trkpt lat="43.59048" lon="0.5364">
        <ele>195</ele>
        <time>2020-01-12T14:29:47.000Z</time>
      </trkpt>
      <trkpt lat="43.5905" lon="0.53639">
        <ele>195</ele>
        <time>2020-01-12T14:29:49.000Z</time>
      </trkpt>
      <trkpt lat="43.59052" lon="0.53639">
        <ele>195</ele>
        <time>2020-01-12T14:29:51.000Z</time>
      </trkpt>
      <trkpt lat="43.59054" lon="0.53639">
        <ele>195</ele>
        <time>2020-01-12T14:29:53.000Z</time>
      </trkpt>
      <trkpt lat="43.59056" lon="0.53639">
        <ele>195</ele>
        <time>2020-01-12T14:29:55.000Z</time>
      </trkpt>
      <trkpt lat="43.59058" lon="0.53639">
        <ele>195</ele>
        <time>2020-01-12T14:29:57.000Z</time>
      </trkpt>
      <trkpt lat="43.5906" lon="0.5364">
        <ele>196</ele>
        <time>2020-01-12T14:29:59.000Z</time>
      </trkpt>
      <trkpt lat="43.59061" lon="0.5364">
        <ele>196</ele>
        <time>2020-01-12T14:30:01.000Z</time>
      </trkpt>
      <trkpt lat="43.59064" lon="0.53643">
        <ele>196</ele>
        <time>2020-01-12T14:30:03.000Z</time>
      </trkpt>
      <trkpt lat="43.59066" lon="0.53644">
        <ele>196</ele>
        <time>2020-01-12T14:30:05.000Z</time>
      </trkpt>
      <trkpt lat="43.59068" lon="0.53646">
        <ele>196</ele>
        <time>2020-01-12T14:30:07.000Z</time>
      </trkpt>
      <trkpt lat="43.5907" lon="0.53648">
        <ele>196</ele>
        <time>2020-01-12T14:30:09.000Z</time>
      </trkpt>
      <trkpt lat="43.59072" lon="0.5365">
        <ele>196</ele>
        <time>2020-01-12T14:30:11.000Z</time>
      </trkpt>
      <trkpt lat="43.59074" lon="0.53652">
        <ele>196</ele>
        <time>2020-01-12T14:30:13.000Z</time>
      </trkpt>
      <trkpt lat="43.59076" lon="0.53653">
        <ele>196</ele>
        <time>2020-01-12T14:30:15.000Z</time>
      </trkpt>
      <trkpt lat="43.59078" lon="0.53654">
        <ele>196</ele>
        <time>2020-01-12T14:30:17.000Z</time>
      </trkpt>
      <trkpt lat="43.5908" lon="0.53656">
        <ele>196</ele>
        <time>2020-01-12T14:30:19.000Z</time>
      </trkpt>
      <trkpt lat="43.59082" lon="0.53658">
        <ele>196</ele>
        <time>2020-01-12T14:30:21.000Z</time>
      </trkpt>
      <trkpt lat="43.59084" lon="0.5366">
        <ele>196</ele>
        <time>2020-01-12T14:30:23.000Z</time>
      </trkpt>
      <trkpt lat="43.59086" lon="0.53663">
        <ele>196</ele>
        <time>2020-01-12T14:30:25.000Z</time>
      </trkpt>
      <trkpt lat="43.59087" lon="0.53665">
        <ele>196</ele>
        <time>2020-01-12T14:30:27.000Z</time>
      </trkpt>
      <trkpt lat="43.59089" lon="0.53667">
        <ele>197</ele>
        <time>2020-01-12T14:30:29.000Z</time>
      </trkpt>
      <trkpt lat="43.59091" lon="0.53669">
        <ele>197</ele>
        <time>2020-01-12T14:30:31.000Z</time>
      </trkpt>
      <trkpt lat="43.59092" lon="0.53671">
        <ele>197</ele>
        <time>2020-01-12T14:30:33.000Z</time>
      </trkpt>
      <trkpt lat="43.59094" lon="0.53672">
        <ele>197</ele>
        <time>2020-01-12T14:30:35.000Z</time>
      </trkpt>
      <trkpt lat="43.59095" lon="0.53673">
        <ele>197</ele>
        <time>2020-01-12T14:30:37.000Z</time>
      </trkpt>
      <trkpt lat="43.59096" lon="0.53675">
        <ele>197</ele>
        <time>2020-01-12T14:30:39.000Z</time>
      </trkpt>
      <trkpt lat="43.59098" lon="0.53675">
        <ele>197</ele>
        <time>2020-01-12T14:30:41.000Z</time>
      </trkpt>
      <trkpt lat="43.59099" lon="0.53676">
        <ele>197</ele>
        <time>2020-01-12T14:30:43.000Z</time>
      </trkpt>
      <trkpt lat="43.59099" lon="0.53677">
        <ele>197</ele>
        <time>2020-01-12T14:30:45.000Z</time>
      </trkpt>
      <trkpt lat="43.59099" lon="0.53675">
        <ele>197</ele>
        <time>2020-01-12T14:30:47.000Z</time>
      </trkpt>
      <trkpt lat="43.591" lon="0.53673">
        <ele>197</ele>
        <time>2020-01-12T14:30:49.000Z</time>
      </trkpt>
      <trkpt lat="43.59101" lon="0.53671">
        <ele>197</ele>
        <time>2020-01-12T14:30:51.000Z</time>
      </trkpt>
      <trkpt lat="43.59101" lon="0.53669">
        <ele>197</ele>
        <time>2020-01-12T14:30:53.000Z</time>
      </trkpt>
      <trkpt lat="43.591" lon="0.53667">
        <ele>197</ele>
        <time>2020-01-12T14:30:55.000Z</time>
      </trkpt>
      <trkpt lat="43.59099" lon="0.53665">
        <ele>197</ele>
        <time>2020-01-12T14:30:57.000Z</time>
      </trkpt>
      <trkpt lat="43.59097" lon="0.53664">
        <ele>197</ele>
        <time>2020-01-12T14:30:59.000Z</time>
      </trkpt>
      <trkpt lat="43.59095" lon="0.53662">
        <ele>197</ele>
        <time>2020-01-12T14:31:01.000Z</time>
      </trkpt>
      <trkpt lat="43.59094" lon="0.5366">
        <ele>197</ele>
        <time>2020-01-12T14:31:03.000Z</time>
      </trkpt>
      <trkpt lat="43.59093" lon="0.53659">
        <ele>197</ele>
        <time>2020-01-12T14:31:05.000Z</time>
      </trkpt>
      <trkpt lat="43.59092" lon="0.53657">
        <ele>197</ele>
        <time>2020-01-12T14:31:07.000Z</time>
      </trkpt>
      <trkpt lat="43.59091" lon="0.53656">
        <ele>197</ele>
        <time>2020-01-12T14:31:09.000Z</time>
      </trkpt>
      <trkpt lat="43.59092" lon="0.53656">
        <ele>197</ele>
        <time>2020-01-12T14:31:11.000Z</time>
      </trkpt>
      <trkpt lat="43.59092" lon="0.53656">
        <ele>197</ele>
        <time>2020-01-12T14:31:13.000Z</time>
      </trkpt>
      <trkpt lat="43.59091" lon="0.53656">
        <ele>197</ele>
        <time>2020-01-12T14:31:15.000Z</time>
      </trkpt>
      <trkpt lat="43.59092" lon="0.53656">
        <ele>197</ele>
        <time>2020-01-12T14:31:17.000Z</time>
      </trkpt>
      <trkpt lat="43.59093" lon="0.53658">
        <ele>197</ele>
        <time>2020-01-12T14:31:19.000Z</time>
      </trkpt>
      <trkpt lat="43.59094" lon="0.5366">
        <ele>197</ele>
        <time>2020-01-12T14:31:21.000Z</time>
      </trkpt>
      <trkpt lat="43.59096" lon="0.53662">
        <ele>197</ele>
        <time>2020-01-12T14:31:23.000Z</time>
      </trkpt>
      <trkpt lat="43.59097" lon="0.53664">
        <ele>197</ele>
        <time>2020-01-12T14:31:25.000Z</time>
      </trkpt>
      <trkpt lat="43.59099" lon="0.53665">
        <ele>197</ele>
        <time>2020-01-12T14:31:27.000Z</time>
      </trkpt>
      <trkpt lat="43.59101" lon="0.53668">
        <ele>197</ele>
        <time>2020-01-12T14:31:29.000Z</time>
      </trkpt>
      <trkpt lat="43.59102" lon="0.5367">
        <ele>197</ele>
        <time>2020-01-12T14:31:31.000Z</time>
      </trkpt>
      <trkpt lat="43.59103" lon="0.53672">
        <ele>197</ele>
        <time>2020-01-12T14:31:33.000Z</time>
      </trkpt>
      <trkpt lat="43.59103" lon="0.53674">
        <ele>197</ele>
        <time>2020-01-12T14:31:35.000Z</time>
      </trkpt>
      <trkpt lat="43.59103" lon="0.53676">
        <ele>197</ele>
        <time>2020-01-12T14:31:37.000Z</time>
      </trkpt>
      <trkpt lat="43.59103" lon="0.5368">
        <ele>197</ele>
        <time>2020-01-12T14:31:39.000Z</time>
      </trkpt>
      <trkpt lat="43.59104" lon="0.53682">
        <ele>197</ele>
        <time>2020-01-12T14:31:41.000Z</time>
      </trkpt>
      <trkpt lat="43.59104" lon="0.53685">
        <ele>197</ele>
        <time>2020-01-12T14:31:43.000Z</time>
      </trkpt>
      <trkpt lat="43.59105" lon="0.53687">
        <ele>197</ele>
        <time>2020-01-12T14:31:45.000Z</time>
      </trkpt>
      <trkpt lat="43.59106" lon="0.53689">
        <ele>198</ele>
        <time>2020-01-12T14:31:47.000Z</time>
      </trkpt>
      <trkpt lat="43.59107" lon="0.53692">
        <ele>198</ele>
        <time>2020-01-12T14:31:49.000Z</time>
      </trkpt>
      <trkpt lat="43.59107" lon="0.53694">
        <ele>198</ele>
        <time>2020-01-12T14:31:51.000Z</time>
      </trkpt>
      <trkpt lat="43.59108" lon="0.53696">
        <ele>198</ele>
        <time>2020-01-12T14:31:53.000Z</time>
      </trkpt>
      <trkpt lat="43.59109" lon="0.53698">
        <ele>198</ele>
        <time>2020-01-12T14:31:55.000Z</time>
      </trkpt>
      <trkpt lat="43.5911" lon="0.537">
        <ele>198</ele>
        <time>2020-01-12T14:31:57.000Z</time>
      </trkpt>
      <trkpt lat="43.59111" lon="0.53702">
        <ele>198</ele>
        <time>2020-01-12T14:31:59.000Z</time>
      </trkpt>
      <trkpt lat="43.59112" lon="0.53703">
        <ele>198</ele>
        <time>2020-01-12T14:32:01.000Z</time>
      </trkpt>
      <trkpt lat="43.59113" lon="0.53705">
        <ele>199</ele>
        <time>2020-01-12T14:32:03.000Z</time>
      </trkpt>
      <trkpt lat="43.59114" lon="0.53707">
        <ele>199</ele>
        <time>2020-01-12T14:32:05.000Z</time>
      </trkpt>
      <trkpt lat="43.59115" lon="0.53709">
        <ele>199</ele>
        <time>2020-01-12T14:32:07.000Z</time>
      </trkpt>
      <trkpt lat="43.59116" lon="0.53711">
        <ele>199</ele>
        <time>2020-01-12T14:32:09.000Z</time>
      </trkpt>
      <trkpt lat="43.59116" lon="0.53713">
        <ele>199</ele>
        <time>2020-01-12T14:32:11.000Z</time>
      </trkpt>
      <trkpt lat="43.59117" lon="0.53715">
        <ele>199</ele>
        <time>2020-01-12T14:32:13.000Z</time>
      </trkpt>
      <trkpt lat="43.59117" lon="0.53717">
        <ele>199</ele>
        <time>2020-01-12T14:32:15.000Z</time>
      </trkpt>
      <trkpt lat="43.59118" lon="0.53719">
        <ele>199</ele>
        <time>2020-01-12T14:32:17.000Z</time>
      </trkpt>
      <trkpt lat="43.59119" lon="0.53721">
        <ele>199</ele>
        <time>2020-01-12T14:32:19.000Z</time>
      </trkpt>
      <trkpt lat="43.5912" lon="0.53723">
        <ele>199</ele>
        <time>2020-01-12T14:32:21.000Z</time>
      </trkpt>
      <trkpt lat="43.59121" lon="0.53726">
        <ele>199</ele>
        <time>2020-01-12T14:32:23.000Z</time>
      </trkpt>
      <trkpt lat="43.59122" lon="0.53728">
        <ele>200</ele>
        <time>2020-01-12T14:32:25.000Z</time>
      </trkpt>
      <trkpt lat="43.59123" lon="0.5373">
        <ele>200</ele>
        <time>2020-01-12T14:32:27.000Z</time>
      </trkpt>
      <trkpt lat="43.59123" lon="0.53733">
        <ele>200</ele>
        <time>2020-01-12T14:32:29.000Z</time>
      </trkpt>
      <trkpt lat="43.59124" lon="0.53736">
        <ele>200</ele>
        <time>2020-01-12T14:32:31.000Z</time>
      </trkpt>
      <trkpt lat="43.59124" lon="0.53738">
        <ele>200</ele>
        <time>2020-01-12T14:32:33.000Z</time>
      </trkpt>
      <trkpt lat="43.59125" lon="0.53741">
        <ele>200</ele>
        <time>2020-01-12T14:32:35.000Z</time>
      </trkpt>
      <trkpt lat="43.59127" lon="0.53743">
        <ele>200</ele>
        <time>2020-01-12T14:32:37.000Z</time>
      </trkpt>
      <trkpt lat="43.59128" lon="0.53745">
        <ele>200</ele>
        <time>2020-01-12T14:32:39.000Z</time>
      </trkpt>
      <trkpt lat="43.59129" lon="0.53748">
        <ele>200</ele>
        <time>2020-01-12T14:32:41.000Z</time>
      </trkpt>
      <trkpt lat="43.59129" lon="0.5375">
        <ele>200</ele>
        <time>2020-01-12T14:32:43.000Z</time>
      </trkpt>
      <trkpt lat="43.5913" lon="0.53752">
        <ele>200</ele>
        <time>2020-01-12T14:32:45.000Z</time>
      </trkpt>
      <trkpt lat="43.59131" lon="0.53755">
        <ele>200</ele>
        <time>2020-01-12T14:32:47.000Z</time>
      </trkpt>
      <trkpt lat="43.59132" lon="0.53757">
        <ele>201</ele>
        <time>2020-01-12T14:32:49.000Z</time>
      </trkpt>
      <trkpt lat="43.59133" lon="0.5376">
        <ele>201</ele>
        <time>2020-01-12T14:32:51.000Z</time>
      </trkpt>
      <trkpt lat="43.59134" lon="0.53762">
        <ele>201</ele>
        <time>2020-01-12T14:32:53.000Z</time>
      </trkpt>
      <trkpt lat="43.59135" lon="0.53765">
        <ele>201</ele>
        <time>2020-01-12T14:32:55.000Z</time>
      </trkpt>
      <trkpt lat="43.59136" lon="0.53767">
        <ele>201</ele>
        <time>2020-01-12T14:32:57.000Z</time>
      </trkpt>
      <trkpt lat="43.59138" lon="0.53769">
        <ele>201</ele>
        <time>2020-01-12T14:32:59.000Z</time>
      </trkpt>
      <trkpt lat="43.59139" lon="0.53772">
        <ele>201</ele>
        <time>2020-01-12T14:33:01.000Z</time>
      </trkpt>
      <trkpt lat="43.5914" lon="0.53775">
        <ele>201</ele>
        <time>2020-01-12T14:33:03.000Z</time>
      </trkpt>
      <trkpt lat="43.59141" lon="0.53777">
        <ele>202</ele>
        <time>2020-01-12T14:33:05.000Z</time>
      </trkpt>
      <trkpt lat="43.59143" lon="0.5378">
        <ele>202</ele>
        <time>2020-01-12T14:33:07.000Z</time>
      </trkpt>
      <trkpt lat="43.59144" lon="0.53783">
        <ele>202</ele>
        <time>2020-01-12T14:33:09.000Z</time>
      </trkpt>
      <trkpt lat="43.59145" lon="0.53785">
        <ele>202</ele>
        <time>2020-01-12T14:33:11.000Z</time>
      </trkpt>
      <trkpt lat="43.59146" lon="0.53787">
        <ele>202</ele>
        <time>2020-01-12T14:33:13.000Z</time>
      </trkpt>
      <trkpt lat="43.59147" lon="0.5379">
        <ele>202</ele>
        <time>2020-01-12T14:33:15.000Z</time>
      </trkpt>
      <trkpt lat="43.59148" lon="0.53792">
        <ele>202</ele>
        <time>2020-01-12T14:33:17.000Z</time>
      </trkpt>
      <trkpt lat="43.5915" lon="0.53793">
        <ele>202</ele>
        <time>2020-01-12T14:33:19.000Z</time>
      </trkpt>
      <trkpt lat="43.59151" lon="0.53796">
        <ele>203</ele>
        <time>2020-01-12T14:33:21.000Z</time>
      </trkpt>
      <trkpt lat="43.59152" lon="0.53798">
        <ele>203</ele>
        <time>2020-01-12T14:33:23.000Z</time>
      </trkpt>
      <trkpt lat="43.59154" lon="0.538">
        <ele>203</ele>
        <time>2020-01-12T14:33:25.000Z</time>
      </trkpt>
      <trkpt lat="43.59155" lon="0.53801">
        <ele>203</ele>
        <time>2020-01-12T14:33:27.000Z</time>
      </trkpt>
      <trkpt lat="43.59156" lon="0.53803">
        <ele>203</ele>
        <time>2020-01-12T14:33:29.000Z</time>
      </trkpt>
      <trkpt lat="43.59157" lon="0.53805">
        <ele>203</ele>
        <time>2020-01-12T14:33:31.000Z</time>
      </trkpt>
      <trkpt lat="43.59158" lon="0.53806">
        <ele>203</ele>
        <time>2020-01-12T14:33:33.000Z</time>
      </trkpt>
      <trkpt lat="43.59159" lon="0.53807">
        <ele>203</ele>
        <time>2020-01-12T14:33:35.000Z</time>
      </trkpt>
      <trkpt lat="43.5916" lon="0.53809">
        <ele>203</ele>
        <time>2020-01-12T14:33:37.000Z</time>
      </trkpt>
      <trkpt lat="43.5916" lon="0.53811">
        <ele>203</ele>
        <time>2020-01-12T14:33:39.000Z</time>
      </trkpt>
      <trkpt lat="43.59161" lon="0.53813">
        <ele>203</ele>
        <time>2020-01-12T14:33:41.000Z</time>
      </trkpt>
      <trkpt lat="43.59162" lon="0.53815">
        <ele>203</ele>
        <time>2020-01-12T14:33:43.000Z</time>
      </trkpt>
      <trkpt lat="43.59163" lon="0.53817">
        <ele>203</ele>
        <time>2020-01-12T14:33:45.000Z</time>
      </trkpt>
      <trkpt lat="43.59164" lon="0.53819">
        <ele>203</ele>
        <time>2020-01-12T14:33:47.000Z</time>
      </trkpt>
      <trkpt lat="43.59165" lon="0.53821">
        <ele>203</ele>
        <time>2020-01-12T14:33:49.000Z</time>
      </trkpt>
      <trkpt lat="43.59166" lon="0.53823">
        <ele>203</ele>
        <time>2020-01-12T14:33:51.000Z</time>
      </trkpt>
      <trkpt lat="43.59167" lon="0.53825">
        <ele>203</ele>
        <time>2020-01-12T14:33:53.000Z</time>
      </trkpt>
      <trkpt lat="43.59168" lon="0.53827">
        <ele>203</ele>
        <time>2020-01-12T14:33:55.000Z</time>
      </trkpt>
      <trkpt lat="43.59169" lon="0.53829">
        <ele>203</ele>
        <time>2020-01-12T14:33:57.000Z</time>
      </trkpt>
      <trkpt lat="43.5917" lon="0.53831">
        <ele>203</ele>
        <time>2020-01-12T14:33:59.000Z</time>
      </trkpt>
      <trkpt lat="43.59172" lon="0.53833">
        <ele>203</ele>
        <time>2020-01-12T14:34:01.000Z</time>
      </trkpt>
      <trkpt lat="43.59173" lon="0.53834">
        <ele>203</ele>
        <time>2020-01-12T14:34:03.000Z</time>
      </trkpt>
      <trkpt lat="43.59174" lon="0.53836">
        <ele>203</ele>
        <time>2020-01-12T14:34:05.000Z</time>
      </trkpt>
      <trkpt lat="43.59175" lon="0.53837">
        <ele>203</ele>
        <time>2020-01-12T14:34:07.000Z</time>
      </trkpt>
      <trkpt lat="43.59177" lon="0.53838">
        <ele>203</ele>
        <time>2020-01-12T14:34:09.000Z</time>
      </trkpt>
      <trkpt lat="43.59178" lon="0.53839">
        <ele>203</ele>
        <time>2020-01-12T14:34:11.000Z</time>
      </trkpt>
      <trkpt lat="43.59179" lon="0.53839">
        <ele>204</ele>
        <time>2020-01-12T14:34:13.000Z</time>
      </trkpt>
      <trkpt lat="43.59181" lon="0.5384">
        <ele>204</ele>
        <time>2020-01-12T14:34:15.000Z</time>
      </trkpt>
      <trkpt lat="43.59182" lon="0.53839">
        <ele>204</ele>
        <time>2020-01-12T14:34:17.000Z</time>
      </trkpt>
      <trkpt lat="43.59184" lon="0.53839">
        <ele>204</ele>
        <time>2020-01-12T14:34:19.000Z</time>
      </trkpt>
      <trkpt lat="43.59185" lon="0.53839">
        <ele>204</ele>
        <time>2020-01-12T14:34:21.000Z</time>
      </trkpt>
      <trkpt lat="43.59184" lon="0.53839">
        <ele>204</ele>
        <time>2020-01-12T14:34:23.000Z</time>
      </trkpt>
      <trkpt lat="43.59185" lon="0.53839">
        <ele>204</ele>
        <time>2020-01-12T14:34:25.000Z</time>
      </trkpt>
      <trkpt lat="43.59186" lon="0.53837">
        <ele>204</ele>
        <time>2020-01-12T14:34:27.000Z</time>
      </trkpt>
      <trkpt lat="43.59187" lon="0.53836">
        <ele>204</ele>
        <time>2020-01-12T14:34:29.000Z</time>
      </trkpt>
      <trkpt lat="43.59188" lon="0.53836">
        <ele>204</ele>
        <time>2020-01-12T14:34:31.000Z</time>
      </trkpt>
      <trkpt lat="43.59189" lon="0.53834">
        <ele>204</ele>
        <time>2020-01-12T14:34:33.000Z</time>
      </trkpt>
      <trkpt lat="43.5919" lon="0.53833">
        <ele>204</ele>
        <time>2020-01-12T14:34:35.000Z</time>
      </trkpt>
      <trkpt lat="43.59191" lon="0.53832">
        <ele>204</ele>
        <time>2020-01-12T14:34:37.000Z</time>
      </trkpt>
      <trkpt lat="43.59192" lon="0.53831">
        <ele>204</ele>
        <time>2020-01-12T14:34:39.000Z</time>
      </trkpt>
      <trkpt lat="43.59193" lon="0.5383">
        <ele>204</ele>
        <time>2020-01-12T14:34:41.000Z</time>
      </trkpt>
      <trkpt lat="43.59193" lon="0.5383">
        <ele>204</ele>
        <time>2020-01-12T14:34:43.000Z</time>
      </trkpt>
      <trkpt lat="43.59193" lon="0.5383">
        <ele>204</ele>
        <time>2020-01-12T14:34:45.000Z</time>
      </trkpt>
      <trkpt lat="43.59195" lon="0.5383">
        <ele>204</ele>
        <time>2020-01-12T14:34:47.000Z</time>
      </trkpt>
      <trkpt lat="43.59196" lon="0.53829">
        <ele>204</ele>
        <time>2020-01-12T14:34:49.000Z</time>
      </trkpt>
      <trkpt lat="43.59197" lon="0.53828">
        <ele>204</ele>
        <time>2020-01-12T14:34:51.000Z</time>
      </trkpt>
      <trkpt lat="43.59199" lon="0.53827">
        <ele>204</ele>
        <time>2020-01-12T14:34:53.000Z</time>
      </trkpt>
      <trkpt lat="43.592" lon="0.53827">
        <ele>204</ele>
        <time>2020-01-12T14:34:55.000Z</time>
      </trkpt>
      <trkpt lat="43.59201" lon="0.53826">
        <ele>204</ele>
        <time>2020-01-12T14:34:57.000Z</time>
      </trkpt>
      <trkpt lat="43.59202" lon="0.53826">
        <ele>204</ele>
        <time>2020-01-12T14:34:59.000Z</time>
      </trkpt>
      <trkpt lat="43.59202" lon="0.53826">
        <ele>204</ele>
        <time>2020-01-12T14:35:01.000Z</time>
      </trkpt>
      <trkpt lat="43.59202" lon="0.53826">
        <ele>204</ele>
        <time>2020-01-12T14:35:03.000Z</time>
      </trkpt>
      <trkpt lat="43.59202" lon="0.53825">
        <ele>204</ele>
        <time>2020-01-12T14:35:05.000Z</time>
      </trkpt>
      <trkpt lat="43.59202" lon="0.53825">
        <ele>204</ele>
        <time>2020-01-12T14:35:07.000Z</time>
      </trkpt>
      <trkpt lat="43.59202" lon="0.53825">
        <ele>204</ele>
        <time>2020-01-12T14:35:09.000Z</time>
      </trkpt>
      <trkpt lat="43.59202" lon="0.53824">
        <ele>204</ele>
        <time>2020-01-12T14:35:11.000Z</time>
      </trkpt>
      <trkpt lat="43.59202" lon="0.53823">
        <ele>204</ele>
        <time>2020-01-12T14:35:13.000Z</time>
      </trkpt>
      <trkpt lat="43.59202" lon="0.53821">
        <ele>205</ele>
        <time>2020-01-12T14:35:15.000Z</time>
      </trkpt>
      <trkpt lat="43.59201" lon="0.5382">
        <ele>205</ele>
        <time>2020-01-12T14:35:17.000Z</time>
      </trkpt>
      <trkpt lat="43.592" lon="0.53819">
        <ele>205</ele>
        <time>2020-01-12T14:35:19.000Z</time>
      </trkpt>
      <trkpt lat="43.59201" lon="0.53818">
        <ele>205</ele>
        <time>2020-01-12T14:35:21.000Z</time>
      </trkpt>
      <trkpt lat="43.592" lon="0.53818">
        <ele>205</ele>
        <time>2020-01-12T14:35:23.000Z</time>
      </trkpt>
      <trkpt lat="43.592" lon="0.53818">
        <ele>205</ele>
        <time>2020-01-12T14:35:25.000Z</time>
      </trkpt>
      <trkpt lat="43.592" lon="0.53818">
        <ele>205</ele>
        <time>2020-01-12T14:35:27.000Z</time>
      </trkpt>
      <trkpt lat="43.59201" lon="0.53818">
        <ele>205</ele>
        <time>2020-01-12T14:35:29.000Z</time>
      </trkpt>
      <trkpt lat="43.59201" lon="0.53818">
        <ele>205</ele>
        <time>2020-01-12T14:35:31.000Z</time>
      </trkpt>
      <trkpt lat="43.59202" lon="0.53819">
        <ele>205</ele>
        <time>2020-01-12T14:35:33.000Z</time>
      </trkpt>
      <trkpt lat="43.59202" lon="0.53819">
        <ele>205</ele>
        <time>2020-01-12T14:35:35.000Z</time>
      </trkpt>
      <trkpt lat="43.59202" lon="0.53817">
        <ele>205</ele>
        <time>2020-01-12T14:35:37.000Z</time>
      </trkpt>
      <trkpt lat="43.59202" lon="0.53815">
        <ele>205</ele>
        <time>2020-01-12T14:35:39.000Z</time>
      </trkpt>
      <trkpt lat="43.59202" lon="0.53813">
        <ele>205</ele>
        <time>2020-01-12T14:35:41.000Z</time>
      </trkpt>
      <trkpt lat="43.59203" lon="0.53811">
        <ele>205</ele>
        <time>2020-01-12T14:35:43.000Z</time>
      </trkpt>
      <trkpt lat="43.59204" lon="0.5381">
        <ele>205</ele>
        <time>2020-01-12T14:35:45.000Z</time>
      </trkpt>
      <trkpt lat="43.59204" lon="0.53809">
        <ele>205</ele>
        <time>2020-01-12T14:35:47.000Z</time>
      </trkpt>
      <trkpt lat="43.59205" lon="0.53807">
        <ele>206</ele>
        <time>2020-01-12T14:35:49.000Z</time>
      </trkpt>
      <trkpt lat="43.59205" lon="0.53805">
        <ele>206</ele>
        <time>2020-01-12T14:35:51.000Z</time>
      </trkpt>
      <trkpt lat="43.59206" lon="0.53803">
        <ele>206</ele>
        <time>2020-01-12T14:35:53.000Z</time>
      </trkpt>
      <trkpt lat="43.59207" lon="0.53801">
        <ele>206</ele>
        <time>2020-01-12T14:35:55.000Z</time>
      </trkpt>
      <trkpt lat="43.59207" lon="0.53799">
        <ele>206</ele>
        <time>2020-01-12T14:35:57.000Z</time>
      </trkpt>
      <trkpt lat="43.59208" lon="0.53797">
        <ele>206</ele>
        <time>2020-01-12T14:35:59.000Z</time>
      </trkpt>
      <trkpt lat="43.59208" lon="0.53796">
        <ele>206</ele>
        <time>2020-01-12T14:36:01.000Z</time>
      </trkpt>
      <trkpt lat="43.59209" lon="0.53794">
        <ele>206</ele>
        <time>2020-01-12T14:36:03.000Z</time>
      </trkpt>
      <trkpt lat="43.59209" lon="0.53793">
        <ele>206</ele>
        <time>2020-01-12T14:36:05.000Z</time>
      </trkpt>
      <trkpt lat="43.59208" lon="0.53792">
        <ele>206</ele>
        <time>2020-01-12T14:36:07.000Z</time>
      </trkpt>
      <trkpt lat="43.59209" lon="0.5379">
        <ele>206</ele>
        <time>2020-01-12T14:36:09.000Z</time>
      </trkpt>
      <trkpt lat="43.5921" lon="0.53787">
        <ele>206</ele>
        <time>2020-01-12T14:36:11.000Z</time>
      </trkpt>
      <trkpt lat="43.59211" lon="0.53785">
        <ele>206</ele>
        <time>2020-01-12T14:36:13.000Z</time>
      </trkpt>
      <trkpt lat="43.59212" lon="0.53783">
        <ele>206</ele>
        <time>2020-01-12T14:36:15.000Z</time>
      </trkpt>
      <trkpt lat="43.59212" lon="0.53781">
        <ele>206</ele>
        <time>2020-01-12T14:36:17.000Z</time>
      </trkpt>
      <trkpt lat="43.59213" lon="0.53778">
        <ele>206</ele>
        <time>2020-01-12T14:36:19.000Z</time>
      </trkpt>
      <trkpt lat="43.59213" lon="0.53776">
        <ele>206</ele>
        <time>2020-01-12T14:36:21.000Z</time>
      </trkpt>
      <trkpt lat="43.59213" lon="0.53773">
        <ele>206</ele>
        <time>2020-01-12T14:36:23.000Z</time>
      </trkpt>
      <trkpt lat="43.59214" lon="0.53771">
        <ele>206</ele>
        <time>2020-01-12T14:36:25.000Z</time>
      </trkpt>
      <trkpt lat="43.59213" lon="0.53769">
        <ele>206</ele>
        <time>2020-01-12T14:36:27.000Z</time>
      </trkpt>
      <trkpt lat="43.59213" lon="0.53768">
        <ele>206</ele>
        <time>2020-01-12T14:36:29.000Z</time>
      </trkpt>
      <trkpt lat="43.59214" lon="0.53767">
        <ele>206</ele>
        <time>2020-01-12T14:36:31.000Z</time>
      </trkpt>
      <trkpt lat="43.59213" lon="0.53767">
        <ele>206</ele>
        <time>2020-01-12T14:36:33.000Z</time>
      </trkpt>
      <trkpt lat="43.59213" lon="0.53768">
        <ele>206</ele>
        <time>2020-01-12T14:36:35.000Z</time>
      </trkpt>
      <trkpt lat="43.59214" lon="0.53768">
        <ele>206</ele>
        <time>2020-01-12T14:36:37.000Z</time>
      </trkpt>
      <trkpt lat="43.59214" lon="0.53768">
        <ele>206</ele>
        <time>2020-01-12T14:36:39.000Z</time>
      </trkpt>
      <trkpt lat="43.59214" lon="0.53767">
        <ele>206</ele>
        <time>2020-01-12T14:36:41.000Z</time>
      </trkpt>
      <trkpt lat="43.59214" lon="0.53766">
        <ele>206</ele>
        <time>2020-01-12T14:36:43.000Z</time>
      </trkpt>
      <trkpt lat="43.59214" lon="0.53765">
        <ele>206</ele>
        <time>2020-01-12T14:36:45.000Z</time>
      </trkpt>
      <trkpt lat="43.59214" lon="0.53765">
        <ele>206</ele>
        <time>2020-01-12T14:36:47.000Z</time>
      </trkpt>
      <trkpt lat="43.59214" lon="0.53765">
        <ele>206</ele>
        <time>2020-01-12T14:36:49.000Z</time>
      </trkpt>
      <trkpt lat="43.59214" lon="0.53766">
        <ele>206</ele>
        <time>2020-01-12T14:36:51.000Z</time>
      </trkpt>
      <trkpt lat="43.59215" lon="0.53765">
        <ele>206</ele>
        <time>2020-01-12T14:36:53.000Z</time>
      </trkpt>
      <trkpt lat="43.59215" lon="0.53764">
        <ele>206</ele>
        <time>2020-01-12T14:36:55.000Z</time>
      </trkpt>
      <trkpt lat="43.59215" lon="0.53764">
        <ele>206</ele>
        <time>2020-01-12T14:36:57.000Z</time>
      </trkpt>
      <trkpt lat="43.59215" lon="0.53764">
        <ele>206</ele>
        <time>2020-01-12T14:36:59.000Z</time>
      </trkpt>
      <trkpt lat="43.59215" lon="0.53764">
        <ele>206</ele>
        <time>2020-01-12T14:37:01.000Z</time>
      </trkpt>
      <trkpt lat="43.59215" lon="0.53764">
        <ele>206</ele>
        <time>2020-01-12T14:37:03.000Z</time>
      </trkpt>
      <trkpt lat="43.59215" lon="0.53764">
        <ele>206</ele>
        <time>2020-01-12T14:37:05.000Z</time>
      </trkpt>
      <trkpt lat="43.59215" lon="0.53765">
        <ele>206</ele>
        <time>2020-01-12T14:37:07.000Z</time>
      </trkpt>
      <trkpt lat="43.59215" lon="0.53764">
        <ele>206</ele>
        <time>2020-01-12T14:37:09.000Z</time>
      </trkpt>
      <trkpt lat="43.59214" lon="0.53762">
        <ele>206</ele>
        <time>2020-01-12T14:37:11.000Z</time>
      </trkpt>
      <trkpt lat="43.59213" lon="0.5376">
        <ele>206</ele>
        <time>2020-01-12T14:37:13.000Z</time>
      </trkpt>
      <trkpt lat="43.59213" lon="0.53758">
        <ele>206</ele>
        <time>2020-01-12T14:37:15.000Z</time>
      </trkpt>
      <trkpt lat="43.59212" lon="0.53756">
        <ele>206</ele>
        <time>2020-01-12T14:37:17.000Z</time>
      </trkpt>
      <trkpt lat="43.59212" lon="0.53753">
        <ele>206</ele>
        <time>2020-01-12T14:37:19.000Z</time>
      </trkpt>
      <trkpt lat="43.59212" lon="0.53751">
        <ele>206</ele>
        <time>2020-01-12T14:37:21.000Z</time>
      </trkpt>
      <trkpt lat="43.59212" lon="0.53749">
        <ele>206</ele>
        <time>2020-01-12T14:37:23.000Z</time>
      </trkpt>
      <trkpt lat="43.59212" lon="0.53747">
        <ele>206</ele>
        <time>2020-01-12T14:37:25.000Z</time>
      </trkpt>
      <trkpt lat="43.59212" lon="0.53745">
        <ele>206</ele>
        <time>2020-01-12T14:37:27.000Z</time>
      </trkpt>
      <trkpt lat="43.59213" lon="0.53743">
        <ele>207</ele>
        <time>2020-01-12T14:37:29.000Z</time>
      </trkpt>
      <trkpt lat="43.59213" lon="0.5374">
        <ele>207</ele>
        <time>2020-01-12T14:37:31.000Z</time>
      </trkpt>
      <trkpt lat="43.59213" lon="0.53738">
        <ele>207</ele>
        <time>2020-01-12T14:37:33.000Z</time>
      </trkpt>
      <trkpt lat="43.59213" lon="0.53735">
        <ele>207</ele>
        <time>2020-01-12T14:37:35.000Z</time>
      </trkpt>
      <trkpt lat="43.59214" lon="0.53732">
        <ele>207</ele>
        <time>2020-01-12T14:37:37.000Z</time>
      </trkpt>
      <trkpt lat="43.59215" lon="0.5373">
        <ele>208</ele>
        <time>2020-01-12T14:37:39.000Z</time>
      </trkpt>
      <trkpt lat="43.59216" lon="0.53727">
        <ele>208</ele>
        <time>2020-01-12T14:37:41.000Z</time>
      </trkpt>
      <trkpt lat="43.59217" lon="0.53725">
        <ele>208</ele>
        <time>2020-01-12T14:37:43.000Z</time>
      </trkpt>
      <trkpt lat="43.59218" lon="0.53723">
        <ele>208</ele>
        <time>2020-01-12T14:37:45.000Z</time>
      </trkpt>
      <trkpt lat="43.59218" lon="0.5372">
        <ele>209</ele>
        <time>2020-01-12T14:37:47.000Z</time>
      </trkpt>
      <trkpt lat="43.59218" lon="0.53718">
        <ele>209</ele>
        <time>2020-01-12T14:37:49.000Z</time>
      </trkpt>
      <trkpt lat="43.59218" lon="0.53717">
        <ele>209</ele>
        <time>2020-01-12T14:37:51.000Z</time>
      </trkpt>
      <trkpt lat="43.59217" lon="0.53716">
        <ele>209</ele>
        <time>2020-01-12T14:37:53.000Z</time>
      </trkpt>
      <trkpt lat="43.59217" lon="0.53716">
        <ele>209</ele>
        <time>2020-01-12T14:37:55.000Z</time>
      </trkpt>
      <trkpt lat="43.59217" lon="0.53716">
        <ele>209</ele>
        <time>2020-01-12T14:37:57.000Z</time>
      </trkpt>
      <trkpt lat="43.59217" lon="0.53716">
        <ele>209</ele>
        <time>2020-01-12T14:37:59.000Z</time>
      </trkpt>
      <trkpt lat="43.59217" lon="0.53716">
        <ele>209</ele>
        <time>2020-01-12T14:38:01.000Z</time>
      </trkpt>
      <trkpt lat="43.59216" lon="0.53715">
        <ele>209</ele>
        <time>2020-01-12T14:38:03.000Z</time>
      </trkpt>
      <trkpt lat="43.59217" lon="0.53715">
        <ele>209</ele>
        <time>2020-01-12T14:38:05.000Z</time>
      </trkpt>
      <trkpt lat="43.59216" lon="0.53715">
        <ele>209</ele>
        <time>2020-01-12T14:38:07.000Z</time>
      </trkpt>
      <trkpt lat="43.59216" lon="0.53715">
        <ele>209</ele>
        <time>2020-01-12T14:38:09.000Z</time>
      </trkpt>
      <trkpt lat="43.59216" lon="0.53715">
        <ele>209</ele>
        <time>2020-01-12T14:38:11.000Z</time>
      </trkpt>
      <trkpt lat="43.59216" lon="0.53715">
        <ele>209</ele>
        <time>2020-01-12T14:38:13.000Z</time>
      </trkpt>
      <trkpt lat="43.59216" lon="0.53715">
        <ele>209</ele>
        <time>2020-01-12T14:38:15.000Z</time>
      </trkpt>
      <trkpt lat="43.59216" lon="0.53715">
        <ele>209</ele>
        <time>2020-01-12T14:38:17.000Z</time>
      </trkpt>
      <trkpt lat="43.59216" lon="0.53715">
        <ele>209</ele>
        <time>2020-01-12T14:38:19.000Z</time>
      </trkpt>
      <trkpt lat="43.59216" lon="0.53715">
        <ele>209</ele>
        <time>2020-01-12T14:38:21.000Z</time>
      </trkpt>
      <trkpt lat="43.59216" lon="0.53715">
        <ele>209</ele>
        <time>2020-01-12T14:38:23.000Z</time>
      </trkpt>
      <trkpt lat="43.59216" lon="0.53715">
        <ele>209</ele>
        <time>2020-01-12T14:38:25.000Z</time>
      </trkpt>
      <trkpt lat="43.59216" lon="0.53715">
        <ele>209</ele>
        <time>2020-01-12T14:38:27.000Z</time>
      </trkpt>
      <trkpt lat="43.59216" lon="0.53715">
        <ele>209</ele>
        <time>2020-01-12T14:38:29.000Z</time>
      </trkpt>
      <trkpt lat="43.59216" lon="0.53715">
        <ele>209</ele>
        <time>2020-01-12T14:38:31.000Z</time>
      </trkpt>
      <trkpt lat="43.59216" lon="0.53715">
        <ele>209</ele>
        <time>2020-01-12T14:38:33.000Z</time>
      </trkpt>
      <trkpt lat="43.59216" lon="0.53715">
        <ele>209</ele>
        <time>2020-01-12T14:38:35.000Z</time>
      </trkpt>
      <trkpt lat="43.59216" lon="0.53715">
        <ele>209</ele>
        <time>2020-01-12T14:38:37.000Z</time>
      </trkpt>
      <trkpt lat="43.59216" lon="0.53715">
        <ele>209</ele>
        <time>2020-01-12T14:38:39.000Z</time>
      </trkpt>
      <trkpt lat="43.59216" lon="0.53715">
        <ele>209</ele>
        <time>2020-01-12T14:38:41.000Z</time>
      </trkpt>
      <trkpt lat="43.59217" lon="0.53716">
        <ele>209</ele>
        <time>2020-01-12T14:38:43.000Z</time>
      </trkpt>
      <trkpt lat="43.59217" lon="0.53716">
        <ele>209</ele>
        <time>2020-01-12T14:38:45.000Z</time>
      </trkpt>
      <trkpt lat="43.59217" lon="0.53716">
        <ele>209</ele>
        <time>2020-01-12T14:38:47.000Z</time>
      </trkpt>
      <trkpt lat="43.59217" lon="0.53717">
        <ele>209</ele>
        <time>2020-01-12T14:38:49.000Z</time>
      </trkpt>
      <trkpt lat="43.59217" lon="0.53717">
        <ele>209</ele>
        <time>2020-01-12T14:38:51.000Z</time>
      </trkpt>
      <trkpt lat="43.59217" lon="0.53717">
        <ele>209</ele>
        <time>2020-01-12T14:38:53.000Z</time>
      </trkpt>
      <trkpt lat="43.59217" lon="0.53717">
        <ele>209</ele>
        <time>2020-01-12T14:38:55.000Z</time>
      </trkpt>
      <trkpt lat="43.59217" lon="0.53717">
        <ele>209</ele>
        <time>2020-01-12T14:38:57.000Z</time>
      </trkpt>
      <trkpt lat="43.59217" lon="0.53717">
        <ele>209</ele>
        <time>2020-01-12T14:38:59.000Z</time>
      </trkpt>
      <trkpt lat="43.59216" lon="0.53717">
        <ele>209</ele>
        <time>2020-01-12T14:39:01.000Z</time>
      </trkpt>
      <trkpt lat="43.59216" lon="0.53717">
        <ele>209</ele>
        <time>2020-01-12T14:39:03.000Z</time>
      </trkpt>
      <trkpt lat="43.59217" lon="0.53716">
        <ele>209</ele>
        <time>2020-01-12T14:39:05.000Z</time>
      </trkpt>
      <trkpt lat="43.59217" lon="0.53716">
        <ele>209</ele>
        <time>2020-01-12T14:39:07.000Z</time>
      </trkpt>
      <trkpt lat="43.59217" lon="0.53716">
        <ele>209</ele>
        <time>2020-01-12T14:39:09.000Z</time>
      </trkpt>
      <trkpt lat="43.59217" lon="0.53716">
        <ele>209</ele>
        <time>2020-01-12T14:39:11.000Z</time>
      </trkpt>
      <trkpt lat="43.59217" lon="0.53716">
        <ele>209</ele>
        <time>2020-01-12T14:39:13.000Z</time>
      </trkpt>
      <trkpt lat="43.59217" lon="0.53716">
        <ele>209</ele>
        <time>2020-01-12T14:39:15.000Z</time>
      </trkpt>
      <trkpt lat="43.59217" lon="0.53716">
        <ele>209</ele>
        <time>2020-01-12T14:39:17.000Z</time>
      </trkpt>
      <trkpt lat="43.59217" lon="0.53716">
        <ele>209</ele>
        <time>2020-01-12T14:39:19.000Z</time>
      </trkpt>
      <trkpt lat="43.59217" lon="0.53716">
        <ele>209</ele>
        <time>2020-01-12T14:39:21.000Z</time>
      </trkpt>
      <trkpt lat="43.59217" lon="0.53716">
        <ele>209</ele>
        <time>2020-01-12T14:39:23.000Z</time>
      </trkpt>
      <trkpt lat="43.59217" lon="0.53716">
        <ele>209</ele>
        <time>2020-01-12T14:39:25.000Z</time>
      </trkpt>
      <trkpt lat="43.59215" lon="0.53716">
        <ele>209</ele>
        <time>2020-01-12T14:39:27.000Z</time>
      </trkpt>
      <trkpt lat="43.59215" lon="0.53716">
        <ele>209</ele>
        <time>2020-01-12T14:39:29.000Z</time>
      </trkpt>
      <trkpt lat="43.59215" lon="0.53715">
        <ele>209</ele>
        <time>2020-01-12T14:39:31.000Z</time>
      </trkpt>
      <trkpt lat="43.59215" lon="0.53716">
        <ele>209</ele>
        <time>2020-01-12T14:39:33.000Z</time>
      </trkpt>
      <trkpt lat="43.59215" lon="0.53716">
        <ele>209</ele>
        <time>2020-01-12T14:39:35.000Z</time>
      </trkpt>
      <trkpt lat="43.59215" lon="0.53716">
        <ele>209</ele>
        <time>2020-01-12T14:39:37.000Z</time>
      </trkpt>
      <trkpt lat="43.59215" lon="0.53715">
        <ele>209</ele>
        <time>2020-01-12T14:39:39.000Z</time>
      </trkpt>
      <trkpt lat="43.59215" lon="0.53715">
        <ele>209</ele>
        <time>2020-01-12T14:39:41.000Z</time>
      </trkpt>
      <trkpt lat="43.59216" lon="0.53715">
        <ele>209</ele>
        <time>2020-01-12T14:39:43.000Z</time>
      </trkpt>
      <trkpt lat="43.59216" lon="0.53714">
        <ele>209</ele>
        <time>2020-01-12T14:39:45.000Z</time>
      </trkpt>
      <trkpt lat="43.59216" lon="0.53714">
        <ele>209</ele>
        <time>2020-01-12T14:39:47.000Z</time>
      </trkpt>
      <trkpt lat="43.59217" lon="0.53715">
        <ele>209</ele>
        <time>2020-01-12T14:39:49.000Z</time>
      </trkpt>
      <trkpt lat="43.59217" lon="0.53716">
        <ele>209</ele>
        <time>2020-01-12T14:39:51.000Z</time>
      </trkpt>
      <trkpt lat="43.59216" lon="0.53716">
        <ele>209</ele>
        <time>2020-01-12T14:39:53.000Z</time>
      </trkpt>
      <trkpt lat="43.59215" lon="0.53716">
        <ele>209</ele>
        <time>2020-01-12T14:39:55.000Z</time>
      </trkpt>
      <trkpt lat="43.59215" lon="0.53715">
        <ele>209</ele>
        <time>2020-01-12T14:39:57.000Z</time>
      </trkpt>
      <trkpt lat="43.59215" lon="0.53715">
        <ele>209</ele>
        <time>2020-01-12T14:39:59.000Z</time>
      </trkpt>
      <trkpt lat="43.59215" lon="0.53715">
        <ele>209</ele>
        <time>2020-01-12T14:40:01.000Z</time>
      </trkpt>
      <trkpt lat="43.59215" lon="0.53716">
        <ele>209</ele>
        <time>2020-01-12T14:40:03.000Z</time>
      </trkpt>
      <trkpt lat="43.59215" lon="0.53716">
        <ele>209</ele>
        <time>2020-01-12T14:40:05.000Z</time>
      </trkpt>
      <trkpt lat="43.59215" lon="0.53715">
        <ele>209</ele>
        <time>2020-01-12T14:40:07.000Z</time>
      </trkpt>
      <trkpt lat="43.59216" lon="0.53715">
        <ele>209</ele>
        <time>2020-01-12T14:40:09.000Z</time>
      </trkpt>
      <trkpt lat="43.59216" lon="0.53715">
        <ele>209</ele>
        <time>2020-01-12T14:40:11.000Z</time>
      </trkpt>
      <trkpt lat="43.59216" lon="0.53715">
        <ele>209</ele>
        <time>2020-01-12T14:40:13.000Z</time>
      </trkpt>
      <trkpt lat="43.59216" lon="0.53716">
        <ele>209</ele>
        <time>2020-01-12T14:40:15.000Z</time>
      </trkpt>
      <trkpt lat="43.59216" lon="0.53716">
        <ele>209</ele>
        <time>2020-01-12T14:40:17.000Z</time>
      </trkpt>
      <trkpt lat="43.59216" lon="0.53716">
        <ele>209</ele>
        <time>2020-01-12T14:40:19.000Z</time>
      </trkpt>
      <trkpt lat="43.59216" lon="0.53716">
        <ele>209</ele>
        <time>2020-01-12T14:40:21.000Z</time>
      </trkpt>
      <trkpt lat="43.59216" lon="0.53716">
        <ele>209</ele>
        <time>2020-01-12T14:40:23.000Z</time>
      </trkpt>
      <trkpt lat="43.59217" lon="0.53716">
        <ele>209</ele>
        <time>2020-01-12T14:40:25.000Z</time>
      </trkpt>
      <trkpt lat="43.59217" lon="0.53716">
        <ele>209</ele>
        <time>2020-01-12T14:40:27.000Z</time>
      </trkpt>
      <trkpt lat="43.59217" lon="0.53715">
        <ele>209</ele>
        <time>2020-01-12T14:40:29.000Z</time>
      </trkpt>
      <trkpt lat="43.59217" lon="0.53715">
        <ele>209</ele>
        <time>2020-01-12T14:40:31.000Z</time>
      </trkpt>
      <trkpt lat="43.59217" lon="0.53715">
        <ele>209</ele>
        <time>2020-01-12T14:40:33.000Z</time>
      </trkpt>
      <trkpt lat="43.59217" lon="0.53715">
        <ele>209</ele>
        <time>2020-01-12T14:40:35.000Z</time>
      </trkpt>
      <trkpt lat="43.59217" lon="0.53716">
        <ele>209</ele>
        <time>2020-01-12T14:40:37.000Z</time>
      </trkpt>
      <trkpt lat="43.59217" lon="0.53715">
        <ele>209</ele>
        <time>2020-01-12T14:40:39.000Z</time>
      </trkpt>
      <trkpt lat="43.59217" lon="0.53716">
        <ele>209</ele>
        <time>2020-01-12T14:40:41.000Z</time>
      </trkpt>
      <trkpt lat="43.59217" lon="0.53716">
        <ele>209</ele>
        <time>2020-01-12T14:40:43.000Z</time>
      </trkpt>
      <trkpt lat="43.59217" lon="0.53716">
        <ele>209</ele>
        <time>2020-01-12T14:40:45.000Z</time>
      </trkpt>
    </trkseg>
  </trk>
</gpx>